<?xml version="1.0" encoding="UTF-8" standalone="no" ?>
<gpx xmlns="http://www.topografix.com/GPX/1/1" xmlns:xsi="http://www.w3.org/2001/XMLSchema-instance" xsi:schemaLocation="http://www.topografix.com/GPX/1/1 http://www.topografix.com/GPX/1/1/gpx.xsd" version="1.1" creator="VisuGPX - https://www.visugpx.com">
  <metadata>
    <name>Grand Tour de Besançon 2 . Chatillon le duc - Devecey - Geneuille Audeux - et retour</name>
  </metadata>
  <trk>
    <name><![CDATA[Grand Tour de Besançon 2 . Chatillon le duc - Devecey - Geneuille Audeux - et retour_1]]></name>
    <trkseg>
      <trkpt lat="47.22894" lon="6.04584">
        <ele>254.2</ele>
        <time>2024-08-03T06:42:33Z</time>
      </trkpt>
      <trkpt lat="47.22893" lon="6.04576">
        <ele>298.8</ele>
        <time>2024-08-03T06:42:34Z</time>
      </trkpt>
      <trkpt lat="47.22893" lon="6.04568">
        <ele>298.6</ele>
        <time>2024-08-03T06:42:35Z</time>
      </trkpt>
      <trkpt lat="47.22893" lon="6.04561">
        <ele>298.4</ele>
        <time>2024-08-03T06:42:36Z</time>
      </trkpt>
      <trkpt lat="47.22893" lon="6.04555">
        <ele>298.4</ele>
        <time>2024-08-03T06:42:37Z</time>
      </trkpt>
      <trkpt lat="47.22893" lon="6.04548">
        <ele>298.2</ele>
        <time>2024-08-03T06:42:38Z</time>
      </trkpt>
      <trkpt lat="47.22892" lon="6.0454">
        <ele>297.8</ele>
        <time>2024-08-03T06:42:39Z</time>
      </trkpt>
      <trkpt lat="47.22892" lon="6.04533">
        <ele>297.4</ele>
        <time>2024-08-03T06:42:40Z</time>
      </trkpt>
      <trkpt lat="47.22892" lon="6.04525">
        <ele>297</ele>
        <time>2024-08-03T06:42:41Z</time>
      </trkpt>
      <trkpt lat="47.22892" lon="6.04517">
        <ele>296.8</ele>
        <time>2024-08-03T06:42:42Z</time>
      </trkpt>
      <trkpt lat="47.22892" lon="6.04511">
        <ele>296.6</ele>
        <time>2024-08-03T06:42:43Z</time>
      </trkpt>
      <trkpt lat="47.22894" lon="6.04504">
        <ele>296.8</ele>
        <time>2024-08-03T06:42:44Z</time>
      </trkpt>
      <trkpt lat="47.22895" lon="6.04498">
        <ele>297</ele>
        <time>2024-08-03T06:42:45Z</time>
      </trkpt>
      <trkpt lat="47.22897" lon="6.04493">
        <ele>297</ele>
        <time>2024-08-03T06:42:46Z</time>
      </trkpt>
      <trkpt lat="47.22899" lon="6.04489">
        <ele>297</ele>
        <time>2024-08-03T06:42:47Z</time>
      </trkpt>
      <trkpt lat="47.22901" lon="6.04485">
        <ele>297.2</ele>
        <time>2024-08-03T06:42:48Z</time>
      </trkpt>
      <trkpt lat="47.22902" lon="6.04482">
        <ele>297.4</ele>
        <time>2024-08-03T06:42:49Z</time>
      </trkpt>
      <trkpt lat="47.22903" lon="6.0448">
        <ele>297.4</ele>
        <time>2024-08-03T06:42:50Z</time>
      </trkpt>
      <trkpt lat="47.22903" lon="6.04477">
        <ele>297.6</ele>
        <time>2024-08-03T06:42:51Z</time>
      </trkpt>
      <trkpt lat="47.22904" lon="6.04475">
        <ele>297.8</ele>
        <time>2024-08-03T06:42:52Z</time>
      </trkpt>
      <trkpt lat="47.22904" lon="6.04472">
        <ele>297.6</ele>
        <time>2024-08-03T06:42:53Z</time>
      </trkpt>
      <trkpt lat="47.22904" lon="6.04469">
        <ele>297.4</ele>
        <time>2024-08-03T06:42:54Z</time>
      </trkpt>
      <trkpt lat="47.22903" lon="6.04465">
        <ele>297.4</ele>
        <time>2024-08-03T06:42:55Z</time>
      </trkpt>
      <trkpt lat="47.22902" lon="6.0446">
        <ele>297.6</ele>
        <time>2024-08-03T06:42:56Z</time>
      </trkpt>
      <trkpt lat="47.22902" lon="6.04455">
        <ele>297.4</ele>
        <time>2024-08-03T06:42:57Z</time>
      </trkpt>
      <trkpt lat="47.22901" lon="6.0445">
        <ele>297.4</ele>
        <time>2024-08-03T06:42:58Z</time>
      </trkpt>
      <trkpt lat="47.229" lon="6.04443">
        <ele>297.2</ele>
        <time>2024-08-03T06:42:59Z</time>
      </trkpt>
      <trkpt lat="47.22899" lon="6.04437">
        <ele>297.2</ele>
        <time>2024-08-03T06:43:00Z</time>
      </trkpt>
      <trkpt lat="47.22898" lon="6.0443">
        <ele>297</ele>
        <time>2024-08-03T06:43:01Z</time>
      </trkpt>
      <trkpt lat="47.22897" lon="6.04423">
        <ele>297.2</ele>
        <time>2024-08-03T06:43:02Z</time>
      </trkpt>
      <trkpt lat="47.22895" lon="6.04415">
        <ele>297.2</ele>
        <time>2024-08-03T06:43:03Z</time>
      </trkpt>
      <trkpt lat="47.22894" lon="6.04407">
        <ele>297</ele>
        <time>2024-08-03T06:43:04Z</time>
      </trkpt>
      <trkpt lat="47.22892" lon="6.04398">
        <ele>297.2</ele>
        <time>2024-08-03T06:43:05Z</time>
      </trkpt>
      <trkpt lat="47.22891" lon="6.0439">
        <ele>297</ele>
        <time>2024-08-03T06:43:06Z</time>
      </trkpt>
      <trkpt lat="47.22889" lon="6.04381">
        <ele>296.8</ele>
        <time>2024-08-03T06:43:07Z</time>
      </trkpt>
      <trkpt lat="47.22889" lon="6.04371">
        <ele>296.8</ele>
        <time>2024-08-03T06:43:08Z</time>
      </trkpt>
      <trkpt lat="47.22889" lon="6.0436">
        <ele>296.6</ele>
        <time>2024-08-03T06:43:09Z</time>
      </trkpt>
      <trkpt lat="47.22889" lon="6.04348">
        <ele>296</ele>
        <time>2024-08-03T06:43:10Z</time>
      </trkpt>
      <trkpt lat="47.2289" lon="6.04336">
        <ele>295.2</ele>
        <time>2024-08-03T06:43:11Z</time>
      </trkpt>
      <trkpt lat="47.22892" lon="6.04325">
        <ele>294.6</ele>
        <time>2024-08-03T06:43:12Z</time>
      </trkpt>
      <trkpt lat="47.22893" lon="6.04313">
        <ele>293.8</ele>
        <time>2024-08-03T06:43:13Z</time>
      </trkpt>
      <trkpt lat="47.22896" lon="6.04302">
        <ele>293.2</ele>
        <time>2024-08-03T06:43:14Z</time>
      </trkpt>
      <trkpt lat="47.22899" lon="6.04292">
        <ele>292.2</ele>
        <time>2024-08-03T06:43:15Z</time>
      </trkpt>
      <trkpt lat="47.22903" lon="6.04281">
        <ele>291.6</ele>
        <time>2024-08-03T06:43:16Z</time>
      </trkpt>
      <trkpt lat="47.22906" lon="6.04271">
        <ele>290.6</ele>
        <time>2024-08-03T06:43:17Z</time>
      </trkpt>
      <trkpt lat="47.22911" lon="6.04262">
        <ele>289.8</ele>
        <time>2024-08-03T06:43:18Z</time>
      </trkpt>
      <trkpt lat="47.22915" lon="6.04253">
        <ele>289</ele>
        <time>2024-08-03T06:43:19Z</time>
      </trkpt>
      <trkpt lat="47.22918" lon="6.04244">
        <ele>288</ele>
        <time>2024-08-03T06:43:20Z</time>
      </trkpt>
      <trkpt lat="47.22922" lon="6.04236">
        <ele>287</ele>
        <time>2024-08-03T06:43:21Z</time>
      </trkpt>
      <trkpt lat="47.22925" lon="6.04229">
        <ele>286</ele>
        <time>2024-08-03T06:43:22Z</time>
      </trkpt>
      <trkpt lat="47.22927" lon="6.0422">
        <ele>285.2</ele>
        <time>2024-08-03T06:43:23Z</time>
      </trkpt>
      <trkpt lat="47.22929" lon="6.04211">
        <ele>284.2</ele>
        <time>2024-08-03T06:43:24Z</time>
      </trkpt>
      <trkpt lat="47.2293" lon="6.04201">
        <ele>283.6</ele>
        <time>2024-08-03T06:43:25Z</time>
      </trkpt>
      <trkpt lat="47.22932" lon="6.04192">
        <ele>283</ele>
        <time>2024-08-03T06:43:26Z</time>
      </trkpt>
      <trkpt lat="47.22935" lon="6.04183">
        <ele>282.4</ele>
        <time>2024-08-03T06:43:27Z</time>
      </trkpt>
      <trkpt lat="47.22939" lon="6.04175">
        <ele>282</ele>
        <time>2024-08-03T06:43:28Z</time>
      </trkpt>
      <trkpt lat="47.22943" lon="6.04167">
        <ele>281.6</ele>
        <time>2024-08-03T06:43:29Z</time>
      </trkpt>
      <trkpt lat="47.22948" lon="6.04159">
        <ele>281.6</ele>
        <time>2024-08-03T06:43:30Z</time>
      </trkpt>
      <trkpt lat="47.22953" lon="6.04151">
        <ele>281.2</ele>
        <time>2024-08-03T06:43:31Z</time>
      </trkpt>
      <trkpt lat="47.22957" lon="6.04142">
        <ele>280.8</ele>
        <time>2024-08-03T06:43:32Z</time>
      </trkpt>
      <trkpt lat="47.22962" lon="6.04134">
        <ele>280</ele>
        <time>2024-08-03T06:43:33Z</time>
      </trkpt>
      <trkpt lat="47.22967" lon="6.04127">
        <ele>279.4</ele>
        <time>2024-08-03T06:43:34Z</time>
      </trkpt>
      <trkpt lat="47.22973" lon="6.0412">
        <ele>278.8</ele>
        <time>2024-08-03T06:43:35Z</time>
      </trkpt>
      <trkpt lat="47.22978" lon="6.04115">
        <ele>278.4</ele>
        <time>2024-08-03T06:43:36Z</time>
      </trkpt>
      <trkpt lat="47.22984" lon="6.04109">
        <ele>278</ele>
        <time>2024-08-03T06:43:37Z</time>
      </trkpt>
      <trkpt lat="47.22989" lon="6.04103">
        <ele>277.4</ele>
        <time>2024-08-03T06:43:38Z</time>
      </trkpt>
      <trkpt lat="47.22994" lon="6.04098">
        <ele>276.8</ele>
        <time>2024-08-03T06:43:39Z</time>
      </trkpt>
      <trkpt lat="47.23" lon="6.04092">
        <ele>276.6</ele>
        <time>2024-08-03T06:43:40Z</time>
      </trkpt>
      <trkpt lat="47.23005" lon="6.04087">
        <ele>276</ele>
        <time>2024-08-03T06:43:41Z</time>
      </trkpt>
      <trkpt lat="47.23009" lon="6.04082">
        <ele>275.4</ele>
        <time>2024-08-03T06:43:42Z</time>
      </trkpt>
      <trkpt lat="47.23014" lon="6.04077">
        <ele>275.2</ele>
        <time>2024-08-03T06:43:43Z</time>
      </trkpt>
      <trkpt lat="47.23018" lon="6.04073">
        <ele>275</ele>
        <time>2024-08-03T06:43:44Z</time>
      </trkpt>
      <trkpt lat="47.23023" lon="6.04068">
        <ele>274.8</ele>
        <time>2024-08-03T06:43:45Z</time>
      </trkpt>
      <trkpt lat="47.23027" lon="6.04064">
        <ele>274.8</ele>
        <time>2024-08-03T06:43:46Z</time>
      </trkpt>
      <trkpt lat="47.23031" lon="6.04059">
        <ele>274.8</ele>
        <time>2024-08-03T06:43:47Z</time>
      </trkpt>
      <trkpt lat="47.23035" lon="6.04055">
        <ele>274.8</ele>
        <time>2024-08-03T06:43:48Z</time>
      </trkpt>
      <trkpt lat="47.2304" lon="6.04051">
        <ele>274.6</ele>
        <time>2024-08-03T06:43:49Z</time>
      </trkpt>
      <trkpt lat="47.23044" lon="6.04047">
        <ele>274.6</ele>
        <time>2024-08-03T06:43:50Z</time>
      </trkpt>
      <trkpt lat="47.23048" lon="6.04043">
        <ele>274.6</ele>
        <time>2024-08-03T06:43:51Z</time>
      </trkpt>
      <trkpt lat="47.23051" lon="6.0404">
        <ele>274.6</ele>
        <time>2024-08-03T06:43:52Z</time>
      </trkpt>
      <trkpt lat="47.23055" lon="6.04036">
        <ele>274.6</ele>
        <time>2024-08-03T06:43:53Z</time>
      </trkpt>
      <trkpt lat="47.23059" lon="6.04033">
        <ele>274.6</ele>
        <time>2024-08-03T06:43:54Z</time>
      </trkpt>
      <trkpt lat="47.23063" lon="6.04029">
        <ele>274.6</ele>
        <time>2024-08-03T06:43:55Z</time>
      </trkpt>
      <trkpt lat="47.23066" lon="6.04025">
        <ele>274.6</ele>
        <time>2024-08-03T06:43:56Z</time>
      </trkpt>
      <trkpt lat="47.2307" lon="6.04022">
        <ele>274.6</ele>
        <time>2024-08-03T06:43:57Z</time>
      </trkpt>
      <trkpt lat="47.23073" lon="6.04018">
        <ele>274.6</ele>
        <time>2024-08-03T06:43:58Z</time>
      </trkpt>
      <trkpt lat="47.23076" lon="6.04014">
        <ele>274.6</ele>
        <time>2024-08-03T06:43:59Z</time>
      </trkpt>
      <trkpt lat="47.2308" lon="6.04011">
        <ele>274.8</ele>
        <time>2024-08-03T06:44:00Z</time>
      </trkpt>
      <trkpt lat="47.23083" lon="6.04007">
        <ele>274.6</ele>
        <time>2024-08-03T06:44:01Z</time>
      </trkpt>
      <trkpt lat="47.23086" lon="6.04004">
        <ele>274.6</ele>
        <time>2024-08-03T06:44:02Z</time>
      </trkpt>
      <trkpt lat="47.23089" lon="6.04001">
        <ele>274.6</ele>
        <time>2024-08-03T06:44:03Z</time>
      </trkpt>
      <trkpt lat="47.23093" lon="6.03997">
        <ele>274.6</ele>
        <time>2024-08-03T06:44:04Z</time>
      </trkpt>
      <trkpt lat="47.23096" lon="6.03994">
        <ele>274.8</ele>
        <time>2024-08-03T06:44:05Z</time>
      </trkpt>
      <trkpt lat="47.23099" lon="6.0399">
        <ele>274.8</ele>
        <time>2024-08-03T06:44:06Z</time>
      </trkpt>
      <trkpt lat="47.23102" lon="6.03987">
        <ele>274.6</ele>
        <time>2024-08-03T06:44:07Z</time>
      </trkpt>
      <trkpt lat="47.23106" lon="6.03984">
        <ele>274.6</ele>
        <time>2024-08-03T06:44:08Z</time>
      </trkpt>
      <trkpt lat="47.23109" lon="6.03981">
        <ele>274.8</ele>
        <time>2024-08-03T06:44:09Z</time>
      </trkpt>
      <trkpt lat="47.23112" lon="6.03978">
        <ele>274.8</ele>
        <time>2024-08-03T06:44:10Z</time>
      </trkpt>
      <trkpt lat="47.23115" lon="6.03975">
        <ele>274.8</ele>
        <time>2024-08-03T06:44:11Z</time>
      </trkpt>
      <trkpt lat="47.23119" lon="6.03972">
        <ele>274.8</ele>
        <time>2024-08-03T06:44:12Z</time>
      </trkpt>
      <trkpt lat="47.23122" lon="6.03969">
        <ele>274.8</ele>
        <time>2024-08-03T06:44:13Z</time>
      </trkpt>
      <trkpt lat="47.23125" lon="6.03965">
        <ele>274.8</ele>
        <time>2024-08-03T06:44:14Z</time>
      </trkpt>
      <trkpt lat="47.23128" lon="6.03962">
        <ele>274.8</ele>
        <time>2024-08-03T06:44:15Z</time>
      </trkpt>
      <trkpt lat="47.23131" lon="6.03959">
        <ele>274.8</ele>
        <time>2024-08-03T06:44:16Z</time>
      </trkpt>
      <trkpt lat="47.23135" lon="6.03956">
        <ele>274.8</ele>
        <time>2024-08-03T06:44:17Z</time>
      </trkpt>
      <trkpt lat="47.23138" lon="6.03952">
        <ele>275</ele>
        <time>2024-08-03T06:44:18Z</time>
      </trkpt>
      <trkpt lat="47.23141" lon="6.03949">
        <ele>275</ele>
        <time>2024-08-03T06:44:19Z</time>
      </trkpt>
      <trkpt lat="47.23144" lon="6.03945">
        <ele>274.8</ele>
        <time>2024-08-03T06:44:20Z</time>
      </trkpt>
      <trkpt lat="47.23148" lon="6.03941">
        <ele>274.8</ele>
        <time>2024-08-03T06:44:21Z</time>
      </trkpt>
      <trkpt lat="47.23151" lon="6.03938">
        <ele>274.8</ele>
        <time>2024-08-03T06:44:22Z</time>
      </trkpt>
      <trkpt lat="47.23154" lon="6.03934">
        <ele>274.8</ele>
        <time>2024-08-03T06:44:23Z</time>
      </trkpt>
      <trkpt lat="47.23157" lon="6.03931">
        <ele>274.8</ele>
        <time>2024-08-03T06:44:24Z</time>
      </trkpt>
      <trkpt lat="47.2316" lon="6.03927">
        <ele>275</ele>
        <time>2024-08-03T06:44:25Z</time>
      </trkpt>
      <trkpt lat="47.23163" lon="6.03924">
        <ele>275</ele>
        <time>2024-08-03T06:44:26Z</time>
      </trkpt>
      <trkpt lat="47.23166" lon="6.03921">
        <ele>275</ele>
        <time>2024-08-03T06:44:27Z</time>
      </trkpt>
      <trkpt lat="47.23169" lon="6.03917">
        <ele>274.8</ele>
        <time>2024-08-03T06:44:28Z</time>
      </trkpt>
      <trkpt lat="47.23173" lon="6.03914">
        <ele>275</ele>
        <time>2024-08-03T06:44:29Z</time>
      </trkpt>
      <trkpt lat="47.23176" lon="6.03911">
        <ele>274.8</ele>
        <time>2024-08-03T06:44:30Z</time>
      </trkpt>
      <trkpt lat="47.2318" lon="6.03908">
        <ele>274.8</ele>
        <time>2024-08-03T06:44:31Z</time>
      </trkpt>
      <trkpt lat="47.23183" lon="6.03905">
        <ele>274.8</ele>
        <time>2024-08-03T06:44:32Z</time>
      </trkpt>
      <trkpt lat="47.23187" lon="6.03902">
        <ele>274.8</ele>
        <time>2024-08-03T06:44:33Z</time>
      </trkpt>
      <trkpt lat="47.23191" lon="6.03898">
        <ele>274.6</ele>
        <time>2024-08-03T06:44:34Z</time>
      </trkpt>
      <trkpt lat="47.23194" lon="6.03895">
        <ele>274.8</ele>
        <time>2024-08-03T06:44:35Z</time>
      </trkpt>
      <trkpt lat="47.23198" lon="6.03891">
        <ele>274.8</ele>
        <time>2024-08-03T06:44:36Z</time>
      </trkpt>
      <trkpt lat="47.23202" lon="6.03888">
        <ele>274.6</ele>
        <time>2024-08-03T06:44:37Z</time>
      </trkpt>
      <trkpt lat="47.23205" lon="6.03884">
        <ele>274.6</ele>
        <time>2024-08-03T06:44:38Z</time>
      </trkpt>
      <trkpt lat="47.23209" lon="6.03881">
        <ele>274.6</ele>
        <time>2024-08-03T06:44:39Z</time>
      </trkpt>
      <trkpt lat="47.23212" lon="6.03878">
        <ele>274.4</ele>
        <time>2024-08-03T06:44:40Z</time>
      </trkpt>
      <trkpt lat="47.23216" lon="6.03875">
        <ele>274.6</ele>
        <time>2024-08-03T06:44:41Z</time>
      </trkpt>
      <trkpt lat="47.2322" lon="6.03872">
        <ele>274.4</ele>
        <time>2024-08-03T06:44:42Z</time>
      </trkpt>
      <trkpt lat="47.23223" lon="6.03869">
        <ele>274.4</ele>
        <time>2024-08-03T06:44:43Z</time>
      </trkpt>
      <trkpt lat="47.23227" lon="6.03865">
        <ele>274.4</ele>
        <time>2024-08-03T06:44:44Z</time>
      </trkpt>
      <trkpt lat="47.2323" lon="6.03861">
        <ele>274.2</ele>
        <time>2024-08-03T06:44:45Z</time>
      </trkpt>
      <trkpt lat="47.23233" lon="6.03857">
        <ele>274.4</ele>
        <time>2024-08-03T06:44:46Z</time>
      </trkpt>
      <trkpt lat="47.23236" lon="6.03854">
        <ele>274.2</ele>
        <time>2024-08-03T06:44:47Z</time>
      </trkpt>
      <trkpt lat="47.2324" lon="6.0385">
        <ele>274.2</ele>
        <time>2024-08-03T06:44:48Z</time>
      </trkpt>
      <trkpt lat="47.23243" lon="6.03846">
        <ele>274.2</ele>
        <time>2024-08-03T06:44:49Z</time>
      </trkpt>
      <trkpt lat="47.23246" lon="6.03843">
        <ele>274.2</ele>
        <time>2024-08-03T06:44:50Z</time>
      </trkpt>
      <trkpt lat="47.23249" lon="6.03839">
        <ele>274</ele>
        <time>2024-08-03T06:44:51Z</time>
      </trkpt>
      <trkpt lat="47.23253" lon="6.03836">
        <ele>274.2</ele>
        <time>2024-08-03T06:44:52Z</time>
      </trkpt>
      <trkpt lat="47.23257" lon="6.03834">
        <ele>274</ele>
        <time>2024-08-03T06:44:53Z</time>
      </trkpt>
      <trkpt lat="47.2326" lon="6.0383">
        <ele>273.8</ele>
        <time>2024-08-03T06:44:54Z</time>
      </trkpt>
      <trkpt lat="47.23263" lon="6.03827">
        <ele>274</ele>
        <time>2024-08-03T06:44:55Z</time>
      </trkpt>
      <trkpt lat="47.23267" lon="6.03823">
        <ele>274</ele>
        <time>2024-08-03T06:44:56Z</time>
      </trkpt>
      <trkpt lat="47.2327" lon="6.0382">
        <ele>273.8</ele>
        <time>2024-08-03T06:44:57Z</time>
      </trkpt>
      <trkpt lat="47.23274" lon="6.03817">
        <ele>273.8</ele>
        <time>2024-08-03T06:44:58Z</time>
      </trkpt>
      <trkpt lat="47.23278" lon="6.03813">
        <ele>273.8</ele>
        <time>2024-08-03T06:44:59Z</time>
      </trkpt>
      <trkpt lat="47.23282" lon="6.03809">
        <ele>273.8</ele>
        <time>2024-08-03T06:45:00Z</time>
      </trkpt>
      <trkpt lat="47.23285" lon="6.03805">
        <ele>273.6</ele>
        <time>2024-08-03T06:45:01Z</time>
      </trkpt>
      <trkpt lat="47.23289" lon="6.03801">
        <ele>273.6</ele>
        <time>2024-08-03T06:45:02Z</time>
      </trkpt>
      <trkpt lat="47.23293" lon="6.03797">
        <ele>273.6</ele>
        <time>2024-08-03T06:45:03Z</time>
      </trkpt>
      <trkpt lat="47.23297" lon="6.03793">
        <ele>273.6</ele>
        <time>2024-08-03T06:45:04Z</time>
      </trkpt>
      <trkpt lat="47.23302" lon="6.0379">
        <ele>273.4</ele>
        <time>2024-08-03T06:45:05Z</time>
      </trkpt>
      <trkpt lat="47.23306" lon="6.03786">
        <ele>273.4</ele>
        <time>2024-08-03T06:45:06Z</time>
      </trkpt>
      <trkpt lat="47.23309" lon="6.03783">
        <ele>273.4</ele>
        <time>2024-08-03T06:45:07Z</time>
      </trkpt>
      <trkpt lat="47.23314" lon="6.03779">
        <ele>273.4</ele>
        <time>2024-08-03T06:45:08Z</time>
      </trkpt>
      <trkpt lat="47.23317" lon="6.03776">
        <ele>273.4</ele>
        <time>2024-08-03T06:45:09Z</time>
      </trkpt>
      <trkpt lat="47.23321" lon="6.03772">
        <ele>273.2</ele>
        <time>2024-08-03T06:45:10Z</time>
      </trkpt>
      <trkpt lat="47.23325" lon="6.03768">
        <ele>273.2</ele>
        <time>2024-08-03T06:45:11Z</time>
      </trkpt>
      <trkpt lat="47.23329" lon="6.03764">
        <ele>273.4</ele>
        <time>2024-08-03T06:45:12Z</time>
      </trkpt>
      <trkpt lat="47.23333" lon="6.0376">
        <ele>273.2</ele>
        <time>2024-08-03T06:45:13Z</time>
      </trkpt>
      <trkpt lat="47.23337" lon="6.03757">
        <ele>273</ele>
        <time>2024-08-03T06:45:14Z</time>
      </trkpt>
      <trkpt lat="47.23341" lon="6.03752">
        <ele>273</ele>
        <time>2024-08-03T06:45:15Z</time>
      </trkpt>
      <trkpt lat="47.23345" lon="6.03748">
        <ele>273</ele>
        <time>2024-08-03T06:45:16Z</time>
      </trkpt>
      <trkpt lat="47.23349" lon="6.03744">
        <ele>273</ele>
        <time>2024-08-03T06:45:17Z</time>
      </trkpt>
      <trkpt lat="47.23353" lon="6.03741">
        <ele>273</ele>
        <time>2024-08-03T06:45:18Z</time>
      </trkpt>
      <trkpt lat="47.23357" lon="6.03738">
        <ele>272.8</ele>
        <time>2024-08-03T06:45:19Z</time>
      </trkpt>
      <trkpt lat="47.23361" lon="6.03735">
        <ele>273</ele>
        <time>2024-08-03T06:45:20Z</time>
      </trkpt>
      <trkpt lat="47.23365" lon="6.03732">
        <ele>273</ele>
        <time>2024-08-03T06:45:21Z</time>
      </trkpt>
      <trkpt lat="47.23369" lon="6.0373">
        <ele>273</ele>
        <time>2024-08-03T06:45:22Z</time>
      </trkpt>
      <trkpt lat="47.23374" lon="6.03728">
        <ele>273</ele>
        <time>2024-08-03T06:45:23Z</time>
      </trkpt>
      <trkpt lat="47.23379" lon="6.03726">
        <ele>272.8</ele>
        <time>2024-08-03T06:45:24Z</time>
      </trkpt>
      <trkpt lat="47.23384" lon="6.03724">
        <ele>272.8</ele>
        <time>2024-08-03T06:45:25Z</time>
      </trkpt>
      <trkpt lat="47.23388" lon="6.03723">
        <ele>272.8</ele>
        <time>2024-08-03T06:45:26Z</time>
      </trkpt>
      <trkpt lat="47.23392" lon="6.03721">
        <ele>272.8</ele>
        <time>2024-08-03T06:45:27Z</time>
      </trkpt>
      <trkpt lat="47.23396" lon="6.03719">
        <ele>273</ele>
        <time>2024-08-03T06:45:28Z</time>
      </trkpt>
      <trkpt lat="47.23401" lon="6.03717">
        <ele>272.8</ele>
        <time>2024-08-03T06:45:29Z</time>
      </trkpt>
      <trkpt lat="47.23405" lon="6.03715">
        <ele>272.8</ele>
        <time>2024-08-03T06:45:30Z</time>
      </trkpt>
      <trkpt lat="47.23409" lon="6.03713">
        <ele>272.8</ele>
        <time>2024-08-03T06:45:31Z</time>
      </trkpt>
      <trkpt lat="47.23413" lon="6.0371">
        <ele>272.8</ele>
        <time>2024-08-03T06:45:32Z</time>
      </trkpt>
      <trkpt lat="47.23417" lon="6.03708">
        <ele>272.8</ele>
        <time>2024-08-03T06:45:33Z</time>
      </trkpt>
      <trkpt lat="47.23422" lon="6.03705">
        <ele>272.8</ele>
        <time>2024-08-03T06:45:34Z</time>
      </trkpt>
      <trkpt lat="47.23426" lon="6.03702">
        <ele>272.8</ele>
        <time>2024-08-03T06:45:35Z</time>
      </trkpt>
      <trkpt lat="47.2343" lon="6.03699">
        <ele>273</ele>
        <time>2024-08-03T06:45:36Z</time>
      </trkpt>
      <trkpt lat="47.23434" lon="6.03696">
        <ele>273</ele>
        <time>2024-08-03T06:45:37Z</time>
      </trkpt>
      <trkpt lat="47.23437" lon="6.03692">
        <ele>273</ele>
        <time>2024-08-03T06:45:38Z</time>
      </trkpt>
      <trkpt lat="47.23441" lon="6.03689">
        <ele>273</ele>
        <time>2024-08-03T06:45:39Z</time>
      </trkpt>
      <trkpt lat="47.23445" lon="6.03685">
        <ele>273</ele>
        <time>2024-08-03T06:45:40Z</time>
      </trkpt>
      <trkpt lat="47.23449" lon="6.03682">
        <ele>273.2</ele>
        <time>2024-08-03T06:45:41Z</time>
      </trkpt>
      <trkpt lat="47.23453" lon="6.0368">
        <ele>273.2</ele>
        <time>2024-08-03T06:45:42Z</time>
      </trkpt>
      <trkpt lat="47.23457" lon="6.03677">
        <ele>273.4</ele>
        <time>2024-08-03T06:45:43Z</time>
      </trkpt>
      <trkpt lat="47.2346" lon="6.03673">
        <ele>273.4</ele>
        <time>2024-08-03T06:45:44Z</time>
      </trkpt>
      <trkpt lat="47.23464" lon="6.0367">
        <ele>273.4</ele>
        <time>2024-08-03T06:45:45Z</time>
      </trkpt>
      <trkpt lat="47.23468" lon="6.03667">
        <ele>273.6</ele>
        <time>2024-08-03T06:45:46Z</time>
      </trkpt>
      <trkpt lat="47.23471" lon="6.03663">
        <ele>273.8</ele>
        <time>2024-08-03T06:45:47Z</time>
      </trkpt>
      <trkpt lat="47.23475" lon="6.03659">
        <ele>273.8</ele>
        <time>2024-08-03T06:45:48Z</time>
      </trkpt>
      <trkpt lat="47.23478" lon="6.03655">
        <ele>274</ele>
        <time>2024-08-03T06:45:49Z</time>
      </trkpt>
      <trkpt lat="47.23482" lon="6.03652">
        <ele>274.2</ele>
        <time>2024-08-03T06:45:50Z</time>
      </trkpt>
      <trkpt lat="47.23485" lon="6.03648">
        <ele>274.2</ele>
        <time>2024-08-03T06:45:51Z</time>
      </trkpt>
      <trkpt lat="47.23489" lon="6.03645">
        <ele>274.2</ele>
        <time>2024-08-03T06:45:52Z</time>
      </trkpt>
      <trkpt lat="47.23492" lon="6.03641">
        <ele>274.2</ele>
        <time>2024-08-03T06:45:53Z</time>
      </trkpt>
      <trkpt lat="47.23495" lon="6.03638">
        <ele>274.2</ele>
        <time>2024-08-03T06:45:54Z</time>
      </trkpt>
      <trkpt lat="47.23498" lon="6.03635">
        <ele>274.2</ele>
        <time>2024-08-03T06:45:55Z</time>
      </trkpt>
      <trkpt lat="47.23502" lon="6.03632">
        <ele>274.4</ele>
        <time>2024-08-03T06:45:56Z</time>
      </trkpt>
      <trkpt lat="47.23505" lon="6.0363">
        <ele>274.6</ele>
        <time>2024-08-03T06:45:57Z</time>
      </trkpt>
      <trkpt lat="47.23509" lon="6.03628">
        <ele>274.8</ele>
        <time>2024-08-03T06:45:58Z</time>
      </trkpt>
      <trkpt lat="47.23513" lon="6.03626">
        <ele>274.8</ele>
        <time>2024-08-03T06:45:59Z</time>
      </trkpt>
      <trkpt lat="47.23517" lon="6.03624">
        <ele>275</ele>
        <time>2024-08-03T06:46:00Z</time>
      </trkpt>
      <trkpt lat="47.23521" lon="6.03622">
        <ele>275</ele>
        <time>2024-08-03T06:46:01Z</time>
      </trkpt>
      <trkpt lat="47.23525" lon="6.0362">
        <ele>275.2</ele>
        <time>2024-08-03T06:46:02Z</time>
      </trkpt>
      <trkpt lat="47.2353" lon="6.03619">
        <ele>275.2</ele>
        <time>2024-08-03T06:46:03Z</time>
      </trkpt>
      <trkpt lat="47.23534" lon="6.03617">
        <ele>275.2</ele>
        <time>2024-08-03T06:46:04Z</time>
      </trkpt>
      <trkpt lat="47.23538" lon="6.03615">
        <ele>275.2</ele>
        <time>2024-08-03T06:46:05Z</time>
      </trkpt>
      <trkpt lat="47.23542" lon="6.03613">
        <ele>275.2</ele>
        <time>2024-08-03T06:46:06Z</time>
      </trkpt>
      <trkpt lat="47.23547" lon="6.03612">
        <ele>275.2</ele>
        <time>2024-08-03T06:46:07Z</time>
      </trkpt>
      <trkpt lat="47.23552" lon="6.0361">
        <ele>275</ele>
        <time>2024-08-03T06:46:08Z</time>
      </trkpt>
      <trkpt lat="47.23556" lon="6.03609">
        <ele>275.2</ele>
        <time>2024-08-03T06:46:09Z</time>
      </trkpt>
      <trkpt lat="47.23561" lon="6.03607">
        <ele>275.2</ele>
        <time>2024-08-03T06:46:10Z</time>
      </trkpt>
      <trkpt lat="47.23566" lon="6.03606">
        <ele>275.2</ele>
        <time>2024-08-03T06:46:11Z</time>
      </trkpt>
      <trkpt lat="47.2357" lon="6.03605">
        <ele>275</ele>
        <time>2024-08-03T06:46:12Z</time>
      </trkpt>
      <trkpt lat="47.23575" lon="6.03604">
        <ele>275.2</ele>
        <time>2024-08-03T06:46:13Z</time>
      </trkpt>
      <trkpt lat="47.2358" lon="6.03603">
        <ele>275.2</ele>
        <time>2024-08-03T06:46:14Z</time>
      </trkpt>
      <trkpt lat="47.23585" lon="6.03602">
        <ele>275.2</ele>
        <time>2024-08-03T06:46:15Z</time>
      </trkpt>
      <trkpt lat="47.2359" lon="6.03601">
        <ele>275</ele>
        <time>2024-08-03T06:46:16Z</time>
      </trkpt>
      <trkpt lat="47.23595" lon="6.036">
        <ele>275</ele>
        <time>2024-08-03T06:46:17Z</time>
      </trkpt>
      <trkpt lat="47.23599" lon="6.03596">
        <ele>274.8</ele>
        <time>2024-08-03T06:46:18Z</time>
      </trkpt>
      <trkpt lat="47.23604" lon="6.03595">
        <ele>274.6</ele>
        <time>2024-08-03T06:46:19Z</time>
      </trkpt>
      <trkpt lat="47.23609" lon="6.03593">
        <ele>274.8</ele>
        <time>2024-08-03T06:46:20Z</time>
      </trkpt>
      <trkpt lat="47.23613" lon="6.03592">
        <ele>274.4</ele>
        <time>2024-08-03T06:46:21Z</time>
      </trkpt>
      <trkpt lat="47.23618" lon="6.03591">
        <ele>274.4</ele>
        <time>2024-08-03T06:46:22Z</time>
      </trkpt>
      <trkpt lat="47.23623" lon="6.03591">
        <ele>274.2</ele>
        <time>2024-08-03T06:46:23Z</time>
      </trkpt>
      <trkpt lat="47.2363" lon="6.03592">
        <ele>274.2</ele>
        <time>2024-08-03T06:46:24Z</time>
      </trkpt>
      <trkpt lat="47.23634" lon="6.03591">
        <ele>274</ele>
        <time>2024-08-03T06:46:25Z</time>
      </trkpt>
      <trkpt lat="47.23638" lon="6.03589">
        <ele>273.6</ele>
        <time>2024-08-03T06:46:26Z</time>
      </trkpt>
      <trkpt lat="47.23642" lon="6.03587">
        <ele>273.6</ele>
        <time>2024-08-03T06:46:27Z</time>
      </trkpt>
      <trkpt lat="47.23647" lon="6.03584">
        <ele>273.4</ele>
        <time>2024-08-03T06:46:28Z</time>
      </trkpt>
      <trkpt lat="47.23651" lon="6.03584">
        <ele>273.4</ele>
        <time>2024-08-03T06:46:29Z</time>
      </trkpt>
      <trkpt lat="47.23657" lon="6.03585">
        <ele>273.2</ele>
        <time>2024-08-03T06:46:30Z</time>
      </trkpt>
      <trkpt lat="47.23662" lon="6.03588">
        <ele>273.2</ele>
        <time>2024-08-03T06:46:31Z</time>
      </trkpt>
      <trkpt lat="47.23666" lon="6.03591">
        <ele>273.2</ele>
        <time>2024-08-03T06:46:32Z</time>
      </trkpt>
      <trkpt lat="47.23669" lon="6.03598">
        <ele>273</ele>
        <time>2024-08-03T06:46:33Z</time>
      </trkpt>
      <trkpt lat="47.23672" lon="6.03603">
        <ele>273.2</ele>
        <time>2024-08-03T06:46:34Z</time>
      </trkpt>
      <trkpt lat="47.23674" lon="6.03608">
        <ele>273.2</ele>
        <time>2024-08-03T06:46:35Z</time>
      </trkpt>
      <trkpt lat="47.23676" lon="6.03614">
        <ele>273</ele>
        <time>2024-08-03T06:46:36Z</time>
      </trkpt>
      <trkpt lat="47.23679" lon="6.0362">
        <ele>273.2</ele>
        <time>2024-08-03T06:46:37Z</time>
      </trkpt>
      <trkpt lat="47.23682" lon="6.03625">
        <ele>273.2</ele>
        <time>2024-08-03T06:46:38Z</time>
      </trkpt>
      <trkpt lat="47.23684" lon="6.0363">
        <ele>273.2</ele>
        <time>2024-08-03T06:46:39Z</time>
      </trkpt>
      <trkpt lat="47.23688" lon="6.03634">
        <ele>273.2</ele>
        <time>2024-08-03T06:46:40Z</time>
      </trkpt>
      <trkpt lat="47.2369" lon="6.03638">
        <ele>273.2</ele>
        <time>2024-08-03T06:46:41Z</time>
      </trkpt>
      <trkpt lat="47.23694" lon="6.0364">
        <ele>273.2</ele>
        <time>2024-08-03T06:46:42Z</time>
      </trkpt>
      <trkpt lat="47.23698" lon="6.03641">
        <ele>273.2</ele>
        <time>2024-08-03T06:46:43Z</time>
      </trkpt>
      <trkpt lat="47.23703" lon="6.03641">
        <ele>273.2</ele>
        <time>2024-08-03T06:46:44Z</time>
      </trkpt>
      <trkpt lat="47.23707" lon="6.03642">
        <ele>273.2</ele>
        <time>2024-08-03T06:46:45Z</time>
      </trkpt>
      <trkpt lat="47.23711" lon="6.03643">
        <ele>273.4</ele>
        <time>2024-08-03T06:46:46Z</time>
      </trkpt>
      <trkpt lat="47.23716" lon="6.03643">
        <ele>273.8</ele>
        <time>2024-08-03T06:46:47Z</time>
      </trkpt>
      <trkpt lat="47.23721" lon="6.03642">
        <ele>273.8</ele>
        <time>2024-08-03T06:46:48Z</time>
      </trkpt>
      <trkpt lat="47.23725" lon="6.03642">
        <ele>273.8</ele>
        <time>2024-08-03T06:46:49Z</time>
      </trkpt>
      <trkpt lat="47.23729" lon="6.03642">
        <ele>274</ele>
        <time>2024-08-03T06:46:50Z</time>
      </trkpt>
      <trkpt lat="47.23733" lon="6.03643">
        <ele>274</ele>
        <time>2024-08-03T06:46:51Z</time>
      </trkpt>
      <trkpt lat="47.23736" lon="6.03644">
        <ele>274</ele>
        <time>2024-08-03T06:46:52Z</time>
      </trkpt>
      <trkpt lat="47.2374" lon="6.03645">
        <ele>274.2</ele>
        <time>2024-08-03T06:46:53Z</time>
      </trkpt>
      <trkpt lat="47.23744" lon="6.03645">
        <ele>274.2</ele>
        <time>2024-08-03T06:46:54Z</time>
      </trkpt>
      <trkpt lat="47.23748" lon="6.03646">
        <ele>274.4</ele>
        <time>2024-08-03T06:46:55Z</time>
      </trkpt>
      <trkpt lat="47.23752" lon="6.03646">
        <ele>274.6</ele>
        <time>2024-08-03T06:46:56Z</time>
      </trkpt>
      <trkpt lat="47.23756" lon="6.03648">
        <ele>274.6</ele>
        <time>2024-08-03T06:46:57Z</time>
      </trkpt>
      <trkpt lat="47.2376" lon="6.03648">
        <ele>274.8</ele>
        <time>2024-08-03T06:46:58Z</time>
      </trkpt>
      <trkpt lat="47.23764" lon="6.03648">
        <ele>275</ele>
        <time>2024-08-03T06:46:59Z</time>
      </trkpt>
      <trkpt lat="47.23769" lon="6.03648">
        <ele>275</ele>
        <time>2024-08-03T06:47:00Z</time>
      </trkpt>
      <trkpt lat="47.23773" lon="6.03649">
        <ele>275.2</ele>
        <time>2024-08-03T06:47:01Z</time>
      </trkpt>
      <trkpt lat="47.23778" lon="6.03649">
        <ele>275.6</ele>
        <time>2024-08-03T06:47:02Z</time>
      </trkpt>
      <trkpt lat="47.23782" lon="6.03648">
        <ele>275.6</ele>
        <time>2024-08-03T06:47:03Z</time>
      </trkpt>
      <trkpt lat="47.23786" lon="6.03648">
        <ele>275.6</ele>
        <time>2024-08-03T06:47:04Z</time>
      </trkpt>
      <trkpt lat="47.2379" lon="6.03647">
        <ele>275.8</ele>
        <time>2024-08-03T06:47:05Z</time>
      </trkpt>
      <trkpt lat="47.23794" lon="6.03647">
        <ele>276</ele>
        <time>2024-08-03T06:47:06Z</time>
      </trkpt>
      <trkpt lat="47.23798" lon="6.03646">
        <ele>276</ele>
        <time>2024-08-03T06:47:07Z</time>
      </trkpt>
      <trkpt lat="47.23803" lon="6.03646">
        <ele>276.2</ele>
        <time>2024-08-03T06:47:08Z</time>
      </trkpt>
      <trkpt lat="47.23807" lon="6.03645">
        <ele>276.4</ele>
        <time>2024-08-03T06:47:09Z</time>
      </trkpt>
      <trkpt lat="47.23811" lon="6.03645">
        <ele>276.4</ele>
        <time>2024-08-03T06:47:10Z</time>
      </trkpt>
      <trkpt lat="47.23814" lon="6.03645">
        <ele>276.6</ele>
        <time>2024-08-03T06:47:11Z</time>
      </trkpt>
      <trkpt lat="47.23817" lon="6.03644">
        <ele>276.8</ele>
        <time>2024-08-03T06:47:12Z</time>
      </trkpt>
      <trkpt lat="47.23821" lon="6.03644">
        <ele>276.8</ele>
        <time>2024-08-03T06:47:13Z</time>
      </trkpt>
      <trkpt lat="47.23825" lon="6.03644">
        <ele>276.8</ele>
        <time>2024-08-03T06:47:14Z</time>
      </trkpt>
      <trkpt lat="47.2383" lon="6.03645">
        <ele>277</ele>
        <time>2024-08-03T06:47:15Z</time>
      </trkpt>
      <trkpt lat="47.23834" lon="6.03647">
        <ele>277.2</ele>
        <time>2024-08-03T06:47:16Z</time>
      </trkpt>
      <trkpt lat="47.23839" lon="6.03648">
        <ele>277.2</ele>
        <time>2024-08-03T06:47:17Z</time>
      </trkpt>
      <trkpt lat="47.23845" lon="6.03648">
        <ele>277.2</ele>
        <time>2024-08-03T06:47:18Z</time>
      </trkpt>
      <trkpt lat="47.2385" lon="6.03648">
        <ele>277.4</ele>
        <time>2024-08-03T06:47:19Z</time>
      </trkpt>
      <trkpt lat="47.23854" lon="6.03647">
        <ele>277.4</ele>
        <time>2024-08-03T06:47:20Z</time>
      </trkpt>
      <trkpt lat="47.23859" lon="6.03645">
        <ele>277.4</ele>
        <time>2024-08-03T06:47:21Z</time>
      </trkpt>
      <trkpt lat="47.23863" lon="6.03643">
        <ele>277.4</ele>
        <time>2024-08-03T06:47:22Z</time>
      </trkpt>
      <trkpt lat="47.23867" lon="6.0364">
        <ele>277.4</ele>
        <time>2024-08-03T06:47:23Z</time>
      </trkpt>
      <trkpt lat="47.23871" lon="6.03637">
        <ele>277.4</ele>
        <time>2024-08-03T06:47:24Z</time>
      </trkpt>
      <trkpt lat="47.23875" lon="6.03634">
        <ele>277.4</ele>
        <time>2024-08-03T06:47:25Z</time>
      </trkpt>
      <trkpt lat="47.23879" lon="6.03631">
        <ele>277.4</ele>
        <time>2024-08-03T06:47:26Z</time>
      </trkpt>
      <trkpt lat="47.23883" lon="6.03627">
        <ele>277.4</ele>
        <time>2024-08-03T06:47:27Z</time>
      </trkpt>
      <trkpt lat="47.23886" lon="6.03624">
        <ele>277.4</ele>
        <time>2024-08-03T06:47:28Z</time>
      </trkpt>
      <trkpt lat="47.23889" lon="6.0362">
        <ele>277.6</ele>
        <time>2024-08-03T06:47:29Z</time>
      </trkpt>
      <trkpt lat="47.23893" lon="6.03617">
        <ele>277.6</ele>
        <time>2024-08-03T06:47:30Z</time>
      </trkpt>
      <trkpt lat="47.23896" lon="6.03613">
        <ele>277.4</ele>
        <time>2024-08-03T06:47:31Z</time>
      </trkpt>
      <trkpt lat="47.239" lon="6.0361">
        <ele>277.6</ele>
        <time>2024-08-03T06:47:32Z</time>
      </trkpt>
      <trkpt lat="47.23903" lon="6.03606">
        <ele>277.6</ele>
        <time>2024-08-03T06:47:33Z</time>
      </trkpt>
      <trkpt lat="47.23907" lon="6.03603">
        <ele>277.6</ele>
        <time>2024-08-03T06:47:34Z</time>
      </trkpt>
      <trkpt lat="47.23909" lon="6.036">
        <ele>277.6</ele>
        <time>2024-08-03T06:47:35Z</time>
      </trkpt>
      <trkpt lat="47.23912" lon="6.03596">
        <ele>277.4</ele>
        <time>2024-08-03T06:47:36Z</time>
      </trkpt>
      <trkpt lat="47.23915" lon="6.03592">
        <ele>277.6</ele>
        <time>2024-08-03T06:47:37Z</time>
      </trkpt>
      <trkpt lat="47.23918" lon="6.03588">
        <ele>277.8</ele>
        <time>2024-08-03T06:47:38Z</time>
      </trkpt>
      <trkpt lat="47.23921" lon="6.03584">
        <ele>278</ele>
        <time>2024-08-03T06:47:39Z</time>
      </trkpt>
      <trkpt lat="47.23923" lon="6.0358">
        <ele>278.2</ele>
        <time>2024-08-03T06:47:40Z</time>
      </trkpt>
      <trkpt lat="47.23926" lon="6.03576">
        <ele>278.4</ele>
        <time>2024-08-03T06:47:41Z</time>
      </trkpt>
      <trkpt lat="47.23929" lon="6.03571">
        <ele>278.6</ele>
        <time>2024-08-03T06:47:42Z</time>
      </trkpt>
      <trkpt lat="47.23932" lon="6.03568">
        <ele>278.8</ele>
        <time>2024-08-03T06:47:43Z</time>
      </trkpt>
      <trkpt lat="47.23935" lon="6.03564">
        <ele>278.8</ele>
        <time>2024-08-03T06:47:44Z</time>
      </trkpt>
      <trkpt lat="47.23937" lon="6.0356">
        <ele>279</ele>
        <time>2024-08-03T06:47:45Z</time>
      </trkpt>
      <trkpt lat="47.2394" lon="6.03556">
        <ele>279</ele>
        <time>2024-08-03T06:47:46Z</time>
      </trkpt>
      <trkpt lat="47.23943" lon="6.03552">
        <ele>279.2</ele>
        <time>2024-08-03T06:47:47Z</time>
      </trkpt>
      <trkpt lat="47.23946" lon="6.03549">
        <ele>279.4</ele>
        <time>2024-08-03T06:47:48Z</time>
      </trkpt>
      <trkpt lat="47.23949" lon="6.03545">
        <ele>279.6</ele>
        <time>2024-08-03T06:47:49Z</time>
      </trkpt>
      <trkpt lat="47.23952" lon="6.03542">
        <ele>279.6</ele>
        <time>2024-08-03T06:47:50Z</time>
      </trkpt>
      <trkpt lat="47.23955" lon="6.03537">
        <ele>279.8</ele>
        <time>2024-08-03T06:47:51Z</time>
      </trkpt>
      <trkpt lat="47.23958" lon="6.03533">
        <ele>279.8</ele>
        <time>2024-08-03T06:47:52Z</time>
      </trkpt>
      <trkpt lat="47.23961" lon="6.03528">
        <ele>280</ele>
        <time>2024-08-03T06:47:53Z</time>
      </trkpt>
      <trkpt lat="47.23964" lon="6.03524">
        <ele>280</ele>
        <time>2024-08-03T06:47:54Z</time>
      </trkpt>
      <trkpt lat="47.23968" lon="6.0352">
        <ele>280</ele>
        <time>2024-08-03T06:47:55Z</time>
      </trkpt>
      <trkpt lat="47.23971" lon="6.03516">
        <ele>280</ele>
        <time>2024-08-03T06:47:56Z</time>
      </trkpt>
      <trkpt lat="47.23975" lon="6.03512">
        <ele>280</ele>
        <time>2024-08-03T06:47:57Z</time>
      </trkpt>
      <trkpt lat="47.23979" lon="6.03508">
        <ele>280</ele>
        <time>2024-08-03T06:47:58Z</time>
      </trkpt>
      <trkpt lat="47.23984" lon="6.03504">
        <ele>280</ele>
        <time>2024-08-03T06:47:59Z</time>
      </trkpt>
      <trkpt lat="47.23988" lon="6.03499">
        <ele>280</ele>
        <time>2024-08-03T06:48:00Z</time>
      </trkpt>
      <trkpt lat="47.23993" lon="6.03495">
        <ele>280</ele>
        <time>2024-08-03T06:48:01Z</time>
      </trkpt>
      <trkpt lat="47.23997" lon="6.03491">
        <ele>280.2</ele>
        <time>2024-08-03T06:48:02Z</time>
      </trkpt>
      <trkpt lat="47.24002" lon="6.03486">
        <ele>280</ele>
        <time>2024-08-03T06:48:03Z</time>
      </trkpt>
      <trkpt lat="47.24007" lon="6.03482">
        <ele>280</ele>
        <time>2024-08-03T06:48:04Z</time>
      </trkpt>
      <trkpt lat="47.24011" lon="6.03478">
        <ele>280</ele>
        <time>2024-08-03T06:48:05Z</time>
      </trkpt>
      <trkpt lat="47.24016" lon="6.03473">
        <ele>279.8</ele>
        <time>2024-08-03T06:48:06Z</time>
      </trkpt>
      <trkpt lat="47.24021" lon="6.03469">
        <ele>279.6</ele>
        <time>2024-08-03T06:48:07Z</time>
      </trkpt>
      <trkpt lat="47.24026" lon="6.03465">
        <ele>279.6</ele>
        <time>2024-08-03T06:48:08Z</time>
      </trkpt>
      <trkpt lat="47.24031" lon="6.03462">
        <ele>279.6</ele>
        <time>2024-08-03T06:48:09Z</time>
      </trkpt>
      <trkpt lat="47.24037" lon="6.03458">
        <ele>279.4</ele>
        <time>2024-08-03T06:48:10Z</time>
      </trkpt>
      <trkpt lat="47.24042" lon="6.03456">
        <ele>279.2</ele>
        <time>2024-08-03T06:48:11Z</time>
      </trkpt>
      <trkpt lat="47.24048" lon="6.03454">
        <ele>279.2</ele>
        <time>2024-08-03T06:48:12Z</time>
      </trkpt>
      <trkpt lat="47.24055" lon="6.03453">
        <ele>279.2</ele>
        <time>2024-08-03T06:48:13Z</time>
      </trkpt>
      <trkpt lat="47.24064" lon="6.03454">
        <ele>279</ele>
        <time>2024-08-03T06:48:14Z</time>
      </trkpt>
      <trkpt lat="47.24069" lon="6.03452">
        <ele>279</ele>
        <time>2024-08-03T06:48:15Z</time>
      </trkpt>
      <trkpt lat="47.24074" lon="6.03449">
        <ele>278.8</ele>
        <time>2024-08-03T06:48:16Z</time>
      </trkpt>
      <trkpt lat="47.24081" lon="6.03448">
        <ele>278.8</ele>
        <time>2024-08-03T06:48:17Z</time>
      </trkpt>
      <trkpt lat="47.24087" lon="6.03447">
        <ele>278.8</ele>
        <time>2024-08-03T06:48:18Z</time>
      </trkpt>
      <trkpt lat="47.24092" lon="6.03446">
        <ele>278.6</ele>
        <time>2024-08-03T06:48:19Z</time>
      </trkpt>
      <trkpt lat="47.24098" lon="6.03445">
        <ele>278.6</ele>
        <time>2024-08-03T06:48:20Z</time>
      </trkpt>
      <trkpt lat="47.24102" lon="6.03443">
        <ele>278.4</ele>
        <time>2024-08-03T06:48:21Z</time>
      </trkpt>
      <trkpt lat="47.24107" lon="6.03441">
        <ele>278.2</ele>
        <time>2024-08-03T06:48:22Z</time>
      </trkpt>
      <trkpt lat="47.24112" lon="6.03441">
        <ele>278</ele>
        <time>2024-08-03T06:48:23Z</time>
      </trkpt>
      <trkpt lat="47.24116" lon="6.03439">
        <ele>278</ele>
        <time>2024-08-03T06:48:24Z</time>
      </trkpt>
      <trkpt lat="47.24121" lon="6.03438">
        <ele>278</ele>
        <time>2024-08-03T06:48:25Z</time>
      </trkpt>
      <trkpt lat="47.24125" lon="6.03436">
        <ele>277.8</ele>
        <time>2024-08-03T06:48:26Z</time>
      </trkpt>
      <trkpt lat="47.2413" lon="6.03435">
        <ele>277.6</ele>
        <time>2024-08-03T06:48:27Z</time>
      </trkpt>
      <trkpt lat="47.24135" lon="6.03434">
        <ele>277.6</ele>
        <time>2024-08-03T06:48:28Z</time>
      </trkpt>
      <trkpt lat="47.2414" lon="6.03432">
        <ele>277.6</ele>
        <time>2024-08-03T06:48:29Z</time>
      </trkpt>
      <trkpt lat="47.24145" lon="6.0343">
        <ele>277.6</ele>
        <time>2024-08-03T06:48:30Z</time>
      </trkpt>
      <trkpt lat="47.2415" lon="6.03428">
        <ele>277.4</ele>
        <time>2024-08-03T06:48:31Z</time>
      </trkpt>
      <trkpt lat="47.24154" lon="6.03426">
        <ele>277.4</ele>
        <time>2024-08-03T06:48:32Z</time>
      </trkpt>
      <trkpt lat="47.24159" lon="6.03424">
        <ele>277.4</ele>
        <time>2024-08-03T06:48:33Z</time>
      </trkpt>
      <trkpt lat="47.24163" lon="6.03422">
        <ele>277.4</ele>
        <time>2024-08-03T06:48:34Z</time>
      </trkpt>
      <trkpt lat="47.24167" lon="6.0342">
        <ele>277.4</ele>
        <time>2024-08-03T06:48:35Z</time>
      </trkpt>
      <trkpt lat="47.24171" lon="6.03418">
        <ele>277.2</ele>
        <time>2024-08-03T06:48:36Z</time>
      </trkpt>
      <trkpt lat="47.24175" lon="6.03416">
        <ele>277.2</ele>
        <time>2024-08-03T06:48:37Z</time>
      </trkpt>
      <trkpt lat="47.24177" lon="6.03416">
        <ele>277.4</ele>
        <time>2024-08-03T06:48:38Z</time>
      </trkpt>
      <trkpt lat="47.24179" lon="6.03416">
        <ele>277.2</ele>
        <time>2024-08-03T06:48:39Z</time>
      </trkpt>
      <trkpt lat="47.24181" lon="6.03417">
        <ele>277.2</ele>
        <time>2024-08-03T06:48:40Z</time>
      </trkpt>
      <trkpt lat="47.24183" lon="6.03417">
        <ele>277.2</ele>
        <time>2024-08-03T06:48:41Z</time>
      </trkpt>
      <trkpt lat="47.24185" lon="6.03417">
        <ele>277.2</ele>
        <time>2024-08-03T06:48:42Z</time>
      </trkpt>
      <trkpt lat="47.24186" lon="6.03416">
        <ele>277.2</ele>
        <time>2024-08-03T06:48:43Z</time>
      </trkpt>
      <trkpt lat="47.24186" lon="6.03416">
        <ele>277.2</ele>
        <time>2024-08-03T06:48:44Z</time>
      </trkpt>
      <trkpt lat="47.24186" lon="6.03416">
        <ele>277.2</ele>
        <time>2024-08-03T06:48:45Z</time>
      </trkpt>
      <trkpt lat="47.24186" lon="6.03417">
        <ele>277.2</ele>
        <time>2024-08-03T06:48:46Z</time>
      </trkpt>
      <trkpt lat="47.24186" lon="6.03417">
        <ele>277.2</ele>
        <time>2024-08-03T06:48:47Z</time>
      </trkpt>
      <trkpt lat="47.24185" lon="6.03417">
        <ele>277.2</ele>
        <time>2024-08-03T06:48:48Z</time>
      </trkpt>
      <trkpt lat="47.24184" lon="6.03416">
        <ele>277.2</ele>
        <time>2024-08-03T06:48:49Z</time>
      </trkpt>
      <trkpt lat="47.24183" lon="6.03416">
        <ele>277.2</ele>
        <time>2024-08-03T06:48:50Z</time>
      </trkpt>
      <trkpt lat="47.24184" lon="6.03416">
        <ele>277.2</ele>
        <time>2024-08-03T06:48:51Z</time>
      </trkpt>
      <trkpt lat="47.24184" lon="6.03416">
        <ele>277.2</ele>
        <time>2024-08-03T06:48:52Z</time>
      </trkpt>
      <trkpt lat="47.24184" lon="6.03416">
        <ele>277.2</ele>
        <time>2024-08-03T06:48:53Z</time>
      </trkpt>
      <trkpt lat="47.24184" lon="6.03416">
        <ele>277.2</ele>
        <time>2024-08-03T06:48:54Z</time>
      </trkpt>
      <trkpt lat="47.24184" lon="6.03416">
        <ele>277.2</ele>
        <time>2024-08-03T06:48:55Z</time>
      </trkpt>
      <trkpt lat="47.24184" lon="6.03416">
        <ele>277.2</ele>
        <time>2024-08-03T06:48:56Z</time>
      </trkpt>
      <trkpt lat="47.24184" lon="6.03416">
        <ele>277.4</ele>
        <time>2024-08-03T06:48:57Z</time>
      </trkpt>
      <trkpt lat="47.24184" lon="6.03416">
        <ele>277.4</ele>
        <time>2024-08-03T06:48:58Z</time>
      </trkpt>
      <trkpt lat="47.24184" lon="6.03416">
        <ele>277.6</ele>
        <time>2024-08-03T06:48:59Z</time>
      </trkpt>
      <trkpt lat="47.24184" lon="6.03416">
        <ele>277.6</ele>
        <time>2024-08-03T06:49:00Z</time>
      </trkpt>
      <trkpt lat="47.24184" lon="6.03416">
        <ele>277.6</ele>
        <time>2024-08-03T06:49:01Z</time>
      </trkpt>
      <trkpt lat="47.24183" lon="6.03416">
        <ele>277.6</ele>
        <time>2024-08-03T06:49:02Z</time>
      </trkpt>
      <trkpt lat="47.24184" lon="6.03416">
        <ele>277.6</ele>
        <time>2024-08-03T06:49:03Z</time>
      </trkpt>
      <trkpt lat="47.24184" lon="6.03416">
        <ele>277.6</ele>
        <time>2024-08-03T06:49:04Z</time>
      </trkpt>
      <trkpt lat="47.24184" lon="6.03416">
        <ele>277.6</ele>
        <time>2024-08-03T06:49:05Z</time>
      </trkpt>
      <trkpt lat="47.24184" lon="6.03416">
        <ele>277.6</ele>
        <time>2024-08-03T06:49:06Z</time>
      </trkpt>
      <trkpt lat="47.24184" lon="6.03416">
        <ele>277.6</ele>
        <time>2024-08-03T06:49:07Z</time>
      </trkpt>
      <trkpt lat="47.24184" lon="6.03416">
        <ele>277.6</ele>
        <time>2024-08-03T06:49:08Z</time>
      </trkpt>
      <trkpt lat="47.24184" lon="6.03415">
        <ele>277.6</ele>
        <time>2024-08-03T06:49:09Z</time>
      </trkpt>
      <trkpt lat="47.24184" lon="6.03415">
        <ele>277.6</ele>
        <time>2024-08-03T06:49:10Z</time>
      </trkpt>
      <trkpt lat="47.24184" lon="6.03415">
        <ele>277.6</ele>
        <time>2024-08-03T06:49:11Z</time>
      </trkpt>
      <trkpt lat="47.24184" lon="6.03415">
        <ele>277.6</ele>
        <time>2024-08-03T06:49:12Z</time>
      </trkpt>
      <trkpt lat="47.24184" lon="6.03414">
        <ele>277.6</ele>
        <time>2024-08-03T06:49:13Z</time>
      </trkpt>
      <trkpt lat="47.24183" lon="6.03414">
        <ele>277.6</ele>
        <time>2024-08-03T06:49:14Z</time>
      </trkpt>
      <trkpt lat="47.24183" lon="6.03414">
        <ele>277.6</ele>
        <time>2024-08-03T06:49:15Z</time>
      </trkpt>
      <trkpt lat="47.24183" lon="6.03415">
        <ele>277.6</ele>
        <time>2024-08-03T06:49:16Z</time>
      </trkpt>
      <trkpt lat="47.24183" lon="6.03415">
        <ele>277.8</ele>
        <time>2024-08-03T06:49:17Z</time>
      </trkpt>
      <trkpt lat="47.24183" lon="6.03416">
        <ele>277.8</ele>
        <time>2024-08-03T06:49:18Z</time>
      </trkpt>
      <trkpt lat="47.24183" lon="6.03417">
        <ele>277.6</ele>
        <time>2024-08-03T06:49:19Z</time>
      </trkpt>
      <trkpt lat="47.24183" lon="6.03417">
        <ele>277.6</ele>
        <time>2024-08-03T06:49:20Z</time>
      </trkpt>
      <trkpt lat="47.24183" lon="6.03417">
        <ele>277.8</ele>
        <time>2024-08-03T06:49:21Z</time>
      </trkpt>
      <trkpt lat="47.24182" lon="6.03417">
        <ele>277.6</ele>
        <time>2024-08-03T06:49:22Z</time>
      </trkpt>
      <trkpt lat="47.24182" lon="6.03417">
        <ele>277.6</ele>
        <time>2024-08-03T06:49:23Z</time>
      </trkpt>
      <trkpt lat="47.24182" lon="6.03417">
        <ele>277.6</ele>
        <time>2024-08-03T06:49:24Z</time>
      </trkpt>
      <trkpt lat="47.24182" lon="6.03417">
        <ele>277.6</ele>
        <time>2024-08-03T06:49:25Z</time>
      </trkpt>
      <trkpt lat="47.24183" lon="6.03417">
        <ele>277.6</ele>
        <time>2024-08-03T06:49:26Z</time>
      </trkpt>
      <trkpt lat="47.24183" lon="6.03417">
        <ele>277.8</ele>
        <time>2024-08-03T06:49:27Z</time>
      </trkpt>
      <trkpt lat="47.24183" lon="6.03417">
        <ele>277.6</ele>
        <time>2024-08-03T06:49:28Z</time>
      </trkpt>
      <trkpt lat="47.24183" lon="6.03417">
        <ele>277.6</ele>
        <time>2024-08-03T06:49:29Z</time>
      </trkpt>
      <trkpt lat="47.24183" lon="6.03417">
        <ele>277.6</ele>
        <time>2024-08-03T06:49:30Z</time>
      </trkpt>
      <trkpt lat="47.24182" lon="6.03417">
        <ele>277.6</ele>
        <time>2024-08-03T06:49:31Z</time>
      </trkpt>
      <trkpt lat="47.24182" lon="6.03417">
        <ele>277.4</ele>
        <time>2024-08-03T06:49:32Z</time>
      </trkpt>
      <trkpt lat="47.24182" lon="6.03417">
        <ele>277.4</ele>
        <time>2024-08-03T06:49:33Z</time>
      </trkpt>
      <trkpt lat="47.24182" lon="6.03417">
        <ele>277.6</ele>
        <time>2024-08-03T06:49:34Z</time>
      </trkpt>
      <trkpt lat="47.24182" lon="6.03417">
        <ele>277.6</ele>
        <time>2024-08-03T06:49:35Z</time>
      </trkpt>
      <trkpt lat="47.24182" lon="6.03417">
        <ele>277.6</ele>
        <time>2024-08-03T06:49:36Z</time>
      </trkpt>
      <trkpt lat="47.24182" lon="6.03417">
        <ele>277.6</ele>
        <time>2024-08-03T06:49:37Z</time>
      </trkpt>
      <trkpt lat="47.24182" lon="6.03418">
        <ele>277.4</ele>
        <time>2024-08-03T06:49:38Z</time>
      </trkpt>
      <trkpt lat="47.24182" lon="6.03418">
        <ele>277.4</ele>
        <time>2024-08-03T06:49:39Z</time>
      </trkpt>
      <trkpt lat="47.24182" lon="6.03418">
        <ele>277.2</ele>
        <time>2024-08-03T06:49:40Z</time>
      </trkpt>
      <trkpt lat="47.24182" lon="6.03418">
        <ele>277.4</ele>
        <time>2024-08-03T06:49:41Z</time>
      </trkpt>
      <trkpt lat="47.24182" lon="6.03418">
        <ele>277.4</ele>
        <time>2024-08-03T06:49:42Z</time>
      </trkpt>
      <trkpt lat="47.24182" lon="6.03418">
        <ele>277.4</ele>
        <time>2024-08-03T06:49:43Z</time>
      </trkpt>
      <trkpt lat="47.24182" lon="6.03418">
        <ele>277.2</ele>
        <time>2024-08-03T06:49:44Z</time>
      </trkpt>
      <trkpt lat="47.24182" lon="6.03418">
        <ele>277.4</ele>
        <time>2024-08-03T06:49:45Z</time>
      </trkpt>
      <trkpt lat="47.24182" lon="6.03418">
        <ele>277.4</ele>
        <time>2024-08-03T06:49:46Z</time>
      </trkpt>
      <trkpt lat="47.24182" lon="6.03418">
        <ele>277.4</ele>
        <time>2024-08-03T06:49:47Z</time>
      </trkpt>
      <trkpt lat="47.24181" lon="6.03418">
        <ele>277.4</ele>
        <time>2024-08-03T06:49:48Z</time>
      </trkpt>
      <trkpt lat="47.24181" lon="6.03418">
        <ele>277.4</ele>
        <time>2024-08-03T06:49:49Z</time>
      </trkpt>
      <trkpt lat="47.24181" lon="6.03418">
        <ele>277.4</ele>
        <time>2024-08-03T06:49:50Z</time>
      </trkpt>
      <trkpt lat="47.24181" lon="6.03417">
        <ele>277.4</ele>
        <time>2024-08-03T06:49:51Z</time>
      </trkpt>
      <trkpt lat="47.24181" lon="6.03417">
        <ele>277.4</ele>
        <time>2024-08-03T06:49:52Z</time>
      </trkpt>
      <trkpt lat="47.24182" lon="6.03417">
        <ele>277.2</ele>
        <time>2024-08-03T06:49:53Z</time>
      </trkpt>
      <trkpt lat="47.24182" lon="6.03417">
        <ele>277.4</ele>
        <time>2024-08-03T06:49:54Z</time>
      </trkpt>
      <trkpt lat="47.24182" lon="6.03417">
        <ele>277.4</ele>
        <time>2024-08-03T06:49:55Z</time>
      </trkpt>
      <trkpt lat="47.24182" lon="6.03417">
        <ele>277.4</ele>
        <time>2024-08-03T06:49:56Z</time>
      </trkpt>
      <trkpt lat="47.24182" lon="6.03417">
        <ele>277.4</ele>
        <time>2024-08-03T06:49:57Z</time>
      </trkpt>
      <trkpt lat="47.24182" lon="6.03417">
        <ele>277.4</ele>
        <time>2024-08-03T06:49:58Z</time>
      </trkpt>
      <trkpt lat="47.24182" lon="6.03417">
        <ele>277.2</ele>
        <time>2024-08-03T06:49:59Z</time>
      </trkpt>
      <trkpt lat="47.24182" lon="6.03417">
        <ele>277.4</ele>
        <time>2024-08-03T06:50:00Z</time>
      </trkpt>
      <trkpt lat="47.24182" lon="6.03417">
        <ele>277.4</ele>
        <time>2024-08-03T06:50:01Z</time>
      </trkpt>
      <trkpt lat="47.24182" lon="6.03417">
        <ele>277.4</ele>
        <time>2024-08-03T06:50:02Z</time>
      </trkpt>
      <trkpt lat="47.24182" lon="6.03417">
        <ele>277.4</ele>
        <time>2024-08-03T06:50:03Z</time>
      </trkpt>
      <trkpt lat="47.24182" lon="6.03417">
        <ele>277.4</ele>
        <time>2024-08-03T06:50:04Z</time>
      </trkpt>
      <trkpt lat="47.24182" lon="6.03417">
        <ele>277.4</ele>
        <time>2024-08-03T06:50:05Z</time>
      </trkpt>
      <trkpt lat="47.24182" lon="6.03417">
        <ele>277.4</ele>
        <time>2024-08-03T06:50:06Z</time>
      </trkpt>
      <trkpt lat="47.24182" lon="6.03417">
        <ele>277.4</ele>
        <time>2024-08-03T06:50:07Z</time>
      </trkpt>
      <trkpt lat="47.24182" lon="6.03417">
        <ele>277.4</ele>
        <time>2024-08-03T06:50:08Z</time>
      </trkpt>
      <trkpt lat="47.24182" lon="6.03417">
        <ele>277.4</ele>
        <time>2024-08-03T06:50:09Z</time>
      </trkpt>
      <trkpt lat="47.24182" lon="6.03417">
        <ele>277.4</ele>
        <time>2024-08-03T06:50:10Z</time>
      </trkpt>
      <trkpt lat="47.24182" lon="6.03416">
        <ele>277.4</ele>
        <time>2024-08-03T06:50:11Z</time>
      </trkpt>
      <trkpt lat="47.24182" lon="6.03416">
        <ele>277.2</ele>
        <time>2024-08-03T06:50:12Z</time>
      </trkpt>
      <trkpt lat="47.24182" lon="6.03416">
        <ele>277.4</ele>
        <time>2024-08-03T06:50:13Z</time>
      </trkpt>
      <trkpt lat="47.24182" lon="6.03416">
        <ele>277.4</ele>
        <time>2024-08-03T06:50:14Z</time>
      </trkpt>
      <trkpt lat="47.24182" lon="6.03416">
        <ele>277.4</ele>
        <time>2024-08-03T06:50:15Z</time>
      </trkpt>
      <trkpt lat="47.24182" lon="6.03416">
        <ele>277.4</ele>
        <time>2024-08-03T06:50:16Z</time>
      </trkpt>
      <trkpt lat="47.24182" lon="6.03416">
        <ele>277.2</ele>
        <time>2024-08-03T06:50:17Z</time>
      </trkpt>
      <trkpt lat="47.24182" lon="6.03416">
        <ele>277.2</ele>
        <time>2024-08-03T06:50:18Z</time>
      </trkpt>
      <trkpt lat="47.24182" lon="6.03417">
        <ele>277.4</ele>
        <time>2024-08-03T06:50:19Z</time>
      </trkpt>
      <trkpt lat="47.24182" lon="6.03417">
        <ele>277.2</ele>
        <time>2024-08-03T06:50:20Z</time>
      </trkpt>
      <trkpt lat="47.24182" lon="6.03418">
        <ele>277.2</ele>
        <time>2024-08-03T06:50:21Z</time>
      </trkpt>
      <trkpt lat="47.24182" lon="6.03417">
        <ele>277.4</ele>
        <time>2024-08-03T06:50:22Z</time>
      </trkpt>
      <trkpt lat="47.24182" lon="6.03417">
        <ele>277.2</ele>
        <time>2024-08-03T06:50:23Z</time>
      </trkpt>
      <trkpt lat="47.24182" lon="6.03416">
        <ele>277.2</ele>
        <time>2024-08-03T06:50:24Z</time>
      </trkpt>
      <trkpt lat="47.24183" lon="6.03415">
        <ele>277.4</ele>
        <time>2024-08-03T06:50:25Z</time>
      </trkpt>
      <trkpt lat="47.24184" lon="6.03414">
        <ele>277.2</ele>
        <time>2024-08-03T06:50:26Z</time>
      </trkpt>
      <trkpt lat="47.24184" lon="6.03412">
        <ele>277.4</ele>
        <time>2024-08-03T06:50:27Z</time>
      </trkpt>
      <trkpt lat="47.24185" lon="6.03411">
        <ele>277.2</ele>
        <time>2024-08-03T06:50:28Z</time>
      </trkpt>
      <trkpt lat="47.24187" lon="6.03408">
        <ele>277.4</ele>
        <time>2024-08-03T06:50:29Z</time>
      </trkpt>
      <trkpt lat="47.24188" lon="6.03406">
        <ele>277.4</ele>
        <time>2024-08-03T06:50:30Z</time>
      </trkpt>
      <trkpt lat="47.2419" lon="6.03403">
        <ele>277.2</ele>
        <time>2024-08-03T06:50:31Z</time>
      </trkpt>
      <trkpt lat="47.24193" lon="6.03399">
        <ele>277.2</ele>
        <time>2024-08-03T06:50:32Z</time>
      </trkpt>
      <trkpt lat="47.24195" lon="6.03396">
        <ele>277.2</ele>
        <time>2024-08-03T06:50:33Z</time>
      </trkpt>
      <trkpt lat="47.24197" lon="6.03392">
        <ele>277</ele>
        <time>2024-08-03T06:50:34Z</time>
      </trkpt>
      <trkpt lat="47.242" lon="6.03389">
        <ele>277</ele>
        <time>2024-08-03T06:50:35Z</time>
      </trkpt>
      <trkpt lat="47.24202" lon="6.03386">
        <ele>277.2</ele>
        <time>2024-08-03T06:50:36Z</time>
      </trkpt>
      <trkpt lat="47.24205" lon="6.03382">
        <ele>277.2</ele>
        <time>2024-08-03T06:50:37Z</time>
      </trkpt>
      <trkpt lat="47.24207" lon="6.03379">
        <ele>277.2</ele>
        <time>2024-08-03T06:50:38Z</time>
      </trkpt>
      <trkpt lat="47.2421" lon="6.03376">
        <ele>277.2</ele>
        <time>2024-08-03T06:50:39Z</time>
      </trkpt>
      <trkpt lat="47.24213" lon="6.03373">
        <ele>277.2</ele>
        <time>2024-08-03T06:50:40Z</time>
      </trkpt>
      <trkpt lat="47.24215" lon="6.03371">
        <ele>277.2</ele>
        <time>2024-08-03T06:50:41Z</time>
      </trkpt>
      <trkpt lat="47.24216" lon="6.03369">
        <ele>277.2</ele>
        <time>2024-08-03T06:50:42Z</time>
      </trkpt>
      <trkpt lat="47.24217" lon="6.03368">
        <ele>277.2</ele>
        <time>2024-08-03T06:50:43Z</time>
      </trkpt>
      <trkpt lat="47.24219" lon="6.03367">
        <ele>277.2</ele>
        <time>2024-08-03T06:50:44Z</time>
      </trkpt>
      <trkpt lat="47.24219" lon="6.03367">
        <ele>277.2</ele>
        <time>2024-08-03T06:50:45Z</time>
      </trkpt>
      <trkpt lat="47.2422" lon="6.03366">
        <ele>277.2</ele>
        <time>2024-08-03T06:50:46Z</time>
      </trkpt>
      <trkpt lat="47.24221" lon="6.03366">
        <ele>277.2</ele>
        <time>2024-08-03T06:50:47Z</time>
      </trkpt>
      <trkpt lat="47.24222" lon="6.03366">
        <ele>277.2</ele>
        <time>2024-08-03T06:50:48Z</time>
      </trkpt>
      <trkpt lat="47.24222" lon="6.03366">
        <ele>277</ele>
        <time>2024-08-03T06:50:49Z</time>
      </trkpt>
      <trkpt lat="47.24222" lon="6.03366">
        <ele>276.8</ele>
        <time>2024-08-03T06:50:50Z</time>
      </trkpt>
      <trkpt lat="47.24222" lon="6.03366">
        <ele>277</ele>
        <time>2024-08-03T06:50:51Z</time>
      </trkpt>
      <trkpt lat="47.24223" lon="6.03366">
        <ele>277</ele>
        <time>2024-08-03T06:50:52Z</time>
      </trkpt>
      <trkpt lat="47.24223" lon="6.03366">
        <ele>276.8</ele>
        <time>2024-08-03T06:50:53Z</time>
      </trkpt>
      <trkpt lat="47.24223" lon="6.03366">
        <ele>276.8</ele>
        <time>2024-08-03T06:50:54Z</time>
      </trkpt>
      <trkpt lat="47.24224" lon="6.03367">
        <ele>276.6</ele>
        <time>2024-08-03T06:50:55Z</time>
      </trkpt>
      <trkpt lat="47.24224" lon="6.03367">
        <ele>276.8</ele>
        <time>2024-08-03T06:50:56Z</time>
      </trkpt>
      <trkpt lat="47.24225" lon="6.03369">
        <ele>276.8</ele>
        <time>2024-08-03T06:50:57Z</time>
      </trkpt>
      <trkpt lat="47.24225" lon="6.0337">
        <ele>276.6</ele>
        <time>2024-08-03T06:50:58Z</time>
      </trkpt>
      <trkpt lat="47.24226" lon="6.03371">
        <ele>276.8</ele>
        <time>2024-08-03T06:50:59Z</time>
      </trkpt>
      <trkpt lat="47.24227" lon="6.03372">
        <ele>276.8</ele>
        <time>2024-08-03T06:51:00Z</time>
      </trkpt>
      <trkpt lat="47.24228" lon="6.03372">
        <ele>276.8</ele>
        <time>2024-08-03T06:51:01Z</time>
      </trkpt>
      <trkpt lat="47.24229" lon="6.03373">
        <ele>276.8</ele>
        <time>2024-08-03T06:51:02Z</time>
      </trkpt>
      <trkpt lat="47.2423" lon="6.03373">
        <ele>276.8</ele>
        <time>2024-08-03T06:51:03Z</time>
      </trkpt>
      <trkpt lat="47.24232" lon="6.03374">
        <ele>276.8</ele>
        <time>2024-08-03T06:51:04Z</time>
      </trkpt>
      <trkpt lat="47.24234" lon="6.03375">
        <ele>276.8</ele>
        <time>2024-08-03T06:51:05Z</time>
      </trkpt>
      <trkpt lat="47.24236" lon="6.03376">
        <ele>277</ele>
        <time>2024-08-03T06:51:06Z</time>
      </trkpt>
      <trkpt lat="47.24239" lon="6.03376">
        <ele>277</ele>
        <time>2024-08-03T06:51:07Z</time>
      </trkpt>
      <trkpt lat="47.24242" lon="6.03378">
        <ele>277</ele>
        <time>2024-08-03T06:51:08Z</time>
      </trkpt>
      <trkpt lat="47.24245" lon="6.03379">
        <ele>277.2</ele>
        <time>2024-08-03T06:51:09Z</time>
      </trkpt>
      <trkpt lat="47.24248" lon="6.03381">
        <ele>277.4</ele>
        <time>2024-08-03T06:51:10Z</time>
      </trkpt>
      <trkpt lat="47.24251" lon="6.03382">
        <ele>277.4</ele>
        <time>2024-08-03T06:51:11Z</time>
      </trkpt>
      <trkpt lat="47.24255" lon="6.03383">
        <ele>277.4</ele>
        <time>2024-08-03T06:51:12Z</time>
      </trkpt>
      <trkpt lat="47.24258" lon="6.03385">
        <ele>277.6</ele>
        <time>2024-08-03T06:51:13Z</time>
      </trkpt>
      <trkpt lat="47.24261" lon="6.03386">
        <ele>277.6</ele>
        <time>2024-08-03T06:51:14Z</time>
      </trkpt>
      <trkpt lat="47.24264" lon="6.03386">
        <ele>277.6</ele>
        <time>2024-08-03T06:51:15Z</time>
      </trkpt>
      <trkpt lat="47.24268" lon="6.03387">
        <ele>277.8</ele>
        <time>2024-08-03T06:51:16Z</time>
      </trkpt>
      <trkpt lat="47.24271" lon="6.03387">
        <ele>278</ele>
        <time>2024-08-03T06:51:17Z</time>
      </trkpt>
      <trkpt lat="47.24274" lon="6.03387">
        <ele>278</ele>
        <time>2024-08-03T06:51:18Z</time>
      </trkpt>
      <trkpt lat="47.24277" lon="6.03388">
        <ele>278.4</ele>
        <time>2024-08-03T06:51:19Z</time>
      </trkpt>
      <trkpt lat="47.24281" lon="6.03388">
        <ele>278.4</ele>
        <time>2024-08-03T06:51:20Z</time>
      </trkpt>
      <trkpt lat="47.24284" lon="6.03389">
        <ele>278.4</ele>
        <time>2024-08-03T06:51:21Z</time>
      </trkpt>
      <trkpt lat="47.24288" lon="6.03391">
        <ele>278.6</ele>
        <time>2024-08-03T06:51:22Z</time>
      </trkpt>
      <trkpt lat="47.24291" lon="6.03392">
        <ele>278.8</ele>
        <time>2024-08-03T06:51:23Z</time>
      </trkpt>
      <trkpt lat="47.24295" lon="6.03394">
        <ele>279</ele>
        <time>2024-08-03T06:51:24Z</time>
      </trkpt>
      <trkpt lat="47.24299" lon="6.03396">
        <ele>279.2</ele>
        <time>2024-08-03T06:51:25Z</time>
      </trkpt>
      <trkpt lat="47.24302" lon="6.03398">
        <ele>279.2</ele>
        <time>2024-08-03T06:51:26Z</time>
      </trkpt>
      <trkpt lat="47.24306" lon="6.03401">
        <ele>279.6</ele>
        <time>2024-08-03T06:51:27Z</time>
      </trkpt>
      <trkpt lat="47.24311" lon="6.03404">
        <ele>279.6</ele>
        <time>2024-08-03T06:51:28Z</time>
      </trkpt>
      <trkpt lat="47.24315" lon="6.03407">
        <ele>279.8</ele>
        <time>2024-08-03T06:51:29Z</time>
      </trkpt>
      <trkpt lat="47.24319" lon="6.0341">
        <ele>279.8</ele>
        <time>2024-08-03T06:51:30Z</time>
      </trkpt>
      <trkpt lat="47.24323" lon="6.03413">
        <ele>279.8</ele>
        <time>2024-08-03T06:51:31Z</time>
      </trkpt>
      <trkpt lat="47.24328" lon="6.03417">
        <ele>280</ele>
        <time>2024-08-03T06:51:32Z</time>
      </trkpt>
      <trkpt lat="47.24332" lon="6.03419">
        <ele>280</ele>
        <time>2024-08-03T06:51:33Z</time>
      </trkpt>
      <trkpt lat="47.24337" lon="6.03422">
        <ele>280.2</ele>
        <time>2024-08-03T06:51:34Z</time>
      </trkpt>
      <trkpt lat="47.24341" lon="6.03425">
        <ele>280</ele>
        <time>2024-08-03T06:51:35Z</time>
      </trkpt>
      <trkpt lat="47.24346" lon="6.03428">
        <ele>280</ele>
        <time>2024-08-03T06:51:36Z</time>
      </trkpt>
      <trkpt lat="47.24351" lon="6.03431">
        <ele>280.2</ele>
        <time>2024-08-03T06:51:37Z</time>
      </trkpt>
      <trkpt lat="47.24356" lon="6.03436">
        <ele>280.2</ele>
        <time>2024-08-03T06:51:38Z</time>
      </trkpt>
      <trkpt lat="47.2436" lon="6.03439">
        <ele>280.2</ele>
        <time>2024-08-03T06:51:39Z</time>
      </trkpt>
      <trkpt lat="47.24365" lon="6.03441">
        <ele>280.2</ele>
        <time>2024-08-03T06:51:40Z</time>
      </trkpt>
      <trkpt lat="47.2437" lon="6.03443">
        <ele>280.2</ele>
        <time>2024-08-03T06:51:41Z</time>
      </trkpt>
      <trkpt lat="47.24375" lon="6.03445">
        <ele>280.2</ele>
        <time>2024-08-03T06:51:42Z</time>
      </trkpt>
      <trkpt lat="47.2438" lon="6.03448">
        <ele>280.2</ele>
        <time>2024-08-03T06:51:43Z</time>
      </trkpt>
      <trkpt lat="47.24385" lon="6.0345">
        <ele>280.2</ele>
        <time>2024-08-03T06:51:44Z</time>
      </trkpt>
      <trkpt lat="47.24391" lon="6.03453">
        <ele>280.2</ele>
        <time>2024-08-03T06:51:45Z</time>
      </trkpt>
      <trkpt lat="47.24396" lon="6.03456">
        <ele>280.2</ele>
        <time>2024-08-03T06:51:46Z</time>
      </trkpt>
      <trkpt lat="47.24402" lon="6.03459">
        <ele>280</ele>
        <time>2024-08-03T06:51:47Z</time>
      </trkpt>
      <trkpt lat="47.24407" lon="6.03461">
        <ele>280</ele>
        <time>2024-08-03T06:51:48Z</time>
      </trkpt>
      <trkpt lat="47.24412" lon="6.03463">
        <ele>279.8</ele>
        <time>2024-08-03T06:51:49Z</time>
      </trkpt>
      <trkpt lat="47.24417" lon="6.03466">
        <ele>280</ele>
        <time>2024-08-03T06:51:50Z</time>
      </trkpt>
      <trkpt lat="47.24422" lon="6.03469">
        <ele>279.8</ele>
        <time>2024-08-03T06:51:51Z</time>
      </trkpt>
      <trkpt lat="47.24426" lon="6.03473">
        <ele>279.8</ele>
        <time>2024-08-03T06:51:52Z</time>
      </trkpt>
      <trkpt lat="47.24431" lon="6.03476">
        <ele>280</ele>
        <time>2024-08-03T06:51:53Z</time>
      </trkpt>
      <trkpt lat="47.24436" lon="6.03479">
        <ele>279.8</ele>
        <time>2024-08-03T06:51:54Z</time>
      </trkpt>
      <trkpt lat="47.24441" lon="6.03482">
        <ele>279.8</ele>
        <time>2024-08-03T06:51:55Z</time>
      </trkpt>
      <trkpt lat="47.24447" lon="6.03485">
        <ele>279.8</ele>
        <time>2024-08-03T06:51:56Z</time>
      </trkpt>
      <trkpt lat="47.24452" lon="6.03487">
        <ele>279.6</ele>
        <time>2024-08-03T06:51:57Z</time>
      </trkpt>
      <trkpt lat="47.24457" lon="6.0349">
        <ele>279.6</ele>
        <time>2024-08-03T06:51:58Z</time>
      </trkpt>
      <trkpt lat="47.24462" lon="6.03493">
        <ele>279.6</ele>
        <time>2024-08-03T06:51:59Z</time>
      </trkpt>
      <trkpt lat="47.24467" lon="6.03496">
        <ele>279.6</ele>
        <time>2024-08-03T06:52:00Z</time>
      </trkpt>
      <trkpt lat="47.24473" lon="6.03499">
        <ele>279.4</ele>
        <time>2024-08-03T06:52:01Z</time>
      </trkpt>
      <trkpt lat="47.24478" lon="6.03502">
        <ele>279.4</ele>
        <time>2024-08-03T06:52:02Z</time>
      </trkpt>
      <trkpt lat="47.24484" lon="6.03505">
        <ele>279.4</ele>
        <time>2024-08-03T06:52:03Z</time>
      </trkpt>
      <trkpt lat="47.24489" lon="6.03507">
        <ele>279.2</ele>
        <time>2024-08-03T06:52:04Z</time>
      </trkpt>
      <trkpt lat="47.24494" lon="6.0351">
        <ele>279.2</ele>
        <time>2024-08-03T06:52:05Z</time>
      </trkpt>
      <trkpt lat="47.24499" lon="6.03512">
        <ele>279</ele>
        <time>2024-08-03T06:52:06Z</time>
      </trkpt>
      <trkpt lat="47.24504" lon="6.03514">
        <ele>279.2</ele>
        <time>2024-08-03T06:52:07Z</time>
      </trkpt>
      <trkpt lat="47.24509" lon="6.03516">
        <ele>279</ele>
        <time>2024-08-03T06:52:08Z</time>
      </trkpt>
      <trkpt lat="47.24514" lon="6.03518">
        <ele>279.2</ele>
        <time>2024-08-03T06:52:09Z</time>
      </trkpt>
      <trkpt lat="47.24519" lon="6.03519">
        <ele>279.2</ele>
        <time>2024-08-03T06:52:10Z</time>
      </trkpt>
      <trkpt lat="47.24524" lon="6.03521">
        <ele>279</ele>
        <time>2024-08-03T06:52:11Z</time>
      </trkpt>
      <trkpt lat="47.24529" lon="6.03522">
        <ele>279</ele>
        <time>2024-08-03T06:52:12Z</time>
      </trkpt>
      <trkpt lat="47.24534" lon="6.03523">
        <ele>279</ele>
        <time>2024-08-03T06:52:13Z</time>
      </trkpt>
      <trkpt lat="47.24539" lon="6.03524">
        <ele>279</ele>
        <time>2024-08-03T06:52:14Z</time>
      </trkpt>
      <trkpt lat="47.24544" lon="6.03525">
        <ele>279</ele>
        <time>2024-08-03T06:52:15Z</time>
      </trkpt>
      <trkpt lat="47.24549" lon="6.03526">
        <ele>279</ele>
        <time>2024-08-03T06:52:16Z</time>
      </trkpt>
      <trkpt lat="47.24553" lon="6.03528">
        <ele>279</ele>
        <time>2024-08-03T06:52:17Z</time>
      </trkpt>
      <trkpt lat="47.24558" lon="6.0353">
        <ele>279</ele>
        <time>2024-08-03T06:52:18Z</time>
      </trkpt>
      <trkpt lat="47.24562" lon="6.0353">
        <ele>279.2</ele>
        <time>2024-08-03T06:52:19Z</time>
      </trkpt>
      <trkpt lat="47.24566" lon="6.03532">
        <ele>279.2</ele>
        <time>2024-08-03T06:52:20Z</time>
      </trkpt>
      <trkpt lat="47.24569" lon="6.03533">
        <ele>279</ele>
        <time>2024-08-03T06:52:21Z</time>
      </trkpt>
      <trkpt lat="47.24572" lon="6.03535">
        <ele>279.2</ele>
        <time>2024-08-03T06:52:22Z</time>
      </trkpt>
      <trkpt lat="47.24575" lon="6.03537">
        <ele>279.2</ele>
        <time>2024-08-03T06:52:23Z</time>
      </trkpt>
      <trkpt lat="47.24578" lon="6.03538">
        <ele>279.4</ele>
        <time>2024-08-03T06:52:24Z</time>
      </trkpt>
      <trkpt lat="47.24582" lon="6.03539">
        <ele>279.4</ele>
        <time>2024-08-03T06:52:25Z</time>
      </trkpt>
      <trkpt lat="47.24584" lon="6.03541">
        <ele>279.6</ele>
        <time>2024-08-03T06:52:26Z</time>
      </trkpt>
      <trkpt lat="47.24587" lon="6.03542">
        <ele>279.8</ele>
        <time>2024-08-03T06:52:27Z</time>
      </trkpt>
      <trkpt lat="47.24589" lon="6.03544">
        <ele>280</ele>
        <time>2024-08-03T06:52:28Z</time>
      </trkpt>
      <trkpt lat="47.24592" lon="6.03545">
        <ele>280</ele>
        <time>2024-08-03T06:52:29Z</time>
      </trkpt>
      <trkpt lat="47.24594" lon="6.03546">
        <ele>280.2</ele>
        <time>2024-08-03T06:52:30Z</time>
      </trkpt>
      <trkpt lat="47.24597" lon="6.03547">
        <ele>280.4</ele>
        <time>2024-08-03T06:52:31Z</time>
      </trkpt>
      <trkpt lat="47.24599" lon="6.03547">
        <ele>280.6</ele>
        <time>2024-08-03T06:52:32Z</time>
      </trkpt>
      <trkpt lat="47.24601" lon="6.03546">
        <ele>280.6</ele>
        <time>2024-08-03T06:52:33Z</time>
      </trkpt>
      <trkpt lat="47.24604" lon="6.03545">
        <ele>280.8</ele>
        <time>2024-08-03T06:52:34Z</time>
      </trkpt>
      <trkpt lat="47.24608" lon="6.03547">
        <ele>281.2</ele>
        <time>2024-08-03T06:52:35Z</time>
      </trkpt>
      <trkpt lat="47.2461" lon="6.03548">
        <ele>281.2</ele>
        <time>2024-08-03T06:52:36Z</time>
      </trkpt>
      <trkpt lat="47.24614" lon="6.0355">
        <ele>281.4</ele>
        <time>2024-08-03T06:52:37Z</time>
      </trkpt>
      <trkpt lat="47.24618" lon="6.03551">
        <ele>281.6</ele>
        <time>2024-08-03T06:52:38Z</time>
      </trkpt>
      <trkpt lat="47.24621" lon="6.03552">
        <ele>281.6</ele>
        <time>2024-08-03T06:52:39Z</time>
      </trkpt>
      <trkpt lat="47.24624" lon="6.03553">
        <ele>282</ele>
        <time>2024-08-03T06:52:40Z</time>
      </trkpt>
      <trkpt lat="47.24628" lon="6.03556">
        <ele>282</ele>
        <time>2024-08-03T06:52:41Z</time>
      </trkpt>
      <trkpt lat="47.24632" lon="6.03559">
        <ele>282</ele>
        <time>2024-08-03T06:52:42Z</time>
      </trkpt>
      <trkpt lat="47.24636" lon="6.03563">
        <ele>282.2</ele>
        <time>2024-08-03T06:52:43Z</time>
      </trkpt>
      <trkpt lat="47.2464" lon="6.03567">
        <ele>282.6</ele>
        <time>2024-08-03T06:52:44Z</time>
      </trkpt>
      <trkpt lat="47.24644" lon="6.0357">
        <ele>282.4</ele>
        <time>2024-08-03T06:52:45Z</time>
      </trkpt>
      <trkpt lat="47.24648" lon="6.03574">
        <ele>282.8</ele>
        <time>2024-08-03T06:52:46Z</time>
      </trkpt>
      <trkpt lat="47.24652" lon="6.03578">
        <ele>282.8</ele>
        <time>2024-08-03T06:52:47Z</time>
      </trkpt>
      <trkpt lat="47.24656" lon="6.0358">
        <ele>282.8</ele>
        <time>2024-08-03T06:52:48Z</time>
      </trkpt>
      <trkpt lat="47.2466" lon="6.0358">
        <ele>283</ele>
        <time>2024-08-03T06:52:49Z</time>
      </trkpt>
      <trkpt lat="47.24664" lon="6.03579">
        <ele>282.8</ele>
        <time>2024-08-03T06:52:50Z</time>
      </trkpt>
      <trkpt lat="47.24668" lon="6.03576">
        <ele>283</ele>
        <time>2024-08-03T06:52:51Z</time>
      </trkpt>
      <trkpt lat="47.24672" lon="6.03572">
        <ele>282.8</ele>
        <time>2024-08-03T06:52:52Z</time>
      </trkpt>
      <trkpt lat="47.24676" lon="6.03567">
        <ele>283</ele>
        <time>2024-08-03T06:52:53Z</time>
      </trkpt>
      <trkpt lat="47.2468" lon="6.03561">
        <ele>283</ele>
        <time>2024-08-03T06:52:54Z</time>
      </trkpt>
      <trkpt lat="47.24684" lon="6.03554">
        <ele>282.8</ele>
        <time>2024-08-03T06:52:55Z</time>
      </trkpt>
      <trkpt lat="47.24688" lon="6.03547">
        <ele>283</ele>
        <time>2024-08-03T06:52:56Z</time>
      </trkpt>
      <trkpt lat="47.24692" lon="6.03541">
        <ele>283</ele>
        <time>2024-08-03T06:52:57Z</time>
      </trkpt>
      <trkpt lat="47.24697" lon="6.03534">
        <ele>282.8</ele>
        <time>2024-08-03T06:52:58Z</time>
      </trkpt>
      <trkpt lat="47.24701" lon="6.03528">
        <ele>282.8</ele>
        <time>2024-08-03T06:52:59Z</time>
      </trkpt>
      <trkpt lat="47.24705" lon="6.03522">
        <ele>282.8</ele>
        <time>2024-08-03T06:53:00Z</time>
      </trkpt>
      <trkpt lat="47.24709" lon="6.03516">
        <ele>282.6</ele>
        <time>2024-08-03T06:53:01Z</time>
      </trkpt>
      <trkpt lat="47.24713" lon="6.0351">
        <ele>282.6</ele>
        <time>2024-08-03T06:53:02Z</time>
      </trkpt>
      <trkpt lat="47.24717" lon="6.03505">
        <ele>282.4</ele>
        <time>2024-08-03T06:53:03Z</time>
      </trkpt>
      <trkpt lat="47.24721" lon="6.03499">
        <ele>282.4</ele>
        <time>2024-08-03T06:53:04Z</time>
      </trkpt>
      <trkpt lat="47.24724" lon="6.03494">
        <ele>282.2</ele>
        <time>2024-08-03T06:53:05Z</time>
      </trkpt>
      <trkpt lat="47.24728" lon="6.03489">
        <ele>282</ele>
        <time>2024-08-03T06:53:06Z</time>
      </trkpt>
      <trkpt lat="47.24731" lon="6.03484">
        <ele>281.8</ele>
        <time>2024-08-03T06:53:07Z</time>
      </trkpt>
      <trkpt lat="47.24733" lon="6.0348">
        <ele>281.6</ele>
        <time>2024-08-03T06:53:08Z</time>
      </trkpt>
      <trkpt lat="47.24736" lon="6.03474">
        <ele>281.8</ele>
        <time>2024-08-03T06:53:09Z</time>
      </trkpt>
      <trkpt lat="47.24739" lon="6.0347">
        <ele>281.6</ele>
        <time>2024-08-03T06:53:10Z</time>
      </trkpt>
      <trkpt lat="47.24741" lon="6.03466">
        <ele>281.6</ele>
        <time>2024-08-03T06:53:11Z</time>
      </trkpt>
      <trkpt lat="47.24744" lon="6.03462">
        <ele>281.6</ele>
        <time>2024-08-03T06:53:12Z</time>
      </trkpt>
      <trkpt lat="47.24746" lon="6.03458">
        <ele>281.4</ele>
        <time>2024-08-03T06:53:13Z</time>
      </trkpt>
      <trkpt lat="47.24748" lon="6.03454">
        <ele>281.6</ele>
        <time>2024-08-03T06:53:14Z</time>
      </trkpt>
      <trkpt lat="47.2475" lon="6.0345">
        <ele>281.6</ele>
        <time>2024-08-03T06:53:15Z</time>
      </trkpt>
      <trkpt lat="47.24752" lon="6.03447">
        <ele>281.6</ele>
        <time>2024-08-03T06:53:16Z</time>
      </trkpt>
      <trkpt lat="47.24754" lon="6.03444">
        <ele>281.8</ele>
        <time>2024-08-03T06:53:17Z</time>
      </trkpt>
      <trkpt lat="47.24755" lon="6.03441">
        <ele>281.8</ele>
        <time>2024-08-03T06:53:18Z</time>
      </trkpt>
      <trkpt lat="47.24757" lon="6.03438">
        <ele>282.2</ele>
        <time>2024-08-03T06:53:19Z</time>
      </trkpt>
      <trkpt lat="47.2476" lon="6.03437">
        <ele>282.2</ele>
        <time>2024-08-03T06:53:20Z</time>
      </trkpt>
      <trkpt lat="47.24762" lon="6.03435">
        <ele>282.4</ele>
        <time>2024-08-03T06:53:21Z</time>
      </trkpt>
      <trkpt lat="47.24763" lon="6.03432">
        <ele>282.6</ele>
        <time>2024-08-03T06:53:22Z</time>
      </trkpt>
      <trkpt lat="47.24764" lon="6.0343">
        <ele>282.6</ele>
        <time>2024-08-03T06:53:23Z</time>
      </trkpt>
      <trkpt lat="47.24764" lon="6.03428">
        <ele>282.8</ele>
        <time>2024-08-03T06:53:24Z</time>
      </trkpt>
      <trkpt lat="47.24765" lon="6.03426">
        <ele>282.8</ele>
        <time>2024-08-03T06:53:25Z</time>
      </trkpt>
      <trkpt lat="47.24767" lon="6.03424">
        <ele>282.8</ele>
        <time>2024-08-03T06:53:26Z</time>
      </trkpt>
      <trkpt lat="47.24768" lon="6.03423">
        <ele>283</ele>
        <time>2024-08-03T06:53:27Z</time>
      </trkpt>
      <trkpt lat="47.24771" lon="6.0342">
        <ele>283</ele>
        <time>2024-08-03T06:53:28Z</time>
      </trkpt>
      <trkpt lat="47.24773" lon="6.03418">
        <ele>283</ele>
        <time>2024-08-03T06:53:29Z</time>
      </trkpt>
      <trkpt lat="47.24776" lon="6.03416">
        <ele>283</ele>
        <time>2024-08-03T06:53:30Z</time>
      </trkpt>
      <trkpt lat="47.24778" lon="6.03415">
        <ele>283.2</ele>
        <time>2024-08-03T06:53:31Z</time>
      </trkpt>
      <trkpt lat="47.24781" lon="6.03413">
        <ele>283.2</ele>
        <time>2024-08-03T06:53:32Z</time>
      </trkpt>
      <trkpt lat="47.24784" lon="6.03412">
        <ele>283.2</ele>
        <time>2024-08-03T06:53:33Z</time>
      </trkpt>
      <trkpt lat="47.24787" lon="6.03411">
        <ele>283.4</ele>
        <time>2024-08-03T06:53:34Z</time>
      </trkpt>
      <trkpt lat="47.2479" lon="6.0341">
        <ele>283.8</ele>
        <time>2024-08-03T06:53:35Z</time>
      </trkpt>
      <trkpt lat="47.24794" lon="6.03409">
        <ele>284</ele>
        <time>2024-08-03T06:53:36Z</time>
      </trkpt>
      <trkpt lat="47.24797" lon="6.03408">
        <ele>284</ele>
        <time>2024-08-03T06:53:37Z</time>
      </trkpt>
      <trkpt lat="47.24799" lon="6.03407">
        <ele>284</ele>
        <time>2024-08-03T06:53:38Z</time>
      </trkpt>
      <trkpt lat="47.24802" lon="6.03405">
        <ele>284.2</ele>
        <time>2024-08-03T06:53:39Z</time>
      </trkpt>
      <trkpt lat="47.24805" lon="6.03404">
        <ele>284.2</ele>
        <time>2024-08-03T06:53:40Z</time>
      </trkpt>
      <trkpt lat="47.24808" lon="6.03402">
        <ele>284.4</ele>
        <time>2024-08-03T06:53:41Z</time>
      </trkpt>
      <trkpt lat="47.2481" lon="6.034">
        <ele>284.6</ele>
        <time>2024-08-03T06:53:42Z</time>
      </trkpt>
      <trkpt lat="47.24813" lon="6.03398">
        <ele>285</ele>
        <time>2024-08-03T06:53:43Z</time>
      </trkpt>
      <trkpt lat="47.24815" lon="6.03396">
        <ele>285</ele>
        <time>2024-08-03T06:53:44Z</time>
      </trkpt>
      <trkpt lat="47.24817" lon="6.03393">
        <ele>285.4</ele>
        <time>2024-08-03T06:53:45Z</time>
      </trkpt>
      <trkpt lat="47.2482" lon="6.03391">
        <ele>285.6</ele>
        <time>2024-08-03T06:53:46Z</time>
      </trkpt>
      <trkpt lat="47.24822" lon="6.03389">
        <ele>285.8</ele>
        <time>2024-08-03T06:53:47Z</time>
      </trkpt>
      <trkpt lat="47.24824" lon="6.03387">
        <ele>285.8</ele>
        <time>2024-08-03T06:53:48Z</time>
      </trkpt>
      <trkpt lat="47.24827" lon="6.03385">
        <ele>285.8</ele>
        <time>2024-08-03T06:53:49Z</time>
      </trkpt>
      <trkpt lat="47.24829" lon="6.03383">
        <ele>286.2</ele>
        <time>2024-08-03T06:53:50Z</time>
      </trkpt>
      <trkpt lat="47.24832" lon="6.03382">
        <ele>286.4</ele>
        <time>2024-08-03T06:53:51Z</time>
      </trkpt>
      <trkpt lat="47.24834" lon="6.0338">
        <ele>286.6</ele>
        <time>2024-08-03T06:53:52Z</time>
      </trkpt>
      <trkpt lat="47.24837" lon="6.03377">
        <ele>286.6</ele>
        <time>2024-08-03T06:53:53Z</time>
      </trkpt>
      <trkpt lat="47.24839" lon="6.03375">
        <ele>286.6</ele>
        <time>2024-08-03T06:53:54Z</time>
      </trkpt>
      <trkpt lat="47.24842" lon="6.03372">
        <ele>286.8</ele>
        <time>2024-08-03T06:53:55Z</time>
      </trkpt>
      <trkpt lat="47.24844" lon="6.03369">
        <ele>287</ele>
        <time>2024-08-03T06:53:56Z</time>
      </trkpt>
      <trkpt lat="47.24847" lon="6.03367">
        <ele>287.4</ele>
        <time>2024-08-03T06:53:57Z</time>
      </trkpt>
      <trkpt lat="47.2485" lon="6.03364">
        <ele>287.4</ele>
        <time>2024-08-03T06:53:58Z</time>
      </trkpt>
      <trkpt lat="47.24852" lon="6.03362">
        <ele>287.6</ele>
        <time>2024-08-03T06:53:59Z</time>
      </trkpt>
      <trkpt lat="47.24855" lon="6.03361">
        <ele>287.6</ele>
        <time>2024-08-03T06:54:00Z</time>
      </trkpt>
      <trkpt lat="47.24857" lon="6.03359">
        <ele>287.8</ele>
        <time>2024-08-03T06:54:01Z</time>
      </trkpt>
      <trkpt lat="47.2486" lon="6.03356">
        <ele>287.8</ele>
        <time>2024-08-03T06:54:02Z</time>
      </trkpt>
      <trkpt lat="47.24862" lon="6.03354">
        <ele>288</ele>
        <time>2024-08-03T06:54:03Z</time>
      </trkpt>
      <trkpt lat="47.24865" lon="6.03351">
        <ele>288.2</ele>
        <time>2024-08-03T06:54:04Z</time>
      </trkpt>
      <trkpt lat="47.24867" lon="6.03349">
        <ele>288.4</ele>
        <time>2024-08-03T06:54:05Z</time>
      </trkpt>
      <trkpt lat="47.2487" lon="6.03347">
        <ele>288.6</ele>
        <time>2024-08-03T06:54:06Z</time>
      </trkpt>
      <trkpt lat="47.24872" lon="6.03345">
        <ele>288.6</ele>
        <time>2024-08-03T06:54:07Z</time>
      </trkpt>
      <trkpt lat="47.24874" lon="6.03343">
        <ele>288.8</ele>
        <time>2024-08-03T06:54:08Z</time>
      </trkpt>
      <trkpt lat="47.24877" lon="6.03341">
        <ele>288.8</ele>
        <time>2024-08-03T06:54:09Z</time>
      </trkpt>
      <trkpt lat="47.24879" lon="6.03339">
        <ele>288.8</ele>
        <time>2024-08-03T06:54:10Z</time>
      </trkpt>
      <trkpt lat="47.24881" lon="6.03337">
        <ele>289</ele>
        <time>2024-08-03T06:54:11Z</time>
      </trkpt>
      <trkpt lat="47.24883" lon="6.03336">
        <ele>289.4</ele>
        <time>2024-08-03T06:54:12Z</time>
      </trkpt>
      <trkpt lat="47.24885" lon="6.03334">
        <ele>289.6</ele>
        <time>2024-08-03T06:54:13Z</time>
      </trkpt>
      <trkpt lat="47.24887" lon="6.03333">
        <ele>289.6</ele>
        <time>2024-08-03T06:54:14Z</time>
      </trkpt>
      <trkpt lat="47.2489" lon="6.03331">
        <ele>289.8</ele>
        <time>2024-08-03T06:54:15Z</time>
      </trkpt>
      <trkpt lat="47.24892" lon="6.03329">
        <ele>290</ele>
        <time>2024-08-03T06:54:16Z</time>
      </trkpt>
      <trkpt lat="47.24895" lon="6.03327">
        <ele>290.2</ele>
        <time>2024-08-03T06:54:17Z</time>
      </trkpt>
      <trkpt lat="47.24897" lon="6.03325">
        <ele>290.2</ele>
        <time>2024-08-03T06:54:18Z</time>
      </trkpt>
      <trkpt lat="47.24899" lon="6.03324">
        <ele>290.6</ele>
        <time>2024-08-03T06:54:19Z</time>
      </trkpt>
      <trkpt lat="47.24902" lon="6.03322">
        <ele>290.8</ele>
        <time>2024-08-03T06:54:20Z</time>
      </trkpt>
      <trkpt lat="47.24904" lon="6.0332">
        <ele>291</ele>
        <time>2024-08-03T06:54:21Z</time>
      </trkpt>
      <trkpt lat="47.24907" lon="6.03318">
        <ele>291.2</ele>
        <time>2024-08-03T06:54:22Z</time>
      </trkpt>
      <trkpt lat="47.24909" lon="6.03316">
        <ele>291.4</ele>
        <time>2024-08-03T06:54:23Z</time>
      </trkpt>
      <trkpt lat="47.24912" lon="6.03314">
        <ele>291.6</ele>
        <time>2024-08-03T06:54:24Z</time>
      </trkpt>
      <trkpt lat="47.24914" lon="6.03313">
        <ele>291.8</ele>
        <time>2024-08-03T06:54:25Z</time>
      </trkpt>
      <trkpt lat="47.24917" lon="6.03311">
        <ele>292</ele>
        <time>2024-08-03T06:54:26Z</time>
      </trkpt>
      <trkpt lat="47.24919" lon="6.03309">
        <ele>292.2</ele>
        <time>2024-08-03T06:54:27Z</time>
      </trkpt>
      <trkpt lat="47.24922" lon="6.03307">
        <ele>292.6</ele>
        <time>2024-08-03T06:54:28Z</time>
      </trkpt>
      <trkpt lat="47.24924" lon="6.03305">
        <ele>292.6</ele>
        <time>2024-08-03T06:54:29Z</time>
      </trkpt>
      <trkpt lat="47.24927" lon="6.03304">
        <ele>292.8</ele>
        <time>2024-08-03T06:54:30Z</time>
      </trkpt>
      <trkpt lat="47.2493" lon="6.03302">
        <ele>293</ele>
        <time>2024-08-03T06:54:31Z</time>
      </trkpt>
      <trkpt lat="47.24932" lon="6.033">
        <ele>293</ele>
        <time>2024-08-03T06:54:32Z</time>
      </trkpt>
      <trkpt lat="47.24935" lon="6.03298">
        <ele>293.2</ele>
        <time>2024-08-03T06:54:33Z</time>
      </trkpt>
      <trkpt lat="47.24937" lon="6.03295">
        <ele>293.6</ele>
        <time>2024-08-03T06:54:34Z</time>
      </trkpt>
      <trkpt lat="47.24939" lon="6.03293">
        <ele>293.6</ele>
        <time>2024-08-03T06:54:35Z</time>
      </trkpt>
      <trkpt lat="47.24941" lon="6.03292">
        <ele>294</ele>
        <time>2024-08-03T06:54:36Z</time>
      </trkpt>
      <trkpt lat="47.24943" lon="6.0329">
        <ele>294.2</ele>
        <time>2024-08-03T06:54:37Z</time>
      </trkpt>
      <trkpt lat="47.24944" lon="6.03289">
        <ele>294.4</ele>
        <time>2024-08-03T06:54:38Z</time>
      </trkpt>
      <trkpt lat="47.24945" lon="6.03286">
        <ele>294.4</ele>
        <time>2024-08-03T06:54:39Z</time>
      </trkpt>
      <trkpt lat="47.24946" lon="6.03283">
        <ele>294.8</ele>
        <time>2024-08-03T06:54:40Z</time>
      </trkpt>
      <trkpt lat="47.24946" lon="6.03279">
        <ele>294.8</ele>
        <time>2024-08-03T06:54:41Z</time>
      </trkpt>
      <trkpt lat="47.24946" lon="6.03275">
        <ele>295</ele>
        <time>2024-08-03T06:54:42Z</time>
      </trkpt>
      <trkpt lat="47.24946" lon="6.03272">
        <ele>295.2</ele>
        <time>2024-08-03T06:54:43Z</time>
      </trkpt>
      <trkpt lat="47.24946" lon="6.03268">
        <ele>295.4</ele>
        <time>2024-08-03T06:54:44Z</time>
      </trkpt>
      <trkpt lat="47.24947" lon="6.03264">
        <ele>295.6</ele>
        <time>2024-08-03T06:54:45Z</time>
      </trkpt>
      <trkpt lat="47.24946" lon="6.0326">
        <ele>295.8</ele>
        <time>2024-08-03T06:54:46Z</time>
      </trkpt>
      <trkpt lat="47.24946" lon="6.03256">
        <ele>295.8</ele>
        <time>2024-08-03T06:54:47Z</time>
      </trkpt>
      <trkpt lat="47.24946" lon="6.03253">
        <ele>296</ele>
        <time>2024-08-03T06:54:48Z</time>
      </trkpt>
      <trkpt lat="47.24946" lon="6.0325">
        <ele>295.8</ele>
        <time>2024-08-03T06:54:49Z</time>
      </trkpt>
      <trkpt lat="47.24945" lon="6.03248">
        <ele>296</ele>
        <time>2024-08-03T06:54:50Z</time>
      </trkpt>
      <trkpt lat="47.24945" lon="6.03247">
        <ele>296</ele>
        <time>2024-08-03T06:54:51Z</time>
      </trkpt>
      <trkpt lat="47.24946" lon="6.03245">
        <ele>296</ele>
        <time>2024-08-03T06:54:52Z</time>
      </trkpt>
      <trkpt lat="47.24947" lon="6.03244">
        <ele>296</ele>
        <time>2024-08-03T06:54:53Z</time>
      </trkpt>
      <trkpt lat="47.24948" lon="6.03242">
        <ele>296</ele>
        <time>2024-08-03T06:54:54Z</time>
      </trkpt>
      <trkpt lat="47.24949" lon="6.0324">
        <ele>296</ele>
        <time>2024-08-03T06:54:55Z</time>
      </trkpt>
      <trkpt lat="47.24951" lon="6.03238">
        <ele>296</ele>
        <time>2024-08-03T06:54:56Z</time>
      </trkpt>
      <trkpt lat="47.24954" lon="6.03236">
        <ele>296</ele>
        <time>2024-08-03T06:54:57Z</time>
      </trkpt>
      <trkpt lat="47.24955" lon="6.03235">
        <ele>296</ele>
        <time>2024-08-03T06:54:58Z</time>
      </trkpt>
      <trkpt lat="47.24956" lon="6.03236">
        <ele>296</ele>
        <time>2024-08-03T06:54:59Z</time>
      </trkpt>
      <trkpt lat="47.24957" lon="6.03237">
        <ele>296</ele>
        <time>2024-08-03T06:55:00Z</time>
      </trkpt>
      <trkpt lat="47.24958" lon="6.03236">
        <ele>295.8</ele>
        <time>2024-08-03T06:55:01Z</time>
      </trkpt>
      <trkpt lat="47.2496" lon="6.03236">
        <ele>296</ele>
        <time>2024-08-03T06:55:02Z</time>
      </trkpt>
      <trkpt lat="47.24962" lon="6.03236">
        <ele>296</ele>
        <time>2024-08-03T06:55:03Z</time>
      </trkpt>
      <trkpt lat="47.24963" lon="6.03237">
        <ele>295.8</ele>
        <time>2024-08-03T06:55:04Z</time>
      </trkpt>
      <trkpt lat="47.24965" lon="6.03237">
        <ele>296</ele>
        <time>2024-08-03T06:55:05Z</time>
      </trkpt>
      <trkpt lat="47.24966" lon="6.03236">
        <ele>296</ele>
        <time>2024-08-03T06:55:06Z</time>
      </trkpt>
      <trkpt lat="47.24967" lon="6.03234">
        <ele>296</ele>
        <time>2024-08-03T06:55:07Z</time>
      </trkpt>
      <trkpt lat="47.24967" lon="6.03231">
        <ele>295.8</ele>
        <time>2024-08-03T06:55:08Z</time>
      </trkpt>
      <trkpt lat="47.24969" lon="6.03228">
        <ele>296</ele>
        <time>2024-08-03T06:55:09Z</time>
      </trkpt>
      <trkpt lat="47.24971" lon="6.03225">
        <ele>296</ele>
        <time>2024-08-03T06:55:10Z</time>
      </trkpt>
      <trkpt lat="47.24973" lon="6.03224">
        <ele>296.2</ele>
        <time>2024-08-03T06:55:11Z</time>
      </trkpt>
      <trkpt lat="47.24975" lon="6.03222">
        <ele>296</ele>
        <time>2024-08-03T06:55:12Z</time>
      </trkpt>
      <trkpt lat="47.24977" lon="6.03221">
        <ele>296</ele>
        <time>2024-08-03T06:55:13Z</time>
      </trkpt>
      <trkpt lat="47.24978" lon="6.0322">
        <ele>296.2</ele>
        <time>2024-08-03T06:55:14Z</time>
      </trkpt>
      <trkpt lat="47.2498" lon="6.03219">
        <ele>296</ele>
        <time>2024-08-03T06:55:15Z</time>
      </trkpt>
      <trkpt lat="47.24982" lon="6.03218">
        <ele>296</ele>
        <time>2024-08-03T06:55:16Z</time>
      </trkpt>
      <trkpt lat="47.24983" lon="6.03218">
        <ele>296</ele>
        <time>2024-08-03T06:55:17Z</time>
      </trkpt>
      <trkpt lat="47.24986" lon="6.03217">
        <ele>296</ele>
        <time>2024-08-03T06:55:18Z</time>
      </trkpt>
      <trkpt lat="47.24988" lon="6.03217">
        <ele>296.2</ele>
        <time>2024-08-03T06:55:19Z</time>
      </trkpt>
      <trkpt lat="47.2499" lon="6.03215">
        <ele>296.2</ele>
        <time>2024-08-03T06:55:20Z</time>
      </trkpt>
      <trkpt lat="47.24993" lon="6.03214">
        <ele>296.4</ele>
        <time>2024-08-03T06:55:21Z</time>
      </trkpt>
      <trkpt lat="47.24995" lon="6.03212">
        <ele>296.6</ele>
        <time>2024-08-03T06:55:22Z</time>
      </trkpt>
      <trkpt lat="47.24998" lon="6.03211">
        <ele>296.6</ele>
        <time>2024-08-03T06:55:23Z</time>
      </trkpt>
      <trkpt lat="47.25" lon="6.0321">
        <ele>297</ele>
        <time>2024-08-03T06:55:24Z</time>
      </trkpt>
      <trkpt lat="47.25003" lon="6.03209">
        <ele>297.2</ele>
        <time>2024-08-03T06:55:25Z</time>
      </trkpt>
      <trkpt lat="47.25006" lon="6.03208">
        <ele>297.4</ele>
        <time>2024-08-03T06:55:26Z</time>
      </trkpt>
      <trkpt lat="47.25009" lon="6.03207">
        <ele>297.6</ele>
        <time>2024-08-03T06:55:27Z</time>
      </trkpt>
      <trkpt lat="47.25011" lon="6.03206">
        <ele>297.8</ele>
        <time>2024-08-03T06:55:28Z</time>
      </trkpt>
      <trkpt lat="47.25014" lon="6.03204">
        <ele>297.8</ele>
        <time>2024-08-03T06:55:29Z</time>
      </trkpt>
      <trkpt lat="47.25016" lon="6.03203">
        <ele>298</ele>
        <time>2024-08-03T06:55:30Z</time>
      </trkpt>
      <trkpt lat="47.25018" lon="6.03202">
        <ele>298.2</ele>
        <time>2024-08-03T06:55:31Z</time>
      </trkpt>
      <trkpt lat="47.25019" lon="6.03201">
        <ele>298.2</ele>
        <time>2024-08-03T06:55:32Z</time>
      </trkpt>
      <trkpt lat="47.25022" lon="6.032">
        <ele>298.4</ele>
        <time>2024-08-03T06:55:33Z</time>
      </trkpt>
      <trkpt lat="47.25024" lon="6.03199">
        <ele>298.6</ele>
        <time>2024-08-03T06:55:34Z</time>
      </trkpt>
      <trkpt lat="47.25026" lon="6.03197">
        <ele>298.8</ele>
        <time>2024-08-03T06:55:35Z</time>
      </trkpt>
      <trkpt lat="47.25028" lon="6.03196">
        <ele>299</ele>
        <time>2024-08-03T06:55:36Z</time>
      </trkpt>
      <trkpt lat="47.25031" lon="6.03195">
        <ele>299.2</ele>
        <time>2024-08-03T06:55:37Z</time>
      </trkpt>
      <trkpt lat="47.25033" lon="6.03194">
        <ele>299.2</ele>
        <time>2024-08-03T06:55:38Z</time>
      </trkpt>
      <trkpt lat="47.25036" lon="6.03193">
        <ele>299.4</ele>
        <time>2024-08-03T06:55:39Z</time>
      </trkpt>
      <trkpt lat="47.25039" lon="6.03191">
        <ele>299.4</ele>
        <time>2024-08-03T06:55:40Z</time>
      </trkpt>
      <trkpt lat="47.25041" lon="6.03189">
        <ele>299.6</ele>
        <time>2024-08-03T06:55:41Z</time>
      </trkpt>
      <trkpt lat="47.25043" lon="6.03187">
        <ele>299.6</ele>
        <time>2024-08-03T06:55:42Z</time>
      </trkpt>
      <trkpt lat="47.25046" lon="6.03185">
        <ele>299.8</ele>
        <time>2024-08-03T06:55:43Z</time>
      </trkpt>
      <trkpt lat="47.25049" lon="6.03183">
        <ele>300.2</ele>
        <time>2024-08-03T06:55:44Z</time>
      </trkpt>
      <trkpt lat="47.25051" lon="6.03182">
        <ele>300.4</ele>
        <time>2024-08-03T06:55:45Z</time>
      </trkpt>
      <trkpt lat="47.25055" lon="6.03181">
        <ele>300.8</ele>
        <time>2024-08-03T06:55:46Z</time>
      </trkpt>
      <trkpt lat="47.25057" lon="6.0318">
        <ele>300.8</ele>
        <time>2024-08-03T06:55:47Z</time>
      </trkpt>
      <trkpt lat="47.25061" lon="6.0318">
        <ele>301</ele>
        <time>2024-08-03T06:55:48Z</time>
      </trkpt>
      <trkpt lat="47.25063" lon="6.03179">
        <ele>301.2</ele>
        <time>2024-08-03T06:55:49Z</time>
      </trkpt>
      <trkpt lat="47.25066" lon="6.03178">
        <ele>301.2</ele>
        <time>2024-08-03T06:55:50Z</time>
      </trkpt>
      <trkpt lat="47.25068" lon="6.03178">
        <ele>301.4</ele>
        <time>2024-08-03T06:55:51Z</time>
      </trkpt>
      <trkpt lat="47.2507" lon="6.03177">
        <ele>301.6</ele>
        <time>2024-08-03T06:55:52Z</time>
      </trkpt>
      <trkpt lat="47.25072" lon="6.03176">
        <ele>301.8</ele>
        <time>2024-08-03T06:55:53Z</time>
      </trkpt>
      <trkpt lat="47.25074" lon="6.03175">
        <ele>302.2</ele>
        <time>2024-08-03T06:55:54Z</time>
      </trkpt>
      <trkpt lat="47.25076" lon="6.03175">
        <ele>302.4</ele>
        <time>2024-08-03T06:55:55Z</time>
      </trkpt>
      <trkpt lat="47.25079" lon="6.03174">
        <ele>302.4</ele>
        <time>2024-08-03T06:55:56Z</time>
      </trkpt>
      <trkpt lat="47.25081" lon="6.03172">
        <ele>302.6</ele>
        <time>2024-08-03T06:55:57Z</time>
      </trkpt>
      <trkpt lat="47.25084" lon="6.03171">
        <ele>302.6</ele>
        <time>2024-08-03T06:55:58Z</time>
      </trkpt>
      <trkpt lat="47.25086" lon="6.0317">
        <ele>303</ele>
        <time>2024-08-03T06:55:59Z</time>
      </trkpt>
      <trkpt lat="47.25089" lon="6.03169">
        <ele>303</ele>
        <time>2024-08-03T06:56:00Z</time>
      </trkpt>
      <trkpt lat="47.25092" lon="6.03168">
        <ele>303.2</ele>
        <time>2024-08-03T06:56:01Z</time>
      </trkpt>
      <trkpt lat="47.25094" lon="6.03167">
        <ele>303.4</ele>
        <time>2024-08-03T06:56:02Z</time>
      </trkpt>
      <trkpt lat="47.25096" lon="6.03166">
        <ele>303.6</ele>
        <time>2024-08-03T06:56:03Z</time>
      </trkpt>
      <trkpt lat="47.25098" lon="6.03165">
        <ele>303.8</ele>
        <time>2024-08-03T06:56:04Z</time>
      </trkpt>
      <trkpt lat="47.251" lon="6.03164">
        <ele>304</ele>
        <time>2024-08-03T06:56:05Z</time>
      </trkpt>
      <trkpt lat="47.25103" lon="6.03163">
        <ele>304.2</ele>
        <time>2024-08-03T06:56:06Z</time>
      </trkpt>
      <trkpt lat="47.25105" lon="6.03162">
        <ele>304.4</ele>
        <time>2024-08-03T06:56:07Z</time>
      </trkpt>
      <trkpt lat="47.25108" lon="6.03162">
        <ele>304.6</ele>
        <time>2024-08-03T06:56:08Z</time>
      </trkpt>
      <trkpt lat="47.25111" lon="6.0316">
        <ele>304.6</ele>
        <time>2024-08-03T06:56:09Z</time>
      </trkpt>
      <trkpt lat="47.25114" lon="6.03159">
        <ele>304.8</ele>
        <time>2024-08-03T06:56:10Z</time>
      </trkpt>
      <trkpt lat="47.25116" lon="6.03158">
        <ele>305</ele>
        <time>2024-08-03T06:56:11Z</time>
      </trkpt>
      <trkpt lat="47.25119" lon="6.03157">
        <ele>305.2</ele>
        <time>2024-08-03T06:56:12Z</time>
      </trkpt>
      <trkpt lat="47.25121" lon="6.03155">
        <ele>305.2</ele>
        <time>2024-08-03T06:56:13Z</time>
      </trkpt>
      <trkpt lat="47.25123" lon="6.03154">
        <ele>305.4</ele>
        <time>2024-08-03T06:56:14Z</time>
      </trkpt>
      <trkpt lat="47.25125" lon="6.03152">
        <ele>305.6</ele>
        <time>2024-08-03T06:56:15Z</time>
      </trkpt>
      <trkpt lat="47.25127" lon="6.0315">
        <ele>305.6</ele>
        <time>2024-08-03T06:56:16Z</time>
      </trkpt>
      <trkpt lat="47.25129" lon="6.03148">
        <ele>305.8</ele>
        <time>2024-08-03T06:56:17Z</time>
      </trkpt>
      <trkpt lat="47.25132" lon="6.03146">
        <ele>305.8</ele>
        <time>2024-08-03T06:56:18Z</time>
      </trkpt>
      <trkpt lat="47.25134" lon="6.03144">
        <ele>306.2</ele>
        <time>2024-08-03T06:56:19Z</time>
      </trkpt>
      <trkpt lat="47.25136" lon="6.03142">
        <ele>306.4</ele>
        <time>2024-08-03T06:56:20Z</time>
      </trkpt>
      <trkpt lat="47.25139" lon="6.0314">
        <ele>306.4</ele>
        <time>2024-08-03T06:56:21Z</time>
      </trkpt>
      <trkpt lat="47.25141" lon="6.03138">
        <ele>306.6</ele>
        <time>2024-08-03T06:56:22Z</time>
      </trkpt>
      <trkpt lat="47.25143" lon="6.03136">
        <ele>306.8</ele>
        <time>2024-08-03T06:56:23Z</time>
      </trkpt>
      <trkpt lat="47.25146" lon="6.03135">
        <ele>307</ele>
        <time>2024-08-03T06:56:24Z</time>
      </trkpt>
      <trkpt lat="47.25148" lon="6.03133">
        <ele>307.2</ele>
        <time>2024-08-03T06:56:25Z</time>
      </trkpt>
      <trkpt lat="47.25151" lon="6.03132">
        <ele>307.4</ele>
        <time>2024-08-03T06:56:26Z</time>
      </trkpt>
      <trkpt lat="47.25153" lon="6.0313">
        <ele>307.6</ele>
        <time>2024-08-03T06:56:27Z</time>
      </trkpt>
      <trkpt lat="47.25155" lon="6.03128">
        <ele>308</ele>
        <time>2024-08-03T06:56:28Z</time>
      </trkpt>
      <trkpt lat="47.25157" lon="6.03126">
        <ele>308</ele>
        <time>2024-08-03T06:56:29Z</time>
      </trkpt>
      <trkpt lat="47.25159" lon="6.03124">
        <ele>308.2</ele>
        <time>2024-08-03T06:56:30Z</time>
      </trkpt>
      <trkpt lat="47.2516" lon="6.03121">
        <ele>308.2</ele>
        <time>2024-08-03T06:56:31Z</time>
      </trkpt>
      <trkpt lat="47.25161" lon="6.03117">
        <ele>308.4</ele>
        <time>2024-08-03T06:56:32Z</time>
      </trkpt>
      <trkpt lat="47.25162" lon="6.03113">
        <ele>308.6</ele>
        <time>2024-08-03T06:56:33Z</time>
      </trkpt>
      <trkpt lat="47.25162" lon="6.03108">
        <ele>308.8</ele>
        <time>2024-08-03T06:56:34Z</time>
      </trkpt>
      <trkpt lat="47.25161" lon="6.03103">
        <ele>308.8</ele>
        <time>2024-08-03T06:56:35Z</time>
      </trkpt>
      <trkpt lat="47.2516" lon="6.03098">
        <ele>309</ele>
        <time>2024-08-03T06:56:36Z</time>
      </trkpt>
      <trkpt lat="47.25159" lon="6.03093">
        <ele>309.2</ele>
        <time>2024-08-03T06:56:37Z</time>
      </trkpt>
      <trkpt lat="47.25159" lon="6.03087">
        <ele>309.6</ele>
        <time>2024-08-03T06:56:38Z</time>
      </trkpt>
      <trkpt lat="47.25157" lon="6.03082">
        <ele>310</ele>
        <time>2024-08-03T06:56:39Z</time>
      </trkpt>
      <trkpt lat="47.25156" lon="6.03077">
        <ele>310</ele>
        <time>2024-08-03T06:56:40Z</time>
      </trkpt>
      <trkpt lat="47.25154" lon="6.03074">
        <ele>310.2</ele>
        <time>2024-08-03T06:56:41Z</time>
      </trkpt>
      <trkpt lat="47.25153" lon="6.03069">
        <ele>310.4</ele>
        <time>2024-08-03T06:56:42Z</time>
      </trkpt>
      <trkpt lat="47.25152" lon="6.03065">
        <ele>310.4</ele>
        <time>2024-08-03T06:56:43Z</time>
      </trkpt>
      <trkpt lat="47.2515" lon="6.03061">
        <ele>310.6</ele>
        <time>2024-08-03T06:56:44Z</time>
      </trkpt>
      <trkpt lat="47.25149" lon="6.03057">
        <ele>310.6</ele>
        <time>2024-08-03T06:56:45Z</time>
      </trkpt>
      <trkpt lat="47.25149" lon="6.03053">
        <ele>310.8</ele>
        <time>2024-08-03T06:56:46Z</time>
      </trkpt>
      <trkpt lat="47.2515" lon="6.03049">
        <ele>311</ele>
        <time>2024-08-03T06:56:47Z</time>
      </trkpt>
      <trkpt lat="47.25151" lon="6.03045">
        <ele>311</ele>
        <time>2024-08-03T06:56:48Z</time>
      </trkpt>
      <trkpt lat="47.25153" lon="6.03042">
        <ele>311</ele>
        <time>2024-08-03T06:56:49Z</time>
      </trkpt>
      <trkpt lat="47.25155" lon="6.03039">
        <ele>311</ele>
        <time>2024-08-03T06:56:50Z</time>
      </trkpt>
      <trkpt lat="47.25157" lon="6.03037">
        <ele>311</ele>
        <time>2024-08-03T06:56:51Z</time>
      </trkpt>
      <trkpt lat="47.25159" lon="6.03035">
        <ele>311</ele>
        <time>2024-08-03T06:56:52Z</time>
      </trkpt>
      <trkpt lat="47.25162" lon="6.03033">
        <ele>311.2</ele>
        <time>2024-08-03T06:56:53Z</time>
      </trkpt>
      <trkpt lat="47.25165" lon="6.03031">
        <ele>311.2</ele>
        <time>2024-08-03T06:56:54Z</time>
      </trkpt>
      <trkpt lat="47.25168" lon="6.03029">
        <ele>311.2</ele>
        <time>2024-08-03T06:56:55Z</time>
      </trkpt>
      <trkpt lat="47.25171" lon="6.03027">
        <ele>311.6</ele>
        <time>2024-08-03T06:56:56Z</time>
      </trkpt>
      <trkpt lat="47.25174" lon="6.03026">
        <ele>311.8</ele>
        <time>2024-08-03T06:56:57Z</time>
      </trkpt>
      <trkpt lat="47.25176" lon="6.03025">
        <ele>312</ele>
        <time>2024-08-03T06:56:58Z</time>
      </trkpt>
      <trkpt lat="47.25179" lon="6.03024">
        <ele>312.2</ele>
        <time>2024-08-03T06:56:59Z</time>
      </trkpt>
      <trkpt lat="47.25183" lon="6.03023">
        <ele>312.4</ele>
        <time>2024-08-03T06:57:00Z</time>
      </trkpt>
      <trkpt lat="47.25186" lon="6.03022">
        <ele>312.6</ele>
        <time>2024-08-03T06:57:01Z</time>
      </trkpt>
      <trkpt lat="47.25189" lon="6.03022">
        <ele>312.6</ele>
        <time>2024-08-03T06:57:02Z</time>
      </trkpt>
      <trkpt lat="47.25192" lon="6.03022">
        <ele>312.8</ele>
        <time>2024-08-03T06:57:03Z</time>
      </trkpt>
      <trkpt lat="47.25195" lon="6.03022">
        <ele>313</ele>
        <time>2024-08-03T06:57:04Z</time>
      </trkpt>
      <trkpt lat="47.25198" lon="6.03022">
        <ele>313</ele>
        <time>2024-08-03T06:57:05Z</time>
      </trkpt>
      <trkpt lat="47.25202" lon="6.03021">
        <ele>313.2</ele>
        <time>2024-08-03T06:57:06Z</time>
      </trkpt>
      <trkpt lat="47.25205" lon="6.03021">
        <ele>313.2</ele>
        <time>2024-08-03T06:57:07Z</time>
      </trkpt>
      <trkpt lat="47.25209" lon="6.03022">
        <ele>313.4</ele>
        <time>2024-08-03T06:57:08Z</time>
      </trkpt>
      <trkpt lat="47.25211" lon="6.03024">
        <ele>313.4</ele>
        <time>2024-08-03T06:57:09Z</time>
      </trkpt>
      <trkpt lat="47.25214" lon="6.03026">
        <ele>313.4</ele>
        <time>2024-08-03T06:57:10Z</time>
      </trkpt>
      <trkpt lat="47.25217" lon="6.03029">
        <ele>313.6</ele>
        <time>2024-08-03T06:57:11Z</time>
      </trkpt>
      <trkpt lat="47.2522" lon="6.03031">
        <ele>313.6</ele>
        <time>2024-08-03T06:57:12Z</time>
      </trkpt>
      <trkpt lat="47.25223" lon="6.03034">
        <ele>313.6</ele>
        <time>2024-08-03T06:57:13Z</time>
      </trkpt>
      <trkpt lat="47.25226" lon="6.03036">
        <ele>313.6</ele>
        <time>2024-08-03T06:57:14Z</time>
      </trkpt>
      <trkpt lat="47.25229" lon="6.03038">
        <ele>313.6</ele>
        <time>2024-08-03T06:57:15Z</time>
      </trkpt>
      <trkpt lat="47.25232" lon="6.0304">
        <ele>313.6</ele>
        <time>2024-08-03T06:57:16Z</time>
      </trkpt>
      <trkpt lat="47.25236" lon="6.03042">
        <ele>313.6</ele>
        <time>2024-08-03T06:57:17Z</time>
      </trkpt>
      <trkpt lat="47.25239" lon="6.03044">
        <ele>313.8</ele>
        <time>2024-08-03T06:57:18Z</time>
      </trkpt>
      <trkpt lat="47.25241" lon="6.03046">
        <ele>314</ele>
        <time>2024-08-03T06:57:19Z</time>
      </trkpt>
      <trkpt lat="47.25244" lon="6.03049">
        <ele>314</ele>
        <time>2024-08-03T06:57:20Z</time>
      </trkpt>
      <trkpt lat="47.25247" lon="6.03051">
        <ele>314.2</ele>
        <time>2024-08-03T06:57:21Z</time>
      </trkpt>
      <trkpt lat="47.2525" lon="6.03053">
        <ele>314.2</ele>
        <time>2024-08-03T06:57:22Z</time>
      </trkpt>
      <trkpt lat="47.25253" lon="6.03055">
        <ele>314.2</ele>
        <time>2024-08-03T06:57:23Z</time>
      </trkpt>
      <trkpt lat="47.25255" lon="6.03057">
        <ele>314.4</ele>
        <time>2024-08-03T06:57:24Z</time>
      </trkpt>
      <trkpt lat="47.25258" lon="6.03059">
        <ele>314.6</ele>
        <time>2024-08-03T06:57:25Z</time>
      </trkpt>
      <trkpt lat="47.25261" lon="6.03061">
        <ele>314.8</ele>
        <time>2024-08-03T06:57:26Z</time>
      </trkpt>
      <trkpt lat="47.25263" lon="6.03062">
        <ele>314.8</ele>
        <time>2024-08-03T06:57:27Z</time>
      </trkpt>
      <trkpt lat="47.25266" lon="6.03064">
        <ele>314.6</ele>
        <time>2024-08-03T06:57:28Z</time>
      </trkpt>
      <trkpt lat="47.25268" lon="6.03066">
        <ele>315</ele>
        <time>2024-08-03T06:57:29Z</time>
      </trkpt>
      <trkpt lat="47.2527" lon="6.03068">
        <ele>315</ele>
        <time>2024-08-03T06:57:30Z</time>
      </trkpt>
      <trkpt lat="47.25272" lon="6.03069">
        <ele>315.4</ele>
        <time>2024-08-03T06:57:31Z</time>
      </trkpt>
      <trkpt lat="47.25274" lon="6.0307">
        <ele>315.6</ele>
        <time>2024-08-03T06:57:32Z</time>
      </trkpt>
      <trkpt lat="47.25276" lon="6.03072">
        <ele>315.6</ele>
        <time>2024-08-03T06:57:33Z</time>
      </trkpt>
      <trkpt lat="47.25277" lon="6.03073">
        <ele>316</ele>
        <time>2024-08-03T06:57:34Z</time>
      </trkpt>
      <trkpt lat="47.25278" lon="6.03073">
        <ele>316.2</ele>
        <time>2024-08-03T06:57:35Z</time>
      </trkpt>
      <trkpt lat="47.2528" lon="6.03073">
        <ele>316.4</ele>
        <time>2024-08-03T06:57:36Z</time>
      </trkpt>
      <trkpt lat="47.25282" lon="6.03072">
        <ele>316.4</ele>
        <time>2024-08-03T06:57:37Z</time>
      </trkpt>
      <trkpt lat="47.25285" lon="6.03071">
        <ele>316.4</ele>
        <time>2024-08-03T06:57:38Z</time>
      </trkpt>
      <trkpt lat="47.25287" lon="6.0307">
        <ele>316.6</ele>
        <time>2024-08-03T06:57:39Z</time>
      </trkpt>
      <trkpt lat="47.25289" lon="6.03068">
        <ele>317</ele>
        <time>2024-08-03T06:57:40Z</time>
      </trkpt>
      <trkpt lat="47.25291" lon="6.03065">
        <ele>317.2</ele>
        <time>2024-08-03T06:57:41Z</time>
      </trkpt>
      <trkpt lat="47.25293" lon="6.03062">
        <ele>317.2</ele>
        <time>2024-08-03T06:57:42Z</time>
      </trkpt>
      <trkpt lat="47.25295" lon="6.03059">
        <ele>317.4</ele>
        <time>2024-08-03T06:57:43Z</time>
      </trkpt>
      <trkpt lat="47.25296" lon="6.03055">
        <ele>317.4</ele>
        <time>2024-08-03T06:57:44Z</time>
      </trkpt>
      <trkpt lat="47.25298" lon="6.03052">
        <ele>317.6</ele>
        <time>2024-08-03T06:57:45Z</time>
      </trkpt>
      <trkpt lat="47.253" lon="6.03049">
        <ele>317.8</ele>
        <time>2024-08-03T06:57:46Z</time>
      </trkpt>
      <trkpt lat="47.25302" lon="6.03046">
        <ele>317.8</ele>
        <time>2024-08-03T06:57:47Z</time>
      </trkpt>
      <trkpt lat="47.25304" lon="6.03043">
        <ele>318</ele>
        <time>2024-08-03T06:57:48Z</time>
      </trkpt>
      <trkpt lat="47.25306" lon="6.0304">
        <ele>318</ele>
        <time>2024-08-03T06:57:49Z</time>
      </trkpt>
      <trkpt lat="47.25308" lon="6.03037">
        <ele>318</ele>
        <time>2024-08-03T06:57:50Z</time>
      </trkpt>
      <trkpt lat="47.2531" lon="6.03034">
        <ele>318.2</ele>
        <time>2024-08-03T06:57:51Z</time>
      </trkpt>
      <trkpt lat="47.25312" lon="6.0303">
        <ele>318.4</ele>
        <time>2024-08-03T06:57:52Z</time>
      </trkpt>
      <trkpt lat="47.25315" lon="6.03027">
        <ele>318.4</ele>
        <time>2024-08-03T06:57:53Z</time>
      </trkpt>
      <trkpt lat="47.25317" lon="6.03025">
        <ele>318.4</ele>
        <time>2024-08-03T06:57:54Z</time>
      </trkpt>
      <trkpt lat="47.25319" lon="6.03022">
        <ele>318.4</ele>
        <time>2024-08-03T06:57:55Z</time>
      </trkpt>
      <trkpt lat="47.25321" lon="6.03019">
        <ele>318.8</ele>
        <time>2024-08-03T06:57:56Z</time>
      </trkpt>
      <trkpt lat="47.25324" lon="6.03016">
        <ele>319</ele>
        <time>2024-08-03T06:57:57Z</time>
      </trkpt>
      <trkpt lat="47.25326" lon="6.03013">
        <ele>319</ele>
        <time>2024-08-03T06:57:58Z</time>
      </trkpt>
      <trkpt lat="47.25329" lon="6.0301">
        <ele>319.2</ele>
        <time>2024-08-03T06:57:59Z</time>
      </trkpt>
      <trkpt lat="47.25331" lon="6.03007">
        <ele>319.4</ele>
        <time>2024-08-03T06:58:00Z</time>
      </trkpt>
      <trkpt lat="47.25333" lon="6.03004">
        <ele>319.6</ele>
        <time>2024-08-03T06:58:01Z</time>
      </trkpt>
      <trkpt lat="47.25335" lon="6.03001">
        <ele>319.8</ele>
        <time>2024-08-03T06:58:02Z</time>
      </trkpt>
      <trkpt lat="47.25337" lon="6.02998">
        <ele>320</ele>
        <time>2024-08-03T06:58:03Z</time>
      </trkpt>
      <trkpt lat="47.25338" lon="6.02995">
        <ele>320.2</ele>
        <time>2024-08-03T06:58:04Z</time>
      </trkpt>
      <trkpt lat="47.25341" lon="6.02992">
        <ele>320.4</ele>
        <time>2024-08-03T06:58:05Z</time>
      </trkpt>
      <trkpt lat="47.25343" lon="6.02989">
        <ele>320.4</ele>
        <time>2024-08-03T06:58:06Z</time>
      </trkpt>
      <trkpt lat="47.25345" lon="6.02986">
        <ele>320.6</ele>
        <time>2024-08-03T06:58:07Z</time>
      </trkpt>
      <trkpt lat="47.25347" lon="6.02983">
        <ele>320.6</ele>
        <time>2024-08-03T06:58:08Z</time>
      </trkpt>
      <trkpt lat="47.25349" lon="6.0298">
        <ele>321</ele>
        <time>2024-08-03T06:58:09Z</time>
      </trkpt>
      <trkpt lat="47.25351" lon="6.02977">
        <ele>321.2</ele>
        <time>2024-08-03T06:58:10Z</time>
      </trkpt>
      <trkpt lat="47.25353" lon="6.02974">
        <ele>321.2</ele>
        <time>2024-08-03T06:58:11Z</time>
      </trkpt>
      <trkpt lat="47.25356" lon="6.02971">
        <ele>321.2</ele>
        <time>2024-08-03T06:58:12Z</time>
      </trkpt>
      <trkpt lat="47.25358" lon="6.02968">
        <ele>321.6</ele>
        <time>2024-08-03T06:58:13Z</time>
      </trkpt>
      <trkpt lat="47.2536" lon="6.02965">
        <ele>321.6</ele>
        <time>2024-08-03T06:58:14Z</time>
      </trkpt>
      <trkpt lat="47.25362" lon="6.02962">
        <ele>321.8</ele>
        <time>2024-08-03T06:58:15Z</time>
      </trkpt>
      <trkpt lat="47.25365" lon="6.02959">
        <ele>322.2</ele>
        <time>2024-08-03T06:58:16Z</time>
      </trkpt>
      <trkpt lat="47.25367" lon="6.02957">
        <ele>322.2</ele>
        <time>2024-08-03T06:58:17Z</time>
      </trkpt>
      <trkpt lat="47.25369" lon="6.02954">
        <ele>322.4</ele>
        <time>2024-08-03T06:58:18Z</time>
      </trkpt>
      <trkpt lat="47.25371" lon="6.02952">
        <ele>322.8</ele>
        <time>2024-08-03T06:58:19Z</time>
      </trkpt>
      <trkpt lat="47.25373" lon="6.02949">
        <ele>323</ele>
        <time>2024-08-03T06:58:20Z</time>
      </trkpt>
      <trkpt lat="47.25374" lon="6.02946">
        <ele>323.2</ele>
        <time>2024-08-03T06:58:21Z</time>
      </trkpt>
      <trkpt lat="47.25376" lon="6.02943">
        <ele>323.4</ele>
        <time>2024-08-03T06:58:22Z</time>
      </trkpt>
      <trkpt lat="47.25377" lon="6.0294">
        <ele>323.6</ele>
        <time>2024-08-03T06:58:23Z</time>
      </trkpt>
      <trkpt lat="47.25379" lon="6.02937">
        <ele>323.8</ele>
        <time>2024-08-03T06:58:24Z</time>
      </trkpt>
      <trkpt lat="47.2538" lon="6.02934">
        <ele>324.2</ele>
        <time>2024-08-03T06:58:25Z</time>
      </trkpt>
      <trkpt lat="47.25381" lon="6.02932">
        <ele>324.2</ele>
        <time>2024-08-03T06:58:26Z</time>
      </trkpt>
      <trkpt lat="47.25383" lon="6.02929">
        <ele>324.6</ele>
        <time>2024-08-03T06:58:27Z</time>
      </trkpt>
      <trkpt lat="47.25384" lon="6.02926">
        <ele>324.8</ele>
        <time>2024-08-03T06:58:28Z</time>
      </trkpt>
      <trkpt lat="47.25386" lon="6.02923">
        <ele>325.2</ele>
        <time>2024-08-03T06:58:29Z</time>
      </trkpt>
      <trkpt lat="47.25388" lon="6.02919">
        <ele>325.2</ele>
        <time>2024-08-03T06:58:30Z</time>
      </trkpt>
      <trkpt lat="47.25389" lon="6.02917">
        <ele>325.4</ele>
        <time>2024-08-03T06:58:31Z</time>
      </trkpt>
      <trkpt lat="47.2539" lon="6.02914">
        <ele>325.4</ele>
        <time>2024-08-03T06:58:32Z</time>
      </trkpt>
      <trkpt lat="47.25392" lon="6.0291">
        <ele>325.6</ele>
        <time>2024-08-03T06:58:33Z</time>
      </trkpt>
      <trkpt lat="47.25394" lon="6.02907">
        <ele>326</ele>
        <time>2024-08-03T06:58:34Z</time>
      </trkpt>
      <trkpt lat="47.25395" lon="6.02905">
        <ele>326.2</ele>
        <time>2024-08-03T06:58:35Z</time>
      </trkpt>
      <trkpt lat="47.25397" lon="6.02902">
        <ele>326.2</ele>
        <time>2024-08-03T06:58:36Z</time>
      </trkpt>
      <trkpt lat="47.25398" lon="6.02899">
        <ele>326.4</ele>
        <time>2024-08-03T06:58:37Z</time>
      </trkpt>
      <trkpt lat="47.254" lon="6.02896">
        <ele>326.6</ele>
        <time>2024-08-03T06:58:38Z</time>
      </trkpt>
      <trkpt lat="47.25401" lon="6.02893">
        <ele>326.8</ele>
        <time>2024-08-03T06:58:39Z</time>
      </trkpt>
      <trkpt lat="47.25403" lon="6.02891">
        <ele>327</ele>
        <time>2024-08-03T06:58:40Z</time>
      </trkpt>
      <trkpt lat="47.25405" lon="6.02888">
        <ele>327</ele>
        <time>2024-08-03T06:58:41Z</time>
      </trkpt>
      <trkpt lat="47.25406" lon="6.02885">
        <ele>327.4</ele>
        <time>2024-08-03T06:58:42Z</time>
      </trkpt>
      <trkpt lat="47.25408" lon="6.02882">
        <ele>327.4</ele>
        <time>2024-08-03T06:58:43Z</time>
      </trkpt>
      <trkpt lat="47.2541" lon="6.0288">
        <ele>327.6</ele>
        <time>2024-08-03T06:58:44Z</time>
      </trkpt>
      <trkpt lat="47.25412" lon="6.02877">
        <ele>327.8</ele>
        <time>2024-08-03T06:58:45Z</time>
      </trkpt>
      <trkpt lat="47.25414" lon="6.02874">
        <ele>328</ele>
        <time>2024-08-03T06:58:46Z</time>
      </trkpt>
      <trkpt lat="47.25416" lon="6.0287">
        <ele>328.2</ele>
        <time>2024-08-03T06:58:47Z</time>
      </trkpt>
      <trkpt lat="47.25418" lon="6.02867">
        <ele>328.4</ele>
        <time>2024-08-03T06:58:48Z</time>
      </trkpt>
      <trkpt lat="47.2542" lon="6.02864">
        <ele>328.4</ele>
        <time>2024-08-03T06:58:49Z</time>
      </trkpt>
      <trkpt lat="47.25422" lon="6.0286">
        <ele>328.6</ele>
        <time>2024-08-03T06:58:50Z</time>
      </trkpt>
      <trkpt lat="47.25424" lon="6.02856">
        <ele>328.8</ele>
        <time>2024-08-03T06:58:51Z</time>
      </trkpt>
      <trkpt lat="47.25426" lon="6.02853">
        <ele>328.8</ele>
        <time>2024-08-03T06:58:52Z</time>
      </trkpt>
      <trkpt lat="47.25428" lon="6.02849">
        <ele>328.8</ele>
        <time>2024-08-03T06:58:53Z</time>
      </trkpt>
      <trkpt lat="47.2543" lon="6.02846">
        <ele>328.8</ele>
        <time>2024-08-03T06:58:54Z</time>
      </trkpt>
      <trkpt lat="47.25432" lon="6.02842">
        <ele>329</ele>
        <time>2024-08-03T06:58:55Z</time>
      </trkpt>
      <trkpt lat="47.25434" lon="6.02839">
        <ele>329</ele>
        <time>2024-08-03T06:58:56Z</time>
      </trkpt>
      <trkpt lat="47.25436" lon="6.02836">
        <ele>329.2</ele>
        <time>2024-08-03T06:58:57Z</time>
      </trkpt>
      <trkpt lat="47.25438" lon="6.02834">
        <ele>329.4</ele>
        <time>2024-08-03T06:58:58Z</time>
      </trkpt>
      <trkpt lat="47.2544" lon="6.02831">
        <ele>329.4</ele>
        <time>2024-08-03T06:58:59Z</time>
      </trkpt>
      <trkpt lat="47.25442" lon="6.02829">
        <ele>329.6</ele>
        <time>2024-08-03T06:59:00Z</time>
      </trkpt>
      <trkpt lat="47.25445" lon="6.02827">
        <ele>329.6</ele>
        <time>2024-08-03T06:59:01Z</time>
      </trkpt>
      <trkpt lat="47.25447" lon="6.02825">
        <ele>329.8</ele>
        <time>2024-08-03T06:59:02Z</time>
      </trkpt>
      <trkpt lat="47.2545" lon="6.02823">
        <ele>329.8</ele>
        <time>2024-08-03T06:59:03Z</time>
      </trkpt>
      <trkpt lat="47.25453" lon="6.02821">
        <ele>330</ele>
        <time>2024-08-03T06:59:04Z</time>
      </trkpt>
      <trkpt lat="47.25455" lon="6.02819">
        <ele>330.2</ele>
        <time>2024-08-03T06:59:05Z</time>
      </trkpt>
      <trkpt lat="47.25459" lon="6.02818">
        <ele>330.4</ele>
        <time>2024-08-03T06:59:06Z</time>
      </trkpt>
      <trkpt lat="47.25462" lon="6.02817">
        <ele>330.4</ele>
        <time>2024-08-03T06:59:07Z</time>
      </trkpt>
      <trkpt lat="47.25466" lon="6.02817">
        <ele>330.4</ele>
        <time>2024-08-03T06:59:08Z</time>
      </trkpt>
      <trkpt lat="47.25471" lon="6.02817">
        <ele>330.4</ele>
        <time>2024-08-03T06:59:09Z</time>
      </trkpt>
      <trkpt lat="47.25475" lon="6.02818">
        <ele>330.6</ele>
        <time>2024-08-03T06:59:10Z</time>
      </trkpt>
      <trkpt lat="47.25479" lon="6.02818">
        <ele>330.4</ele>
        <time>2024-08-03T06:59:11Z</time>
      </trkpt>
      <trkpt lat="47.25483" lon="6.02819">
        <ele>330.4</ele>
        <time>2024-08-03T06:59:12Z</time>
      </trkpt>
      <trkpt lat="47.25487" lon="6.02819">
        <ele>330.4</ele>
        <time>2024-08-03T06:59:13Z</time>
      </trkpt>
      <trkpt lat="47.25491" lon="6.02819">
        <ele>330.4</ele>
        <time>2024-08-03T06:59:14Z</time>
      </trkpt>
      <trkpt lat="47.25495" lon="6.0282">
        <ele>330.6</ele>
        <time>2024-08-03T06:59:15Z</time>
      </trkpt>
      <trkpt lat="47.25499" lon="6.0282">
        <ele>330.6</ele>
        <time>2024-08-03T06:59:16Z</time>
      </trkpt>
      <trkpt lat="47.25502" lon="6.02819">
        <ele>330.4</ele>
        <time>2024-08-03T06:59:17Z</time>
      </trkpt>
      <trkpt lat="47.25506" lon="6.02819">
        <ele>330.4</ele>
        <time>2024-08-03T06:59:18Z</time>
      </trkpt>
      <trkpt lat="47.25509" lon="6.02818">
        <ele>330.4</ele>
        <time>2024-08-03T06:59:19Z</time>
      </trkpt>
      <trkpt lat="47.25513" lon="6.02818">
        <ele>330.4</ele>
        <time>2024-08-03T06:59:20Z</time>
      </trkpt>
      <trkpt lat="47.25517" lon="6.02817">
        <ele>330.2</ele>
        <time>2024-08-03T06:59:21Z</time>
      </trkpt>
      <trkpt lat="47.2552" lon="6.02816">
        <ele>330.4</ele>
        <time>2024-08-03T06:59:22Z</time>
      </trkpt>
      <trkpt lat="47.25524" lon="6.02815">
        <ele>330.2</ele>
        <time>2024-08-03T06:59:23Z</time>
      </trkpt>
      <trkpt lat="47.25528" lon="6.02815">
        <ele>330.2</ele>
        <time>2024-08-03T06:59:24Z</time>
      </trkpt>
      <trkpt lat="47.25533" lon="6.02814">
        <ele>330.2</ele>
        <time>2024-08-03T06:59:25Z</time>
      </trkpt>
      <trkpt lat="47.25536" lon="6.02813">
        <ele>330.4</ele>
        <time>2024-08-03T06:59:26Z</time>
      </trkpt>
      <trkpt lat="47.2554" lon="6.02813">
        <ele>330.2</ele>
        <time>2024-08-03T06:59:27Z</time>
      </trkpt>
      <trkpt lat="47.25543" lon="6.02812">
        <ele>330.2</ele>
        <time>2024-08-03T06:59:28Z</time>
      </trkpt>
      <trkpt lat="47.25546" lon="6.02811">
        <ele>330.2</ele>
        <time>2024-08-03T06:59:29Z</time>
      </trkpt>
      <trkpt lat="47.25549" lon="6.0281">
        <ele>330.2</ele>
        <time>2024-08-03T06:59:30Z</time>
      </trkpt>
      <trkpt lat="47.25552" lon="6.02809">
        <ele>330.2</ele>
        <time>2024-08-03T06:59:31Z</time>
      </trkpt>
      <trkpt lat="47.25555" lon="6.02808">
        <ele>330.2</ele>
        <time>2024-08-03T06:59:32Z</time>
      </trkpt>
      <trkpt lat="47.25559" lon="6.02807">
        <ele>330.4</ele>
        <time>2024-08-03T06:59:33Z</time>
      </trkpt>
      <trkpt lat="47.25563" lon="6.02807">
        <ele>330.2</ele>
        <time>2024-08-03T06:59:34Z</time>
      </trkpt>
      <trkpt lat="47.25566" lon="6.02806">
        <ele>330.2</ele>
        <time>2024-08-03T06:59:35Z</time>
      </trkpt>
      <trkpt lat="47.25569" lon="6.02805">
        <ele>330.4</ele>
        <time>2024-08-03T06:59:36Z</time>
      </trkpt>
      <trkpt lat="47.25573" lon="6.02805">
        <ele>330.4</ele>
        <time>2024-08-03T06:59:37Z</time>
      </trkpt>
      <trkpt lat="47.25576" lon="6.02806">
        <ele>330.4</ele>
        <time>2024-08-03T06:59:38Z</time>
      </trkpt>
      <trkpt lat="47.25579" lon="6.02807">
        <ele>330.4</ele>
        <time>2024-08-03T06:59:39Z</time>
      </trkpt>
      <trkpt lat="47.25582" lon="6.02807">
        <ele>330.8</ele>
        <time>2024-08-03T06:59:40Z</time>
      </trkpt>
      <trkpt lat="47.25584" lon="6.02808">
        <ele>331</ele>
        <time>2024-08-03T06:59:41Z</time>
      </trkpt>
      <trkpt lat="47.25587" lon="6.02809">
        <ele>331.2</ele>
        <time>2024-08-03T06:59:42Z</time>
      </trkpt>
      <trkpt lat="47.25589" lon="6.0281">
        <ele>331.4</ele>
        <time>2024-08-03T06:59:43Z</time>
      </trkpt>
      <trkpt lat="47.25592" lon="6.02811">
        <ele>331.8</ele>
        <time>2024-08-03T06:59:44Z</time>
      </trkpt>
      <trkpt lat="47.25594" lon="6.02812">
        <ele>332</ele>
        <time>2024-08-03T06:59:45Z</time>
      </trkpt>
      <trkpt lat="47.25597" lon="6.02814">
        <ele>332.4</ele>
        <time>2024-08-03T06:59:46Z</time>
      </trkpt>
      <trkpt lat="47.25599" lon="6.02814">
        <ele>332.6</ele>
        <time>2024-08-03T06:59:47Z</time>
      </trkpt>
      <trkpt lat="47.25602" lon="6.02815">
        <ele>332.8</ele>
        <time>2024-08-03T06:59:48Z</time>
      </trkpt>
      <trkpt lat="47.25604" lon="6.02816">
        <ele>333</ele>
        <time>2024-08-03T06:59:49Z</time>
      </trkpt>
      <trkpt lat="47.25607" lon="6.02817">
        <ele>333.4</ele>
        <time>2024-08-03T06:59:50Z</time>
      </trkpt>
      <trkpt lat="47.2561" lon="6.02816">
        <ele>333.6</ele>
        <time>2024-08-03T06:59:51Z</time>
      </trkpt>
      <trkpt lat="47.25613" lon="6.02817">
        <ele>334</ele>
        <time>2024-08-03T06:59:52Z</time>
      </trkpt>
      <trkpt lat="47.25616" lon="6.02817">
        <ele>334.2</ele>
        <time>2024-08-03T06:59:53Z</time>
      </trkpt>
      <trkpt lat="47.25619" lon="6.02818">
        <ele>334.4</ele>
        <time>2024-08-03T06:59:54Z</time>
      </trkpt>
      <trkpt lat="47.25622" lon="6.02818">
        <ele>334.6</ele>
        <time>2024-08-03T06:59:55Z</time>
      </trkpt>
      <trkpt lat="47.25625" lon="6.02818">
        <ele>334.6</ele>
        <time>2024-08-03T06:59:56Z</time>
      </trkpt>
      <trkpt lat="47.25628" lon="6.02818">
        <ele>335</ele>
        <time>2024-08-03T06:59:57Z</time>
      </trkpt>
      <trkpt lat="47.2563" lon="6.02818">
        <ele>335.2</ele>
        <time>2024-08-03T06:59:58Z</time>
      </trkpt>
      <trkpt lat="47.25634" lon="6.02817">
        <ele>335.2</ele>
        <time>2024-08-03T06:59:59Z</time>
      </trkpt>
      <trkpt lat="47.25636" lon="6.02817">
        <ele>335.2</ele>
        <time>2024-08-03T07:00:00Z</time>
      </trkpt>
      <trkpt lat="47.25639" lon="6.02817">
        <ele>335.4</ele>
        <time>2024-08-03T07:00:01Z</time>
      </trkpt>
      <trkpt lat="47.25642" lon="6.02817">
        <ele>335.4</ele>
        <time>2024-08-03T07:00:02Z</time>
      </trkpt>
      <trkpt lat="47.25644" lon="6.02817">
        <ele>335.8</ele>
        <time>2024-08-03T07:00:03Z</time>
      </trkpt>
      <trkpt lat="47.25647" lon="6.02818">
        <ele>336</ele>
        <time>2024-08-03T07:00:04Z</time>
      </trkpt>
      <trkpt lat="47.25649" lon="6.02818">
        <ele>336.2</ele>
        <time>2024-08-03T07:00:05Z</time>
      </trkpt>
      <trkpt lat="47.25652" lon="6.02819">
        <ele>336.4</ele>
        <time>2024-08-03T07:00:06Z</time>
      </trkpt>
      <trkpt lat="47.25655" lon="6.02819">
        <ele>336.4</ele>
        <time>2024-08-03T07:00:07Z</time>
      </trkpt>
      <trkpt lat="47.25657" lon="6.0282">
        <ele>336.6</ele>
        <time>2024-08-03T07:00:08Z</time>
      </trkpt>
      <trkpt lat="47.2566" lon="6.02821">
        <ele>336.8</ele>
        <time>2024-08-03T07:00:09Z</time>
      </trkpt>
      <trkpt lat="47.25663" lon="6.02821">
        <ele>337</ele>
        <time>2024-08-03T07:00:10Z</time>
      </trkpt>
      <trkpt lat="47.25665" lon="6.02823">
        <ele>337.4</ele>
        <time>2024-08-03T07:00:11Z</time>
      </trkpt>
      <trkpt lat="47.25667" lon="6.02824">
        <ele>337.4</ele>
        <time>2024-08-03T07:00:12Z</time>
      </trkpt>
      <trkpt lat="47.2567" lon="6.02825">
        <ele>337.6</ele>
        <time>2024-08-03T07:00:13Z</time>
      </trkpt>
      <trkpt lat="47.25673" lon="6.02827">
        <ele>337.8</ele>
        <time>2024-08-03T07:00:14Z</time>
      </trkpt>
      <trkpt lat="47.25675" lon="6.02829">
        <ele>338</ele>
        <time>2024-08-03T07:00:15Z</time>
      </trkpt>
      <trkpt lat="47.25679" lon="6.0283">
        <ele>338.4</ele>
        <time>2024-08-03T07:00:16Z</time>
      </trkpt>
      <trkpt lat="47.25682" lon="6.02832">
        <ele>338.4</ele>
        <time>2024-08-03T07:00:17Z</time>
      </trkpt>
      <trkpt lat="47.25685" lon="6.02833">
        <ele>338.6</ele>
        <time>2024-08-03T07:00:18Z</time>
      </trkpt>
      <trkpt lat="47.25688" lon="6.02836">
        <ele>338.8</ele>
        <time>2024-08-03T07:00:19Z</time>
      </trkpt>
      <trkpt lat="47.25691" lon="6.02838">
        <ele>339</ele>
        <time>2024-08-03T07:00:20Z</time>
      </trkpt>
      <trkpt lat="47.25694" lon="6.02839">
        <ele>339.2</ele>
        <time>2024-08-03T07:00:21Z</time>
      </trkpt>
      <trkpt lat="47.25697" lon="6.0284">
        <ele>339.2</ele>
        <time>2024-08-03T07:00:22Z</time>
      </trkpt>
      <trkpt lat="47.257" lon="6.02841">
        <ele>339.4</ele>
        <time>2024-08-03T07:00:23Z</time>
      </trkpt>
      <trkpt lat="47.25703" lon="6.02841">
        <ele>339.6</ele>
        <time>2024-08-03T07:00:24Z</time>
      </trkpt>
      <trkpt lat="47.25705" lon="6.02841">
        <ele>339.6</ele>
        <time>2024-08-03T07:00:25Z</time>
      </trkpt>
      <trkpt lat="47.25708" lon="6.02842">
        <ele>339.8</ele>
        <time>2024-08-03T07:00:26Z</time>
      </trkpt>
      <trkpt lat="47.25711" lon="6.02843">
        <ele>340</ele>
        <time>2024-08-03T07:00:27Z</time>
      </trkpt>
      <trkpt lat="47.25715" lon="6.02844">
        <ele>340.2</ele>
        <time>2024-08-03T07:00:28Z</time>
      </trkpt>
      <trkpt lat="47.25718" lon="6.02845">
        <ele>340.4</ele>
        <time>2024-08-03T07:00:29Z</time>
      </trkpt>
      <trkpt lat="47.25721" lon="6.02847">
        <ele>340.4</ele>
        <time>2024-08-03T07:00:30Z</time>
      </trkpt>
      <trkpt lat="47.25724" lon="6.02848">
        <ele>340.6</ele>
        <time>2024-08-03T07:00:31Z</time>
      </trkpt>
      <trkpt lat="47.25728" lon="6.02849">
        <ele>340.6</ele>
        <time>2024-08-03T07:00:32Z</time>
      </trkpt>
      <trkpt lat="47.25731" lon="6.0285">
        <ele>340.8</ele>
        <time>2024-08-03T07:00:33Z</time>
      </trkpt>
      <trkpt lat="47.25734" lon="6.02851">
        <ele>341</ele>
        <time>2024-08-03T07:00:34Z</time>
      </trkpt>
      <trkpt lat="47.25738" lon="6.02852">
        <ele>341</ele>
        <time>2024-08-03T07:00:35Z</time>
      </trkpt>
      <trkpt lat="47.25741" lon="6.02853">
        <ele>341.2</ele>
        <time>2024-08-03T07:00:36Z</time>
      </trkpt>
      <trkpt lat="47.25745" lon="6.02854">
        <ele>341.4</ele>
        <time>2024-08-03T07:00:37Z</time>
      </trkpt>
      <trkpt lat="47.25749" lon="6.02855">
        <ele>341.6</ele>
        <time>2024-08-03T07:00:38Z</time>
      </trkpt>
      <trkpt lat="47.25752" lon="6.02855">
        <ele>341.6</ele>
        <time>2024-08-03T07:00:39Z</time>
      </trkpt>
      <trkpt lat="47.25756" lon="6.02856">
        <ele>341.6</ele>
        <time>2024-08-03T07:00:40Z</time>
      </trkpt>
      <trkpt lat="47.2576" lon="6.02856">
        <ele>341.6</ele>
        <time>2024-08-03T07:00:41Z</time>
      </trkpt>
      <trkpt lat="47.25764" lon="6.02856">
        <ele>341.6</ele>
        <time>2024-08-03T07:00:42Z</time>
      </trkpt>
      <trkpt lat="47.25767" lon="6.02855">
        <ele>341.8</ele>
        <time>2024-08-03T07:00:43Z</time>
      </trkpt>
      <trkpt lat="47.25771" lon="6.02855">
        <ele>341.8</ele>
        <time>2024-08-03T07:00:44Z</time>
      </trkpt>
      <trkpt lat="47.25774" lon="6.02856">
        <ele>341.8</ele>
        <time>2024-08-03T07:00:45Z</time>
      </trkpt>
      <trkpt lat="47.25778" lon="6.02857">
        <ele>342</ele>
        <time>2024-08-03T07:00:46Z</time>
      </trkpt>
      <trkpt lat="47.25781" lon="6.02858">
        <ele>341.8</ele>
        <time>2024-08-03T07:00:47Z</time>
      </trkpt>
      <trkpt lat="47.25784" lon="6.0286">
        <ele>342</ele>
        <time>2024-08-03T07:00:48Z</time>
      </trkpt>
      <trkpt lat="47.25788" lon="6.02861">
        <ele>342</ele>
        <time>2024-08-03T07:00:49Z</time>
      </trkpt>
      <trkpt lat="47.25791" lon="6.02863">
        <ele>342.2</ele>
        <time>2024-08-03T07:00:50Z</time>
      </trkpt>
      <trkpt lat="47.25794" lon="6.02864">
        <ele>342</ele>
        <time>2024-08-03T07:00:51Z</time>
      </trkpt>
      <trkpt lat="47.25798" lon="6.02865">
        <ele>342.2</ele>
        <time>2024-08-03T07:00:52Z</time>
      </trkpt>
      <trkpt lat="47.25802" lon="6.02866">
        <ele>342.4</ele>
        <time>2024-08-03T07:00:53Z</time>
      </trkpt>
      <trkpt lat="47.25806" lon="6.02867">
        <ele>342.2</ele>
        <time>2024-08-03T07:00:54Z</time>
      </trkpt>
      <trkpt lat="47.25809" lon="6.02869">
        <ele>342.4</ele>
        <time>2024-08-03T07:00:55Z</time>
      </trkpt>
      <trkpt lat="47.25813" lon="6.0287">
        <ele>342.4</ele>
        <time>2024-08-03T07:00:56Z</time>
      </trkpt>
      <trkpt lat="47.25817" lon="6.0287">
        <ele>342.4</ele>
        <time>2024-08-03T07:00:57Z</time>
      </trkpt>
      <trkpt lat="47.25821" lon="6.02871">
        <ele>342.4</ele>
        <time>2024-08-03T07:00:58Z</time>
      </trkpt>
      <trkpt lat="47.25825" lon="6.02872">
        <ele>342.6</ele>
        <time>2024-08-03T07:00:59Z</time>
      </trkpt>
      <trkpt lat="47.25829" lon="6.02873">
        <ele>342.6</ele>
        <time>2024-08-03T07:01:00Z</time>
      </trkpt>
      <trkpt lat="47.25832" lon="6.02874">
        <ele>342.6</ele>
        <time>2024-08-03T07:01:01Z</time>
      </trkpt>
      <trkpt lat="47.25836" lon="6.02874">
        <ele>342.6</ele>
        <time>2024-08-03T07:01:02Z</time>
      </trkpt>
      <trkpt lat="47.25839" lon="6.02875">
        <ele>342.6</ele>
        <time>2024-08-03T07:01:03Z</time>
      </trkpt>
      <trkpt lat="47.25843" lon="6.02876">
        <ele>342.6</ele>
        <time>2024-08-03T07:01:04Z</time>
      </trkpt>
      <trkpt lat="47.25846" lon="6.02877">
        <ele>342.8</ele>
        <time>2024-08-03T07:01:05Z</time>
      </trkpt>
      <trkpt lat="47.2585" lon="6.02877">
        <ele>342.8</ele>
        <time>2024-08-03T07:01:06Z</time>
      </trkpt>
      <trkpt lat="47.25853" lon="6.02878">
        <ele>342.6</ele>
        <time>2024-08-03T07:01:07Z</time>
      </trkpt>
      <trkpt lat="47.25857" lon="6.02878">
        <ele>342.8</ele>
        <time>2024-08-03T07:01:08Z</time>
      </trkpt>
      <trkpt lat="47.2586" lon="6.02879">
        <ele>342.8</ele>
        <time>2024-08-03T07:01:09Z</time>
      </trkpt>
      <trkpt lat="47.25863" lon="6.02879">
        <ele>343</ele>
        <time>2024-08-03T07:01:10Z</time>
      </trkpt>
      <trkpt lat="47.25866" lon="6.0288">
        <ele>343</ele>
        <time>2024-08-03T07:01:11Z</time>
      </trkpt>
      <trkpt lat="47.2587" lon="6.0288">
        <ele>343.2</ele>
        <time>2024-08-03T07:01:12Z</time>
      </trkpt>
      <trkpt lat="47.25873" lon="6.02881">
        <ele>343.4</ele>
        <time>2024-08-03T07:01:13Z</time>
      </trkpt>
      <trkpt lat="47.25876" lon="6.02881">
        <ele>343.6</ele>
        <time>2024-08-03T07:01:14Z</time>
      </trkpt>
      <trkpt lat="47.2588" lon="6.02881">
        <ele>343.6</ele>
        <time>2024-08-03T07:01:15Z</time>
      </trkpt>
      <trkpt lat="47.25883" lon="6.02881">
        <ele>343.8</ele>
        <time>2024-08-03T07:01:16Z</time>
      </trkpt>
      <trkpt lat="47.25886" lon="6.02881">
        <ele>344</ele>
        <time>2024-08-03T07:01:17Z</time>
      </trkpt>
      <trkpt lat="47.25889" lon="6.02881">
        <ele>344.2</ele>
        <time>2024-08-03T07:01:18Z</time>
      </trkpt>
      <trkpt lat="47.25892" lon="6.02881">
        <ele>344.2</ele>
        <time>2024-08-03T07:01:19Z</time>
      </trkpt>
      <trkpt lat="47.25895" lon="6.02881">
        <ele>344.4</ele>
        <time>2024-08-03T07:01:20Z</time>
      </trkpt>
      <trkpt lat="47.25897" lon="6.02881">
        <ele>344.6</ele>
        <time>2024-08-03T07:01:21Z</time>
      </trkpt>
      <trkpt lat="47.259" lon="6.02881">
        <ele>344.8</ele>
        <time>2024-08-03T07:01:22Z</time>
      </trkpt>
      <trkpt lat="47.25903" lon="6.0288">
        <ele>345</ele>
        <time>2024-08-03T07:01:23Z</time>
      </trkpt>
      <trkpt lat="47.25905" lon="6.0288">
        <ele>345</ele>
        <time>2024-08-03T07:01:24Z</time>
      </trkpt>
      <trkpt lat="47.25907" lon="6.0288">
        <ele>345.2</ele>
        <time>2024-08-03T07:01:25Z</time>
      </trkpt>
      <trkpt lat="47.25909" lon="6.0288">
        <ele>345.4</ele>
        <time>2024-08-03T07:01:26Z</time>
      </trkpt>
      <trkpt lat="47.25912" lon="6.0288">
        <ele>345.6</ele>
        <time>2024-08-03T07:01:27Z</time>
      </trkpt>
      <trkpt lat="47.25914" lon="6.0288">
        <ele>345.6</ele>
        <time>2024-08-03T07:01:28Z</time>
      </trkpt>
      <trkpt lat="47.25916" lon="6.0288">
        <ele>345.8</ele>
        <time>2024-08-03T07:01:29Z</time>
      </trkpt>
      <trkpt lat="47.25918" lon="6.0288">
        <ele>346</ele>
        <time>2024-08-03T07:01:30Z</time>
      </trkpt>
      <trkpt lat="47.2592" lon="6.0288">
        <ele>346.6</ele>
        <time>2024-08-03T07:01:31Z</time>
      </trkpt>
      <trkpt lat="47.25922" lon="6.0288">
        <ele>346.8</ele>
        <time>2024-08-03T07:01:32Z</time>
      </trkpt>
      <trkpt lat="47.25924" lon="6.0288">
        <ele>346.8</ele>
        <time>2024-08-03T07:01:33Z</time>
      </trkpt>
      <trkpt lat="47.25926" lon="6.02881">
        <ele>347.2</ele>
        <time>2024-08-03T07:01:34Z</time>
      </trkpt>
      <trkpt lat="47.25928" lon="6.02881">
        <ele>347.6</ele>
        <time>2024-08-03T07:01:35Z</time>
      </trkpt>
      <trkpt lat="47.25929" lon="6.02882">
        <ele>348</ele>
        <time>2024-08-03T07:01:36Z</time>
      </trkpt>
      <trkpt lat="47.25931" lon="6.02883">
        <ele>348.2</ele>
        <time>2024-08-03T07:01:37Z</time>
      </trkpt>
      <trkpt lat="47.25933" lon="6.02884">
        <ele>348.4</ele>
        <time>2024-08-03T07:01:38Z</time>
      </trkpt>
      <trkpt lat="47.25934" lon="6.02886">
        <ele>348.8</ele>
        <time>2024-08-03T07:01:39Z</time>
      </trkpt>
      <trkpt lat="47.25935" lon="6.02888">
        <ele>349.2</ele>
        <time>2024-08-03T07:01:40Z</time>
      </trkpt>
      <trkpt lat="47.25937" lon="6.02889">
        <ele>349.2</ele>
        <time>2024-08-03T07:01:41Z</time>
      </trkpt>
      <trkpt lat="47.25939" lon="6.0289">
        <ele>349.6</ele>
        <time>2024-08-03T07:01:42Z</time>
      </trkpt>
      <trkpt lat="47.25941" lon="6.02889">
        <ele>349.8</ele>
        <time>2024-08-03T07:01:43Z</time>
      </trkpt>
      <trkpt lat="47.25942" lon="6.02888">
        <ele>350</ele>
        <time>2024-08-03T07:01:44Z</time>
      </trkpt>
      <trkpt lat="47.25943" lon="6.02886">
        <ele>350</ele>
        <time>2024-08-03T07:01:45Z</time>
      </trkpt>
      <trkpt lat="47.25944" lon="6.02885">
        <ele>350.2</ele>
        <time>2024-08-03T07:01:46Z</time>
      </trkpt>
      <trkpt lat="47.25946" lon="6.02885">
        <ele>350.4</ele>
        <time>2024-08-03T07:01:47Z</time>
      </trkpt>
      <trkpt lat="47.25948" lon="6.02885">
        <ele>350.6</ele>
        <time>2024-08-03T07:01:48Z</time>
      </trkpt>
      <trkpt lat="47.25951" lon="6.02884">
        <ele>350.6</ele>
        <time>2024-08-03T07:01:49Z</time>
      </trkpt>
      <trkpt lat="47.25953" lon="6.02885">
        <ele>350.6</ele>
        <time>2024-08-03T07:01:50Z</time>
      </trkpt>
      <trkpt lat="47.25956" lon="6.02884">
        <ele>350.6</ele>
        <time>2024-08-03T07:01:51Z</time>
      </trkpt>
      <trkpt lat="47.25958" lon="6.02884">
        <ele>350.8</ele>
        <time>2024-08-03T07:01:52Z</time>
      </trkpt>
      <trkpt lat="47.2596" lon="6.02883">
        <ele>350.8</ele>
        <time>2024-08-03T07:01:53Z</time>
      </trkpt>
      <trkpt lat="47.25962" lon="6.02882">
        <ele>350.6</ele>
        <time>2024-08-03T07:01:54Z</time>
      </trkpt>
      <trkpt lat="47.25964" lon="6.0288">
        <ele>350.8</ele>
        <time>2024-08-03T07:01:55Z</time>
      </trkpt>
      <trkpt lat="47.25966" lon="6.02878">
        <ele>350.8</ele>
        <time>2024-08-03T07:01:56Z</time>
      </trkpt>
      <trkpt lat="47.25967" lon="6.02876">
        <ele>350.8</ele>
        <time>2024-08-03T07:01:57Z</time>
      </trkpt>
      <trkpt lat="47.2597" lon="6.02874">
        <ele>351</ele>
        <time>2024-08-03T07:01:58Z</time>
      </trkpt>
      <trkpt lat="47.25972" lon="6.02873">
        <ele>351</ele>
        <time>2024-08-03T07:01:59Z</time>
      </trkpt>
      <trkpt lat="47.25974" lon="6.02873">
        <ele>351</ele>
        <time>2024-08-03T07:02:00Z</time>
      </trkpt>
      <trkpt lat="47.25977" lon="6.02872">
        <ele>351.2</ele>
        <time>2024-08-03T07:02:01Z</time>
      </trkpt>
      <trkpt lat="47.25979" lon="6.02871">
        <ele>351.4</ele>
        <time>2024-08-03T07:02:02Z</time>
      </trkpt>
      <trkpt lat="47.25981" lon="6.0287">
        <ele>351.6</ele>
        <time>2024-08-03T07:02:03Z</time>
      </trkpt>
      <trkpt lat="47.25982" lon="6.0287">
        <ele>351.6</ele>
        <time>2024-08-03T07:02:04Z</time>
      </trkpt>
      <trkpt lat="47.25982" lon="6.0287">
        <ele>352</ele>
        <time>2024-08-03T07:02:05Z</time>
      </trkpt>
      <trkpt lat="47.25983" lon="6.0287">
        <ele>352.2</ele>
        <time>2024-08-03T07:02:06Z</time>
      </trkpt>
      <trkpt lat="47.25983" lon="6.0287">
        <ele>352</ele>
        <time>2024-08-03T07:02:07Z</time>
      </trkpt>
      <trkpt lat="47.25983" lon="6.02871">
        <ele>352.2</ele>
        <time>2024-08-03T07:02:08Z</time>
      </trkpt>
      <trkpt lat="47.25983" lon="6.02871">
        <ele>352.2</ele>
        <time>2024-08-03T07:02:09Z</time>
      </trkpt>
      <trkpt lat="47.25983" lon="6.02872">
        <ele>352.4</ele>
        <time>2024-08-03T07:02:10Z</time>
      </trkpt>
      <trkpt lat="47.25983" lon="6.02872">
        <ele>352.4</ele>
        <time>2024-08-03T07:02:11Z</time>
      </trkpt>
      <trkpt lat="47.25983" lon="6.02873">
        <ele>352.4</ele>
        <time>2024-08-03T07:02:12Z</time>
      </trkpt>
      <trkpt lat="47.25984" lon="6.02872">
        <ele>352.4</ele>
        <time>2024-08-03T07:02:13Z</time>
      </trkpt>
      <trkpt lat="47.25984" lon="6.02872">
        <ele>352.6</ele>
        <time>2024-08-03T07:02:14Z</time>
      </trkpt>
      <trkpt lat="47.25984" lon="6.02872">
        <ele>352.4</ele>
        <time>2024-08-03T07:02:15Z</time>
      </trkpt>
      <trkpt lat="47.25984" lon="6.02873">
        <ele>352.4</ele>
        <time>2024-08-03T07:02:16Z</time>
      </trkpt>
      <trkpt lat="47.25984" lon="6.02873">
        <ele>352.4</ele>
        <time>2024-08-03T07:02:17Z</time>
      </trkpt>
      <trkpt lat="47.25984" lon="6.02873">
        <ele>352.4</ele>
        <time>2024-08-03T07:02:18Z</time>
      </trkpt>
      <trkpt lat="47.25984" lon="6.02873">
        <ele>352.4</ele>
        <time>2024-08-03T07:02:19Z</time>
      </trkpt>
      <trkpt lat="47.25984" lon="6.02873">
        <ele>352.6</ele>
        <time>2024-08-03T07:02:20Z</time>
      </trkpt>
      <trkpt lat="47.25983" lon="6.02872">
        <ele>352.6</ele>
        <time>2024-08-03T07:02:21Z</time>
      </trkpt>
      <trkpt lat="47.25983" lon="6.02872">
        <ele>352.6</ele>
        <time>2024-08-03T07:02:22Z</time>
      </trkpt>
      <trkpt lat="47.25983" lon="6.02872">
        <ele>352.6</ele>
        <time>2024-08-03T07:02:23Z</time>
      </trkpt>
      <trkpt lat="47.25983" lon="6.02871">
        <ele>352.4</ele>
        <time>2024-08-03T07:02:24Z</time>
      </trkpt>
      <trkpt lat="47.25983" lon="6.02871">
        <ele>352.4</ele>
        <time>2024-08-03T07:02:25Z</time>
      </trkpt>
      <trkpt lat="47.25983" lon="6.02871">
        <ele>352.4</ele>
        <time>2024-08-03T07:02:26Z</time>
      </trkpt>
      <trkpt lat="47.25983" lon="6.02871">
        <ele>352.4</ele>
        <time>2024-08-03T07:02:27Z</time>
      </trkpt>
      <trkpt lat="47.25983" lon="6.02871">
        <ele>352.4</ele>
        <time>2024-08-03T07:02:28Z</time>
      </trkpt>
      <trkpt lat="47.25983" lon="6.02871">
        <ele>352.4</ele>
        <time>2024-08-03T07:02:29Z</time>
      </trkpt>
      <trkpt lat="47.25983" lon="6.0287">
        <ele>352.4</ele>
        <time>2024-08-03T07:02:30Z</time>
      </trkpt>
      <trkpt lat="47.25983" lon="6.0287">
        <ele>352.6</ele>
        <time>2024-08-03T07:02:31Z</time>
      </trkpt>
      <trkpt lat="47.25983" lon="6.02869">
        <ele>352.4</ele>
        <time>2024-08-03T07:02:32Z</time>
      </trkpt>
      <trkpt lat="47.25982" lon="6.02869">
        <ele>352.6</ele>
        <time>2024-08-03T07:02:33Z</time>
      </trkpt>
      <trkpt lat="47.25982" lon="6.02869">
        <ele>352.6</ele>
        <time>2024-08-03T07:02:34Z</time>
      </trkpt>
      <trkpt lat="47.25982" lon="6.02868">
        <ele>352.4</ele>
        <time>2024-08-03T07:02:35Z</time>
      </trkpt>
      <trkpt lat="47.25982" lon="6.02868">
        <ele>352.6</ele>
        <time>2024-08-03T07:02:36Z</time>
      </trkpt>
      <trkpt lat="47.25982" lon="6.02868">
        <ele>352.6</ele>
        <time>2024-08-03T07:02:37Z</time>
      </trkpt>
      <trkpt lat="47.25982" lon="6.02868">
        <ele>352.4</ele>
        <time>2024-08-03T07:02:38Z</time>
      </trkpt>
      <trkpt lat="47.25982" lon="6.02868">
        <ele>352.6</ele>
        <time>2024-08-03T07:02:39Z</time>
      </trkpt>
      <trkpt lat="47.25982" lon="6.02868">
        <ele>352.6</ele>
        <time>2024-08-03T07:02:40Z</time>
      </trkpt>
      <trkpt lat="47.25982" lon="6.02868">
        <ele>352.6</ele>
        <time>2024-08-03T07:02:41Z</time>
      </trkpt>
      <trkpt lat="47.25982" lon="6.02868">
        <ele>352.6</ele>
        <time>2024-08-03T07:02:42Z</time>
      </trkpt>
      <trkpt lat="47.25982" lon="6.02868">
        <ele>352.6</ele>
        <time>2024-08-03T07:02:43Z</time>
      </trkpt>
      <trkpt lat="47.25982" lon="6.02868">
        <ele>352.4</ele>
        <time>2024-08-03T07:02:44Z</time>
      </trkpt>
      <trkpt lat="47.25982" lon="6.02868">
        <ele>352.6</ele>
        <time>2024-08-03T07:02:45Z</time>
      </trkpt>
      <trkpt lat="47.25983" lon="6.02868">
        <ele>352.6</ele>
        <time>2024-08-03T07:02:46Z</time>
      </trkpt>
      <trkpt lat="47.25983" lon="6.02868">
        <ele>352.6</ele>
        <time>2024-08-03T07:02:47Z</time>
      </trkpt>
      <trkpt lat="47.25983" lon="6.02868">
        <ele>352.6</ele>
        <time>2024-08-03T07:02:48Z</time>
      </trkpt>
      <trkpt lat="47.25983" lon="6.02868">
        <ele>352.4</ele>
        <time>2024-08-03T07:02:49Z</time>
      </trkpt>
      <trkpt lat="47.25983" lon="6.02868">
        <ele>352.6</ele>
        <time>2024-08-03T07:02:50Z</time>
      </trkpt>
      <trkpt lat="47.25984" lon="6.02868">
        <ele>352.6</ele>
        <time>2024-08-03T07:02:51Z</time>
      </trkpt>
      <trkpt lat="47.25984" lon="6.02868">
        <ele>352.6</ele>
        <time>2024-08-03T07:02:52Z</time>
      </trkpt>
      <trkpt lat="47.25984" lon="6.02868">
        <ele>352.4</ele>
        <time>2024-08-03T07:02:53Z</time>
      </trkpt>
      <trkpt lat="47.25984" lon="6.02868">
        <ele>352.6</ele>
        <time>2024-08-03T07:02:54Z</time>
      </trkpt>
      <trkpt lat="47.25984" lon="6.02868">
        <ele>352.4</ele>
        <time>2024-08-03T07:02:55Z</time>
      </trkpt>
      <trkpt lat="47.25984" lon="6.02868">
        <ele>352.4</ele>
        <time>2024-08-03T07:02:56Z</time>
      </trkpt>
      <trkpt lat="47.25984" lon="6.02868">
        <ele>352.6</ele>
        <time>2024-08-03T07:02:57Z</time>
      </trkpt>
      <trkpt lat="47.25984" lon="6.02868">
        <ele>352.6</ele>
        <time>2024-08-03T07:02:58Z</time>
      </trkpt>
      <trkpt lat="47.25984" lon="6.02868">
        <ele>352.6</ele>
        <time>2024-08-03T07:02:59Z</time>
      </trkpt>
      <trkpt lat="47.25984" lon="6.02868">
        <ele>352.4</ele>
        <time>2024-08-03T07:03:00Z</time>
      </trkpt>
      <trkpt lat="47.25984" lon="6.02868">
        <ele>352.6</ele>
        <time>2024-08-03T07:03:01Z</time>
      </trkpt>
      <trkpt lat="47.25984" lon="6.02868">
        <ele>352.6</ele>
        <time>2024-08-03T07:03:02Z</time>
      </trkpt>
      <trkpt lat="47.25984" lon="6.02868">
        <ele>352.6</ele>
        <time>2024-08-03T07:03:03Z</time>
      </trkpt>
      <trkpt lat="47.25984" lon="6.02868">
        <ele>352.6</ele>
        <time>2024-08-03T07:03:04Z</time>
      </trkpt>
      <trkpt lat="47.25984" lon="6.02868">
        <ele>352.6</ele>
        <time>2024-08-03T07:03:05Z</time>
      </trkpt>
      <trkpt lat="47.25984" lon="6.02868">
        <ele>352.6</ele>
        <time>2024-08-03T07:03:06Z</time>
      </trkpt>
      <trkpt lat="47.25984" lon="6.02868">
        <ele>352.6</ele>
        <time>2024-08-03T07:03:07Z</time>
      </trkpt>
      <trkpt lat="47.25985" lon="6.02868">
        <ele>352.6</ele>
        <time>2024-08-03T07:03:08Z</time>
      </trkpt>
      <trkpt lat="47.25985" lon="6.02868">
        <ele>352.6</ele>
        <time>2024-08-03T07:03:09Z</time>
      </trkpt>
      <trkpt lat="47.25986" lon="6.02867">
        <ele>352.6</ele>
        <time>2024-08-03T07:03:10Z</time>
      </trkpt>
      <trkpt lat="47.25987" lon="6.02866">
        <ele>352.6</ele>
        <time>2024-08-03T07:03:11Z</time>
      </trkpt>
      <trkpt lat="47.25987" lon="6.02864">
        <ele>352.6</ele>
        <time>2024-08-03T07:03:12Z</time>
      </trkpt>
      <trkpt lat="47.25988" lon="6.02862">
        <ele>352.6</ele>
        <time>2024-08-03T07:03:13Z</time>
      </trkpt>
      <trkpt lat="47.25988" lon="6.02859">
        <ele>352.6</ele>
        <time>2024-08-03T07:03:14Z</time>
      </trkpt>
      <trkpt lat="47.25988" lon="6.02855">
        <ele>352.6</ele>
        <time>2024-08-03T07:03:15Z</time>
      </trkpt>
      <trkpt lat="47.25989" lon="6.02852">
        <ele>352.6</ele>
        <time>2024-08-03T07:03:16Z</time>
      </trkpt>
      <trkpt lat="47.25989" lon="6.02847">
        <ele>352.6</ele>
        <time>2024-08-03T07:03:17Z</time>
      </trkpt>
      <trkpt lat="47.25989" lon="6.02843">
        <ele>352.6</ele>
        <time>2024-08-03T07:03:18Z</time>
      </trkpt>
      <trkpt lat="47.25989" lon="6.02838">
        <ele>352.8</ele>
        <time>2024-08-03T07:03:19Z</time>
      </trkpt>
      <trkpt lat="47.2599" lon="6.02833">
        <ele>352.8</ele>
        <time>2024-08-03T07:03:20Z</time>
      </trkpt>
      <trkpt lat="47.25991" lon="6.02828">
        <ele>352.8</ele>
        <time>2024-08-03T07:03:21Z</time>
      </trkpt>
      <trkpt lat="47.25992" lon="6.02824">
        <ele>352.8</ele>
        <time>2024-08-03T07:03:22Z</time>
      </trkpt>
      <trkpt lat="47.25994" lon="6.02819">
        <ele>353</ele>
        <time>2024-08-03T07:03:23Z</time>
      </trkpt>
      <trkpt lat="47.25995" lon="6.02814">
        <ele>352.8</ele>
        <time>2024-08-03T07:03:24Z</time>
      </trkpt>
      <trkpt lat="47.25997" lon="6.0281">
        <ele>352.8</ele>
        <time>2024-08-03T07:03:25Z</time>
      </trkpt>
      <trkpt lat="47.26" lon="6.02806">
        <ele>352.8</ele>
        <time>2024-08-03T07:03:26Z</time>
      </trkpt>
      <trkpt lat="47.26002" lon="6.02803">
        <ele>352.8</ele>
        <time>2024-08-03T07:03:27Z</time>
      </trkpt>
      <trkpt lat="47.26004" lon="6.02799">
        <ele>353</ele>
        <time>2024-08-03T07:03:28Z</time>
      </trkpt>
      <trkpt lat="47.26007" lon="6.02796">
        <ele>353</ele>
        <time>2024-08-03T07:03:29Z</time>
      </trkpt>
      <trkpt lat="47.2601" lon="6.02792">
        <ele>353</ele>
        <time>2024-08-03T07:03:30Z</time>
      </trkpt>
      <trkpt lat="47.26012" lon="6.02789">
        <ele>353.2</ele>
        <time>2024-08-03T07:03:31Z</time>
      </trkpt>
      <trkpt lat="47.26015" lon="6.02786">
        <ele>353.2</ele>
        <time>2024-08-03T07:03:32Z</time>
      </trkpt>
      <trkpt lat="47.26019" lon="6.02783">
        <ele>353.2</ele>
        <time>2024-08-03T07:03:33Z</time>
      </trkpt>
      <trkpt lat="47.26022" lon="6.0278">
        <ele>353.2</ele>
        <time>2024-08-03T07:03:34Z</time>
      </trkpt>
      <trkpt lat="47.26025" lon="6.02778">
        <ele>353.4</ele>
        <time>2024-08-03T07:03:35Z</time>
      </trkpt>
      <trkpt lat="47.26029" lon="6.02775">
        <ele>353.4</ele>
        <time>2024-08-03T07:03:36Z</time>
      </trkpt>
      <trkpt lat="47.26032" lon="6.02773">
        <ele>353.4</ele>
        <time>2024-08-03T07:03:37Z</time>
      </trkpt>
      <trkpt lat="47.26035" lon="6.0277">
        <ele>353.4</ele>
        <time>2024-08-03T07:03:38Z</time>
      </trkpt>
      <trkpt lat="47.26037" lon="6.02768">
        <ele>353.4</ele>
        <time>2024-08-03T07:03:39Z</time>
      </trkpt>
      <trkpt lat="47.2604" lon="6.02765">
        <ele>353.6</ele>
        <time>2024-08-03T07:03:40Z</time>
      </trkpt>
      <trkpt lat="47.26044" lon="6.02763">
        <ele>353.6</ele>
        <time>2024-08-03T07:03:41Z</time>
      </trkpt>
      <trkpt lat="47.26047" lon="6.02761">
        <ele>353.6</ele>
        <time>2024-08-03T07:03:42Z</time>
      </trkpt>
      <trkpt lat="47.2605" lon="6.02759">
        <ele>353.8</ele>
        <time>2024-08-03T07:03:43Z</time>
      </trkpt>
      <trkpt lat="47.26053" lon="6.02757">
        <ele>354</ele>
        <time>2024-08-03T07:03:44Z</time>
      </trkpt>
      <trkpt lat="47.26057" lon="6.02755">
        <ele>354</ele>
        <time>2024-08-03T07:03:45Z</time>
      </trkpt>
      <trkpt lat="47.2606" lon="6.02751">
        <ele>354.2</ele>
        <time>2024-08-03T07:03:46Z</time>
      </trkpt>
      <trkpt lat="47.26062" lon="6.02747">
        <ele>354.4</ele>
        <time>2024-08-03T07:03:47Z</time>
      </trkpt>
      <trkpt lat="47.26063" lon="6.02742">
        <ele>354.6</ele>
        <time>2024-08-03T07:03:48Z</time>
      </trkpt>
      <trkpt lat="47.26064" lon="6.02736">
        <ele>354.6</ele>
        <time>2024-08-03T07:03:49Z</time>
      </trkpt>
      <trkpt lat="47.26063" lon="6.02729">
        <ele>354.8</ele>
        <time>2024-08-03T07:03:50Z</time>
      </trkpt>
      <trkpt lat="47.26061" lon="6.02723">
        <ele>355</ele>
        <time>2024-08-03T07:03:51Z</time>
      </trkpt>
      <trkpt lat="47.26058" lon="6.02717">
        <ele>355</ele>
        <time>2024-08-03T07:03:52Z</time>
      </trkpt>
      <trkpt lat="47.26054" lon="6.02711">
        <ele>355</ele>
        <time>2024-08-03T07:03:53Z</time>
      </trkpt>
      <trkpt lat="47.26051" lon="6.02703">
        <ele>354.8</ele>
        <time>2024-08-03T07:03:54Z</time>
      </trkpt>
      <trkpt lat="47.26047" lon="6.02696">
        <ele>355</ele>
        <time>2024-08-03T07:03:55Z</time>
      </trkpt>
      <trkpt lat="47.26043" lon="6.02688">
        <ele>355</ele>
        <time>2024-08-03T07:03:56Z</time>
      </trkpt>
      <trkpt lat="47.26039" lon="6.02679">
        <ele>355</ele>
        <time>2024-08-03T07:03:57Z</time>
      </trkpt>
      <trkpt lat="47.26035" lon="6.02671">
        <ele>355</ele>
        <time>2024-08-03T07:03:58Z</time>
      </trkpt>
      <trkpt lat="47.26032" lon="6.02663">
        <ele>355</ele>
        <time>2024-08-03T07:03:59Z</time>
      </trkpt>
      <trkpt lat="47.26028" lon="6.02654">
        <ele>354.8</ele>
        <time>2024-08-03T07:04:00Z</time>
      </trkpt>
      <trkpt lat="47.26024" lon="6.02646">
        <ele>354.6</ele>
        <time>2024-08-03T07:04:01Z</time>
      </trkpt>
      <trkpt lat="47.26021" lon="6.02638">
        <ele>354.6</ele>
        <time>2024-08-03T07:04:02Z</time>
      </trkpt>
      <trkpt lat="47.26019" lon="6.0263">
        <ele>354.2</ele>
        <time>2024-08-03T07:04:03Z</time>
      </trkpt>
      <trkpt lat="47.26016" lon="6.02622">
        <ele>353.8</ele>
        <time>2024-08-03T07:04:04Z</time>
      </trkpt>
      <trkpt lat="47.26013" lon="6.02614">
        <ele>353.8</ele>
        <time>2024-08-03T07:04:05Z</time>
      </trkpt>
      <trkpt lat="47.2601" lon="6.02606">
        <ele>353.6</ele>
        <time>2024-08-03T07:04:06Z</time>
      </trkpt>
      <trkpt lat="47.26007" lon="6.02599">
        <ele>353.6</ele>
        <time>2024-08-03T07:04:07Z</time>
      </trkpt>
      <trkpt lat="47.26005" lon="6.02591">
        <ele>353.4</ele>
        <time>2024-08-03T07:04:08Z</time>
      </trkpt>
      <trkpt lat="47.26003" lon="6.02583">
        <ele>353.4</ele>
        <time>2024-08-03T07:04:09Z</time>
      </trkpt>
      <trkpt lat="47.26001" lon="6.02575">
        <ele>353.2</ele>
        <time>2024-08-03T07:04:10Z</time>
      </trkpt>
      <trkpt lat="47.25999" lon="6.02568">
        <ele>353.2</ele>
        <time>2024-08-03T07:04:11Z</time>
      </trkpt>
      <trkpt lat="47.25997" lon="6.0256">
        <ele>353</ele>
        <time>2024-08-03T07:04:12Z</time>
      </trkpt>
      <trkpt lat="47.25996" lon="6.02552">
        <ele>353</ele>
        <time>2024-08-03T07:04:13Z</time>
      </trkpt>
      <trkpt lat="47.25993" lon="6.02544">
        <ele>353</ele>
        <time>2024-08-03T07:04:14Z</time>
      </trkpt>
      <trkpt lat="47.25992" lon="6.02536">
        <ele>352.8</ele>
        <time>2024-08-03T07:04:15Z</time>
      </trkpt>
      <trkpt lat="47.2599" lon="6.02529">
        <ele>352.8</ele>
        <time>2024-08-03T07:04:16Z</time>
      </trkpt>
      <trkpt lat="47.25988" lon="6.02521">
        <ele>352.8</ele>
        <time>2024-08-03T07:04:17Z</time>
      </trkpt>
      <trkpt lat="47.25987" lon="6.02513">
        <ele>352.6</ele>
        <time>2024-08-03T07:04:18Z</time>
      </trkpt>
      <trkpt lat="47.25986" lon="6.02506">
        <ele>352.6</ele>
        <time>2024-08-03T07:04:19Z</time>
      </trkpt>
      <trkpt lat="47.25985" lon="6.02498">
        <ele>352.6</ele>
        <time>2024-08-03T07:04:20Z</time>
      </trkpt>
      <trkpt lat="47.25984" lon="6.02491">
        <ele>352.6</ele>
        <time>2024-08-03T07:04:21Z</time>
      </trkpt>
      <trkpt lat="47.25982" lon="6.02484">
        <ele>352.6</ele>
        <time>2024-08-03T07:04:22Z</time>
      </trkpt>
      <trkpt lat="47.25981" lon="6.02477">
        <ele>352.6</ele>
        <time>2024-08-03T07:04:23Z</time>
      </trkpt>
      <trkpt lat="47.25979" lon="6.02469">
        <ele>352.6</ele>
        <time>2024-08-03T07:04:24Z</time>
      </trkpt>
      <trkpt lat="47.25978" lon="6.02462">
        <ele>352.6</ele>
        <time>2024-08-03T07:04:25Z</time>
      </trkpt>
      <trkpt lat="47.25976" lon="6.02455">
        <ele>352.6</ele>
        <time>2024-08-03T07:04:26Z</time>
      </trkpt>
      <trkpt lat="47.25975" lon="6.02447">
        <ele>352.8</ele>
        <time>2024-08-03T07:04:27Z</time>
      </trkpt>
      <trkpt lat="47.25974" lon="6.02439">
        <ele>352.6</ele>
        <time>2024-08-03T07:04:28Z</time>
      </trkpt>
      <trkpt lat="47.25972" lon="6.02431">
        <ele>353</ele>
        <time>2024-08-03T07:04:29Z</time>
      </trkpt>
      <trkpt lat="47.2597" lon="6.02424">
        <ele>353</ele>
        <time>2024-08-03T07:04:30Z</time>
      </trkpt>
      <trkpt lat="47.25968" lon="6.02416">
        <ele>353</ele>
        <time>2024-08-03T07:04:31Z</time>
      </trkpt>
      <trkpt lat="47.25965" lon="6.02408">
        <ele>352.8</ele>
        <time>2024-08-03T07:04:32Z</time>
      </trkpt>
      <trkpt lat="47.25962" lon="6.024">
        <ele>353</ele>
        <time>2024-08-03T07:04:33Z</time>
      </trkpt>
      <trkpt lat="47.25959" lon="6.02393">
        <ele>353</ele>
        <time>2024-08-03T07:04:34Z</time>
      </trkpt>
      <trkpt lat="47.25955" lon="6.02385">
        <ele>353</ele>
        <time>2024-08-03T07:04:35Z</time>
      </trkpt>
      <trkpt lat="47.25951" lon="6.02378">
        <ele>353</ele>
        <time>2024-08-03T07:04:36Z</time>
      </trkpt>
      <trkpt lat="47.25947" lon="6.02372">
        <ele>353</ele>
        <time>2024-08-03T07:04:37Z</time>
      </trkpt>
      <trkpt lat="47.25943" lon="6.02365">
        <ele>353</ele>
        <time>2024-08-03T07:04:38Z</time>
      </trkpt>
      <trkpt lat="47.25939" lon="6.02359">
        <ele>353</ele>
        <time>2024-08-03T07:04:39Z</time>
      </trkpt>
      <trkpt lat="47.25933" lon="6.02354">
        <ele>353</ele>
        <time>2024-08-03T07:04:40Z</time>
      </trkpt>
      <trkpt lat="47.25929" lon="6.02348">
        <ele>353</ele>
        <time>2024-08-03T07:04:41Z</time>
      </trkpt>
      <trkpt lat="47.25923" lon="6.02343">
        <ele>352.8</ele>
        <time>2024-08-03T07:04:42Z</time>
      </trkpt>
      <trkpt lat="47.25917" lon="6.02338">
        <ele>352.6</ele>
        <time>2024-08-03T07:04:43Z</time>
      </trkpt>
      <trkpt lat="47.25912" lon="6.02333">
        <ele>352.4</ele>
        <time>2024-08-03T07:04:44Z</time>
      </trkpt>
      <trkpt lat="47.25906" lon="6.02329">
        <ele>352.4</ele>
        <time>2024-08-03T07:04:45Z</time>
      </trkpt>
      <trkpt lat="47.25899" lon="6.02324">
        <ele>352.4</ele>
        <time>2024-08-03T07:04:46Z</time>
      </trkpt>
      <trkpt lat="47.25893" lon="6.0232">
        <ele>352.4</ele>
        <time>2024-08-03T07:04:47Z</time>
      </trkpt>
      <trkpt lat="47.25887" lon="6.02315">
        <ele>352.2</ele>
        <time>2024-08-03T07:04:48Z</time>
      </trkpt>
      <trkpt lat="47.2588" lon="6.02311">
        <ele>352</ele>
        <time>2024-08-03T07:04:49Z</time>
      </trkpt>
      <trkpt lat="47.25874" lon="6.02305">
        <ele>351.8</ele>
        <time>2024-08-03T07:04:50Z</time>
      </trkpt>
      <trkpt lat="47.25868" lon="6.02299">
        <ele>351.4</ele>
        <time>2024-08-03T07:04:51Z</time>
      </trkpt>
      <trkpt lat="47.25863" lon="6.02292">
        <ele>351.2</ele>
        <time>2024-08-03T07:04:52Z</time>
      </trkpt>
      <trkpt lat="47.25858" lon="6.02284">
        <ele>351</ele>
        <time>2024-08-03T07:04:53Z</time>
      </trkpt>
      <trkpt lat="47.25855" lon="6.02275">
        <ele>350.8</ele>
        <time>2024-08-03T07:04:54Z</time>
      </trkpt>
      <trkpt lat="47.25853" lon="6.02266">
        <ele>350.6</ele>
        <time>2024-08-03T07:04:55Z</time>
      </trkpt>
      <trkpt lat="47.25851" lon="6.02256">
        <ele>350.2</ele>
        <time>2024-08-03T07:04:56Z</time>
      </trkpt>
      <trkpt lat="47.2585" lon="6.02246">
        <ele>349.8</ele>
        <time>2024-08-03T07:04:57Z</time>
      </trkpt>
      <trkpt lat="47.25849" lon="6.02236">
        <ele>349.6</ele>
        <time>2024-08-03T07:04:58Z</time>
      </trkpt>
      <trkpt lat="47.25849" lon="6.02227">
        <ele>349.4</ele>
        <time>2024-08-03T07:04:59Z</time>
      </trkpt>
      <trkpt lat="47.25849" lon="6.02218">
        <ele>349</ele>
        <time>2024-08-03T07:05:00Z</time>
      </trkpt>
      <trkpt lat="47.25848" lon="6.02209">
        <ele>349</ele>
        <time>2024-08-03T07:05:01Z</time>
      </trkpt>
      <trkpt lat="47.25848" lon="6.022">
        <ele>348.6</ele>
        <time>2024-08-03T07:05:02Z</time>
      </trkpt>
      <trkpt lat="47.25848" lon="6.02192">
        <ele>348.4</ele>
        <time>2024-08-03T07:05:03Z</time>
      </trkpt>
      <trkpt lat="47.25848" lon="6.02183">
        <ele>348.4</ele>
        <time>2024-08-03T07:05:04Z</time>
      </trkpt>
      <trkpt lat="47.25848" lon="6.02175">
        <ele>348.2</ele>
        <time>2024-08-03T07:05:05Z</time>
      </trkpt>
      <trkpt lat="47.25847" lon="6.02167">
        <ele>348.4</ele>
        <time>2024-08-03T07:05:06Z</time>
      </trkpt>
      <trkpt lat="47.25846" lon="6.0216">
        <ele>348.4</ele>
        <time>2024-08-03T07:05:07Z</time>
      </trkpt>
      <trkpt lat="47.25845" lon="6.02153">
        <ele>348.4</ele>
        <time>2024-08-03T07:05:08Z</time>
      </trkpt>
      <trkpt lat="47.25844" lon="6.02146">
        <ele>348.2</ele>
        <time>2024-08-03T07:05:09Z</time>
      </trkpt>
      <trkpt lat="47.25843" lon="6.02139">
        <ele>348.4</ele>
        <time>2024-08-03T07:05:10Z</time>
      </trkpt>
      <trkpt lat="47.25842" lon="6.02132">
        <ele>348.2</ele>
        <time>2024-08-03T07:05:11Z</time>
      </trkpt>
      <trkpt lat="47.25841" lon="6.02126">
        <ele>348.2</ele>
        <time>2024-08-03T07:05:12Z</time>
      </trkpt>
      <trkpt lat="47.2584" lon="6.0212">
        <ele>348.2</ele>
        <time>2024-08-03T07:05:13Z</time>
      </trkpt>
      <trkpt lat="47.25839" lon="6.02114">
        <ele>348.4</ele>
        <time>2024-08-03T07:05:14Z</time>
      </trkpt>
      <trkpt lat="47.25839" lon="6.02108">
        <ele>348.8</ele>
        <time>2024-08-03T07:05:15Z</time>
      </trkpt>
      <trkpt lat="47.25838" lon="6.02102">
        <ele>348.8</ele>
        <time>2024-08-03T07:05:16Z</time>
      </trkpt>
      <trkpt lat="47.25837" lon="6.02097">
        <ele>348.8</ele>
        <time>2024-08-03T07:05:17Z</time>
      </trkpt>
      <trkpt lat="47.25837" lon="6.02092">
        <ele>349</ele>
        <time>2024-08-03T07:05:18Z</time>
      </trkpt>
      <trkpt lat="47.25839" lon="6.02087">
        <ele>349</ele>
        <time>2024-08-03T07:05:19Z</time>
      </trkpt>
      <trkpt lat="47.25841" lon="6.02082">
        <ele>349.2</ele>
        <time>2024-08-03T07:05:20Z</time>
      </trkpt>
      <trkpt lat="47.25844" lon="6.02079">
        <ele>349.4</ele>
        <time>2024-08-03T07:05:21Z</time>
      </trkpt>
      <trkpt lat="47.25848" lon="6.02076">
        <ele>349.8</ele>
        <time>2024-08-03T07:05:22Z</time>
      </trkpt>
      <trkpt lat="47.25853" lon="6.02073">
        <ele>349.8</ele>
        <time>2024-08-03T07:05:23Z</time>
      </trkpt>
      <trkpt lat="47.25858" lon="6.02071">
        <ele>350.2</ele>
        <time>2024-08-03T07:05:24Z</time>
      </trkpt>
      <trkpt lat="47.25862" lon="6.02068">
        <ele>350.6</ele>
        <time>2024-08-03T07:05:25Z</time>
      </trkpt>
      <trkpt lat="47.25866" lon="6.02065">
        <ele>350.6</ele>
        <time>2024-08-03T07:05:26Z</time>
      </trkpt>
      <trkpt lat="47.2587" lon="6.02063">
        <ele>350.6</ele>
        <time>2024-08-03T07:05:27Z</time>
      </trkpt>
      <trkpt lat="47.25874" lon="6.0206">
        <ele>350.6</ele>
        <time>2024-08-03T07:05:28Z</time>
      </trkpt>
      <trkpt lat="47.25877" lon="6.02059">
        <ele>350.6</ele>
        <time>2024-08-03T07:05:29Z</time>
      </trkpt>
      <trkpt lat="47.25879" lon="6.02058">
        <ele>350.6</ele>
        <time>2024-08-03T07:05:30Z</time>
      </trkpt>
      <trkpt lat="47.25881" lon="6.02056">
        <ele>350.6</ele>
        <time>2024-08-03T07:05:31Z</time>
      </trkpt>
      <trkpt lat="47.25882" lon="6.02053">
        <ele>350.6</ele>
        <time>2024-08-03T07:05:32Z</time>
      </trkpt>
      <trkpt lat="47.25883" lon="6.02049">
        <ele>350.6</ele>
        <time>2024-08-03T07:05:33Z</time>
      </trkpt>
      <trkpt lat="47.25884" lon="6.02044">
        <ele>350.6</ele>
        <time>2024-08-03T07:05:34Z</time>
      </trkpt>
      <trkpt lat="47.25884" lon="6.02038">
        <ele>350.6</ele>
        <time>2024-08-03T07:05:35Z</time>
      </trkpt>
      <trkpt lat="47.25883" lon="6.02032">
        <ele>350.6</ele>
        <time>2024-08-03T07:05:36Z</time>
      </trkpt>
      <trkpt lat="47.25882" lon="6.02026">
        <ele>350.4</ele>
        <time>2024-08-03T07:05:37Z</time>
      </trkpt>
      <trkpt lat="47.25882" lon="6.02019">
        <ele>350.2</ele>
        <time>2024-08-03T07:05:38Z</time>
      </trkpt>
      <trkpt lat="47.25881" lon="6.02012">
        <ele>350.2</ele>
        <time>2024-08-03T07:05:39Z</time>
      </trkpt>
      <trkpt lat="47.25881" lon="6.02005">
        <ele>350.2</ele>
        <time>2024-08-03T07:05:40Z</time>
      </trkpt>
      <trkpt lat="47.25881" lon="6.01998">
        <ele>350.2</ele>
        <time>2024-08-03T07:05:41Z</time>
      </trkpt>
      <trkpt lat="47.25881" lon="6.01991">
        <ele>350.2</ele>
        <time>2024-08-03T07:05:42Z</time>
      </trkpt>
      <trkpt lat="47.25882" lon="6.01983">
        <ele>350.2</ele>
        <time>2024-08-03T07:05:43Z</time>
      </trkpt>
      <trkpt lat="47.25883" lon="6.01976">
        <ele>350.2</ele>
        <time>2024-08-03T07:05:44Z</time>
      </trkpt>
      <trkpt lat="47.25884" lon="6.01969">
        <ele>350.2</ele>
        <time>2024-08-03T07:05:45Z</time>
      </trkpt>
      <trkpt lat="47.25884" lon="6.01963">
        <ele>350.4</ele>
        <time>2024-08-03T07:05:46Z</time>
      </trkpt>
      <trkpt lat="47.25886" lon="6.01956">
        <ele>350.2</ele>
        <time>2024-08-03T07:05:47Z</time>
      </trkpt>
      <trkpt lat="47.25887" lon="6.0195">
        <ele>350.2</ele>
        <time>2024-08-03T07:05:48Z</time>
      </trkpt>
      <trkpt lat="47.25889" lon="6.01944">
        <ele>350.2</ele>
        <time>2024-08-03T07:05:49Z</time>
      </trkpt>
      <trkpt lat="47.2589" lon="6.01938">
        <ele>350.2</ele>
        <time>2024-08-03T07:05:50Z</time>
      </trkpt>
      <trkpt lat="47.2589" lon="6.01933">
        <ele>350.4</ele>
        <time>2024-08-03T07:05:51Z</time>
      </trkpt>
      <trkpt lat="47.2589" lon="6.01928">
        <ele>350.4</ele>
        <time>2024-08-03T07:05:52Z</time>
      </trkpt>
      <trkpt lat="47.25891" lon="6.01922">
        <ele>350.2</ele>
        <time>2024-08-03T07:05:53Z</time>
      </trkpt>
      <trkpt lat="47.25891" lon="6.01917">
        <ele>350.6</ele>
        <time>2024-08-03T07:05:54Z</time>
      </trkpt>
      <trkpt lat="47.25892" lon="6.01911">
        <ele>350.8</ele>
        <time>2024-08-03T07:05:55Z</time>
      </trkpt>
      <trkpt lat="47.25892" lon="6.01906">
        <ele>351</ele>
        <time>2024-08-03T07:05:56Z</time>
      </trkpt>
      <trkpt lat="47.25893" lon="6.019">
        <ele>351.2</ele>
        <time>2024-08-03T07:05:57Z</time>
      </trkpt>
      <trkpt lat="47.25893" lon="6.01894">
        <ele>351.4</ele>
        <time>2024-08-03T07:05:58Z</time>
      </trkpt>
      <trkpt lat="47.25894" lon="6.01888">
        <ele>351.4</ele>
        <time>2024-08-03T07:05:59Z</time>
      </trkpt>
      <trkpt lat="47.25894" lon="6.01883">
        <ele>351.6</ele>
        <time>2024-08-03T07:06:00Z</time>
      </trkpt>
      <trkpt lat="47.25894" lon="6.01877">
        <ele>352</ele>
        <time>2024-08-03T07:06:01Z</time>
      </trkpt>
      <trkpt lat="47.25895" lon="6.01872">
        <ele>352.4</ele>
        <time>2024-08-03T07:06:02Z</time>
      </trkpt>
      <trkpt lat="47.25894" lon="6.01866">
        <ele>352.8</ele>
        <time>2024-08-03T07:06:03Z</time>
      </trkpt>
      <trkpt lat="47.25894" lon="6.01862">
        <ele>353</ele>
        <time>2024-08-03T07:06:04Z</time>
      </trkpt>
      <trkpt lat="47.25894" lon="6.01857">
        <ele>353.2</ele>
        <time>2024-08-03T07:06:05Z</time>
      </trkpt>
      <trkpt lat="47.25894" lon="6.01852">
        <ele>353.6</ele>
        <time>2024-08-03T07:06:06Z</time>
      </trkpt>
      <trkpt lat="47.25894" lon="6.01847">
        <ele>353.6</ele>
        <time>2024-08-03T07:06:07Z</time>
      </trkpt>
      <trkpt lat="47.25894" lon="6.01842">
        <ele>353.8</ele>
        <time>2024-08-03T07:06:08Z</time>
      </trkpt>
      <trkpt lat="47.25895" lon="6.01836">
        <ele>354</ele>
        <time>2024-08-03T07:06:09Z</time>
      </trkpt>
      <trkpt lat="47.25896" lon="6.0183">
        <ele>354.2</ele>
        <time>2024-08-03T07:06:10Z</time>
      </trkpt>
      <trkpt lat="47.25896" lon="6.01825">
        <ele>354.4</ele>
        <time>2024-08-03T07:06:11Z</time>
      </trkpt>
      <trkpt lat="47.25896" lon="6.01819">
        <ele>354.4</ele>
        <time>2024-08-03T07:06:12Z</time>
      </trkpt>
      <trkpt lat="47.25897" lon="6.01813">
        <ele>354.6</ele>
        <time>2024-08-03T07:06:13Z</time>
      </trkpt>
      <trkpt lat="47.25898" lon="6.01807">
        <ele>354.6</ele>
        <time>2024-08-03T07:06:14Z</time>
      </trkpt>
      <trkpt lat="47.25898" lon="6.01801">
        <ele>354.8</ele>
        <time>2024-08-03T07:06:15Z</time>
      </trkpt>
      <trkpt lat="47.25898" lon="6.01795">
        <ele>354.6</ele>
        <time>2024-08-03T07:06:16Z</time>
      </trkpt>
      <trkpt lat="47.25898" lon="6.01789">
        <ele>354.8</ele>
        <time>2024-08-03T07:06:17Z</time>
      </trkpt>
      <trkpt lat="47.25898" lon="6.01784">
        <ele>355</ele>
        <time>2024-08-03T07:06:18Z</time>
      </trkpt>
      <trkpt lat="47.25897" lon="6.01779">
        <ele>355</ele>
        <time>2024-08-03T07:06:19Z</time>
      </trkpt>
      <trkpt lat="47.25897" lon="6.01775">
        <ele>355.4</ele>
        <time>2024-08-03T07:06:20Z</time>
      </trkpt>
      <trkpt lat="47.25896" lon="6.0177">
        <ele>355.4</ele>
        <time>2024-08-03T07:06:21Z</time>
      </trkpt>
      <trkpt lat="47.25895" lon="6.01766">
        <ele>355.8</ele>
        <time>2024-08-03T07:06:22Z</time>
      </trkpt>
      <trkpt lat="47.25895" lon="6.01762">
        <ele>356.2</ele>
        <time>2024-08-03T07:06:23Z</time>
      </trkpt>
      <trkpt lat="47.25895" lon="6.01758">
        <ele>356.2</ele>
        <time>2024-08-03T07:06:24Z</time>
      </trkpt>
      <trkpt lat="47.25896" lon="6.01754">
        <ele>356.4</ele>
        <time>2024-08-03T07:06:25Z</time>
      </trkpt>
      <trkpt lat="47.25897" lon="6.0175">
        <ele>356.8</ele>
        <time>2024-08-03T07:06:26Z</time>
      </trkpt>
      <trkpt lat="47.25898" lon="6.01747">
        <ele>357.2</ele>
        <time>2024-08-03T07:06:27Z</time>
      </trkpt>
      <trkpt lat="47.259" lon="6.01744">
        <ele>357.4</ele>
        <time>2024-08-03T07:06:28Z</time>
      </trkpt>
      <trkpt lat="47.25902" lon="6.01741">
        <ele>357.8</ele>
        <time>2024-08-03T07:06:29Z</time>
      </trkpt>
      <trkpt lat="47.25904" lon="6.01738">
        <ele>358</ele>
        <time>2024-08-03T07:06:30Z</time>
      </trkpt>
      <trkpt lat="47.25907" lon="6.01734">
        <ele>358.2</ele>
        <time>2024-08-03T07:06:31Z</time>
      </trkpt>
      <trkpt lat="47.2591" lon="6.0173">
        <ele>358.6</ele>
        <time>2024-08-03T07:06:32Z</time>
      </trkpt>
      <trkpt lat="47.25913" lon="6.01727">
        <ele>358.8</ele>
        <time>2024-08-03T07:06:33Z</time>
      </trkpt>
      <trkpt lat="47.25916" lon="6.01724">
        <ele>358.8</ele>
        <time>2024-08-03T07:06:34Z</time>
      </trkpt>
      <trkpt lat="47.25919" lon="6.01721">
        <ele>359.2</ele>
        <time>2024-08-03T07:06:35Z</time>
      </trkpt>
      <trkpt lat="47.25921" lon="6.01718">
        <ele>359.2</ele>
        <time>2024-08-03T07:06:36Z</time>
      </trkpt>
      <trkpt lat="47.25924" lon="6.01715">
        <ele>359.2</ele>
        <time>2024-08-03T07:06:37Z</time>
      </trkpt>
      <trkpt lat="47.25926" lon="6.01712">
        <ele>359.4</ele>
        <time>2024-08-03T07:06:38Z</time>
      </trkpt>
      <trkpt lat="47.25929" lon="6.01709">
        <ele>359.4</ele>
        <time>2024-08-03T07:06:39Z</time>
      </trkpt>
      <trkpt lat="47.25932" lon="6.01707">
        <ele>359.6</ele>
        <time>2024-08-03T07:06:40Z</time>
      </trkpt>
      <trkpt lat="47.25936" lon="6.01703">
        <ele>359.6</ele>
        <time>2024-08-03T07:06:41Z</time>
      </trkpt>
      <trkpt lat="47.25939" lon="6.017">
        <ele>359.6</ele>
        <time>2024-08-03T07:06:42Z</time>
      </trkpt>
      <trkpt lat="47.25942" lon="6.01695">
        <ele>359.6</ele>
        <time>2024-08-03T07:06:43Z</time>
      </trkpt>
      <trkpt lat="47.25944" lon="6.0169">
        <ele>359.4</ele>
        <time>2024-08-03T07:06:44Z</time>
      </trkpt>
      <trkpt lat="47.25945" lon="6.01684">
        <ele>359.6</ele>
        <time>2024-08-03T07:06:45Z</time>
      </trkpt>
      <trkpt lat="47.25946" lon="6.01677">
        <ele>359.6</ele>
        <time>2024-08-03T07:06:46Z</time>
      </trkpt>
      <trkpt lat="47.25945" lon="6.01669">
        <ele>359.6</ele>
        <time>2024-08-03T07:06:47Z</time>
      </trkpt>
      <trkpt lat="47.25943" lon="6.01662">
        <ele>359.2</ele>
        <time>2024-08-03T07:06:48Z</time>
      </trkpt>
      <trkpt lat="47.25941" lon="6.01654">
        <ele>359.2</ele>
        <time>2024-08-03T07:06:49Z</time>
      </trkpt>
      <trkpt lat="47.25938" lon="6.01647">
        <ele>359.2</ele>
        <time>2024-08-03T07:06:50Z</time>
      </trkpt>
      <trkpt lat="47.25935" lon="6.01639">
        <ele>359.2</ele>
        <time>2024-08-03T07:06:51Z</time>
      </trkpt>
      <trkpt lat="47.25933" lon="6.01631">
        <ele>358.8</ele>
        <time>2024-08-03T07:06:52Z</time>
      </trkpt>
      <trkpt lat="47.25931" lon="6.01622">
        <ele>358.6</ele>
        <time>2024-08-03T07:06:53Z</time>
      </trkpt>
      <trkpt lat="47.25931" lon="6.01613">
        <ele>358.4</ele>
        <time>2024-08-03T07:06:54Z</time>
      </trkpt>
      <trkpt lat="47.25932" lon="6.01604">
        <ele>358.2</ele>
        <time>2024-08-03T07:06:55Z</time>
      </trkpt>
      <trkpt lat="47.25934" lon="6.01597">
        <ele>357.6</ele>
        <time>2024-08-03T07:06:56Z</time>
      </trkpt>
      <trkpt lat="47.2594" lon="6.01591">
        <ele>357.2</ele>
        <time>2024-08-03T07:06:57Z</time>
      </trkpt>
      <trkpt lat="47.25944" lon="6.01585">
        <ele>357.2</ele>
        <time>2024-08-03T07:06:58Z</time>
      </trkpt>
      <trkpt lat="47.2595" lon="6.01581">
        <ele>356.8</ele>
        <time>2024-08-03T07:06:59Z</time>
      </trkpt>
      <trkpt lat="47.25954" lon="6.01576">
        <ele>356.6</ele>
        <time>2024-08-03T07:07:00Z</time>
      </trkpt>
      <trkpt lat="47.25959" lon="6.01572">
        <ele>356.2</ele>
        <time>2024-08-03T07:07:01Z</time>
      </trkpt>
      <trkpt lat="47.25963" lon="6.01568">
        <ele>355.8</ele>
        <time>2024-08-03T07:07:02Z</time>
      </trkpt>
      <trkpt lat="47.25967" lon="6.01564">
        <ele>355.8</ele>
        <time>2024-08-03T07:07:03Z</time>
      </trkpt>
      <trkpt lat="47.25971" lon="6.01561">
        <ele>355.6</ele>
        <time>2024-08-03T07:07:04Z</time>
      </trkpt>
      <trkpt lat="47.25975" lon="6.01557">
        <ele>355.6</ele>
        <time>2024-08-03T07:07:05Z</time>
      </trkpt>
      <trkpt lat="47.25979" lon="6.01553">
        <ele>355.6</ele>
        <time>2024-08-03T07:07:06Z</time>
      </trkpt>
      <trkpt lat="47.25983" lon="6.0155">
        <ele>355.6</ele>
        <time>2024-08-03T07:07:07Z</time>
      </trkpt>
      <trkpt lat="47.25988" lon="6.01548">
        <ele>355.4</ele>
        <time>2024-08-03T07:07:08Z</time>
      </trkpt>
      <trkpt lat="47.25993" lon="6.01545">
        <ele>355.4</ele>
        <time>2024-08-03T07:07:09Z</time>
      </trkpt>
      <trkpt lat="47.25998" lon="6.01542">
        <ele>355.6</ele>
        <time>2024-08-03T07:07:10Z</time>
      </trkpt>
      <trkpt lat="47.26002" lon="6.01539">
        <ele>355.4</ele>
        <time>2024-08-03T07:07:11Z</time>
      </trkpt>
      <trkpt lat="47.26007" lon="6.01537">
        <ele>355.4</ele>
        <time>2024-08-03T07:07:12Z</time>
      </trkpt>
      <trkpt lat="47.26011" lon="6.01535">
        <ele>355.4</ele>
        <time>2024-08-03T07:07:13Z</time>
      </trkpt>
      <trkpt lat="47.26016" lon="6.01532">
        <ele>355.4</ele>
        <time>2024-08-03T07:07:14Z</time>
      </trkpt>
      <trkpt lat="47.2602" lon="6.0153">
        <ele>355.4</ele>
        <time>2024-08-03T07:07:15Z</time>
      </trkpt>
      <trkpt lat="47.26023" lon="6.01527">
        <ele>355.4</ele>
        <time>2024-08-03T07:07:16Z</time>
      </trkpt>
      <trkpt lat="47.26027" lon="6.01525">
        <ele>355.8</ele>
        <time>2024-08-03T07:07:17Z</time>
      </trkpt>
      <trkpt lat="47.2603" lon="6.01523">
        <ele>355.6</ele>
        <time>2024-08-03T07:07:18Z</time>
      </trkpt>
      <trkpt lat="47.26034" lon="6.0152">
        <ele>355.6</ele>
        <time>2024-08-03T07:07:19Z</time>
      </trkpt>
      <trkpt lat="47.26039" lon="6.01518">
        <ele>356</ele>
        <time>2024-08-03T07:07:20Z</time>
      </trkpt>
      <trkpt lat="47.26043" lon="6.01516">
        <ele>356.2</ele>
        <time>2024-08-03T07:07:21Z</time>
      </trkpt>
      <trkpt lat="47.26049" lon="6.01514">
        <ele>356.4</ele>
        <time>2024-08-03T07:07:22Z</time>
      </trkpt>
      <trkpt lat="47.26054" lon="6.01512">
        <ele>356.8</ele>
        <time>2024-08-03T07:07:23Z</time>
      </trkpt>
      <trkpt lat="47.26059" lon="6.0151">
        <ele>356.8</ele>
        <time>2024-08-03T07:07:24Z</time>
      </trkpt>
      <trkpt lat="47.26064" lon="6.01507">
        <ele>357</ele>
        <time>2024-08-03T07:07:25Z</time>
      </trkpt>
      <trkpt lat="47.26069" lon="6.01505">
        <ele>357.2</ele>
        <time>2024-08-03T07:07:26Z</time>
      </trkpt>
      <trkpt lat="47.26074" lon="6.01503">
        <ele>357.4</ele>
        <time>2024-08-03T07:07:27Z</time>
      </trkpt>
      <trkpt lat="47.26078" lon="6.01501">
        <ele>357.8</ele>
        <time>2024-08-03T07:07:28Z</time>
      </trkpt>
      <trkpt lat="47.26082" lon="6.01499">
        <ele>358.2</ele>
        <time>2024-08-03T07:07:29Z</time>
      </trkpt>
      <trkpt lat="47.26086" lon="6.01496">
        <ele>358.6</ele>
        <time>2024-08-03T07:07:30Z</time>
      </trkpt>
      <trkpt lat="47.2609" lon="6.01494">
        <ele>358.8</ele>
        <time>2024-08-03T07:07:31Z</time>
      </trkpt>
      <trkpt lat="47.26093" lon="6.01492">
        <ele>359</ele>
        <time>2024-08-03T07:07:32Z</time>
      </trkpt>
      <trkpt lat="47.26097" lon="6.01489">
        <ele>359.2</ele>
        <time>2024-08-03T07:07:33Z</time>
      </trkpt>
      <trkpt lat="47.26101" lon="6.01486">
        <ele>359.4</ele>
        <time>2024-08-03T07:07:34Z</time>
      </trkpt>
      <trkpt lat="47.26104" lon="6.01483">
        <ele>359.8</ele>
        <time>2024-08-03T07:07:35Z</time>
      </trkpt>
      <trkpt lat="47.26108" lon="6.0148">
        <ele>359.8</ele>
        <time>2024-08-03T07:07:36Z</time>
      </trkpt>
      <trkpt lat="47.26112" lon="6.01477">
        <ele>360</ele>
        <time>2024-08-03T07:07:37Z</time>
      </trkpt>
      <trkpt lat="47.26116" lon="6.01473">
        <ele>360.2</ele>
        <time>2024-08-03T07:07:38Z</time>
      </trkpt>
      <trkpt lat="47.2612" lon="6.01469">
        <ele>360.4</ele>
        <time>2024-08-03T07:07:39Z</time>
      </trkpt>
      <trkpt lat="47.26124" lon="6.01465">
        <ele>360.6</ele>
        <time>2024-08-03T07:07:40Z</time>
      </trkpt>
      <trkpt lat="47.26128" lon="6.01462">
        <ele>360.8</ele>
        <time>2024-08-03T07:07:41Z</time>
      </trkpt>
      <trkpt lat="47.26132" lon="6.0146">
        <ele>360.8</ele>
        <time>2024-08-03T07:07:42Z</time>
      </trkpt>
      <trkpt lat="47.26136" lon="6.01457">
        <ele>361</ele>
        <time>2024-08-03T07:07:43Z</time>
      </trkpt>
      <trkpt lat="47.2614" lon="6.01455">
        <ele>361.2</ele>
        <time>2024-08-03T07:07:44Z</time>
      </trkpt>
      <trkpt lat="47.26144" lon="6.01453">
        <ele>361.4</ele>
        <time>2024-08-03T07:07:45Z</time>
      </trkpt>
      <trkpt lat="47.26147" lon="6.0145">
        <ele>361.6</ele>
        <time>2024-08-03T07:07:46Z</time>
      </trkpt>
      <trkpt lat="47.2615" lon="6.01446">
        <ele>361.6</ele>
        <time>2024-08-03T07:07:47Z</time>
      </trkpt>
      <trkpt lat="47.26153" lon="6.01442">
        <ele>362</ele>
        <time>2024-08-03T07:07:48Z</time>
      </trkpt>
      <trkpt lat="47.26157" lon="6.01438">
        <ele>362.2</ele>
        <time>2024-08-03T07:07:49Z</time>
      </trkpt>
      <trkpt lat="47.26161" lon="6.01435">
        <ele>362.2</ele>
        <time>2024-08-03T07:07:50Z</time>
      </trkpt>
      <trkpt lat="47.26164" lon="6.0143">
        <ele>362.4</ele>
        <time>2024-08-03T07:07:51Z</time>
      </trkpt>
      <trkpt lat="47.26168" lon="6.01427">
        <ele>362.4</ele>
        <time>2024-08-03T07:07:52Z</time>
      </trkpt>
      <trkpt lat="47.26172" lon="6.01423">
        <ele>362.4</ele>
        <time>2024-08-03T07:07:53Z</time>
      </trkpt>
      <trkpt lat="47.26176" lon="6.0142">
        <ele>362.4</ele>
        <time>2024-08-03T07:07:54Z</time>
      </trkpt>
      <trkpt lat="47.2618" lon="6.01416">
        <ele>362.4</ele>
        <time>2024-08-03T07:07:55Z</time>
      </trkpt>
      <trkpt lat="47.26184" lon="6.01412">
        <ele>362.4</ele>
        <time>2024-08-03T07:07:56Z</time>
      </trkpt>
      <trkpt lat="47.26189" lon="6.01409">
        <ele>362.4</ele>
        <time>2024-08-03T07:07:57Z</time>
      </trkpt>
      <trkpt lat="47.26194" lon="6.01406">
        <ele>362.4</ele>
        <time>2024-08-03T07:07:58Z</time>
      </trkpt>
      <trkpt lat="47.26199" lon="6.01403">
        <ele>362.4</ele>
        <time>2024-08-03T07:07:59Z</time>
      </trkpt>
      <trkpt lat="47.26204" lon="6.014">
        <ele>362.6</ele>
        <time>2024-08-03T07:08:00Z</time>
      </trkpt>
      <trkpt lat="47.2621" lon="6.01398">
        <ele>362.4</ele>
        <time>2024-08-03T07:08:01Z</time>
      </trkpt>
      <trkpt lat="47.26215" lon="6.01397">
        <ele>362.4</ele>
        <time>2024-08-03T07:08:02Z</time>
      </trkpt>
      <trkpt lat="47.26221" lon="6.01397">
        <ele>362.4</ele>
        <time>2024-08-03T07:08:03Z</time>
      </trkpt>
      <trkpt lat="47.26227" lon="6.01398">
        <ele>362.4</ele>
        <time>2024-08-03T07:08:04Z</time>
      </trkpt>
      <trkpt lat="47.26234" lon="6.01399">
        <ele>362.4</ele>
        <time>2024-08-03T07:08:05Z</time>
      </trkpt>
      <trkpt lat="47.2624" lon="6.014">
        <ele>362.4</ele>
        <time>2024-08-03T07:08:06Z</time>
      </trkpt>
      <trkpt lat="47.26245" lon="6.014">
        <ele>362.4</ele>
        <time>2024-08-03T07:08:07Z</time>
      </trkpt>
      <trkpt lat="47.26251" lon="6.01399">
        <ele>362.4</ele>
        <time>2024-08-03T07:08:08Z</time>
      </trkpt>
      <trkpt lat="47.26256" lon="6.01398">
        <ele>362</ele>
        <time>2024-08-03T07:08:09Z</time>
      </trkpt>
      <trkpt lat="47.26263" lon="6.01397">
        <ele>362</ele>
        <time>2024-08-03T07:08:10Z</time>
      </trkpt>
      <trkpt lat="47.26268" lon="6.01395">
        <ele>361.8</ele>
        <time>2024-08-03T07:08:11Z</time>
      </trkpt>
      <trkpt lat="47.26274" lon="6.01393">
        <ele>361.4</ele>
        <time>2024-08-03T07:08:12Z</time>
      </trkpt>
      <trkpt lat="47.26279" lon="6.01391">
        <ele>361.2</ele>
        <time>2024-08-03T07:08:13Z</time>
      </trkpt>
      <trkpt lat="47.26285" lon="6.01388">
        <ele>361.2</ele>
        <time>2024-08-03T07:08:14Z</time>
      </trkpt>
      <trkpt lat="47.26291" lon="6.01385">
        <ele>361</ele>
        <time>2024-08-03T07:08:15Z</time>
      </trkpt>
      <trkpt lat="47.26296" lon="6.01383">
        <ele>361</ele>
        <time>2024-08-03T07:08:16Z</time>
      </trkpt>
      <trkpt lat="47.26302" lon="6.0138">
        <ele>361</ele>
        <time>2024-08-03T07:08:17Z</time>
      </trkpt>
      <trkpt lat="47.26307" lon="6.01377">
        <ele>361</ele>
        <time>2024-08-03T07:08:18Z</time>
      </trkpt>
      <trkpt lat="47.26312" lon="6.01374">
        <ele>361</ele>
        <time>2024-08-03T07:08:19Z</time>
      </trkpt>
      <trkpt lat="47.26317" lon="6.01371">
        <ele>361</ele>
        <time>2024-08-03T07:08:20Z</time>
      </trkpt>
      <trkpt lat="47.26322" lon="6.01369">
        <ele>361</ele>
        <time>2024-08-03T07:08:21Z</time>
      </trkpt>
      <trkpt lat="47.26327" lon="6.01367">
        <ele>361</ele>
        <time>2024-08-03T07:08:22Z</time>
      </trkpt>
      <trkpt lat="47.26331" lon="6.01364">
        <ele>360.8</ele>
        <time>2024-08-03T07:08:23Z</time>
      </trkpt>
      <trkpt lat="47.26336" lon="6.01362">
        <ele>360.8</ele>
        <time>2024-08-03T07:08:24Z</time>
      </trkpt>
      <trkpt lat="47.26341" lon="6.01361">
        <ele>360.8</ele>
        <time>2024-08-03T07:08:25Z</time>
      </trkpt>
      <trkpt lat="47.26346" lon="6.01359">
        <ele>360.8</ele>
        <time>2024-08-03T07:08:26Z</time>
      </trkpt>
      <trkpt lat="47.26351" lon="6.01357">
        <ele>360.8</ele>
        <time>2024-08-03T07:08:27Z</time>
      </trkpt>
      <trkpt lat="47.26357" lon="6.01355">
        <ele>360.8</ele>
        <time>2024-08-03T07:08:28Z</time>
      </trkpt>
      <trkpt lat="47.26363" lon="6.01354">
        <ele>360.8</ele>
        <time>2024-08-03T07:08:29Z</time>
      </trkpt>
      <trkpt lat="47.26369" lon="6.01352">
        <ele>360.8</ele>
        <time>2024-08-03T07:08:30Z</time>
      </trkpt>
      <trkpt lat="47.26375" lon="6.01351">
        <ele>360.8</ele>
        <time>2024-08-03T07:08:31Z</time>
      </trkpt>
      <trkpt lat="47.26381" lon="6.0135">
        <ele>360.8</ele>
        <time>2024-08-03T07:08:32Z</time>
      </trkpt>
      <trkpt lat="47.26386" lon="6.01349">
        <ele>360.8</ele>
        <time>2024-08-03T07:08:33Z</time>
      </trkpt>
      <trkpt lat="47.26391" lon="6.01348">
        <ele>360.8</ele>
        <time>2024-08-03T07:08:34Z</time>
      </trkpt>
      <trkpt lat="47.26397" lon="6.01347">
        <ele>360.8</ele>
        <time>2024-08-03T07:08:35Z</time>
      </trkpt>
      <trkpt lat="47.26402" lon="6.01346">
        <ele>360.8</ele>
        <time>2024-08-03T07:08:36Z</time>
      </trkpt>
      <trkpt lat="47.26407" lon="6.01345">
        <ele>360.8</ele>
        <time>2024-08-03T07:08:37Z</time>
      </trkpt>
      <trkpt lat="47.26411" lon="6.01344">
        <ele>360.4</ele>
        <time>2024-08-03T07:08:38Z</time>
      </trkpt>
      <trkpt lat="47.26416" lon="6.01343">
        <ele>360.4</ele>
        <time>2024-08-03T07:08:39Z</time>
      </trkpt>
      <trkpt lat="47.2642" lon="6.01342">
        <ele>360.2</ele>
        <time>2024-08-03T07:08:40Z</time>
      </trkpt>
      <trkpt lat="47.26425" lon="6.01341">
        <ele>360</ele>
        <time>2024-08-03T07:08:41Z</time>
      </trkpt>
      <trkpt lat="47.2643" lon="6.0134">
        <ele>359.8</ele>
        <time>2024-08-03T07:08:42Z</time>
      </trkpt>
      <trkpt lat="47.26436" lon="6.01338">
        <ele>359.8</ele>
        <time>2024-08-03T07:08:43Z</time>
      </trkpt>
      <trkpt lat="47.26441" lon="6.01335">
        <ele>359.6</ele>
        <time>2024-08-03T07:08:44Z</time>
      </trkpt>
      <trkpt lat="47.26447" lon="6.01332">
        <ele>359.6</ele>
        <time>2024-08-03T07:08:45Z</time>
      </trkpt>
      <trkpt lat="47.26453" lon="6.01329">
        <ele>359.4</ele>
        <time>2024-08-03T07:08:46Z</time>
      </trkpt>
      <trkpt lat="47.26459" lon="6.01325">
        <ele>359.4</ele>
        <time>2024-08-03T07:08:47Z</time>
      </trkpt>
      <trkpt lat="47.26464" lon="6.01321">
        <ele>359.4</ele>
        <time>2024-08-03T07:08:48Z</time>
      </trkpt>
      <trkpt lat="47.26469" lon="6.01316">
        <ele>359.4</ele>
        <time>2024-08-03T07:08:49Z</time>
      </trkpt>
      <trkpt lat="47.26474" lon="6.01309">
        <ele>359.4</ele>
        <time>2024-08-03T07:08:50Z</time>
      </trkpt>
      <trkpt lat="47.26479" lon="6.01302">
        <ele>359.2</ele>
        <time>2024-08-03T07:08:51Z</time>
      </trkpt>
      <trkpt lat="47.26483" lon="6.01294">
        <ele>359.2</ele>
        <time>2024-08-03T07:08:52Z</time>
      </trkpt>
      <trkpt lat="47.26487" lon="6.01285">
        <ele>358.8</ele>
        <time>2024-08-03T07:08:53Z</time>
      </trkpt>
      <trkpt lat="47.26491" lon="6.01276">
        <ele>358.6</ele>
        <time>2024-08-03T07:08:54Z</time>
      </trkpt>
      <trkpt lat="47.26494" lon="6.01266">
        <ele>358.2</ele>
        <time>2024-08-03T07:08:55Z</time>
      </trkpt>
      <trkpt lat="47.26498" lon="6.01257">
        <ele>357.8</ele>
        <time>2024-08-03T07:08:56Z</time>
      </trkpt>
      <trkpt lat="47.265" lon="6.01246">
        <ele>357.6</ele>
        <time>2024-08-03T07:08:57Z</time>
      </trkpt>
      <trkpt lat="47.26503" lon="6.01237">
        <ele>357.4</ele>
        <time>2024-08-03T07:08:58Z</time>
      </trkpt>
      <trkpt lat="47.26505" lon="6.01228">
        <ele>356.8</ele>
        <time>2024-08-03T07:08:59Z</time>
      </trkpt>
      <trkpt lat="47.26508" lon="6.0122">
        <ele>356.4</ele>
        <time>2024-08-03T07:09:00Z</time>
      </trkpt>
      <trkpt lat="47.2651" lon="6.01213">
        <ele>355.8</ele>
        <time>2024-08-03T07:09:01Z</time>
      </trkpt>
      <trkpt lat="47.26513" lon="6.01205">
        <ele>355.4</ele>
        <time>2024-08-03T07:09:02Z</time>
      </trkpt>
      <trkpt lat="47.26516" lon="6.01199">
        <ele>354.6</ele>
        <time>2024-08-03T07:09:03Z</time>
      </trkpt>
      <trkpt lat="47.2652" lon="6.01194">
        <ele>353.6</ele>
        <time>2024-08-03T07:09:04Z</time>
      </trkpt>
      <trkpt lat="47.26526" lon="6.01193">
        <ele>353</ele>
        <time>2024-08-03T07:09:05Z</time>
      </trkpt>
      <trkpt lat="47.26534" lon="6.01194">
        <ele>352.6</ele>
        <time>2024-08-03T07:09:06Z</time>
      </trkpt>
      <trkpt lat="47.2654" lon="6.01196">
        <ele>352</ele>
        <time>2024-08-03T07:09:07Z</time>
      </trkpt>
      <trkpt lat="47.26547" lon="6.01199">
        <ele>351.4</ele>
        <time>2024-08-03T07:09:08Z</time>
      </trkpt>
      <trkpt lat="47.26554" lon="6.01201">
        <ele>350.6</ele>
        <time>2024-08-03T07:09:09Z</time>
      </trkpt>
      <trkpt lat="47.26561" lon="6.01204">
        <ele>350.6</ele>
        <time>2024-08-03T07:09:10Z</time>
      </trkpt>
      <trkpt lat="47.26568" lon="6.01206">
        <ele>349.6</ele>
        <time>2024-08-03T07:09:11Z</time>
      </trkpt>
      <trkpt lat="47.26575" lon="6.01209">
        <ele>348.8</ele>
        <time>2024-08-03T07:09:12Z</time>
      </trkpt>
      <trkpt lat="47.26582" lon="6.01211">
        <ele>348</ele>
        <time>2024-08-03T07:09:13Z</time>
      </trkpt>
      <trkpt lat="47.2659" lon="6.01212">
        <ele>347.2</ele>
        <time>2024-08-03T07:09:14Z</time>
      </trkpt>
      <trkpt lat="47.26598" lon="6.01212">
        <ele>346.8</ele>
        <time>2024-08-03T07:09:15Z</time>
      </trkpt>
      <trkpt lat="47.26606" lon="6.01211">
        <ele>346.4</ele>
        <time>2024-08-03T07:09:16Z</time>
      </trkpt>
      <trkpt lat="47.26614" lon="6.01209">
        <ele>346</ele>
        <time>2024-08-03T07:09:17Z</time>
      </trkpt>
      <trkpt lat="47.26621" lon="6.01207">
        <ele>345.4</ele>
        <time>2024-08-03T07:09:18Z</time>
      </trkpt>
      <trkpt lat="47.26629" lon="6.01205">
        <ele>345.2</ele>
        <time>2024-08-03T07:09:19Z</time>
      </trkpt>
      <trkpt lat="47.26636" lon="6.01201">
        <ele>344.8</ele>
        <time>2024-08-03T07:09:20Z</time>
      </trkpt>
      <trkpt lat="47.26643" lon="6.01196">
        <ele>344.4</ele>
        <time>2024-08-03T07:09:21Z</time>
      </trkpt>
      <trkpt lat="47.2665" lon="6.01191">
        <ele>344</ele>
        <time>2024-08-03T07:09:22Z</time>
      </trkpt>
      <trkpt lat="47.26656" lon="6.01186">
        <ele>343.6</ele>
        <time>2024-08-03T07:09:23Z</time>
      </trkpt>
      <trkpt lat="47.26661" lon="6.01181">
        <ele>343.2</ele>
        <time>2024-08-03T07:09:24Z</time>
      </trkpt>
      <trkpt lat="47.26667" lon="6.01176">
        <ele>343</ele>
        <time>2024-08-03T07:09:25Z</time>
      </trkpt>
      <trkpt lat="47.26672" lon="6.01171">
        <ele>343</ele>
        <time>2024-08-03T07:09:26Z</time>
      </trkpt>
      <trkpt lat="47.26677" lon="6.01166">
        <ele>342.6</ele>
        <time>2024-08-03T07:09:27Z</time>
      </trkpt>
      <trkpt lat="47.26682" lon="6.01162">
        <ele>342.4</ele>
        <time>2024-08-03T07:09:28Z</time>
      </trkpt>
      <trkpt lat="47.26687" lon="6.01157">
        <ele>342.2</ele>
        <time>2024-08-03T07:09:29Z</time>
      </trkpt>
      <trkpt lat="47.26692" lon="6.01153">
        <ele>342.2</ele>
        <time>2024-08-03T07:09:30Z</time>
      </trkpt>
      <trkpt lat="47.26697" lon="6.01149">
        <ele>342.2</ele>
        <time>2024-08-03T07:09:31Z</time>
      </trkpt>
      <trkpt lat="47.26702" lon="6.01145">
        <ele>342</ele>
        <time>2024-08-03T07:09:32Z</time>
      </trkpt>
      <trkpt lat="47.26706" lon="6.01142">
        <ele>342</ele>
        <time>2024-08-03T07:09:33Z</time>
      </trkpt>
      <trkpt lat="47.26712" lon="6.01139">
        <ele>342</ele>
        <time>2024-08-03T07:09:34Z</time>
      </trkpt>
      <trkpt lat="47.26717" lon="6.01136">
        <ele>342</ele>
        <time>2024-08-03T07:09:35Z</time>
      </trkpt>
      <trkpt lat="47.26723" lon="6.01133">
        <ele>342</ele>
        <time>2024-08-03T07:09:36Z</time>
      </trkpt>
      <trkpt lat="47.26729" lon="6.01131">
        <ele>341.8</ele>
        <time>2024-08-03T07:09:37Z</time>
      </trkpt>
      <trkpt lat="47.26735" lon="6.01129">
        <ele>341.8</ele>
        <time>2024-08-03T07:09:38Z</time>
      </trkpt>
      <trkpt lat="47.26741" lon="6.01127">
        <ele>342</ele>
        <time>2024-08-03T07:09:39Z</time>
      </trkpt>
      <trkpt lat="47.26747" lon="6.01126">
        <ele>342</ele>
        <time>2024-08-03T07:09:40Z</time>
      </trkpt>
      <trkpt lat="47.26752" lon="6.01125">
        <ele>341.8</ele>
        <time>2024-08-03T07:09:41Z</time>
      </trkpt>
      <trkpt lat="47.26758" lon="6.01123">
        <ele>342</ele>
        <time>2024-08-03T07:09:42Z</time>
      </trkpt>
      <trkpt lat="47.26763" lon="6.01121">
        <ele>342</ele>
        <time>2024-08-03T07:09:43Z</time>
      </trkpt>
      <trkpt lat="47.26768" lon="6.01117">
        <ele>342</ele>
        <time>2024-08-03T07:09:44Z</time>
      </trkpt>
      <trkpt lat="47.26771" lon="6.01113">
        <ele>342</ele>
        <time>2024-08-03T07:09:45Z</time>
      </trkpt>
      <trkpt lat="47.26774" lon="6.01108">
        <ele>342.2</ele>
        <time>2024-08-03T07:09:46Z</time>
      </trkpt>
      <trkpt lat="47.26777" lon="6.01102">
        <ele>342</ele>
        <time>2024-08-03T07:09:47Z</time>
      </trkpt>
      <trkpt lat="47.2678" lon="6.01096">
        <ele>342.2</ele>
        <time>2024-08-03T07:09:48Z</time>
      </trkpt>
      <trkpt lat="47.26783" lon="6.01091">
        <ele>342.2</ele>
        <time>2024-08-03T07:09:49Z</time>
      </trkpt>
      <trkpt lat="47.26786" lon="6.01086">
        <ele>342.2</ele>
        <time>2024-08-03T07:09:50Z</time>
      </trkpt>
      <trkpt lat="47.26788" lon="6.01081">
        <ele>342.4</ele>
        <time>2024-08-03T07:09:51Z</time>
      </trkpt>
      <trkpt lat="47.26791" lon="6.01077">
        <ele>342.6</ele>
        <time>2024-08-03T07:09:52Z</time>
      </trkpt>
      <trkpt lat="47.26793" lon="6.01072">
        <ele>342.6</ele>
        <time>2024-08-03T07:09:53Z</time>
      </trkpt>
      <trkpt lat="47.26796" lon="6.01068">
        <ele>342.8</ele>
        <time>2024-08-03T07:09:54Z</time>
      </trkpt>
      <trkpt lat="47.26799" lon="6.01064">
        <ele>342.8</ele>
        <time>2024-08-03T07:09:55Z</time>
      </trkpt>
      <trkpt lat="47.26802" lon="6.0106">
        <ele>343</ele>
        <time>2024-08-03T07:09:56Z</time>
      </trkpt>
      <trkpt lat="47.26805" lon="6.01056">
        <ele>343</ele>
        <time>2024-08-03T07:09:57Z</time>
      </trkpt>
      <trkpt lat="47.26808" lon="6.01052">
        <ele>343.2</ele>
        <time>2024-08-03T07:09:58Z</time>
      </trkpt>
      <trkpt lat="47.26811" lon="6.01048">
        <ele>343.4</ele>
        <time>2024-08-03T07:09:59Z</time>
      </trkpt>
      <trkpt lat="47.26813" lon="6.01044">
        <ele>343.6</ele>
        <time>2024-08-03T07:10:00Z</time>
      </trkpt>
      <trkpt lat="47.26816" lon="6.0104">
        <ele>343.6</ele>
        <time>2024-08-03T07:10:01Z</time>
      </trkpt>
      <trkpt lat="47.26819" lon="6.01036">
        <ele>343.8</ele>
        <time>2024-08-03T07:10:02Z</time>
      </trkpt>
      <trkpt lat="47.26822" lon="6.01032">
        <ele>343.8</ele>
        <time>2024-08-03T07:10:03Z</time>
      </trkpt>
      <trkpt lat="47.26825" lon="6.01028">
        <ele>344</ele>
        <time>2024-08-03T07:10:04Z</time>
      </trkpt>
      <trkpt lat="47.26828" lon="6.01024">
        <ele>344.2</ele>
        <time>2024-08-03T07:10:05Z</time>
      </trkpt>
      <trkpt lat="47.26831" lon="6.0102">
        <ele>344.2</ele>
        <time>2024-08-03T07:10:06Z</time>
      </trkpt>
      <trkpt lat="47.26834" lon="6.01016">
        <ele>344.4</ele>
        <time>2024-08-03T07:10:07Z</time>
      </trkpt>
      <trkpt lat="47.26837" lon="6.01012">
        <ele>344.6</ele>
        <time>2024-08-03T07:10:08Z</time>
      </trkpt>
      <trkpt lat="47.26841" lon="6.01008">
        <ele>344.8</ele>
        <time>2024-08-03T07:10:09Z</time>
      </trkpt>
      <trkpt lat="47.26844" lon="6.01004">
        <ele>345</ele>
        <time>2024-08-03T07:10:10Z</time>
      </trkpt>
      <trkpt lat="47.26847" lon="6.01001">
        <ele>345.2</ele>
        <time>2024-08-03T07:10:11Z</time>
      </trkpt>
      <trkpt lat="47.26849" lon="6.00997">
        <ele>345.2</ele>
        <time>2024-08-03T07:10:12Z</time>
      </trkpt>
      <trkpt lat="47.26852" lon="6.00994">
        <ele>345.4</ele>
        <time>2024-08-03T07:10:13Z</time>
      </trkpt>
      <trkpt lat="47.26854" lon="6.0099">
        <ele>345.6</ele>
        <time>2024-08-03T07:10:14Z</time>
      </trkpt>
      <trkpt lat="47.26856" lon="6.00986">
        <ele>345.6</ele>
        <time>2024-08-03T07:10:15Z</time>
      </trkpt>
      <trkpt lat="47.26858" lon="6.00982">
        <ele>346</ele>
        <time>2024-08-03T07:10:16Z</time>
      </trkpt>
      <trkpt lat="47.26861" lon="6.00978">
        <ele>346</ele>
        <time>2024-08-03T07:10:17Z</time>
      </trkpt>
      <trkpt lat="47.26863" lon="6.00973">
        <ele>346.2</ele>
        <time>2024-08-03T07:10:18Z</time>
      </trkpt>
      <trkpt lat="47.26865" lon="6.00968">
        <ele>346.6</ele>
        <time>2024-08-03T07:10:19Z</time>
      </trkpt>
      <trkpt lat="47.26868" lon="6.00963">
        <ele>346.6</ele>
        <time>2024-08-03T07:10:20Z</time>
      </trkpt>
      <trkpt lat="47.26869" lon="6.00958">
        <ele>346.8</ele>
        <time>2024-08-03T07:10:21Z</time>
      </trkpt>
      <trkpt lat="47.26872" lon="6.00953">
        <ele>347.2</ele>
        <time>2024-08-03T07:10:22Z</time>
      </trkpt>
      <trkpt lat="47.26875" lon="6.00948">
        <ele>347.4</ele>
        <time>2024-08-03T07:10:23Z</time>
      </trkpt>
      <trkpt lat="47.26878" lon="6.00942">
        <ele>347.4</ele>
        <time>2024-08-03T07:10:24Z</time>
      </trkpt>
      <trkpt lat="47.26881" lon="6.00937">
        <ele>347.4</ele>
        <time>2024-08-03T07:10:25Z</time>
      </trkpt>
      <trkpt lat="47.26884" lon="6.00932">
        <ele>347.6</ele>
        <time>2024-08-03T07:10:26Z</time>
      </trkpt>
      <trkpt lat="47.26886" lon="6.00927">
        <ele>347.8</ele>
        <time>2024-08-03T07:10:27Z</time>
      </trkpt>
      <trkpt lat="47.26888" lon="6.00922">
        <ele>347.8</ele>
        <time>2024-08-03T07:10:28Z</time>
      </trkpt>
      <trkpt lat="47.2689" lon="6.00917">
        <ele>347.8</ele>
        <time>2024-08-03T07:10:29Z</time>
      </trkpt>
      <trkpt lat="47.26892" lon="6.00912">
        <ele>348</ele>
        <time>2024-08-03T07:10:30Z</time>
      </trkpt>
      <trkpt lat="47.26895" lon="6.00907">
        <ele>348</ele>
        <time>2024-08-03T07:10:31Z</time>
      </trkpt>
      <trkpt lat="47.26897" lon="6.00903">
        <ele>348.2</ele>
        <time>2024-08-03T07:10:32Z</time>
      </trkpt>
      <trkpt lat="47.26899" lon="6.00898">
        <ele>348.4</ele>
        <time>2024-08-03T07:10:33Z</time>
      </trkpt>
      <trkpt lat="47.26902" lon="6.00894">
        <ele>348.4</ele>
        <time>2024-08-03T07:10:34Z</time>
      </trkpt>
      <trkpt lat="47.26905" lon="6.0089">
        <ele>348.6</ele>
        <time>2024-08-03T07:10:35Z</time>
      </trkpt>
      <trkpt lat="47.26907" lon="6.00886">
        <ele>348.6</ele>
        <time>2024-08-03T07:10:36Z</time>
      </trkpt>
      <trkpt lat="47.2691" lon="6.00881">
        <ele>348.6</ele>
        <time>2024-08-03T07:10:37Z</time>
      </trkpt>
      <trkpt lat="47.26913" lon="6.00877">
        <ele>348.6</ele>
        <time>2024-08-03T07:10:38Z</time>
      </trkpt>
      <trkpt lat="47.26916" lon="6.00873">
        <ele>349</ele>
        <time>2024-08-03T07:10:39Z</time>
      </trkpt>
      <trkpt lat="47.2692" lon="6.0087">
        <ele>349</ele>
        <time>2024-08-03T07:10:40Z</time>
      </trkpt>
      <trkpt lat="47.26923" lon="6.00866">
        <ele>349.2</ele>
        <time>2024-08-03T07:10:41Z</time>
      </trkpt>
      <trkpt lat="47.26926" lon="6.00863">
        <ele>349.2</ele>
        <time>2024-08-03T07:10:42Z</time>
      </trkpt>
      <trkpt lat="47.2693" lon="6.0086">
        <ele>349.2</ele>
        <time>2024-08-03T07:10:43Z</time>
      </trkpt>
      <trkpt lat="47.26933" lon="6.00857">
        <ele>349.2</ele>
        <time>2024-08-03T07:10:44Z</time>
      </trkpt>
      <trkpt lat="47.26936" lon="6.00854">
        <ele>349.6</ele>
        <time>2024-08-03T07:10:45Z</time>
      </trkpt>
      <trkpt lat="47.26939" lon="6.00851">
        <ele>349.8</ele>
        <time>2024-08-03T07:10:46Z</time>
      </trkpt>
      <trkpt lat="47.26942" lon="6.00847">
        <ele>349.8</ele>
        <time>2024-08-03T07:10:47Z</time>
      </trkpt>
      <trkpt lat="47.26944" lon="6.00844">
        <ele>349.8</ele>
        <time>2024-08-03T07:10:48Z</time>
      </trkpt>
      <trkpt lat="47.26948" lon="6.00842">
        <ele>350</ele>
        <time>2024-08-03T07:10:49Z</time>
      </trkpt>
      <trkpt lat="47.26952" lon="6.00839">
        <ele>350.2</ele>
        <time>2024-08-03T07:10:50Z</time>
      </trkpt>
      <trkpt lat="47.26956" lon="6.00836">
        <ele>350.4</ele>
        <time>2024-08-03T07:10:51Z</time>
      </trkpt>
      <trkpt lat="47.26959" lon="6.00833">
        <ele>350.4</ele>
        <time>2024-08-03T07:10:52Z</time>
      </trkpt>
      <trkpt lat="47.26963" lon="6.0083">
        <ele>350.6</ele>
        <time>2024-08-03T07:10:53Z</time>
      </trkpt>
      <trkpt lat="47.26967" lon="6.00828">
        <ele>350.8</ele>
        <time>2024-08-03T07:10:54Z</time>
      </trkpt>
      <trkpt lat="47.2697" lon="6.00825">
        <ele>350.8</ele>
        <time>2024-08-03T07:10:55Z</time>
      </trkpt>
      <trkpt lat="47.26974" lon="6.00822">
        <ele>350.8</ele>
        <time>2024-08-03T07:10:56Z</time>
      </trkpt>
      <trkpt lat="47.26978" lon="6.0082">
        <ele>351</ele>
        <time>2024-08-03T07:10:57Z</time>
      </trkpt>
      <trkpt lat="47.26981" lon="6.00817">
        <ele>351</ele>
        <time>2024-08-03T07:10:58Z</time>
      </trkpt>
      <trkpt lat="47.26984" lon="6.00814">
        <ele>351</ele>
        <time>2024-08-03T07:10:59Z</time>
      </trkpt>
      <trkpt lat="47.26988" lon="6.00812">
        <ele>351.2</ele>
        <time>2024-08-03T07:11:00Z</time>
      </trkpt>
      <trkpt lat="47.26991" lon="6.0081">
        <ele>351.2</ele>
        <time>2024-08-03T07:11:01Z</time>
      </trkpt>
      <trkpt lat="47.26994" lon="6.00807">
        <ele>351.2</ele>
        <time>2024-08-03T07:11:02Z</time>
      </trkpt>
      <trkpt lat="47.26998" lon="6.00805">
        <ele>351.4</ele>
        <time>2024-08-03T07:11:03Z</time>
      </trkpt>
      <trkpt lat="47.27001" lon="6.00802">
        <ele>351.4</ele>
        <time>2024-08-03T07:11:04Z</time>
      </trkpt>
      <trkpt lat="47.27004" lon="6.008">
        <ele>351.6</ele>
        <time>2024-08-03T07:11:05Z</time>
      </trkpt>
      <trkpt lat="47.27006" lon="6.00798">
        <ele>351.6</ele>
        <time>2024-08-03T07:11:06Z</time>
      </trkpt>
      <trkpt lat="47.27007" lon="6.00797">
        <ele>351.8</ele>
        <time>2024-08-03T07:11:07Z</time>
      </trkpt>
      <trkpt lat="47.27008" lon="6.00795">
        <ele>352</ele>
        <time>2024-08-03T07:11:08Z</time>
      </trkpt>
      <trkpt lat="47.27008" lon="6.00793">
        <ele>352</ele>
        <time>2024-08-03T07:11:09Z</time>
      </trkpt>
      <trkpt lat="47.27007" lon="6.00793">
        <ele>352</ele>
        <time>2024-08-03T07:11:10Z</time>
      </trkpt>
      <trkpt lat="47.27006" lon="6.00795">
        <ele>352</ele>
        <time>2024-08-03T07:11:11Z</time>
      </trkpt>
      <trkpt lat="47.27006" lon="6.00797">
        <ele>352.2</ele>
        <time>2024-08-03T07:11:12Z</time>
      </trkpt>
      <trkpt lat="47.27006" lon="6.008">
        <ele>352.4</ele>
        <time>2024-08-03T07:11:13Z</time>
      </trkpt>
      <trkpt lat="47.27006" lon="6.00804">
        <ele>352.4</ele>
        <time>2024-08-03T07:11:14Z</time>
      </trkpt>
      <trkpt lat="47.27007" lon="6.00807">
        <ele>352.6</ele>
        <time>2024-08-03T07:11:15Z</time>
      </trkpt>
      <trkpt lat="47.27007" lon="6.0081">
        <ele>352.6</ele>
        <time>2024-08-03T07:11:16Z</time>
      </trkpt>
      <trkpt lat="47.27008" lon="6.00812">
        <ele>352.4</ele>
        <time>2024-08-03T07:11:17Z</time>
      </trkpt>
      <trkpt lat="47.27008" lon="6.00813">
        <ele>352.6</ele>
        <time>2024-08-03T07:11:18Z</time>
      </trkpt>
      <trkpt lat="47.27009" lon="6.00814">
        <ele>352.6</ele>
        <time>2024-08-03T07:11:19Z</time>
      </trkpt>
      <trkpt lat="47.2701" lon="6.00814">
        <ele>352.6</ele>
        <time>2024-08-03T07:11:20Z</time>
      </trkpt>
      <trkpt lat="47.27009" lon="6.00813">
        <ele>352.6</ele>
        <time>2024-08-03T07:11:21Z</time>
      </trkpt>
      <trkpt lat="47.27009" lon="6.00812">
        <ele>352.6</ele>
        <time>2024-08-03T07:11:22Z</time>
      </trkpt>
      <trkpt lat="47.27009" lon="6.00811">
        <ele>352.6</ele>
        <time>2024-08-03T07:11:23Z</time>
      </trkpt>
      <trkpt lat="47.27008" lon="6.00808">
        <ele>352.6</ele>
        <time>2024-08-03T07:11:24Z</time>
      </trkpt>
      <trkpt lat="47.27007" lon="6.00806">
        <ele>352.8</ele>
        <time>2024-08-03T07:11:25Z</time>
      </trkpt>
      <trkpt lat="47.27007" lon="6.00803">
        <ele>352.6</ele>
        <time>2024-08-03T07:11:26Z</time>
      </trkpt>
      <trkpt lat="47.27007" lon="6.00801">
        <ele>352.6</ele>
        <time>2024-08-03T07:11:27Z</time>
      </trkpt>
      <trkpt lat="47.27009" lon="6.00799">
        <ele>352.6</ele>
        <time>2024-08-03T07:11:28Z</time>
      </trkpt>
      <trkpt lat="47.27011" lon="6.00797">
        <ele>352.6</ele>
        <time>2024-08-03T07:11:29Z</time>
      </trkpt>
      <trkpt lat="47.27012" lon="6.00794">
        <ele>352.6</ele>
        <time>2024-08-03T07:11:30Z</time>
      </trkpt>
      <trkpt lat="47.27014" lon="6.00792">
        <ele>352.8</ele>
        <time>2024-08-03T07:11:31Z</time>
      </trkpt>
      <trkpt lat="47.27017" lon="6.0079">
        <ele>352.8</ele>
        <time>2024-08-03T07:11:32Z</time>
      </trkpt>
      <trkpt lat="47.27019" lon="6.00788">
        <ele>352.8</ele>
        <time>2024-08-03T07:11:33Z</time>
      </trkpt>
      <trkpt lat="47.27021" lon="6.00786">
        <ele>352.8</ele>
        <time>2024-08-03T07:11:34Z</time>
      </trkpt>
      <trkpt lat="47.27023" lon="6.00784">
        <ele>352.8</ele>
        <time>2024-08-03T07:11:35Z</time>
      </trkpt>
      <trkpt lat="47.27025" lon="6.00782">
        <ele>353</ele>
        <time>2024-08-03T07:11:36Z</time>
      </trkpt>
      <trkpt lat="47.27028" lon="6.0078">
        <ele>352.8</ele>
        <time>2024-08-03T07:11:37Z</time>
      </trkpt>
      <trkpt lat="47.2703" lon="6.00778">
        <ele>353</ele>
        <time>2024-08-03T07:11:38Z</time>
      </trkpt>
      <trkpt lat="47.27032" lon="6.00776">
        <ele>353.2</ele>
        <time>2024-08-03T07:11:39Z</time>
      </trkpt>
      <trkpt lat="47.27034" lon="6.00773">
        <ele>353.4</ele>
        <time>2024-08-03T07:11:40Z</time>
      </trkpt>
      <trkpt lat="47.27036" lon="6.00771">
        <ele>353.4</ele>
        <time>2024-08-03T07:11:41Z</time>
      </trkpt>
      <trkpt lat="47.27038" lon="6.00768">
        <ele>353.6</ele>
        <time>2024-08-03T07:11:42Z</time>
      </trkpt>
      <trkpt lat="47.2704" lon="6.00766">
        <ele>353.6</ele>
        <time>2024-08-03T07:11:43Z</time>
      </trkpt>
      <trkpt lat="47.27043" lon="6.00764">
        <ele>354</ele>
        <time>2024-08-03T07:11:44Z</time>
      </trkpt>
      <trkpt lat="47.27045" lon="6.00762">
        <ele>354.2</ele>
        <time>2024-08-03T07:11:45Z</time>
      </trkpt>
      <trkpt lat="47.27047" lon="6.00761">
        <ele>354.2</ele>
        <time>2024-08-03T07:11:46Z</time>
      </trkpt>
      <trkpt lat="47.2705" lon="6.00759">
        <ele>354.4</ele>
        <time>2024-08-03T07:11:47Z</time>
      </trkpt>
      <trkpt lat="47.27052" lon="6.00758">
        <ele>354.6</ele>
        <time>2024-08-03T07:11:48Z</time>
      </trkpt>
      <trkpt lat="47.27055" lon="6.00756">
        <ele>354.6</ele>
        <time>2024-08-03T07:11:49Z</time>
      </trkpt>
      <trkpt lat="47.27057" lon="6.00754">
        <ele>355</ele>
        <time>2024-08-03T07:11:50Z</time>
      </trkpt>
      <trkpt lat="47.27059" lon="6.00752">
        <ele>355.2</ele>
        <time>2024-08-03T07:11:51Z</time>
      </trkpt>
      <trkpt lat="47.27062" lon="6.0075">
        <ele>355.4</ele>
        <time>2024-08-03T07:11:52Z</time>
      </trkpt>
      <trkpt lat="47.27064" lon="6.00748">
        <ele>355.6</ele>
        <time>2024-08-03T07:11:53Z</time>
      </trkpt>
      <trkpt lat="47.27067" lon="6.00746">
        <ele>355.8</ele>
        <time>2024-08-03T07:11:54Z</time>
      </trkpt>
      <trkpt lat="47.27069" lon="6.00743">
        <ele>355.8</ele>
        <time>2024-08-03T07:11:55Z</time>
      </trkpt>
      <trkpt lat="47.27071" lon="6.00741">
        <ele>356.2</ele>
        <time>2024-08-03T07:11:56Z</time>
      </trkpt>
      <trkpt lat="47.27074" lon="6.00739">
        <ele>356.4</ele>
        <time>2024-08-03T07:11:57Z</time>
      </trkpt>
      <trkpt lat="47.27076" lon="6.00737">
        <ele>356.6</ele>
        <time>2024-08-03T07:11:58Z</time>
      </trkpt>
      <trkpt lat="47.27078" lon="6.00735">
        <ele>356.8</ele>
        <time>2024-08-03T07:11:59Z</time>
      </trkpt>
      <trkpt lat="47.2708" lon="6.00733">
        <ele>357.2</ele>
        <time>2024-08-03T07:12:00Z</time>
      </trkpt>
      <trkpt lat="47.27082" lon="6.00731">
        <ele>357.2</ele>
        <time>2024-08-03T07:12:01Z</time>
      </trkpt>
      <trkpt lat="47.27084" lon="6.00729">
        <ele>357.4</ele>
        <time>2024-08-03T07:12:02Z</time>
      </trkpt>
      <trkpt lat="47.27085" lon="6.00728">
        <ele>357.8</ele>
        <time>2024-08-03T07:12:03Z</time>
      </trkpt>
      <trkpt lat="47.27087" lon="6.00726">
        <ele>358</ele>
        <time>2024-08-03T07:12:04Z</time>
      </trkpt>
      <trkpt lat="47.2709" lon="6.00724">
        <ele>358</ele>
        <time>2024-08-03T07:12:05Z</time>
      </trkpt>
      <trkpt lat="47.27093" lon="6.00721">
        <ele>358.2</ele>
        <time>2024-08-03T07:12:06Z</time>
      </trkpt>
      <trkpt lat="47.27095" lon="6.00719">
        <ele>358.4</ele>
        <time>2024-08-03T07:12:07Z</time>
      </trkpt>
      <trkpt lat="47.27097" lon="6.00717">
        <ele>358.6</ele>
        <time>2024-08-03T07:12:08Z</time>
      </trkpt>
      <trkpt lat="47.27099" lon="6.00714">
        <ele>358.8</ele>
        <time>2024-08-03T07:12:09Z</time>
      </trkpt>
      <trkpt lat="47.27102" lon="6.00712">
        <ele>359</ele>
        <time>2024-08-03T07:12:10Z</time>
      </trkpt>
      <trkpt lat="47.27104" lon="6.00709">
        <ele>359.2</ele>
        <time>2024-08-03T07:12:11Z</time>
      </trkpt>
      <trkpt lat="47.27106" lon="6.00707">
        <ele>359.4</ele>
        <time>2024-08-03T07:12:12Z</time>
      </trkpt>
      <trkpt lat="47.27108" lon="6.00705">
        <ele>359.6</ele>
        <time>2024-08-03T07:12:13Z</time>
      </trkpt>
      <trkpt lat="47.2711" lon="6.00702">
        <ele>360</ele>
        <time>2024-08-03T07:12:14Z</time>
      </trkpt>
      <trkpt lat="47.27112" lon="6.007">
        <ele>360</ele>
        <time>2024-08-03T07:12:15Z</time>
      </trkpt>
      <trkpt lat="47.27114" lon="6.00697">
        <ele>360.2</ele>
        <time>2024-08-03T07:12:16Z</time>
      </trkpt>
      <trkpt lat="47.27116" lon="6.00694">
        <ele>360.4</ele>
        <time>2024-08-03T07:12:17Z</time>
      </trkpt>
      <trkpt lat="47.27118" lon="6.00691">
        <ele>360.6</ele>
        <time>2024-08-03T07:12:18Z</time>
      </trkpt>
      <trkpt lat="47.27121" lon="6.00688">
        <ele>360.8</ele>
        <time>2024-08-03T07:12:19Z</time>
      </trkpt>
      <trkpt lat="47.27123" lon="6.00686">
        <ele>361</ele>
        <time>2024-08-03T07:12:20Z</time>
      </trkpt>
      <trkpt lat="47.27125" lon="6.00683">
        <ele>361.4</ele>
        <time>2024-08-03T07:12:21Z</time>
      </trkpt>
      <trkpt lat="47.27127" lon="6.0068">
        <ele>361.4</ele>
        <time>2024-08-03T07:12:22Z</time>
      </trkpt>
      <trkpt lat="47.27129" lon="6.00678">
        <ele>361.8</ele>
        <time>2024-08-03T07:12:23Z</time>
      </trkpt>
      <trkpt lat="47.27132" lon="6.00676">
        <ele>362.2</ele>
        <time>2024-08-03T07:12:24Z</time>
      </trkpt>
      <trkpt lat="47.27134" lon="6.00673">
        <ele>362.2</ele>
        <time>2024-08-03T07:12:25Z</time>
      </trkpt>
      <trkpt lat="47.27136" lon="6.00671">
        <ele>362.4</ele>
        <time>2024-08-03T07:12:26Z</time>
      </trkpt>
      <trkpt lat="47.27138" lon="6.00668">
        <ele>362.4</ele>
        <time>2024-08-03T07:12:27Z</time>
      </trkpt>
      <trkpt lat="47.2714" lon="6.00665">
        <ele>362.6</ele>
        <time>2024-08-03T07:12:28Z</time>
      </trkpt>
      <trkpt lat="47.27143" lon="6.00662">
        <ele>363</ele>
        <time>2024-08-03T07:12:29Z</time>
      </trkpt>
      <trkpt lat="47.27145" lon="6.0066">
        <ele>363.2</ele>
        <time>2024-08-03T07:12:30Z</time>
      </trkpt>
      <trkpt lat="47.27147" lon="6.00657">
        <ele>363.4</ele>
        <time>2024-08-03T07:12:31Z</time>
      </trkpt>
      <trkpt lat="47.2715" lon="6.00654">
        <ele>363.6</ele>
        <time>2024-08-03T07:12:32Z</time>
      </trkpt>
      <trkpt lat="47.27152" lon="6.00651">
        <ele>363.8</ele>
        <time>2024-08-03T07:12:33Z</time>
      </trkpt>
      <trkpt lat="47.27154" lon="6.00649">
        <ele>364.2</ele>
        <time>2024-08-03T07:12:34Z</time>
      </trkpt>
      <trkpt lat="47.27156" lon="6.00647">
        <ele>364.4</ele>
        <time>2024-08-03T07:12:35Z</time>
      </trkpt>
      <trkpt lat="47.27158" lon="6.00645">
        <ele>364.6</ele>
        <time>2024-08-03T07:12:36Z</time>
      </trkpt>
      <trkpt lat="47.27161" lon="6.00643">
        <ele>364.8</ele>
        <time>2024-08-03T07:12:37Z</time>
      </trkpt>
      <trkpt lat="47.27163" lon="6.00641">
        <ele>365.4</ele>
        <time>2024-08-03T07:12:38Z</time>
      </trkpt>
      <trkpt lat="47.27166" lon="6.00639">
        <ele>365.6</ele>
        <time>2024-08-03T07:12:39Z</time>
      </trkpt>
      <trkpt lat="47.27168" lon="6.00636">
        <ele>366</ele>
        <time>2024-08-03T07:12:40Z</time>
      </trkpt>
      <trkpt lat="47.27171" lon="6.00633">
        <ele>366.4</ele>
        <time>2024-08-03T07:12:41Z</time>
      </trkpt>
      <trkpt lat="47.27173" lon="6.00631">
        <ele>366.6</ele>
        <time>2024-08-03T07:12:42Z</time>
      </trkpt>
      <trkpt lat="47.27176" lon="6.00629">
        <ele>366.8</ele>
        <time>2024-08-03T07:12:43Z</time>
      </trkpt>
      <trkpt lat="47.27178" lon="6.00626">
        <ele>367</ele>
        <time>2024-08-03T07:12:44Z</time>
      </trkpt>
      <trkpt lat="47.2718" lon="6.00623">
        <ele>367.4</ele>
        <time>2024-08-03T07:12:45Z</time>
      </trkpt>
      <trkpt lat="47.27183" lon="6.00621">
        <ele>367.6</ele>
        <time>2024-08-03T07:12:46Z</time>
      </trkpt>
      <trkpt lat="47.27185" lon="6.00619">
        <ele>367.8</ele>
        <time>2024-08-03T07:12:47Z</time>
      </trkpt>
      <trkpt lat="47.27187" lon="6.00616">
        <ele>368.2</ele>
        <time>2024-08-03T07:12:48Z</time>
      </trkpt>
      <trkpt lat="47.27189" lon="6.00614">
        <ele>368.2</ele>
        <time>2024-08-03T07:12:49Z</time>
      </trkpt>
      <trkpt lat="47.27192" lon="6.00611">
        <ele>368.6</ele>
        <time>2024-08-03T07:12:50Z</time>
      </trkpt>
      <trkpt lat="47.27194" lon="6.00609">
        <ele>368.8</ele>
        <time>2024-08-03T07:12:51Z</time>
      </trkpt>
      <trkpt lat="47.27196" lon="6.00606">
        <ele>369</ele>
        <time>2024-08-03T07:12:52Z</time>
      </trkpt>
      <trkpt lat="47.27199" lon="6.00603">
        <ele>369.2</ele>
        <time>2024-08-03T07:12:53Z</time>
      </trkpt>
      <trkpt lat="47.27201" lon="6.00601">
        <ele>369.4</ele>
        <time>2024-08-03T07:12:54Z</time>
      </trkpt>
      <trkpt lat="47.27203" lon="6.00598">
        <ele>369.8</ele>
        <time>2024-08-03T07:12:55Z</time>
      </trkpt>
      <trkpt lat="47.27205" lon="6.00596">
        <ele>369.8</ele>
        <time>2024-08-03T07:12:56Z</time>
      </trkpt>
      <trkpt lat="47.27207" lon="6.00594">
        <ele>370.2</ele>
        <time>2024-08-03T07:12:57Z</time>
      </trkpt>
      <trkpt lat="47.27209" lon="6.00591">
        <ele>370.2</ele>
        <time>2024-08-03T07:12:58Z</time>
      </trkpt>
      <trkpt lat="47.27211" lon="6.0059">
        <ele>370.6</ele>
        <time>2024-08-03T07:12:59Z</time>
      </trkpt>
      <trkpt lat="47.27213" lon="6.00588">
        <ele>370.6</ele>
        <time>2024-08-03T07:13:00Z</time>
      </trkpt>
      <trkpt lat="47.27215" lon="6.00586">
        <ele>370.8</ele>
        <time>2024-08-03T07:13:01Z</time>
      </trkpt>
      <trkpt lat="47.27216" lon="6.00584">
        <ele>371</ele>
        <time>2024-08-03T07:13:02Z</time>
      </trkpt>
      <trkpt lat="47.27218" lon="6.00582">
        <ele>371.4</ele>
        <time>2024-08-03T07:13:03Z</time>
      </trkpt>
      <trkpt lat="47.27219" lon="6.0058">
        <ele>371.6</ele>
        <time>2024-08-03T07:13:04Z</time>
      </trkpt>
      <trkpt lat="47.2722" lon="6.00578">
        <ele>371.8</ele>
        <time>2024-08-03T07:13:05Z</time>
      </trkpt>
      <trkpt lat="47.27222" lon="6.00575">
        <ele>372</ele>
        <time>2024-08-03T07:13:06Z</time>
      </trkpt>
      <trkpt lat="47.27223" lon="6.00573">
        <ele>372.2</ele>
        <time>2024-08-03T07:13:07Z</time>
      </trkpt>
      <trkpt lat="47.27224" lon="6.00571">
        <ele>372.4</ele>
        <time>2024-08-03T07:13:08Z</time>
      </trkpt>
      <trkpt lat="47.27226" lon="6.00568">
        <ele>372.4</ele>
        <time>2024-08-03T07:13:09Z</time>
      </trkpt>
      <trkpt lat="47.27228" lon="6.00566">
        <ele>372.6</ele>
        <time>2024-08-03T07:13:10Z</time>
      </trkpt>
      <trkpt lat="47.2723" lon="6.00564">
        <ele>372.6</ele>
        <time>2024-08-03T07:13:11Z</time>
      </trkpt>
      <trkpt lat="47.27231" lon="6.00562">
        <ele>373</ele>
        <time>2024-08-03T07:13:12Z</time>
      </trkpt>
      <trkpt lat="47.27233" lon="6.0056">
        <ele>373.2</ele>
        <time>2024-08-03T07:13:13Z</time>
      </trkpt>
      <trkpt lat="47.27235" lon="6.00557">
        <ele>373.4</ele>
        <time>2024-08-03T07:13:14Z</time>
      </trkpt>
      <trkpt lat="47.27237" lon="6.00554">
        <ele>373.4</ele>
        <time>2024-08-03T07:13:15Z</time>
      </trkpt>
      <trkpt lat="47.27239" lon="6.00551">
        <ele>373.6</ele>
        <time>2024-08-03T07:13:16Z</time>
      </trkpt>
      <trkpt lat="47.27241" lon="6.00548">
        <ele>374</ele>
        <time>2024-08-03T07:13:17Z</time>
      </trkpt>
      <trkpt lat="47.27244" lon="6.00545">
        <ele>374.2</ele>
        <time>2024-08-03T07:13:18Z</time>
      </trkpt>
      <trkpt lat="47.27246" lon="6.00542">
        <ele>374.2</ele>
        <time>2024-08-03T07:13:19Z</time>
      </trkpt>
      <trkpt lat="47.27248" lon="6.00539">
        <ele>374.6</ele>
        <time>2024-08-03T07:13:20Z</time>
      </trkpt>
      <trkpt lat="47.27251" lon="6.00536">
        <ele>374.8</ele>
        <time>2024-08-03T07:13:21Z</time>
      </trkpt>
      <trkpt lat="47.27253" lon="6.00532">
        <ele>375</ele>
        <time>2024-08-03T07:13:22Z</time>
      </trkpt>
      <trkpt lat="47.27255" lon="6.00529">
        <ele>375.2</ele>
        <time>2024-08-03T07:13:23Z</time>
      </trkpt>
      <trkpt lat="47.27257" lon="6.00526">
        <ele>375.2</ele>
        <time>2024-08-03T07:13:24Z</time>
      </trkpt>
      <trkpt lat="47.27259" lon="6.00522">
        <ele>375.2</ele>
        <time>2024-08-03T07:13:25Z</time>
      </trkpt>
      <trkpt lat="47.27261" lon="6.00519">
        <ele>375.6</ele>
        <time>2024-08-03T07:13:26Z</time>
      </trkpt>
      <trkpt lat="47.27263" lon="6.00516">
        <ele>375.8</ele>
        <time>2024-08-03T07:13:27Z</time>
      </trkpt>
      <trkpt lat="47.27265" lon="6.00513">
        <ele>375.8</ele>
        <time>2024-08-03T07:13:28Z</time>
      </trkpt>
      <trkpt lat="47.27267" lon="6.0051">
        <ele>376</ele>
        <time>2024-08-03T07:13:29Z</time>
      </trkpt>
      <trkpt lat="47.27269" lon="6.00508">
        <ele>376.2</ele>
        <time>2024-08-03T07:13:30Z</time>
      </trkpt>
      <trkpt lat="47.27271" lon="6.00505">
        <ele>376.4</ele>
        <time>2024-08-03T07:13:31Z</time>
      </trkpt>
      <trkpt lat="47.27273" lon="6.00502">
        <ele>376.4</ele>
        <time>2024-08-03T07:13:32Z</time>
      </trkpt>
      <trkpt lat="47.27276" lon="6.00499">
        <ele>376.4</ele>
        <time>2024-08-03T07:13:33Z</time>
      </trkpt>
      <trkpt lat="47.27278" lon="6.00495">
        <ele>376.6</ele>
        <time>2024-08-03T07:13:34Z</time>
      </trkpt>
      <trkpt lat="47.27281" lon="6.00492">
        <ele>376.8</ele>
        <time>2024-08-03T07:13:35Z</time>
      </trkpt>
      <trkpt lat="47.27283" lon="6.00489">
        <ele>377</ele>
        <time>2024-08-03T07:13:36Z</time>
      </trkpt>
      <trkpt lat="47.27286" lon="6.00485">
        <ele>377</ele>
        <time>2024-08-03T07:13:37Z</time>
      </trkpt>
      <trkpt lat="47.27289" lon="6.0048">
        <ele>377</ele>
        <time>2024-08-03T07:13:38Z</time>
      </trkpt>
      <trkpt lat="47.27291" lon="6.00477">
        <ele>377.4</ele>
        <time>2024-08-03T07:13:39Z</time>
      </trkpt>
      <trkpt lat="47.27294" lon="6.00473">
        <ele>377.6</ele>
        <time>2024-08-03T07:13:40Z</time>
      </trkpt>
      <trkpt lat="47.27297" lon="6.00469">
        <ele>377.6</ele>
        <time>2024-08-03T07:13:41Z</time>
      </trkpt>
      <trkpt lat="47.27299" lon="6.00466">
        <ele>377.8</ele>
        <time>2024-08-03T07:13:42Z</time>
      </trkpt>
      <trkpt lat="47.27301" lon="6.00462">
        <ele>378</ele>
        <time>2024-08-03T07:13:43Z</time>
      </trkpt>
      <trkpt lat="47.27304" lon="6.00458">
        <ele>378</ele>
        <time>2024-08-03T07:13:44Z</time>
      </trkpt>
      <trkpt lat="47.27306" lon="6.00455">
        <ele>378</ele>
        <time>2024-08-03T07:13:45Z</time>
      </trkpt>
      <trkpt lat="47.27309" lon="6.00452">
        <ele>378</ele>
        <time>2024-08-03T07:13:46Z</time>
      </trkpt>
      <trkpt lat="47.27311" lon="6.00449">
        <ele>378</ele>
        <time>2024-08-03T07:13:47Z</time>
      </trkpt>
      <trkpt lat="47.27313" lon="6.00447">
        <ele>378</ele>
        <time>2024-08-03T07:13:48Z</time>
      </trkpt>
      <trkpt lat="47.27315" lon="6.00444">
        <ele>378</ele>
        <time>2024-08-03T07:13:49Z</time>
      </trkpt>
      <trkpt lat="47.27317" lon="6.00442">
        <ele>378</ele>
        <time>2024-08-03T07:13:50Z</time>
      </trkpt>
      <trkpt lat="47.27319" lon="6.0044">
        <ele>378</ele>
        <time>2024-08-03T07:13:51Z</time>
      </trkpt>
      <trkpt lat="47.27321" lon="6.00437">
        <ele>378</ele>
        <time>2024-08-03T07:13:52Z</time>
      </trkpt>
      <trkpt lat="47.27323" lon="6.00436">
        <ele>378</ele>
        <time>2024-08-03T07:13:53Z</time>
      </trkpt>
      <trkpt lat="47.27325" lon="6.00434">
        <ele>378</ele>
        <time>2024-08-03T07:13:54Z</time>
      </trkpt>
      <trkpt lat="47.27326" lon="6.00432">
        <ele>378</ele>
        <time>2024-08-03T07:13:55Z</time>
      </trkpt>
      <trkpt lat="47.27328" lon="6.0043">
        <ele>378</ele>
        <time>2024-08-03T07:13:56Z</time>
      </trkpt>
      <trkpt lat="47.2733" lon="6.00428">
        <ele>377.8</ele>
        <time>2024-08-03T07:13:57Z</time>
      </trkpt>
      <trkpt lat="47.27331" lon="6.00426">
        <ele>377.8</ele>
        <time>2024-08-03T07:13:58Z</time>
      </trkpt>
      <trkpt lat="47.27333" lon="6.00424">
        <ele>377.6</ele>
        <time>2024-08-03T07:13:59Z</time>
      </trkpt>
      <trkpt lat="47.27334" lon="6.00422">
        <ele>377.4</ele>
        <time>2024-08-03T07:14:00Z</time>
      </trkpt>
      <trkpt lat="47.27336" lon="6.0042">
        <ele>377.2</ele>
        <time>2024-08-03T07:14:01Z</time>
      </trkpt>
      <trkpt lat="47.27337" lon="6.00418">
        <ele>377</ele>
        <time>2024-08-03T07:14:02Z</time>
      </trkpt>
      <trkpt lat="47.2734" lon="6.00415">
        <ele>376.8</ele>
        <time>2024-08-03T07:14:03Z</time>
      </trkpt>
      <trkpt lat="47.27342" lon="6.0041">
        <ele>376.6</ele>
        <time>2024-08-03T07:14:04Z</time>
      </trkpt>
      <trkpt lat="47.27345" lon="6.00406">
        <ele>376.4</ele>
        <time>2024-08-03T07:14:05Z</time>
      </trkpt>
      <trkpt lat="47.27348" lon="6.00402">
        <ele>376.2</ele>
        <time>2024-08-03T07:14:06Z</time>
      </trkpt>
      <trkpt lat="47.27351" lon="6.00398">
        <ele>376</ele>
        <time>2024-08-03T07:14:07Z</time>
      </trkpt>
      <trkpt lat="47.27354" lon="6.00394">
        <ele>375.8</ele>
        <time>2024-08-03T07:14:08Z</time>
      </trkpt>
      <trkpt lat="47.27356" lon="6.00389">
        <ele>375.4</ele>
        <time>2024-08-03T07:14:09Z</time>
      </trkpt>
      <trkpt lat="47.2736" lon="6.00384">
        <ele>375.4</ele>
        <time>2024-08-03T07:14:10Z</time>
      </trkpt>
      <trkpt lat="47.27363" lon="6.0038">
        <ele>375</ele>
        <time>2024-08-03T07:14:11Z</time>
      </trkpt>
      <trkpt lat="47.27367" lon="6.00376">
        <ele>375</ele>
        <time>2024-08-03T07:14:12Z</time>
      </trkpt>
      <trkpt lat="47.2737" lon="6.00371">
        <ele>374.8</ele>
        <time>2024-08-03T07:14:13Z</time>
      </trkpt>
      <trkpt lat="47.27374" lon="6.00365">
        <ele>374.8</ele>
        <time>2024-08-03T07:14:14Z</time>
      </trkpt>
      <trkpt lat="47.27378" lon="6.00359">
        <ele>374.8</ele>
        <time>2024-08-03T07:14:15Z</time>
      </trkpt>
      <trkpt lat="47.27383" lon="6.00353">
        <ele>374.6</ele>
        <time>2024-08-03T07:14:16Z</time>
      </trkpt>
      <trkpt lat="47.27388" lon="6.00346">
        <ele>374.6</ele>
        <time>2024-08-03T07:14:17Z</time>
      </trkpt>
      <trkpt lat="47.27392" lon="6.00339">
        <ele>374.4</ele>
        <time>2024-08-03T07:14:18Z</time>
      </trkpt>
      <trkpt lat="47.27397" lon="6.00333">
        <ele>374.4</ele>
        <time>2024-08-03T07:14:19Z</time>
      </trkpt>
      <trkpt lat="47.27402" lon="6.00326">
        <ele>374.2</ele>
        <time>2024-08-03T07:14:20Z</time>
      </trkpt>
      <trkpt lat="47.27407" lon="6.0032">
        <ele>374.2</ele>
        <time>2024-08-03T07:14:21Z</time>
      </trkpt>
      <trkpt lat="47.27413" lon="6.00314">
        <ele>373.8</ele>
        <time>2024-08-03T07:14:22Z</time>
      </trkpt>
      <trkpt lat="47.27419" lon="6.00309">
        <ele>373.4</ele>
        <time>2024-08-03T07:14:23Z</time>
      </trkpt>
      <trkpt lat="47.27425" lon="6.00304">
        <ele>373.2</ele>
        <time>2024-08-03T07:14:24Z</time>
      </trkpt>
      <trkpt lat="47.27431" lon="6.00299">
        <ele>373</ele>
        <time>2024-08-03T07:14:25Z</time>
      </trkpt>
      <trkpt lat="47.27437" lon="6.00294">
        <ele>372.8</ele>
        <time>2024-08-03T07:14:26Z</time>
      </trkpt>
      <trkpt lat="47.27442" lon="6.0029">
        <ele>372.6</ele>
        <time>2024-08-03T07:14:27Z</time>
      </trkpt>
      <trkpt lat="47.27447" lon="6.00286">
        <ele>372.2</ele>
        <time>2024-08-03T07:14:28Z</time>
      </trkpt>
      <trkpt lat="47.27452" lon="6.00282">
        <ele>372</ele>
        <time>2024-08-03T07:14:29Z</time>
      </trkpt>
      <trkpt lat="47.27457" lon="6.00277">
        <ele>371.8</ele>
        <time>2024-08-03T07:14:30Z</time>
      </trkpt>
      <trkpt lat="47.27461" lon="6.00271">
        <ele>371.6</ele>
        <time>2024-08-03T07:14:31Z</time>
      </trkpt>
      <trkpt lat="47.27465" lon="6.00265">
        <ele>371.4</ele>
        <time>2024-08-03T07:14:32Z</time>
      </trkpt>
      <trkpt lat="47.27468" lon="6.00258">
        <ele>371</ele>
        <time>2024-08-03T07:14:33Z</time>
      </trkpt>
      <trkpt lat="47.27471" lon="6.00253">
        <ele>370.6</ele>
        <time>2024-08-03T07:14:34Z</time>
      </trkpt>
      <trkpt lat="47.27472" lon="6.00249">
        <ele>370.4</ele>
        <time>2024-08-03T07:14:35Z</time>
      </trkpt>
      <trkpt lat="47.27472" lon="6.00247">
        <ele>369.8</ele>
        <time>2024-08-03T07:14:36Z</time>
      </trkpt>
      <trkpt lat="47.27469" lon="6.00246">
        <ele>369.4</ele>
        <time>2024-08-03T07:14:37Z</time>
      </trkpt>
      <trkpt lat="47.27468" lon="6.00249">
        <ele>369.2</ele>
        <time>2024-08-03T07:14:38Z</time>
      </trkpt>
      <trkpt lat="47.27467" lon="6.00252">
        <ele>369.2</ele>
        <time>2024-08-03T07:14:39Z</time>
      </trkpt>
      <trkpt lat="47.27469" lon="6.00254">
        <ele>369</ele>
        <time>2024-08-03T07:14:40Z</time>
      </trkpt>
      <trkpt lat="47.2747" lon="6.00257">
        <ele>368.4</ele>
        <time>2024-08-03T07:14:41Z</time>
      </trkpt>
      <trkpt lat="47.27472" lon="6.00259">
        <ele>368.2</ele>
        <time>2024-08-03T07:14:42Z</time>
      </trkpt>
      <trkpt lat="47.27475" lon="6.00261">
        <ele>367.8</ele>
        <time>2024-08-03T07:14:43Z</time>
      </trkpt>
      <trkpt lat="47.27476" lon="6.00261">
        <ele>367.8</ele>
        <time>2024-08-03T07:14:44Z</time>
      </trkpt>
      <trkpt lat="47.27477" lon="6.00262">
        <ele>367.8</ele>
        <time>2024-08-03T07:14:45Z</time>
      </trkpt>
      <trkpt lat="47.27479" lon="6.0026">
        <ele>367.6</ele>
        <time>2024-08-03T07:14:46Z</time>
      </trkpt>
      <trkpt lat="47.27481" lon="6.00257">
        <ele>367.6</ele>
        <time>2024-08-03T07:14:47Z</time>
      </trkpt>
      <trkpt lat="47.27483" lon="6.00254">
        <ele>367.8</ele>
        <time>2024-08-03T07:14:48Z</time>
      </trkpt>
      <trkpt lat="47.27485" lon="6.00251">
        <ele>367.8</ele>
        <time>2024-08-03T07:14:49Z</time>
      </trkpt>
      <trkpt lat="47.27487" lon="6.00248">
        <ele>367.6</ele>
        <time>2024-08-03T07:14:50Z</time>
      </trkpt>
      <trkpt lat="47.2749" lon="6.00245">
        <ele>367.6</ele>
        <time>2024-08-03T07:14:51Z</time>
      </trkpt>
      <trkpt lat="47.27492" lon="6.00242">
        <ele>367.6</ele>
        <time>2024-08-03T07:14:52Z</time>
      </trkpt>
      <trkpt lat="47.27495" lon="6.00238">
        <ele>368</ele>
        <time>2024-08-03T07:14:53Z</time>
      </trkpt>
      <trkpt lat="47.27498" lon="6.00234">
        <ele>368.4</ele>
        <time>2024-08-03T07:14:54Z</time>
      </trkpt>
      <trkpt lat="47.27501" lon="6.0023">
        <ele>368.6</ele>
        <time>2024-08-03T07:14:55Z</time>
      </trkpt>
      <trkpt lat="47.27503" lon="6.00226">
        <ele>368.8</ele>
        <time>2024-08-03T07:14:56Z</time>
      </trkpt>
      <trkpt lat="47.27506" lon="6.00222">
        <ele>368.8</ele>
        <time>2024-08-03T07:14:57Z</time>
      </trkpt>
      <trkpt lat="47.2751" lon="6.00218">
        <ele>368.8</ele>
        <time>2024-08-03T07:14:58Z</time>
      </trkpt>
      <trkpt lat="47.27513" lon="6.00214">
        <ele>368.8</ele>
        <time>2024-08-03T07:14:59Z</time>
      </trkpt>
      <trkpt lat="47.27516" lon="6.0021">
        <ele>368.8</ele>
        <time>2024-08-03T07:15:00Z</time>
      </trkpt>
      <trkpt lat="47.27519" lon="6.00207">
        <ele>368.8</ele>
        <time>2024-08-03T07:15:01Z</time>
      </trkpt>
      <trkpt lat="47.27523" lon="6.00202">
        <ele>368.8</ele>
        <time>2024-08-03T07:15:02Z</time>
      </trkpt>
      <trkpt lat="47.27526" lon="6.00198">
        <ele>369</ele>
        <time>2024-08-03T07:15:03Z</time>
      </trkpt>
      <trkpt lat="47.2753" lon="6.00194">
        <ele>368.8</ele>
        <time>2024-08-03T07:15:04Z</time>
      </trkpt>
      <trkpt lat="47.27534" lon="6.0019">
        <ele>368.8</ele>
        <time>2024-08-03T07:15:05Z</time>
      </trkpt>
      <trkpt lat="47.27538" lon="6.00186">
        <ele>369</ele>
        <time>2024-08-03T07:15:06Z</time>
      </trkpt>
      <trkpt lat="47.27543" lon="6.00181">
        <ele>368.8</ele>
        <time>2024-08-03T07:15:07Z</time>
      </trkpt>
      <trkpt lat="47.27548" lon="6.00176">
        <ele>368.8</ele>
        <time>2024-08-03T07:15:08Z</time>
      </trkpt>
      <trkpt lat="47.27553" lon="6.0017">
        <ele>368.8</ele>
        <time>2024-08-03T07:15:09Z</time>
      </trkpt>
      <trkpt lat="47.27558" lon="6.00166">
        <ele>368.6</ele>
        <time>2024-08-03T07:15:10Z</time>
      </trkpt>
      <trkpt lat="47.27563" lon="6.0016">
        <ele>368.4</ele>
        <time>2024-08-03T07:15:11Z</time>
      </trkpt>
      <trkpt lat="47.27568" lon="6.00154">
        <ele>368.2</ele>
        <time>2024-08-03T07:15:12Z</time>
      </trkpt>
      <trkpt lat="47.27574" lon="6.00148">
        <ele>368</ele>
        <time>2024-08-03T07:15:13Z</time>
      </trkpt>
      <trkpt lat="47.27579" lon="6.00143">
        <ele>367.8</ele>
        <time>2024-08-03T07:15:14Z</time>
      </trkpt>
      <trkpt lat="47.27585" lon="6.00138">
        <ele>367.4</ele>
        <time>2024-08-03T07:15:15Z</time>
      </trkpt>
      <trkpt lat="47.2759" lon="6.00133">
        <ele>367</ele>
        <time>2024-08-03T07:15:16Z</time>
      </trkpt>
      <trkpt lat="47.27596" lon="6.00129">
        <ele>366.6</ele>
        <time>2024-08-03T07:15:17Z</time>
      </trkpt>
      <trkpt lat="47.27601" lon="6.00125">
        <ele>366.4</ele>
        <time>2024-08-03T07:15:18Z</time>
      </trkpt>
      <trkpt lat="47.27607" lon="6.00121">
        <ele>366.2</ele>
        <time>2024-08-03T07:15:19Z</time>
      </trkpt>
      <trkpt lat="47.27612" lon="6.00118">
        <ele>365.6</ele>
        <time>2024-08-03T07:15:20Z</time>
      </trkpt>
      <trkpt lat="47.27617" lon="6.00114">
        <ele>365.2</ele>
        <time>2024-08-03T07:15:21Z</time>
      </trkpt>
      <trkpt lat="47.27623" lon="6.0011">
        <ele>364.6</ele>
        <time>2024-08-03T07:15:22Z</time>
      </trkpt>
      <trkpt lat="47.27628" lon="6.00106">
        <ele>364.4</ele>
        <time>2024-08-03T07:15:23Z</time>
      </trkpt>
      <trkpt lat="47.27633" lon="6.00102">
        <ele>364.4</ele>
        <time>2024-08-03T07:15:24Z</time>
      </trkpt>
      <trkpt lat="47.27639" lon="6.00098">
        <ele>364</ele>
        <time>2024-08-03T07:15:25Z</time>
      </trkpt>
      <trkpt lat="47.27644" lon="6.00094">
        <ele>363.4</ele>
        <time>2024-08-03T07:15:26Z</time>
      </trkpt>
      <trkpt lat="47.27649" lon="6.0009">
        <ele>363.2</ele>
        <time>2024-08-03T07:15:27Z</time>
      </trkpt>
      <trkpt lat="47.27654" lon="6.00085">
        <ele>362.8</ele>
        <time>2024-08-03T07:15:28Z</time>
      </trkpt>
      <trkpt lat="47.27659" lon="6.0008">
        <ele>362.6</ele>
        <time>2024-08-03T07:15:29Z</time>
      </trkpt>
      <trkpt lat="47.27665" lon="6.00075">
        <ele>362.2</ele>
        <time>2024-08-03T07:15:30Z</time>
      </trkpt>
      <trkpt lat="47.27671" lon="6.0007">
        <ele>361.6</ele>
        <time>2024-08-03T07:15:31Z</time>
      </trkpt>
      <trkpt lat="47.27677" lon="6.00065">
        <ele>361.2</ele>
        <time>2024-08-03T07:15:32Z</time>
      </trkpt>
      <trkpt lat="47.27683" lon="6.0006">
        <ele>360.8</ele>
        <time>2024-08-03T07:15:33Z</time>
      </trkpt>
      <trkpt lat="47.27688" lon="6.00056">
        <ele>360</ele>
        <time>2024-08-03T07:15:34Z</time>
      </trkpt>
      <trkpt lat="47.27693" lon="6.00051">
        <ele>359.6</ele>
        <time>2024-08-03T07:15:35Z</time>
      </trkpt>
      <trkpt lat="47.27697" lon="6.00047">
        <ele>359.2</ele>
        <time>2024-08-03T07:15:36Z</time>
      </trkpt>
      <trkpt lat="47.277" lon="6.00042">
        <ele>358.6</ele>
        <time>2024-08-03T07:15:37Z</time>
      </trkpt>
      <trkpt lat="47.27701" lon="6.00037">
        <ele>358</ele>
        <time>2024-08-03T07:15:38Z</time>
      </trkpt>
      <trkpt lat="47.27701" lon="6.00034">
        <ele>357.4</ele>
        <time>2024-08-03T07:15:39Z</time>
      </trkpt>
      <trkpt lat="47.27701" lon="6.00031">
        <ele>356.8</ele>
        <time>2024-08-03T07:15:40Z</time>
      </trkpt>
      <trkpt lat="47.27701" lon="6.00029">
        <ele>356.2</ele>
        <time>2024-08-03T07:15:41Z</time>
      </trkpt>
      <trkpt lat="47.27702" lon="6.00027">
        <ele>355.8</ele>
        <time>2024-08-03T07:15:42Z</time>
      </trkpt>
      <trkpt lat="47.27702" lon="6.00025">
        <ele>355.2</ele>
        <time>2024-08-03T07:15:43Z</time>
      </trkpt>
      <trkpt lat="47.27703" lon="6.00024">
        <ele>354.4</ele>
        <time>2024-08-03T07:15:44Z</time>
      </trkpt>
      <trkpt lat="47.27703" lon="6.00022">
        <ele>354</ele>
        <time>2024-08-03T07:15:45Z</time>
      </trkpt>
      <trkpt lat="47.27703" lon="6.0002">
        <ele>354</ele>
        <time>2024-08-03T07:15:46Z</time>
      </trkpt>
      <trkpt lat="47.27704" lon="6.00019">
        <ele>353.6</ele>
        <time>2024-08-03T07:15:47Z</time>
      </trkpt>
      <trkpt lat="47.27704" lon="6.00017">
        <ele>353.4</ele>
        <time>2024-08-03T07:15:48Z</time>
      </trkpt>
      <trkpt lat="47.27705" lon="6.00014">
        <ele>353</ele>
        <time>2024-08-03T07:15:49Z</time>
      </trkpt>
      <trkpt lat="47.27706" lon="6.00012">
        <ele>352.8</ele>
        <time>2024-08-03T07:15:50Z</time>
      </trkpt>
      <trkpt lat="47.27707" lon="6.00008">
        <ele>352.8</ele>
        <time>2024-08-03T07:15:51Z</time>
      </trkpt>
      <trkpt lat="47.27709" lon="6.00005">
        <ele>352.6</ele>
        <time>2024-08-03T07:15:52Z</time>
      </trkpt>
      <trkpt lat="47.27711" lon="5.99999">
        <ele>352.4</ele>
        <time>2024-08-03T07:15:53Z</time>
      </trkpt>
      <trkpt lat="47.27713" lon="5.99996">
        <ele>352.4</ele>
        <time>2024-08-03T07:15:54Z</time>
      </trkpt>
      <trkpt lat="47.27715" lon="5.99993">
        <ele>352.2</ele>
        <time>2024-08-03T07:15:55Z</time>
      </trkpt>
      <trkpt lat="47.27717" lon="5.9999">
        <ele>352.2</ele>
        <time>2024-08-03T07:15:56Z</time>
      </trkpt>
      <trkpt lat="47.27719" lon="5.99987">
        <ele>352.2</ele>
        <time>2024-08-03T07:15:57Z</time>
      </trkpt>
      <trkpt lat="47.2772" lon="5.99984">
        <ele>352</ele>
        <time>2024-08-03T07:15:58Z</time>
      </trkpt>
      <trkpt lat="47.27722" lon="5.99979">
        <ele>351.8</ele>
        <time>2024-08-03T07:15:59Z</time>
      </trkpt>
      <trkpt lat="47.27724" lon="5.99974">
        <ele>351.6</ele>
        <time>2024-08-03T07:16:00Z</time>
      </trkpt>
      <trkpt lat="47.27726" lon="5.99969">
        <ele>351.2</ele>
        <time>2024-08-03T07:16:01Z</time>
      </trkpt>
      <trkpt lat="47.27727" lon="5.99965">
        <ele>351</ele>
        <time>2024-08-03T07:16:02Z</time>
      </trkpt>
      <trkpt lat="47.27728" lon="5.9996">
        <ele>350.8</ele>
        <time>2024-08-03T07:16:03Z</time>
      </trkpt>
      <trkpt lat="47.27729" lon="5.99956">
        <ele>350.4</ele>
        <time>2024-08-03T07:16:04Z</time>
      </trkpt>
      <trkpt lat="47.27731" lon="5.99952">
        <ele>350.2</ele>
        <time>2024-08-03T07:16:05Z</time>
      </trkpt>
      <trkpt lat="47.27734" lon="5.99948">
        <ele>350</ele>
        <time>2024-08-03T07:16:06Z</time>
      </trkpt>
      <trkpt lat="47.27738" lon="5.99944">
        <ele>350</ele>
        <time>2024-08-03T07:16:07Z</time>
      </trkpt>
      <trkpt lat="47.27742" lon="5.99939">
        <ele>349.8</ele>
        <time>2024-08-03T07:16:08Z</time>
      </trkpt>
      <trkpt lat="47.27747" lon="5.99935">
        <ele>349.6</ele>
        <time>2024-08-03T07:16:09Z</time>
      </trkpt>
      <trkpt lat="47.27752" lon="5.99929">
        <ele>349.4</ele>
        <time>2024-08-03T07:16:10Z</time>
      </trkpt>
      <trkpt lat="47.27756" lon="5.99922">
        <ele>349</ele>
        <time>2024-08-03T07:16:11Z</time>
      </trkpt>
      <trkpt lat="47.27761" lon="5.99914">
        <ele>348.6</ele>
        <time>2024-08-03T07:16:12Z</time>
      </trkpt>
      <trkpt lat="47.27766" lon="5.99906">
        <ele>348.4</ele>
        <time>2024-08-03T07:16:13Z</time>
      </trkpt>
      <trkpt lat="47.27772" lon="5.99896">
        <ele>347.8</ele>
        <time>2024-08-03T07:16:14Z</time>
      </trkpt>
      <trkpt lat="47.27777" lon="5.99887">
        <ele>347.2</ele>
        <time>2024-08-03T07:16:15Z</time>
      </trkpt>
      <trkpt lat="47.27783" lon="5.99878">
        <ele>346.8</ele>
        <time>2024-08-03T07:16:16Z</time>
      </trkpt>
      <trkpt lat="47.27789" lon="5.9987">
        <ele>346.6</ele>
        <time>2024-08-03T07:16:17Z</time>
      </trkpt>
      <trkpt lat="47.27796" lon="5.99863">
        <ele>346.2</ele>
        <time>2024-08-03T07:16:18Z</time>
      </trkpt>
      <trkpt lat="47.27804" lon="5.99857">
        <ele>346</ele>
        <time>2024-08-03T07:16:19Z</time>
      </trkpt>
      <trkpt lat="47.27812" lon="5.99853">
        <ele>345.4</ele>
        <time>2024-08-03T07:16:20Z</time>
      </trkpt>
      <trkpt lat="47.27821" lon="5.99849">
        <ele>344.8</ele>
        <time>2024-08-03T07:16:21Z</time>
      </trkpt>
      <trkpt lat="47.2783" lon="5.99846">
        <ele>344.4</ele>
        <time>2024-08-03T07:16:22Z</time>
      </trkpt>
      <trkpt lat="47.27839" lon="5.99843">
        <ele>343.8</ele>
        <time>2024-08-03T07:16:23Z</time>
      </trkpt>
      <trkpt lat="47.27848" lon="5.99839">
        <ele>343.2</ele>
        <time>2024-08-03T07:16:24Z</time>
      </trkpt>
      <trkpt lat="47.27857" lon="5.99833">
        <ele>343</ele>
        <time>2024-08-03T07:16:25Z</time>
      </trkpt>
      <trkpt lat="47.27865" lon="5.99829">
        <ele>342.6</ele>
        <time>2024-08-03T07:16:26Z</time>
      </trkpt>
      <trkpt lat="47.27871" lon="5.99824">
        <ele>342</ele>
        <time>2024-08-03T07:16:27Z</time>
      </trkpt>
      <trkpt lat="47.27878" lon="5.99819">
        <ele>341.6</ele>
        <time>2024-08-03T07:16:28Z</time>
      </trkpt>
      <trkpt lat="47.27884" lon="5.99814">
        <ele>341.6</ele>
        <time>2024-08-03T07:16:29Z</time>
      </trkpt>
      <trkpt lat="47.2789" lon="5.9981">
        <ele>341.2</ele>
        <time>2024-08-03T07:16:30Z</time>
      </trkpt>
      <trkpt lat="47.27896" lon="5.99805">
        <ele>340.8</ele>
        <time>2024-08-03T07:16:31Z</time>
      </trkpt>
      <trkpt lat="47.27901" lon="5.99801">
        <ele>340.6</ele>
        <time>2024-08-03T07:16:32Z</time>
      </trkpt>
      <trkpt lat="47.27906" lon="5.99798">
        <ele>340.4</ele>
        <time>2024-08-03T07:16:33Z</time>
      </trkpt>
      <trkpt lat="47.27911" lon="5.99796">
        <ele>340.2</ele>
        <time>2024-08-03T07:16:34Z</time>
      </trkpt>
      <trkpt lat="47.27915" lon="5.99794">
        <ele>340.2</ele>
        <time>2024-08-03T07:16:35Z</time>
      </trkpt>
      <trkpt lat="47.27919" lon="5.99792">
        <ele>340</ele>
        <time>2024-08-03T07:16:36Z</time>
      </trkpt>
      <trkpt lat="47.27922" lon="5.9979">
        <ele>340</ele>
        <time>2024-08-03T07:16:37Z</time>
      </trkpt>
      <trkpt lat="47.27924" lon="5.99788">
        <ele>339.8</ele>
        <time>2024-08-03T07:16:38Z</time>
      </trkpt>
      <trkpt lat="47.27927" lon="5.99787">
        <ele>339.8</ele>
        <time>2024-08-03T07:16:39Z</time>
      </trkpt>
      <trkpt lat="47.2793" lon="5.99785">
        <ele>339.8</ele>
        <time>2024-08-03T07:16:40Z</time>
      </trkpt>
      <trkpt lat="47.27932" lon="5.99783">
        <ele>339.8</ele>
        <time>2024-08-03T07:16:41Z</time>
      </trkpt>
      <trkpt lat="47.27935" lon="5.99782">
        <ele>339.8</ele>
        <time>2024-08-03T07:16:42Z</time>
      </trkpt>
      <trkpt lat="47.27938" lon="5.9978">
        <ele>339.8</ele>
        <time>2024-08-03T07:16:43Z</time>
      </trkpt>
      <trkpt lat="47.27941" lon="5.99778">
        <ele>339.6</ele>
        <time>2024-08-03T07:16:44Z</time>
      </trkpt>
      <trkpt lat="47.27944" lon="5.99777">
        <ele>339.8</ele>
        <time>2024-08-03T07:16:45Z</time>
      </trkpt>
      <trkpt lat="47.27947" lon="5.99775">
        <ele>339.8</ele>
        <time>2024-08-03T07:16:46Z</time>
      </trkpt>
      <trkpt lat="47.2795" lon="5.99774">
        <ele>339.6</ele>
        <time>2024-08-03T07:16:47Z</time>
      </trkpt>
      <trkpt lat="47.27952" lon="5.99773">
        <ele>339.6</ele>
        <time>2024-08-03T07:16:48Z</time>
      </trkpt>
      <trkpt lat="47.27954" lon="5.99772">
        <ele>339.8</ele>
        <time>2024-08-03T07:16:49Z</time>
      </trkpt>
      <trkpt lat="47.27956" lon="5.99772">
        <ele>339.8</ele>
        <time>2024-08-03T07:16:50Z</time>
      </trkpt>
      <trkpt lat="47.27958" lon="5.99771">
        <ele>339.8</ele>
        <time>2024-08-03T07:16:51Z</time>
      </trkpt>
      <trkpt lat="47.27959" lon="5.9977">
        <ele>340</ele>
        <time>2024-08-03T07:16:52Z</time>
      </trkpt>
      <trkpt lat="47.2796" lon="5.9977">
        <ele>340.2</ele>
        <time>2024-08-03T07:16:53Z</time>
      </trkpt>
      <trkpt lat="47.27961" lon="5.99769">
        <ele>340</ele>
        <time>2024-08-03T07:16:54Z</time>
      </trkpt>
      <trkpt lat="47.27962" lon="5.99768">
        <ele>340.2</ele>
        <time>2024-08-03T07:16:55Z</time>
      </trkpt>
      <trkpt lat="47.27963" lon="5.99768">
        <ele>340.4</ele>
        <time>2024-08-03T07:16:56Z</time>
      </trkpt>
      <trkpt lat="47.27964" lon="5.99767">
        <ele>340.6</ele>
        <time>2024-08-03T07:16:57Z</time>
      </trkpt>
      <trkpt lat="47.27965" lon="5.99767">
        <ele>340.6</ele>
        <time>2024-08-03T07:16:58Z</time>
      </trkpt>
      <trkpt lat="47.27966" lon="5.99766">
        <ele>340.8</ele>
        <time>2024-08-03T07:16:59Z</time>
      </trkpt>
      <trkpt lat="47.27967" lon="5.99765">
        <ele>340.8</ele>
        <time>2024-08-03T07:17:00Z</time>
      </trkpt>
      <trkpt lat="47.27968" lon="5.99765">
        <ele>341.2</ele>
        <time>2024-08-03T07:17:01Z</time>
      </trkpt>
      <trkpt lat="47.27969" lon="5.99764">
        <ele>341.2</ele>
        <time>2024-08-03T07:17:02Z</time>
      </trkpt>
      <trkpt lat="47.2797" lon="5.99763">
        <ele>341.6</ele>
        <time>2024-08-03T07:17:03Z</time>
      </trkpt>
      <trkpt lat="47.27972" lon="5.99761">
        <ele>341.8</ele>
        <time>2024-08-03T07:17:04Z</time>
      </trkpt>
      <trkpt lat="47.27974" lon="5.99759">
        <ele>341.8</ele>
        <time>2024-08-03T07:17:05Z</time>
      </trkpt>
      <trkpt lat="47.27975" lon="5.99757">
        <ele>341.8</ele>
        <time>2024-08-03T07:17:06Z</time>
      </trkpt>
      <trkpt lat="47.27977" lon="5.99755">
        <ele>342.2</ele>
        <time>2024-08-03T07:17:07Z</time>
      </trkpt>
      <trkpt lat="47.27978" lon="5.99754">
        <ele>342.2</ele>
        <time>2024-08-03T07:17:08Z</time>
      </trkpt>
      <trkpt lat="47.2798" lon="5.99752">
        <ele>342.4</ele>
        <time>2024-08-03T07:17:09Z</time>
      </trkpt>
      <trkpt lat="47.27981" lon="5.9975">
        <ele>342.6</ele>
        <time>2024-08-03T07:17:10Z</time>
      </trkpt>
      <trkpt lat="47.27983" lon="5.99748">
        <ele>342.8</ele>
        <time>2024-08-03T07:17:11Z</time>
      </trkpt>
      <trkpt lat="47.27984" lon="5.99745">
        <ele>342.6</ele>
        <time>2024-08-03T07:17:12Z</time>
      </trkpt>
      <trkpt lat="47.27986" lon="5.99742">
        <ele>342.6</ele>
        <time>2024-08-03T07:17:13Z</time>
      </trkpt>
      <trkpt lat="47.27987" lon="5.99741">
        <ele>342.8</ele>
        <time>2024-08-03T07:17:14Z</time>
      </trkpt>
      <trkpt lat="47.27989" lon="5.99741">
        <ele>343</ele>
        <time>2024-08-03T07:17:15Z</time>
      </trkpt>
      <trkpt lat="47.2799" lon="5.99742">
        <ele>343.2</ele>
        <time>2024-08-03T07:17:16Z</time>
      </trkpt>
      <trkpt lat="47.27991" lon="5.99743">
        <ele>343.2</ele>
        <time>2024-08-03T07:17:17Z</time>
      </trkpt>
      <trkpt lat="47.27992" lon="5.99745">
        <ele>343.6</ele>
        <time>2024-08-03T07:17:18Z</time>
      </trkpt>
      <trkpt lat="47.27993" lon="5.99747">
        <ele>343.6</ele>
        <time>2024-08-03T07:17:19Z</time>
      </trkpt>
      <trkpt lat="47.27994" lon="5.9975">
        <ele>343.8</ele>
        <time>2024-08-03T07:17:20Z</time>
      </trkpt>
      <trkpt lat="47.27994" lon="5.99753">
        <ele>344</ele>
        <time>2024-08-03T07:17:21Z</time>
      </trkpt>
      <trkpt lat="47.27995" lon="5.99756">
        <ele>344.2</ele>
        <time>2024-08-03T07:17:22Z</time>
      </trkpt>
      <trkpt lat="47.27996" lon="5.99759">
        <ele>344.2</ele>
        <time>2024-08-03T07:17:23Z</time>
      </trkpt>
      <trkpt lat="47.27998" lon="5.99761">
        <ele>344.4</ele>
        <time>2024-08-03T07:17:24Z</time>
      </trkpt>
      <trkpt lat="47.27999" lon="5.99764">
        <ele>344.8</ele>
        <time>2024-08-03T07:17:25Z</time>
      </trkpt>
      <trkpt lat="47.28001" lon="5.99766">
        <ele>345</ele>
        <time>2024-08-03T07:17:26Z</time>
      </trkpt>
      <trkpt lat="47.28002" lon="5.99768">
        <ele>345</ele>
        <time>2024-08-03T07:17:27Z</time>
      </trkpt>
      <trkpt lat="47.28004" lon="5.9977">
        <ele>345.4</ele>
        <time>2024-08-03T07:17:28Z</time>
      </trkpt>
      <trkpt lat="47.28005" lon="5.99773">
        <ele>345.8</ele>
        <time>2024-08-03T07:17:29Z</time>
      </trkpt>
      <trkpt lat="47.28007" lon="5.99776">
        <ele>345.6</ele>
        <time>2024-08-03T07:17:30Z</time>
      </trkpt>
      <trkpt lat="47.28008" lon="5.99778">
        <ele>345.8</ele>
        <time>2024-08-03T07:17:31Z</time>
      </trkpt>
      <trkpt lat="47.2801" lon="5.99781">
        <ele>346.2</ele>
        <time>2024-08-03T07:17:32Z</time>
      </trkpt>
      <trkpt lat="47.28011" lon="5.99784">
        <ele>346.2</ele>
        <time>2024-08-03T07:17:33Z</time>
      </trkpt>
      <trkpt lat="47.28013" lon="5.99787">
        <ele>346.4</ele>
        <time>2024-08-03T07:17:34Z</time>
      </trkpt>
      <trkpt lat="47.28014" lon="5.9979">
        <ele>346.4</ele>
        <time>2024-08-03T07:17:35Z</time>
      </trkpt>
      <trkpt lat="47.28016" lon="5.99793">
        <ele>346.4</ele>
        <time>2024-08-03T07:17:36Z</time>
      </trkpt>
      <trkpt lat="47.28018" lon="5.99796">
        <ele>346.8</ele>
        <time>2024-08-03T07:17:37Z</time>
      </trkpt>
      <trkpt lat="47.28019" lon="5.99799">
        <ele>347</ele>
        <time>2024-08-03T07:17:38Z</time>
      </trkpt>
      <trkpt lat="47.28021" lon="5.99801">
        <ele>347</ele>
        <time>2024-08-03T07:17:39Z</time>
      </trkpt>
      <trkpt lat="47.28022" lon="5.99804">
        <ele>347.2</ele>
        <time>2024-08-03T07:17:40Z</time>
      </trkpt>
      <trkpt lat="47.28024" lon="5.99807">
        <ele>347.4</ele>
        <time>2024-08-03T07:17:41Z</time>
      </trkpt>
      <trkpt lat="47.28026" lon="5.99809">
        <ele>347.6</ele>
        <time>2024-08-03T07:17:42Z</time>
      </trkpt>
      <trkpt lat="47.28029" lon="5.99811">
        <ele>347.6</ele>
        <time>2024-08-03T07:17:43Z</time>
      </trkpt>
      <trkpt lat="47.28031" lon="5.99813">
        <ele>347.8</ele>
        <time>2024-08-03T07:17:44Z</time>
      </trkpt>
      <trkpt lat="47.28034" lon="5.99814">
        <ele>347.8</ele>
        <time>2024-08-03T07:17:45Z</time>
      </trkpt>
      <trkpt lat="47.28036" lon="5.99817">
        <ele>348</ele>
        <time>2024-08-03T07:17:46Z</time>
      </trkpt>
      <trkpt lat="47.28038" lon="5.9982">
        <ele>348.2</ele>
        <time>2024-08-03T07:17:47Z</time>
      </trkpt>
      <trkpt lat="47.2804" lon="5.99822">
        <ele>348.4</ele>
        <time>2024-08-03T07:17:48Z</time>
      </trkpt>
      <trkpt lat="47.28043" lon="5.99825">
        <ele>348.4</ele>
        <time>2024-08-03T07:17:49Z</time>
      </trkpt>
      <trkpt lat="47.28046" lon="5.99828">
        <ele>348.6</ele>
        <time>2024-08-03T07:17:50Z</time>
      </trkpt>
      <trkpt lat="47.28048" lon="5.99831">
        <ele>348.6</ele>
        <time>2024-08-03T07:17:51Z</time>
      </trkpt>
      <trkpt lat="47.28051" lon="5.99833">
        <ele>348.8</ele>
        <time>2024-08-03T07:17:52Z</time>
      </trkpt>
      <trkpt lat="47.28054" lon="5.99835">
        <ele>348.8</ele>
        <time>2024-08-03T07:17:53Z</time>
      </trkpt>
      <trkpt lat="47.28056" lon="5.99838">
        <ele>348.8</ele>
        <time>2024-08-03T07:17:54Z</time>
      </trkpt>
      <trkpt lat="47.28058" lon="5.99841">
        <ele>348.8</ele>
        <time>2024-08-03T07:17:55Z</time>
      </trkpt>
      <trkpt lat="47.2806" lon="5.99845">
        <ele>348.8</ele>
        <time>2024-08-03T07:17:56Z</time>
      </trkpt>
      <trkpt lat="47.28061" lon="5.99848">
        <ele>348.8</ele>
        <time>2024-08-03T07:17:57Z</time>
      </trkpt>
      <trkpt lat="47.28063" lon="5.99851">
        <ele>349</ele>
        <time>2024-08-03T07:17:58Z</time>
      </trkpt>
      <trkpt lat="47.28064" lon="5.99854">
        <ele>349.2</ele>
        <time>2024-08-03T07:17:59Z</time>
      </trkpt>
      <trkpt lat="47.28066" lon="5.99857">
        <ele>349.4</ele>
        <time>2024-08-03T07:18:00Z</time>
      </trkpt>
      <trkpt lat="47.28067" lon="5.9986">
        <ele>349.4</ele>
        <time>2024-08-03T07:18:01Z</time>
      </trkpt>
      <trkpt lat="47.28068" lon="5.99862">
        <ele>349.6</ele>
        <time>2024-08-03T07:18:02Z</time>
      </trkpt>
      <trkpt lat="47.28069" lon="5.99864">
        <ele>349.6</ele>
        <time>2024-08-03T07:18:03Z</time>
      </trkpt>
      <trkpt lat="47.2807" lon="5.99868">
        <ele>349.8</ele>
        <time>2024-08-03T07:18:04Z</time>
      </trkpt>
      <trkpt lat="47.28071" lon="5.99871">
        <ele>350</ele>
        <time>2024-08-03T07:18:05Z</time>
      </trkpt>
      <trkpt lat="47.28071" lon="5.99875">
        <ele>349.8</ele>
        <time>2024-08-03T07:18:06Z</time>
      </trkpt>
      <trkpt lat="47.28072" lon="5.99878">
        <ele>350</ele>
        <time>2024-08-03T07:18:07Z</time>
      </trkpt>
      <trkpt lat="47.28073" lon="5.99881">
        <ele>350.2</ele>
        <time>2024-08-03T07:18:08Z</time>
      </trkpt>
      <trkpt lat="47.28074" lon="5.99883">
        <ele>350.2</ele>
        <time>2024-08-03T07:18:09Z</time>
      </trkpt>
      <trkpt lat="47.28074" lon="5.99886">
        <ele>350.2</ele>
        <time>2024-08-03T07:18:10Z</time>
      </trkpt>
      <trkpt lat="47.28075" lon="5.99888">
        <ele>350.2</ele>
        <time>2024-08-03T07:18:11Z</time>
      </trkpt>
      <trkpt lat="47.28076" lon="5.99891">
        <ele>350.4</ele>
        <time>2024-08-03T07:18:12Z</time>
      </trkpt>
      <trkpt lat="47.28076" lon="5.99895">
        <ele>350.2</ele>
        <time>2024-08-03T07:18:13Z</time>
      </trkpt>
      <trkpt lat="47.28076" lon="5.99898">
        <ele>350.4</ele>
        <time>2024-08-03T07:18:14Z</time>
      </trkpt>
      <trkpt lat="47.28076" lon="5.99902">
        <ele>350.4</ele>
        <time>2024-08-03T07:18:15Z</time>
      </trkpt>
      <trkpt lat="47.28077" lon="5.99905">
        <ele>350.4</ele>
        <time>2024-08-03T07:18:16Z</time>
      </trkpt>
      <trkpt lat="47.28077" lon="5.9991">
        <ele>350.4</ele>
        <time>2024-08-03T07:18:17Z</time>
      </trkpt>
      <trkpt lat="47.28077" lon="5.99914">
        <ele>350.2</ele>
        <time>2024-08-03T07:18:18Z</time>
      </trkpt>
      <trkpt lat="47.28078" lon="5.99918">
        <ele>350.2</ele>
        <time>2024-08-03T07:18:19Z</time>
      </trkpt>
      <trkpt lat="47.28079" lon="5.99922">
        <ele>350.4</ele>
        <time>2024-08-03T07:18:20Z</time>
      </trkpt>
      <trkpt lat="47.28079" lon="5.99927">
        <ele>350.4</ele>
        <time>2024-08-03T07:18:21Z</time>
      </trkpt>
      <trkpt lat="47.2808" lon="5.99931">
        <ele>350.4</ele>
        <time>2024-08-03T07:18:22Z</time>
      </trkpt>
      <trkpt lat="47.28082" lon="5.99935">
        <ele>350.2</ele>
        <time>2024-08-03T07:18:23Z</time>
      </trkpt>
      <trkpt lat="47.28083" lon="5.9994">
        <ele>350.2</ele>
        <time>2024-08-03T07:18:24Z</time>
      </trkpt>
      <trkpt lat="47.28085" lon="5.99944">
        <ele>350.2</ele>
        <time>2024-08-03T07:18:25Z</time>
      </trkpt>
      <trkpt lat="47.28086" lon="5.99947">
        <ele>350.2</ele>
        <time>2024-08-03T07:18:26Z</time>
      </trkpt>
      <trkpt lat="47.28087" lon="5.99951">
        <ele>349.8</ele>
        <time>2024-08-03T07:18:27Z</time>
      </trkpt>
      <trkpt lat="47.28088" lon="5.99954">
        <ele>349.8</ele>
        <time>2024-08-03T07:18:28Z</time>
      </trkpt>
      <trkpt lat="47.28089" lon="5.99956">
        <ele>349.8</ele>
        <time>2024-08-03T07:18:29Z</time>
      </trkpt>
      <trkpt lat="47.2809" lon="5.99959">
        <ele>349.6</ele>
        <time>2024-08-03T07:18:30Z</time>
      </trkpt>
      <trkpt lat="47.28091" lon="5.99961">
        <ele>349.4</ele>
        <time>2024-08-03T07:18:31Z</time>
      </trkpt>
      <trkpt lat="47.28092" lon="5.99963">
        <ele>349.4</ele>
        <time>2024-08-03T07:18:32Z</time>
      </trkpt>
      <trkpt lat="47.28094" lon="5.99966">
        <ele>349.2</ele>
        <time>2024-08-03T07:18:33Z</time>
      </trkpt>
      <trkpt lat="47.28096" lon="5.99968">
        <ele>349</ele>
        <time>2024-08-03T07:18:34Z</time>
      </trkpt>
      <trkpt lat="47.28099" lon="5.99971">
        <ele>349</ele>
        <time>2024-08-03T07:18:35Z</time>
      </trkpt>
      <trkpt lat="47.28101" lon="5.99972">
        <ele>349</ele>
        <time>2024-08-03T07:18:36Z</time>
      </trkpt>
      <trkpt lat="47.28103" lon="5.99974">
        <ele>349</ele>
        <time>2024-08-03T07:18:37Z</time>
      </trkpt>
      <trkpt lat="47.28105" lon="5.99976">
        <ele>349</ele>
        <time>2024-08-03T07:18:38Z</time>
      </trkpt>
      <trkpt lat="47.28108" lon="5.99978">
        <ele>349</ele>
        <time>2024-08-03T07:18:39Z</time>
      </trkpt>
      <trkpt lat="47.2811" lon="5.99979">
        <ele>349</ele>
        <time>2024-08-03T07:18:40Z</time>
      </trkpt>
      <trkpt lat="47.28112" lon="5.9998">
        <ele>349.2</ele>
        <time>2024-08-03T07:18:41Z</time>
      </trkpt>
      <trkpt lat="47.28114" lon="5.99982">
        <ele>349</ele>
        <time>2024-08-03T07:18:42Z</time>
      </trkpt>
      <trkpt lat="47.28116" lon="5.99983">
        <ele>349</ele>
        <time>2024-08-03T07:18:43Z</time>
      </trkpt>
      <trkpt lat="47.28118" lon="5.99984">
        <ele>349</ele>
        <time>2024-08-03T07:18:44Z</time>
      </trkpt>
      <trkpt lat="47.2812" lon="5.99985">
        <ele>349</ele>
        <time>2024-08-03T07:18:45Z</time>
      </trkpt>
      <trkpt lat="47.28121" lon="5.99986">
        <ele>349.2</ele>
        <time>2024-08-03T07:18:46Z</time>
      </trkpt>
      <trkpt lat="47.28123" lon="5.99988">
        <ele>349.2</ele>
        <time>2024-08-03T07:18:47Z</time>
      </trkpt>
      <trkpt lat="47.28124" lon="5.99989">
        <ele>349.2</ele>
        <time>2024-08-03T07:18:48Z</time>
      </trkpt>
      <trkpt lat="47.28126" lon="5.99991">
        <ele>349.4</ele>
        <time>2024-08-03T07:18:49Z</time>
      </trkpt>
      <trkpt lat="47.28128" lon="5.99994">
        <ele>349.8</ele>
        <time>2024-08-03T07:18:50Z</time>
      </trkpt>
      <trkpt lat="47.2813" lon="5.99996">
        <ele>349.8</ele>
        <time>2024-08-03T07:18:51Z</time>
      </trkpt>
      <trkpt lat="47.28133" lon="5.99998">
        <ele>349.8</ele>
        <time>2024-08-03T07:18:52Z</time>
      </trkpt>
      <trkpt lat="47.28136" lon="6.00001">
        <ele>350.2</ele>
        <time>2024-08-03T07:18:53Z</time>
      </trkpt>
      <trkpt lat="47.28139" lon="6.00003">
        <ele>350.2</ele>
        <time>2024-08-03T07:18:54Z</time>
      </trkpt>
      <trkpt lat="47.28141" lon="6.00005">
        <ele>350.6</ele>
        <time>2024-08-03T07:18:55Z</time>
      </trkpt>
      <trkpt lat="47.28142" lon="6.0001">
        <ele>350.8</ele>
        <time>2024-08-03T07:18:56Z</time>
      </trkpt>
      <trkpt lat="47.28144" lon="6.00013">
        <ele>350.8</ele>
        <time>2024-08-03T07:18:57Z</time>
      </trkpt>
      <trkpt lat="47.28145" lon="6.00018">
        <ele>351</ele>
        <time>2024-08-03T07:18:58Z</time>
      </trkpt>
      <trkpt lat="47.28146" lon="6.00021">
        <ele>351.2</ele>
        <time>2024-08-03T07:18:59Z</time>
      </trkpt>
      <trkpt lat="47.28148" lon="6.00024">
        <ele>351.4</ele>
        <time>2024-08-03T07:19:00Z</time>
      </trkpt>
      <trkpt lat="47.28149" lon="6.00026">
        <ele>351.4</ele>
        <time>2024-08-03T07:19:01Z</time>
      </trkpt>
      <trkpt lat="47.2815" lon="6.00029">
        <ele>351.4</ele>
        <time>2024-08-03T07:19:02Z</time>
      </trkpt>
      <trkpt lat="47.28152" lon="6.00031">
        <ele>351.6</ele>
        <time>2024-08-03T07:19:03Z</time>
      </trkpt>
      <trkpt lat="47.28154" lon="6.00034">
        <ele>351.8</ele>
        <time>2024-08-03T07:19:04Z</time>
      </trkpt>
      <trkpt lat="47.28156" lon="6.00037">
        <ele>352</ele>
        <time>2024-08-03T07:19:05Z</time>
      </trkpt>
      <trkpt lat="47.28158" lon="6.00039">
        <ele>352</ele>
        <time>2024-08-03T07:19:06Z</time>
      </trkpt>
      <trkpt lat="47.2816" lon="6.00042">
        <ele>352</ele>
        <time>2024-08-03T07:19:07Z</time>
      </trkpt>
      <trkpt lat="47.28162" lon="6.00044">
        <ele>352</ele>
        <time>2024-08-03T07:19:08Z</time>
      </trkpt>
      <trkpt lat="47.28164" lon="6.00047">
        <ele>352.2</ele>
        <time>2024-08-03T07:19:09Z</time>
      </trkpt>
      <trkpt lat="47.28166" lon="6.00049">
        <ele>352.2</ele>
        <time>2024-08-03T07:19:10Z</time>
      </trkpt>
      <trkpt lat="47.28167" lon="6.00052">
        <ele>352.2</ele>
        <time>2024-08-03T07:19:11Z</time>
      </trkpt>
      <trkpt lat="47.28169" lon="6.00054">
        <ele>352.2</ele>
        <time>2024-08-03T07:19:12Z</time>
      </trkpt>
      <trkpt lat="47.28171" lon="6.00057">
        <ele>352.4</ele>
        <time>2024-08-03T07:19:13Z</time>
      </trkpt>
      <trkpt lat="47.28173" lon="6.0006">
        <ele>352.4</ele>
        <time>2024-08-03T07:19:14Z</time>
      </trkpt>
      <trkpt lat="47.28175" lon="6.00063">
        <ele>352.4</ele>
        <time>2024-08-03T07:19:15Z</time>
      </trkpt>
      <trkpt lat="47.28177" lon="6.00066">
        <ele>352.8</ele>
        <time>2024-08-03T07:19:16Z</time>
      </trkpt>
      <trkpt lat="47.28179" lon="6.00068">
        <ele>352.8</ele>
        <time>2024-08-03T07:19:17Z</time>
      </trkpt>
      <trkpt lat="47.28182" lon="6.0007">
        <ele>352.8</ele>
        <time>2024-08-03T07:19:18Z</time>
      </trkpt>
      <trkpt lat="47.28185" lon="6.00072">
        <ele>353</ele>
        <time>2024-08-03T07:19:19Z</time>
      </trkpt>
      <trkpt lat="47.28188" lon="6.00074">
        <ele>353</ele>
        <time>2024-08-03T07:19:20Z</time>
      </trkpt>
      <trkpt lat="47.2819" lon="6.00076">
        <ele>353.2</ele>
        <time>2024-08-03T07:19:21Z</time>
      </trkpt>
      <trkpt lat="47.28193" lon="6.00078">
        <ele>353.2</ele>
        <time>2024-08-03T07:19:22Z</time>
      </trkpt>
      <trkpt lat="47.28195" lon="6.0008">
        <ele>353.2</ele>
        <time>2024-08-03T07:19:23Z</time>
      </trkpt>
      <trkpt lat="47.28197" lon="6.00082">
        <ele>353.2</ele>
        <time>2024-08-03T07:19:24Z</time>
      </trkpt>
      <trkpt lat="47.28199" lon="6.00084">
        <ele>353.2</ele>
        <time>2024-08-03T07:19:25Z</time>
      </trkpt>
      <trkpt lat="47.28201" lon="6.00086">
        <ele>353.2</ele>
        <time>2024-08-03T07:19:26Z</time>
      </trkpt>
      <trkpt lat="47.28203" lon="6.00088">
        <ele>353.2</ele>
        <time>2024-08-03T07:19:27Z</time>
      </trkpt>
      <trkpt lat="47.28205" lon="6.00089">
        <ele>353.2</ele>
        <time>2024-08-03T07:19:28Z</time>
      </trkpt>
      <trkpt lat="47.28207" lon="6.00091">
        <ele>353.4</ele>
        <time>2024-08-03T07:19:29Z</time>
      </trkpt>
      <trkpt lat="47.28209" lon="6.00092">
        <ele>353.6</ele>
        <time>2024-08-03T07:19:30Z</time>
      </trkpt>
      <trkpt lat="47.28211" lon="6.00094">
        <ele>353.6</ele>
        <time>2024-08-03T07:19:31Z</time>
      </trkpt>
      <trkpt lat="47.28213" lon="6.00096">
        <ele>353.8</ele>
        <time>2024-08-03T07:19:32Z</time>
      </trkpt>
      <trkpt lat="47.28216" lon="6.00097">
        <ele>353.8</ele>
        <time>2024-08-03T07:19:33Z</time>
      </trkpt>
      <trkpt lat="47.28218" lon="6.00099">
        <ele>354</ele>
        <time>2024-08-03T07:19:34Z</time>
      </trkpt>
      <trkpt lat="47.28221" lon="6.00101">
        <ele>354</ele>
        <time>2024-08-03T07:19:35Z</time>
      </trkpt>
      <trkpt lat="47.28223" lon="6.00103">
        <ele>354.2</ele>
        <time>2024-08-03T07:19:36Z</time>
      </trkpt>
      <trkpt lat="47.28225" lon="6.00104">
        <ele>354.4</ele>
        <time>2024-08-03T07:19:37Z</time>
      </trkpt>
      <trkpt lat="47.28227" lon="6.00106">
        <ele>354.4</ele>
        <time>2024-08-03T07:19:38Z</time>
      </trkpt>
      <trkpt lat="47.2823" lon="6.00108">
        <ele>354.4</ele>
        <time>2024-08-03T07:19:39Z</time>
      </trkpt>
      <trkpt lat="47.28231" lon="6.00111">
        <ele>354.4</ele>
        <time>2024-08-03T07:19:40Z</time>
      </trkpt>
      <trkpt lat="47.28233" lon="6.00113">
        <ele>354.4</ele>
        <time>2024-08-03T07:19:41Z</time>
      </trkpt>
      <trkpt lat="47.28235" lon="6.00115">
        <ele>354.4</ele>
        <time>2024-08-03T07:19:42Z</time>
      </trkpt>
      <trkpt lat="47.28237" lon="6.00117">
        <ele>354.4</ele>
        <time>2024-08-03T07:19:43Z</time>
      </trkpt>
      <trkpt lat="47.2824" lon="6.0012">
        <ele>354.4</ele>
        <time>2024-08-03T07:19:44Z</time>
      </trkpt>
      <trkpt lat="47.28243" lon="6.00122">
        <ele>354.4</ele>
        <time>2024-08-03T07:19:45Z</time>
      </trkpt>
      <trkpt lat="47.28246" lon="6.00124">
        <ele>354.4</ele>
        <time>2024-08-03T07:19:46Z</time>
      </trkpt>
      <trkpt lat="47.28249" lon="6.00125">
        <ele>354.6</ele>
        <time>2024-08-03T07:19:47Z</time>
      </trkpt>
      <trkpt lat="47.28253" lon="6.00127">
        <ele>354.4</ele>
        <time>2024-08-03T07:19:48Z</time>
      </trkpt>
      <trkpt lat="47.28257" lon="6.00129">
        <ele>354.6</ele>
        <time>2024-08-03T07:19:49Z</time>
      </trkpt>
      <trkpt lat="47.28259" lon="6.0013">
        <ele>354.4</ele>
        <time>2024-08-03T07:19:50Z</time>
      </trkpt>
      <trkpt lat="47.28261" lon="6.0013">
        <ele>354.4</ele>
        <time>2024-08-03T07:19:51Z</time>
      </trkpt>
      <trkpt lat="47.28264" lon="6.00131">
        <ele>354</ele>
        <time>2024-08-03T07:19:52Z</time>
      </trkpt>
      <trkpt lat="47.28266" lon="6.00132">
        <ele>354</ele>
        <time>2024-08-03T07:19:53Z</time>
      </trkpt>
      <trkpt lat="47.2827" lon="6.00133">
        <ele>354</ele>
        <time>2024-08-03T07:19:54Z</time>
      </trkpt>
      <trkpt lat="47.28274" lon="6.00133">
        <ele>353.8</ele>
        <time>2024-08-03T07:19:55Z</time>
      </trkpt>
      <trkpt lat="47.28277" lon="6.00133">
        <ele>353.6</ele>
        <time>2024-08-03T07:19:56Z</time>
      </trkpt>
      <trkpt lat="47.28282" lon="6.00134">
        <ele>353.4</ele>
        <time>2024-08-03T07:19:57Z</time>
      </trkpt>
      <trkpt lat="47.28286" lon="6.00134">
        <ele>353.4</ele>
        <time>2024-08-03T07:19:58Z</time>
      </trkpt>
      <trkpt lat="47.28292" lon="6.00134">
        <ele>353.2</ele>
        <time>2024-08-03T07:19:59Z</time>
      </trkpt>
      <trkpt lat="47.28298" lon="6.00135">
        <ele>352.8</ele>
        <time>2024-08-03T07:20:00Z</time>
      </trkpt>
      <trkpt lat="47.28302" lon="6.00136">
        <ele>352.6</ele>
        <time>2024-08-03T07:20:01Z</time>
      </trkpt>
      <trkpt lat="47.28309" lon="6.00138">
        <ele>352.2</ele>
        <time>2024-08-03T07:20:02Z</time>
      </trkpt>
      <trkpt lat="47.28316" lon="6.0014">
        <ele>352</ele>
        <time>2024-08-03T07:20:03Z</time>
      </trkpt>
      <trkpt lat="47.2832" lon="6.00142">
        <ele>351.6</ele>
        <time>2024-08-03T07:20:04Z</time>
      </trkpt>
      <trkpt lat="47.28324" lon="6.00146">
        <ele>351.2</ele>
        <time>2024-08-03T07:20:05Z</time>
      </trkpt>
      <trkpt lat="47.28327" lon="6.0015">
        <ele>351.2</ele>
        <time>2024-08-03T07:20:06Z</time>
      </trkpt>
      <trkpt lat="47.2833" lon="6.00153">
        <ele>351</ele>
        <time>2024-08-03T07:20:07Z</time>
      </trkpt>
      <trkpt lat="47.28333" lon="6.00156">
        <ele>351</ele>
        <time>2024-08-03T07:20:08Z</time>
      </trkpt>
      <trkpt lat="47.28335" lon="6.00158">
        <ele>351</ele>
        <time>2024-08-03T07:20:09Z</time>
      </trkpt>
      <trkpt lat="47.28337" lon="6.0016">
        <ele>351</ele>
        <time>2024-08-03T07:20:10Z</time>
      </trkpt>
      <trkpt lat="47.28339" lon="6.00162">
        <ele>350.8</ele>
        <time>2024-08-03T07:20:11Z</time>
      </trkpt>
      <trkpt lat="47.2834" lon="6.00164">
        <ele>351</ele>
        <time>2024-08-03T07:20:12Z</time>
      </trkpt>
      <trkpt lat="47.28341" lon="6.00167">
        <ele>350.8</ele>
        <time>2024-08-03T07:20:13Z</time>
      </trkpt>
      <trkpt lat="47.28343" lon="6.0017">
        <ele>351</ele>
        <time>2024-08-03T07:20:14Z</time>
      </trkpt>
      <trkpt lat="47.28344" lon="6.00172">
        <ele>351</ele>
        <time>2024-08-03T07:20:15Z</time>
      </trkpt>
      <trkpt lat="47.28346" lon="6.00175">
        <ele>351</ele>
        <time>2024-08-03T07:20:16Z</time>
      </trkpt>
      <trkpt lat="47.28347" lon="6.00177">
        <ele>351</ele>
        <time>2024-08-03T07:20:17Z</time>
      </trkpt>
      <trkpt lat="47.28348" lon="6.00179">
        <ele>351.4</ele>
        <time>2024-08-03T07:20:18Z</time>
      </trkpt>
      <trkpt lat="47.2835" lon="6.00181">
        <ele>351.8</ele>
        <time>2024-08-03T07:20:19Z</time>
      </trkpt>
      <trkpt lat="47.28351" lon="6.00183">
        <ele>352.2</ele>
        <time>2024-08-03T07:20:20Z</time>
      </trkpt>
      <trkpt lat="47.28353" lon="6.00185">
        <ele>352.2</ele>
        <time>2024-08-03T07:20:21Z</time>
      </trkpt>
      <trkpt lat="47.28354" lon="6.00186">
        <ele>352.4</ele>
        <time>2024-08-03T07:20:22Z</time>
      </trkpt>
      <trkpt lat="47.28356" lon="6.00188">
        <ele>352.6</ele>
        <time>2024-08-03T07:20:23Z</time>
      </trkpt>
      <trkpt lat="47.28358" lon="6.00189">
        <ele>353.2</ele>
        <time>2024-08-03T07:20:24Z</time>
      </trkpt>
      <trkpt lat="47.2836" lon="6.0019">
        <ele>353.4</ele>
        <time>2024-08-03T07:20:25Z</time>
      </trkpt>
      <trkpt lat="47.28362" lon="6.00192">
        <ele>353.4</ele>
        <time>2024-08-03T07:20:26Z</time>
      </trkpt>
      <trkpt lat="47.28364" lon="6.00194">
        <ele>353.8</ele>
        <time>2024-08-03T07:20:27Z</time>
      </trkpt>
      <trkpt lat="47.28365" lon="6.00195">
        <ele>353.8</ele>
        <time>2024-08-03T07:20:28Z</time>
      </trkpt>
      <trkpt lat="47.28368" lon="6.00198">
        <ele>354.2</ele>
        <time>2024-08-03T07:20:29Z</time>
      </trkpt>
      <trkpt lat="47.2837" lon="6.002">
        <ele>354.2</ele>
        <time>2024-08-03T07:20:30Z</time>
      </trkpt>
      <trkpt lat="47.28372" lon="6.00203">
        <ele>354.2</ele>
        <time>2024-08-03T07:20:31Z</time>
      </trkpt>
      <trkpt lat="47.28374" lon="6.00205">
        <ele>354.6</ele>
        <time>2024-08-03T07:20:32Z</time>
      </trkpt>
      <trkpt lat="47.28376" lon="6.00209">
        <ele>355</ele>
        <time>2024-08-03T07:20:33Z</time>
      </trkpt>
      <trkpt lat="47.28379" lon="6.00212">
        <ele>355</ele>
        <time>2024-08-03T07:20:34Z</time>
      </trkpt>
      <trkpt lat="47.28381" lon="6.00214">
        <ele>355.2</ele>
        <time>2024-08-03T07:20:35Z</time>
      </trkpt>
      <trkpt lat="47.28382" lon="6.00218">
        <ele>355.2</ele>
        <time>2024-08-03T07:20:36Z</time>
      </trkpt>
      <trkpt lat="47.28385" lon="6.00221">
        <ele>355.4</ele>
        <time>2024-08-03T07:20:37Z</time>
      </trkpt>
      <trkpt lat="47.28387" lon="6.00223">
        <ele>355.4</ele>
        <time>2024-08-03T07:20:38Z</time>
      </trkpt>
      <trkpt lat="47.2839" lon="6.00226">
        <ele>355.6</ele>
        <time>2024-08-03T07:20:39Z</time>
      </trkpt>
      <trkpt lat="47.28393" lon="6.00229">
        <ele>355.8</ele>
        <time>2024-08-03T07:20:40Z</time>
      </trkpt>
      <trkpt lat="47.28395" lon="6.00232">
        <ele>355.8</ele>
        <time>2024-08-03T07:20:41Z</time>
      </trkpt>
      <trkpt lat="47.28398" lon="6.00234">
        <ele>355.8</ele>
        <time>2024-08-03T07:20:42Z</time>
      </trkpt>
      <trkpt lat="47.284" lon="6.00236">
        <ele>356</ele>
        <time>2024-08-03T07:20:43Z</time>
      </trkpt>
      <trkpt lat="47.28402" lon="6.00239">
        <ele>356</ele>
        <time>2024-08-03T07:20:44Z</time>
      </trkpt>
      <trkpt lat="47.28405" lon="6.00242">
        <ele>356</ele>
        <time>2024-08-03T07:20:45Z</time>
      </trkpt>
      <trkpt lat="47.28407" lon="6.00245">
        <ele>356.2</ele>
        <time>2024-08-03T07:20:46Z</time>
      </trkpt>
      <trkpt lat="47.28409" lon="6.00248">
        <ele>356.4</ele>
        <time>2024-08-03T07:20:47Z</time>
      </trkpt>
      <trkpt lat="47.2841" lon="6.00251">
        <ele>356.4</ele>
        <time>2024-08-03T07:20:48Z</time>
      </trkpt>
      <trkpt lat="47.28411" lon="6.00254">
        <ele>356.4</ele>
        <time>2024-08-03T07:20:49Z</time>
      </trkpt>
      <trkpt lat="47.28413" lon="6.00257">
        <ele>356.6</ele>
        <time>2024-08-03T07:20:50Z</time>
      </trkpt>
      <trkpt lat="47.28415" lon="6.0026">
        <ele>356.6</ele>
        <time>2024-08-03T07:20:51Z</time>
      </trkpt>
      <trkpt lat="47.28416" lon="6.00263">
        <ele>356.6</ele>
        <time>2024-08-03T07:20:52Z</time>
      </trkpt>
      <trkpt lat="47.28417" lon="6.00268">
        <ele>356.8</ele>
        <time>2024-08-03T07:20:53Z</time>
      </trkpt>
      <trkpt lat="47.28419" lon="6.00272">
        <ele>356.6</ele>
        <time>2024-08-03T07:20:54Z</time>
      </trkpt>
      <trkpt lat="47.28421" lon="6.00275">
        <ele>356.8</ele>
        <time>2024-08-03T07:20:55Z</time>
      </trkpt>
      <trkpt lat="47.28423" lon="6.00278">
        <ele>357</ele>
        <time>2024-08-03T07:20:56Z</time>
      </trkpt>
      <trkpt lat="47.28425" lon="6.0028">
        <ele>356.8</ele>
        <time>2024-08-03T07:20:57Z</time>
      </trkpt>
      <trkpt lat="47.28427" lon="6.00282">
        <ele>357</ele>
        <time>2024-08-03T07:20:58Z</time>
      </trkpt>
      <trkpt lat="47.28429" lon="6.00284">
        <ele>357</ele>
        <time>2024-08-03T07:20:59Z</time>
      </trkpt>
      <trkpt lat="47.28431" lon="6.00286">
        <ele>357.2</ele>
        <time>2024-08-03T07:21:00Z</time>
      </trkpt>
      <trkpt lat="47.28432" lon="6.00289">
        <ele>357.2</ele>
        <time>2024-08-03T07:21:01Z</time>
      </trkpt>
      <trkpt lat="47.28433" lon="6.00292">
        <ele>357.2</ele>
        <time>2024-08-03T07:21:02Z</time>
      </trkpt>
      <trkpt lat="47.28437" lon="6.00295">
        <ele>357.4</ele>
        <time>2024-08-03T07:21:03Z</time>
      </trkpt>
      <trkpt lat="47.28439" lon="6.00298">
        <ele>357.4</ele>
        <time>2024-08-03T07:21:04Z</time>
      </trkpt>
      <trkpt lat="47.28441" lon="6.00301">
        <ele>357.2</ele>
        <time>2024-08-03T07:21:05Z</time>
      </trkpt>
      <trkpt lat="47.28444" lon="6.00304">
        <ele>357.6</ele>
        <time>2024-08-03T07:21:06Z</time>
      </trkpt>
      <trkpt lat="47.28447" lon="6.00307">
        <ele>357.4</ele>
        <time>2024-08-03T07:21:07Z</time>
      </trkpt>
      <trkpt lat="47.28449" lon="6.0031">
        <ele>357.6</ele>
        <time>2024-08-03T07:21:08Z</time>
      </trkpt>
      <trkpt lat="47.28452" lon="6.00313">
        <ele>357.8</ele>
        <time>2024-08-03T07:21:09Z</time>
      </trkpt>
      <trkpt lat="47.28454" lon="6.00315">
        <ele>358</ele>
        <time>2024-08-03T07:21:10Z</time>
      </trkpt>
      <trkpt lat="47.28457" lon="6.00317">
        <ele>358</ele>
        <time>2024-08-03T07:21:11Z</time>
      </trkpt>
      <trkpt lat="47.28459" lon="6.0032">
        <ele>358</ele>
        <time>2024-08-03T07:21:12Z</time>
      </trkpt>
      <trkpt lat="47.2846" lon="6.00324">
        <ele>358.2</ele>
        <time>2024-08-03T07:21:13Z</time>
      </trkpt>
      <trkpt lat="47.28462" lon="6.00327">
        <ele>358.2</ele>
        <time>2024-08-03T07:21:14Z</time>
      </trkpt>
      <trkpt lat="47.28464" lon="6.00331">
        <ele>358</ele>
        <time>2024-08-03T07:21:15Z</time>
      </trkpt>
      <trkpt lat="47.28465" lon="6.00335">
        <ele>358.2</ele>
        <time>2024-08-03T07:21:16Z</time>
      </trkpt>
      <trkpt lat="47.28467" lon="6.00341">
        <ele>358.2</ele>
        <time>2024-08-03T07:21:17Z</time>
      </trkpt>
      <trkpt lat="47.28469" lon="6.00345">
        <ele>358.2</ele>
        <time>2024-08-03T07:21:18Z</time>
      </trkpt>
      <trkpt lat="47.28471" lon="6.00349">
        <ele>358.4</ele>
        <time>2024-08-03T07:21:19Z</time>
      </trkpt>
      <trkpt lat="47.28473" lon="6.00351">
        <ele>358.2</ele>
        <time>2024-08-03T07:21:20Z</time>
      </trkpt>
      <trkpt lat="47.28474" lon="6.00355">
        <ele>358.2</ele>
        <time>2024-08-03T07:21:21Z</time>
      </trkpt>
      <trkpt lat="47.28476" lon="6.00358">
        <ele>358</ele>
        <time>2024-08-03T07:21:22Z</time>
      </trkpt>
      <trkpt lat="47.28477" lon="6.00362">
        <ele>358.2</ele>
        <time>2024-08-03T07:21:23Z</time>
      </trkpt>
      <trkpt lat="47.28479" lon="6.00364">
        <ele>358.2</ele>
        <time>2024-08-03T07:21:24Z</time>
      </trkpt>
      <trkpt lat="47.2848" lon="6.00367">
        <ele>358</ele>
        <time>2024-08-03T07:21:25Z</time>
      </trkpt>
      <trkpt lat="47.28482" lon="6.00371">
        <ele>358.2</ele>
        <time>2024-08-03T07:21:26Z</time>
      </trkpt>
      <trkpt lat="47.28483" lon="6.00373">
        <ele>358</ele>
        <time>2024-08-03T07:21:27Z</time>
      </trkpt>
      <trkpt lat="47.28485" lon="6.00377">
        <ele>358</ele>
        <time>2024-08-03T07:21:28Z</time>
      </trkpt>
      <trkpt lat="47.28487" lon="6.00382">
        <ele>358</ele>
        <time>2024-08-03T07:21:29Z</time>
      </trkpt>
      <trkpt lat="47.28489" lon="6.00384">
        <ele>358</ele>
        <time>2024-08-03T07:21:30Z</time>
      </trkpt>
      <trkpt lat="47.2849" lon="6.00387">
        <ele>358</ele>
        <time>2024-08-03T07:21:31Z</time>
      </trkpt>
      <trkpt lat="47.28492" lon="6.0039">
        <ele>358</ele>
        <time>2024-08-03T07:21:32Z</time>
      </trkpt>
      <trkpt lat="47.28493" lon="6.00392">
        <ele>358.2</ele>
        <time>2024-08-03T07:21:33Z</time>
      </trkpt>
      <trkpt lat="47.28495" lon="6.00395">
        <ele>358.2</ele>
        <time>2024-08-03T07:21:34Z</time>
      </trkpt>
      <trkpt lat="47.28497" lon="6.00398">
        <ele>358.2</ele>
        <time>2024-08-03T07:21:35Z</time>
      </trkpt>
      <trkpt lat="47.28498" lon="6.004">
        <ele>358.4</ele>
        <time>2024-08-03T07:21:36Z</time>
      </trkpt>
      <trkpt lat="47.28501" lon="6.00403">
        <ele>358.6</ele>
        <time>2024-08-03T07:21:37Z</time>
      </trkpt>
      <trkpt lat="47.28503" lon="6.00405">
        <ele>358.4</ele>
        <time>2024-08-03T07:21:38Z</time>
      </trkpt>
      <trkpt lat="47.28505" lon="6.00409">
        <ele>358.4</ele>
        <time>2024-08-03T07:21:39Z</time>
      </trkpt>
      <trkpt lat="47.28507" lon="6.00411">
        <ele>358.6</ele>
        <time>2024-08-03T07:21:40Z</time>
      </trkpt>
      <trkpt lat="47.28508" lon="6.00417">
        <ele>358.6</ele>
        <time>2024-08-03T07:21:41Z</time>
      </trkpt>
      <trkpt lat="47.2851" lon="6.00421">
        <ele>358.6</ele>
        <time>2024-08-03T07:21:42Z</time>
      </trkpt>
      <trkpt lat="47.28511" lon="6.00424">
        <ele>358.6</ele>
        <time>2024-08-03T07:21:43Z</time>
      </trkpt>
      <trkpt lat="47.28512" lon="6.00428">
        <ele>358.6</ele>
        <time>2024-08-03T07:21:44Z</time>
      </trkpt>
      <trkpt lat="47.28514" lon="6.00432">
        <ele>358.6</ele>
        <time>2024-08-03T07:21:45Z</time>
      </trkpt>
      <trkpt lat="47.28515" lon="6.00435">
        <ele>358.6</ele>
        <time>2024-08-03T07:21:46Z</time>
      </trkpt>
      <trkpt lat="47.28517" lon="6.00438">
        <ele>358.8</ele>
        <time>2024-08-03T07:21:47Z</time>
      </trkpt>
      <trkpt lat="47.28519" lon="6.00441">
        <ele>358.6</ele>
        <time>2024-08-03T07:21:48Z</time>
      </trkpt>
      <trkpt lat="47.28522" lon="6.00445">
        <ele>358.8</ele>
        <time>2024-08-03T07:21:49Z</time>
      </trkpt>
      <trkpt lat="47.28524" lon="6.00448">
        <ele>358.8</ele>
        <time>2024-08-03T07:21:50Z</time>
      </trkpt>
      <trkpt lat="47.28525" lon="6.0045">
        <ele>358.6</ele>
        <time>2024-08-03T07:21:51Z</time>
      </trkpt>
      <trkpt lat="47.28528" lon="6.00455">
        <ele>358.8</ele>
        <time>2024-08-03T07:21:52Z</time>
      </trkpt>
      <trkpt lat="47.2853" lon="6.00458">
        <ele>358.8</ele>
        <time>2024-08-03T07:21:53Z</time>
      </trkpt>
      <trkpt lat="47.28532" lon="6.00461">
        <ele>358.6</ele>
        <time>2024-08-03T07:21:54Z</time>
      </trkpt>
      <trkpt lat="47.28535" lon="6.00465">
        <ele>358.8</ele>
        <time>2024-08-03T07:21:55Z</time>
      </trkpt>
      <trkpt lat="47.28536" lon="6.00468">
        <ele>358.8</ele>
        <time>2024-08-03T07:21:56Z</time>
      </trkpt>
      <trkpt lat="47.28538" lon="6.00471">
        <ele>358.8</ele>
        <time>2024-08-03T07:21:57Z</time>
      </trkpt>
      <trkpt lat="47.2854" lon="6.00475">
        <ele>358.8</ele>
        <time>2024-08-03T07:21:58Z</time>
      </trkpt>
      <trkpt lat="47.28541" lon="6.00479">
        <ele>358.8</ele>
        <time>2024-08-03T07:21:59Z</time>
      </trkpt>
      <trkpt lat="47.28542" lon="6.00483">
        <ele>358.8</ele>
        <time>2024-08-03T07:22:00Z</time>
      </trkpt>
      <trkpt lat="47.28543" lon="6.00487">
        <ele>358.8</ele>
        <time>2024-08-03T07:22:01Z</time>
      </trkpt>
      <trkpt lat="47.28545" lon="6.0049">
        <ele>359</ele>
        <time>2024-08-03T07:22:02Z</time>
      </trkpt>
      <trkpt lat="47.28546" lon="6.00494">
        <ele>359</ele>
        <time>2024-08-03T07:22:03Z</time>
      </trkpt>
      <trkpt lat="47.28548" lon="6.00496">
        <ele>359</ele>
        <time>2024-08-03T07:22:04Z</time>
      </trkpt>
      <trkpt lat="47.28549" lon="6.005">
        <ele>359.2</ele>
        <time>2024-08-03T07:22:05Z</time>
      </trkpt>
      <trkpt lat="47.28549" lon="6.00503">
        <ele>359.2</ele>
        <time>2024-08-03T07:22:06Z</time>
      </trkpt>
      <trkpt lat="47.2855" lon="6.00506">
        <ele>359.2</ele>
        <time>2024-08-03T07:22:07Z</time>
      </trkpt>
      <trkpt lat="47.28551" lon="6.00508">
        <ele>359.2</ele>
        <time>2024-08-03T07:22:08Z</time>
      </trkpt>
      <trkpt lat="47.28553" lon="6.0051">
        <ele>359.2</ele>
        <time>2024-08-03T07:22:09Z</time>
      </trkpt>
      <trkpt lat="47.28555" lon="6.00513">
        <ele>359.4</ele>
        <time>2024-08-03T07:22:10Z</time>
      </trkpt>
      <trkpt lat="47.28556" lon="6.00515">
        <ele>359.4</ele>
        <time>2024-08-03T07:22:11Z</time>
      </trkpt>
      <trkpt lat="47.28558" lon="6.00517">
        <ele>359.4</ele>
        <time>2024-08-03T07:22:12Z</time>
      </trkpt>
      <trkpt lat="47.28559" lon="6.0052">
        <ele>359.4</ele>
        <time>2024-08-03T07:22:13Z</time>
      </trkpt>
      <trkpt lat="47.2856" lon="6.00522">
        <ele>359.6</ele>
        <time>2024-08-03T07:22:14Z</time>
      </trkpt>
      <trkpt lat="47.28562" lon="6.00524">
        <ele>359.8</ele>
        <time>2024-08-03T07:22:15Z</time>
      </trkpt>
      <trkpt lat="47.28563" lon="6.00527">
        <ele>360</ele>
        <time>2024-08-03T07:22:16Z</time>
      </trkpt>
      <trkpt lat="47.28564" lon="6.00531">
        <ele>360</ele>
        <time>2024-08-03T07:22:17Z</time>
      </trkpt>
      <trkpt lat="47.28565" lon="6.00535">
        <ele>360.2</ele>
        <time>2024-08-03T07:22:18Z</time>
      </trkpt>
      <trkpt lat="47.28566" lon="6.00538">
        <ele>360.2</ele>
        <time>2024-08-03T07:22:19Z</time>
      </trkpt>
      <trkpt lat="47.28568" lon="6.00542">
        <ele>360.4</ele>
        <time>2024-08-03T07:22:20Z</time>
      </trkpt>
      <trkpt lat="47.28569" lon="6.00545">
        <ele>360.2</ele>
        <time>2024-08-03T07:22:21Z</time>
      </trkpt>
      <trkpt lat="47.28571" lon="6.00549">
        <ele>360.4</ele>
        <time>2024-08-03T07:22:22Z</time>
      </trkpt>
      <trkpt lat="47.28574" lon="6.00553">
        <ele>360.4</ele>
        <time>2024-08-03T07:22:23Z</time>
      </trkpt>
      <trkpt lat="47.28576" lon="6.00557">
        <ele>360.6</ele>
        <time>2024-08-03T07:22:24Z</time>
      </trkpt>
      <trkpt lat="47.28577" lon="6.0056">
        <ele>360.6</ele>
        <time>2024-08-03T07:22:25Z</time>
      </trkpt>
      <trkpt lat="47.28579" lon="6.00565">
        <ele>361</ele>
        <time>2024-08-03T07:22:26Z</time>
      </trkpt>
      <trkpt lat="47.2858" lon="6.00568">
        <ele>361</ele>
        <time>2024-08-03T07:22:27Z</time>
      </trkpt>
      <trkpt lat="47.28582" lon="6.00572">
        <ele>361.2</ele>
        <time>2024-08-03T07:22:28Z</time>
      </trkpt>
      <trkpt lat="47.28584" lon="6.00575">
        <ele>361.2</ele>
        <time>2024-08-03T07:22:29Z</time>
      </trkpt>
      <trkpt lat="47.28586" lon="6.00579">
        <ele>361.8</ele>
        <time>2024-08-03T07:22:30Z</time>
      </trkpt>
      <trkpt lat="47.28587" lon="6.00582">
        <ele>361.8</ele>
        <time>2024-08-03T07:22:31Z</time>
      </trkpt>
      <trkpt lat="47.28588" lon="6.00585">
        <ele>362</ele>
        <time>2024-08-03T07:22:32Z</time>
      </trkpt>
      <trkpt lat="47.28589" lon="6.00588">
        <ele>362.2</ele>
        <time>2024-08-03T07:22:33Z</time>
      </trkpt>
      <trkpt lat="47.2859" lon="6.00591">
        <ele>362.4</ele>
        <time>2024-08-03T07:22:34Z</time>
      </trkpt>
      <trkpt lat="47.28592" lon="6.00594">
        <ele>362.4</ele>
        <time>2024-08-03T07:22:35Z</time>
      </trkpt>
      <trkpt lat="47.28594" lon="6.00598">
        <ele>362.6</ele>
        <time>2024-08-03T07:22:36Z</time>
      </trkpt>
      <trkpt lat="47.28595" lon="6.00601">
        <ele>362.6</ele>
        <time>2024-08-03T07:22:37Z</time>
      </trkpt>
      <trkpt lat="47.28597" lon="6.00605">
        <ele>363</ele>
        <time>2024-08-03T07:22:38Z</time>
      </trkpt>
      <trkpt lat="47.28598" lon="6.00608">
        <ele>363.2</ele>
        <time>2024-08-03T07:22:39Z</time>
      </trkpt>
      <trkpt lat="47.286" lon="6.00612">
        <ele>363.4</ele>
        <time>2024-08-03T07:22:40Z</time>
      </trkpt>
      <trkpt lat="47.28601" lon="6.00616">
        <ele>363.4</ele>
        <time>2024-08-03T07:22:41Z</time>
      </trkpt>
      <trkpt lat="47.28602" lon="6.00619">
        <ele>363.4</ele>
        <time>2024-08-03T07:22:42Z</time>
      </trkpt>
      <trkpt lat="47.28603" lon="6.00622">
        <ele>363.6</ele>
        <time>2024-08-03T07:22:43Z</time>
      </trkpt>
      <trkpt lat="47.28603" lon="6.00625">
        <ele>363.8</ele>
        <time>2024-08-03T07:22:44Z</time>
      </trkpt>
      <trkpt lat="47.28604" lon="6.00628">
        <ele>364</ele>
        <time>2024-08-03T07:22:45Z</time>
      </trkpt>
      <trkpt lat="47.28604" lon="6.00631">
        <ele>364</ele>
        <time>2024-08-03T07:22:46Z</time>
      </trkpt>
      <trkpt lat="47.28605" lon="6.00634">
        <ele>364.2</ele>
        <time>2024-08-03T07:22:47Z</time>
      </trkpt>
      <trkpt lat="47.28605" lon="6.00637">
        <ele>364.4</ele>
        <time>2024-08-03T07:22:48Z</time>
      </trkpt>
      <trkpt lat="47.28605" lon="6.00639">
        <ele>364.4</ele>
        <time>2024-08-03T07:22:49Z</time>
      </trkpt>
      <trkpt lat="47.28606" lon="6.00643">
        <ele>364.6</ele>
        <time>2024-08-03T07:22:50Z</time>
      </trkpt>
      <trkpt lat="47.28606" lon="6.00646">
        <ele>364.6</ele>
        <time>2024-08-03T07:22:51Z</time>
      </trkpt>
      <trkpt lat="47.28607" lon="6.00649">
        <ele>364.8</ele>
        <time>2024-08-03T07:22:52Z</time>
      </trkpt>
      <trkpt lat="47.28608" lon="6.00653">
        <ele>364.8</ele>
        <time>2024-08-03T07:22:53Z</time>
      </trkpt>
      <trkpt lat="47.28609" lon="6.00656">
        <ele>364.8</ele>
        <time>2024-08-03T07:22:54Z</time>
      </trkpt>
      <trkpt lat="47.28609" lon="6.0066">
        <ele>364.8</ele>
        <time>2024-08-03T07:22:55Z</time>
      </trkpt>
      <trkpt lat="47.2861" lon="6.00664">
        <ele>365</ele>
        <time>2024-08-03T07:22:56Z</time>
      </trkpt>
      <trkpt lat="47.28611" lon="6.00668">
        <ele>365.2</ele>
        <time>2024-08-03T07:22:57Z</time>
      </trkpt>
      <trkpt lat="47.28612" lon="6.00671">
        <ele>365.2</ele>
        <time>2024-08-03T07:22:58Z</time>
      </trkpt>
      <trkpt lat="47.28612" lon="6.00676">
        <ele>365.2</ele>
        <time>2024-08-03T07:22:59Z</time>
      </trkpt>
      <trkpt lat="47.28613" lon="6.00679">
        <ele>365.2</ele>
        <time>2024-08-03T07:23:00Z</time>
      </trkpt>
      <trkpt lat="47.28614" lon="6.00683">
        <ele>365.4</ele>
        <time>2024-08-03T07:23:01Z</time>
      </trkpt>
      <trkpt lat="47.28615" lon="6.00687">
        <ele>365.4</ele>
        <time>2024-08-03T07:23:02Z</time>
      </trkpt>
      <trkpt lat="47.28616" lon="6.00691">
        <ele>365.4</ele>
        <time>2024-08-03T07:23:03Z</time>
      </trkpt>
      <trkpt lat="47.28617" lon="6.00694">
        <ele>365.6</ele>
        <time>2024-08-03T07:23:04Z</time>
      </trkpt>
      <trkpt lat="47.28618" lon="6.00698">
        <ele>365.6</ele>
        <time>2024-08-03T07:23:05Z</time>
      </trkpt>
      <trkpt lat="47.28619" lon="6.00701">
        <ele>365.6</ele>
        <time>2024-08-03T07:23:06Z</time>
      </trkpt>
      <trkpt lat="47.2862" lon="6.00704">
        <ele>365.8</ele>
        <time>2024-08-03T07:23:07Z</time>
      </trkpt>
      <trkpt lat="47.28621" lon="6.00708">
        <ele>365.8</ele>
        <time>2024-08-03T07:23:08Z</time>
      </trkpt>
      <trkpt lat="47.28622" lon="6.00711">
        <ele>365.8</ele>
        <time>2024-08-03T07:23:09Z</time>
      </trkpt>
      <trkpt lat="47.28624" lon="6.00715">
        <ele>365.8</ele>
        <time>2024-08-03T07:23:10Z</time>
      </trkpt>
      <trkpt lat="47.28625" lon="6.00718">
        <ele>365.8</ele>
        <time>2024-08-03T07:23:11Z</time>
      </trkpt>
      <trkpt lat="47.28627" lon="6.00722">
        <ele>365.8</ele>
        <time>2024-08-03T07:23:12Z</time>
      </trkpt>
      <trkpt lat="47.28628" lon="6.00725">
        <ele>365.8</ele>
        <time>2024-08-03T07:23:13Z</time>
      </trkpt>
      <trkpt lat="47.28629" lon="6.00728">
        <ele>365.8</ele>
        <time>2024-08-03T07:23:14Z</time>
      </trkpt>
      <trkpt lat="47.2863" lon="6.00731">
        <ele>366</ele>
        <time>2024-08-03T07:23:15Z</time>
      </trkpt>
      <trkpt lat="47.28631" lon="6.00734">
        <ele>366</ele>
        <time>2024-08-03T07:23:16Z</time>
      </trkpt>
      <trkpt lat="47.28631" lon="6.00738">
        <ele>366</ele>
        <time>2024-08-03T07:23:17Z</time>
      </trkpt>
      <trkpt lat="47.28633" lon="6.00741">
        <ele>366.2</ele>
        <time>2024-08-03T07:23:18Z</time>
      </trkpt>
      <trkpt lat="47.28634" lon="6.00743">
        <ele>366.2</ele>
        <time>2024-08-03T07:23:19Z</time>
      </trkpt>
      <trkpt lat="47.28636" lon="6.00745">
        <ele>366.2</ele>
        <time>2024-08-03T07:23:20Z</time>
      </trkpt>
      <trkpt lat="47.28637" lon="6.00748">
        <ele>366.4</ele>
        <time>2024-08-03T07:23:21Z</time>
      </trkpt>
      <trkpt lat="47.28638" lon="6.0075">
        <ele>366.4</ele>
        <time>2024-08-03T07:23:22Z</time>
      </trkpt>
      <trkpt lat="47.28638" lon="6.00753">
        <ele>366.6</ele>
        <time>2024-08-03T07:23:23Z</time>
      </trkpt>
      <trkpt lat="47.28639" lon="6.00755">
        <ele>366.8</ele>
        <time>2024-08-03T07:23:24Z</time>
      </trkpt>
      <trkpt lat="47.2864" lon="6.00757">
        <ele>366.8</ele>
        <time>2024-08-03T07:23:25Z</time>
      </trkpt>
      <trkpt lat="47.2864" lon="6.00761">
        <ele>366.8</ele>
        <time>2024-08-03T07:23:26Z</time>
      </trkpt>
      <trkpt lat="47.28641" lon="6.00764">
        <ele>366.8</ele>
        <time>2024-08-03T07:23:27Z</time>
      </trkpt>
      <trkpt lat="47.2864" lon="6.00769">
        <ele>367</ele>
        <time>2024-08-03T07:23:28Z</time>
      </trkpt>
      <trkpt lat="47.2864" lon="6.00773">
        <ele>367.2</ele>
        <time>2024-08-03T07:23:29Z</time>
      </trkpt>
      <trkpt lat="47.28641" lon="6.00777">
        <ele>367.4</ele>
        <time>2024-08-03T07:23:30Z</time>
      </trkpt>
      <trkpt lat="47.28641" lon="6.00781">
        <ele>367.4</ele>
        <time>2024-08-03T07:23:31Z</time>
      </trkpt>
      <trkpt lat="47.28642" lon="6.00783">
        <ele>367.4</ele>
        <time>2024-08-03T07:23:32Z</time>
      </trkpt>
      <trkpt lat="47.28643" lon="6.00786">
        <ele>367.6</ele>
        <time>2024-08-03T07:23:33Z</time>
      </trkpt>
      <trkpt lat="47.28644" lon="6.00788">
        <ele>367.8</ele>
        <time>2024-08-03T07:23:34Z</time>
      </trkpt>
      <trkpt lat="47.28645" lon="6.00791">
        <ele>367.8</ele>
        <time>2024-08-03T07:23:35Z</time>
      </trkpt>
      <trkpt lat="47.28646" lon="6.00793">
        <ele>367.8</ele>
        <time>2024-08-03T07:23:36Z</time>
      </trkpt>
      <trkpt lat="47.28647" lon="6.00797">
        <ele>367.8</ele>
        <time>2024-08-03T07:23:37Z</time>
      </trkpt>
      <trkpt lat="47.28648" lon="6.00801">
        <ele>367.8</ele>
        <time>2024-08-03T07:23:38Z</time>
      </trkpt>
      <trkpt lat="47.28649" lon="6.00805">
        <ele>368</ele>
        <time>2024-08-03T07:23:39Z</time>
      </trkpt>
      <trkpt lat="47.2865" lon="6.00808">
        <ele>368</ele>
        <time>2024-08-03T07:23:40Z</time>
      </trkpt>
      <trkpt lat="47.28652" lon="6.00812">
        <ele>368.2</ele>
        <time>2024-08-03T07:23:41Z</time>
      </trkpt>
      <trkpt lat="47.28653" lon="6.00815">
        <ele>368.4</ele>
        <time>2024-08-03T07:23:42Z</time>
      </trkpt>
      <trkpt lat="47.28654" lon="6.00818">
        <ele>368.6</ele>
        <time>2024-08-03T07:23:43Z</time>
      </trkpt>
      <trkpt lat="47.28655" lon="6.00821">
        <ele>368.6</ele>
        <time>2024-08-03T07:23:44Z</time>
      </trkpt>
      <trkpt lat="47.28656" lon="6.00826">
        <ele>368.8</ele>
        <time>2024-08-03T07:23:45Z</time>
      </trkpt>
      <trkpt lat="47.28656" lon="6.0083">
        <ele>368.8</ele>
        <time>2024-08-03T07:23:46Z</time>
      </trkpt>
      <trkpt lat="47.28658" lon="6.00833">
        <ele>368.6</ele>
        <time>2024-08-03T07:23:47Z</time>
      </trkpt>
      <trkpt lat="47.28659" lon="6.00836">
        <ele>368.8</ele>
        <time>2024-08-03T07:23:48Z</time>
      </trkpt>
      <trkpt lat="47.2866" lon="6.00841">
        <ele>369</ele>
        <time>2024-08-03T07:23:49Z</time>
      </trkpt>
      <trkpt lat="47.28661" lon="6.00844">
        <ele>369.2</ele>
        <time>2024-08-03T07:23:50Z</time>
      </trkpt>
      <trkpt lat="47.28662" lon="6.00848">
        <ele>369.2</ele>
        <time>2024-08-03T07:23:51Z</time>
      </trkpt>
      <trkpt lat="47.28663" lon="6.00853">
        <ele>369.4</ele>
        <time>2024-08-03T07:23:52Z</time>
      </trkpt>
      <trkpt lat="47.28664" lon="6.00858">
        <ele>369.6</ele>
        <time>2024-08-03T07:23:53Z</time>
      </trkpt>
      <trkpt lat="47.28666" lon="6.00863">
        <ele>369.6</ele>
        <time>2024-08-03T07:23:54Z</time>
      </trkpt>
      <trkpt lat="47.28667" lon="6.00867">
        <ele>369.6</ele>
        <time>2024-08-03T07:23:55Z</time>
      </trkpt>
      <trkpt lat="47.28667" lon="6.00872">
        <ele>369.8</ele>
        <time>2024-08-03T07:23:56Z</time>
      </trkpt>
      <trkpt lat="47.28669" lon="6.00876">
        <ele>369.8</ele>
        <time>2024-08-03T07:23:57Z</time>
      </trkpt>
      <trkpt lat="47.2867" lon="6.0088">
        <ele>369.8</ele>
        <time>2024-08-03T07:23:58Z</time>
      </trkpt>
      <trkpt lat="47.28671" lon="6.00884">
        <ele>369.8</ele>
        <time>2024-08-03T07:23:59Z</time>
      </trkpt>
      <trkpt lat="47.28672" lon="6.00888">
        <ele>369.8</ele>
        <time>2024-08-03T07:24:00Z</time>
      </trkpt>
      <trkpt lat="47.28673" lon="6.00891">
        <ele>369.8</ele>
        <time>2024-08-03T07:24:01Z</time>
      </trkpt>
      <trkpt lat="47.28674" lon="6.00895">
        <ele>369.8</ele>
        <time>2024-08-03T07:24:02Z</time>
      </trkpt>
      <trkpt lat="47.28674" lon="6.00899">
        <ele>370</ele>
        <time>2024-08-03T07:24:03Z</time>
      </trkpt>
      <trkpt lat="47.28676" lon="6.00903">
        <ele>370</ele>
        <time>2024-08-03T07:24:04Z</time>
      </trkpt>
      <trkpt lat="47.28676" lon="6.00908">
        <ele>370</ele>
        <time>2024-08-03T07:24:05Z</time>
      </trkpt>
      <trkpt lat="47.28678" lon="6.00912">
        <ele>370</ele>
        <time>2024-08-03T07:24:06Z</time>
      </trkpt>
      <trkpt lat="47.28679" lon="6.00915">
        <ele>370.2</ele>
        <time>2024-08-03T07:24:07Z</time>
      </trkpt>
      <trkpt lat="47.2868" lon="6.00918">
        <ele>370.2</ele>
        <time>2024-08-03T07:24:08Z</time>
      </trkpt>
      <trkpt lat="47.28682" lon="6.00923">
        <ele>370</ele>
        <time>2024-08-03T07:24:09Z</time>
      </trkpt>
      <trkpt lat="47.28683" lon="6.00927">
        <ele>370</ele>
        <time>2024-08-03T07:24:10Z</time>
      </trkpt>
      <trkpt lat="47.28684" lon="6.0093">
        <ele>370.2</ele>
        <time>2024-08-03T07:24:11Z</time>
      </trkpt>
      <trkpt lat="47.28685" lon="6.00934">
        <ele>370.4</ele>
        <time>2024-08-03T07:24:12Z</time>
      </trkpt>
      <trkpt lat="47.28686" lon="6.00937">
        <ele>370.6</ele>
        <time>2024-08-03T07:24:13Z</time>
      </trkpt>
      <trkpt lat="47.28687" lon="6.0094">
        <ele>370.6</ele>
        <time>2024-08-03T07:24:14Z</time>
      </trkpt>
      <trkpt lat="47.28688" lon="6.00944">
        <ele>371</ele>
        <time>2024-08-03T07:24:15Z</time>
      </trkpt>
      <trkpt lat="47.2869" lon="6.00947">
        <ele>371</ele>
        <time>2024-08-03T07:24:16Z</time>
      </trkpt>
      <trkpt lat="47.28691" lon="6.00951">
        <ele>371</ele>
        <time>2024-08-03T07:24:17Z</time>
      </trkpt>
      <trkpt lat="47.28694" lon="6.00955">
        <ele>371.2</ele>
        <time>2024-08-03T07:24:18Z</time>
      </trkpt>
      <trkpt lat="47.28695" lon="6.00959">
        <ele>371.4</ele>
        <time>2024-08-03T07:24:19Z</time>
      </trkpt>
      <trkpt lat="47.28697" lon="6.00963">
        <ele>371.4</ele>
        <time>2024-08-03T07:24:20Z</time>
      </trkpt>
      <trkpt lat="47.28698" lon="6.00965">
        <ele>371.2</ele>
        <time>2024-08-03T07:24:21Z</time>
      </trkpt>
      <trkpt lat="47.287" lon="6.00968">
        <ele>371.6</ele>
        <time>2024-08-03T07:24:22Z</time>
      </trkpt>
      <trkpt lat="47.28701" lon="6.00971">
        <ele>371.6</ele>
        <time>2024-08-03T07:24:23Z</time>
      </trkpt>
      <trkpt lat="47.28702" lon="6.00974">
        <ele>371.6</ele>
        <time>2024-08-03T07:24:24Z</time>
      </trkpt>
      <trkpt lat="47.28703" lon="6.00978">
        <ele>371.8</ele>
        <time>2024-08-03T07:24:25Z</time>
      </trkpt>
      <trkpt lat="47.28704" lon="6.00983">
        <ele>372</ele>
        <time>2024-08-03T07:24:26Z</time>
      </trkpt>
      <trkpt lat="47.28706" lon="6.00987">
        <ele>372</ele>
        <time>2024-08-03T07:24:27Z</time>
      </trkpt>
      <trkpt lat="47.28707" lon="6.00991">
        <ele>372.2</ele>
        <time>2024-08-03T07:24:28Z</time>
      </trkpt>
      <trkpt lat="47.28709" lon="6.00996">
        <ele>372.2</ele>
        <time>2024-08-03T07:24:29Z</time>
      </trkpt>
      <trkpt lat="47.28711" lon="6.01001">
        <ele>372.2</ele>
        <time>2024-08-03T07:24:30Z</time>
      </trkpt>
      <trkpt lat="47.28713" lon="6.01004">
        <ele>372.4</ele>
        <time>2024-08-03T07:24:31Z</time>
      </trkpt>
      <trkpt lat="47.28715" lon="6.01007">
        <ele>372.4</ele>
        <time>2024-08-03T07:24:32Z</time>
      </trkpt>
      <trkpt lat="47.28717" lon="6.01011">
        <ele>372.4</ele>
        <time>2024-08-03T07:24:33Z</time>
      </trkpt>
      <trkpt lat="47.28718" lon="6.01013">
        <ele>372.6</ele>
        <time>2024-08-03T07:24:34Z</time>
      </trkpt>
      <trkpt lat="47.28719" lon="6.01016">
        <ele>372.6</ele>
        <time>2024-08-03T07:24:35Z</time>
      </trkpt>
      <trkpt lat="47.28721" lon="6.01019">
        <ele>372.6</ele>
        <time>2024-08-03T07:24:36Z</time>
      </trkpt>
      <trkpt lat="47.28722" lon="6.01023">
        <ele>372.6</ele>
        <time>2024-08-03T07:24:37Z</time>
      </trkpt>
      <trkpt lat="47.28723" lon="6.01027">
        <ele>372.8</ele>
        <time>2024-08-03T07:24:38Z</time>
      </trkpt>
      <trkpt lat="47.28724" lon="6.0103">
        <ele>372.8</ele>
        <time>2024-08-03T07:24:39Z</time>
      </trkpt>
      <trkpt lat="47.28725" lon="6.01033">
        <ele>372.8</ele>
        <time>2024-08-03T07:24:40Z</time>
      </trkpt>
      <trkpt lat="47.28726" lon="6.01036">
        <ele>373</ele>
        <time>2024-08-03T07:24:41Z</time>
      </trkpt>
      <trkpt lat="47.28727" lon="6.0104">
        <ele>373</ele>
        <time>2024-08-03T07:24:42Z</time>
      </trkpt>
      <trkpt lat="47.28728" lon="6.01043">
        <ele>373</ele>
        <time>2024-08-03T07:24:43Z</time>
      </trkpt>
      <trkpt lat="47.28729" lon="6.01045">
        <ele>373</ele>
        <time>2024-08-03T07:24:44Z</time>
      </trkpt>
      <trkpt lat="47.2873" lon="6.01047">
        <ele>373</ele>
        <time>2024-08-03T07:24:45Z</time>
      </trkpt>
      <trkpt lat="47.28731" lon="6.01049">
        <ele>373</ele>
        <time>2024-08-03T07:24:46Z</time>
      </trkpt>
      <trkpt lat="47.28732" lon="6.0105">
        <ele>373</ele>
        <time>2024-08-03T07:24:47Z</time>
      </trkpt>
      <trkpt lat="47.28733" lon="6.01052">
        <ele>373.2</ele>
        <time>2024-08-03T07:24:48Z</time>
      </trkpt>
      <trkpt lat="47.28733" lon="6.01055">
        <ele>373.2</ele>
        <time>2024-08-03T07:24:49Z</time>
      </trkpt>
      <trkpt lat="47.28733" lon="6.01058">
        <ele>373</ele>
        <time>2024-08-03T07:24:50Z</time>
      </trkpt>
      <trkpt lat="47.28734" lon="6.01062">
        <ele>373.2</ele>
        <time>2024-08-03T07:24:51Z</time>
      </trkpt>
      <trkpt lat="47.28734" lon="6.01066">
        <ele>373.2</ele>
        <time>2024-08-03T07:24:52Z</time>
      </trkpt>
      <trkpt lat="47.28736" lon="6.0107">
        <ele>373.2</ele>
        <time>2024-08-03T07:24:53Z</time>
      </trkpt>
      <trkpt lat="47.28736" lon="6.01074">
        <ele>373.2</ele>
        <time>2024-08-03T07:24:54Z</time>
      </trkpt>
      <trkpt lat="47.28737" lon="6.01079">
        <ele>373.2</ele>
        <time>2024-08-03T07:24:55Z</time>
      </trkpt>
      <trkpt lat="47.28738" lon="6.01082">
        <ele>373.2</ele>
        <time>2024-08-03T07:24:56Z</time>
      </trkpt>
      <trkpt lat="47.28739" lon="6.01086">
        <ele>373.4</ele>
        <time>2024-08-03T07:24:57Z</time>
      </trkpt>
      <trkpt lat="47.2874" lon="6.01089">
        <ele>373.4</ele>
        <time>2024-08-03T07:24:58Z</time>
      </trkpt>
      <trkpt lat="47.2874" lon="6.01093">
        <ele>373.2</ele>
        <time>2024-08-03T07:24:59Z</time>
      </trkpt>
      <trkpt lat="47.28741" lon="6.01097">
        <ele>373.2</ele>
        <time>2024-08-03T07:25:00Z</time>
      </trkpt>
      <trkpt lat="47.28742" lon="6.01101">
        <ele>373.2</ele>
        <time>2024-08-03T07:25:01Z</time>
      </trkpt>
      <trkpt lat="47.28743" lon="6.01105">
        <ele>373.2</ele>
        <time>2024-08-03T07:25:02Z</time>
      </trkpt>
      <trkpt lat="47.28744" lon="6.01109">
        <ele>373.2</ele>
        <time>2024-08-03T07:25:03Z</time>
      </trkpt>
      <trkpt lat="47.28746" lon="6.01113">
        <ele>373.4</ele>
        <time>2024-08-03T07:25:04Z</time>
      </trkpt>
      <trkpt lat="47.28748" lon="6.01117">
        <ele>373.4</ele>
        <time>2024-08-03T07:25:05Z</time>
      </trkpt>
      <trkpt lat="47.28751" lon="6.0112">
        <ele>373.4</ele>
        <time>2024-08-03T07:25:06Z</time>
      </trkpt>
      <trkpt lat="47.28752" lon="6.01124">
        <ele>373.4</ele>
        <time>2024-08-03T07:25:07Z</time>
      </trkpt>
      <trkpt lat="47.28754" lon="6.01128">
        <ele>373.4</ele>
        <time>2024-08-03T07:25:08Z</time>
      </trkpt>
      <trkpt lat="47.28756" lon="6.01133">
        <ele>373.6</ele>
        <time>2024-08-03T07:25:09Z</time>
      </trkpt>
      <trkpt lat="47.28758" lon="6.01137">
        <ele>373.6</ele>
        <time>2024-08-03T07:25:10Z</time>
      </trkpt>
      <trkpt lat="47.2876" lon="6.01142">
        <ele>373.6</ele>
        <time>2024-08-03T07:25:11Z</time>
      </trkpt>
      <trkpt lat="47.28761" lon="6.01146">
        <ele>373.6</ele>
        <time>2024-08-03T07:25:12Z</time>
      </trkpt>
      <trkpt lat="47.28762" lon="6.0115">
        <ele>373.6</ele>
        <time>2024-08-03T07:25:13Z</time>
      </trkpt>
      <trkpt lat="47.28764" lon="6.01154">
        <ele>373.6</ele>
        <time>2024-08-03T07:25:14Z</time>
      </trkpt>
      <trkpt lat="47.28765" lon="6.01157">
        <ele>373.6</ele>
        <time>2024-08-03T07:25:15Z</time>
      </trkpt>
      <trkpt lat="47.28766" lon="6.01161">
        <ele>373.6</ele>
        <time>2024-08-03T07:25:16Z</time>
      </trkpt>
      <trkpt lat="47.28768" lon="6.01164">
        <ele>373.8</ele>
        <time>2024-08-03T07:25:17Z</time>
      </trkpt>
      <trkpt lat="47.2877" lon="6.01167">
        <ele>373.8</ele>
        <time>2024-08-03T07:25:18Z</time>
      </trkpt>
      <trkpt lat="47.28772" lon="6.0117">
        <ele>373.8</ele>
        <time>2024-08-03T07:25:19Z</time>
      </trkpt>
      <trkpt lat="47.28775" lon="6.01174">
        <ele>374</ele>
        <time>2024-08-03T07:25:20Z</time>
      </trkpt>
      <trkpt lat="47.28778" lon="6.01178">
        <ele>373.8</ele>
        <time>2024-08-03T07:25:21Z</time>
      </trkpt>
      <trkpt lat="47.28782" lon="6.01181">
        <ele>374</ele>
        <time>2024-08-03T07:25:22Z</time>
      </trkpt>
      <trkpt lat="47.28783" lon="6.01185">
        <ele>373.8</ele>
        <time>2024-08-03T07:25:23Z</time>
      </trkpt>
      <trkpt lat="47.28786" lon="6.01188">
        <ele>374</ele>
        <time>2024-08-03T07:25:24Z</time>
      </trkpt>
      <trkpt lat="47.28788" lon="6.01192">
        <ele>374</ele>
        <time>2024-08-03T07:25:25Z</time>
      </trkpt>
      <trkpt lat="47.2879" lon="6.01196">
        <ele>374.2</ele>
        <time>2024-08-03T07:25:26Z</time>
      </trkpt>
      <trkpt lat="47.28792" lon="6.01199">
        <ele>374</ele>
        <time>2024-08-03T07:25:27Z</time>
      </trkpt>
      <trkpt lat="47.28793" lon="6.01203">
        <ele>374</ele>
        <time>2024-08-03T07:25:28Z</time>
      </trkpt>
      <trkpt lat="47.28794" lon="6.01206">
        <ele>374</ele>
        <time>2024-08-03T07:25:29Z</time>
      </trkpt>
      <trkpt lat="47.28795" lon="6.01208">
        <ele>374</ele>
        <time>2024-08-03T07:25:30Z</time>
      </trkpt>
      <trkpt lat="47.28796" lon="6.01211">
        <ele>374</ele>
        <time>2024-08-03T07:25:31Z</time>
      </trkpt>
      <trkpt lat="47.28797" lon="6.01213">
        <ele>373.8</ele>
        <time>2024-08-03T07:25:32Z</time>
      </trkpt>
      <trkpt lat="47.28798" lon="6.01216">
        <ele>374</ele>
        <time>2024-08-03T07:25:33Z</time>
      </trkpt>
      <trkpt lat="47.28799" lon="6.01219">
        <ele>373.8</ele>
        <time>2024-08-03T07:25:34Z</time>
      </trkpt>
      <trkpt lat="47.288" lon="6.01222">
        <ele>373.8</ele>
        <time>2024-08-03T07:25:35Z</time>
      </trkpt>
      <trkpt lat="47.28802" lon="6.01224">
        <ele>373.6</ele>
        <time>2024-08-03T07:25:36Z</time>
      </trkpt>
      <trkpt lat="47.28804" lon="6.01227">
        <ele>373.6</ele>
        <time>2024-08-03T07:25:37Z</time>
      </trkpt>
      <trkpt lat="47.28805" lon="6.01229">
        <ele>373.4</ele>
        <time>2024-08-03T07:25:38Z</time>
      </trkpt>
      <trkpt lat="47.28807" lon="6.01231">
        <ele>373.2</ele>
        <time>2024-08-03T07:25:39Z</time>
      </trkpt>
      <trkpt lat="47.28808" lon="6.01234">
        <ele>372.8</ele>
        <time>2024-08-03T07:25:40Z</time>
      </trkpt>
      <trkpt lat="47.28809" lon="6.01238">
        <ele>372.8</ele>
        <time>2024-08-03T07:25:41Z</time>
      </trkpt>
      <trkpt lat="47.2881" lon="6.01241">
        <ele>372.6</ele>
        <time>2024-08-03T07:25:42Z</time>
      </trkpt>
      <trkpt lat="47.28811" lon="6.01245">
        <ele>372.4</ele>
        <time>2024-08-03T07:25:43Z</time>
      </trkpt>
      <trkpt lat="47.28813" lon="6.01249">
        <ele>372.2</ele>
        <time>2024-08-03T07:25:44Z</time>
      </trkpt>
      <trkpt lat="47.28815" lon="6.01253">
        <ele>372.2</ele>
        <time>2024-08-03T07:25:45Z</time>
      </trkpt>
      <trkpt lat="47.28817" lon="6.01258">
        <ele>372</ele>
        <time>2024-08-03T07:25:46Z</time>
      </trkpt>
      <trkpt lat="47.28819" lon="6.01262">
        <ele>371.8</ele>
        <time>2024-08-03T07:25:47Z</time>
      </trkpt>
      <trkpt lat="47.28822" lon="6.01267">
        <ele>371.8</ele>
        <time>2024-08-03T07:25:48Z</time>
      </trkpt>
      <trkpt lat="47.28824" lon="6.01271">
        <ele>371.8</ele>
        <time>2024-08-03T07:25:49Z</time>
      </trkpt>
      <trkpt lat="47.28826" lon="6.01275">
        <ele>371.6</ele>
        <time>2024-08-03T07:25:50Z</time>
      </trkpt>
      <trkpt lat="47.28828" lon="6.01278">
        <ele>371.2</ele>
        <time>2024-08-03T07:25:51Z</time>
      </trkpt>
      <trkpt lat="47.2883" lon="6.01281">
        <ele>370.8</ele>
        <time>2024-08-03T07:25:52Z</time>
      </trkpt>
      <trkpt lat="47.28832" lon="6.01285">
        <ele>370.4</ele>
        <time>2024-08-03T07:25:53Z</time>
      </trkpt>
      <trkpt lat="47.28834" lon="6.01289">
        <ele>370</ele>
        <time>2024-08-03T07:25:54Z</time>
      </trkpt>
      <trkpt lat="47.28838" lon="6.01293">
        <ele>369.6</ele>
        <time>2024-08-03T07:25:55Z</time>
      </trkpt>
      <trkpt lat="47.2884" lon="6.01297">
        <ele>369.2</ele>
        <time>2024-08-03T07:25:56Z</time>
      </trkpt>
      <trkpt lat="47.28843" lon="6.01301">
        <ele>369.2</ele>
        <time>2024-08-03T07:25:57Z</time>
      </trkpt>
      <trkpt lat="47.28845" lon="6.01305">
        <ele>368.8</ele>
        <time>2024-08-03T07:25:58Z</time>
      </trkpt>
      <trkpt lat="47.28848" lon="6.01309">
        <ele>368.8</ele>
        <time>2024-08-03T07:25:59Z</time>
      </trkpt>
      <trkpt lat="47.28851" lon="6.01314">
        <ele>368.6</ele>
        <time>2024-08-03T07:26:00Z</time>
      </trkpt>
      <trkpt lat="47.28853" lon="6.01318">
        <ele>368</ele>
        <time>2024-08-03T07:26:01Z</time>
      </trkpt>
      <trkpt lat="47.28855" lon="6.01321">
        <ele>367.8</ele>
        <time>2024-08-03T07:26:02Z</time>
      </trkpt>
      <trkpt lat="47.28856" lon="6.01325">
        <ele>367.6</ele>
        <time>2024-08-03T07:26:03Z</time>
      </trkpt>
      <trkpt lat="47.28857" lon="6.01328">
        <ele>367.2</ele>
        <time>2024-08-03T07:26:04Z</time>
      </trkpt>
      <trkpt lat="47.28857" lon="6.01332">
        <ele>367</ele>
        <time>2024-08-03T07:26:05Z</time>
      </trkpt>
      <trkpt lat="47.28858" lon="6.01335">
        <ele>366.4</ele>
        <time>2024-08-03T07:26:06Z</time>
      </trkpt>
      <trkpt lat="47.28859" lon="6.01337">
        <ele>365.8</ele>
        <time>2024-08-03T07:26:07Z</time>
      </trkpt>
      <trkpt lat="47.2886" lon="6.01339">
        <ele>365.6</ele>
        <time>2024-08-03T07:26:08Z</time>
      </trkpt>
      <trkpt lat="47.28862" lon="6.01342">
        <ele>365</ele>
        <time>2024-08-03T07:26:09Z</time>
      </trkpt>
      <trkpt lat="47.28863" lon="6.01344">
        <ele>364.6</ele>
        <time>2024-08-03T07:26:10Z</time>
      </trkpt>
      <trkpt lat="47.28866" lon="6.01346">
        <ele>364.2</ele>
        <time>2024-08-03T07:26:11Z</time>
      </trkpt>
      <trkpt lat="47.28869" lon="6.01348">
        <ele>363.8</ele>
        <time>2024-08-03T07:26:12Z</time>
      </trkpt>
      <trkpt lat="47.28872" lon="6.01351">
        <ele>363.4</ele>
        <time>2024-08-03T07:26:13Z</time>
      </trkpt>
      <trkpt lat="47.28874" lon="6.01352">
        <ele>363</ele>
        <time>2024-08-03T07:26:14Z</time>
      </trkpt>
      <trkpt lat="47.28876" lon="6.01354">
        <ele>362.8</ele>
        <time>2024-08-03T07:26:15Z</time>
      </trkpt>
      <trkpt lat="47.28878" lon="6.01355">
        <ele>362.6</ele>
        <time>2024-08-03T07:26:16Z</time>
      </trkpt>
      <trkpt lat="47.2888" lon="6.01356">
        <ele>362.6</ele>
        <time>2024-08-03T07:26:17Z</time>
      </trkpt>
      <trkpt lat="47.28882" lon="6.01358">
        <ele>362.6</ele>
        <time>2024-08-03T07:26:18Z</time>
      </trkpt>
      <trkpt lat="47.28884" lon="6.01361">
        <ele>362.6</ele>
        <time>2024-08-03T07:26:19Z</time>
      </trkpt>
      <trkpt lat="47.28886" lon="6.01364">
        <ele>362.4</ele>
        <time>2024-08-03T07:26:20Z</time>
      </trkpt>
      <trkpt lat="47.28888" lon="6.01367">
        <ele>362.6</ele>
        <time>2024-08-03T07:26:21Z</time>
      </trkpt>
      <trkpt lat="47.2889" lon="6.0137">
        <ele>362.4</ele>
        <time>2024-08-03T07:26:22Z</time>
      </trkpt>
      <trkpt lat="47.28893" lon="6.01374">
        <ele>362.4</ele>
        <time>2024-08-03T07:26:23Z</time>
      </trkpt>
      <trkpt lat="47.28896" lon="6.01377">
        <ele>362.4</ele>
        <time>2024-08-03T07:26:24Z</time>
      </trkpt>
      <trkpt lat="47.28898" lon="6.01379">
        <ele>362.2</ele>
        <time>2024-08-03T07:26:25Z</time>
      </trkpt>
      <trkpt lat="47.289" lon="6.01382">
        <ele>362.2</ele>
        <time>2024-08-03T07:26:26Z</time>
      </trkpt>
      <trkpt lat="47.28902" lon="6.01384">
        <ele>362.2</ele>
        <time>2024-08-03T07:26:27Z</time>
      </trkpt>
      <trkpt lat="47.28904" lon="6.01386">
        <ele>362</ele>
        <time>2024-08-03T07:26:28Z</time>
      </trkpt>
      <trkpt lat="47.28906" lon="6.01388">
        <ele>362.2</ele>
        <time>2024-08-03T07:26:29Z</time>
      </trkpt>
      <trkpt lat="47.28907" lon="6.0139">
        <ele>362.2</ele>
        <time>2024-08-03T07:26:30Z</time>
      </trkpt>
      <trkpt lat="47.28908" lon="6.01394">
        <ele>362.2</ele>
        <time>2024-08-03T07:26:31Z</time>
      </trkpt>
      <trkpt lat="47.2891" lon="6.01395">
        <ele>362.2</ele>
        <time>2024-08-03T07:26:32Z</time>
      </trkpt>
      <trkpt lat="47.28911" lon="6.01397">
        <ele>362.4</ele>
        <time>2024-08-03T07:26:33Z</time>
      </trkpt>
      <trkpt lat="47.28913" lon="6.01398">
        <ele>362.2</ele>
        <time>2024-08-03T07:26:34Z</time>
      </trkpt>
      <trkpt lat="47.28916" lon="6.014">
        <ele>362.4</ele>
        <time>2024-08-03T07:26:35Z</time>
      </trkpt>
      <trkpt lat="47.28917" lon="6.01402">
        <ele>362.4</ele>
        <time>2024-08-03T07:26:36Z</time>
      </trkpt>
      <trkpt lat="47.2892" lon="6.01403">
        <ele>362.4</ele>
        <time>2024-08-03T07:26:37Z</time>
      </trkpt>
      <trkpt lat="47.28922" lon="6.01403">
        <ele>362.4</ele>
        <time>2024-08-03T07:26:38Z</time>
      </trkpt>
      <trkpt lat="47.28924" lon="6.01404">
        <ele>362.2</ele>
        <time>2024-08-03T07:26:39Z</time>
      </trkpt>
      <trkpt lat="47.28926" lon="6.01405">
        <ele>362.4</ele>
        <time>2024-08-03T07:26:40Z</time>
      </trkpt>
      <trkpt lat="47.28928" lon="6.01404">
        <ele>362.4</ele>
        <time>2024-08-03T07:26:41Z</time>
      </trkpt>
      <trkpt lat="47.28931" lon="6.01405">
        <ele>362.4</ele>
        <time>2024-08-03T07:26:42Z</time>
      </trkpt>
      <trkpt lat="47.28934" lon="6.01404">
        <ele>362.8</ele>
        <time>2024-08-03T07:26:43Z</time>
      </trkpt>
      <trkpt lat="47.28936" lon="6.01403">
        <ele>362.8</ele>
        <time>2024-08-03T07:26:44Z</time>
      </trkpt>
      <trkpt lat="47.28937" lon="6.01402">
        <ele>363</ele>
        <time>2024-08-03T07:26:45Z</time>
      </trkpt>
      <trkpt lat="47.28939" lon="6.01401">
        <ele>363.2</ele>
        <time>2024-08-03T07:26:46Z</time>
      </trkpt>
      <trkpt lat="47.2894" lon="6.01403">
        <ele>363.2</ele>
        <time>2024-08-03T07:26:47Z</time>
      </trkpt>
      <trkpt lat="47.28942" lon="6.01402">
        <ele>363.2</ele>
        <time>2024-08-03T07:26:48Z</time>
      </trkpt>
      <trkpt lat="47.28943" lon="6.014">
        <ele>363.2</ele>
        <time>2024-08-03T07:26:49Z</time>
      </trkpt>
      <trkpt lat="47.28944" lon="6.01399">
        <ele>363.8</ele>
        <time>2024-08-03T07:26:50Z</time>
      </trkpt>
      <trkpt lat="47.28945" lon="6.01397">
        <ele>364</ele>
        <time>2024-08-03T07:26:51Z</time>
      </trkpt>
      <trkpt lat="47.28946" lon="6.01395">
        <ele>364.2</ele>
        <time>2024-08-03T07:26:52Z</time>
      </trkpt>
      <trkpt lat="47.28948" lon="6.01393">
        <ele>364.4</ele>
        <time>2024-08-03T07:26:53Z</time>
      </trkpt>
      <trkpt lat="47.2895" lon="6.01391">
        <ele>364.4</ele>
        <time>2024-08-03T07:26:54Z</time>
      </trkpt>
      <trkpt lat="47.28951" lon="6.01389">
        <ele>364.8</ele>
        <time>2024-08-03T07:26:55Z</time>
      </trkpt>
      <trkpt lat="47.28953" lon="6.01387">
        <ele>365</ele>
        <time>2024-08-03T07:26:56Z</time>
      </trkpt>
      <trkpt lat="47.28954" lon="6.01387">
        <ele>365.6</ele>
        <time>2024-08-03T07:26:57Z</time>
      </trkpt>
      <trkpt lat="47.28954" lon="6.01386">
        <ele>365.8</ele>
        <time>2024-08-03T07:26:58Z</time>
      </trkpt>
      <trkpt lat="47.28954" lon="6.01385">
        <ele>366.2</ele>
        <time>2024-08-03T07:26:59Z</time>
      </trkpt>
      <trkpt lat="47.28954" lon="6.01385">
        <ele>366.4</ele>
        <time>2024-08-03T07:27:00Z</time>
      </trkpt>
      <trkpt lat="47.29002" lon="6.01358">
        <ele>367.2</ele>
        <time>2024-08-03T07:27:07Z</time>
      </trkpt>
      <trkpt lat="47.29003" lon="6.01358">
        <ele>367.6</ele>
        <time>2024-08-03T07:27:08Z</time>
      </trkpt>
      <trkpt lat="47.29001" lon="6.01356">
        <ele>367.6</ele>
        <time>2024-08-03T07:27:09Z</time>
      </trkpt>
      <trkpt lat="47.29001" lon="6.01353">
        <ele>368</ele>
        <time>2024-08-03T07:27:10Z</time>
      </trkpt>
      <trkpt lat="47.29002" lon="6.0135">
        <ele>368</ele>
        <time>2024-08-03T07:27:11Z</time>
      </trkpt>
      <trkpt lat="47.29002" lon="6.01347">
        <ele>368</ele>
        <time>2024-08-03T07:27:12Z</time>
      </trkpt>
      <trkpt lat="47.29001" lon="6.01344">
        <ele>368.4</ele>
        <time>2024-08-03T07:27:13Z</time>
      </trkpt>
      <trkpt lat="47.29001" lon="6.01342">
        <ele>368.4</ele>
        <time>2024-08-03T07:27:14Z</time>
      </trkpt>
      <trkpt lat="47.29001" lon="6.0134">
        <ele>368.6</ele>
        <time>2024-08-03T07:27:15Z</time>
      </trkpt>
      <trkpt lat="47.29001" lon="6.01338">
        <ele>368.8</ele>
        <time>2024-08-03T07:27:16Z</time>
      </trkpt>
      <trkpt lat="47.29" lon="6.01335">
        <ele>369</ele>
        <time>2024-08-03T07:27:17Z</time>
      </trkpt>
      <trkpt lat="47.29001" lon="6.01332">
        <ele>369.4</ele>
        <time>2024-08-03T07:27:18Z</time>
      </trkpt>
      <trkpt lat="47.29001" lon="6.0133">
        <ele>369.6</ele>
        <time>2024-08-03T07:27:19Z</time>
      </trkpt>
      <trkpt lat="47.29001" lon="6.01328">
        <ele>369.8</ele>
        <time>2024-08-03T07:27:20Z</time>
      </trkpt>
      <trkpt lat="47.28999" lon="6.01325">
        <ele>370.2</ele>
        <time>2024-08-03T07:27:21Z</time>
      </trkpt>
      <trkpt lat="47.28999" lon="6.01321">
        <ele>370.4</ele>
        <time>2024-08-03T07:27:22Z</time>
      </trkpt>
      <trkpt lat="47.28999" lon="6.01318">
        <ele>370.6</ele>
        <time>2024-08-03T07:27:23Z</time>
      </trkpt>
      <trkpt lat="47.28998" lon="6.01315">
        <ele>370.8</ele>
        <time>2024-08-03T07:27:24Z</time>
      </trkpt>
      <trkpt lat="47.28998" lon="6.01312">
        <ele>370.8</ele>
        <time>2024-08-03T07:27:25Z</time>
      </trkpt>
      <trkpt lat="47.28998" lon="6.01308">
        <ele>371</ele>
        <time>2024-08-03T07:27:26Z</time>
      </trkpt>
      <trkpt lat="47.28996" lon="6.01305">
        <ele>371.2</ele>
        <time>2024-08-03T07:27:27Z</time>
      </trkpt>
      <trkpt lat="47.28995" lon="6.01302">
        <ele>371.2</ele>
        <time>2024-08-03T07:27:28Z</time>
      </trkpt>
      <trkpt lat="47.28995" lon="6.01298">
        <ele>371.4</ele>
        <time>2024-08-03T07:27:29Z</time>
      </trkpt>
      <trkpt lat="47.28994" lon="6.01295">
        <ele>371.4</ele>
        <time>2024-08-03T07:27:30Z</time>
      </trkpt>
      <trkpt lat="47.28994" lon="6.01292">
        <ele>371.6</ele>
        <time>2024-08-03T07:27:31Z</time>
      </trkpt>
      <trkpt lat="47.28994" lon="6.01289">
        <ele>371.6</ele>
        <time>2024-08-03T07:27:32Z</time>
      </trkpt>
      <trkpt lat="47.28992" lon="6.01286">
        <ele>371.6</ele>
        <time>2024-08-03T07:27:33Z</time>
      </trkpt>
      <trkpt lat="47.28991" lon="6.01283">
        <ele>371.8</ele>
        <time>2024-08-03T07:27:34Z</time>
      </trkpt>
      <trkpt lat="47.28991" lon="6.01281">
        <ele>372.2</ele>
        <time>2024-08-03T07:27:35Z</time>
      </trkpt>
      <trkpt lat="47.28991" lon="6.01279">
        <ele>372.2</ele>
        <time>2024-08-03T07:27:36Z</time>
      </trkpt>
      <trkpt lat="47.28992" lon="6.01277">
        <ele>372.4</ele>
        <time>2024-08-03T07:27:37Z</time>
      </trkpt>
      <trkpt lat="47.28993" lon="6.01276">
        <ele>372.6</ele>
        <time>2024-08-03T07:27:38Z</time>
      </trkpt>
      <trkpt lat="47.28994" lon="6.01274">
        <ele>372.8</ele>
        <time>2024-08-03T07:27:39Z</time>
      </trkpt>
      <trkpt lat="47.28996" lon="6.01274">
        <ele>373</ele>
        <time>2024-08-03T07:27:40Z</time>
      </trkpt>
      <trkpt lat="47.28997" lon="6.01273">
        <ele>373.4</ele>
        <time>2024-08-03T07:27:41Z</time>
      </trkpt>
      <trkpt lat="47.28998" lon="6.01273">
        <ele>373.6</ele>
        <time>2024-08-03T07:27:42Z</time>
      </trkpt>
      <trkpt lat="47.28999" lon="6.01273">
        <ele>373.8</ele>
        <time>2024-08-03T07:27:43Z</time>
      </trkpt>
      <trkpt lat="47.29" lon="6.01273">
        <ele>373.8</ele>
        <time>2024-08-03T07:27:44Z</time>
      </trkpt>
      <trkpt lat="47.29001" lon="6.01272">
        <ele>374</ele>
        <time>2024-08-03T07:27:45Z</time>
      </trkpt>
      <trkpt lat="47.29003" lon="6.01272">
        <ele>374.4</ele>
        <time>2024-08-03T07:27:46Z</time>
      </trkpt>
      <trkpt lat="47.29004" lon="6.01271">
        <ele>374.4</ele>
        <time>2024-08-03T07:27:47Z</time>
      </trkpt>
      <trkpt lat="47.29005" lon="6.01271">
        <ele>374.6</ele>
        <time>2024-08-03T07:27:48Z</time>
      </trkpt>
      <trkpt lat="47.29007" lon="6.01271">
        <ele>375</ele>
        <time>2024-08-03T07:27:49Z</time>
      </trkpt>
      <trkpt lat="47.29008" lon="6.0127">
        <ele>375.2</ele>
        <time>2024-08-03T07:27:50Z</time>
      </trkpt>
      <trkpt lat="47.2901" lon="6.0127">
        <ele>375.6</ele>
        <time>2024-08-03T07:27:51Z</time>
      </trkpt>
      <trkpt lat="47.29011" lon="6.0127">
        <ele>375.8</ele>
        <time>2024-08-03T07:27:52Z</time>
      </trkpt>
      <trkpt lat="47.29013" lon="6.0127">
        <ele>376</ele>
        <time>2024-08-03T07:27:53Z</time>
      </trkpt>
      <trkpt lat="47.29015" lon="6.0127">
        <ele>376.2</ele>
        <time>2024-08-03T07:27:54Z</time>
      </trkpt>
      <trkpt lat="47.29016" lon="6.0127">
        <ele>376.4</ele>
        <time>2024-08-03T07:27:55Z</time>
      </trkpt>
      <trkpt lat="47.29017" lon="6.0127">
        <ele>376.6</ele>
        <time>2024-08-03T07:27:56Z</time>
      </trkpt>
      <trkpt lat="47.29019" lon="6.0127">
        <ele>376.4</ele>
        <time>2024-08-03T07:27:57Z</time>
      </trkpt>
      <trkpt lat="47.2902" lon="6.0127">
        <ele>376.8</ele>
        <time>2024-08-03T07:27:58Z</time>
      </trkpt>
      <trkpt lat="47.29022" lon="6.01269">
        <ele>377</ele>
        <time>2024-08-03T07:27:59Z</time>
      </trkpt>
      <trkpt lat="47.29023" lon="6.01268">
        <ele>377.2</ele>
        <time>2024-08-03T07:28:00Z</time>
      </trkpt>
      <trkpt lat="47.29024" lon="6.01267">
        <ele>377.4</ele>
        <time>2024-08-03T07:28:01Z</time>
      </trkpt>
      <trkpt lat="47.29023" lon="6.01265">
        <ele>377.4</ele>
        <time>2024-08-03T07:28:02Z</time>
      </trkpt>
      <trkpt lat="47.29023" lon="6.01264">
        <ele>377.6</ele>
        <time>2024-08-03T07:28:03Z</time>
      </trkpt>
      <trkpt lat="47.29022" lon="6.01262">
        <ele>377.8</ele>
        <time>2024-08-03T07:28:04Z</time>
      </trkpt>
      <trkpt lat="47.29022" lon="6.01261">
        <ele>377.8</ele>
        <time>2024-08-03T07:28:05Z</time>
      </trkpt>
      <trkpt lat="47.29022" lon="6.0126">
        <ele>378</ele>
        <time>2024-08-03T07:28:06Z</time>
      </trkpt>
      <trkpt lat="47.29021" lon="6.01258">
        <ele>378.2</ele>
        <time>2024-08-03T07:28:07Z</time>
      </trkpt>
      <trkpt lat="47.2902" lon="6.01257">
        <ele>378.2</ele>
        <time>2024-08-03T07:28:08Z</time>
      </trkpt>
      <trkpt lat="47.2902" lon="6.01255">
        <ele>378.2</ele>
        <time>2024-08-03T07:28:09Z</time>
      </trkpt>
      <trkpt lat="47.29019" lon="6.01253">
        <ele>378.4</ele>
        <time>2024-08-03T07:28:10Z</time>
      </trkpt>
      <trkpt lat="47.29017" lon="6.01252">
        <ele>378.8</ele>
        <time>2024-08-03T07:28:11Z</time>
      </trkpt>
      <trkpt lat="47.29016" lon="6.01249">
        <ele>378.8</ele>
        <time>2024-08-03T07:28:12Z</time>
      </trkpt>
      <trkpt lat="47.29015" lon="6.01247">
        <ele>379</ele>
        <time>2024-08-03T07:28:13Z</time>
      </trkpt>
      <trkpt lat="47.29015" lon="6.01244">
        <ele>379.2</ele>
        <time>2024-08-03T07:28:14Z</time>
      </trkpt>
      <trkpt lat="47.29014" lon="6.01242">
        <ele>379.2</ele>
        <time>2024-08-03T07:28:15Z</time>
      </trkpt>
      <trkpt lat="47.29015" lon="6.01241">
        <ele>379.4</ele>
        <time>2024-08-03T07:28:16Z</time>
      </trkpt>
      <trkpt lat="47.29015" lon="6.0124">
        <ele>379.6</ele>
        <time>2024-08-03T07:28:17Z</time>
      </trkpt>
      <trkpt lat="47.29017" lon="6.01239">
        <ele>379.6</ele>
        <time>2024-08-03T07:28:18Z</time>
      </trkpt>
      <trkpt lat="47.29018" lon="6.01239">
        <ele>380</ele>
        <time>2024-08-03T07:28:19Z</time>
      </trkpt>
      <trkpt lat="47.29019" lon="6.01238">
        <ele>380</ele>
        <time>2024-08-03T07:28:20Z</time>
      </trkpt>
      <trkpt lat="47.2902" lon="6.01237">
        <ele>380</ele>
        <time>2024-08-03T07:28:21Z</time>
      </trkpt>
      <trkpt lat="47.29021" lon="6.01237">
        <ele>380</ele>
        <time>2024-08-03T07:28:22Z</time>
      </trkpt>
      <trkpt lat="47.29023" lon="6.01237">
        <ele>380.4</ele>
        <time>2024-08-03T07:28:23Z</time>
      </trkpt>
      <trkpt lat="47.29024" lon="6.01237">
        <ele>380.6</ele>
        <time>2024-08-03T07:28:24Z</time>
      </trkpt>
      <trkpt lat="47.29025" lon="6.01236">
        <ele>380.6</ele>
        <time>2024-08-03T07:28:25Z</time>
      </trkpt>
      <trkpt lat="47.29027" lon="6.01236">
        <ele>380.8</ele>
        <time>2024-08-03T07:28:26Z</time>
      </trkpt>
      <trkpt lat="47.29028" lon="6.01236">
        <ele>381</ele>
        <time>2024-08-03T07:28:27Z</time>
      </trkpt>
      <trkpt lat="47.2903" lon="6.01235">
        <ele>381.2</ele>
        <time>2024-08-03T07:28:28Z</time>
      </trkpt>
      <trkpt lat="47.29031" lon="6.01235">
        <ele>381.4</ele>
        <time>2024-08-03T07:28:29Z</time>
      </trkpt>
      <trkpt lat="47.29032" lon="6.01234">
        <ele>381.4</ele>
        <time>2024-08-03T07:28:30Z</time>
      </trkpt>
      <trkpt lat="47.29033" lon="6.01234">
        <ele>381.4</ele>
        <time>2024-08-03T07:28:31Z</time>
      </trkpt>
      <trkpt lat="47.29034" lon="6.01234">
        <ele>381.6</ele>
        <time>2024-08-03T07:28:32Z</time>
      </trkpt>
      <trkpt lat="47.29036" lon="6.01234">
        <ele>381.8</ele>
        <time>2024-08-03T07:28:33Z</time>
      </trkpt>
      <trkpt lat="47.29038" lon="6.01234">
        <ele>382</ele>
        <time>2024-08-03T07:28:34Z</time>
      </trkpt>
      <trkpt lat="47.2904" lon="6.01235">
        <ele>382.2</ele>
        <time>2024-08-03T07:28:35Z</time>
      </trkpt>
      <trkpt lat="47.29041" lon="6.01234">
        <ele>382.4</ele>
        <time>2024-08-03T07:28:36Z</time>
      </trkpt>
      <trkpt lat="47.29043" lon="6.01233">
        <ele>382.4</ele>
        <time>2024-08-03T07:28:37Z</time>
      </trkpt>
      <trkpt lat="47.29045" lon="6.01233">
        <ele>382.6</ele>
        <time>2024-08-03T07:28:38Z</time>
      </trkpt>
      <trkpt lat="47.29046" lon="6.01232">
        <ele>382.6</ele>
        <time>2024-08-03T07:28:39Z</time>
      </trkpt>
      <trkpt lat="47.29048" lon="6.01231">
        <ele>383</ele>
        <time>2024-08-03T07:28:40Z</time>
      </trkpt>
      <trkpt lat="47.29049" lon="6.01231">
        <ele>383.2</ele>
        <time>2024-08-03T07:28:41Z</time>
      </trkpt>
      <trkpt lat="47.29051" lon="6.01231">
        <ele>383.2</ele>
        <time>2024-08-03T07:28:42Z</time>
      </trkpt>
      <trkpt lat="47.29052" lon="6.0123">
        <ele>383.4</ele>
        <time>2024-08-03T07:28:43Z</time>
      </trkpt>
      <trkpt lat="47.29054" lon="6.01231">
        <ele>383.6</ele>
        <time>2024-08-03T07:28:44Z</time>
      </trkpt>
      <trkpt lat="47.29056" lon="6.0123">
        <ele>383.8</ele>
        <time>2024-08-03T07:28:45Z</time>
      </trkpt>
      <trkpt lat="47.29058" lon="6.0123">
        <ele>383.8</ele>
        <time>2024-08-03T07:28:46Z</time>
      </trkpt>
      <trkpt lat="47.29059" lon="6.0123">
        <ele>384</ele>
        <time>2024-08-03T07:28:47Z</time>
      </trkpt>
      <trkpt lat="47.29061" lon="6.01229">
        <ele>384.2</ele>
        <time>2024-08-03T07:28:48Z</time>
      </trkpt>
      <trkpt lat="47.29062" lon="6.01228">
        <ele>384.2</ele>
        <time>2024-08-03T07:28:49Z</time>
      </trkpt>
      <trkpt lat="47.29063" lon="6.01227">
        <ele>384.6</ele>
        <time>2024-08-03T07:28:50Z</time>
      </trkpt>
      <trkpt lat="47.29064" lon="6.01227">
        <ele>384.8</ele>
        <time>2024-08-03T07:28:51Z</time>
      </trkpt>
      <trkpt lat="47.29066" lon="6.01226">
        <ele>384.8</ele>
        <time>2024-08-03T07:28:52Z</time>
      </trkpt>
      <trkpt lat="47.29067" lon="6.01225">
        <ele>384.8</ele>
        <time>2024-08-03T07:28:53Z</time>
      </trkpt>
      <trkpt lat="47.29069" lon="6.01224">
        <ele>385</ele>
        <time>2024-08-03T07:28:54Z</time>
      </trkpt>
      <trkpt lat="47.29071" lon="6.01223">
        <ele>385</ele>
        <time>2024-08-03T07:28:55Z</time>
      </trkpt>
      <trkpt lat="47.29072" lon="6.01223">
        <ele>385.2</ele>
        <time>2024-08-03T07:28:56Z</time>
      </trkpt>
      <trkpt lat="47.29074" lon="6.01223">
        <ele>385.4</ele>
        <time>2024-08-03T07:28:57Z</time>
      </trkpt>
      <trkpt lat="47.29076" lon="6.01223">
        <ele>385.4</ele>
        <time>2024-08-03T07:28:58Z</time>
      </trkpt>
      <trkpt lat="47.29077" lon="6.01223">
        <ele>385.6</ele>
        <time>2024-08-03T07:28:59Z</time>
      </trkpt>
      <trkpt lat="47.29079" lon="6.01224">
        <ele>385.6</ele>
        <time>2024-08-03T07:29:00Z</time>
      </trkpt>
      <trkpt lat="47.29081" lon="6.01224">
        <ele>385.6</ele>
        <time>2024-08-03T07:29:01Z</time>
      </trkpt>
      <trkpt lat="47.29083" lon="6.01226">
        <ele>385.6</ele>
        <time>2024-08-03T07:29:02Z</time>
      </trkpt>
      <trkpt lat="47.29084" lon="6.01227">
        <ele>385.6</ele>
        <time>2024-08-03T07:29:03Z</time>
      </trkpt>
      <trkpt lat="47.29086" lon="6.01227">
        <ele>385.8</ele>
        <time>2024-08-03T07:29:04Z</time>
      </trkpt>
      <trkpt lat="47.29089" lon="6.01229">
        <ele>385.8</ele>
        <time>2024-08-03T07:29:05Z</time>
      </trkpt>
      <trkpt lat="47.29092" lon="6.01231">
        <ele>385.6</ele>
        <time>2024-08-03T07:29:06Z</time>
      </trkpt>
      <trkpt lat="47.29095" lon="6.01233">
        <ele>385.8</ele>
        <time>2024-08-03T07:29:07Z</time>
      </trkpt>
      <trkpt lat="47.29098" lon="6.01235">
        <ele>385.8</ele>
        <time>2024-08-03T07:29:08Z</time>
      </trkpt>
      <trkpt lat="47.29101" lon="6.01236">
        <ele>385.8</ele>
        <time>2024-08-03T07:29:09Z</time>
      </trkpt>
      <trkpt lat="47.29103" lon="6.01237">
        <ele>385.8</ele>
        <time>2024-08-03T07:29:10Z</time>
      </trkpt>
      <trkpt lat="47.29106" lon="6.01239">
        <ele>385.8</ele>
        <time>2024-08-03T07:29:11Z</time>
      </trkpt>
      <trkpt lat="47.2911" lon="6.0124">
        <ele>385.8</ele>
        <time>2024-08-03T07:29:12Z</time>
      </trkpt>
      <trkpt lat="47.29113" lon="6.01241">
        <ele>385.8</ele>
        <time>2024-08-03T07:29:13Z</time>
      </trkpt>
      <trkpt lat="47.29117" lon="6.01242">
        <ele>385.8</ele>
        <time>2024-08-03T07:29:14Z</time>
      </trkpt>
      <trkpt lat="47.2912" lon="6.01243">
        <ele>385.6</ele>
        <time>2024-08-03T07:29:15Z</time>
      </trkpt>
      <trkpt lat="47.29124" lon="6.01244">
        <ele>385.6</ele>
        <time>2024-08-03T07:29:16Z</time>
      </trkpt>
      <trkpt lat="47.29128" lon="6.01245">
        <ele>385.4</ele>
        <time>2024-08-03T07:29:17Z</time>
      </trkpt>
      <trkpt lat="47.2913" lon="6.01246">
        <ele>385.2</ele>
        <time>2024-08-03T07:29:18Z</time>
      </trkpt>
      <trkpt lat="47.29133" lon="6.01247">
        <ele>385.4</ele>
        <time>2024-08-03T07:29:19Z</time>
      </trkpt>
      <trkpt lat="47.29136" lon="6.01247">
        <ele>385.2</ele>
        <time>2024-08-03T07:29:20Z</time>
      </trkpt>
      <trkpt lat="47.29138" lon="6.01247">
        <ele>384.8</ele>
        <time>2024-08-03T07:29:21Z</time>
      </trkpt>
      <trkpt lat="47.29141" lon="6.01247">
        <ele>384.6</ele>
        <time>2024-08-03T07:29:22Z</time>
      </trkpt>
      <trkpt lat="47.29144" lon="6.01247">
        <ele>384.2</ele>
        <time>2024-08-03T07:29:23Z</time>
      </trkpt>
      <trkpt lat="47.29147" lon="6.01248">
        <ele>384</ele>
        <time>2024-08-03T07:29:24Z</time>
      </trkpt>
      <trkpt lat="47.2915" lon="6.01249">
        <ele>383.8</ele>
        <time>2024-08-03T07:29:25Z</time>
      </trkpt>
      <trkpt lat="47.29154" lon="6.0125">
        <ele>383.4</ele>
        <time>2024-08-03T07:29:26Z</time>
      </trkpt>
      <trkpt lat="47.29157" lon="6.0125">
        <ele>383.2</ele>
        <time>2024-08-03T07:29:27Z</time>
      </trkpt>
      <trkpt lat="47.29161" lon="6.0125">
        <ele>383</ele>
        <time>2024-08-03T07:29:28Z</time>
      </trkpt>
      <trkpt lat="47.29165" lon="6.01249">
        <ele>382.6</ele>
        <time>2024-08-03T07:29:29Z</time>
      </trkpt>
      <trkpt lat="47.29168" lon="6.01249">
        <ele>382.2</ele>
        <time>2024-08-03T07:29:30Z</time>
      </trkpt>
      <trkpt lat="47.29173" lon="6.01248">
        <ele>381.8</ele>
        <time>2024-08-03T07:29:31Z</time>
      </trkpt>
      <trkpt lat="47.29176" lon="6.01246">
        <ele>381.4</ele>
        <time>2024-08-03T07:29:32Z</time>
      </trkpt>
      <trkpt lat="47.29179" lon="6.01245">
        <ele>380.8</ele>
        <time>2024-08-03T07:29:33Z</time>
      </trkpt>
      <trkpt lat="47.29182" lon="6.01244">
        <ele>380.4</ele>
        <time>2024-08-03T07:29:34Z</time>
      </trkpt>
      <trkpt lat="47.29183" lon="6.01242">
        <ele>380</ele>
        <time>2024-08-03T07:29:35Z</time>
      </trkpt>
      <trkpt lat="47.29185" lon="6.01241">
        <ele>380</ele>
        <time>2024-08-03T07:29:36Z</time>
      </trkpt>
      <trkpt lat="47.29187" lon="6.01241">
        <ele>379.4</ele>
        <time>2024-08-03T07:29:37Z</time>
      </trkpt>
      <trkpt lat="47.29189" lon="6.01241">
        <ele>379</ele>
        <time>2024-08-03T07:29:38Z</time>
      </trkpt>
      <trkpt lat="47.29191" lon="6.0124">
        <ele>378.8</ele>
        <time>2024-08-03T07:29:39Z</time>
      </trkpt>
      <trkpt lat="47.29194" lon="6.01238">
        <ele>378.6</ele>
        <time>2024-08-03T07:29:40Z</time>
      </trkpt>
      <trkpt lat="47.29196" lon="6.01236">
        <ele>378.4</ele>
        <time>2024-08-03T07:29:41Z</time>
      </trkpt>
      <trkpt lat="47.29199" lon="6.01234">
        <ele>378.2</ele>
        <time>2024-08-03T07:29:42Z</time>
      </trkpt>
      <trkpt lat="47.29201" lon="6.01234">
        <ele>378.2</ele>
        <time>2024-08-03T07:29:43Z</time>
      </trkpt>
      <trkpt lat="47.29204" lon="6.01232">
        <ele>378.2</ele>
        <time>2024-08-03T07:29:44Z</time>
      </trkpt>
      <trkpt lat="47.29207" lon="6.0123">
        <ele>378</ele>
        <time>2024-08-03T07:29:45Z</time>
      </trkpt>
      <trkpt lat="47.2921" lon="6.01229">
        <ele>378</ele>
        <time>2024-08-03T07:29:46Z</time>
      </trkpt>
      <trkpt lat="47.29213" lon="6.01228">
        <ele>378.2</ele>
        <time>2024-08-03T07:29:47Z</time>
      </trkpt>
      <trkpt lat="47.29215" lon="6.01226">
        <ele>378</ele>
        <time>2024-08-03T07:29:48Z</time>
      </trkpt>
      <trkpt lat="47.29219" lon="6.01225">
        <ele>378</ele>
        <time>2024-08-03T07:29:49Z</time>
      </trkpt>
      <trkpt lat="47.29223" lon="6.01224">
        <ele>378</ele>
        <time>2024-08-03T07:29:50Z</time>
      </trkpt>
      <trkpt lat="47.29225" lon="6.01223">
        <ele>378.2</ele>
        <time>2024-08-03T07:29:51Z</time>
      </trkpt>
      <trkpt lat="47.29228" lon="6.01222">
        <ele>378</ele>
        <time>2024-08-03T07:29:52Z</time>
      </trkpt>
      <trkpt lat="47.29231" lon="6.01221">
        <ele>378.2</ele>
        <time>2024-08-03T07:29:53Z</time>
      </trkpt>
      <trkpt lat="47.29234" lon="6.01221">
        <ele>378.2</ele>
        <time>2024-08-03T07:29:54Z</time>
      </trkpt>
      <trkpt lat="47.29236" lon="6.0122">
        <ele>378.4</ele>
        <time>2024-08-03T07:29:55Z</time>
      </trkpt>
      <trkpt lat="47.29238" lon="6.01219">
        <ele>378.4</ele>
        <time>2024-08-03T07:29:56Z</time>
      </trkpt>
      <trkpt lat="47.2924" lon="6.01218">
        <ele>378.4</ele>
        <time>2024-08-03T07:29:57Z</time>
      </trkpt>
      <trkpt lat="47.29241" lon="6.01217">
        <ele>378.4</ele>
        <time>2024-08-03T07:29:58Z</time>
      </trkpt>
      <trkpt lat="47.29243" lon="6.01215">
        <ele>378.4</ele>
        <time>2024-08-03T07:29:59Z</time>
      </trkpt>
      <trkpt lat="47.29245" lon="6.01215">
        <ele>378.8</ele>
        <time>2024-08-03T07:30:00Z</time>
      </trkpt>
      <trkpt lat="47.29247" lon="6.01215">
        <ele>378.6</ele>
        <time>2024-08-03T07:30:01Z</time>
      </trkpt>
      <trkpt lat="47.29248" lon="6.01214">
        <ele>378.8</ele>
        <time>2024-08-03T07:30:02Z</time>
      </trkpt>
      <trkpt lat="47.2925" lon="6.01213">
        <ele>379</ele>
        <time>2024-08-03T07:30:03Z</time>
      </trkpt>
      <trkpt lat="47.29252" lon="6.01213">
        <ele>379</ele>
        <time>2024-08-03T07:30:04Z</time>
      </trkpt>
      <trkpt lat="47.29254" lon="6.01212">
        <ele>379.4</ele>
        <time>2024-08-03T07:30:05Z</time>
      </trkpt>
      <trkpt lat="47.29255" lon="6.01211">
        <ele>379.4</ele>
        <time>2024-08-03T07:30:06Z</time>
      </trkpt>
      <trkpt lat="47.29257" lon="6.0121">
        <ele>379.6</ele>
        <time>2024-08-03T07:30:07Z</time>
      </trkpt>
      <trkpt lat="47.29259" lon="6.01209">
        <ele>379.6</ele>
        <time>2024-08-03T07:30:08Z</time>
      </trkpt>
      <trkpt lat="47.29261" lon="6.01208">
        <ele>379.8</ele>
        <time>2024-08-03T07:30:09Z</time>
      </trkpt>
      <trkpt lat="47.29263" lon="6.01208">
        <ele>380</ele>
        <time>2024-08-03T07:30:10Z</time>
      </trkpt>
      <trkpt lat="47.29264" lon="6.01208">
        <ele>380.2</ele>
        <time>2024-08-03T07:30:11Z</time>
      </trkpt>
      <trkpt lat="47.29266" lon="6.01207">
        <ele>380.4</ele>
        <time>2024-08-03T07:30:12Z</time>
      </trkpt>
      <trkpt lat="47.29267" lon="6.01207">
        <ele>380.8</ele>
        <time>2024-08-03T07:30:13Z</time>
      </trkpt>
      <trkpt lat="47.29269" lon="6.01206">
        <ele>381</ele>
        <time>2024-08-03T07:30:14Z</time>
      </trkpt>
      <trkpt lat="47.2927" lon="6.01204">
        <ele>381.2</ele>
        <time>2024-08-03T07:30:15Z</time>
      </trkpt>
      <trkpt lat="47.29271" lon="6.01203">
        <ele>381.4</ele>
        <time>2024-08-03T07:30:16Z</time>
      </trkpt>
      <trkpt lat="47.29272" lon="6.01201">
        <ele>381.6</ele>
        <time>2024-08-03T07:30:17Z</time>
      </trkpt>
      <trkpt lat="47.29274" lon="6.01199">
        <ele>381.8</ele>
        <time>2024-08-03T07:30:18Z</time>
      </trkpt>
      <trkpt lat="47.29275" lon="6.01197">
        <ele>382</ele>
        <time>2024-08-03T07:30:19Z</time>
      </trkpt>
      <trkpt lat="47.29276" lon="6.01195">
        <ele>382</ele>
        <time>2024-08-03T07:30:20Z</time>
      </trkpt>
      <trkpt lat="47.29277" lon="6.01193">
        <ele>382.2</ele>
        <time>2024-08-03T07:30:21Z</time>
      </trkpt>
      <trkpt lat="47.29278" lon="6.01191">
        <ele>382.4</ele>
        <time>2024-08-03T07:30:22Z</time>
      </trkpt>
      <trkpt lat="47.29279" lon="6.0119">
        <ele>382.8</ele>
        <time>2024-08-03T07:30:23Z</time>
      </trkpt>
      <trkpt lat="47.2928" lon="6.01188">
        <ele>382.8</ele>
        <time>2024-08-03T07:30:24Z</time>
      </trkpt>
      <trkpt lat="47.2928" lon="6.01185">
        <ele>383.4</ele>
        <time>2024-08-03T07:30:25Z</time>
      </trkpt>
      <trkpt lat="47.29281" lon="6.01182">
        <ele>383.6</ele>
        <time>2024-08-03T07:30:26Z</time>
      </trkpt>
      <trkpt lat="47.29282" lon="6.0118">
        <ele>383.8</ele>
        <time>2024-08-03T07:30:27Z</time>
      </trkpt>
      <trkpt lat="47.29284" lon="6.01179">
        <ele>384</ele>
        <time>2024-08-03T07:30:28Z</time>
      </trkpt>
      <trkpt lat="47.29285" lon="6.01178">
        <ele>384.2</ele>
        <time>2024-08-03T07:30:29Z</time>
      </trkpt>
      <trkpt lat="47.29287" lon="6.01177">
        <ele>384.4</ele>
        <time>2024-08-03T07:30:30Z</time>
      </trkpt>
      <trkpt lat="47.29288" lon="6.01176">
        <ele>384.8</ele>
        <time>2024-08-03T07:30:31Z</time>
      </trkpt>
      <trkpt lat="47.29289" lon="6.01175">
        <ele>384.8</ele>
        <time>2024-08-03T07:30:32Z</time>
      </trkpt>
      <trkpt lat="47.29291" lon="6.01174">
        <ele>385</ele>
        <time>2024-08-03T07:30:33Z</time>
      </trkpt>
      <trkpt lat="47.29292" lon="6.01173">
        <ele>385.4</ele>
        <time>2024-08-03T07:30:34Z</time>
      </trkpt>
      <trkpt lat="47.29294" lon="6.01173">
        <ele>385.6</ele>
        <time>2024-08-03T07:30:35Z</time>
      </trkpt>
      <trkpt lat="47.29296" lon="6.01173">
        <ele>385.6</ele>
        <time>2024-08-03T07:30:36Z</time>
      </trkpt>
      <trkpt lat="47.29298" lon="6.01173">
        <ele>386</ele>
        <time>2024-08-03T07:30:37Z</time>
      </trkpt>
      <trkpt lat="47.293" lon="6.01173">
        <ele>386.2</ele>
        <time>2024-08-03T07:30:38Z</time>
      </trkpt>
      <trkpt lat="47.29302" lon="6.01172">
        <ele>386.4</ele>
        <time>2024-08-03T07:30:39Z</time>
      </trkpt>
      <trkpt lat="47.29303" lon="6.01172">
        <ele>386.6</ele>
        <time>2024-08-03T07:30:40Z</time>
      </trkpt>
      <trkpt lat="47.29304" lon="6.01171">
        <ele>386.8</ele>
        <time>2024-08-03T07:30:41Z</time>
      </trkpt>
      <trkpt lat="47.29306" lon="6.0117">
        <ele>386.8</ele>
        <time>2024-08-03T07:30:42Z</time>
      </trkpt>
      <trkpt lat="47.29308" lon="6.0117">
        <ele>387.2</ele>
        <time>2024-08-03T07:30:43Z</time>
      </trkpt>
      <trkpt lat="47.29309" lon="6.0117">
        <ele>387.2</ele>
        <time>2024-08-03T07:30:44Z</time>
      </trkpt>
      <trkpt lat="47.29311" lon="6.01169">
        <ele>387.6</ele>
        <time>2024-08-03T07:30:45Z</time>
      </trkpt>
      <trkpt lat="47.29313" lon="6.01168">
        <ele>387.8</ele>
        <time>2024-08-03T07:30:46Z</time>
      </trkpt>
      <trkpt lat="47.29314" lon="6.01168">
        <ele>388</ele>
        <time>2024-08-03T07:30:47Z</time>
      </trkpt>
      <trkpt lat="47.29315" lon="6.01168">
        <ele>388.2</ele>
        <time>2024-08-03T07:30:48Z</time>
      </trkpt>
      <trkpt lat="47.29316" lon="6.01168">
        <ele>388.4</ele>
        <time>2024-08-03T07:30:49Z</time>
      </trkpt>
      <trkpt lat="47.29318" lon="6.01168">
        <ele>388.6</ele>
        <time>2024-08-03T07:30:50Z</time>
      </trkpt>
      <trkpt lat="47.29319" lon="6.01167">
        <ele>388.6</ele>
        <time>2024-08-03T07:30:51Z</time>
      </trkpt>
      <trkpt lat="47.29321" lon="6.01167">
        <ele>388.8</ele>
        <time>2024-08-03T07:30:52Z</time>
      </trkpt>
      <trkpt lat="47.29322" lon="6.01168">
        <ele>389.2</ele>
        <time>2024-08-03T07:30:53Z</time>
      </trkpt>
      <trkpt lat="47.29325" lon="6.0117">
        <ele>389.4</ele>
        <time>2024-08-03T07:30:54Z</time>
      </trkpt>
      <trkpt lat="47.29327" lon="6.01171">
        <ele>389.6</ele>
        <time>2024-08-03T07:30:55Z</time>
      </trkpt>
      <trkpt lat="47.29329" lon="6.01172">
        <ele>389.8</ele>
        <time>2024-08-03T07:30:56Z</time>
      </trkpt>
      <trkpt lat="47.29331" lon="6.01173">
        <ele>390</ele>
        <time>2024-08-03T07:30:57Z</time>
      </trkpt>
      <trkpt lat="47.29333" lon="6.01174">
        <ele>390.2</ele>
        <time>2024-08-03T07:30:58Z</time>
      </trkpt>
      <trkpt lat="47.29335" lon="6.01175">
        <ele>390.4</ele>
        <time>2024-08-03T07:30:59Z</time>
      </trkpt>
      <trkpt lat="47.29337" lon="6.01175">
        <ele>390.6</ele>
        <time>2024-08-03T07:31:00Z</time>
      </trkpt>
      <trkpt lat="47.29339" lon="6.01176">
        <ele>390.8</ele>
        <time>2024-08-03T07:31:01Z</time>
      </trkpt>
      <trkpt lat="47.29341" lon="6.01177">
        <ele>390.8</ele>
        <time>2024-08-03T07:31:02Z</time>
      </trkpt>
      <trkpt lat="47.29343" lon="6.01178">
        <ele>391</ele>
        <time>2024-08-03T07:31:03Z</time>
      </trkpt>
      <trkpt lat="47.29345" lon="6.01179">
        <ele>391</ele>
        <time>2024-08-03T07:31:04Z</time>
      </trkpt>
      <trkpt lat="47.29347" lon="6.0118">
        <ele>391.2</ele>
        <time>2024-08-03T07:31:05Z</time>
      </trkpt>
      <trkpt lat="47.29348" lon="6.01181">
        <ele>391.4</ele>
        <time>2024-08-03T07:31:06Z</time>
      </trkpt>
      <trkpt lat="47.2935" lon="6.01182">
        <ele>391.4</ele>
        <time>2024-08-03T07:31:07Z</time>
      </trkpt>
      <trkpt lat="47.29351" lon="6.01182">
        <ele>391.6</ele>
        <time>2024-08-03T07:31:08Z</time>
      </trkpt>
      <trkpt lat="47.29353" lon="6.01182">
        <ele>391.6</ele>
        <time>2024-08-03T07:31:09Z</time>
      </trkpt>
      <trkpt lat="47.29354" lon="6.01182">
        <ele>392</ele>
        <time>2024-08-03T07:31:10Z</time>
      </trkpt>
      <trkpt lat="47.29356" lon="6.01182">
        <ele>392</ele>
        <time>2024-08-03T07:31:11Z</time>
      </trkpt>
      <trkpt lat="47.29357" lon="6.01183">
        <ele>392.4</ele>
        <time>2024-08-03T07:31:12Z</time>
      </trkpt>
      <trkpt lat="47.29358" lon="6.01183">
        <ele>392.4</ele>
        <time>2024-08-03T07:31:13Z</time>
      </trkpt>
      <trkpt lat="47.2936" lon="6.01182">
        <ele>392.6</ele>
        <time>2024-08-03T07:31:14Z</time>
      </trkpt>
      <trkpt lat="47.29361" lon="6.0118">
        <ele>392.6</ele>
        <time>2024-08-03T07:31:15Z</time>
      </trkpt>
      <trkpt lat="47.29362" lon="6.0118">
        <ele>393</ele>
        <time>2024-08-03T07:31:16Z</time>
      </trkpt>
      <trkpt lat="47.29363" lon="6.0118">
        <ele>393.2</ele>
        <time>2024-08-03T07:31:17Z</time>
      </trkpt>
      <trkpt lat="47.29366" lon="6.0118">
        <ele>393.4</ele>
        <time>2024-08-03T07:31:18Z</time>
      </trkpt>
      <trkpt lat="47.29368" lon="6.01181">
        <ele>393.6</ele>
        <time>2024-08-03T07:31:19Z</time>
      </trkpt>
      <trkpt lat="47.29369" lon="6.01181">
        <ele>393.8</ele>
        <time>2024-08-03T07:31:20Z</time>
      </trkpt>
      <trkpt lat="47.29371" lon="6.01181">
        <ele>393.8</ele>
        <time>2024-08-03T07:31:21Z</time>
      </trkpt>
      <trkpt lat="47.29373" lon="6.01181">
        <ele>394</ele>
        <time>2024-08-03T07:31:22Z</time>
      </trkpt>
      <trkpt lat="47.29375" lon="6.01182">
        <ele>394</ele>
        <time>2024-08-03T07:31:23Z</time>
      </trkpt>
      <trkpt lat="47.29376" lon="6.01181">
        <ele>394.2</ele>
        <time>2024-08-03T07:31:24Z</time>
      </trkpt>
      <trkpt lat="47.29377" lon="6.0118">
        <ele>394.2</ele>
        <time>2024-08-03T07:31:25Z</time>
      </trkpt>
      <trkpt lat="47.29379" lon="6.0118">
        <ele>394.4</ele>
        <time>2024-08-03T07:31:26Z</time>
      </trkpt>
      <trkpt lat="47.29381" lon="6.01181">
        <ele>394.6</ele>
        <time>2024-08-03T07:31:27Z</time>
      </trkpt>
      <trkpt lat="47.29383" lon="6.0118">
        <ele>394.6</ele>
        <time>2024-08-03T07:31:28Z</time>
      </trkpt>
      <trkpt lat="47.29386" lon="6.0118">
        <ele>395</ele>
        <time>2024-08-03T07:31:29Z</time>
      </trkpt>
      <trkpt lat="47.29388" lon="6.01181">
        <ele>395.2</ele>
        <time>2024-08-03T07:31:30Z</time>
      </trkpt>
      <trkpt lat="47.29391" lon="6.01181">
        <ele>395.2</ele>
        <time>2024-08-03T07:31:31Z</time>
      </trkpt>
      <trkpt lat="47.29393" lon="6.01182">
        <ele>395.4</ele>
        <time>2024-08-03T07:31:32Z</time>
      </trkpt>
      <trkpt lat="47.29396" lon="6.01182">
        <ele>395.4</ele>
        <time>2024-08-03T07:31:33Z</time>
      </trkpt>
      <trkpt lat="47.29398" lon="6.01182">
        <ele>395.6</ele>
        <time>2024-08-03T07:31:34Z</time>
      </trkpt>
      <trkpt lat="47.294" lon="6.01183">
        <ele>395.8</ele>
        <time>2024-08-03T07:31:35Z</time>
      </trkpt>
      <trkpt lat="47.29402" lon="6.01182">
        <ele>395.8</ele>
        <time>2024-08-03T07:31:36Z</time>
      </trkpt>
      <trkpt lat="47.29404" lon="6.01182">
        <ele>396</ele>
        <time>2024-08-03T07:31:37Z</time>
      </trkpt>
      <trkpt lat="47.29406" lon="6.01182">
        <ele>396</ele>
        <time>2024-08-03T07:31:38Z</time>
      </trkpt>
      <trkpt lat="47.29408" lon="6.01182">
        <ele>396</ele>
        <time>2024-08-03T07:31:39Z</time>
      </trkpt>
      <trkpt lat="47.2941" lon="6.01182">
        <ele>396.4</ele>
        <time>2024-08-03T07:31:40Z</time>
      </trkpt>
      <trkpt lat="47.29413" lon="6.01182">
        <ele>396.6</ele>
        <time>2024-08-03T07:31:41Z</time>
      </trkpt>
      <trkpt lat="47.29415" lon="6.01182">
        <ele>396.6</ele>
        <time>2024-08-03T07:31:42Z</time>
      </trkpt>
      <trkpt lat="47.29417" lon="6.01182">
        <ele>396.6</ele>
        <time>2024-08-03T07:31:43Z</time>
      </trkpt>
      <trkpt lat="47.29418" lon="6.01181">
        <ele>396.8</ele>
        <time>2024-08-03T07:31:44Z</time>
      </trkpt>
      <trkpt lat="47.2942" lon="6.01182">
        <ele>396.8</ele>
        <time>2024-08-03T07:31:45Z</time>
      </trkpt>
      <trkpt lat="47.29421" lon="6.01182">
        <ele>397</ele>
        <time>2024-08-03T07:31:46Z</time>
      </trkpt>
      <trkpt lat="47.29423" lon="6.01182">
        <ele>397</ele>
        <time>2024-08-03T07:31:47Z</time>
      </trkpt>
      <trkpt lat="47.29424" lon="6.01182">
        <ele>397.2</ele>
        <time>2024-08-03T07:31:48Z</time>
      </trkpt>
      <trkpt lat="47.29426" lon="6.01182">
        <ele>397.4</ele>
        <time>2024-08-03T07:31:49Z</time>
      </trkpt>
      <trkpt lat="47.29428" lon="6.01182">
        <ele>397.6</ele>
        <time>2024-08-03T07:31:50Z</time>
      </trkpt>
      <trkpt lat="47.29429" lon="6.01182">
        <ele>397.8</ele>
        <time>2024-08-03T07:31:51Z</time>
      </trkpt>
      <trkpt lat="47.29431" lon="6.01181">
        <ele>397.8</ele>
        <time>2024-08-03T07:31:52Z</time>
      </trkpt>
      <trkpt lat="47.29432" lon="6.01181">
        <ele>398</ele>
        <time>2024-08-03T07:31:53Z</time>
      </trkpt>
      <trkpt lat="47.29433" lon="6.0118">
        <ele>398.2</ele>
        <time>2024-08-03T07:31:54Z</time>
      </trkpt>
      <trkpt lat="47.29434" lon="6.0118">
        <ele>398.4</ele>
        <time>2024-08-03T07:31:55Z</time>
      </trkpt>
      <trkpt lat="47.29435" lon="6.01179">
        <ele>398.6</ele>
        <time>2024-08-03T07:31:56Z</time>
      </trkpt>
      <trkpt lat="47.29438" lon="6.01178">
        <ele>398.8</ele>
        <time>2024-08-03T07:31:57Z</time>
      </trkpt>
      <trkpt lat="47.2944" lon="6.01177">
        <ele>399</ele>
        <time>2024-08-03T07:31:58Z</time>
      </trkpt>
      <trkpt lat="47.29442" lon="6.01176">
        <ele>399.4</ele>
        <time>2024-08-03T07:31:59Z</time>
      </trkpt>
      <trkpt lat="47.29444" lon="6.01175">
        <ele>399.4</ele>
        <time>2024-08-03T07:32:00Z</time>
      </trkpt>
      <trkpt lat="47.29445" lon="6.01176">
        <ele>399.6</ele>
        <time>2024-08-03T07:32:01Z</time>
      </trkpt>
      <trkpt lat="47.29447" lon="6.01176">
        <ele>400</ele>
        <time>2024-08-03T07:32:02Z</time>
      </trkpt>
      <trkpt lat="47.29448" lon="6.01176">
        <ele>400</ele>
        <time>2024-08-03T07:32:03Z</time>
      </trkpt>
      <trkpt lat="47.2945" lon="6.01176">
        <ele>400.4</ele>
        <time>2024-08-03T07:32:04Z</time>
      </trkpt>
      <trkpt lat="47.29451" lon="6.01176">
        <ele>400.8</ele>
        <time>2024-08-03T07:32:05Z</time>
      </trkpt>
      <trkpt lat="47.29452" lon="6.01176">
        <ele>401</ele>
        <time>2024-08-03T07:32:06Z</time>
      </trkpt>
      <trkpt lat="47.29454" lon="6.01176">
        <ele>401.2</ele>
        <time>2024-08-03T07:32:07Z</time>
      </trkpt>
      <trkpt lat="47.29456" lon="6.01176">
        <ele>401.4</ele>
        <time>2024-08-03T07:32:08Z</time>
      </trkpt>
      <trkpt lat="47.29457" lon="6.01175">
        <ele>401.4</ele>
        <time>2024-08-03T07:32:09Z</time>
      </trkpt>
      <trkpt lat="47.2946" lon="6.01174">
        <ele>401.6</ele>
        <time>2024-08-03T07:32:10Z</time>
      </trkpt>
      <trkpt lat="47.29464" lon="6.01174">
        <ele>401.8</ele>
        <time>2024-08-03T07:32:11Z</time>
      </trkpt>
      <trkpt lat="47.29466" lon="6.01173">
        <ele>402.2</ele>
        <time>2024-08-03T07:32:12Z</time>
      </trkpt>
      <trkpt lat="47.29467" lon="6.01172">
        <ele>402.2</ele>
        <time>2024-08-03T07:32:13Z</time>
      </trkpt>
      <trkpt lat="47.29469" lon="6.01171">
        <ele>402.4</ele>
        <time>2024-08-03T07:32:14Z</time>
      </trkpt>
      <trkpt lat="47.2947" lon="6.01171">
        <ele>402.6</ele>
        <time>2024-08-03T07:32:15Z</time>
      </trkpt>
      <trkpt lat="47.29471" lon="6.0117">
        <ele>403</ele>
        <time>2024-08-03T07:32:16Z</time>
      </trkpt>
      <trkpt lat="47.29472" lon="6.01168">
        <ele>403.2</ele>
        <time>2024-08-03T07:32:17Z</time>
      </trkpt>
      <trkpt lat="47.29473" lon="6.01167">
        <ele>403.2</ele>
        <time>2024-08-03T07:32:18Z</time>
      </trkpt>
      <trkpt lat="47.29475" lon="6.01166">
        <ele>403.6</ele>
        <time>2024-08-03T07:32:19Z</time>
      </trkpt>
      <trkpt lat="47.29477" lon="6.01164">
        <ele>404</ele>
        <time>2024-08-03T07:32:20Z</time>
      </trkpt>
      <trkpt lat="47.29478" lon="6.01163">
        <ele>404.2</ele>
        <time>2024-08-03T07:32:21Z</time>
      </trkpt>
      <trkpt lat="47.2948" lon="6.01162">
        <ele>404.6</ele>
        <time>2024-08-03T07:32:22Z</time>
      </trkpt>
      <trkpt lat="47.29481" lon="6.01161">
        <ele>405</ele>
        <time>2024-08-03T07:32:23Z</time>
      </trkpt>
      <trkpt lat="47.29482" lon="6.01161">
        <ele>405.2</ele>
        <time>2024-08-03T07:32:24Z</time>
      </trkpt>
      <trkpt lat="47.29483" lon="6.0116">
        <ele>405.4</ele>
        <time>2024-08-03T07:32:25Z</time>
      </trkpt>
      <trkpt lat="47.29485" lon="6.0116">
        <ele>405.6</ele>
        <time>2024-08-03T07:32:26Z</time>
      </trkpt>
      <trkpt lat="47.29487" lon="6.0116">
        <ele>405.8</ele>
        <time>2024-08-03T07:32:27Z</time>
      </trkpt>
      <trkpt lat="47.29488" lon="6.0116">
        <ele>406.2</ele>
        <time>2024-08-03T07:32:28Z</time>
      </trkpt>
      <trkpt lat="47.29489" lon="6.0116">
        <ele>406.6</ele>
        <time>2024-08-03T07:32:29Z</time>
      </trkpt>
      <trkpt lat="47.2949" lon="6.0116">
        <ele>407</ele>
        <time>2024-08-03T07:32:30Z</time>
      </trkpt>
      <trkpt lat="47.29491" lon="6.01159">
        <ele>407</ele>
        <time>2024-08-03T07:32:31Z</time>
      </trkpt>
      <trkpt lat="47.29491" lon="6.01157">
        <ele>407.2</ele>
        <time>2024-08-03T07:32:32Z</time>
      </trkpt>
      <trkpt lat="47.29492" lon="6.01157">
        <ele>407.4</ele>
        <time>2024-08-03T07:32:33Z</time>
      </trkpt>
      <trkpt lat="47.29493" lon="6.01156">
        <ele>407.8</ele>
        <time>2024-08-03T07:32:34Z</time>
      </trkpt>
      <trkpt lat="47.29493" lon="6.01156">
        <ele>408.2</ele>
        <time>2024-08-03T07:32:35Z</time>
      </trkpt>
      <trkpt lat="47.29494" lon="6.01156">
        <ele>408.6</ele>
        <time>2024-08-03T07:32:36Z</time>
      </trkpt>
      <trkpt lat="47.29495" lon="6.01156">
        <ele>409</ele>
        <time>2024-08-03T07:32:37Z</time>
      </trkpt>
      <trkpt lat="47.29496" lon="6.01156">
        <ele>409.4</ele>
        <time>2024-08-03T07:32:38Z</time>
      </trkpt>
      <trkpt lat="47.29496" lon="6.01155">
        <ele>409.8</ele>
        <time>2024-08-03T07:32:39Z</time>
      </trkpt>
      <trkpt lat="47.29497" lon="6.01154">
        <ele>410.2</ele>
        <time>2024-08-03T07:32:40Z</time>
      </trkpt>
      <trkpt lat="47.29498" lon="6.01153">
        <ele>410.4</ele>
        <time>2024-08-03T07:32:41Z</time>
      </trkpt>
      <trkpt lat="47.29499" lon="6.01153">
        <ele>410.6</ele>
        <time>2024-08-03T07:32:42Z</time>
      </trkpt>
      <trkpt lat="47.295" lon="6.01152">
        <ele>411</ele>
        <time>2024-08-03T07:32:43Z</time>
      </trkpt>
      <trkpt lat="47.295" lon="6.01151">
        <ele>411.4</ele>
        <time>2024-08-03T07:32:44Z</time>
      </trkpt>
      <trkpt lat="47.29502" lon="6.0115">
        <ele>411.8</ele>
        <time>2024-08-03T07:32:45Z</time>
      </trkpt>
      <trkpt lat="47.29503" lon="6.0115">
        <ele>412.2</ele>
        <time>2024-08-03T07:32:46Z</time>
      </trkpt>
      <trkpt lat="47.29504" lon="6.01149">
        <ele>412.4</ele>
        <time>2024-08-03T07:32:47Z</time>
      </trkpt>
      <trkpt lat="47.29505" lon="6.01149">
        <ele>412.8</ele>
        <time>2024-08-03T07:32:48Z</time>
      </trkpt>
      <trkpt lat="47.29506" lon="6.01148">
        <ele>412.8</ele>
        <time>2024-08-03T07:32:49Z</time>
      </trkpt>
      <trkpt lat="47.29506" lon="6.01148">
        <ele>413</ele>
        <time>2024-08-03T07:32:50Z</time>
      </trkpt>
      <trkpt lat="47.29506" lon="6.01147">
        <ele>413.4</ele>
        <time>2024-08-03T07:32:51Z</time>
      </trkpt>
      <trkpt lat="47.29506" lon="6.01146">
        <ele>413.6</ele>
        <time>2024-08-03T07:32:52Z</time>
      </trkpt>
      <trkpt lat="47.29507" lon="6.01145">
        <ele>413.6</ele>
        <time>2024-08-03T07:32:53Z</time>
      </trkpt>
      <trkpt lat="47.29508" lon="6.01144">
        <ele>414</ele>
        <time>2024-08-03T07:32:54Z</time>
      </trkpt>
      <trkpt lat="47.29509" lon="6.01144">
        <ele>414.4</ele>
        <time>2024-08-03T07:32:55Z</time>
      </trkpt>
      <trkpt lat="47.2951" lon="6.01142">
        <ele>414.8</ele>
        <time>2024-08-03T07:32:56Z</time>
      </trkpt>
      <trkpt lat="47.29511" lon="6.01141">
        <ele>415</ele>
        <time>2024-08-03T07:32:57Z</time>
      </trkpt>
      <trkpt lat="47.29512" lon="6.0114">
        <ele>415.2</ele>
        <time>2024-08-03T07:32:58Z</time>
      </trkpt>
      <trkpt lat="47.29513" lon="6.01139">
        <ele>415.4</ele>
        <time>2024-08-03T07:32:59Z</time>
      </trkpt>
      <trkpt lat="47.29513" lon="6.01138">
        <ele>415.6</ele>
        <time>2024-08-03T07:33:00Z</time>
      </trkpt>
      <trkpt lat="47.29514" lon="6.01137">
        <ele>415.6</ele>
        <time>2024-08-03T07:33:01Z</time>
      </trkpt>
      <trkpt lat="47.29514" lon="6.01136">
        <ele>415.6</ele>
        <time>2024-08-03T07:33:02Z</time>
      </trkpt>
      <trkpt lat="47.29514" lon="6.01136">
        <ele>415.8</ele>
        <time>2024-08-03T07:33:03Z</time>
      </trkpt>
      <trkpt lat="47.29514" lon="6.01135">
        <ele>416</ele>
        <time>2024-08-03T07:33:04Z</time>
      </trkpt>
      <trkpt lat="47.29515" lon="6.01135">
        <ele>416.2</ele>
        <time>2024-08-03T07:33:05Z</time>
      </trkpt>
      <trkpt lat="47.29515" lon="6.01135">
        <ele>416.6</ele>
        <time>2024-08-03T07:33:06Z</time>
      </trkpt>
      <trkpt lat="47.29515" lon="6.01135">
        <ele>416.4</ele>
        <time>2024-08-03T07:33:07Z</time>
      </trkpt>
      <trkpt lat="47.29515" lon="6.01134">
        <ele>416.8</ele>
        <time>2024-08-03T07:33:08Z</time>
      </trkpt>
      <trkpt lat="47.29515" lon="6.01134">
        <ele>416.8</ele>
        <time>2024-08-03T07:33:09Z</time>
      </trkpt>
      <trkpt lat="47.29515" lon="6.01134">
        <ele>416.8</ele>
        <time>2024-08-03T07:33:10Z</time>
      </trkpt>
      <trkpt lat="47.29516" lon="6.01134">
        <ele>417</ele>
        <time>2024-08-03T07:33:11Z</time>
      </trkpt>
      <trkpt lat="47.29516" lon="6.01134">
        <ele>417</ele>
        <time>2024-08-03T07:33:12Z</time>
      </trkpt>
      <trkpt lat="47.29516" lon="6.01133">
        <ele>417</ele>
        <time>2024-08-03T07:33:13Z</time>
      </trkpt>
      <trkpt lat="47.29516" lon="6.01132">
        <ele>417</ele>
        <time>2024-08-03T07:33:14Z</time>
      </trkpt>
      <trkpt lat="47.29517" lon="6.01131">
        <ele>417</ele>
        <time>2024-08-03T07:33:15Z</time>
      </trkpt>
      <trkpt lat="47.29517" lon="6.0113">
        <ele>417</ele>
        <time>2024-08-03T07:33:16Z</time>
      </trkpt>
      <trkpt lat="47.29518" lon="6.01128">
        <ele>417.2</ele>
        <time>2024-08-03T07:33:17Z</time>
      </trkpt>
      <trkpt lat="47.29518" lon="6.01127">
        <ele>417.2</ele>
        <time>2024-08-03T07:33:18Z</time>
      </trkpt>
      <trkpt lat="47.29518" lon="6.01126">
        <ele>417</ele>
        <time>2024-08-03T07:33:19Z</time>
      </trkpt>
      <trkpt lat="47.29519" lon="6.01125">
        <ele>417.2</ele>
        <time>2024-08-03T07:33:20Z</time>
      </trkpt>
      <trkpt lat="47.2952" lon="6.01124">
        <ele>417.2</ele>
        <time>2024-08-03T07:33:21Z</time>
      </trkpt>
      <trkpt lat="47.29521" lon="6.01123">
        <ele>417.4</ele>
        <time>2024-08-03T07:33:22Z</time>
      </trkpt>
      <trkpt lat="47.29522" lon="6.01121">
        <ele>417.2</ele>
        <time>2024-08-03T07:33:23Z</time>
      </trkpt>
      <trkpt lat="47.29524" lon="6.0112">
        <ele>417.4</ele>
        <time>2024-08-03T07:33:24Z</time>
      </trkpt>
      <trkpt lat="47.29525" lon="6.01119">
        <ele>417.6</ele>
        <time>2024-08-03T07:33:25Z</time>
      </trkpt>
      <trkpt lat="47.29526" lon="6.01118">
        <ele>417.6</ele>
        <time>2024-08-03T07:33:26Z</time>
      </trkpt>
      <trkpt lat="47.29527" lon="6.01117">
        <ele>417.8</ele>
        <time>2024-08-03T07:33:27Z</time>
      </trkpt>
      <trkpt lat="47.29528" lon="6.01116">
        <ele>417.8</ele>
        <time>2024-08-03T07:33:28Z</time>
      </trkpt>
      <trkpt lat="47.29529" lon="6.01115">
        <ele>418.2</ele>
        <time>2024-08-03T07:33:29Z</time>
      </trkpt>
      <trkpt lat="47.2953" lon="6.01114">
        <ele>418.2</ele>
        <time>2024-08-03T07:33:30Z</time>
      </trkpt>
      <trkpt lat="47.29531" lon="6.01113">
        <ele>418.4</ele>
        <time>2024-08-03T07:33:31Z</time>
      </trkpt>
      <trkpt lat="47.29531" lon="6.01112">
        <ele>418.4</ele>
        <time>2024-08-03T07:33:32Z</time>
      </trkpt>
      <trkpt lat="47.29532" lon="6.01112">
        <ele>418.6</ele>
        <time>2024-08-03T07:33:33Z</time>
      </trkpt>
      <trkpt lat="47.29532" lon="6.01111">
        <ele>418.6</ele>
        <time>2024-08-03T07:33:34Z</time>
      </trkpt>
      <trkpt lat="47.29532" lon="6.0111">
        <ele>418.8</ele>
        <time>2024-08-03T07:33:35Z</time>
      </trkpt>
      <trkpt lat="47.29531" lon="6.0111">
        <ele>418.8</ele>
        <time>2024-08-03T07:33:36Z</time>
      </trkpt>
      <trkpt lat="47.29531" lon="6.0111">
        <ele>419.2</ele>
        <time>2024-08-03T07:33:37Z</time>
      </trkpt>
      <trkpt lat="47.2953" lon="6.0111">
        <ele>419.4</ele>
        <time>2024-08-03T07:33:38Z</time>
      </trkpt>
      <trkpt lat="47.2953" lon="6.01109">
        <ele>419.4</ele>
        <time>2024-08-03T07:33:39Z</time>
      </trkpt>
      <trkpt lat="47.2953" lon="6.01109">
        <ele>419.6</ele>
        <time>2024-08-03T07:33:40Z</time>
      </trkpt>
      <trkpt lat="47.2953" lon="6.01109">
        <ele>419.8</ele>
        <time>2024-08-03T07:33:41Z</time>
      </trkpt>
      <trkpt lat="47.2953" lon="6.01109">
        <ele>419.6</ele>
        <time>2024-08-03T07:33:42Z</time>
      </trkpt>
      <trkpt lat="47.2953" lon="6.01109">
        <ele>419.8</ele>
        <time>2024-08-03T07:33:43Z</time>
      </trkpt>
      <trkpt lat="47.2953" lon="6.01109">
        <ele>419.6</ele>
        <time>2024-08-03T07:33:44Z</time>
      </trkpt>
      <trkpt lat="47.2953" lon="6.01109">
        <ele>419.8</ele>
        <time>2024-08-03T07:33:45Z</time>
      </trkpt>
      <trkpt lat="47.2953" lon="6.01109">
        <ele>419.8</ele>
        <time>2024-08-03T07:33:46Z</time>
      </trkpt>
      <trkpt lat="47.2953" lon="6.01109">
        <ele>419.8</ele>
        <time>2024-08-03T07:33:47Z</time>
      </trkpt>
      <trkpt lat="47.29531" lon="6.01109">
        <ele>419.8</ele>
        <time>2024-08-03T07:33:48Z</time>
      </trkpt>
      <trkpt lat="47.29531" lon="6.01109">
        <ele>419.8</ele>
        <time>2024-08-03T07:33:49Z</time>
      </trkpt>
      <trkpt lat="47.29531" lon="6.01109">
        <ele>419.8</ele>
        <time>2024-08-03T07:33:50Z</time>
      </trkpt>
      <trkpt lat="47.2953" lon="6.01109">
        <ele>419.8</ele>
        <time>2024-08-03T07:33:51Z</time>
      </trkpt>
      <trkpt lat="47.2953" lon="6.01109">
        <ele>419.8</ele>
        <time>2024-08-03T07:33:52Z</time>
      </trkpt>
      <trkpt lat="47.2953" lon="6.01109">
        <ele>420</ele>
        <time>2024-08-03T07:33:53Z</time>
      </trkpt>
      <trkpt lat="47.2953" lon="6.01109">
        <ele>420</ele>
        <time>2024-08-03T07:33:54Z</time>
      </trkpt>
      <trkpt lat="47.2953" lon="6.01108">
        <ele>419.8</ele>
        <time>2024-08-03T07:33:55Z</time>
      </trkpt>
      <trkpt lat="47.2953" lon="6.01108">
        <ele>420</ele>
        <time>2024-08-03T07:33:56Z</time>
      </trkpt>
      <trkpt lat="47.29529" lon="6.01107">
        <ele>419.8</ele>
        <time>2024-08-03T07:33:57Z</time>
      </trkpt>
      <trkpt lat="47.29529" lon="6.01106">
        <ele>419.8</ele>
        <time>2024-08-03T07:33:58Z</time>
      </trkpt>
      <trkpt lat="47.29528" lon="6.01106">
        <ele>420</ele>
        <time>2024-08-03T07:33:59Z</time>
      </trkpt>
      <trkpt lat="47.29527" lon="6.01105">
        <ele>419.8</ele>
        <time>2024-08-03T07:34:00Z</time>
      </trkpt>
      <trkpt lat="47.29527" lon="6.01104">
        <ele>419.8</ele>
        <time>2024-08-03T07:34:01Z</time>
      </trkpt>
      <trkpt lat="47.29526" lon="6.01103">
        <ele>419.8</ele>
        <time>2024-08-03T07:34:02Z</time>
      </trkpt>
      <trkpt lat="47.29526" lon="6.01101">
        <ele>419.8</ele>
        <time>2024-08-03T07:34:03Z</time>
      </trkpt>
      <trkpt lat="47.29525" lon="6.01101">
        <ele>419.8</ele>
        <time>2024-08-03T07:34:04Z</time>
      </trkpt>
      <trkpt lat="47.29525" lon="6.011">
        <ele>419.8</ele>
        <time>2024-08-03T07:34:05Z</time>
      </trkpt>
      <trkpt lat="47.29525" lon="6.011">
        <ele>420</ele>
        <time>2024-08-03T07:34:06Z</time>
      </trkpt>
      <trkpt lat="47.29525" lon="6.011">
        <ele>420</ele>
        <time>2024-08-03T07:34:07Z</time>
      </trkpt>
      <trkpt lat="47.29524" lon="6.011">
        <ele>420.2</ele>
        <time>2024-08-03T07:34:08Z</time>
      </trkpt>
      <trkpt lat="47.29524" lon="6.01099">
        <ele>420.2</ele>
        <time>2024-08-03T07:34:09Z</time>
      </trkpt>
      <trkpt lat="47.29523" lon="6.01099">
        <ele>420.2</ele>
        <time>2024-08-03T07:34:10Z</time>
      </trkpt>
      <trkpt lat="47.29523" lon="6.01098">
        <ele>420.4</ele>
        <time>2024-08-03T07:34:11Z</time>
      </trkpt>
      <trkpt lat="47.29523" lon="6.01097">
        <ele>420.4</ele>
        <time>2024-08-03T07:34:12Z</time>
      </trkpt>
      <trkpt lat="47.29523" lon="6.01097">
        <ele>420.6</ele>
        <time>2024-08-03T07:34:13Z</time>
      </trkpt>
      <trkpt lat="47.29523" lon="6.01096">
        <ele>420.6</ele>
        <time>2024-08-03T07:34:14Z</time>
      </trkpt>
      <trkpt lat="47.29522" lon="6.01095">
        <ele>420.8</ele>
        <time>2024-08-03T07:34:15Z</time>
      </trkpt>
      <trkpt lat="47.29522" lon="6.01095">
        <ele>420.8</ele>
        <time>2024-08-03T07:34:16Z</time>
      </trkpt>
      <trkpt lat="47.29522" lon="6.01093">
        <ele>421</ele>
        <time>2024-08-03T07:34:17Z</time>
      </trkpt>
      <trkpt lat="47.29521" lon="6.01092">
        <ele>421</ele>
        <time>2024-08-03T07:34:18Z</time>
      </trkpt>
      <trkpt lat="47.29521" lon="6.0109">
        <ele>421</ele>
        <time>2024-08-03T07:34:19Z</time>
      </trkpt>
      <trkpt lat="47.2952" lon="6.01089">
        <ele>421</ele>
        <time>2024-08-03T07:34:20Z</time>
      </trkpt>
      <trkpt lat="47.29519" lon="6.01087">
        <ele>421</ele>
        <time>2024-08-03T07:34:21Z</time>
      </trkpt>
      <trkpt lat="47.29518" lon="6.01084">
        <ele>421.2</ele>
        <time>2024-08-03T07:34:22Z</time>
      </trkpt>
      <trkpt lat="47.29518" lon="6.01082">
        <ele>421.2</ele>
        <time>2024-08-03T07:34:23Z</time>
      </trkpt>
      <trkpt lat="47.29518" lon="6.0108">
        <ele>421.2</ele>
        <time>2024-08-03T07:34:24Z</time>
      </trkpt>
      <trkpt lat="47.29517" lon="6.01078">
        <ele>421.2</ele>
        <time>2024-08-03T07:34:25Z</time>
      </trkpt>
      <trkpt lat="47.29517" lon="6.01076">
        <ele>421.2</ele>
        <time>2024-08-03T07:34:26Z</time>
      </trkpt>
      <trkpt lat="47.29516" lon="6.01073">
        <ele>421.2</ele>
        <time>2024-08-03T07:34:27Z</time>
      </trkpt>
      <trkpt lat="47.29515" lon="6.01071">
        <ele>421.2</ele>
        <time>2024-08-03T07:34:28Z</time>
      </trkpt>
      <trkpt lat="47.29513" lon="6.01069">
        <ele>421.4</ele>
        <time>2024-08-03T07:34:29Z</time>
      </trkpt>
      <trkpt lat="47.29513" lon="6.01067">
        <ele>421.6</ele>
        <time>2024-08-03T07:34:30Z</time>
      </trkpt>
      <trkpt lat="47.29512" lon="6.01064">
        <ele>421.4</ele>
        <time>2024-08-03T07:34:31Z</time>
      </trkpt>
      <trkpt lat="47.29511" lon="6.01062">
        <ele>421.6</ele>
        <time>2024-08-03T07:34:32Z</time>
      </trkpt>
      <trkpt lat="47.2951" lon="6.0106">
        <ele>421.8</ele>
        <time>2024-08-03T07:34:33Z</time>
      </trkpt>
      <trkpt lat="47.29509" lon="6.01058">
        <ele>421.8</ele>
        <time>2024-08-03T07:34:34Z</time>
      </trkpt>
      <trkpt lat="47.29509" lon="6.01056">
        <ele>421.8</ele>
        <time>2024-08-03T07:34:35Z</time>
      </trkpt>
      <trkpt lat="47.29508" lon="6.01054">
        <ele>422</ele>
        <time>2024-08-03T07:34:36Z</time>
      </trkpt>
      <trkpt lat="47.29508" lon="6.01051">
        <ele>422.2</ele>
        <time>2024-08-03T07:34:37Z</time>
      </trkpt>
      <trkpt lat="47.29507" lon="6.01049">
        <ele>422.2</ele>
        <time>2024-08-03T07:34:38Z</time>
      </trkpt>
      <trkpt lat="47.29506" lon="6.01048">
        <ele>422.4</ele>
        <time>2024-08-03T07:34:39Z</time>
      </trkpt>
      <trkpt lat="47.29505" lon="6.01046">
        <ele>422.6</ele>
        <time>2024-08-03T07:34:40Z</time>
      </trkpt>
      <trkpt lat="47.29505" lon="6.01044">
        <ele>422.8</ele>
        <time>2024-08-03T07:34:41Z</time>
      </trkpt>
      <trkpt lat="47.29503" lon="6.01042">
        <ele>422.8</ele>
        <time>2024-08-03T07:34:42Z</time>
      </trkpt>
      <trkpt lat="47.29502" lon="6.01041">
        <ele>423</ele>
        <time>2024-08-03T07:34:43Z</time>
      </trkpt>
      <trkpt lat="47.29501" lon="6.01039">
        <ele>423</ele>
        <time>2024-08-03T07:34:44Z</time>
      </trkpt>
      <trkpt lat="47.29501" lon="6.01037">
        <ele>423.2</ele>
        <time>2024-08-03T07:34:45Z</time>
      </trkpt>
      <trkpt lat="47.29499" lon="6.01036">
        <ele>423.6</ele>
        <time>2024-08-03T07:34:46Z</time>
      </trkpt>
      <trkpt lat="47.29499" lon="6.01034">
        <ele>423.8</ele>
        <time>2024-08-03T07:34:47Z</time>
      </trkpt>
      <trkpt lat="47.29497" lon="6.01032">
        <ele>423.8</ele>
        <time>2024-08-03T07:34:48Z</time>
      </trkpt>
      <trkpt lat="47.29496" lon="6.01031">
        <ele>423.8</ele>
        <time>2024-08-03T07:34:49Z</time>
      </trkpt>
      <trkpt lat="47.29495" lon="6.01029">
        <ele>424</ele>
        <time>2024-08-03T07:34:50Z</time>
      </trkpt>
      <trkpt lat="47.29494" lon="6.01028">
        <ele>424.2</ele>
        <time>2024-08-03T07:34:51Z</time>
      </trkpt>
      <trkpt lat="47.29493" lon="6.01026">
        <ele>424.2</ele>
        <time>2024-08-03T07:34:52Z</time>
      </trkpt>
      <trkpt lat="47.29492" lon="6.01024">
        <ele>424.2</ele>
        <time>2024-08-03T07:34:53Z</time>
      </trkpt>
      <trkpt lat="47.29491" lon="6.01022">
        <ele>424.6</ele>
        <time>2024-08-03T07:34:54Z</time>
      </trkpt>
      <trkpt lat="47.2949" lon="6.0102">
        <ele>424.8</ele>
        <time>2024-08-03T07:34:55Z</time>
      </trkpt>
      <trkpt lat="47.2949" lon="6.01018">
        <ele>425.2</ele>
        <time>2024-08-03T07:34:56Z</time>
      </trkpt>
      <trkpt lat="47.29489" lon="6.01016">
        <ele>425.4</ele>
        <time>2024-08-03T07:34:57Z</time>
      </trkpt>
      <trkpt lat="47.29487" lon="6.01015">
        <ele>425.6</ele>
        <time>2024-08-03T07:34:58Z</time>
      </trkpt>
      <trkpt lat="47.29486" lon="6.01013">
        <ele>426</ele>
        <time>2024-08-03T07:34:59Z</time>
      </trkpt>
      <trkpt lat="47.29484" lon="6.01011">
        <ele>426.2</ele>
        <time>2024-08-03T07:35:00Z</time>
      </trkpt>
      <trkpt lat="47.29483" lon="6.01009">
        <ele>426.6</ele>
        <time>2024-08-03T07:35:01Z</time>
      </trkpt>
      <trkpt lat="47.29482" lon="6.01007">
        <ele>426.8</ele>
        <time>2024-08-03T07:35:02Z</time>
      </trkpt>
      <trkpt lat="47.29481" lon="6.01006">
        <ele>427.2</ele>
        <time>2024-08-03T07:35:03Z</time>
      </trkpt>
      <trkpt lat="47.2948" lon="6.01005">
        <ele>427.2</ele>
        <time>2024-08-03T07:35:04Z</time>
      </trkpt>
      <trkpt lat="47.29479" lon="6.01004">
        <ele>427.6</ele>
        <time>2024-08-03T07:35:05Z</time>
      </trkpt>
      <trkpt lat="47.29478" lon="6.01002">
        <ele>427.8</ele>
        <time>2024-08-03T07:35:06Z</time>
      </trkpt>
      <trkpt lat="47.29477" lon="6.01001">
        <ele>428.4</ele>
        <time>2024-08-03T07:35:07Z</time>
      </trkpt>
      <trkpt lat="47.29476" lon="6.01">
        <ele>428.6</ele>
        <time>2024-08-03T07:35:08Z</time>
      </trkpt>
      <trkpt lat="47.29475" lon="6.00998">
        <ele>428.8</ele>
        <time>2024-08-03T07:35:09Z</time>
      </trkpt>
      <trkpt lat="47.29475" lon="6.00997">
        <ele>429.2</ele>
        <time>2024-08-03T07:35:10Z</time>
      </trkpt>
      <trkpt lat="47.29473" lon="6.00996">
        <ele>429.2</ele>
        <time>2024-08-03T07:35:11Z</time>
      </trkpt>
      <trkpt lat="47.29472" lon="6.00995">
        <ele>429.4</ele>
        <time>2024-08-03T07:35:12Z</time>
      </trkpt>
      <trkpt lat="47.29472" lon="6.00994">
        <ele>429.8</ele>
        <time>2024-08-03T07:35:13Z</time>
      </trkpt>
      <trkpt lat="47.29471" lon="6.00993">
        <ele>430</ele>
        <time>2024-08-03T07:35:14Z</time>
      </trkpt>
      <trkpt lat="47.2947" lon="6.00992">
        <ele>430.4</ele>
        <time>2024-08-03T07:35:15Z</time>
      </trkpt>
      <trkpt lat="47.29468" lon="6.00991">
        <ele>430.6</ele>
        <time>2024-08-03T07:35:16Z</time>
      </trkpt>
      <trkpt lat="47.29467" lon="6.0099">
        <ele>430.8</ele>
        <time>2024-08-03T07:35:17Z</time>
      </trkpt>
      <trkpt lat="47.29464" lon="6.00989">
        <ele>430.8</ele>
        <time>2024-08-03T07:35:18Z</time>
      </trkpt>
      <trkpt lat="47.29463" lon="6.00988">
        <ele>430.8</ele>
        <time>2024-08-03T07:35:19Z</time>
      </trkpt>
      <trkpt lat="47.29462" lon="6.00988">
        <ele>430.8</ele>
        <time>2024-08-03T07:35:20Z</time>
      </trkpt>
      <trkpt lat="47.29461" lon="6.00987">
        <ele>430.8</ele>
        <time>2024-08-03T07:35:21Z</time>
      </trkpt>
      <trkpt lat="47.2946" lon="6.00986">
        <ele>431</ele>
        <time>2024-08-03T07:35:22Z</time>
      </trkpt>
      <trkpt lat="47.2946" lon="6.00985">
        <ele>431.2</ele>
        <time>2024-08-03T07:35:23Z</time>
      </trkpt>
      <trkpt lat="47.2946" lon="6.00985">
        <ele>431</ele>
        <time>2024-08-03T07:35:24Z</time>
      </trkpt>
      <trkpt lat="47.29459" lon="6.00983">
        <ele>431</ele>
        <time>2024-08-03T07:35:25Z</time>
      </trkpt>
      <trkpt lat="47.29457" lon="6.00982">
        <ele>431</ele>
        <time>2024-08-03T07:35:26Z</time>
      </trkpt>
      <trkpt lat="47.29456" lon="6.00981">
        <ele>431.2</ele>
        <time>2024-08-03T07:35:27Z</time>
      </trkpt>
      <trkpt lat="47.29454" lon="6.00979">
        <ele>431.2</ele>
        <time>2024-08-03T07:35:28Z</time>
      </trkpt>
      <trkpt lat="47.29453" lon="6.00978">
        <ele>431.2</ele>
        <time>2024-08-03T07:35:29Z</time>
      </trkpt>
      <trkpt lat="47.29451" lon="6.00976">
        <ele>431.2</ele>
        <time>2024-08-03T07:35:30Z</time>
      </trkpt>
      <trkpt lat="47.2945" lon="6.00974">
        <ele>431.2</ele>
        <time>2024-08-03T07:35:31Z</time>
      </trkpt>
      <trkpt lat="47.29448" lon="6.00972">
        <ele>431.2</ele>
        <time>2024-08-03T07:35:32Z</time>
      </trkpt>
      <trkpt lat="47.29447" lon="6.0097">
        <ele>431.4</ele>
        <time>2024-08-03T07:35:33Z</time>
      </trkpt>
      <trkpt lat="47.29446" lon="6.00969">
        <ele>431.2</ele>
        <time>2024-08-03T07:35:34Z</time>
      </trkpt>
      <trkpt lat="47.29444" lon="6.00968">
        <ele>431.2</ele>
        <time>2024-08-03T07:35:35Z</time>
      </trkpt>
      <trkpt lat="47.29442" lon="6.00968">
        <ele>431.4</ele>
        <time>2024-08-03T07:35:36Z</time>
      </trkpt>
      <trkpt lat="47.2944" lon="6.00967">
        <ele>431.2</ele>
        <time>2024-08-03T07:35:37Z</time>
      </trkpt>
      <trkpt lat="47.29438" lon="6.00966">
        <ele>431.4</ele>
        <time>2024-08-03T07:35:38Z</time>
      </trkpt>
      <trkpt lat="47.29436" lon="6.00966">
        <ele>431.4</ele>
        <time>2024-08-03T07:35:39Z</time>
      </trkpt>
      <trkpt lat="47.29434" lon="6.00965">
        <ele>431.2</ele>
        <time>2024-08-03T07:35:40Z</time>
      </trkpt>
      <trkpt lat="47.29432" lon="6.00964">
        <ele>431.2</ele>
        <time>2024-08-03T07:35:41Z</time>
      </trkpt>
      <trkpt lat="47.29431" lon="6.00964">
        <ele>431.2</ele>
        <time>2024-08-03T07:35:42Z</time>
      </trkpt>
      <trkpt lat="47.29429" lon="6.00963">
        <ele>431.2</ele>
        <time>2024-08-03T07:35:43Z</time>
      </trkpt>
      <trkpt lat="47.29428" lon="6.00963">
        <ele>431.2</ele>
        <time>2024-08-03T07:35:44Z</time>
      </trkpt>
      <trkpt lat="47.29427" lon="6.00963">
        <ele>431</ele>
        <time>2024-08-03T07:35:45Z</time>
      </trkpt>
      <trkpt lat="47.29426" lon="6.00962">
        <ele>430.8</ele>
        <time>2024-08-03T07:35:46Z</time>
      </trkpt>
      <trkpt lat="47.29425" lon="6.00962">
        <ele>430.8</ele>
        <time>2024-08-03T07:35:47Z</time>
      </trkpt>
      <trkpt lat="47.29424" lon="6.00961">
        <ele>430.4</ele>
        <time>2024-08-03T07:35:48Z</time>
      </trkpt>
      <trkpt lat="47.29423" lon="6.00961">
        <ele>430.2</ele>
        <time>2024-08-03T07:35:49Z</time>
      </trkpt>
      <trkpt lat="47.29422" lon="6.0096">
        <ele>430</ele>
        <time>2024-08-03T07:35:50Z</time>
      </trkpt>
      <trkpt lat="47.29421" lon="6.00959">
        <ele>429.8</ele>
        <time>2024-08-03T07:35:51Z</time>
      </trkpt>
      <trkpt lat="47.2942" lon="6.00958">
        <ele>429.8</ele>
        <time>2024-08-03T07:35:52Z</time>
      </trkpt>
      <trkpt lat="47.29419" lon="6.00957">
        <ele>429.8</ele>
        <time>2024-08-03T07:35:53Z</time>
      </trkpt>
      <trkpt lat="47.29418" lon="6.00956">
        <ele>429.6</ele>
        <time>2024-08-03T07:35:54Z</time>
      </trkpt>
      <trkpt lat="47.29416" lon="6.00956">
        <ele>429.4</ele>
        <time>2024-08-03T07:35:55Z</time>
      </trkpt>
      <trkpt lat="47.29415" lon="6.00956">
        <ele>429.2</ele>
        <time>2024-08-03T07:35:56Z</time>
      </trkpt>
      <trkpt lat="47.29414" lon="6.00957">
        <ele>429.4</ele>
        <time>2024-08-03T07:35:57Z</time>
      </trkpt>
      <trkpt lat="47.29414" lon="6.00958">
        <ele>429.2</ele>
        <time>2024-08-03T07:35:58Z</time>
      </trkpt>
      <trkpt lat="47.29414" lon="6.00958">
        <ele>429.2</ele>
        <time>2024-08-03T07:35:59Z</time>
      </trkpt>
      <trkpt lat="47.29414" lon="6.00958">
        <ele>428.8</ele>
        <time>2024-08-03T07:36:00Z</time>
      </trkpt>
      <trkpt lat="47.29414" lon="6.00958">
        <ele>429</ele>
        <time>2024-08-03T07:36:01Z</time>
      </trkpt>
      <trkpt lat="47.29415" lon="6.00957">
        <ele>429</ele>
        <time>2024-08-03T07:36:02Z</time>
      </trkpt>
      <trkpt lat="47.29415" lon="6.00957">
        <ele>428.8</ele>
        <time>2024-08-03T07:36:03Z</time>
      </trkpt>
      <trkpt lat="47.29416" lon="6.00957">
        <ele>428.6</ele>
        <time>2024-08-03T07:36:04Z</time>
      </trkpt>
      <trkpt lat="47.29417" lon="6.00958">
        <ele>428.8</ele>
        <time>2024-08-03T07:36:05Z</time>
      </trkpt>
      <trkpt lat="47.29418" lon="6.00959">
        <ele>428.6</ele>
        <time>2024-08-03T07:36:06Z</time>
      </trkpt>
      <trkpt lat="47.29418" lon="6.00959">
        <ele>428.6</ele>
        <time>2024-08-03T07:36:07Z</time>
      </trkpt>
      <trkpt lat="47.29419" lon="6.0096">
        <ele>428.6</ele>
        <time>2024-08-03T07:36:08Z</time>
      </trkpt>
      <trkpt lat="47.2942" lon="6.0096">
        <ele>428.6</ele>
        <time>2024-08-03T07:36:09Z</time>
      </trkpt>
      <trkpt lat="47.29422" lon="6.00961">
        <ele>428.6</ele>
        <time>2024-08-03T07:36:10Z</time>
      </trkpt>
      <trkpt lat="47.29423" lon="6.00963">
        <ele>428.6</ele>
        <time>2024-08-03T07:36:11Z</time>
      </trkpt>
      <trkpt lat="47.29425" lon="6.00964">
        <ele>428.8</ele>
        <time>2024-08-03T07:36:12Z</time>
      </trkpt>
      <trkpt lat="47.29427" lon="6.00965">
        <ele>428.6</ele>
        <time>2024-08-03T07:36:13Z</time>
      </trkpt>
      <trkpt lat="47.29429" lon="6.00966">
        <ele>428.6</ele>
        <time>2024-08-03T07:36:14Z</time>
      </trkpt>
      <trkpt lat="47.29431" lon="6.00967">
        <ele>428.6</ele>
        <time>2024-08-03T07:36:15Z</time>
      </trkpt>
      <trkpt lat="47.29432" lon="6.00968">
        <ele>428.8</ele>
        <time>2024-08-03T07:36:16Z</time>
      </trkpt>
      <trkpt lat="47.29434" lon="6.00968">
        <ele>428.6</ele>
        <time>2024-08-03T07:36:17Z</time>
      </trkpt>
      <trkpt lat="47.29435" lon="6.00969">
        <ele>428.8</ele>
        <time>2024-08-03T07:36:18Z</time>
      </trkpt>
      <trkpt lat="47.29437" lon="6.0097">
        <ele>429</ele>
        <time>2024-08-03T07:36:19Z</time>
      </trkpt>
      <trkpt lat="47.29438" lon="6.00971">
        <ele>429</ele>
        <time>2024-08-03T07:36:20Z</time>
      </trkpt>
      <trkpt lat="47.2944" lon="6.00972">
        <ele>429.2</ele>
        <time>2024-08-03T07:36:21Z</time>
      </trkpt>
      <trkpt lat="47.29441" lon="6.00972">
        <ele>429.2</ele>
        <time>2024-08-03T07:36:22Z</time>
      </trkpt>
      <trkpt lat="47.29442" lon="6.00973">
        <ele>429.2</ele>
        <time>2024-08-03T07:36:23Z</time>
      </trkpt>
      <trkpt lat="47.29444" lon="6.00974">
        <ele>429.4</ele>
        <time>2024-08-03T07:36:24Z</time>
      </trkpt>
      <trkpt lat="47.29445" lon="6.00975">
        <ele>429.6</ele>
        <time>2024-08-03T07:36:25Z</time>
      </trkpt>
      <trkpt lat="47.29447" lon="6.00975">
        <ele>429.6</ele>
        <time>2024-08-03T07:36:26Z</time>
      </trkpt>
      <trkpt lat="47.29448" lon="6.00976">
        <ele>429.8</ele>
        <time>2024-08-03T07:36:27Z</time>
      </trkpt>
      <trkpt lat="47.29449" lon="6.00977">
        <ele>429.8</ele>
        <time>2024-08-03T07:36:28Z</time>
      </trkpt>
      <trkpt lat="47.29451" lon="6.00979">
        <ele>430</ele>
        <time>2024-08-03T07:36:29Z</time>
      </trkpt>
      <trkpt lat="47.29452" lon="6.0098">
        <ele>430</ele>
        <time>2024-08-03T07:36:30Z</time>
      </trkpt>
      <trkpt lat="47.29454" lon="6.00982">
        <ele>430</ele>
        <time>2024-08-03T07:36:31Z</time>
      </trkpt>
      <trkpt lat="47.29456" lon="6.00984">
        <ele>430.4</ele>
        <time>2024-08-03T07:36:32Z</time>
      </trkpt>
      <trkpt lat="47.29457" lon="6.00986">
        <ele>430.6</ele>
        <time>2024-08-03T07:36:33Z</time>
      </trkpt>
      <trkpt lat="47.29459" lon="6.00988">
        <ele>430.6</ele>
        <time>2024-08-03T07:36:34Z</time>
      </trkpt>
      <trkpt lat="47.29461" lon="6.0099">
        <ele>430.6</ele>
        <time>2024-08-03T07:36:35Z</time>
      </trkpt>
      <trkpt lat="47.29463" lon="6.00992">
        <ele>430.6</ele>
        <time>2024-08-03T07:36:36Z</time>
      </trkpt>
      <trkpt lat="47.29465" lon="6.00994">
        <ele>430.6</ele>
        <time>2024-08-03T07:36:37Z</time>
      </trkpt>
      <trkpt lat="47.29467" lon="6.00996">
        <ele>430.6</ele>
        <time>2024-08-03T07:36:38Z</time>
      </trkpt>
      <trkpt lat="47.29468" lon="6.00997">
        <ele>430.6</ele>
        <time>2024-08-03T07:36:39Z</time>
      </trkpt>
      <trkpt lat="47.29469" lon="6.00997">
        <ele>430.8</ele>
        <time>2024-08-03T07:36:40Z</time>
      </trkpt>
      <trkpt lat="47.29471" lon="6.00998">
        <ele>430.8</ele>
        <time>2024-08-03T07:36:41Z</time>
      </trkpt>
      <trkpt lat="47.29472" lon="6.00999">
        <ele>430.6</ele>
        <time>2024-08-03T07:36:42Z</time>
      </trkpt>
      <trkpt lat="47.29473" lon="6.01">
        <ele>430.4</ele>
        <time>2024-08-03T07:36:43Z</time>
      </trkpt>
      <trkpt lat="47.29474" lon="6.01002">
        <ele>430.6</ele>
        <time>2024-08-03T07:36:44Z</time>
      </trkpt>
      <trkpt lat="47.29476" lon="6.01004">
        <ele>430.4</ele>
        <time>2024-08-03T07:36:45Z</time>
      </trkpt>
      <trkpt lat="47.29477" lon="6.01006">
        <ele>430.6</ele>
        <time>2024-08-03T07:36:46Z</time>
      </trkpt>
      <trkpt lat="47.29479" lon="6.01009">
        <ele>430.4</ele>
        <time>2024-08-03T07:36:47Z</time>
      </trkpt>
      <trkpt lat="47.29481" lon="6.01011">
        <ele>430.4</ele>
        <time>2024-08-03T07:36:48Z</time>
      </trkpt>
      <trkpt lat="47.29483" lon="6.01013">
        <ele>430.4</ele>
        <time>2024-08-03T07:36:49Z</time>
      </trkpt>
      <trkpt lat="47.29485" lon="6.01015">
        <ele>430.4</ele>
        <time>2024-08-03T07:36:50Z</time>
      </trkpt>
      <trkpt lat="47.29486" lon="6.01017">
        <ele>430.4</ele>
        <time>2024-08-03T07:36:51Z</time>
      </trkpt>
      <trkpt lat="47.29488" lon="6.0102">
        <ele>430.2</ele>
        <time>2024-08-03T07:36:52Z</time>
      </trkpt>
      <trkpt lat="47.29489" lon="6.01022">
        <ele>430.2</ele>
        <time>2024-08-03T07:36:53Z</time>
      </trkpt>
      <trkpt lat="47.2949" lon="6.01024">
        <ele>430.2</ele>
        <time>2024-08-03T07:36:54Z</time>
      </trkpt>
      <trkpt lat="47.29492" lon="6.01026">
        <ele>430</ele>
        <time>2024-08-03T07:36:55Z</time>
      </trkpt>
      <trkpt lat="47.29494" lon="6.01029">
        <ele>429.8</ele>
        <time>2024-08-03T07:36:56Z</time>
      </trkpt>
      <trkpt lat="47.29496" lon="6.01033">
        <ele>429.4</ele>
        <time>2024-08-03T07:36:57Z</time>
      </trkpt>
      <trkpt lat="47.29498" lon="6.01037">
        <ele>429</ele>
        <time>2024-08-03T07:36:58Z</time>
      </trkpt>
      <trkpt lat="47.295" lon="6.01041">
        <ele>428.8</ele>
        <time>2024-08-03T07:36:59Z</time>
      </trkpt>
      <trkpt lat="47.29502" lon="6.01044">
        <ele>428.4</ele>
        <time>2024-08-03T07:37:00Z</time>
      </trkpt>
      <trkpt lat="47.29504" lon="6.01048">
        <ele>427.6</ele>
        <time>2024-08-03T07:37:01Z</time>
      </trkpt>
      <trkpt lat="47.29505" lon="6.01051">
        <ele>427.2</ele>
        <time>2024-08-03T07:37:02Z</time>
      </trkpt>
      <trkpt lat="47.29507" lon="6.01055">
        <ele>426.8</ele>
        <time>2024-08-03T07:37:03Z</time>
      </trkpt>
      <trkpt lat="47.29508" lon="6.01059">
        <ele>426.4</ele>
        <time>2024-08-03T07:37:04Z</time>
      </trkpt>
      <trkpt lat="47.29508" lon="6.01063">
        <ele>425.8</ele>
        <time>2024-08-03T07:37:05Z</time>
      </trkpt>
      <trkpt lat="47.29509" lon="6.01067">
        <ele>425.2</ele>
        <time>2024-08-03T07:37:06Z</time>
      </trkpt>
      <trkpt lat="47.2951" lon="6.01071">
        <ele>424.8</ele>
        <time>2024-08-03T07:37:07Z</time>
      </trkpt>
      <trkpt lat="47.29511" lon="6.01074">
        <ele>424.4</ele>
        <time>2024-08-03T07:37:08Z</time>
      </trkpt>
      <trkpt lat="47.29512" lon="6.01078">
        <ele>424</ele>
        <time>2024-08-03T07:37:09Z</time>
      </trkpt>
      <trkpt lat="47.29514" lon="6.01081">
        <ele>423.8</ele>
        <time>2024-08-03T07:37:10Z</time>
      </trkpt>
      <trkpt lat="47.29516" lon="6.01084">
        <ele>423.6</ele>
        <time>2024-08-03T07:37:11Z</time>
      </trkpt>
      <trkpt lat="47.29517" lon="6.01087">
        <ele>423.2</ele>
        <time>2024-08-03T07:37:12Z</time>
      </trkpt>
      <trkpt lat="47.29519" lon="6.01089">
        <ele>423</ele>
        <time>2024-08-03T07:37:13Z</time>
      </trkpt>
      <trkpt lat="47.29521" lon="6.01091">
        <ele>422.4</ele>
        <time>2024-08-03T07:37:14Z</time>
      </trkpt>
      <trkpt lat="47.29523" lon="6.01092">
        <ele>422.4</ele>
        <time>2024-08-03T07:37:15Z</time>
      </trkpt>
      <trkpt lat="47.29523" lon="6.01093">
        <ele>422.2</ele>
        <time>2024-08-03T07:37:16Z</time>
      </trkpt>
      <trkpt lat="47.29524" lon="6.01094">
        <ele>422</ele>
        <time>2024-08-03T07:37:17Z</time>
      </trkpt>
      <trkpt lat="47.29525" lon="6.01095">
        <ele>421.6</ele>
        <time>2024-08-03T07:37:18Z</time>
      </trkpt>
      <trkpt lat="47.29526" lon="6.01096">
        <ele>421.6</ele>
        <time>2024-08-03T07:37:19Z</time>
      </trkpt>
      <trkpt lat="47.29526" lon="6.01097">
        <ele>421.6</ele>
        <time>2024-08-03T07:37:20Z</time>
      </trkpt>
      <trkpt lat="47.29527" lon="6.01098">
        <ele>421.4</ele>
        <time>2024-08-03T07:37:21Z</time>
      </trkpt>
      <trkpt lat="47.29528" lon="6.01099">
        <ele>421.4</ele>
        <time>2024-08-03T07:37:22Z</time>
      </trkpt>
      <trkpt lat="47.29529" lon="6.01101">
        <ele>421.2</ele>
        <time>2024-08-03T07:37:23Z</time>
      </trkpt>
      <trkpt lat="47.2953" lon="6.01102">
        <ele>421</ele>
        <time>2024-08-03T07:37:24Z</time>
      </trkpt>
      <trkpt lat="47.29531" lon="6.01103">
        <ele>421</ele>
        <time>2024-08-03T07:37:25Z</time>
      </trkpt>
      <trkpt lat="47.29532" lon="6.01103">
        <ele>420.8</ele>
        <time>2024-08-03T07:37:26Z</time>
      </trkpt>
      <trkpt lat="47.29533" lon="6.01103">
        <ele>420.8</ele>
        <time>2024-08-03T07:37:27Z</time>
      </trkpt>
      <trkpt lat="47.29533" lon="6.01103">
        <ele>420.8</ele>
        <time>2024-08-03T07:37:28Z</time>
      </trkpt>
      <trkpt lat="47.29534" lon="6.01104">
        <ele>420.8</ele>
        <time>2024-08-03T07:37:29Z</time>
      </trkpt>
      <trkpt lat="47.29535" lon="6.01104">
        <ele>420.8</ele>
        <time>2024-08-03T07:37:30Z</time>
      </trkpt>
      <trkpt lat="47.29536" lon="6.01103">
        <ele>420.6</ele>
        <time>2024-08-03T07:37:31Z</time>
      </trkpt>
      <trkpt lat="47.29538" lon="6.01103">
        <ele>420.8</ele>
        <time>2024-08-03T07:37:32Z</time>
      </trkpt>
      <trkpt lat="47.29538" lon="6.01103">
        <ele>420.8</ele>
        <time>2024-08-03T07:37:33Z</time>
      </trkpt>
      <trkpt lat="47.29539" lon="6.01102">
        <ele>420.6</ele>
        <time>2024-08-03T07:37:34Z</time>
      </trkpt>
      <trkpt lat="47.2954" lon="6.011">
        <ele>420.6</ele>
        <time>2024-08-03T07:37:35Z</time>
      </trkpt>
      <trkpt lat="47.29542" lon="6.01099">
        <ele>420.4</ele>
        <time>2024-08-03T07:37:36Z</time>
      </trkpt>
      <trkpt lat="47.29545" lon="6.01098">
        <ele>420.4</ele>
        <time>2024-08-03T07:37:37Z</time>
      </trkpt>
      <trkpt lat="47.29547" lon="6.01096">
        <ele>420.4</ele>
        <time>2024-08-03T07:37:38Z</time>
      </trkpt>
      <trkpt lat="47.2955" lon="6.01095">
        <ele>420.2</ele>
        <time>2024-08-03T07:37:39Z</time>
      </trkpt>
      <trkpt lat="47.29553" lon="6.01094">
        <ele>420.2</ele>
        <time>2024-08-03T07:37:40Z</time>
      </trkpt>
      <trkpt lat="47.29556" lon="6.01093">
        <ele>420</ele>
        <time>2024-08-03T07:37:41Z</time>
      </trkpt>
      <trkpt lat="47.29558" lon="6.01092">
        <ele>420</ele>
        <time>2024-08-03T07:37:42Z</time>
      </trkpt>
      <trkpt lat="47.29561" lon="6.01092">
        <ele>419.8</ele>
        <time>2024-08-03T07:37:43Z</time>
      </trkpt>
      <trkpt lat="47.29564" lon="6.01092">
        <ele>419.6</ele>
        <time>2024-08-03T07:37:44Z</time>
      </trkpt>
      <trkpt lat="47.29567" lon="6.01092">
        <ele>419.2</ele>
        <time>2024-08-03T07:37:45Z</time>
      </trkpt>
      <trkpt lat="47.29569" lon="6.01093">
        <ele>418.6</ele>
        <time>2024-08-03T07:37:46Z</time>
      </trkpt>
      <trkpt lat="47.29572" lon="6.01094">
        <ele>417.8</ele>
        <time>2024-08-03T07:37:47Z</time>
      </trkpt>
      <trkpt lat="47.29573" lon="6.01095">
        <ele>417.2</ele>
        <time>2024-08-03T07:37:48Z</time>
      </trkpt>
      <trkpt lat="47.29575" lon="6.01096">
        <ele>416.6</ele>
        <time>2024-08-03T07:37:49Z</time>
      </trkpt>
      <trkpt lat="47.29576" lon="6.01097">
        <ele>415.8</ele>
        <time>2024-08-03T07:37:50Z</time>
      </trkpt>
      <trkpt lat="47.29578" lon="6.01099">
        <ele>414.8</ele>
        <time>2024-08-03T07:37:51Z</time>
      </trkpt>
      <trkpt lat="47.2958" lon="6.011">
        <ele>414.6</ele>
        <time>2024-08-03T07:37:52Z</time>
      </trkpt>
      <trkpt lat="47.29582" lon="6.01102">
        <ele>414.2</ele>
        <time>2024-08-03T07:37:53Z</time>
      </trkpt>
      <trkpt lat="47.29583" lon="6.01104">
        <ele>414.4</ele>
        <time>2024-08-03T07:37:54Z</time>
      </trkpt>
      <trkpt lat="47.29585" lon="6.01106">
        <ele>414.2</ele>
        <time>2024-08-03T07:37:55Z</time>
      </trkpt>
      <trkpt lat="47.29587" lon="6.01107">
        <ele>414.2</ele>
        <time>2024-08-03T07:37:56Z</time>
      </trkpt>
      <trkpt lat="47.2959" lon="6.01109">
        <ele>414.2</ele>
        <time>2024-08-03T07:37:57Z</time>
      </trkpt>
      <trkpt lat="47.29592" lon="6.01111">
        <ele>414.2</ele>
        <time>2024-08-03T07:37:58Z</time>
      </trkpt>
      <trkpt lat="47.29594" lon="6.01113">
        <ele>414.2</ele>
        <time>2024-08-03T07:37:59Z</time>
      </trkpt>
      <trkpt lat="47.29597" lon="6.01115">
        <ele>414.2</ele>
        <time>2024-08-03T07:38:00Z</time>
      </trkpt>
      <trkpt lat="47.29599" lon="6.01117">
        <ele>414.2</ele>
        <time>2024-08-03T07:38:01Z</time>
      </trkpt>
      <trkpt lat="47.29601" lon="6.01119">
        <ele>414.2</ele>
        <time>2024-08-03T07:38:02Z</time>
      </trkpt>
      <trkpt lat="47.29604" lon="6.0112">
        <ele>414.6</ele>
        <time>2024-08-03T07:38:03Z</time>
      </trkpt>
      <trkpt lat="47.29606" lon="6.01122">
        <ele>414.4</ele>
        <time>2024-08-03T07:38:04Z</time>
      </trkpt>
      <trkpt lat="47.29608" lon="6.01125">
        <ele>414.6</ele>
        <time>2024-08-03T07:38:05Z</time>
      </trkpt>
      <trkpt lat="47.2961" lon="6.01127">
        <ele>414.6</ele>
        <time>2024-08-03T07:38:06Z</time>
      </trkpt>
      <trkpt lat="47.29612" lon="6.01128">
        <ele>414.6</ele>
        <time>2024-08-03T07:38:07Z</time>
      </trkpt>
      <trkpt lat="47.29613" lon="6.0113">
        <ele>414.6</ele>
        <time>2024-08-03T07:38:08Z</time>
      </trkpt>
      <trkpt lat="47.29614" lon="6.01132">
        <ele>414.6</ele>
        <time>2024-08-03T07:38:09Z</time>
      </trkpt>
      <trkpt lat="47.29615" lon="6.01133">
        <ele>414.6</ele>
        <time>2024-08-03T07:38:10Z</time>
      </trkpt>
      <trkpt lat="47.29616" lon="6.01135">
        <ele>414.6</ele>
        <time>2024-08-03T07:38:11Z</time>
      </trkpt>
      <trkpt lat="47.29618" lon="6.01137">
        <ele>414.6</ele>
        <time>2024-08-03T07:38:12Z</time>
      </trkpt>
      <trkpt lat="47.29619" lon="6.01139">
        <ele>414.6</ele>
        <time>2024-08-03T07:38:13Z</time>
      </trkpt>
      <trkpt lat="47.29621" lon="6.01141">
        <ele>414.6</ele>
        <time>2024-08-03T07:38:14Z</time>
      </trkpt>
      <trkpt lat="47.29624" lon="6.01143">
        <ele>414.6</ele>
        <time>2024-08-03T07:38:15Z</time>
      </trkpt>
      <trkpt lat="47.29626" lon="6.01145">
        <ele>414.6</ele>
        <time>2024-08-03T07:38:16Z</time>
      </trkpt>
      <trkpt lat="47.29628" lon="6.01147">
        <ele>414.6</ele>
        <time>2024-08-03T07:38:17Z</time>
      </trkpt>
      <trkpt lat="47.2963" lon="6.01149">
        <ele>414.6</ele>
        <time>2024-08-03T07:38:18Z</time>
      </trkpt>
      <trkpt lat="47.29631" lon="6.01151">
        <ele>414.6</ele>
        <time>2024-08-03T07:38:19Z</time>
      </trkpt>
      <trkpt lat="47.29632" lon="6.01152">
        <ele>414.6</ele>
        <time>2024-08-03T07:38:20Z</time>
      </trkpt>
      <trkpt lat="47.29633" lon="6.01154">
        <ele>414.6</ele>
        <time>2024-08-03T07:38:21Z</time>
      </trkpt>
      <trkpt lat="47.29635" lon="6.01156">
        <ele>414.6</ele>
        <time>2024-08-03T07:38:22Z</time>
      </trkpt>
      <trkpt lat="47.29637" lon="6.01158">
        <ele>414.4</ele>
        <time>2024-08-03T07:38:23Z</time>
      </trkpt>
      <trkpt lat="47.29638" lon="6.01159">
        <ele>414.4</ele>
        <time>2024-08-03T07:38:24Z</time>
      </trkpt>
      <trkpt lat="47.2964" lon="6.01161">
        <ele>414.4</ele>
        <time>2024-08-03T07:38:25Z</time>
      </trkpt>
      <trkpt lat="47.29642" lon="6.01162">
        <ele>414.4</ele>
        <time>2024-08-03T07:38:26Z</time>
      </trkpt>
      <trkpt lat="47.29644" lon="6.01164">
        <ele>414.6</ele>
        <time>2024-08-03T07:38:27Z</time>
      </trkpt>
      <trkpt lat="47.29646" lon="6.01166">
        <ele>414.4</ele>
        <time>2024-08-03T07:38:28Z</time>
      </trkpt>
      <trkpt lat="47.29649" lon="6.01166">
        <ele>414.4</ele>
        <time>2024-08-03T07:38:29Z</time>
      </trkpt>
      <trkpt lat="47.29652" lon="6.01166">
        <ele>414.6</ele>
        <time>2024-08-03T07:38:30Z</time>
      </trkpt>
      <trkpt lat="47.29655" lon="6.01166">
        <ele>414.6</ele>
        <time>2024-08-03T07:38:31Z</time>
      </trkpt>
      <trkpt lat="47.29661" lon="6.01166">
        <ele>414.4</ele>
        <time>2024-08-03T07:38:32Z</time>
      </trkpt>
      <trkpt lat="47.29667" lon="6.01166">
        <ele>414.4</ele>
        <time>2024-08-03T07:38:33Z</time>
      </trkpt>
      <trkpt lat="47.29675" lon="6.01164">
        <ele>414.4</ele>
        <time>2024-08-03T07:38:34Z</time>
      </trkpt>
      <trkpt lat="47.29682" lon="6.01164">
        <ele>414.2</ele>
        <time>2024-08-03T07:38:35Z</time>
      </trkpt>
      <trkpt lat="47.29689" lon="6.01164">
        <ele>414.2</ele>
        <time>2024-08-03T07:38:36Z</time>
      </trkpt>
      <trkpt lat="47.29696" lon="6.01164">
        <ele>414.2</ele>
        <time>2024-08-03T07:38:37Z</time>
      </trkpt>
      <trkpt lat="47.29704" lon="6.01164">
        <ele>413.8</ele>
        <time>2024-08-03T07:38:38Z</time>
      </trkpt>
      <trkpt lat="47.29712" lon="6.01163">
        <ele>413.4</ele>
        <time>2024-08-03T07:38:39Z</time>
      </trkpt>
      <trkpt lat="47.29721" lon="6.01163">
        <ele>412.8</ele>
        <time>2024-08-03T07:38:40Z</time>
      </trkpt>
      <trkpt lat="47.29728" lon="6.01163">
        <ele>412.4</ele>
        <time>2024-08-03T07:38:41Z</time>
      </trkpt>
      <trkpt lat="47.29736" lon="6.01163">
        <ele>412</ele>
        <time>2024-08-03T07:38:42Z</time>
      </trkpt>
      <trkpt lat="47.29744" lon="6.01162">
        <ele>412</ele>
        <time>2024-08-03T07:38:43Z</time>
      </trkpt>
      <trkpt lat="47.2975" lon="6.01162">
        <ele>411.6</ele>
        <time>2024-08-03T07:38:44Z</time>
      </trkpt>
      <trkpt lat="47.29757" lon="6.01162">
        <ele>411.2</ele>
        <time>2024-08-03T07:38:45Z</time>
      </trkpt>
      <trkpt lat="47.29763" lon="6.01161">
        <ele>410.6</ele>
        <time>2024-08-03T07:38:46Z</time>
      </trkpt>
      <trkpt lat="47.29769" lon="6.01161">
        <ele>410.2</ele>
        <time>2024-08-03T07:38:47Z</time>
      </trkpt>
      <trkpt lat="47.29774" lon="6.0116">
        <ele>410.2</ele>
        <time>2024-08-03T07:38:48Z</time>
      </trkpt>
      <trkpt lat="47.2978" lon="6.01159">
        <ele>410</ele>
        <time>2024-08-03T07:38:49Z</time>
      </trkpt>
      <trkpt lat="47.29784" lon="6.0116">
        <ele>410</ele>
        <time>2024-08-03T07:38:50Z</time>
      </trkpt>
      <trkpt lat="47.29789" lon="6.01159">
        <ele>409.8</ele>
        <time>2024-08-03T07:38:51Z</time>
      </trkpt>
      <trkpt lat="47.29793" lon="6.01159">
        <ele>409.8</ele>
        <time>2024-08-03T07:38:52Z</time>
      </trkpt>
      <trkpt lat="47.29797" lon="6.01158">
        <ele>409.4</ele>
        <time>2024-08-03T07:38:53Z</time>
      </trkpt>
      <trkpt lat="47.29801" lon="6.01158">
        <ele>409.2</ele>
        <time>2024-08-03T07:38:54Z</time>
      </trkpt>
      <trkpt lat="47.29806" lon="6.01157">
        <ele>409.2</ele>
        <time>2024-08-03T07:38:55Z</time>
      </trkpt>
      <trkpt lat="47.2981" lon="6.01156">
        <ele>409</ele>
        <time>2024-08-03T07:38:56Z</time>
      </trkpt>
      <trkpt lat="47.29814" lon="6.01156">
        <ele>409</ele>
        <time>2024-08-03T07:38:57Z</time>
      </trkpt>
      <trkpt lat="47.29818" lon="6.01155">
        <ele>408.8</ele>
        <time>2024-08-03T07:38:58Z</time>
      </trkpt>
      <trkpt lat="47.29822" lon="6.01154">
        <ele>408.8</ele>
        <time>2024-08-03T07:38:59Z</time>
      </trkpt>
      <trkpt lat="47.29827" lon="6.01153">
        <ele>408.8</ele>
        <time>2024-08-03T07:39:00Z</time>
      </trkpt>
      <trkpt lat="47.29831" lon="6.01153">
        <ele>408.4</ele>
        <time>2024-08-03T07:39:01Z</time>
      </trkpt>
      <trkpt lat="47.29835" lon="6.01152">
        <ele>408.4</ele>
        <time>2024-08-03T07:39:02Z</time>
      </trkpt>
      <trkpt lat="47.29839" lon="6.01152">
        <ele>408</ele>
        <time>2024-08-03T07:39:03Z</time>
      </trkpt>
      <trkpt lat="47.29843" lon="6.01151">
        <ele>407.8</ele>
        <time>2024-08-03T07:39:04Z</time>
      </trkpt>
      <trkpt lat="47.29846" lon="6.0115">
        <ele>407.8</ele>
        <time>2024-08-03T07:39:05Z</time>
      </trkpt>
      <trkpt lat="47.29848" lon="6.01149">
        <ele>407.4</ele>
        <time>2024-08-03T07:39:06Z</time>
      </trkpt>
      <trkpt lat="47.29851" lon="6.01148">
        <ele>407.4</ele>
        <time>2024-08-03T07:39:07Z</time>
      </trkpt>
      <trkpt lat="47.29854" lon="6.01147">
        <ele>407.4</ele>
        <time>2024-08-03T07:39:08Z</time>
      </trkpt>
      <trkpt lat="47.29856" lon="6.01146">
        <ele>407.4</ele>
        <time>2024-08-03T07:39:09Z</time>
      </trkpt>
      <trkpt lat="47.29859" lon="6.01144">
        <ele>407.2</ele>
        <time>2024-08-03T07:39:10Z</time>
      </trkpt>
      <trkpt lat="47.29862" lon="6.01142">
        <ele>407.4</ele>
        <time>2024-08-03T07:39:11Z</time>
      </trkpt>
      <trkpt lat="47.29865" lon="6.0114">
        <ele>407.4</ele>
        <time>2024-08-03T07:39:12Z</time>
      </trkpt>
      <trkpt lat="47.29867" lon="6.01138">
        <ele>407.4</ele>
        <time>2024-08-03T07:39:13Z</time>
      </trkpt>
      <trkpt lat="47.2987" lon="6.01135">
        <ele>407.2</ele>
        <time>2024-08-03T07:39:14Z</time>
      </trkpt>
      <trkpt lat="47.29873" lon="6.01132">
        <ele>407.4</ele>
        <time>2024-08-03T07:39:15Z</time>
      </trkpt>
      <trkpt lat="47.29876" lon="6.01129">
        <ele>407.2</ele>
        <time>2024-08-03T07:39:16Z</time>
      </trkpt>
      <trkpt lat="47.29879" lon="6.01125">
        <ele>407.2</ele>
        <time>2024-08-03T07:39:17Z</time>
      </trkpt>
      <trkpt lat="47.29882" lon="6.0112">
        <ele>407</ele>
        <time>2024-08-03T07:39:18Z</time>
      </trkpt>
      <trkpt lat="47.29885" lon="6.01115">
        <ele>407.2</ele>
        <time>2024-08-03T07:39:19Z</time>
      </trkpt>
      <trkpt lat="47.29888" lon="6.0111">
        <ele>407.2</ele>
        <time>2024-08-03T07:39:20Z</time>
      </trkpt>
      <trkpt lat="47.29892" lon="6.01106">
        <ele>407</ele>
        <time>2024-08-03T07:39:21Z</time>
      </trkpt>
      <trkpt lat="47.29896" lon="6.01101">
        <ele>407</ele>
        <time>2024-08-03T07:39:22Z</time>
      </trkpt>
      <trkpt lat="47.299" lon="6.01097">
        <ele>407</ele>
        <time>2024-08-03T07:39:23Z</time>
      </trkpt>
      <trkpt lat="47.29904" lon="6.01092">
        <ele>407</ele>
        <time>2024-08-03T07:39:24Z</time>
      </trkpt>
      <trkpt lat="47.29908" lon="6.01087">
        <ele>406.8</ele>
        <time>2024-08-03T07:39:25Z</time>
      </trkpt>
      <trkpt lat="47.29912" lon="6.01082">
        <ele>406.8</ele>
        <time>2024-08-03T07:39:26Z</time>
      </trkpt>
      <trkpt lat="47.29916" lon="6.01077">
        <ele>406.8</ele>
        <time>2024-08-03T07:39:27Z</time>
      </trkpt>
      <trkpt lat="47.2992" lon="6.01072">
        <ele>406.8</ele>
        <time>2024-08-03T07:39:28Z</time>
      </trkpt>
      <trkpt lat="47.29923" lon="6.01067">
        <ele>406.6</ele>
        <time>2024-08-03T07:39:29Z</time>
      </trkpt>
      <trkpt lat="47.29927" lon="6.01062">
        <ele>406.4</ele>
        <time>2024-08-03T07:39:30Z</time>
      </trkpt>
      <trkpt lat="47.29931" lon="6.01058">
        <ele>406.6</ele>
        <time>2024-08-03T07:39:31Z</time>
      </trkpt>
      <trkpt lat="47.29935" lon="6.01054">
        <ele>406.2</ele>
        <time>2024-08-03T07:39:32Z</time>
      </trkpt>
      <trkpt lat="47.29938" lon="6.0105">
        <ele>405.8</ele>
        <time>2024-08-03T07:39:33Z</time>
      </trkpt>
      <trkpt lat="47.29942" lon="6.01047">
        <ele>405.6</ele>
        <time>2024-08-03T07:39:34Z</time>
      </trkpt>
      <trkpt lat="47.29947" lon="6.01044">
        <ele>405.4</ele>
        <time>2024-08-03T07:39:35Z</time>
      </trkpt>
      <trkpt lat="47.29951" lon="6.01041">
        <ele>405.2</ele>
        <time>2024-08-03T07:39:36Z</time>
      </trkpt>
      <trkpt lat="47.29955" lon="6.01038">
        <ele>405</ele>
        <time>2024-08-03T07:39:37Z</time>
      </trkpt>
      <trkpt lat="47.29959" lon="6.01033">
        <ele>404.6</ele>
        <time>2024-08-03T07:39:38Z</time>
      </trkpt>
      <trkpt lat="47.29964" lon="6.01028">
        <ele>404.6</ele>
        <time>2024-08-03T07:39:39Z</time>
      </trkpt>
      <trkpt lat="47.29969" lon="6.01023">
        <ele>404.4</ele>
        <time>2024-08-03T07:39:40Z</time>
      </trkpt>
      <trkpt lat="47.29974" lon="6.01018">
        <ele>404.2</ele>
        <time>2024-08-03T07:39:41Z</time>
      </trkpt>
      <trkpt lat="47.29979" lon="6.01013">
        <ele>404</ele>
        <time>2024-08-03T07:39:42Z</time>
      </trkpt>
      <trkpt lat="47.29985" lon="6.01009">
        <ele>404</ele>
        <time>2024-08-03T07:39:43Z</time>
      </trkpt>
      <trkpt lat="47.2999" lon="6.01004">
        <ele>403.8</ele>
        <time>2024-08-03T07:39:44Z</time>
      </trkpt>
      <trkpt lat="47.29996" lon="6.00998">
        <ele>403.2</ele>
        <time>2024-08-03T07:39:45Z</time>
      </trkpt>
      <trkpt lat="47.30002" lon="6.00993">
        <ele>403</ele>
        <time>2024-08-03T07:39:46Z</time>
      </trkpt>
      <trkpt lat="47.30009" lon="6.00988">
        <ele>402.6</ele>
        <time>2024-08-03T07:39:47Z</time>
      </trkpt>
      <trkpt lat="47.30016" lon="6.00983">
        <ele>402</ele>
        <time>2024-08-03T07:39:48Z</time>
      </trkpt>
      <trkpt lat="47.30023" lon="6.00979">
        <ele>402</ele>
        <time>2024-08-03T07:39:49Z</time>
      </trkpt>
      <trkpt lat="47.30029" lon="6.00975">
        <ele>401.4</ele>
        <time>2024-08-03T07:39:50Z</time>
      </trkpt>
      <trkpt lat="47.30035" lon="6.0097">
        <ele>400.6</ele>
        <time>2024-08-03T07:39:51Z</time>
      </trkpt>
      <trkpt lat="47.30042" lon="6.00966">
        <ele>399.8</ele>
        <time>2024-08-03T07:39:52Z</time>
      </trkpt>
      <trkpt lat="47.30047" lon="6.00962">
        <ele>399.2</ele>
        <time>2024-08-03T07:39:53Z</time>
      </trkpt>
      <trkpt lat="47.30051" lon="6.00959">
        <ele>398.8</ele>
        <time>2024-08-03T07:39:54Z</time>
      </trkpt>
      <trkpt lat="47.30054" lon="6.00955">
        <ele>398</ele>
        <time>2024-08-03T07:39:55Z</time>
      </trkpt>
      <trkpt lat="47.30056" lon="6.00952">
        <ele>397.8</ele>
        <time>2024-08-03T07:39:56Z</time>
      </trkpt>
      <trkpt lat="47.30057" lon="6.00949">
        <ele>397.6</ele>
        <time>2024-08-03T07:39:57Z</time>
      </trkpt>
      <trkpt lat="47.30058" lon="6.00946">
        <ele>397.6</ele>
        <time>2024-08-03T07:39:58Z</time>
      </trkpt>
      <trkpt lat="47.30059" lon="6.00943">
        <ele>397.6</ele>
        <time>2024-08-03T07:39:59Z</time>
      </trkpt>
      <trkpt lat="47.3006" lon="6.00941">
        <ele>397.6</ele>
        <time>2024-08-03T07:40:00Z</time>
      </trkpt>
      <trkpt lat="47.30061" lon="6.00939">
        <ele>397.6</ele>
        <time>2024-08-03T07:40:01Z</time>
      </trkpt>
      <trkpt lat="47.30063" lon="6.00936">
        <ele>397.6</ele>
        <time>2024-08-03T07:40:02Z</time>
      </trkpt>
      <trkpt lat="47.30064" lon="6.00934">
        <ele>397.6</ele>
        <time>2024-08-03T07:40:03Z</time>
      </trkpt>
      <trkpt lat="47.30065" lon="6.00932">
        <ele>397.4</ele>
        <time>2024-08-03T07:40:04Z</time>
      </trkpt>
      <trkpt lat="47.30067" lon="6.00931">
        <ele>397.6</ele>
        <time>2024-08-03T07:40:05Z</time>
      </trkpt>
      <trkpt lat="47.30068" lon="6.0093">
        <ele>397.6</ele>
        <time>2024-08-03T07:40:06Z</time>
      </trkpt>
      <trkpt lat="47.3007" lon="6.0093">
        <ele>397.8</ele>
        <time>2024-08-03T07:40:07Z</time>
      </trkpt>
      <trkpt lat="47.30071" lon="6.0093">
        <ele>398</ele>
        <time>2024-08-03T07:40:08Z</time>
      </trkpt>
      <trkpt lat="47.30072" lon="6.00929">
        <ele>398</ele>
        <time>2024-08-03T07:40:09Z</time>
      </trkpt>
      <trkpt lat="47.30074" lon="6.0093">
        <ele>398</ele>
        <time>2024-08-03T07:40:10Z</time>
      </trkpt>
      <trkpt lat="47.30075" lon="6.00931">
        <ele>398</ele>
        <time>2024-08-03T07:40:11Z</time>
      </trkpt>
      <trkpt lat="47.30075" lon="6.0093">
        <ele>398.4</ele>
        <time>2024-08-03T07:40:12Z</time>
      </trkpt>
      <trkpt lat="47.30076" lon="6.00929">
        <ele>398.4</ele>
        <time>2024-08-03T07:40:13Z</time>
      </trkpt>
      <trkpt lat="47.30077" lon="6.00929">
        <ele>398.8</ele>
        <time>2024-08-03T07:40:14Z</time>
      </trkpt>
      <trkpt lat="47.30079" lon="6.00929">
        <ele>399</ele>
        <time>2024-08-03T07:40:15Z</time>
      </trkpt>
      <trkpt lat="47.30081" lon="6.0093">
        <ele>399.2</ele>
        <time>2024-08-03T07:40:16Z</time>
      </trkpt>
      <trkpt lat="47.30082" lon="6.0093">
        <ele>399.6</ele>
        <time>2024-08-03T07:40:17Z</time>
      </trkpt>
      <trkpt lat="47.30084" lon="6.0093">
        <ele>399.8</ele>
        <time>2024-08-03T07:40:18Z</time>
      </trkpt>
      <trkpt lat="47.30086" lon="6.0093">
        <ele>400</ele>
        <time>2024-08-03T07:40:19Z</time>
      </trkpt>
      <trkpt lat="47.30088" lon="6.0093">
        <ele>400.2</ele>
        <time>2024-08-03T07:40:20Z</time>
      </trkpt>
      <trkpt lat="47.30089" lon="6.00931">
        <ele>400.4</ele>
        <time>2024-08-03T07:40:21Z</time>
      </trkpt>
      <trkpt lat="47.3009" lon="6.00931">
        <ele>400.6</ele>
        <time>2024-08-03T07:40:22Z</time>
      </trkpt>
      <trkpt lat="47.30092" lon="6.0093">
        <ele>400.8</ele>
        <time>2024-08-03T07:40:23Z</time>
      </trkpt>
      <trkpt lat="47.30092" lon="6.0093">
        <ele>401</ele>
        <time>2024-08-03T07:40:24Z</time>
      </trkpt>
      <trkpt lat="47.30093" lon="6.00929">
        <ele>401</ele>
        <time>2024-08-03T07:40:25Z</time>
      </trkpt>
      <trkpt lat="47.30094" lon="6.00927">
        <ele>401.2</ele>
        <time>2024-08-03T07:40:26Z</time>
      </trkpt>
      <trkpt lat="47.30095" lon="6.00926">
        <ele>401.2</ele>
        <time>2024-08-03T07:40:27Z</time>
      </trkpt>
      <trkpt lat="47.30097" lon="6.00925">
        <ele>401.4</ele>
        <time>2024-08-03T07:40:28Z</time>
      </trkpt>
      <trkpt lat="47.30098" lon="6.00923">
        <ele>401.6</ele>
        <time>2024-08-03T07:40:29Z</time>
      </trkpt>
      <trkpt lat="47.30099" lon="6.00921">
        <ele>401.8</ele>
        <time>2024-08-03T07:40:30Z</time>
      </trkpt>
      <trkpt lat="47.30101" lon="6.00919">
        <ele>402.2</ele>
        <time>2024-08-03T07:40:31Z</time>
      </trkpt>
      <trkpt lat="47.30102" lon="6.00917">
        <ele>402.2</ele>
        <time>2024-08-03T07:40:32Z</time>
      </trkpt>
      <trkpt lat="47.30103" lon="6.00916">
        <ele>402.2</ele>
        <time>2024-08-03T07:40:33Z</time>
      </trkpt>
      <trkpt lat="47.30104" lon="6.00914">
        <ele>402.2</ele>
        <time>2024-08-03T07:40:34Z</time>
      </trkpt>
      <trkpt lat="47.30105" lon="6.00912">
        <ele>402.8</ele>
        <time>2024-08-03T07:40:35Z</time>
      </trkpt>
      <trkpt lat="47.30106" lon="6.0091">
        <ele>403</ele>
        <time>2024-08-03T07:40:36Z</time>
      </trkpt>
      <trkpt lat="47.30108" lon="6.00908">
        <ele>403</ele>
        <time>2024-08-03T07:40:37Z</time>
      </trkpt>
      <trkpt lat="47.3011" lon="6.00906">
        <ele>403.2</ele>
        <time>2024-08-03T07:40:38Z</time>
      </trkpt>
      <trkpt lat="47.30112" lon="6.00905">
        <ele>403.4</ele>
        <time>2024-08-03T07:40:39Z</time>
      </trkpt>
      <trkpt lat="47.30113" lon="6.00904">
        <ele>403.6</ele>
        <time>2024-08-03T07:40:40Z</time>
      </trkpt>
      <trkpt lat="47.30114" lon="6.00903">
        <ele>403.8</ele>
        <time>2024-08-03T07:40:41Z</time>
      </trkpt>
      <trkpt lat="47.30116" lon="6.00902">
        <ele>404</ele>
        <time>2024-08-03T07:40:42Z</time>
      </trkpt>
      <trkpt lat="47.30117" lon="6.009">
        <ele>404</ele>
        <time>2024-08-03T07:40:43Z</time>
      </trkpt>
      <trkpt lat="47.30118" lon="6.00899">
        <ele>404.2</ele>
        <time>2024-08-03T07:40:44Z</time>
      </trkpt>
      <trkpt lat="47.30119" lon="6.00898">
        <ele>404.4</ele>
        <time>2024-08-03T07:40:45Z</time>
      </trkpt>
      <trkpt lat="47.30119" lon="6.00896">
        <ele>404.6</ele>
        <time>2024-08-03T07:40:46Z</time>
      </trkpt>
      <trkpt lat="47.3012" lon="6.00894">
        <ele>404.6</ele>
        <time>2024-08-03T07:40:47Z</time>
      </trkpt>
      <trkpt lat="47.3012" lon="6.00892">
        <ele>404.8</ele>
        <time>2024-08-03T07:40:48Z</time>
      </trkpt>
      <trkpt lat="47.30121" lon="6.0089">
        <ele>405.2</ele>
        <time>2024-08-03T07:40:49Z</time>
      </trkpt>
      <trkpt lat="47.30121" lon="6.00888">
        <ele>405.2</ele>
        <time>2024-08-03T07:40:50Z</time>
      </trkpt>
      <trkpt lat="47.30121" lon="6.00886">
        <ele>405.2</ele>
        <time>2024-08-03T07:40:51Z</time>
      </trkpt>
      <trkpt lat="47.30121" lon="6.00884">
        <ele>405.4</ele>
        <time>2024-08-03T07:40:52Z</time>
      </trkpt>
      <trkpt lat="47.30122" lon="6.00883">
        <ele>405.4</ele>
        <time>2024-08-03T07:40:53Z</time>
      </trkpt>
      <trkpt lat="47.30122" lon="6.00881">
        <ele>405.6</ele>
        <time>2024-08-03T07:40:54Z</time>
      </trkpt>
      <trkpt lat="47.30123" lon="6.00879">
        <ele>405.6</ele>
        <time>2024-08-03T07:40:55Z</time>
      </trkpt>
      <trkpt lat="47.30124" lon="6.00877">
        <ele>405.8</ele>
        <time>2024-08-03T07:40:56Z</time>
      </trkpt>
      <trkpt lat="47.30125" lon="6.00875">
        <ele>406</ele>
        <time>2024-08-03T07:40:57Z</time>
      </trkpt>
      <trkpt lat="47.30125" lon="6.00873">
        <ele>406</ele>
        <time>2024-08-03T07:40:58Z</time>
      </trkpt>
      <trkpt lat="47.30126" lon="6.00871">
        <ele>406.2</ele>
        <time>2024-08-03T07:40:59Z</time>
      </trkpt>
      <trkpt lat="47.30126" lon="6.00869">
        <ele>406.2</ele>
        <time>2024-08-03T07:41:00Z</time>
      </trkpt>
      <trkpt lat="47.30126" lon="6.00866">
        <ele>406.4</ele>
        <time>2024-08-03T07:41:01Z</time>
      </trkpt>
      <trkpt lat="47.30127" lon="6.00864">
        <ele>406.6</ele>
        <time>2024-08-03T07:41:02Z</time>
      </trkpt>
      <trkpt lat="47.30128" lon="6.00861">
        <ele>406.4</ele>
        <time>2024-08-03T07:41:03Z</time>
      </trkpt>
      <trkpt lat="47.30129" lon="6.00859">
        <ele>406.6</ele>
        <time>2024-08-03T07:41:04Z</time>
      </trkpt>
      <trkpt lat="47.30129" lon="6.00856">
        <ele>406.8</ele>
        <time>2024-08-03T07:41:05Z</time>
      </trkpt>
      <trkpt lat="47.3013" lon="6.00855">
        <ele>406.8</ele>
        <time>2024-08-03T07:41:06Z</time>
      </trkpt>
      <trkpt lat="47.3013" lon="6.00852">
        <ele>407.2</ele>
        <time>2024-08-03T07:41:07Z</time>
      </trkpt>
      <trkpt lat="47.3013" lon="6.0085">
        <ele>407.2</ele>
        <time>2024-08-03T07:41:08Z</time>
      </trkpt>
      <trkpt lat="47.3013" lon="6.00848">
        <ele>407.2</ele>
        <time>2024-08-03T07:41:09Z</time>
      </trkpt>
      <trkpt lat="47.3013" lon="6.00845">
        <ele>407.6</ele>
        <time>2024-08-03T07:41:10Z</time>
      </trkpt>
      <trkpt lat="47.30131" lon="6.00842">
        <ele>407.8</ele>
        <time>2024-08-03T07:41:11Z</time>
      </trkpt>
      <trkpt lat="47.30131" lon="6.0084">
        <ele>407.8</ele>
        <time>2024-08-03T07:41:12Z</time>
      </trkpt>
      <trkpt lat="47.30132" lon="6.00837">
        <ele>407.8</ele>
        <time>2024-08-03T07:41:13Z</time>
      </trkpt>
      <trkpt lat="47.30132" lon="6.00835">
        <ele>407.8</ele>
        <time>2024-08-03T07:41:14Z</time>
      </trkpt>
      <trkpt lat="47.30133" lon="6.00833">
        <ele>408</ele>
        <time>2024-08-03T07:41:15Z</time>
      </trkpt>
      <trkpt lat="47.30134" lon="6.00831">
        <ele>408.2</ele>
        <time>2024-08-03T07:41:16Z</time>
      </trkpt>
      <trkpt lat="47.30135" lon="6.0083">
        <ele>408.2</ele>
        <time>2024-08-03T07:41:17Z</time>
      </trkpt>
      <trkpt lat="47.30136" lon="6.00828">
        <ele>408.4</ele>
        <time>2024-08-03T07:41:18Z</time>
      </trkpt>
      <trkpt lat="47.30138" lon="6.00826">
        <ele>408.4</ele>
        <time>2024-08-03T07:41:19Z</time>
      </trkpt>
      <trkpt lat="47.30139" lon="6.00825">
        <ele>408.6</ele>
        <time>2024-08-03T07:41:20Z</time>
      </trkpt>
      <trkpt lat="47.3014" lon="6.00823">
        <ele>408.8</ele>
        <time>2024-08-03T07:41:21Z</time>
      </trkpt>
      <trkpt lat="47.30142" lon="6.00821">
        <ele>409.2</ele>
        <time>2024-08-03T07:41:22Z</time>
      </trkpt>
      <trkpt lat="47.30143" lon="6.0082">
        <ele>409.2</ele>
        <time>2024-08-03T07:41:23Z</time>
      </trkpt>
      <trkpt lat="47.30145" lon="6.00818">
        <ele>409.4</ele>
        <time>2024-08-03T07:41:24Z</time>
      </trkpt>
      <trkpt lat="47.30147" lon="6.00817">
        <ele>409.6</ele>
        <time>2024-08-03T07:41:25Z</time>
      </trkpt>
      <trkpt lat="47.3015" lon="6.00817">
        <ele>409.8</ele>
        <time>2024-08-03T07:41:26Z</time>
      </trkpt>
      <trkpt lat="47.30152" lon="6.00817">
        <ele>410</ele>
        <time>2024-08-03T07:41:27Z</time>
      </trkpt>
      <trkpt lat="47.30154" lon="6.00816">
        <ele>410.2</ele>
        <time>2024-08-03T07:41:28Z</time>
      </trkpt>
      <trkpt lat="47.30155" lon="6.00816">
        <ele>410.6</ele>
        <time>2024-08-03T07:41:29Z</time>
      </trkpt>
      <trkpt lat="47.30157" lon="6.00815">
        <ele>410.6</ele>
        <time>2024-08-03T07:41:30Z</time>
      </trkpt>
      <trkpt lat="47.30158" lon="6.00814">
        <ele>411</ele>
        <time>2024-08-03T07:41:31Z</time>
      </trkpt>
      <trkpt lat="47.30159" lon="6.00813">
        <ele>411.2</ele>
        <time>2024-08-03T07:41:32Z</time>
      </trkpt>
      <trkpt lat="47.3016" lon="6.00813">
        <ele>411.4</ele>
        <time>2024-08-03T07:41:33Z</time>
      </trkpt>
      <trkpt lat="47.30162" lon="6.00812">
        <ele>411.4</ele>
        <time>2024-08-03T07:41:34Z</time>
      </trkpt>
      <trkpt lat="47.30164" lon="6.00812">
        <ele>411.4</ele>
        <time>2024-08-03T07:41:35Z</time>
      </trkpt>
      <trkpt lat="47.30165" lon="6.00811">
        <ele>411.6</ele>
        <time>2024-08-03T07:41:36Z</time>
      </trkpt>
      <trkpt lat="47.30167" lon="6.00811">
        <ele>411.8</ele>
        <time>2024-08-03T07:41:37Z</time>
      </trkpt>
      <trkpt lat="47.30169" lon="6.0081">
        <ele>412.2</ele>
        <time>2024-08-03T07:41:38Z</time>
      </trkpt>
      <trkpt lat="47.3017" lon="6.0081">
        <ele>412</ele>
        <time>2024-08-03T07:41:39Z</time>
      </trkpt>
      <trkpt lat="47.30172" lon="6.0081">
        <ele>412.4</ele>
        <time>2024-08-03T07:41:40Z</time>
      </trkpt>
      <trkpt lat="47.30174" lon="6.0081">
        <ele>412.6</ele>
        <time>2024-08-03T07:41:41Z</time>
      </trkpt>
      <trkpt lat="47.30176" lon="6.00808">
        <ele>413</ele>
        <time>2024-08-03T07:41:42Z</time>
      </trkpt>
      <trkpt lat="47.30178" lon="6.00807">
        <ele>413</ele>
        <time>2024-08-03T07:41:43Z</time>
      </trkpt>
      <trkpt lat="47.30179" lon="6.00806">
        <ele>413.4</ele>
        <time>2024-08-03T07:41:44Z</time>
      </trkpt>
      <trkpt lat="47.30181" lon="6.00806">
        <ele>413.6</ele>
        <time>2024-08-03T07:41:45Z</time>
      </trkpt>
      <trkpt lat="47.30183" lon="6.00806">
        <ele>413.8</ele>
        <time>2024-08-03T07:41:46Z</time>
      </trkpt>
      <trkpt lat="47.30185" lon="6.00806">
        <ele>414.4</ele>
        <time>2024-08-03T07:41:47Z</time>
      </trkpt>
      <trkpt lat="47.30187" lon="6.00807">
        <ele>414.6</ele>
        <time>2024-08-03T07:41:48Z</time>
      </trkpt>
      <trkpt lat="47.30189" lon="6.00807">
        <ele>414.8</ele>
        <time>2024-08-03T07:41:49Z</time>
      </trkpt>
      <trkpt lat="47.3019" lon="6.00808">
        <ele>415</ele>
        <time>2024-08-03T07:41:50Z</time>
      </trkpt>
      <trkpt lat="47.30192" lon="6.00808">
        <ele>415.2</ele>
        <time>2024-08-03T07:41:51Z</time>
      </trkpt>
      <trkpt lat="47.30194" lon="6.00807">
        <ele>415.4</ele>
        <time>2024-08-03T07:41:52Z</time>
      </trkpt>
      <trkpt lat="47.30196" lon="6.00806">
        <ele>415.6</ele>
        <time>2024-08-03T07:41:53Z</time>
      </trkpt>
      <trkpt lat="47.30197" lon="6.00805">
        <ele>415.6</ele>
        <time>2024-08-03T07:41:54Z</time>
      </trkpt>
      <trkpt lat="47.30197" lon="6.00805">
        <ele>415.8</ele>
        <time>2024-08-03T07:41:55Z</time>
      </trkpt>
      <trkpt lat="47.30197" lon="6.00804">
        <ele>415.8</ele>
        <time>2024-08-03T07:41:56Z</time>
      </trkpt>
      <trkpt lat="47.30197" lon="6.00804">
        <ele>415.8</ele>
        <time>2024-08-03T07:41:57Z</time>
      </trkpt>
      <trkpt lat="47.30197" lon="6.00803">
        <ele>416</ele>
        <time>2024-08-03T07:41:58Z</time>
      </trkpt>
      <trkpt lat="47.30197" lon="6.00803">
        <ele>416</ele>
        <time>2024-08-03T07:41:59Z</time>
      </trkpt>
      <trkpt lat="47.30197" lon="6.00803">
        <ele>416.2</ele>
        <time>2024-08-03T07:42:00Z</time>
      </trkpt>
      <trkpt lat="47.30197" lon="6.00803">
        <ele>416.2</ele>
        <time>2024-08-03T07:42:01Z</time>
      </trkpt>
      <trkpt lat="47.30197" lon="6.00803">
        <ele>416.4</ele>
        <time>2024-08-03T07:42:02Z</time>
      </trkpt>
      <trkpt lat="47.30197" lon="6.00803">
        <ele>416.6</ele>
        <time>2024-08-03T07:42:03Z</time>
      </trkpt>
      <trkpt lat="47.30197" lon="6.00803">
        <ele>416.6</ele>
        <time>2024-08-03T07:42:04Z</time>
      </trkpt>
      <trkpt lat="47.30197" lon="6.00803">
        <ele>416.6</ele>
        <time>2024-08-03T07:42:05Z</time>
      </trkpt>
      <trkpt lat="47.30197" lon="6.00803">
        <ele>416.8</ele>
        <time>2024-08-03T07:42:06Z</time>
      </trkpt>
      <trkpt lat="47.30197" lon="6.00803">
        <ele>416.8</ele>
        <time>2024-08-03T07:42:07Z</time>
      </trkpt>
      <trkpt lat="47.30197" lon="6.00802">
        <ele>416.8</ele>
        <time>2024-08-03T07:42:08Z</time>
      </trkpt>
      <trkpt lat="47.30198" lon="6.00802">
        <ele>416.8</ele>
        <time>2024-08-03T07:42:09Z</time>
      </trkpt>
      <trkpt lat="47.30199" lon="6.00801">
        <ele>416.8</ele>
        <time>2024-08-03T07:42:10Z</time>
      </trkpt>
      <trkpt lat="47.30199" lon="6.00801">
        <ele>416.8</ele>
        <time>2024-08-03T07:42:11Z</time>
      </trkpt>
      <trkpt lat="47.302" lon="6.008">
        <ele>416.8</ele>
        <time>2024-08-03T07:42:12Z</time>
      </trkpt>
      <trkpt lat="47.30202" lon="6.008">
        <ele>416.8</ele>
        <time>2024-08-03T07:42:13Z</time>
      </trkpt>
      <trkpt lat="47.30203" lon="6.008">
        <ele>417</ele>
        <time>2024-08-03T07:42:14Z</time>
      </trkpt>
      <trkpt lat="47.30205" lon="6.00799">
        <ele>417</ele>
        <time>2024-08-03T07:42:15Z</time>
      </trkpt>
      <trkpt lat="47.30206" lon="6.00799">
        <ele>417</ele>
        <time>2024-08-03T07:42:16Z</time>
      </trkpt>
      <trkpt lat="47.30208" lon="6.00798">
        <ele>417.2</ele>
        <time>2024-08-03T07:42:17Z</time>
      </trkpt>
      <trkpt lat="47.30209" lon="6.00797">
        <ele>417.2</ele>
        <time>2024-08-03T07:42:18Z</time>
      </trkpt>
      <trkpt lat="47.30211" lon="6.00796">
        <ele>417.2</ele>
        <time>2024-08-03T07:42:19Z</time>
      </trkpt>
      <trkpt lat="47.30212" lon="6.00795">
        <ele>417.4</ele>
        <time>2024-08-03T07:42:20Z</time>
      </trkpt>
      <trkpt lat="47.30214" lon="6.00794">
        <ele>417.6</ele>
        <time>2024-08-03T07:42:21Z</time>
      </trkpt>
      <trkpt lat="47.30216" lon="6.00793">
        <ele>417.8</ele>
        <time>2024-08-03T07:42:22Z</time>
      </trkpt>
      <trkpt lat="47.30218" lon="6.00792">
        <ele>418</ele>
        <time>2024-08-03T07:42:23Z</time>
      </trkpt>
      <trkpt lat="47.3022" lon="6.00792">
        <ele>418.2</ele>
        <time>2024-08-03T07:42:24Z</time>
      </trkpt>
      <trkpt lat="47.30221" lon="6.00791">
        <ele>418.4</ele>
        <time>2024-08-03T07:42:25Z</time>
      </trkpt>
      <trkpt lat="47.30223" lon="6.0079">
        <ele>418.6</ele>
        <time>2024-08-03T07:42:26Z</time>
      </trkpt>
      <trkpt lat="47.30224" lon="6.0079">
        <ele>418.8</ele>
        <time>2024-08-03T07:42:27Z</time>
      </trkpt>
      <trkpt lat="47.30226" lon="6.00789">
        <ele>419</ele>
        <time>2024-08-03T07:42:28Z</time>
      </trkpt>
      <trkpt lat="47.30227" lon="6.00788">
        <ele>419.2</ele>
        <time>2024-08-03T07:42:29Z</time>
      </trkpt>
      <trkpt lat="47.30229" lon="6.00787">
        <ele>419.6</ele>
        <time>2024-08-03T07:42:30Z</time>
      </trkpt>
      <trkpt lat="47.30231" lon="6.00787">
        <ele>419.6</ele>
        <time>2024-08-03T07:42:31Z</time>
      </trkpt>
      <trkpt lat="47.30233" lon="6.00786">
        <ele>419.8</ele>
        <time>2024-08-03T07:42:32Z</time>
      </trkpt>
      <trkpt lat="47.30235" lon="6.00785">
        <ele>420.2</ele>
        <time>2024-08-03T07:42:33Z</time>
      </trkpt>
      <trkpt lat="47.30238" lon="6.00784">
        <ele>420.4</ele>
        <time>2024-08-03T07:42:34Z</time>
      </trkpt>
      <trkpt lat="47.30239" lon="6.00783">
        <ele>420.4</ele>
        <time>2024-08-03T07:42:35Z</time>
      </trkpt>
      <trkpt lat="47.30241" lon="6.00782">
        <ele>420.6</ele>
        <time>2024-08-03T07:42:36Z</time>
      </trkpt>
      <trkpt lat="47.30244" lon="6.00782">
        <ele>420.8</ele>
        <time>2024-08-03T07:42:37Z</time>
      </trkpt>
      <trkpt lat="47.30246" lon="6.00781">
        <ele>421</ele>
        <time>2024-08-03T07:42:38Z</time>
      </trkpt>
      <trkpt lat="47.30248" lon="6.0078">
        <ele>421.2</ele>
        <time>2024-08-03T07:42:39Z</time>
      </trkpt>
      <trkpt lat="47.30251" lon="6.0078">
        <ele>421.2</ele>
        <time>2024-08-03T07:42:40Z</time>
      </trkpt>
      <trkpt lat="47.30253" lon="6.00779">
        <ele>421.4</ele>
        <time>2024-08-03T07:42:41Z</time>
      </trkpt>
      <trkpt lat="47.30255" lon="6.00777">
        <ele>421.6</ele>
        <time>2024-08-03T07:42:42Z</time>
      </trkpt>
      <trkpt lat="47.30256" lon="6.00776">
        <ele>421.8</ele>
        <time>2024-08-03T07:42:43Z</time>
      </trkpt>
      <trkpt lat="47.30258" lon="6.00774">
        <ele>422</ele>
        <time>2024-08-03T07:42:44Z</time>
      </trkpt>
      <trkpt lat="47.3026" lon="6.00772">
        <ele>422.4</ele>
        <time>2024-08-03T07:42:45Z</time>
      </trkpt>
      <trkpt lat="47.30261" lon="6.0077">
        <ele>422.4</ele>
        <time>2024-08-03T07:42:46Z</time>
      </trkpt>
      <trkpt lat="47.30263" lon="6.00769">
        <ele>422.6</ele>
        <time>2024-08-03T07:42:47Z</time>
      </trkpt>
      <trkpt lat="47.30265" lon="6.00767">
        <ele>422.8</ele>
        <time>2024-08-03T07:42:48Z</time>
      </trkpt>
      <trkpt lat="47.30267" lon="6.00765">
        <ele>423</ele>
        <time>2024-08-03T07:42:49Z</time>
      </trkpt>
      <trkpt lat="47.30269" lon="6.00763">
        <ele>423.4</ele>
        <time>2024-08-03T07:42:50Z</time>
      </trkpt>
      <trkpt lat="47.30271" lon="6.00761">
        <ele>423.4</ele>
        <time>2024-08-03T07:42:51Z</time>
      </trkpt>
      <trkpt lat="47.30273" lon="6.00759">
        <ele>423.6</ele>
        <time>2024-08-03T07:42:52Z</time>
      </trkpt>
      <trkpt lat="47.30274" lon="6.00756">
        <ele>423.8</ele>
        <time>2024-08-03T07:42:53Z</time>
      </trkpt>
      <trkpt lat="47.30276" lon="6.00754">
        <ele>423.8</ele>
        <time>2024-08-03T07:42:54Z</time>
      </trkpt>
      <trkpt lat="47.30278" lon="6.00752">
        <ele>424</ele>
        <time>2024-08-03T07:42:55Z</time>
      </trkpt>
      <trkpt lat="47.3028" lon="6.0075">
        <ele>424.2</ele>
        <time>2024-08-03T07:42:56Z</time>
      </trkpt>
      <trkpt lat="47.30282" lon="6.00748">
        <ele>424.4</ele>
        <time>2024-08-03T07:42:57Z</time>
      </trkpt>
      <trkpt lat="47.30284" lon="6.00746">
        <ele>424.6</ele>
        <time>2024-08-03T07:42:58Z</time>
      </trkpt>
      <trkpt lat="47.30286" lon="6.00745">
        <ele>424.8</ele>
        <time>2024-08-03T07:42:59Z</time>
      </trkpt>
      <trkpt lat="47.30288" lon="6.00743">
        <ele>424.8</ele>
        <time>2024-08-03T07:43:00Z</time>
      </trkpt>
      <trkpt lat="47.3029" lon="6.00742">
        <ele>425</ele>
        <time>2024-08-03T07:43:01Z</time>
      </trkpt>
      <trkpt lat="47.30292" lon="6.00741">
        <ele>425</ele>
        <time>2024-08-03T07:43:02Z</time>
      </trkpt>
      <trkpt lat="47.30294" lon="6.00741">
        <ele>425.2</ele>
        <time>2024-08-03T07:43:03Z</time>
      </trkpt>
      <trkpt lat="47.30295" lon="6.0074">
        <ele>425.4</ele>
        <time>2024-08-03T07:43:04Z</time>
      </trkpt>
      <trkpt lat="47.30297" lon="6.0074">
        <ele>425.8</ele>
        <time>2024-08-03T07:43:05Z</time>
      </trkpt>
      <trkpt lat="47.30299" lon="6.0074">
        <ele>426</ele>
        <time>2024-08-03T07:43:06Z</time>
      </trkpt>
      <trkpt lat="47.303" lon="6.0074">
        <ele>426.2</ele>
        <time>2024-08-03T07:43:07Z</time>
      </trkpt>
      <trkpt lat="47.30302" lon="6.00739">
        <ele>426.4</ele>
        <time>2024-08-03T07:43:08Z</time>
      </trkpt>
      <trkpt lat="47.30304" lon="6.00738">
        <ele>426.6</ele>
        <time>2024-08-03T07:43:09Z</time>
      </trkpt>
      <trkpt lat="47.30306" lon="6.00737">
        <ele>426.8</ele>
        <time>2024-08-03T07:43:10Z</time>
      </trkpt>
      <trkpt lat="47.30308" lon="6.00735">
        <ele>427.2</ele>
        <time>2024-08-03T07:43:11Z</time>
      </trkpt>
      <trkpt lat="47.30311" lon="6.00735">
        <ele>427.4</ele>
        <time>2024-08-03T07:43:12Z</time>
      </trkpt>
      <trkpt lat="47.30313" lon="6.00734">
        <ele>427.6</ele>
        <time>2024-08-03T07:43:13Z</time>
      </trkpt>
      <trkpt lat="47.30315" lon="6.00734">
        <ele>427.8</ele>
        <time>2024-08-03T07:43:14Z</time>
      </trkpt>
      <trkpt lat="47.30317" lon="6.00733">
        <ele>428.2</ele>
        <time>2024-08-03T07:43:15Z</time>
      </trkpt>
      <trkpt lat="47.30319" lon="6.00733">
        <ele>428.4</ele>
        <time>2024-08-03T07:43:16Z</time>
      </trkpt>
      <trkpt lat="47.30321" lon="6.00732">
        <ele>428.6</ele>
        <time>2024-08-03T07:43:17Z</time>
      </trkpt>
      <trkpt lat="47.30323" lon="6.00732">
        <ele>429</ele>
        <time>2024-08-03T07:43:18Z</time>
      </trkpt>
      <trkpt lat="47.30325" lon="6.00732">
        <ele>429.2</ele>
        <time>2024-08-03T07:43:19Z</time>
      </trkpt>
      <trkpt lat="47.30328" lon="6.00732">
        <ele>429.4</ele>
        <time>2024-08-03T07:43:20Z</time>
      </trkpt>
      <trkpt lat="47.3033" lon="6.00732">
        <ele>429.8</ele>
        <time>2024-08-03T07:43:21Z</time>
      </trkpt>
      <trkpt lat="47.30332" lon="6.00732">
        <ele>429.8</ele>
        <time>2024-08-03T07:43:22Z</time>
      </trkpt>
      <trkpt lat="47.30333" lon="6.00731">
        <ele>430.2</ele>
        <time>2024-08-03T07:43:23Z</time>
      </trkpt>
      <trkpt lat="47.30335" lon="6.0073">
        <ele>430.2</ele>
        <time>2024-08-03T07:43:24Z</time>
      </trkpt>
      <trkpt lat="47.30338" lon="6.00729">
        <ele>430.4</ele>
        <time>2024-08-03T07:43:25Z</time>
      </trkpt>
      <trkpt lat="47.3034" lon="6.00728">
        <ele>430.8</ele>
        <time>2024-08-03T07:43:26Z</time>
      </trkpt>
      <trkpt lat="47.30342" lon="6.00728">
        <ele>430.8</ele>
        <time>2024-08-03T07:43:27Z</time>
      </trkpt>
      <trkpt lat="47.30345" lon="6.00727">
        <ele>431.4</ele>
        <time>2024-08-03T07:43:28Z</time>
      </trkpt>
      <trkpt lat="47.30347" lon="6.00726">
        <ele>431.4</ele>
        <time>2024-08-03T07:43:29Z</time>
      </trkpt>
      <trkpt lat="47.3035" lon="6.00726">
        <ele>431.6</ele>
        <time>2024-08-03T07:43:30Z</time>
      </trkpt>
      <trkpt lat="47.30352" lon="6.00725">
        <ele>431.8</ele>
        <time>2024-08-03T07:43:31Z</time>
      </trkpt>
      <trkpt lat="47.30354" lon="6.00725">
        <ele>432</ele>
        <time>2024-08-03T07:43:32Z</time>
      </trkpt>
      <trkpt lat="47.30356" lon="6.00724">
        <ele>432</ele>
        <time>2024-08-03T07:43:33Z</time>
      </trkpt>
      <trkpt lat="47.30358" lon="6.00724">
        <ele>432.4</ele>
        <time>2024-08-03T07:43:34Z</time>
      </trkpt>
      <trkpt lat="47.3036" lon="6.00724">
        <ele>432.8</ele>
        <time>2024-08-03T07:43:35Z</time>
      </trkpt>
      <trkpt lat="47.30361" lon="6.00724">
        <ele>432.8</ele>
        <time>2024-08-03T07:43:36Z</time>
      </trkpt>
      <trkpt lat="47.30363" lon="6.00724">
        <ele>433</ele>
        <time>2024-08-03T07:43:37Z</time>
      </trkpt>
      <trkpt lat="47.30365" lon="6.00724">
        <ele>433</ele>
        <time>2024-08-03T07:43:38Z</time>
      </trkpt>
      <trkpt lat="47.30367" lon="6.00724">
        <ele>433.4</ele>
        <time>2024-08-03T07:43:39Z</time>
      </trkpt>
      <trkpt lat="47.30369" lon="6.00724">
        <ele>433.6</ele>
        <time>2024-08-03T07:43:40Z</time>
      </trkpt>
      <trkpt lat="47.30371" lon="6.00724">
        <ele>433.8</ele>
        <time>2024-08-03T07:43:41Z</time>
      </trkpt>
      <trkpt lat="47.30373" lon="6.00724">
        <ele>433.8</ele>
        <time>2024-08-03T07:43:42Z</time>
      </trkpt>
      <trkpt lat="47.30375" lon="6.00724">
        <ele>434.2</ele>
        <time>2024-08-03T07:43:43Z</time>
      </trkpt>
      <trkpt lat="47.30377" lon="6.00725">
        <ele>434.4</ele>
        <time>2024-08-03T07:43:44Z</time>
      </trkpt>
      <trkpt lat="47.30379" lon="6.00725">
        <ele>434.6</ele>
        <time>2024-08-03T07:43:45Z</time>
      </trkpt>
      <trkpt lat="47.30382" lon="6.00726">
        <ele>434.6</ele>
        <time>2024-08-03T07:43:46Z</time>
      </trkpt>
      <trkpt lat="47.30385" lon="6.00726">
        <ele>434.6</ele>
        <time>2024-08-03T07:43:47Z</time>
      </trkpt>
      <trkpt lat="47.30387" lon="6.00727">
        <ele>434.8</ele>
        <time>2024-08-03T07:43:48Z</time>
      </trkpt>
      <trkpt lat="47.30389" lon="6.00729">
        <ele>435</ele>
        <time>2024-08-03T07:43:49Z</time>
      </trkpt>
      <trkpt lat="47.30391" lon="6.0073">
        <ele>435.2</ele>
        <time>2024-08-03T07:43:50Z</time>
      </trkpt>
      <trkpt lat="47.30393" lon="6.00731">
        <ele>435.6</ele>
        <time>2024-08-03T07:43:51Z</time>
      </trkpt>
      <trkpt lat="47.30395" lon="6.00732">
        <ele>435.8</ele>
        <time>2024-08-03T07:43:52Z</time>
      </trkpt>
      <trkpt lat="47.30396" lon="6.00733">
        <ele>436</ele>
        <time>2024-08-03T07:43:53Z</time>
      </trkpt>
      <trkpt lat="47.30399" lon="6.00734">
        <ele>436.2</ele>
        <time>2024-08-03T07:43:54Z</time>
      </trkpt>
      <trkpt lat="47.304" lon="6.00735">
        <ele>436.4</ele>
        <time>2024-08-03T07:43:55Z</time>
      </trkpt>
      <trkpt lat="47.30402" lon="6.00736">
        <ele>436.6</ele>
        <time>2024-08-03T07:43:56Z</time>
      </trkpt>
      <trkpt lat="47.30405" lon="6.00737">
        <ele>436.6</ele>
        <time>2024-08-03T07:43:57Z</time>
      </trkpt>
      <trkpt lat="47.30407" lon="6.00738">
        <ele>436.6</ele>
        <time>2024-08-03T07:43:58Z</time>
      </trkpt>
      <trkpt lat="47.30409" lon="6.00739">
        <ele>436.8</ele>
        <time>2024-08-03T07:43:59Z</time>
      </trkpt>
      <trkpt lat="47.30411" lon="6.0074">
        <ele>437</ele>
        <time>2024-08-03T07:44:00Z</time>
      </trkpt>
      <trkpt lat="47.30413" lon="6.00741">
        <ele>437.2</ele>
        <time>2024-08-03T07:44:01Z</time>
      </trkpt>
      <trkpt lat="47.30416" lon="6.00742">
        <ele>437.4</ele>
        <time>2024-08-03T07:44:02Z</time>
      </trkpt>
      <trkpt lat="47.30418" lon="6.00743">
        <ele>437.4</ele>
        <time>2024-08-03T07:44:03Z</time>
      </trkpt>
      <trkpt lat="47.3042" lon="6.00744">
        <ele>437.6</ele>
        <time>2024-08-03T07:44:04Z</time>
      </trkpt>
      <trkpt lat="47.30422" lon="6.00745">
        <ele>437.8</ele>
        <time>2024-08-03T07:44:05Z</time>
      </trkpt>
      <trkpt lat="47.30425" lon="6.00746">
        <ele>438</ele>
        <time>2024-08-03T07:44:06Z</time>
      </trkpt>
      <trkpt lat="47.30427" lon="6.00747">
        <ele>438.4</ele>
        <time>2024-08-03T07:44:07Z</time>
      </trkpt>
      <trkpt lat="47.30429" lon="6.00748">
        <ele>438.4</ele>
        <time>2024-08-03T07:44:08Z</time>
      </trkpt>
      <trkpt lat="47.30431" lon="6.00749">
        <ele>438.6</ele>
        <time>2024-08-03T07:44:09Z</time>
      </trkpt>
      <trkpt lat="47.30433" lon="6.00749">
        <ele>438.6</ele>
        <time>2024-08-03T07:44:10Z</time>
      </trkpt>
      <trkpt lat="47.30436" lon="6.0075">
        <ele>438.8</ele>
        <time>2024-08-03T07:44:11Z</time>
      </trkpt>
      <trkpt lat="47.30438" lon="6.0075">
        <ele>439</ele>
        <time>2024-08-03T07:44:12Z</time>
      </trkpt>
      <trkpt lat="47.30439" lon="6.0075">
        <ele>439.2</ele>
        <time>2024-08-03T07:44:13Z</time>
      </trkpt>
      <trkpt lat="47.30441" lon="6.00749">
        <ele>439.2</ele>
        <time>2024-08-03T07:44:14Z</time>
      </trkpt>
      <trkpt lat="47.30443" lon="6.0075">
        <ele>439.2</ele>
        <time>2024-08-03T07:44:15Z</time>
      </trkpt>
      <trkpt lat="47.30445" lon="6.0075">
        <ele>439.6</ele>
        <time>2024-08-03T07:44:16Z</time>
      </trkpt>
      <trkpt lat="47.30447" lon="6.0075">
        <ele>439.6</ele>
        <time>2024-08-03T07:44:17Z</time>
      </trkpt>
      <trkpt lat="47.30449" lon="6.00751">
        <ele>440</ele>
        <time>2024-08-03T07:44:18Z</time>
      </trkpt>
      <trkpt lat="47.30451" lon="6.00753">
        <ele>440.2</ele>
        <time>2024-08-03T07:44:19Z</time>
      </trkpt>
      <trkpt lat="47.30453" lon="6.00755">
        <ele>440.4</ele>
        <time>2024-08-03T07:44:20Z</time>
      </trkpt>
      <trkpt lat="47.30455" lon="6.00756">
        <ele>440.6</ele>
        <time>2024-08-03T07:44:21Z</time>
      </trkpt>
      <trkpt lat="47.30457" lon="6.00758">
        <ele>440.8</ele>
        <time>2024-08-03T07:44:22Z</time>
      </trkpt>
      <trkpt lat="47.30459" lon="6.00759">
        <ele>441</ele>
        <time>2024-08-03T07:44:23Z</time>
      </trkpt>
      <trkpt lat="47.30461" lon="6.00761">
        <ele>441.2</ele>
        <time>2024-08-03T07:44:24Z</time>
      </trkpt>
      <trkpt lat="47.30463" lon="6.00762">
        <ele>441.2</ele>
        <time>2024-08-03T07:44:25Z</time>
      </trkpt>
      <trkpt lat="47.30465" lon="6.00762">
        <ele>441.4</ele>
        <time>2024-08-03T07:44:26Z</time>
      </trkpt>
      <trkpt lat="47.30467" lon="6.00763">
        <ele>441.8</ele>
        <time>2024-08-03T07:44:27Z</time>
      </trkpt>
      <trkpt lat="47.30469" lon="6.00763">
        <ele>441.8</ele>
        <time>2024-08-03T07:44:28Z</time>
      </trkpt>
      <trkpt lat="47.3047" lon="6.00764">
        <ele>441.8</ele>
        <time>2024-08-03T07:44:29Z</time>
      </trkpt>
      <trkpt lat="47.30472" lon="6.00765">
        <ele>442</ele>
        <time>2024-08-03T07:44:30Z</time>
      </trkpt>
      <trkpt lat="47.30474" lon="6.00766">
        <ele>442</ele>
        <time>2024-08-03T07:44:31Z</time>
      </trkpt>
      <trkpt lat="47.30476" lon="6.00766">
        <ele>442.2</ele>
        <time>2024-08-03T07:44:32Z</time>
      </trkpt>
      <trkpt lat="47.30478" lon="6.00767">
        <ele>442.2</ele>
        <time>2024-08-03T07:44:33Z</time>
      </trkpt>
      <trkpt lat="47.3048" lon="6.00767">
        <ele>442.6</ele>
        <time>2024-08-03T07:44:34Z</time>
      </trkpt>
      <trkpt lat="47.30482" lon="6.00769">
        <ele>442.8</ele>
        <time>2024-08-03T07:44:35Z</time>
      </trkpt>
      <trkpt lat="47.30484" lon="6.00769">
        <ele>443.2</ele>
        <time>2024-08-03T07:44:36Z</time>
      </trkpt>
      <trkpt lat="47.30486" lon="6.0077">
        <ele>443.4</ele>
        <time>2024-08-03T07:44:37Z</time>
      </trkpt>
      <trkpt lat="47.30488" lon="6.00771">
        <ele>443.8</ele>
        <time>2024-08-03T07:44:38Z</time>
      </trkpt>
      <trkpt lat="47.3049" lon="6.00772">
        <ele>444</ele>
        <time>2024-08-03T07:44:39Z</time>
      </trkpt>
      <trkpt lat="47.30492" lon="6.00772">
        <ele>444.4</ele>
        <time>2024-08-03T07:44:40Z</time>
      </trkpt>
      <trkpt lat="47.30494" lon="6.00772">
        <ele>444.8</ele>
        <time>2024-08-03T07:44:41Z</time>
      </trkpt>
      <trkpt lat="47.30497" lon="6.00772">
        <ele>445</ele>
        <time>2024-08-03T07:44:42Z</time>
      </trkpt>
      <trkpt lat="47.30499" lon="6.00773">
        <ele>445.2</ele>
        <time>2024-08-03T07:44:43Z</time>
      </trkpt>
      <trkpt lat="47.30502" lon="6.00773">
        <ele>445.4</ele>
        <time>2024-08-03T07:44:44Z</time>
      </trkpt>
      <trkpt lat="47.30505" lon="6.00773">
        <ele>445.6</ele>
        <time>2024-08-03T07:44:45Z</time>
      </trkpt>
      <trkpt lat="47.30507" lon="6.00773">
        <ele>445.8</ele>
        <time>2024-08-03T07:44:46Z</time>
      </trkpt>
      <trkpt lat="47.3051" lon="6.00773">
        <ele>445.8</ele>
        <time>2024-08-03T07:44:47Z</time>
      </trkpt>
      <trkpt lat="47.30512" lon="6.00773">
        <ele>446.2</ele>
        <time>2024-08-03T07:44:48Z</time>
      </trkpt>
      <trkpt lat="47.30515" lon="6.00773">
        <ele>446.2</ele>
        <time>2024-08-03T07:44:49Z</time>
      </trkpt>
      <trkpt lat="47.30517" lon="6.00771">
        <ele>446.4</ele>
        <time>2024-08-03T07:44:50Z</time>
      </trkpt>
      <trkpt lat="47.30519" lon="6.0077">
        <ele>446.4</ele>
        <time>2024-08-03T07:44:51Z</time>
      </trkpt>
      <trkpt lat="47.30521" lon="6.0077">
        <ele>446.8</ele>
        <time>2024-08-03T07:44:52Z</time>
      </trkpt>
      <trkpt lat="47.30523" lon="6.00769">
        <ele>447</ele>
        <time>2024-08-03T07:44:53Z</time>
      </trkpt>
      <trkpt lat="47.30524" lon="6.00769">
        <ele>447</ele>
        <time>2024-08-03T07:44:54Z</time>
      </trkpt>
      <trkpt lat="47.30526" lon="6.00768">
        <ele>447.2</ele>
        <time>2024-08-03T07:44:55Z</time>
      </trkpt>
      <trkpt lat="47.30528" lon="6.00768">
        <ele>447.4</ele>
        <time>2024-08-03T07:44:56Z</time>
      </trkpt>
      <trkpt lat="47.30529" lon="6.00767">
        <ele>447.6</ele>
        <time>2024-08-03T07:44:57Z</time>
      </trkpt>
      <trkpt lat="47.30531" lon="6.00765">
        <ele>447.6</ele>
        <time>2024-08-03T07:44:58Z</time>
      </trkpt>
      <trkpt lat="47.30532" lon="6.00765">
        <ele>447.6</ele>
        <time>2024-08-03T07:44:59Z</time>
      </trkpt>
      <trkpt lat="47.30534" lon="6.00764">
        <ele>448</ele>
        <time>2024-08-03T07:45:00Z</time>
      </trkpt>
      <trkpt lat="47.30536" lon="6.00763">
        <ele>448.2</ele>
        <time>2024-08-03T07:45:01Z</time>
      </trkpt>
      <trkpt lat="47.30538" lon="6.00762">
        <ele>448.4</ele>
        <time>2024-08-03T07:45:02Z</time>
      </trkpt>
      <trkpt lat="47.3054" lon="6.00761">
        <ele>448.6</ele>
        <time>2024-08-03T07:45:03Z</time>
      </trkpt>
      <trkpt lat="47.30542" lon="6.00759">
        <ele>448.6</ele>
        <time>2024-08-03T07:45:04Z</time>
      </trkpt>
      <trkpt lat="47.30544" lon="6.00758">
        <ele>448.8</ele>
        <time>2024-08-03T07:45:05Z</time>
      </trkpt>
      <trkpt lat="47.30546" lon="6.00756">
        <ele>449</ele>
        <time>2024-08-03T07:45:06Z</time>
      </trkpt>
      <trkpt lat="47.30548" lon="6.00755">
        <ele>449.2</ele>
        <time>2024-08-03T07:45:07Z</time>
      </trkpt>
      <trkpt lat="47.3055" lon="6.00754">
        <ele>449.4</ele>
        <time>2024-08-03T07:45:08Z</time>
      </trkpt>
      <trkpt lat="47.30552" lon="6.00753">
        <ele>449.6</ele>
        <time>2024-08-03T07:45:09Z</time>
      </trkpt>
      <trkpt lat="47.30553" lon="6.00752">
        <ele>449.8</ele>
        <time>2024-08-03T07:45:10Z</time>
      </trkpt>
      <trkpt lat="47.30555" lon="6.00751">
        <ele>449.8</ele>
        <time>2024-08-03T07:45:11Z</time>
      </trkpt>
      <trkpt lat="47.30557" lon="6.00751">
        <ele>450.2</ele>
        <time>2024-08-03T07:45:12Z</time>
      </trkpt>
      <trkpt lat="47.30559" lon="6.0075">
        <ele>450.2</ele>
        <time>2024-08-03T07:45:13Z</time>
      </trkpt>
      <trkpt lat="47.30561" lon="6.00749">
        <ele>450.2</ele>
        <time>2024-08-03T07:45:14Z</time>
      </trkpt>
      <trkpt lat="47.30563" lon="6.00749">
        <ele>450.2</ele>
        <time>2024-08-03T07:45:15Z</time>
      </trkpt>
      <trkpt lat="47.30564" lon="6.00749">
        <ele>450.2</ele>
        <time>2024-08-03T07:45:16Z</time>
      </trkpt>
      <trkpt lat="47.30566" lon="6.00749">
        <ele>450.4</ele>
        <time>2024-08-03T07:45:17Z</time>
      </trkpt>
      <trkpt lat="47.30567" lon="6.00748">
        <ele>450.4</ele>
        <time>2024-08-03T07:45:18Z</time>
      </trkpt>
      <trkpt lat="47.30567" lon="6.00747">
        <ele>450.6</ele>
        <time>2024-08-03T07:45:19Z</time>
      </trkpt>
      <trkpt lat="47.30568" lon="6.00744">
        <ele>450.8</ele>
        <time>2024-08-03T07:45:20Z</time>
      </trkpt>
      <trkpt lat="47.30568" lon="6.00742">
        <ele>451</ele>
        <time>2024-08-03T07:45:21Z</time>
      </trkpt>
      <trkpt lat="47.30569" lon="6.00739">
        <ele>451.2</ele>
        <time>2024-08-03T07:45:22Z</time>
      </trkpt>
      <trkpt lat="47.30569" lon="6.00736">
        <ele>451</ele>
        <time>2024-08-03T07:45:23Z</time>
      </trkpt>
      <trkpt lat="47.30569" lon="6.00733">
        <ele>451.2</ele>
        <time>2024-08-03T07:45:24Z</time>
      </trkpt>
      <trkpt lat="47.3057" lon="6.0073">
        <ele>451.2</ele>
        <time>2024-08-03T07:45:25Z</time>
      </trkpt>
      <trkpt lat="47.3057" lon="6.00728">
        <ele>451.2</ele>
        <time>2024-08-03T07:45:26Z</time>
      </trkpt>
      <trkpt lat="47.3057" lon="6.00725">
        <ele>451.2</ele>
        <time>2024-08-03T07:45:27Z</time>
      </trkpt>
      <trkpt lat="47.3057" lon="6.00722">
        <ele>451.2</ele>
        <time>2024-08-03T07:45:28Z</time>
      </trkpt>
      <trkpt lat="47.3057" lon="6.00717">
        <ele>451.2</ele>
        <time>2024-08-03T07:45:29Z</time>
      </trkpt>
      <trkpt lat="47.3057" lon="6.00713">
        <ele>451.2</ele>
        <time>2024-08-03T07:45:30Z</time>
      </trkpt>
      <trkpt lat="47.3057" lon="6.00709">
        <ele>451.2</ele>
        <time>2024-08-03T07:45:31Z</time>
      </trkpt>
      <trkpt lat="47.30571" lon="6.00705">
        <ele>451.2</ele>
        <time>2024-08-03T07:45:32Z</time>
      </trkpt>
      <trkpt lat="47.30572" lon="6.007">
        <ele>451.2</ele>
        <time>2024-08-03T07:45:33Z</time>
      </trkpt>
      <trkpt lat="47.30573" lon="6.00695">
        <ele>451.2</ele>
        <time>2024-08-03T07:45:34Z</time>
      </trkpt>
      <trkpt lat="47.30573" lon="6.00689">
        <ele>451.2</ele>
        <time>2024-08-03T07:45:35Z</time>
      </trkpt>
      <trkpt lat="47.30572" lon="6.00684">
        <ele>451.2</ele>
        <time>2024-08-03T07:45:36Z</time>
      </trkpt>
      <trkpt lat="47.30572" lon="6.00679">
        <ele>451.2</ele>
        <time>2024-08-03T07:45:37Z</time>
      </trkpt>
      <trkpt lat="47.30572" lon="6.00675">
        <ele>451.2</ele>
        <time>2024-08-03T07:45:38Z</time>
      </trkpt>
      <trkpt lat="47.30572" lon="6.0067">
        <ele>451.2</ele>
        <time>2024-08-03T07:45:39Z</time>
      </trkpt>
      <trkpt lat="47.30574" lon="6.00664">
        <ele>451.2</ele>
        <time>2024-08-03T07:45:40Z</time>
      </trkpt>
      <trkpt lat="47.30577" lon="6.0066">
        <ele>451</ele>
        <time>2024-08-03T07:45:41Z</time>
      </trkpt>
      <trkpt lat="47.3058" lon="6.00657">
        <ele>450.8</ele>
        <time>2024-08-03T07:45:42Z</time>
      </trkpt>
      <trkpt lat="47.30583" lon="6.00654">
        <ele>450.8</ele>
        <time>2024-08-03T07:45:43Z</time>
      </trkpt>
      <trkpt lat="47.30587" lon="6.00653">
        <ele>450.8</ele>
        <time>2024-08-03T07:45:44Z</time>
      </trkpt>
      <trkpt lat="47.30589" lon="6.00651">
        <ele>450.6</ele>
        <time>2024-08-03T07:45:45Z</time>
      </trkpt>
      <trkpt lat="47.30592" lon="6.00648">
        <ele>450.4</ele>
        <time>2024-08-03T07:45:46Z</time>
      </trkpt>
      <trkpt lat="47.30594" lon="6.00646">
        <ele>450.2</ele>
        <time>2024-08-03T07:45:47Z</time>
      </trkpt>
      <trkpt lat="47.30596" lon="6.00644">
        <ele>450.2</ele>
        <time>2024-08-03T07:45:48Z</time>
      </trkpt>
      <trkpt lat="47.30597" lon="6.00642">
        <ele>450.2</ele>
        <time>2024-08-03T07:45:49Z</time>
      </trkpt>
      <trkpt lat="47.30598" lon="6.00639">
        <ele>450.2</ele>
        <time>2024-08-03T07:45:50Z</time>
      </trkpt>
      <trkpt lat="47.306" lon="6.00637">
        <ele>450.2</ele>
        <time>2024-08-03T07:45:51Z</time>
      </trkpt>
      <trkpt lat="47.30603" lon="6.00634">
        <ele>450.2</ele>
        <time>2024-08-03T07:45:52Z</time>
      </trkpt>
      <trkpt lat="47.30606" lon="6.00631">
        <ele>450</ele>
        <time>2024-08-03T07:45:53Z</time>
      </trkpt>
      <trkpt lat="47.3061" lon="6.00629">
        <ele>450.2</ele>
        <time>2024-08-03T07:45:54Z</time>
      </trkpt>
      <trkpt lat="47.30612" lon="6.00626">
        <ele>450</ele>
        <time>2024-08-03T07:45:55Z</time>
      </trkpt>
      <trkpt lat="47.30614" lon="6.00623">
        <ele>450</ele>
        <time>2024-08-03T07:45:56Z</time>
      </trkpt>
      <trkpt lat="47.30617" lon="6.0062">
        <ele>450</ele>
        <time>2024-08-03T07:45:57Z</time>
      </trkpt>
      <trkpt lat="47.30618" lon="6.00617">
        <ele>450</ele>
        <time>2024-08-03T07:45:58Z</time>
      </trkpt>
      <trkpt lat="47.30621" lon="6.00614">
        <ele>450</ele>
        <time>2024-08-03T07:45:59Z</time>
      </trkpt>
      <trkpt lat="47.30624" lon="6.0061">
        <ele>450.2</ele>
        <time>2024-08-03T07:46:00Z</time>
      </trkpt>
      <trkpt lat="47.30627" lon="6.00605">
        <ele>450</ele>
        <time>2024-08-03T07:46:01Z</time>
      </trkpt>
      <trkpt lat="47.3063" lon="6.006">
        <ele>450</ele>
        <time>2024-08-03T07:46:02Z</time>
      </trkpt>
      <trkpt lat="47.30632" lon="6.00596">
        <ele>449.8</ele>
        <time>2024-08-03T07:46:03Z</time>
      </trkpt>
      <trkpt lat="47.30634" lon="6.00593">
        <ele>449.8</ele>
        <time>2024-08-03T07:46:04Z</time>
      </trkpt>
      <trkpt lat="47.30635" lon="6.00592">
        <ele>449.6</ele>
        <time>2024-08-03T07:46:05Z</time>
      </trkpt>
      <trkpt lat="47.30637" lon="6.00591">
        <ele>449.4</ele>
        <time>2024-08-03T07:46:06Z</time>
      </trkpt>
      <trkpt lat="47.3064" lon="6.00591">
        <ele>449</ele>
        <time>2024-08-03T07:46:07Z</time>
      </trkpt>
      <trkpt lat="47.30643" lon="6.00591">
        <ele>448.6</ele>
        <time>2024-08-03T07:46:08Z</time>
      </trkpt>
      <trkpt lat="47.30645" lon="6.00591">
        <ele>448.4</ele>
        <time>2024-08-03T07:46:09Z</time>
      </trkpt>
      <trkpt lat="47.30648" lon="6.00592">
        <ele>448</ele>
        <time>2024-08-03T07:46:10Z</time>
      </trkpt>
      <trkpt lat="47.30651" lon="6.00593">
        <ele>447.8</ele>
        <time>2024-08-03T07:46:11Z</time>
      </trkpt>
      <trkpt lat="47.30655" lon="6.00595">
        <ele>447.2</ele>
        <time>2024-08-03T07:46:12Z</time>
      </trkpt>
      <trkpt lat="47.30658" lon="6.00596">
        <ele>446.8</ele>
        <time>2024-08-03T07:46:13Z</time>
      </trkpt>
      <trkpt lat="47.30661" lon="6.00597">
        <ele>446.6</ele>
        <time>2024-08-03T07:46:14Z</time>
      </trkpt>
      <trkpt lat="47.30664" lon="6.00597">
        <ele>446.4</ele>
        <time>2024-08-03T07:46:15Z</time>
      </trkpt>
      <trkpt lat="47.30667" lon="6.00597">
        <ele>446.4</ele>
        <time>2024-08-03T07:46:16Z</time>
      </trkpt>
      <trkpt lat="47.3067" lon="6.00598">
        <ele>446.2</ele>
        <time>2024-08-03T07:46:17Z</time>
      </trkpt>
      <trkpt lat="47.30672" lon="6.00599">
        <ele>446.2</ele>
        <time>2024-08-03T07:46:18Z</time>
      </trkpt>
      <trkpt lat="47.30675" lon="6.006">
        <ele>446.2</ele>
        <time>2024-08-03T07:46:19Z</time>
      </trkpt>
      <trkpt lat="47.30678" lon="6.00601">
        <ele>446.2</ele>
        <time>2024-08-03T07:46:20Z</time>
      </trkpt>
      <trkpt lat="47.3068" lon="6.00602">
        <ele>446.2</ele>
        <time>2024-08-03T07:46:21Z</time>
      </trkpt>
      <trkpt lat="47.30684" lon="6.00604">
        <ele>446</ele>
        <time>2024-08-03T07:46:22Z</time>
      </trkpt>
      <trkpt lat="47.30688" lon="6.00606">
        <ele>446.2</ele>
        <time>2024-08-03T07:46:23Z</time>
      </trkpt>
      <trkpt lat="47.30692" lon="6.00608">
        <ele>446</ele>
        <time>2024-08-03T07:46:24Z</time>
      </trkpt>
      <trkpt lat="47.30696" lon="6.0061">
        <ele>445.8</ele>
        <time>2024-08-03T07:46:25Z</time>
      </trkpt>
      <trkpt lat="47.307" lon="6.00612">
        <ele>445.6</ele>
        <time>2024-08-03T07:46:26Z</time>
      </trkpt>
      <trkpt lat="47.30703" lon="6.00614">
        <ele>445.4</ele>
        <time>2024-08-03T07:46:27Z</time>
      </trkpt>
      <trkpt lat="47.30706" lon="6.00615">
        <ele>445.4</ele>
        <time>2024-08-03T07:46:28Z</time>
      </trkpt>
      <trkpt lat="47.30709" lon="6.00616">
        <ele>445.2</ele>
        <time>2024-08-03T07:46:29Z</time>
      </trkpt>
      <trkpt lat="47.30711" lon="6.00616">
        <ele>445</ele>
        <time>2024-08-03T07:46:30Z</time>
      </trkpt>
      <trkpt lat="47.30714" lon="6.00616">
        <ele>445</ele>
        <time>2024-08-03T07:46:31Z</time>
      </trkpt>
      <trkpt lat="47.30717" lon="6.00617">
        <ele>445</ele>
        <time>2024-08-03T07:46:32Z</time>
      </trkpt>
      <trkpt lat="47.30719" lon="6.00618">
        <ele>444.8</ele>
        <time>2024-08-03T07:46:33Z</time>
      </trkpt>
      <trkpt lat="47.30722" lon="6.00618">
        <ele>444.4</ele>
        <time>2024-08-03T07:46:34Z</time>
      </trkpt>
      <trkpt lat="47.30725" lon="6.00618">
        <ele>444.6</ele>
        <time>2024-08-03T07:46:35Z</time>
      </trkpt>
      <trkpt lat="47.30728" lon="6.00617">
        <ele>444.2</ele>
        <time>2024-08-03T07:46:36Z</time>
      </trkpt>
      <trkpt lat="47.30732" lon="6.00617">
        <ele>444.2</ele>
        <time>2024-08-03T07:46:37Z</time>
      </trkpt>
      <trkpt lat="47.30736" lon="6.00617">
        <ele>444.2</ele>
        <time>2024-08-03T07:46:38Z</time>
      </trkpt>
      <trkpt lat="47.30739" lon="6.00618">
        <ele>444</ele>
        <time>2024-08-03T07:46:39Z</time>
      </trkpt>
      <trkpt lat="47.30743" lon="6.00617">
        <ele>444</ele>
        <time>2024-08-03T07:46:40Z</time>
      </trkpt>
      <trkpt lat="47.30747" lon="6.00617">
        <ele>444</ele>
        <time>2024-08-03T07:46:41Z</time>
      </trkpt>
      <trkpt lat="47.30751" lon="6.00617">
        <ele>443.8</ele>
        <time>2024-08-03T07:46:42Z</time>
      </trkpt>
      <trkpt lat="47.30754" lon="6.00619">
        <ele>444</ele>
        <time>2024-08-03T07:46:43Z</time>
      </trkpt>
      <trkpt lat="47.30758" lon="6.0062">
        <ele>444</ele>
        <time>2024-08-03T07:46:44Z</time>
      </trkpt>
      <trkpt lat="47.30761" lon="6.0062">
        <ele>444</ele>
        <time>2024-08-03T07:46:45Z</time>
      </trkpt>
      <trkpt lat="47.30765" lon="6.0062">
        <ele>444</ele>
        <time>2024-08-03T07:46:46Z</time>
      </trkpt>
      <trkpt lat="47.30767" lon="6.0062">
        <ele>444</ele>
        <time>2024-08-03T07:46:47Z</time>
      </trkpt>
      <trkpt lat="47.3077" lon="6.00619">
        <ele>444</ele>
        <time>2024-08-03T07:46:48Z</time>
      </trkpt>
      <trkpt lat="47.30773" lon="6.0062">
        <ele>444</ele>
        <time>2024-08-03T07:46:49Z</time>
      </trkpt>
      <trkpt lat="47.30776" lon="6.0062">
        <ele>444</ele>
        <time>2024-08-03T07:46:50Z</time>
      </trkpt>
      <trkpt lat="47.30779" lon="6.00622">
        <ele>444</ele>
        <time>2024-08-03T07:46:51Z</time>
      </trkpt>
      <trkpt lat="47.30782" lon="6.00623">
        <ele>444.2</ele>
        <time>2024-08-03T07:46:52Z</time>
      </trkpt>
      <trkpt lat="47.30785" lon="6.00625">
        <ele>444.2</ele>
        <time>2024-08-03T07:46:53Z</time>
      </trkpt>
      <trkpt lat="47.30788" lon="6.00628">
        <ele>444.2</ele>
        <time>2024-08-03T07:46:54Z</time>
      </trkpt>
      <trkpt lat="47.3079" lon="6.0063">
        <ele>444.4</ele>
        <time>2024-08-03T07:46:55Z</time>
      </trkpt>
      <trkpt lat="47.30793" lon="6.00632">
        <ele>444.2</ele>
        <time>2024-08-03T07:46:56Z</time>
      </trkpt>
      <trkpt lat="47.30794" lon="6.00633">
        <ele>444.4</ele>
        <time>2024-08-03T07:46:57Z</time>
      </trkpt>
      <trkpt lat="47.30796" lon="6.00633">
        <ele>444.4</ele>
        <time>2024-08-03T07:46:58Z</time>
      </trkpt>
      <trkpt lat="47.30797" lon="6.00634">
        <ele>444.2</ele>
        <time>2024-08-03T07:46:59Z</time>
      </trkpt>
      <trkpt lat="47.30798" lon="6.00634">
        <ele>444.2</ele>
        <time>2024-08-03T07:47:00Z</time>
      </trkpt>
      <trkpt lat="47.30799" lon="6.00635">
        <ele>444.4</ele>
        <time>2024-08-03T07:47:01Z</time>
      </trkpt>
      <trkpt lat="47.308" lon="6.00636">
        <ele>444.2</ele>
        <time>2024-08-03T07:47:02Z</time>
      </trkpt>
      <trkpt lat="47.30801" lon="6.00638">
        <ele>444.2</ele>
        <time>2024-08-03T07:47:03Z</time>
      </trkpt>
      <trkpt lat="47.30802" lon="6.0064">
        <ele>444.2</ele>
        <time>2024-08-03T07:47:04Z</time>
      </trkpt>
      <trkpt lat="47.30804" lon="6.00642">
        <ele>444</ele>
        <time>2024-08-03T07:47:05Z</time>
      </trkpt>
      <trkpt lat="47.30805" lon="6.00644">
        <ele>443.8</ele>
        <time>2024-08-03T07:47:06Z</time>
      </trkpt>
      <trkpt lat="47.30807" lon="6.00647">
        <ele>443.8</ele>
        <time>2024-08-03T07:47:07Z</time>
      </trkpt>
      <trkpt lat="47.3081" lon="6.00649">
        <ele>443.8</ele>
        <time>2024-08-03T07:47:08Z</time>
      </trkpt>
      <trkpt lat="47.30812" lon="6.00651">
        <ele>443.8</ele>
        <time>2024-08-03T07:47:09Z</time>
      </trkpt>
      <trkpt lat="47.30814" lon="6.00652">
        <ele>443.6</ele>
        <time>2024-08-03T07:47:10Z</time>
      </trkpt>
      <trkpt lat="47.30817" lon="6.00654">
        <ele>443.6</ele>
        <time>2024-08-03T07:47:11Z</time>
      </trkpt>
      <trkpt lat="47.30819" lon="6.00656">
        <ele>443.4</ele>
        <time>2024-08-03T07:47:12Z</time>
      </trkpt>
      <trkpt lat="47.30821" lon="6.00658">
        <ele>443.4</ele>
        <time>2024-08-03T07:47:13Z</time>
      </trkpt>
      <trkpt lat="47.30823" lon="6.00661">
        <ele>443.4</ele>
        <time>2024-08-03T07:47:14Z</time>
      </trkpt>
      <trkpt lat="47.30825" lon="6.00663">
        <ele>443.2</ele>
        <time>2024-08-03T07:47:15Z</time>
      </trkpt>
      <trkpt lat="47.30827" lon="6.00665">
        <ele>443.2</ele>
        <time>2024-08-03T07:47:16Z</time>
      </trkpt>
      <trkpt lat="47.30829" lon="6.00667">
        <ele>443</ele>
        <time>2024-08-03T07:47:17Z</time>
      </trkpt>
      <trkpt lat="47.30832" lon="6.00668">
        <ele>442.6</ele>
        <time>2024-08-03T07:47:18Z</time>
      </trkpt>
      <trkpt lat="47.30833" lon="6.00669">
        <ele>442.4</ele>
        <time>2024-08-03T07:47:19Z</time>
      </trkpt>
      <trkpt lat="47.30836" lon="6.00669">
        <ele>441.8</ele>
        <time>2024-08-03T07:47:20Z</time>
      </trkpt>
      <trkpt lat="47.30838" lon="6.00668">
        <ele>441.2</ele>
        <time>2024-08-03T07:47:21Z</time>
      </trkpt>
      <trkpt lat="47.3084" lon="6.00667">
        <ele>440.8</ele>
        <time>2024-08-03T07:47:22Z</time>
      </trkpt>
      <trkpt lat="47.30841" lon="6.00665">
        <ele>440.6</ele>
        <time>2024-08-03T07:47:23Z</time>
      </trkpt>
      <trkpt lat="47.30842" lon="6.00663">
        <ele>440.2</ele>
        <time>2024-08-03T07:47:24Z</time>
      </trkpt>
      <trkpt lat="47.3084" lon="6.00661">
        <ele>440.2</ele>
        <time>2024-08-03T07:47:25Z</time>
      </trkpt>
      <trkpt lat="47.3084" lon="6.00658">
        <ele>439.8</ele>
        <time>2024-08-03T07:47:26Z</time>
      </trkpt>
      <trkpt lat="47.30839" lon="6.00655">
        <ele>439.6</ele>
        <time>2024-08-03T07:47:27Z</time>
      </trkpt>
      <trkpt lat="47.30839" lon="6.00652">
        <ele>439.2</ele>
        <time>2024-08-03T07:47:28Z</time>
      </trkpt>
      <trkpt lat="47.30838" lon="6.0065">
        <ele>439</ele>
        <time>2024-08-03T07:47:29Z</time>
      </trkpt>
      <trkpt lat="47.30837" lon="6.00649">
        <ele>438.8</ele>
        <time>2024-08-03T07:47:30Z</time>
      </trkpt>
      <trkpt lat="47.30837" lon="6.00648">
        <ele>438.6</ele>
        <time>2024-08-03T07:47:31Z</time>
      </trkpt>
      <trkpt lat="47.30837" lon="6.00647">
        <ele>438.8</ele>
        <time>2024-08-03T07:47:32Z</time>
      </trkpt>
      <trkpt lat="47.30837" lon="6.00646">
        <ele>438.6</ele>
        <time>2024-08-03T07:47:33Z</time>
      </trkpt>
      <trkpt lat="47.30838" lon="6.00646">
        <ele>438.6</ele>
        <time>2024-08-03T07:47:34Z</time>
      </trkpt>
      <trkpt lat="47.30839" lon="6.00645">
        <ele>438.4</ele>
        <time>2024-08-03T07:47:35Z</time>
      </trkpt>
      <trkpt lat="47.3084" lon="6.00645">
        <ele>438.6</ele>
        <time>2024-08-03T07:47:36Z</time>
      </trkpt>
      <trkpt lat="47.30841" lon="6.00645">
        <ele>438.4</ele>
        <time>2024-08-03T07:47:37Z</time>
      </trkpt>
      <trkpt lat="47.30843" lon="6.00645">
        <ele>438.6</ele>
        <time>2024-08-03T07:47:38Z</time>
      </trkpt>
      <trkpt lat="47.30845" lon="6.00644">
        <ele>438.4</ele>
        <time>2024-08-03T07:47:39Z</time>
      </trkpt>
      <trkpt lat="47.30847" lon="6.00645">
        <ele>438.4</ele>
        <time>2024-08-03T07:47:40Z</time>
      </trkpt>
      <trkpt lat="47.30849" lon="6.00645">
        <ele>438.4</ele>
        <time>2024-08-03T07:47:41Z</time>
      </trkpt>
      <trkpt lat="47.3085" lon="6.00646">
        <ele>438.4</ele>
        <time>2024-08-03T07:47:42Z</time>
      </trkpt>
      <trkpt lat="47.30852" lon="6.00646">
        <ele>438.2</ele>
        <time>2024-08-03T07:47:43Z</time>
      </trkpt>
      <trkpt lat="47.30853" lon="6.00647">
        <ele>438</ele>
        <time>2024-08-03T07:47:44Z</time>
      </trkpt>
      <trkpt lat="47.30856" lon="6.00648">
        <ele>437.8</ele>
        <time>2024-08-03T07:47:45Z</time>
      </trkpt>
      <trkpt lat="47.30859" lon="6.00649">
        <ele>437.4</ele>
        <time>2024-08-03T07:47:46Z</time>
      </trkpt>
      <trkpt lat="47.30862" lon="6.00651">
        <ele>437.4</ele>
        <time>2024-08-03T07:47:47Z</time>
      </trkpt>
      <trkpt lat="47.30865" lon="6.00653">
        <ele>437</ele>
        <time>2024-08-03T07:47:48Z</time>
      </trkpt>
      <trkpt lat="47.30869" lon="6.00655">
        <ele>436.4</ele>
        <time>2024-08-03T07:47:49Z</time>
      </trkpt>
      <trkpt lat="47.30872" lon="6.00656">
        <ele>436.4</ele>
        <time>2024-08-03T07:47:50Z</time>
      </trkpt>
      <trkpt lat="47.30875" lon="6.00658">
        <ele>436</ele>
        <time>2024-08-03T07:47:51Z</time>
      </trkpt>
      <trkpt lat="47.30877" lon="6.00659">
        <ele>435.4</ele>
        <time>2024-08-03T07:47:52Z</time>
      </trkpt>
      <trkpt lat="47.30879" lon="6.00659">
        <ele>434.8</ele>
        <time>2024-08-03T07:47:53Z</time>
      </trkpt>
      <trkpt lat="47.3088" lon="6.0066">
        <ele>434.6</ele>
        <time>2024-08-03T07:47:54Z</time>
      </trkpt>
      <trkpt lat="47.30882" lon="6.0066">
        <ele>434.2</ele>
        <time>2024-08-03T07:47:55Z</time>
      </trkpt>
      <trkpt lat="47.30884" lon="6.0066">
        <ele>433.8</ele>
        <time>2024-08-03T07:47:56Z</time>
      </trkpt>
      <trkpt lat="47.30886" lon="6.0066">
        <ele>433.4</ele>
        <time>2024-08-03T07:47:57Z</time>
      </trkpt>
      <trkpt lat="47.30888" lon="6.00659">
        <ele>432.8</ele>
        <time>2024-08-03T07:47:58Z</time>
      </trkpt>
      <trkpt lat="47.30889" lon="6.0066">
        <ele>432.4</ele>
        <time>2024-08-03T07:47:59Z</time>
      </trkpt>
      <trkpt lat="47.3089" lon="6.0066">
        <ele>431.6</ele>
        <time>2024-08-03T07:48:00Z</time>
      </trkpt>
      <trkpt lat="47.30892" lon="6.00661">
        <ele>431.2</ele>
        <time>2024-08-03T07:48:01Z</time>
      </trkpt>
      <trkpt lat="47.30893" lon="6.00663">
        <ele>430.6</ele>
        <time>2024-08-03T07:48:02Z</time>
      </trkpt>
      <trkpt lat="47.30894" lon="6.00665">
        <ele>430</ele>
        <time>2024-08-03T07:48:03Z</time>
      </trkpt>
      <trkpt lat="47.30896" lon="6.00668">
        <ele>429.6</ele>
        <time>2024-08-03T07:48:04Z</time>
      </trkpt>
      <trkpt lat="47.30897" lon="6.0067">
        <ele>429</ele>
        <time>2024-08-03T07:48:05Z</time>
      </trkpt>
      <trkpt lat="47.30899" lon="6.00672">
        <ele>428.6</ele>
        <time>2024-08-03T07:48:06Z</time>
      </trkpt>
      <trkpt lat="47.30901" lon="6.00674">
        <ele>428</ele>
        <time>2024-08-03T07:48:07Z</time>
      </trkpt>
      <trkpt lat="47.30903" lon="6.00677">
        <ele>427.6</ele>
        <time>2024-08-03T07:48:08Z</time>
      </trkpt>
      <trkpt lat="47.30904" lon="6.0068">
        <ele>427.6</ele>
        <time>2024-08-03T07:48:09Z</time>
      </trkpt>
      <trkpt lat="47.30906" lon="6.00683">
        <ele>427.2</ele>
        <time>2024-08-03T07:48:10Z</time>
      </trkpt>
      <trkpt lat="47.30908" lon="6.00687">
        <ele>426.6</ele>
        <time>2024-08-03T07:48:11Z</time>
      </trkpt>
      <trkpt lat="47.30909" lon="6.0069">
        <ele>426.2</ele>
        <time>2024-08-03T07:48:12Z</time>
      </trkpt>
      <trkpt lat="47.3091" lon="6.00693">
        <ele>426</ele>
        <time>2024-08-03T07:48:13Z</time>
      </trkpt>
      <trkpt lat="47.30911" lon="6.00696">
        <ele>425.4</ele>
        <time>2024-08-03T07:48:14Z</time>
      </trkpt>
      <trkpt lat="47.30912" lon="6.00698">
        <ele>424.8</ele>
        <time>2024-08-03T07:48:15Z</time>
      </trkpt>
      <trkpt lat="47.30914" lon="6.007">
        <ele>424.4</ele>
        <time>2024-08-03T07:48:16Z</time>
      </trkpt>
      <trkpt lat="47.30916" lon="6.00703">
        <ele>423.8</ele>
        <time>2024-08-03T07:48:17Z</time>
      </trkpt>
      <trkpt lat="47.30918" lon="6.00707">
        <ele>423.2</ele>
        <time>2024-08-03T07:48:18Z</time>
      </trkpt>
      <trkpt lat="47.30919" lon="6.0071">
        <ele>422.6</ele>
        <time>2024-08-03T07:48:19Z</time>
      </trkpt>
      <trkpt lat="47.30921" lon="6.00713">
        <ele>422.2</ele>
        <time>2024-08-03T07:48:20Z</time>
      </trkpt>
      <trkpt lat="47.30923" lon="6.00717">
        <ele>421.8</ele>
        <time>2024-08-03T07:48:21Z</time>
      </trkpt>
      <trkpt lat="47.30925" lon="6.0072">
        <ele>421.4</ele>
        <time>2024-08-03T07:48:22Z</time>
      </trkpt>
      <trkpt lat="47.30927" lon="6.00724">
        <ele>420.8</ele>
        <time>2024-08-03T07:48:23Z</time>
      </trkpt>
      <trkpt lat="47.30929" lon="6.00729">
        <ele>420</ele>
        <time>2024-08-03T07:48:24Z</time>
      </trkpt>
      <trkpt lat="47.30932" lon="6.00734">
        <ele>419.4</ele>
        <time>2024-08-03T07:48:25Z</time>
      </trkpt>
      <trkpt lat="47.30935" lon="6.0074">
        <ele>418.4</ele>
        <time>2024-08-03T07:48:26Z</time>
      </trkpt>
      <trkpt lat="47.30939" lon="6.00746">
        <ele>417.8</ele>
        <time>2024-08-03T07:48:27Z</time>
      </trkpt>
      <trkpt lat="47.30942" lon="6.00754">
        <ele>417</ele>
        <time>2024-08-03T07:48:28Z</time>
      </trkpt>
      <trkpt lat="47.30945" lon="6.00762">
        <ele>416.4</ele>
        <time>2024-08-03T07:48:29Z</time>
      </trkpt>
      <trkpt lat="47.30948" lon="6.0077">
        <ele>415.4</ele>
        <time>2024-08-03T07:48:30Z</time>
      </trkpt>
      <trkpt lat="47.30951" lon="6.00778">
        <ele>415.4</ele>
        <time>2024-08-03T07:48:31Z</time>
      </trkpt>
      <trkpt lat="47.30955" lon="6.00789">
        <ele>414.6</ele>
        <time>2024-08-03T07:48:32Z</time>
      </trkpt>
      <trkpt lat="47.30959" lon="6.00799">
        <ele>413.8</ele>
        <time>2024-08-03T07:48:33Z</time>
      </trkpt>
      <trkpt lat="47.30964" lon="6.00809">
        <ele>412.6</ele>
        <time>2024-08-03T07:48:34Z</time>
      </trkpt>
      <trkpt lat="47.30968" lon="6.00818">
        <ele>411.6</ele>
        <time>2024-08-03T07:48:35Z</time>
      </trkpt>
      <trkpt lat="47.30972" lon="6.00828">
        <ele>410.6</ele>
        <time>2024-08-03T07:48:36Z</time>
      </trkpt>
      <trkpt lat="47.30975" lon="6.00834">
        <ele>409.2</ele>
        <time>2024-08-03T07:48:37Z</time>
      </trkpt>
      <trkpt lat="47.30978" lon="6.0084">
        <ele>407.8</ele>
        <time>2024-08-03T07:48:38Z</time>
      </trkpt>
      <trkpt lat="47.30982" lon="6.00848">
        <ele>406.4</ele>
        <time>2024-08-03T07:48:39Z</time>
      </trkpt>
      <trkpt lat="47.30986" lon="6.00855">
        <ele>405.2</ele>
        <time>2024-08-03T07:48:40Z</time>
      </trkpt>
      <trkpt lat="47.3099" lon="6.00865">
        <ele>404.4</ele>
        <time>2024-08-03T07:48:41Z</time>
      </trkpt>
      <trkpt lat="47.30993" lon="6.00872">
        <ele>403.2</ele>
        <time>2024-08-03T07:48:42Z</time>
      </trkpt>
      <trkpt lat="47.30995" lon="6.0088">
        <ele>402</ele>
        <time>2024-08-03T07:48:43Z</time>
      </trkpt>
      <trkpt lat="47.30996" lon="6.00887">
        <ele>401</ele>
        <time>2024-08-03T07:48:44Z</time>
      </trkpt>
      <trkpt lat="47.30998" lon="6.00893">
        <ele>400.2</ele>
        <time>2024-08-03T07:48:45Z</time>
      </trkpt>
      <trkpt lat="47.30999" lon="6.00899">
        <ele>399.6</ele>
        <time>2024-08-03T07:48:46Z</time>
      </trkpt>
      <trkpt lat="47.31002" lon="6.00905">
        <ele>398.6</ele>
        <time>2024-08-03T07:48:47Z</time>
      </trkpt>
      <trkpt lat="47.31005" lon="6.00911">
        <ele>397.4</ele>
        <time>2024-08-03T07:48:48Z</time>
      </trkpt>
      <trkpt lat="47.31009" lon="6.00917">
        <ele>396.6</ele>
        <time>2024-08-03T07:48:49Z</time>
      </trkpt>
      <trkpt lat="47.31013" lon="6.00923">
        <ele>395.6</ele>
        <time>2024-08-03T07:48:50Z</time>
      </trkpt>
      <trkpt lat="47.31017" lon="6.00931">
        <ele>394.4</ele>
        <time>2024-08-03T07:48:51Z</time>
      </trkpt>
      <trkpt lat="47.31022" lon="6.00937">
        <ele>393.4</ele>
        <time>2024-08-03T07:48:52Z</time>
      </trkpt>
      <trkpt lat="47.31025" lon="6.00944">
        <ele>393.4</ele>
        <time>2024-08-03T07:48:53Z</time>
      </trkpt>
      <trkpt lat="47.3103" lon="6.0095">
        <ele>393</ele>
        <time>2024-08-03T07:48:54Z</time>
      </trkpt>
      <trkpt lat="47.31034" lon="6.00955">
        <ele>392.6</ele>
        <time>2024-08-03T07:48:55Z</time>
      </trkpt>
      <trkpt lat="47.31037" lon="6.00959">
        <ele>392</ele>
        <time>2024-08-03T07:48:56Z</time>
      </trkpt>
      <trkpt lat="47.31038" lon="6.00962">
        <ele>391.4</ele>
        <time>2024-08-03T07:48:57Z</time>
      </trkpt>
      <trkpt lat="47.3104" lon="6.00964">
        <ele>391</ele>
        <time>2024-08-03T07:48:58Z</time>
      </trkpt>
      <trkpt lat="47.31042" lon="6.00966">
        <ele>390.8</ele>
        <time>2024-08-03T07:48:59Z</time>
      </trkpt>
      <trkpt lat="47.31045" lon="6.0097">
        <ele>390.4</ele>
        <time>2024-08-03T07:49:00Z</time>
      </trkpt>
      <trkpt lat="47.31048" lon="6.00972">
        <ele>389.8</ele>
        <time>2024-08-03T07:49:01Z</time>
      </trkpt>
      <trkpt lat="47.3105" lon="6.00974">
        <ele>389.2</ele>
        <time>2024-08-03T07:49:02Z</time>
      </trkpt>
      <trkpt lat="47.31052" lon="6.00975">
        <ele>388.6</ele>
        <time>2024-08-03T07:49:03Z</time>
      </trkpt>
      <trkpt lat="47.31054" lon="6.00978">
        <ele>388</ele>
        <time>2024-08-03T07:49:04Z</time>
      </trkpt>
      <trkpt lat="47.31056" lon="6.00981">
        <ele>387.6</ele>
        <time>2024-08-03T07:49:05Z</time>
      </trkpt>
      <trkpt lat="47.31058" lon="6.00983">
        <ele>386.8</ele>
        <time>2024-08-03T07:49:06Z</time>
      </trkpt>
      <trkpt lat="47.31059" lon="6.00985">
        <ele>386</ele>
        <time>2024-08-03T07:49:07Z</time>
      </trkpt>
      <trkpt lat="47.31062" lon="6.00987">
        <ele>385.6</ele>
        <time>2024-08-03T07:49:08Z</time>
      </trkpt>
      <trkpt lat="47.31064" lon="6.00989">
        <ele>384.8</ele>
        <time>2024-08-03T07:49:09Z</time>
      </trkpt>
      <trkpt lat="47.31066" lon="6.00991">
        <ele>384.2</ele>
        <time>2024-08-03T07:49:10Z</time>
      </trkpt>
      <trkpt lat="47.31068" lon="6.00993">
        <ele>383.4</ele>
        <time>2024-08-03T07:49:11Z</time>
      </trkpt>
      <trkpt lat="47.31071" lon="6.00996">
        <ele>382.8</ele>
        <time>2024-08-03T07:49:12Z</time>
      </trkpt>
      <trkpt lat="47.31075" lon="6.01001">
        <ele>382.2</ele>
        <time>2024-08-03T07:49:13Z</time>
      </trkpt>
      <trkpt lat="47.31079" lon="6.01006">
        <ele>381.4</ele>
        <time>2024-08-03T07:49:14Z</time>
      </trkpt>
      <trkpt lat="47.31082" lon="6.0101">
        <ele>381.4</ele>
        <time>2024-08-03T07:49:15Z</time>
      </trkpt>
      <trkpt lat="47.31085" lon="6.01014">
        <ele>381.2</ele>
        <time>2024-08-03T07:49:16Z</time>
      </trkpt>
      <trkpt lat="47.31086" lon="6.01018">
        <ele>380.2</ele>
        <time>2024-08-03T07:49:17Z</time>
      </trkpt>
      <trkpt lat="47.31087" lon="6.0102">
        <ele>379.4</ele>
        <time>2024-08-03T07:49:18Z</time>
      </trkpt>
      <trkpt lat="47.31089" lon="6.01023">
        <ele>378.6</ele>
        <time>2024-08-03T07:49:19Z</time>
      </trkpt>
      <trkpt lat="47.31091" lon="6.01024">
        <ele>377.8</ele>
        <time>2024-08-03T07:49:20Z</time>
      </trkpt>
      <trkpt lat="47.31091" lon="6.01025">
        <ele>376.8</ele>
        <time>2024-08-03T07:49:21Z</time>
      </trkpt>
      <trkpt lat="47.31091" lon="6.01026">
        <ele>376</ele>
        <time>2024-08-03T07:49:22Z</time>
      </trkpt>
      <trkpt lat="47.31091" lon="6.01026">
        <ele>375</ele>
        <time>2024-08-03T07:49:23Z</time>
      </trkpt>
      <trkpt lat="47.31091" lon="6.01029">
        <ele>374.4</ele>
        <time>2024-08-03T07:49:24Z</time>
      </trkpt>
      <trkpt lat="47.31091" lon="6.01031">
        <ele>373.8</ele>
        <time>2024-08-03T07:49:25Z</time>
      </trkpt>
      <trkpt lat="47.31091" lon="6.01034">
        <ele>373.2</ele>
        <time>2024-08-03T07:49:26Z</time>
      </trkpt>
      <trkpt lat="47.31092" lon="6.01037">
        <ele>373</ele>
        <time>2024-08-03T07:49:27Z</time>
      </trkpt>
      <trkpt lat="47.31093" lon="6.0104">
        <ele>373</ele>
        <time>2024-08-03T07:49:28Z</time>
      </trkpt>
      <trkpt lat="47.31095" lon="6.01042">
        <ele>372.8</ele>
        <time>2024-08-03T07:49:29Z</time>
      </trkpt>
      <trkpt lat="47.31096" lon="6.01043">
        <ele>372.6</ele>
        <time>2024-08-03T07:49:30Z</time>
      </trkpt>
      <trkpt lat="47.31096" lon="6.01043">
        <ele>372.6</ele>
        <time>2024-08-03T07:49:31Z</time>
      </trkpt>
      <trkpt lat="47.31095" lon="6.01043">
        <ele>372.6</ele>
        <time>2024-08-03T07:49:32Z</time>
      </trkpt>
      <trkpt lat="47.31095" lon="6.01042">
        <ele>372.6</ele>
        <time>2024-08-03T07:49:33Z</time>
      </trkpt>
      <trkpt lat="47.31095" lon="6.01042">
        <ele>372.4</ele>
        <time>2024-08-03T07:49:34Z</time>
      </trkpt>
      <trkpt lat="47.31095" lon="6.01042">
        <ele>372.4</ele>
        <time>2024-08-03T07:49:35Z</time>
      </trkpt>
      <trkpt lat="47.31095" lon="6.01042">
        <ele>372.2</ele>
        <time>2024-08-03T07:49:36Z</time>
      </trkpt>
      <trkpt lat="47.31095" lon="6.01042">
        <ele>372.2</ele>
        <time>2024-08-03T07:49:37Z</time>
      </trkpt>
      <trkpt lat="47.31094" lon="6.01042">
        <ele>372.2</ele>
        <time>2024-08-03T07:49:38Z</time>
      </trkpt>
      <trkpt lat="47.31094" lon="6.01043">
        <ele>372.4</ele>
        <time>2024-08-03T07:49:39Z</time>
      </trkpt>
      <trkpt lat="47.31094" lon="6.01043">
        <ele>372.2</ele>
        <time>2024-08-03T07:49:40Z</time>
      </trkpt>
      <trkpt lat="47.31093" lon="6.01043">
        <ele>372.2</ele>
        <time>2024-08-03T07:49:41Z</time>
      </trkpt>
      <trkpt lat="47.31093" lon="6.01043">
        <ele>372.2</ele>
        <time>2024-08-03T07:49:42Z</time>
      </trkpt>
      <trkpt lat="47.31093" lon="6.01043">
        <ele>372.2</ele>
        <time>2024-08-03T07:49:43Z</time>
      </trkpt>
      <trkpt lat="47.31093" lon="6.01043">
        <ele>372.2</ele>
        <time>2024-08-03T07:49:44Z</time>
      </trkpt>
      <trkpt lat="47.31093" lon="6.01043">
        <ele>372</ele>
        <time>2024-08-03T07:49:45Z</time>
      </trkpt>
      <trkpt lat="47.31093" lon="6.01043">
        <ele>372</ele>
        <time>2024-08-03T07:49:46Z</time>
      </trkpt>
      <trkpt lat="47.31093" lon="6.01043">
        <ele>372</ele>
        <time>2024-08-03T07:49:47Z</time>
      </trkpt>
      <trkpt lat="47.31093" lon="6.01043">
        <ele>372</ele>
        <time>2024-08-03T07:49:48Z</time>
      </trkpt>
      <trkpt lat="47.31093" lon="6.01043">
        <ele>372</ele>
        <time>2024-08-03T07:49:49Z</time>
      </trkpt>
      <trkpt lat="47.31093" lon="6.01043">
        <ele>372</ele>
        <time>2024-08-03T07:49:50Z</time>
      </trkpt>
      <trkpt lat="47.31093" lon="6.01044">
        <ele>371.8</ele>
        <time>2024-08-03T07:49:51Z</time>
      </trkpt>
      <trkpt lat="47.31093" lon="6.01044">
        <ele>372</ele>
        <time>2024-08-03T07:49:52Z</time>
      </trkpt>
      <trkpt lat="47.31093" lon="6.01044">
        <ele>371.8</ele>
        <time>2024-08-03T07:49:53Z</time>
      </trkpt>
      <trkpt lat="47.31093" lon="6.01044">
        <ele>371.8</ele>
        <time>2024-08-03T07:49:54Z</time>
      </trkpt>
      <trkpt lat="47.31093" lon="6.01044">
        <ele>371.8</ele>
        <time>2024-08-03T07:49:55Z</time>
      </trkpt>
      <trkpt lat="47.31093" lon="6.01044">
        <ele>371.8</ele>
        <time>2024-08-03T07:49:56Z</time>
      </trkpt>
      <trkpt lat="47.31093" lon="6.01044">
        <ele>371.8</ele>
        <time>2024-08-03T07:49:57Z</time>
      </trkpt>
      <trkpt lat="47.31093" lon="6.01044">
        <ele>371.8</ele>
        <time>2024-08-03T07:49:58Z</time>
      </trkpt>
      <trkpt lat="47.31093" lon="6.01044">
        <ele>371.8</ele>
        <time>2024-08-03T07:49:59Z</time>
      </trkpt>
      <trkpt lat="47.31093" lon="6.01044">
        <ele>372</ele>
        <time>2024-08-03T07:50:00Z</time>
      </trkpt>
      <trkpt lat="47.31093" lon="6.01044">
        <ele>371.8</ele>
        <time>2024-08-03T07:50:01Z</time>
      </trkpt>
      <trkpt lat="47.31093" lon="6.01044">
        <ele>372</ele>
        <time>2024-08-03T07:50:02Z</time>
      </trkpt>
      <trkpt lat="47.31093" lon="6.01044">
        <ele>372</ele>
        <time>2024-08-03T07:50:03Z</time>
      </trkpt>
      <trkpt lat="47.31093" lon="6.01044">
        <ele>371.8</ele>
        <time>2024-08-03T07:50:04Z</time>
      </trkpt>
      <trkpt lat="47.31093" lon="6.01044">
        <ele>372</ele>
        <time>2024-08-03T07:50:05Z</time>
      </trkpt>
      <trkpt lat="47.31093" lon="6.01045">
        <ele>371.8</ele>
        <time>2024-08-03T07:50:06Z</time>
      </trkpt>
      <trkpt lat="47.31093" lon="6.01045">
        <ele>371.8</ele>
        <time>2024-08-03T07:50:07Z</time>
      </trkpt>
      <trkpt lat="47.31093" lon="6.01045">
        <ele>372</ele>
        <time>2024-08-03T07:50:08Z</time>
      </trkpt>
      <trkpt lat="47.31093" lon="6.01045">
        <ele>372</ele>
        <time>2024-08-03T07:50:09Z</time>
      </trkpt>
      <trkpt lat="47.31093" lon="6.01046">
        <ele>372</ele>
        <time>2024-08-03T07:50:10Z</time>
      </trkpt>
      <trkpt lat="47.31094" lon="6.01046">
        <ele>372</ele>
        <time>2024-08-03T07:50:11Z</time>
      </trkpt>
      <trkpt lat="47.31094" lon="6.01047">
        <ele>372</ele>
        <time>2024-08-03T07:50:12Z</time>
      </trkpt>
      <trkpt lat="47.31095" lon="6.01049">
        <ele>372</ele>
        <time>2024-08-03T07:50:13Z</time>
      </trkpt>
      <trkpt lat="47.31095" lon="6.0105">
        <ele>371.8</ele>
        <time>2024-08-03T07:50:14Z</time>
      </trkpt>
      <trkpt lat="47.31096" lon="6.01051">
        <ele>371.8</ele>
        <time>2024-08-03T07:50:15Z</time>
      </trkpt>
      <trkpt lat="47.31097" lon="6.01053">
        <ele>371.8</ele>
        <time>2024-08-03T07:50:16Z</time>
      </trkpt>
      <trkpt lat="47.31099" lon="6.01055">
        <ele>371.8</ele>
        <time>2024-08-03T07:50:17Z</time>
      </trkpt>
      <trkpt lat="47.311" lon="6.01057">
        <ele>371.8</ele>
        <time>2024-08-03T07:50:18Z</time>
      </trkpt>
      <trkpt lat="47.31102" lon="6.01059">
        <ele>371.8</ele>
        <time>2024-08-03T07:50:19Z</time>
      </trkpt>
      <trkpt lat="47.31104" lon="6.01062">
        <ele>371.8</ele>
        <time>2024-08-03T07:50:20Z</time>
      </trkpt>
      <trkpt lat="47.31106" lon="6.01064">
        <ele>371.8</ele>
        <time>2024-08-03T07:50:21Z</time>
      </trkpt>
      <trkpt lat="47.31109" lon="6.01067">
        <ele>371.8</ele>
        <time>2024-08-03T07:50:22Z</time>
      </trkpt>
      <trkpt lat="47.31111" lon="6.0107">
        <ele>371.6</ele>
        <time>2024-08-03T07:50:23Z</time>
      </trkpt>
      <trkpt lat="47.31115" lon="6.01073">
        <ele>371.4</ele>
        <time>2024-08-03T07:50:24Z</time>
      </trkpt>
      <trkpt lat="47.31118" lon="6.01077">
        <ele>371.2</ele>
        <time>2024-08-03T07:50:25Z</time>
      </trkpt>
      <trkpt lat="47.31122" lon="6.01081">
        <ele>371</ele>
        <time>2024-08-03T07:50:26Z</time>
      </trkpt>
      <trkpt lat="47.31127" lon="6.01085">
        <ele>370.8</ele>
        <time>2024-08-03T07:50:27Z</time>
      </trkpt>
      <trkpt lat="47.31133" lon="6.0109">
        <ele>370.6</ele>
        <time>2024-08-03T07:50:28Z</time>
      </trkpt>
      <trkpt lat="47.31138" lon="6.01095">
        <ele>370.2</ele>
        <time>2024-08-03T07:50:29Z</time>
      </trkpt>
      <trkpt lat="47.31142" lon="6.01099">
        <ele>369.4</ele>
        <time>2024-08-03T07:50:30Z</time>
      </trkpt>
      <trkpt lat="47.31147" lon="6.01102">
        <ele>369</ele>
        <time>2024-08-03T07:50:31Z</time>
      </trkpt>
      <trkpt lat="47.31153" lon="6.01105">
        <ele>368.2</ele>
        <time>2024-08-03T07:50:32Z</time>
      </trkpt>
      <trkpt lat="47.31158" lon="6.01107">
        <ele>367.6</ele>
        <time>2024-08-03T07:50:33Z</time>
      </trkpt>
      <trkpt lat="47.31162" lon="6.01109">
        <ele>367</ele>
        <time>2024-08-03T07:50:34Z</time>
      </trkpt>
      <trkpt lat="47.31166" lon="6.0111">
        <ele>366.4</ele>
        <time>2024-08-03T07:50:35Z</time>
      </trkpt>
      <trkpt lat="47.31171" lon="6.01112">
        <ele>366.2</ele>
        <time>2024-08-03T07:50:36Z</time>
      </trkpt>
      <trkpt lat="47.31176" lon="6.01114">
        <ele>365.6</ele>
        <time>2024-08-03T07:50:37Z</time>
      </trkpt>
      <trkpt lat="47.31181" lon="6.01117">
        <ele>365</ele>
        <time>2024-08-03T07:50:38Z</time>
      </trkpt>
      <trkpt lat="47.31185" lon="6.0112">
        <ele>364.4</ele>
        <time>2024-08-03T07:50:39Z</time>
      </trkpt>
      <trkpt lat="47.3119" lon="6.01123">
        <ele>363.6</ele>
        <time>2024-08-03T07:50:40Z</time>
      </trkpt>
      <trkpt lat="47.31195" lon="6.01125">
        <ele>363.6</ele>
        <time>2024-08-03T07:50:41Z</time>
      </trkpt>
      <trkpt lat="47.312" lon="6.01127">
        <ele>362.8</ele>
        <time>2024-08-03T07:50:42Z</time>
      </trkpt>
      <trkpt lat="47.31205" lon="6.01129">
        <ele>362</ele>
        <time>2024-08-03T07:50:43Z</time>
      </trkpt>
      <trkpt lat="47.3121" lon="6.01131">
        <ele>361.2</ele>
        <time>2024-08-03T07:50:44Z</time>
      </trkpt>
      <trkpt lat="47.31216" lon="6.01133">
        <ele>360.4</ele>
        <time>2024-08-03T07:50:45Z</time>
      </trkpt>
      <trkpt lat="47.31222" lon="6.01135">
        <ele>359.8</ele>
        <time>2024-08-03T07:50:46Z</time>
      </trkpt>
      <trkpt lat="47.31228" lon="6.01137">
        <ele>359</ele>
        <time>2024-08-03T07:50:47Z</time>
      </trkpt>
      <trkpt lat="47.31233" lon="6.01139">
        <ele>358.4</ele>
        <time>2024-08-03T07:50:48Z</time>
      </trkpt>
      <trkpt lat="47.31237" lon="6.01141">
        <ele>357.8</ele>
        <time>2024-08-03T07:50:49Z</time>
      </trkpt>
      <trkpt lat="47.31242" lon="6.01144">
        <ele>357</ele>
        <time>2024-08-03T07:50:50Z</time>
      </trkpt>
      <trkpt lat="47.31247" lon="6.01147">
        <ele>356.6</ele>
        <time>2024-08-03T07:50:51Z</time>
      </trkpt>
      <trkpt lat="47.31253" lon="6.0115">
        <ele>356</ele>
        <time>2024-08-03T07:50:52Z</time>
      </trkpt>
      <trkpt lat="47.31257" lon="6.01153">
        <ele>355.4</ele>
        <time>2024-08-03T07:50:53Z</time>
      </trkpt>
      <trkpt lat="47.31263" lon="6.01157">
        <ele>355.2</ele>
        <time>2024-08-03T07:50:54Z</time>
      </trkpt>
      <trkpt lat="47.31267" lon="6.0116">
        <ele>354.8</ele>
        <time>2024-08-03T07:50:55Z</time>
      </trkpt>
      <trkpt lat="47.31271" lon="6.01163">
        <ele>354.4</ele>
        <time>2024-08-03T07:50:56Z</time>
      </trkpt>
      <trkpt lat="47.31274" lon="6.01166">
        <ele>353.8</ele>
        <time>2024-08-03T07:50:57Z</time>
      </trkpt>
      <trkpt lat="47.31279" lon="6.0117">
        <ele>353.2</ele>
        <time>2024-08-03T07:50:58Z</time>
      </trkpt>
      <trkpt lat="47.31285" lon="6.01174">
        <ele>352.6</ele>
        <time>2024-08-03T07:50:59Z</time>
      </trkpt>
      <trkpt lat="47.3129" lon="6.01177">
        <ele>352</ele>
        <time>2024-08-03T07:51:00Z</time>
      </trkpt>
      <trkpt lat="47.31296" lon="6.01179">
        <ele>351.6</ele>
        <time>2024-08-03T07:51:01Z</time>
      </trkpt>
      <trkpt lat="47.313" lon="6.01181">
        <ele>351</ele>
        <time>2024-08-03T07:51:02Z</time>
      </trkpt>
      <trkpt lat="47.31305" lon="6.01183">
        <ele>351</ele>
        <time>2024-08-03T07:51:03Z</time>
      </trkpt>
      <trkpt lat="47.31309" lon="6.01185">
        <ele>350.6</ele>
        <time>2024-08-03T07:51:04Z</time>
      </trkpt>
      <trkpt lat="47.31313" lon="6.01187">
        <ele>350.2</ele>
        <time>2024-08-03T07:51:05Z</time>
      </trkpt>
      <trkpt lat="47.31316" lon="6.01189">
        <ele>349.6</ele>
        <time>2024-08-03T07:51:06Z</time>
      </trkpt>
      <trkpt lat="47.3132" lon="6.0119">
        <ele>349</ele>
        <time>2024-08-03T07:51:07Z</time>
      </trkpt>
      <trkpt lat="47.31324" lon="6.01192">
        <ele>348.6</ele>
        <time>2024-08-03T07:51:08Z</time>
      </trkpt>
      <trkpt lat="47.31327" lon="6.01192">
        <ele>347.8</ele>
        <time>2024-08-03T07:51:09Z</time>
      </trkpt>
      <trkpt lat="47.31331" lon="6.01194">
        <ele>347</ele>
        <time>2024-08-03T07:51:10Z</time>
      </trkpt>
      <trkpt lat="47.31334" lon="6.01195">
        <ele>346.2</ele>
        <time>2024-08-03T07:51:11Z</time>
      </trkpt>
      <trkpt lat="47.31338" lon="6.01196">
        <ele>345.4</ele>
        <time>2024-08-03T07:51:12Z</time>
      </trkpt>
      <trkpt lat="47.31343" lon="6.01197">
        <ele>344.8</ele>
        <time>2024-08-03T07:51:13Z</time>
      </trkpt>
      <trkpt lat="47.31348" lon="6.01198">
        <ele>344</ele>
        <time>2024-08-03T07:51:14Z</time>
      </trkpt>
      <trkpt lat="47.31351" lon="6.01199">
        <ele>343.6</ele>
        <time>2024-08-03T07:51:15Z</time>
      </trkpt>
      <trkpt lat="47.31354" lon="6.01199">
        <ele>343.2</ele>
        <time>2024-08-03T07:51:16Z</time>
      </trkpt>
      <trkpt lat="47.31358" lon="6.012">
        <ele>342.4</ele>
        <time>2024-08-03T07:51:17Z</time>
      </trkpt>
      <trkpt lat="47.31361" lon="6.01201">
        <ele>342</ele>
        <time>2024-08-03T07:51:18Z</time>
      </trkpt>
      <trkpt lat="47.31364" lon="6.01202">
        <ele>341.6</ele>
        <time>2024-08-03T07:51:19Z</time>
      </trkpt>
      <trkpt lat="47.31368" lon="6.01203">
        <ele>341.2</ele>
        <time>2024-08-03T07:51:20Z</time>
      </trkpt>
      <trkpt lat="47.31374" lon="6.01206">
        <ele>340.8</ele>
        <time>2024-08-03T07:51:21Z</time>
      </trkpt>
      <trkpt lat="47.31379" lon="6.01206">
        <ele>340.6</ele>
        <time>2024-08-03T07:51:22Z</time>
      </trkpt>
      <trkpt lat="47.31384" lon="6.01207">
        <ele>340.4</ele>
        <time>2024-08-03T07:51:23Z</time>
      </trkpt>
      <trkpt lat="47.31388" lon="6.01207">
        <ele>340</ele>
        <time>2024-08-03T07:51:24Z</time>
      </trkpt>
      <trkpt lat="47.31393" lon="6.01207">
        <ele>340</ele>
        <time>2024-08-03T07:51:25Z</time>
      </trkpt>
      <trkpt lat="47.31396" lon="6.01206">
        <ele>339.4</ele>
        <time>2024-08-03T07:51:26Z</time>
      </trkpt>
      <trkpt lat="47.31401" lon="6.01206">
        <ele>339</ele>
        <time>2024-08-03T07:51:27Z</time>
      </trkpt>
      <trkpt lat="47.31405" lon="6.01206">
        <ele>338.6</ele>
        <time>2024-08-03T07:51:28Z</time>
      </trkpt>
      <trkpt lat="47.3141" lon="6.01206">
        <ele>338.2</ele>
        <time>2024-08-03T07:51:29Z</time>
      </trkpt>
      <trkpt lat="47.31415" lon="6.01206">
        <ele>338</ele>
        <time>2024-08-03T07:51:30Z</time>
      </trkpt>
      <trkpt lat="47.3142" lon="6.01207">
        <ele>337.6</ele>
        <time>2024-08-03T07:51:31Z</time>
      </trkpt>
      <trkpt lat="47.31424" lon="6.01207">
        <ele>336.8</ele>
        <time>2024-08-03T07:51:32Z</time>
      </trkpt>
      <trkpt lat="47.31427" lon="6.01207">
        <ele>336.4</ele>
        <time>2024-08-03T07:51:33Z</time>
      </trkpt>
      <trkpt lat="47.3143" lon="6.01207">
        <ele>336</ele>
        <time>2024-08-03T07:51:34Z</time>
      </trkpt>
      <trkpt lat="47.31435" lon="6.01207">
        <ele>335.4</ele>
        <time>2024-08-03T07:51:35Z</time>
      </trkpt>
      <trkpt lat="47.3144" lon="6.01207">
        <ele>335</ele>
        <time>2024-08-03T07:51:36Z</time>
      </trkpt>
      <trkpt lat="47.31446" lon="6.01207">
        <ele>334.8</ele>
        <time>2024-08-03T07:51:37Z</time>
      </trkpt>
      <trkpt lat="47.31453" lon="6.01206">
        <ele>333.8</ele>
        <time>2024-08-03T07:51:38Z</time>
      </trkpt>
      <trkpt lat="47.31458" lon="6.01205">
        <ele>333.6</ele>
        <time>2024-08-03T07:51:39Z</time>
      </trkpt>
      <trkpt lat="47.31465" lon="6.01204">
        <ele>332.8</ele>
        <time>2024-08-03T07:51:40Z</time>
      </trkpt>
      <trkpt lat="47.31472" lon="6.01204">
        <ele>332.2</ele>
        <time>2024-08-03T07:51:41Z</time>
      </trkpt>
      <trkpt lat="47.31478" lon="6.01205">
        <ele>332</ele>
        <time>2024-08-03T07:51:42Z</time>
      </trkpt>
      <trkpt lat="47.31485" lon="6.01205">
        <ele>331.2</ele>
        <time>2024-08-03T07:51:43Z</time>
      </trkpt>
      <trkpt lat="47.3149" lon="6.01205">
        <ele>330.6</ele>
        <time>2024-08-03T07:51:44Z</time>
      </trkpt>
      <trkpt lat="47.31495" lon="6.01206">
        <ele>330.2</ele>
        <time>2024-08-03T07:51:45Z</time>
      </trkpt>
      <trkpt lat="47.31499" lon="6.01206">
        <ele>329.6</ele>
        <time>2024-08-03T07:51:46Z</time>
      </trkpt>
      <trkpt lat="47.31503" lon="6.01206">
        <ele>329.6</ele>
        <time>2024-08-03T07:51:47Z</time>
      </trkpt>
      <trkpt lat="47.31507" lon="6.01205">
        <ele>329</ele>
        <time>2024-08-03T07:51:48Z</time>
      </trkpt>
      <trkpt lat="47.3151" lon="6.01203">
        <ele>328.4</ele>
        <time>2024-08-03T07:51:49Z</time>
      </trkpt>
      <trkpt lat="47.31514" lon="6.012">
        <ele>327.8</ele>
        <time>2024-08-03T07:51:50Z</time>
      </trkpt>
      <trkpt lat="47.31517" lon="6.01197">
        <ele>327</ele>
        <time>2024-08-03T07:51:51Z</time>
      </trkpt>
      <trkpt lat="47.31521" lon="6.01194">
        <ele>326.6</ele>
        <time>2024-08-03T07:51:52Z</time>
      </trkpt>
      <trkpt lat="47.31526" lon="6.0119">
        <ele>325.8</ele>
        <time>2024-08-03T07:51:53Z</time>
      </trkpt>
      <trkpt lat="47.31532" lon="6.01188">
        <ele>325.4</ele>
        <time>2024-08-03T07:51:54Z</time>
      </trkpt>
      <trkpt lat="47.31538" lon="6.01186">
        <ele>325</ele>
        <time>2024-08-03T07:51:55Z</time>
      </trkpt>
      <trkpt lat="47.31542" lon="6.01183">
        <ele>324.4</ele>
        <time>2024-08-03T07:51:56Z</time>
      </trkpt>
      <trkpt lat="47.31547" lon="6.01181">
        <ele>324.4</ele>
        <time>2024-08-03T07:51:57Z</time>
      </trkpt>
      <trkpt lat="47.31552" lon="6.01179">
        <ele>323.8</ele>
        <time>2024-08-03T07:51:58Z</time>
      </trkpt>
      <trkpt lat="47.31556" lon="6.01177">
        <ele>323.2</ele>
        <time>2024-08-03T07:51:59Z</time>
      </trkpt>
      <trkpt lat="47.31562" lon="6.01177">
        <ele>322.6</ele>
        <time>2024-08-03T07:52:00Z</time>
      </trkpt>
      <trkpt lat="47.31566" lon="6.01179">
        <ele>322</ele>
        <time>2024-08-03T07:52:01Z</time>
      </trkpt>
      <trkpt lat="47.3157" lon="6.0118">
        <ele>321.6</ele>
        <time>2024-08-03T07:52:02Z</time>
      </trkpt>
      <trkpt lat="47.31573" lon="6.01181">
        <ele>321</ele>
        <time>2024-08-03T07:52:03Z</time>
      </trkpt>
      <trkpt lat="47.31576" lon="6.01181">
        <ele>320.6</ele>
        <time>2024-08-03T07:52:04Z</time>
      </trkpt>
      <trkpt lat="47.31579" lon="6.01183">
        <ele>320</ele>
        <time>2024-08-03T07:52:05Z</time>
      </trkpt>
      <trkpt lat="47.31582" lon="6.01186">
        <ele>319.6</ele>
        <time>2024-08-03T07:52:06Z</time>
      </trkpt>
      <trkpt lat="47.31585" lon="6.01187">
        <ele>319.2</ele>
        <time>2024-08-03T07:52:07Z</time>
      </trkpt>
      <trkpt lat="47.31588" lon="6.01188">
        <ele>319.2</ele>
        <time>2024-08-03T07:52:08Z</time>
      </trkpt>
      <trkpt lat="47.31593" lon="6.01189">
        <ele>318.8</ele>
        <time>2024-08-03T07:52:09Z</time>
      </trkpt>
      <trkpt lat="47.31596" lon="6.0119">
        <ele>318.6</ele>
        <time>2024-08-03T07:52:10Z</time>
      </trkpt>
      <trkpt lat="47.316" lon="6.0119">
        <ele>318.2</ele>
        <time>2024-08-03T07:52:11Z</time>
      </trkpt>
      <trkpt lat="47.31604" lon="6.0119">
        <ele>317.8</ele>
        <time>2024-08-03T07:52:12Z</time>
      </trkpt>
      <trkpt lat="47.3161" lon="6.0119">
        <ele>317.2</ele>
        <time>2024-08-03T07:52:13Z</time>
      </trkpt>
      <trkpt lat="47.31616" lon="6.01191">
        <ele>316.8</ele>
        <time>2024-08-03T07:52:14Z</time>
      </trkpt>
      <trkpt lat="47.31623" lon="6.01192">
        <ele>316.4</ele>
        <time>2024-08-03T07:52:15Z</time>
      </trkpt>
      <trkpt lat="47.31629" lon="6.01193">
        <ele>315.8</ele>
        <time>2024-08-03T07:52:16Z</time>
      </trkpt>
      <trkpt lat="47.31635" lon="6.01194">
        <ele>315.4</ele>
        <time>2024-08-03T07:52:17Z</time>
      </trkpt>
      <trkpt lat="47.31641" lon="6.01195">
        <ele>314.8</ele>
        <time>2024-08-03T07:52:18Z</time>
      </trkpt>
      <trkpt lat="47.31647" lon="6.01196">
        <ele>314.2</ele>
        <time>2024-08-03T07:52:19Z</time>
      </trkpt>
      <trkpt lat="47.31653" lon="6.01197">
        <ele>313.8</ele>
        <time>2024-08-03T07:52:20Z</time>
      </trkpt>
      <trkpt lat="47.3166" lon="6.01198">
        <ele>312.6</ele>
        <time>2024-08-03T07:52:21Z</time>
      </trkpt>
      <trkpt lat="47.31665" lon="6.01198">
        <ele>312</ele>
        <time>2024-08-03T07:52:22Z</time>
      </trkpt>
      <trkpt lat="47.31671" lon="6.01199">
        <ele>311.8</ele>
        <time>2024-08-03T07:52:23Z</time>
      </trkpt>
      <trkpt lat="47.31676" lon="6.01199">
        <ele>311.2</ele>
        <time>2024-08-03T07:52:24Z</time>
      </trkpt>
      <trkpt lat="47.31683" lon="6.012">
        <ele>310.6</ele>
        <time>2024-08-03T07:52:25Z</time>
      </trkpt>
      <trkpt lat="47.31688" lon="6.01201">
        <ele>310.4</ele>
        <time>2024-08-03T07:52:26Z</time>
      </trkpt>
      <trkpt lat="47.31693" lon="6.012">
        <ele>309.8</ele>
        <time>2024-08-03T07:52:27Z</time>
      </trkpt>
      <trkpt lat="47.31698" lon="6.01199">
        <ele>309.2</ele>
        <time>2024-08-03T07:52:28Z</time>
      </trkpt>
      <trkpt lat="47.31703" lon="6.01199">
        <ele>308.8</ele>
        <time>2024-08-03T07:52:29Z</time>
      </trkpt>
      <trkpt lat="47.3171" lon="6.01199">
        <ele>308.8</ele>
        <time>2024-08-03T07:52:30Z</time>
      </trkpt>
      <trkpt lat="47.31717" lon="6.012">
        <ele>308.4</ele>
        <time>2024-08-03T07:52:31Z</time>
      </trkpt>
      <trkpt lat="47.31727" lon="6.01201">
        <ele>308</ele>
        <time>2024-08-03T07:52:32Z</time>
      </trkpt>
      <trkpt lat="47.31735" lon="6.01201">
        <ele>307.4</ele>
        <time>2024-08-03T07:52:33Z</time>
      </trkpt>
      <trkpt lat="47.31743" lon="6.01203">
        <ele>306.6</ele>
        <time>2024-08-03T07:52:34Z</time>
      </trkpt>
      <trkpt lat="47.31752" lon="6.01205">
        <ele>305.6</ele>
        <time>2024-08-03T07:52:35Z</time>
      </trkpt>
      <trkpt lat="47.31759" lon="6.01208">
        <ele>305</ele>
        <time>2024-08-03T07:52:36Z</time>
      </trkpt>
      <trkpt lat="47.31767" lon="6.01211">
        <ele>304.2</ele>
        <time>2024-08-03T07:52:37Z</time>
      </trkpt>
      <trkpt lat="47.31774" lon="6.01214">
        <ele>303.8</ele>
        <time>2024-08-03T07:52:38Z</time>
      </trkpt>
      <trkpt lat="47.31781" lon="6.01218">
        <ele>303</ele>
        <time>2024-08-03T07:52:39Z</time>
      </trkpt>
      <trkpt lat="47.3179" lon="6.01222">
        <ele>302.2</ele>
        <time>2024-08-03T07:52:40Z</time>
      </trkpt>
      <trkpt lat="47.31797" lon="6.01227">
        <ele>301.6</ele>
        <time>2024-08-03T07:52:41Z</time>
      </trkpt>
      <trkpt lat="47.31805" lon="6.01231">
        <ele>300.6</ele>
        <time>2024-08-03T07:52:42Z</time>
      </trkpt>
      <trkpt lat="47.31812" lon="6.01236">
        <ele>299.6</ele>
        <time>2024-08-03T07:52:43Z</time>
      </trkpt>
      <trkpt lat="47.31819" lon="6.01241">
        <ele>298.8</ele>
        <time>2024-08-03T07:52:44Z</time>
      </trkpt>
      <trkpt lat="47.31825" lon="6.01246">
        <ele>297.8</ele>
        <time>2024-08-03T07:52:45Z</time>
      </trkpt>
      <trkpt lat="47.31831" lon="6.01251">
        <ele>296.6</ele>
        <time>2024-08-03T07:52:46Z</time>
      </trkpt>
      <trkpt lat="47.31837" lon="6.01256">
        <ele>295.8</ele>
        <time>2024-08-03T07:52:47Z</time>
      </trkpt>
      <trkpt lat="47.31845" lon="6.01262">
        <ele>294.8</ele>
        <time>2024-08-03T07:52:48Z</time>
      </trkpt>
      <trkpt lat="47.31853" lon="6.01266">
        <ele>293.8</ele>
        <time>2024-08-03T07:52:49Z</time>
      </trkpt>
      <trkpt lat="47.31861" lon="6.01269">
        <ele>293</ele>
        <time>2024-08-03T07:52:50Z</time>
      </trkpt>
      <trkpt lat="47.31869" lon="6.01272">
        <ele>292.4</ele>
        <time>2024-08-03T07:52:51Z</time>
      </trkpt>
      <trkpt lat="47.31875" lon="6.01274">
        <ele>292.4</ele>
        <time>2024-08-03T07:52:52Z</time>
      </trkpt>
      <trkpt lat="47.31882" lon="6.01276">
        <ele>291.6</ele>
        <time>2024-08-03T07:52:53Z</time>
      </trkpt>
      <trkpt lat="47.31891" lon="6.01278">
        <ele>291.4</ele>
        <time>2024-08-03T07:52:54Z</time>
      </trkpt>
      <trkpt lat="47.31902" lon="6.01281">
        <ele>290.6</ele>
        <time>2024-08-03T07:52:55Z</time>
      </trkpt>
      <trkpt lat="47.31913" lon="6.01284">
        <ele>290.4</ele>
        <time>2024-08-03T07:52:56Z</time>
      </trkpt>
      <trkpt lat="47.31921" lon="6.01285">
        <ele>290.2</ele>
        <time>2024-08-03T07:52:57Z</time>
      </trkpt>
      <trkpt lat="47.31928" lon="6.01285">
        <ele>289.8</ele>
        <time>2024-08-03T07:52:58Z</time>
      </trkpt>
      <trkpt lat="47.31935" lon="6.01285">
        <ele>289.2</ele>
        <time>2024-08-03T07:52:59Z</time>
      </trkpt>
      <trkpt lat="47.31942" lon="6.01285">
        <ele>289.2</ele>
        <time>2024-08-03T07:53:00Z</time>
      </trkpt>
      <trkpt lat="47.31948" lon="6.01285">
        <ele>288.8</ele>
        <time>2024-08-03T07:53:01Z</time>
      </trkpt>
      <trkpt lat="47.31953" lon="6.01284">
        <ele>288.4</ele>
        <time>2024-08-03T07:53:02Z</time>
      </trkpt>
      <trkpt lat="47.31957" lon="6.01283">
        <ele>288.2</ele>
        <time>2024-08-03T07:53:03Z</time>
      </trkpt>
      <trkpt lat="47.31961" lon="6.01282">
        <ele>288</ele>
        <time>2024-08-03T07:53:04Z</time>
      </trkpt>
      <trkpt lat="47.31964" lon="6.01281">
        <ele>288</ele>
        <time>2024-08-03T07:53:05Z</time>
      </trkpt>
      <trkpt lat="47.31968" lon="6.01279">
        <ele>287.8</ele>
        <time>2024-08-03T07:53:06Z</time>
      </trkpt>
      <trkpt lat="47.31974" lon="6.01278">
        <ele>288</ele>
        <time>2024-08-03T07:53:07Z</time>
      </trkpt>
      <trkpt lat="47.31978" lon="6.01278">
        <ele>287.8</ele>
        <time>2024-08-03T07:53:08Z</time>
      </trkpt>
      <trkpt lat="47.31982" lon="6.01277">
        <ele>287.8</ele>
        <time>2024-08-03T07:53:09Z</time>
      </trkpt>
      <trkpt lat="47.31985" lon="6.01276">
        <ele>287.8</ele>
        <time>2024-08-03T07:53:10Z</time>
      </trkpt>
      <trkpt lat="47.31987" lon="6.01275">
        <ele>287.8</ele>
        <time>2024-08-03T07:53:11Z</time>
      </trkpt>
      <trkpt lat="47.31989" lon="6.01274">
        <ele>287.8</ele>
        <time>2024-08-03T07:53:12Z</time>
      </trkpt>
      <trkpt lat="47.31991" lon="6.01273">
        <ele>287.8</ele>
        <time>2024-08-03T07:53:13Z</time>
      </trkpt>
      <trkpt lat="47.31994" lon="6.01272">
        <ele>287.8</ele>
        <time>2024-08-03T07:53:14Z</time>
      </trkpt>
      <trkpt lat="47.31999" lon="6.01272">
        <ele>287.8</ele>
        <time>2024-08-03T07:53:15Z</time>
      </trkpt>
      <trkpt lat="47.32003" lon="6.01273">
        <ele>287.6</ele>
        <time>2024-08-03T07:53:16Z</time>
      </trkpt>
      <trkpt lat="47.32008" lon="6.01274">
        <ele>287.6</ele>
        <time>2024-08-03T07:53:17Z</time>
      </trkpt>
      <trkpt lat="47.32012" lon="6.01275">
        <ele>287.8</ele>
        <time>2024-08-03T07:53:18Z</time>
      </trkpt>
      <trkpt lat="47.32019" lon="6.01278">
        <ele>287.8</ele>
        <time>2024-08-03T07:53:19Z</time>
      </trkpt>
      <trkpt lat="47.32023" lon="6.01281">
        <ele>287.8</ele>
        <time>2024-08-03T07:53:20Z</time>
      </trkpt>
      <trkpt lat="47.32028" lon="6.01284">
        <ele>287.6</ele>
        <time>2024-08-03T07:53:21Z</time>
      </trkpt>
      <trkpt lat="47.32031" lon="6.01288">
        <ele>287.6</ele>
        <time>2024-08-03T07:53:22Z</time>
      </trkpt>
      <trkpt lat="47.32035" lon="6.01292">
        <ele>287.8</ele>
        <time>2024-08-03T07:53:23Z</time>
      </trkpt>
      <trkpt lat="47.32038" lon="6.01295">
        <ele>287.6</ele>
        <time>2024-08-03T07:53:24Z</time>
      </trkpt>
      <trkpt lat="47.32041" lon="6.01298">
        <ele>287.6</ele>
        <time>2024-08-03T07:53:25Z</time>
      </trkpt>
      <trkpt lat="47.32045" lon="6.01301">
        <ele>287.6</ele>
        <time>2024-08-03T07:53:26Z</time>
      </trkpt>
      <trkpt lat="47.32049" lon="6.01305">
        <ele>287.8</ele>
        <time>2024-08-03T07:53:27Z</time>
      </trkpt>
      <trkpt lat="47.32053" lon="6.01308">
        <ele>287.6</ele>
        <time>2024-08-03T07:53:28Z</time>
      </trkpt>
      <trkpt lat="47.32056" lon="6.01311">
        <ele>287.6</ele>
        <time>2024-08-03T07:53:29Z</time>
      </trkpt>
      <trkpt lat="47.3206" lon="6.01314">
        <ele>287.6</ele>
        <time>2024-08-03T07:53:30Z</time>
      </trkpt>
      <trkpt lat="47.32063" lon="6.01317">
        <ele>287.6</ele>
        <time>2024-08-03T07:53:31Z</time>
      </trkpt>
      <trkpt lat="47.32066" lon="6.0132">
        <ele>287.4</ele>
        <time>2024-08-03T07:53:32Z</time>
      </trkpt>
      <trkpt lat="47.32067" lon="6.01322">
        <ele>287.4</ele>
        <time>2024-08-03T07:53:33Z</time>
      </trkpt>
      <trkpt lat="47.32069" lon="6.01325">
        <ele>287.4</ele>
        <time>2024-08-03T07:53:34Z</time>
      </trkpt>
      <trkpt lat="47.3207" lon="6.01328">
        <ele>287.2</ele>
        <time>2024-08-03T07:53:35Z</time>
      </trkpt>
      <trkpt lat="47.32071" lon="6.01331">
        <ele>287.2</ele>
        <time>2024-08-03T07:53:36Z</time>
      </trkpt>
      <trkpt lat="47.32072" lon="6.01335">
        <ele>287</ele>
        <time>2024-08-03T07:53:37Z</time>
      </trkpt>
      <trkpt lat="47.32073" lon="6.0134">
        <ele>286.8</ele>
        <time>2024-08-03T07:53:38Z</time>
      </trkpt>
      <trkpt lat="47.32072" lon="6.01345">
        <ele>286.6</ele>
        <time>2024-08-03T07:53:39Z</time>
      </trkpt>
      <trkpt lat="47.32072" lon="6.0135">
        <ele>286.6</ele>
        <time>2024-08-03T07:53:40Z</time>
      </trkpt>
      <trkpt lat="47.32071" lon="6.01354">
        <ele>286.6</ele>
        <time>2024-08-03T07:53:41Z</time>
      </trkpt>
      <trkpt lat="47.32071" lon="6.01359">
        <ele>286.6</ele>
        <time>2024-08-03T07:53:42Z</time>
      </trkpt>
      <trkpt lat="47.32071" lon="6.01363">
        <ele>286.4</ele>
        <time>2024-08-03T07:53:43Z</time>
      </trkpt>
      <trkpt lat="47.32071" lon="6.01367">
        <ele>286.4</ele>
        <time>2024-08-03T07:53:44Z</time>
      </trkpt>
      <trkpt lat="47.3207" lon="6.0137">
        <ele>286.4</ele>
        <time>2024-08-03T07:53:45Z</time>
      </trkpt>
      <trkpt lat="47.32071" lon="6.01374">
        <ele>286.4</ele>
        <time>2024-08-03T07:53:46Z</time>
      </trkpt>
      <trkpt lat="47.32073" lon="6.01379">
        <ele>286.2</ele>
        <time>2024-08-03T07:53:47Z</time>
      </trkpt>
      <trkpt lat="47.32075" lon="6.01384">
        <ele>286.2</ele>
        <time>2024-08-03T07:53:48Z</time>
      </trkpt>
      <trkpt lat="47.32078" lon="6.0139">
        <ele>286</ele>
        <time>2024-08-03T07:53:49Z</time>
      </trkpt>
      <trkpt lat="47.3208" lon="6.01396">
        <ele>286</ele>
        <time>2024-08-03T07:53:50Z</time>
      </trkpt>
      <trkpt lat="47.32083" lon="6.01403">
        <ele>286</ele>
        <time>2024-08-03T07:53:51Z</time>
      </trkpt>
      <trkpt lat="47.32085" lon="6.01411">
        <ele>286</ele>
        <time>2024-08-03T07:53:52Z</time>
      </trkpt>
      <trkpt lat="47.32088" lon="6.01418">
        <ele>286</ele>
        <time>2024-08-03T07:53:53Z</time>
      </trkpt>
      <trkpt lat="47.32089" lon="6.01425">
        <ele>285.8</ele>
        <time>2024-08-03T07:53:54Z</time>
      </trkpt>
      <trkpt lat="47.32091" lon="6.01432">
        <ele>286</ele>
        <time>2024-08-03T07:53:55Z</time>
      </trkpt>
      <trkpt lat="47.32093" lon="6.0144">
        <ele>286</ele>
        <time>2024-08-03T07:53:56Z</time>
      </trkpt>
      <trkpt lat="47.32094" lon="6.01447">
        <ele>286</ele>
        <time>2024-08-03T07:53:57Z</time>
      </trkpt>
      <trkpt lat="47.32095" lon="6.01454">
        <ele>285.6</ele>
        <time>2024-08-03T07:53:58Z</time>
      </trkpt>
      <trkpt lat="47.32096" lon="6.0146">
        <ele>285.4</ele>
        <time>2024-08-03T07:53:59Z</time>
      </trkpt>
      <trkpt lat="47.32096" lon="6.01467">
        <ele>285.4</ele>
        <time>2024-08-03T07:54:00Z</time>
      </trkpt>
      <trkpt lat="47.32097" lon="6.01473">
        <ele>285</ele>
        <time>2024-08-03T07:54:01Z</time>
      </trkpt>
      <trkpt lat="47.32099" lon="6.01479">
        <ele>285</ele>
        <time>2024-08-03T07:54:02Z</time>
      </trkpt>
      <trkpt lat="47.321" lon="6.01485">
        <ele>285</ele>
        <time>2024-08-03T07:54:03Z</time>
      </trkpt>
      <trkpt lat="47.32101" lon="6.0149">
        <ele>284.6</ele>
        <time>2024-08-03T07:54:04Z</time>
      </trkpt>
      <trkpt lat="47.32104" lon="6.01497">
        <ele>284.6</ele>
        <time>2024-08-03T07:54:05Z</time>
      </trkpt>
      <trkpt lat="47.32105" lon="6.01504">
        <ele>284.2</ele>
        <time>2024-08-03T07:54:06Z</time>
      </trkpt>
      <trkpt lat="47.32107" lon="6.0151">
        <ele>284.4</ele>
        <time>2024-08-03T07:54:07Z</time>
      </trkpt>
      <trkpt lat="47.32108" lon="6.01517">
        <ele>284.2</ele>
        <time>2024-08-03T07:54:08Z</time>
      </trkpt>
      <trkpt lat="47.32109" lon="6.01523">
        <ele>284.2</ele>
        <time>2024-08-03T07:54:09Z</time>
      </trkpt>
      <trkpt lat="47.32111" lon="6.0153">
        <ele>283.6</ele>
        <time>2024-08-03T07:54:10Z</time>
      </trkpt>
      <trkpt lat="47.32113" lon="6.01537">
        <ele>283.8</ele>
        <time>2024-08-03T07:54:11Z</time>
      </trkpt>
      <trkpt lat="47.32114" lon="6.01542">
        <ele>283.4</ele>
        <time>2024-08-03T07:54:12Z</time>
      </trkpt>
      <trkpt lat="47.32115" lon="6.01547">
        <ele>283.4</ele>
        <time>2024-08-03T07:54:13Z</time>
      </trkpt>
      <trkpt lat="47.32115" lon="6.01552">
        <ele>283.2</ele>
        <time>2024-08-03T07:54:14Z</time>
      </trkpt>
      <trkpt lat="47.32116" lon="6.01558">
        <ele>283.2</ele>
        <time>2024-08-03T07:54:15Z</time>
      </trkpt>
      <trkpt lat="47.32116" lon="6.01563">
        <ele>283</ele>
        <time>2024-08-03T07:54:16Z</time>
      </trkpt>
      <trkpt lat="47.32116" lon="6.01568">
        <ele>283</ele>
        <time>2024-08-03T07:54:17Z</time>
      </trkpt>
      <trkpt lat="47.32118" lon="6.01574">
        <ele>282.8</ele>
        <time>2024-08-03T07:54:18Z</time>
      </trkpt>
      <trkpt lat="47.3212" lon="6.0158">
        <ele>282.8</ele>
        <time>2024-08-03T07:54:19Z</time>
      </trkpt>
      <trkpt lat="47.32124" lon="6.01586">
        <ele>282.6</ele>
        <time>2024-08-03T07:54:20Z</time>
      </trkpt>
      <trkpt lat="47.32128" lon="6.01593">
        <ele>282.6</ele>
        <time>2024-08-03T07:54:21Z</time>
      </trkpt>
      <trkpt lat="47.32132" lon="6.01598">
        <ele>282.8</ele>
        <time>2024-08-03T07:54:22Z</time>
      </trkpt>
      <trkpt lat="47.32136" lon="6.01605">
        <ele>282.6</ele>
        <time>2024-08-03T07:54:23Z</time>
      </trkpt>
      <trkpt lat="47.32139" lon="6.0161">
        <ele>282.6</ele>
        <time>2024-08-03T07:54:24Z</time>
      </trkpt>
      <trkpt lat="47.32142" lon="6.01616">
        <ele>282.4</ele>
        <time>2024-08-03T07:54:25Z</time>
      </trkpt>
      <trkpt lat="47.32146" lon="6.01621">
        <ele>282.2</ele>
        <time>2024-08-03T07:54:26Z</time>
      </trkpt>
      <trkpt lat="47.32149" lon="6.01625">
        <ele>281.8</ele>
        <time>2024-08-03T07:54:27Z</time>
      </trkpt>
      <trkpt lat="47.32151" lon="6.01627">
        <ele>281.6</ele>
        <time>2024-08-03T07:54:28Z</time>
      </trkpt>
      <trkpt lat="47.32154" lon="6.0163">
        <ele>281.2</ele>
        <time>2024-08-03T07:54:29Z</time>
      </trkpt>
      <trkpt lat="47.32158" lon="6.01632">
        <ele>280.8</ele>
        <time>2024-08-03T07:54:30Z</time>
      </trkpt>
      <trkpt lat="47.3216" lon="6.01633">
        <ele>280.2</ele>
        <time>2024-08-03T07:54:31Z</time>
      </trkpt>
      <trkpt lat="47.32161" lon="6.01634">
        <ele>279.8</ele>
        <time>2024-08-03T07:54:32Z</time>
      </trkpt>
      <trkpt lat="47.32162" lon="6.01634">
        <ele>279.6</ele>
        <time>2024-08-03T07:54:33Z</time>
      </trkpt>
      <trkpt lat="47.32164" lon="6.01635">
        <ele>279.4</ele>
        <time>2024-08-03T07:54:34Z</time>
      </trkpt>
      <trkpt lat="47.32166" lon="6.01636">
        <ele>279.2</ele>
        <time>2024-08-03T07:54:35Z</time>
      </trkpt>
      <trkpt lat="47.32166" lon="6.01636">
        <ele>279</ele>
        <time>2024-08-03T07:54:36Z</time>
      </trkpt>
      <trkpt lat="47.32167" lon="6.01636">
        <ele>278.6</ele>
        <time>2024-08-03T07:54:37Z</time>
      </trkpt>
      <trkpt lat="47.32167" lon="6.01635">
        <ele>278.2</ele>
        <time>2024-08-03T07:54:38Z</time>
      </trkpt>
      <trkpt lat="47.32169" lon="6.01634">
        <ele>278.2</ele>
        <time>2024-08-03T07:54:39Z</time>
      </trkpt>
      <trkpt lat="47.3217" lon="6.01632">
        <ele>278</ele>
        <time>2024-08-03T07:54:40Z</time>
      </trkpt>
      <trkpt lat="47.32171" lon="6.01631">
        <ele>278</ele>
        <time>2024-08-03T07:54:41Z</time>
      </trkpt>
      <trkpt lat="47.32171" lon="6.01629">
        <ele>278</ele>
        <time>2024-08-03T07:54:42Z</time>
      </trkpt>
      <trkpt lat="47.32173" lon="6.01627">
        <ele>278</ele>
        <time>2024-08-03T07:54:43Z</time>
      </trkpt>
      <trkpt lat="47.32175" lon="6.01626">
        <ele>278</ele>
        <time>2024-08-03T07:54:44Z</time>
      </trkpt>
      <trkpt lat="47.32178" lon="6.01625">
        <ele>277.8</ele>
        <time>2024-08-03T07:54:45Z</time>
      </trkpt>
      <trkpt lat="47.32184" lon="6.01624">
        <ele>277.8</ele>
        <time>2024-08-03T07:54:46Z</time>
      </trkpt>
      <trkpt lat="47.3219" lon="6.01623">
        <ele>277.8</ele>
        <time>2024-08-03T07:54:47Z</time>
      </trkpt>
      <trkpt lat="47.32197" lon="6.01622">
        <ele>277.6</ele>
        <time>2024-08-03T07:54:48Z</time>
      </trkpt>
      <trkpt lat="47.32204" lon="6.01621">
        <ele>277.4</ele>
        <time>2024-08-03T07:54:49Z</time>
      </trkpt>
      <trkpt lat="47.32211" lon="6.01618">
        <ele>277.2</ele>
        <time>2024-08-03T07:54:50Z</time>
      </trkpt>
      <trkpt lat="47.3222" lon="6.01617">
        <ele>277</ele>
        <time>2024-08-03T07:54:51Z</time>
      </trkpt>
      <trkpt lat="47.32228" lon="6.01617">
        <ele>276.8</ele>
        <time>2024-08-03T07:54:52Z</time>
      </trkpt>
      <trkpt lat="47.32236" lon="6.01617">
        <ele>276.4</ele>
        <time>2024-08-03T07:54:53Z</time>
      </trkpt>
      <trkpt lat="47.32244" lon="6.01618">
        <ele>275.6</ele>
        <time>2024-08-03T07:54:54Z</time>
      </trkpt>
      <trkpt lat="47.32253" lon="6.01617">
        <ele>275</ele>
        <time>2024-08-03T07:54:55Z</time>
      </trkpt>
      <trkpt lat="47.3226" lon="6.01616">
        <ele>273.8</ele>
        <time>2024-08-03T07:54:56Z</time>
      </trkpt>
      <trkpt lat="47.32267" lon="6.01615">
        <ele>272.8</ele>
        <time>2024-08-03T07:54:57Z</time>
      </trkpt>
      <trkpt lat="47.32273" lon="6.01616">
        <ele>271.8</ele>
        <time>2024-08-03T07:54:58Z</time>
      </trkpt>
      <trkpt lat="47.32278" lon="6.01615">
        <ele>270.6</ele>
        <time>2024-08-03T07:54:59Z</time>
      </trkpt>
      <trkpt lat="47.32283" lon="6.01615">
        <ele>269.8</ele>
        <time>2024-08-03T07:55:00Z</time>
      </trkpt>
      <trkpt lat="47.32288" lon="6.01616">
        <ele>268.8</ele>
        <time>2024-08-03T07:55:01Z</time>
      </trkpt>
      <trkpt lat="47.32294" lon="6.01617">
        <ele>267.8</ele>
        <time>2024-08-03T07:55:02Z</time>
      </trkpt>
      <trkpt lat="47.323" lon="6.01618">
        <ele>267.8</ele>
        <time>2024-08-03T07:55:03Z</time>
      </trkpt>
      <trkpt lat="47.32305" lon="6.01619">
        <ele>267.2</ele>
        <time>2024-08-03T07:55:04Z</time>
      </trkpt>
      <trkpt lat="47.3231" lon="6.01621">
        <ele>266.2</ele>
        <time>2024-08-03T07:55:05Z</time>
      </trkpt>
      <trkpt lat="47.32313" lon="6.01622">
        <ele>265.4</ele>
        <time>2024-08-03T07:55:06Z</time>
      </trkpt>
      <trkpt lat="47.32317" lon="6.01624">
        <ele>264.8</ele>
        <time>2024-08-03T07:55:07Z</time>
      </trkpt>
      <trkpt lat="47.3232" lon="6.01626">
        <ele>263.8</ele>
        <time>2024-08-03T07:55:08Z</time>
      </trkpt>
      <trkpt lat="47.32323" lon="6.01629">
        <ele>263.2</ele>
        <time>2024-08-03T07:55:09Z</time>
      </trkpt>
      <trkpt lat="47.32327" lon="6.01633">
        <ele>262.4</ele>
        <time>2024-08-03T07:55:10Z</time>
      </trkpt>
      <trkpt lat="47.3233" lon="6.01637">
        <ele>261.6</ele>
        <time>2024-08-03T07:55:11Z</time>
      </trkpt>
      <trkpt lat="47.32333" lon="6.0164">
        <ele>260.6</ele>
        <time>2024-08-03T07:55:12Z</time>
      </trkpt>
      <trkpt lat="47.32336" lon="6.01643">
        <ele>260</ele>
        <time>2024-08-03T07:55:13Z</time>
      </trkpt>
      <trkpt lat="47.3234" lon="6.01646">
        <ele>259.2</ele>
        <time>2024-08-03T07:55:14Z</time>
      </trkpt>
      <trkpt lat="47.32344" lon="6.01648">
        <ele>258.4</ele>
        <time>2024-08-03T07:55:15Z</time>
      </trkpt>
      <trkpt lat="47.32349" lon="6.01651">
        <ele>257.6</ele>
        <time>2024-08-03T07:55:16Z</time>
      </trkpt>
      <trkpt lat="47.32354" lon="6.01652">
        <ele>257.2</ele>
        <time>2024-08-03T07:55:17Z</time>
      </trkpt>
      <trkpt lat="47.32359" lon="6.01654">
        <ele>256.2</ele>
        <time>2024-08-03T07:55:18Z</time>
      </trkpt>
      <trkpt lat="47.32362" lon="6.01655">
        <ele>255.4</ele>
        <time>2024-08-03T07:55:19Z</time>
      </trkpt>
      <trkpt lat="47.32365" lon="6.01658">
        <ele>254.8</ele>
        <time>2024-08-03T07:55:20Z</time>
      </trkpt>
      <trkpt lat="47.32368" lon="6.01661">
        <ele>254</ele>
        <time>2024-08-03T07:55:21Z</time>
      </trkpt>
      <trkpt lat="47.32371" lon="6.01665">
        <ele>253.4</ele>
        <time>2024-08-03T07:55:22Z</time>
      </trkpt>
      <trkpt lat="47.32375" lon="6.01669">
        <ele>252.8</ele>
        <time>2024-08-03T07:55:23Z</time>
      </trkpt>
      <trkpt lat="47.32377" lon="6.01674">
        <ele>252.2</ele>
        <time>2024-08-03T07:55:24Z</time>
      </trkpt>
      <trkpt lat="47.3238" lon="6.01678">
        <ele>252.2</ele>
        <time>2024-08-03T07:55:25Z</time>
      </trkpt>
      <trkpt lat="47.32382" lon="6.01682">
        <ele>251.8</ele>
        <time>2024-08-03T07:55:26Z</time>
      </trkpt>
      <trkpt lat="47.32384" lon="6.01687">
        <ele>251.4</ele>
        <time>2024-08-03T07:55:27Z</time>
      </trkpt>
      <trkpt lat="47.32386" lon="6.01692">
        <ele>251.2</ele>
        <time>2024-08-03T07:55:28Z</time>
      </trkpt>
      <trkpt lat="47.32388" lon="6.01697">
        <ele>250.8</ele>
        <time>2024-08-03T07:55:29Z</time>
      </trkpt>
      <trkpt lat="47.3239" lon="6.01703">
        <ele>250.6</ele>
        <time>2024-08-03T07:55:30Z</time>
      </trkpt>
      <trkpt lat="47.32392" lon="6.01707">
        <ele>250.6</ele>
        <time>2024-08-03T07:55:31Z</time>
      </trkpt>
      <trkpt lat="47.32395" lon="6.01712">
        <ele>250.4</ele>
        <time>2024-08-03T07:55:32Z</time>
      </trkpt>
      <trkpt lat="47.32398" lon="6.01717">
        <ele>250.4</ele>
        <time>2024-08-03T07:55:33Z</time>
      </trkpt>
      <trkpt lat="47.32402" lon="6.01721">
        <ele>250.2</ele>
        <time>2024-08-03T07:55:34Z</time>
      </trkpt>
      <trkpt lat="47.32405" lon="6.01724">
        <ele>250</ele>
        <time>2024-08-03T07:55:35Z</time>
      </trkpt>
      <trkpt lat="47.32409" lon="6.01726">
        <ele>250</ele>
        <time>2024-08-03T07:55:36Z</time>
      </trkpt>
      <trkpt lat="47.32414" lon="6.01727">
        <ele>250</ele>
        <time>2024-08-03T07:55:37Z</time>
      </trkpt>
      <trkpt lat="47.32417" lon="6.01727">
        <ele>249.8</ele>
        <time>2024-08-03T07:55:38Z</time>
      </trkpt>
      <trkpt lat="47.3242" lon="6.01727">
        <ele>250</ele>
        <time>2024-08-03T07:55:39Z</time>
      </trkpt>
      <trkpt lat="47.32421" lon="6.01725">
        <ele>249.6</ele>
        <time>2024-08-03T07:55:40Z</time>
      </trkpt>
      <trkpt lat="47.32422" lon="6.01722">
        <ele>249.8</ele>
        <time>2024-08-03T07:55:41Z</time>
      </trkpt>
      <trkpt lat="47.32423" lon="6.01718">
        <ele>249.8</ele>
        <time>2024-08-03T07:55:42Z</time>
      </trkpt>
      <trkpt lat="47.32423" lon="6.01713">
        <ele>249.8</ele>
        <time>2024-08-03T07:55:43Z</time>
      </trkpt>
      <trkpt lat="47.32423" lon="6.01708">
        <ele>249.8</ele>
        <time>2024-08-03T07:55:44Z</time>
      </trkpt>
      <trkpt lat="47.32421" lon="6.01701">
        <ele>249.8</ele>
        <time>2024-08-03T07:55:45Z</time>
      </trkpt>
      <trkpt lat="47.32419" lon="6.01695">
        <ele>249.8</ele>
        <time>2024-08-03T07:55:46Z</time>
      </trkpt>
      <trkpt lat="47.32417" lon="6.01689">
        <ele>249.8</ele>
        <time>2024-08-03T07:55:47Z</time>
      </trkpt>
      <trkpt lat="47.32415" lon="6.01684">
        <ele>249.8</ele>
        <time>2024-08-03T07:55:48Z</time>
      </trkpt>
      <trkpt lat="47.32414" lon="6.01678">
        <ele>249.8</ele>
        <time>2024-08-03T07:55:49Z</time>
      </trkpt>
      <trkpt lat="47.32412" lon="6.01673">
        <ele>249.6</ele>
        <time>2024-08-03T07:55:50Z</time>
      </trkpt>
      <trkpt lat="47.3241" lon="6.01668">
        <ele>249.8</ele>
        <time>2024-08-03T07:55:51Z</time>
      </trkpt>
      <trkpt lat="47.32408" lon="6.01663">
        <ele>249.8</ele>
        <time>2024-08-03T07:55:52Z</time>
      </trkpt>
      <trkpt lat="47.32406" lon="6.01657">
        <ele>250</ele>
        <time>2024-08-03T07:55:53Z</time>
      </trkpt>
      <trkpt lat="47.32404" lon="6.01653">
        <ele>250</ele>
        <time>2024-08-03T07:55:54Z</time>
      </trkpt>
      <trkpt lat="47.32403" lon="6.01648">
        <ele>250.2</ele>
        <time>2024-08-03T07:55:55Z</time>
      </trkpt>
      <trkpt lat="47.32401" lon="6.01643">
        <ele>250.2</ele>
        <time>2024-08-03T07:55:56Z</time>
      </trkpt>
      <trkpt lat="47.32399" lon="6.01638">
        <ele>250.2</ele>
        <time>2024-08-03T07:55:57Z</time>
      </trkpt>
      <trkpt lat="47.32399" lon="6.01632">
        <ele>250.2</ele>
        <time>2024-08-03T07:55:58Z</time>
      </trkpt>
      <trkpt lat="47.32399" lon="6.01628">
        <ele>250.6</ele>
        <time>2024-08-03T07:55:59Z</time>
      </trkpt>
      <trkpt lat="47.32399" lon="6.01623">
        <ele>250.8</ele>
        <time>2024-08-03T07:56:00Z</time>
      </trkpt>
      <trkpt lat="47.32399" lon="6.01619">
        <ele>251</ele>
        <time>2024-08-03T07:56:01Z</time>
      </trkpt>
      <trkpt lat="47.32398" lon="6.01615">
        <ele>251.2</ele>
        <time>2024-08-03T07:56:02Z</time>
      </trkpt>
      <trkpt lat="47.32397" lon="6.0161">
        <ele>251.2</ele>
        <time>2024-08-03T07:56:03Z</time>
      </trkpt>
      <trkpt lat="47.32396" lon="6.01606">
        <ele>251.4</ele>
        <time>2024-08-03T07:56:04Z</time>
      </trkpt>
      <trkpt lat="47.32395" lon="6.01602">
        <ele>251.4</ele>
        <time>2024-08-03T07:56:05Z</time>
      </trkpt>
      <trkpt lat="47.32394" lon="6.01599">
        <ele>251.6</ele>
        <time>2024-08-03T07:56:06Z</time>
      </trkpt>
      <trkpt lat="47.32392" lon="6.01596">
        <ele>251.8</ele>
        <time>2024-08-03T07:56:07Z</time>
      </trkpt>
      <trkpt lat="47.32392" lon="6.01593">
        <ele>252</ele>
        <time>2024-08-03T07:56:08Z</time>
      </trkpt>
      <trkpt lat="47.32392" lon="6.01591">
        <ele>252</ele>
        <time>2024-08-03T07:56:09Z</time>
      </trkpt>
      <trkpt lat="47.32393" lon="6.01589">
        <ele>252</ele>
        <time>2024-08-03T07:56:10Z</time>
      </trkpt>
      <trkpt lat="47.32393" lon="6.01587">
        <ele>252.2</ele>
        <time>2024-08-03T07:56:11Z</time>
      </trkpt>
      <trkpt lat="47.32394" lon="6.01585">
        <ele>252.4</ele>
        <time>2024-08-03T07:56:12Z</time>
      </trkpt>
      <trkpt lat="47.32397" lon="6.01581">
        <ele>252.6</ele>
        <time>2024-08-03T07:56:13Z</time>
      </trkpt>
      <trkpt lat="47.32397" lon="6.01577">
        <ele>252.8</ele>
        <time>2024-08-03T07:56:14Z</time>
      </trkpt>
      <trkpt lat="47.32401" lon="6.01573">
        <ele>252.8</ele>
        <time>2024-08-03T07:56:15Z</time>
      </trkpt>
      <trkpt lat="47.32403" lon="6.01569">
        <ele>253</ele>
        <time>2024-08-03T07:56:16Z</time>
      </trkpt>
      <trkpt lat="47.32407" lon="6.01565">
        <ele>253</ele>
        <time>2024-08-03T07:56:17Z</time>
      </trkpt>
      <trkpt lat="47.32411" lon="6.01561">
        <ele>253.2</ele>
        <time>2024-08-03T07:56:18Z</time>
      </trkpt>
      <trkpt lat="47.32415" lon="6.01559">
        <ele>253.2</ele>
        <time>2024-08-03T07:56:19Z</time>
      </trkpt>
      <trkpt lat="47.32417" lon="6.01556">
        <ele>253.2</ele>
        <time>2024-08-03T07:56:20Z</time>
      </trkpt>
      <trkpt lat="47.3242" lon="6.01555">
        <ele>253.4</ele>
        <time>2024-08-03T07:56:21Z</time>
      </trkpt>
      <trkpt lat="47.32423" lon="6.01553">
        <ele>253.2</ele>
        <time>2024-08-03T07:56:22Z</time>
      </trkpt>
      <trkpt lat="47.3243" lon="6.01551">
        <ele>253.2</ele>
        <time>2024-08-03T07:56:23Z</time>
      </trkpt>
      <trkpt lat="47.32436" lon="6.01549">
        <ele>253.2</ele>
        <time>2024-08-03T07:56:24Z</time>
      </trkpt>
      <trkpt lat="47.32442" lon="6.01547">
        <ele>253.2</ele>
        <time>2024-08-03T07:56:25Z</time>
      </trkpt>
      <trkpt lat="47.32447" lon="6.01544">
        <ele>253.2</ele>
        <time>2024-08-03T07:56:26Z</time>
      </trkpt>
      <trkpt lat="47.32452" lon="6.01542">
        <ele>253.2</ele>
        <time>2024-08-03T07:56:27Z</time>
      </trkpt>
      <trkpt lat="47.32456" lon="6.01539">
        <ele>253.4</ele>
        <time>2024-08-03T07:56:28Z</time>
      </trkpt>
      <trkpt lat="47.3246" lon="6.01535">
        <ele>253.2</ele>
        <time>2024-08-03T07:56:29Z</time>
      </trkpt>
      <trkpt lat="47.32463" lon="6.01531">
        <ele>253</ele>
        <time>2024-08-03T07:56:30Z</time>
      </trkpt>
      <trkpt lat="47.32467" lon="6.01526">
        <ele>253</ele>
        <time>2024-08-03T07:56:31Z</time>
      </trkpt>
      <trkpt lat="47.32471" lon="6.01521">
        <ele>253</ele>
        <time>2024-08-03T07:56:32Z</time>
      </trkpt>
      <trkpt lat="47.32474" lon="6.01515">
        <ele>253</ele>
        <time>2024-08-03T07:56:33Z</time>
      </trkpt>
      <trkpt lat="47.32478" lon="6.0151">
        <ele>252.8</ele>
        <time>2024-08-03T07:56:34Z</time>
      </trkpt>
      <trkpt lat="47.32481" lon="6.01504">
        <ele>252.8</ele>
        <time>2024-08-03T07:56:35Z</time>
      </trkpt>
      <trkpt lat="47.32485" lon="6.01498">
        <ele>252.8</ele>
        <time>2024-08-03T07:56:36Z</time>
      </trkpt>
      <trkpt lat="47.32489" lon="6.01493">
        <ele>252.4</ele>
        <time>2024-08-03T07:56:37Z</time>
      </trkpt>
      <trkpt lat="47.32493" lon="6.01488">
        <ele>252.6</ele>
        <time>2024-08-03T07:56:38Z</time>
      </trkpt>
      <trkpt lat="47.32497" lon="6.01482">
        <ele>252.2</ele>
        <time>2024-08-03T07:56:39Z</time>
      </trkpt>
      <trkpt lat="47.32501" lon="6.01475">
        <ele>252.2</ele>
        <time>2024-08-03T07:56:40Z</time>
      </trkpt>
      <trkpt lat="47.32504" lon="6.01469">
        <ele>252</ele>
        <time>2024-08-03T07:56:41Z</time>
      </trkpt>
      <trkpt lat="47.32507" lon="6.01463">
        <ele>251.8</ele>
        <time>2024-08-03T07:56:42Z</time>
      </trkpt>
      <trkpt lat="47.32511" lon="6.01457">
        <ele>251.6</ele>
        <time>2024-08-03T07:56:43Z</time>
      </trkpt>
      <trkpt lat="47.32514" lon="6.01452">
        <ele>251.4</ele>
        <time>2024-08-03T07:56:44Z</time>
      </trkpt>
      <trkpt lat="47.32516" lon="6.01448">
        <ele>251.2</ele>
        <time>2024-08-03T07:56:45Z</time>
      </trkpt>
      <trkpt lat="47.32518" lon="6.01445">
        <ele>251.2</ele>
        <time>2024-08-03T07:56:46Z</time>
      </trkpt>
      <trkpt lat="47.32521" lon="6.01446">
        <ele>250.8</ele>
        <time>2024-08-03T07:56:47Z</time>
      </trkpt>
      <trkpt lat="47.32522" lon="6.01446">
        <ele>250.8</ele>
        <time>2024-08-03T07:56:48Z</time>
      </trkpt>
      <trkpt lat="47.32525" lon="6.01449">
        <ele>250.6</ele>
        <time>2024-08-03T07:56:49Z</time>
      </trkpt>
      <trkpt lat="47.32525" lon="6.01452">
        <ele>250.2</ele>
        <time>2024-08-03T07:56:50Z</time>
      </trkpt>
      <trkpt lat="47.32525" lon="6.01455">
        <ele>250.2</ele>
        <time>2024-08-03T07:56:51Z</time>
      </trkpt>
      <trkpt lat="47.32525" lon="6.01458">
        <ele>250.2</ele>
        <time>2024-08-03T07:56:52Z</time>
      </trkpt>
      <trkpt lat="47.32525" lon="6.0146">
        <ele>250.2</ele>
        <time>2024-08-03T07:56:53Z</time>
      </trkpt>
      <trkpt lat="47.32526" lon="6.01462">
        <ele>249.8</ele>
        <time>2024-08-03T07:56:54Z</time>
      </trkpt>
      <trkpt lat="47.3253" lon="6.01465">
        <ele>249.8</ele>
        <time>2024-08-03T07:56:55Z</time>
      </trkpt>
      <trkpt lat="47.32531" lon="6.01466">
        <ele>249.6</ele>
        <time>2024-08-03T07:56:56Z</time>
      </trkpt>
      <trkpt lat="47.32533" lon="6.01466">
        <ele>249.6</ele>
        <time>2024-08-03T07:56:57Z</time>
      </trkpt>
      <trkpt lat="47.32535" lon="6.01467">
        <ele>249.4</ele>
        <time>2024-08-03T07:56:58Z</time>
      </trkpt>
      <trkpt lat="47.32536" lon="6.01468">
        <ele>249.4</ele>
        <time>2024-08-03T07:56:59Z</time>
      </trkpt>
      <trkpt lat="47.32537" lon="6.01469">
        <ele>249.4</ele>
        <time>2024-08-03T07:57:00Z</time>
      </trkpt>
      <trkpt lat="47.32537" lon="6.01469">
        <ele>249.4</ele>
        <time>2024-08-03T07:57:01Z</time>
      </trkpt>
      <trkpt lat="47.32537" lon="6.01468">
        <ele>249.4</ele>
        <time>2024-08-03T07:57:02Z</time>
      </trkpt>
      <trkpt lat="47.32536" lon="6.01466">
        <ele>249.6</ele>
        <time>2024-08-03T07:57:03Z</time>
      </trkpt>
      <trkpt lat="47.32536" lon="6.01465">
        <ele>249.4</ele>
        <time>2024-08-03T07:57:04Z</time>
      </trkpt>
      <trkpt lat="47.32534" lon="6.01463">
        <ele>249.4</ele>
        <time>2024-08-03T07:57:05Z</time>
      </trkpt>
      <trkpt lat="47.32534" lon="6.01463">
        <ele>249.4</ele>
        <time>2024-08-03T07:57:06Z</time>
      </trkpt>
      <trkpt lat="47.32534" lon="6.01462">
        <ele>249.4</ele>
        <time>2024-08-03T07:57:07Z</time>
      </trkpt>
      <trkpt lat="47.32534" lon="6.01461">
        <ele>249.4</ele>
        <time>2024-08-03T07:57:08Z</time>
      </trkpt>
      <trkpt lat="47.32534" lon="6.0146">
        <ele>249.4</ele>
        <time>2024-08-03T07:57:09Z</time>
      </trkpt>
      <trkpt lat="47.32534" lon="6.01457">
        <ele>249.4</ele>
        <time>2024-08-03T07:57:10Z</time>
      </trkpt>
      <trkpt lat="47.32535" lon="6.01456">
        <ele>249.4</ele>
        <time>2024-08-03T07:57:11Z</time>
      </trkpt>
      <trkpt lat="47.32537" lon="6.01456">
        <ele>249.4</ele>
        <time>2024-08-03T07:57:12Z</time>
      </trkpt>
      <trkpt lat="47.32539" lon="6.01456">
        <ele>249.6</ele>
        <time>2024-08-03T07:57:13Z</time>
      </trkpt>
      <trkpt lat="47.32541" lon="6.01454">
        <ele>249.4</ele>
        <time>2024-08-03T07:57:14Z</time>
      </trkpt>
      <trkpt lat="47.32543" lon="6.01452">
        <ele>249.4</ele>
        <time>2024-08-03T07:57:15Z</time>
      </trkpt>
      <trkpt lat="47.32545" lon="6.01449">
        <ele>249.4</ele>
        <time>2024-08-03T07:57:16Z</time>
      </trkpt>
      <trkpt lat="47.32547" lon="6.01445">
        <ele>249.4</ele>
        <time>2024-08-03T07:57:17Z</time>
      </trkpt>
      <trkpt lat="47.32549" lon="6.01442">
        <ele>249.4</ele>
        <time>2024-08-03T07:57:18Z</time>
      </trkpt>
      <trkpt lat="47.32551" lon="6.01438">
        <ele>249.4</ele>
        <time>2024-08-03T07:57:19Z</time>
      </trkpt>
      <trkpt lat="47.32554" lon="6.01433">
        <ele>249.4</ele>
        <time>2024-08-03T07:57:20Z</time>
      </trkpt>
      <trkpt lat="47.32556" lon="6.0143">
        <ele>249.4</ele>
        <time>2024-08-03T07:57:21Z</time>
      </trkpt>
      <trkpt lat="47.32559" lon="6.01426">
        <ele>249.2</ele>
        <time>2024-08-03T07:57:22Z</time>
      </trkpt>
      <trkpt lat="47.32562" lon="6.01424">
        <ele>249.4</ele>
        <time>2024-08-03T07:57:23Z</time>
      </trkpt>
      <trkpt lat="47.32566" lon="6.01422">
        <ele>249.2</ele>
        <time>2024-08-03T07:57:24Z</time>
      </trkpt>
      <trkpt lat="47.32569" lon="6.01419">
        <ele>249.4</ele>
        <time>2024-08-03T07:57:25Z</time>
      </trkpt>
      <trkpt lat="47.32572" lon="6.01418">
        <ele>249</ele>
        <time>2024-08-03T07:57:26Z</time>
      </trkpt>
      <trkpt lat="47.32575" lon="6.01416">
        <ele>249</ele>
        <time>2024-08-03T07:57:27Z</time>
      </trkpt>
      <trkpt lat="47.32579" lon="6.01414">
        <ele>248.8</ele>
        <time>2024-08-03T07:57:28Z</time>
      </trkpt>
      <trkpt lat="47.32582" lon="6.01412">
        <ele>248.6</ele>
        <time>2024-08-03T07:57:29Z</time>
      </trkpt>
      <trkpt lat="47.32587" lon="6.0141">
        <ele>248.4</ele>
        <time>2024-08-03T07:57:30Z</time>
      </trkpt>
      <trkpt lat="47.32591" lon="6.01408">
        <ele>248.2</ele>
        <time>2024-08-03T07:57:31Z</time>
      </trkpt>
      <trkpt lat="47.32595" lon="6.01407">
        <ele>248</ele>
        <time>2024-08-03T07:57:32Z</time>
      </trkpt>
      <trkpt lat="47.32599" lon="6.01405">
        <ele>248</ele>
        <time>2024-08-03T07:57:33Z</time>
      </trkpt>
      <trkpt lat="47.32603" lon="6.01404">
        <ele>247.8</ele>
        <time>2024-08-03T07:57:34Z</time>
      </trkpt>
      <trkpt lat="47.32607" lon="6.01402">
        <ele>247.8</ele>
        <time>2024-08-03T07:57:35Z</time>
      </trkpt>
      <trkpt lat="47.3261" lon="6.014">
        <ele>247.8</ele>
        <time>2024-08-03T07:57:36Z</time>
      </trkpt>
      <trkpt lat="47.32613" lon="6.01399">
        <ele>247.8</ele>
        <time>2024-08-03T07:57:37Z</time>
      </trkpt>
      <trkpt lat="47.32615" lon="6.01398">
        <ele>247.8</ele>
        <time>2024-08-03T07:57:38Z</time>
      </trkpt>
      <trkpt lat="47.32617" lon="6.01396">
        <ele>247.6</ele>
        <time>2024-08-03T07:57:39Z</time>
      </trkpt>
      <trkpt lat="47.32618" lon="6.01395">
        <ele>247.6</ele>
        <time>2024-08-03T07:57:40Z</time>
      </trkpt>
      <trkpt lat="47.32619" lon="6.01394">
        <ele>247.6</ele>
        <time>2024-08-03T07:57:41Z</time>
      </trkpt>
      <trkpt lat="47.32619" lon="6.01392">
        <ele>247.6</ele>
        <time>2024-08-03T07:57:42Z</time>
      </trkpt>
      <trkpt lat="47.32618" lon="6.01389">
        <ele>247.6</ele>
        <time>2024-08-03T07:57:43Z</time>
      </trkpt>
      <trkpt lat="47.32617" lon="6.01386">
        <ele>247.6</ele>
        <time>2024-08-03T07:57:44Z</time>
      </trkpt>
      <trkpt lat="47.32616" lon="6.01383">
        <ele>247.4</ele>
        <time>2024-08-03T07:57:45Z</time>
      </trkpt>
      <trkpt lat="47.32615" lon="6.01379">
        <ele>247.2</ele>
        <time>2024-08-03T07:57:46Z</time>
      </trkpt>
      <trkpt lat="47.32615" lon="6.01375">
        <ele>247.2</ele>
        <time>2024-08-03T07:57:47Z</time>
      </trkpt>
      <trkpt lat="47.32613" lon="6.0137">
        <ele>247.4</ele>
        <time>2024-08-03T07:57:48Z</time>
      </trkpt>
      <trkpt lat="47.32612" lon="6.01366">
        <ele>247.4</ele>
        <time>2024-08-03T07:57:49Z</time>
      </trkpt>
      <trkpt lat="47.3261" lon="6.01361">
        <ele>247.2</ele>
        <time>2024-08-03T07:57:50Z</time>
      </trkpt>
      <trkpt lat="47.32607" lon="6.01356">
        <ele>247.4</ele>
        <time>2024-08-03T07:57:51Z</time>
      </trkpt>
      <trkpt lat="47.32605" lon="6.01351">
        <ele>247.4</ele>
        <time>2024-08-03T07:57:52Z</time>
      </trkpt>
      <trkpt lat="47.32602" lon="6.01346">
        <ele>247.2</ele>
        <time>2024-08-03T07:57:53Z</time>
      </trkpt>
      <trkpt lat="47.32599" lon="6.01342">
        <ele>247.2</ele>
        <time>2024-08-03T07:57:54Z</time>
      </trkpt>
      <trkpt lat="47.32596" lon="6.01337">
        <ele>247.4</ele>
        <time>2024-08-03T07:57:55Z</time>
      </trkpt>
      <trkpt lat="47.32593" lon="6.01333">
        <ele>247.2</ele>
        <time>2024-08-03T07:57:56Z</time>
      </trkpt>
      <trkpt lat="47.32589" lon="6.01328">
        <ele>247.2</ele>
        <time>2024-08-03T07:57:57Z</time>
      </trkpt>
      <trkpt lat="47.32586" lon="6.01323">
        <ele>247.2</ele>
        <time>2024-08-03T07:57:58Z</time>
      </trkpt>
      <trkpt lat="47.32583" lon="6.01318">
        <ele>247.2</ele>
        <time>2024-08-03T07:57:59Z</time>
      </trkpt>
      <trkpt lat="47.3258" lon="6.01313">
        <ele>247.2</ele>
        <time>2024-08-03T07:58:00Z</time>
      </trkpt>
      <trkpt lat="47.32578" lon="6.01308">
        <ele>247.4</ele>
        <time>2024-08-03T07:58:01Z</time>
      </trkpt>
      <trkpt lat="47.32575" lon="6.01302">
        <ele>247.4</ele>
        <time>2024-08-03T07:58:02Z</time>
      </trkpt>
      <trkpt lat="47.32573" lon="6.01296">
        <ele>247.4</ele>
        <time>2024-08-03T07:58:03Z</time>
      </trkpt>
      <trkpt lat="47.32572" lon="6.01292">
        <ele>247.4</ele>
        <time>2024-08-03T07:58:04Z</time>
      </trkpt>
      <trkpt lat="47.32571" lon="6.01286">
        <ele>247.6</ele>
        <time>2024-08-03T07:58:05Z</time>
      </trkpt>
      <trkpt lat="47.3257" lon="6.01281">
        <ele>247.4</ele>
        <time>2024-08-03T07:58:06Z</time>
      </trkpt>
      <trkpt lat="47.32568" lon="6.01274">
        <ele>247.6</ele>
        <time>2024-08-03T07:58:07Z</time>
      </trkpt>
      <trkpt lat="47.32566" lon="6.01269">
        <ele>247.6</ele>
        <time>2024-08-03T07:58:08Z</time>
      </trkpt>
      <trkpt lat="47.32564" lon="6.01263">
        <ele>247.8</ele>
        <time>2024-08-03T07:58:09Z</time>
      </trkpt>
      <trkpt lat="47.32565" lon="6.01259">
        <ele>247.8</ele>
        <time>2024-08-03T07:58:10Z</time>
      </trkpt>
      <trkpt lat="47.32564" lon="6.01254">
        <ele>247.8</ele>
        <time>2024-08-03T07:58:11Z</time>
      </trkpt>
      <trkpt lat="47.32564" lon="6.01249">
        <ele>247.8</ele>
        <time>2024-08-03T07:58:12Z</time>
      </trkpt>
      <trkpt lat="47.32564" lon="6.01244">
        <ele>247.8</ele>
        <time>2024-08-03T07:58:13Z</time>
      </trkpt>
      <trkpt lat="47.32566" lon="6.0124">
        <ele>247.8</ele>
        <time>2024-08-03T07:58:14Z</time>
      </trkpt>
      <trkpt lat="47.32568" lon="6.01236">
        <ele>248</ele>
        <time>2024-08-03T07:58:15Z</time>
      </trkpt>
      <trkpt lat="47.3257" lon="6.01233">
        <ele>248</ele>
        <time>2024-08-03T07:58:16Z</time>
      </trkpt>
      <trkpt lat="47.32573" lon="6.0123">
        <ele>248</ele>
        <time>2024-08-03T07:58:17Z</time>
      </trkpt>
      <trkpt lat="47.32574" lon="6.01226">
        <ele>247.8</ele>
        <time>2024-08-03T07:58:18Z</time>
      </trkpt>
      <trkpt lat="47.32574" lon="6.01222">
        <ele>247.8</ele>
        <time>2024-08-03T07:58:19Z</time>
      </trkpt>
      <trkpt lat="47.32574" lon="6.01219">
        <ele>247.8</ele>
        <time>2024-08-03T07:58:20Z</time>
      </trkpt>
      <trkpt lat="47.32574" lon="6.01216">
        <ele>247.8</ele>
        <time>2024-08-03T07:58:21Z</time>
      </trkpt>
      <trkpt lat="47.32574" lon="6.01214">
        <ele>248</ele>
        <time>2024-08-03T07:58:22Z</time>
      </trkpt>
      <trkpt lat="47.32573" lon="6.01213">
        <ele>247.8</ele>
        <time>2024-08-03T07:58:23Z</time>
      </trkpt>
      <trkpt lat="47.32573" lon="6.01212">
        <ele>248</ele>
        <time>2024-08-03T07:58:24Z</time>
      </trkpt>
      <trkpt lat="47.32572" lon="6.01211">
        <ele>248</ele>
        <time>2024-08-03T07:58:25Z</time>
      </trkpt>
      <trkpt lat="47.32571" lon="6.01211">
        <ele>248</ele>
        <time>2024-08-03T07:58:26Z</time>
      </trkpt>
      <trkpt lat="47.3257" lon="6.0121">
        <ele>248.2</ele>
        <time>2024-08-03T07:58:27Z</time>
      </trkpt>
      <trkpt lat="47.32569" lon="6.0121">
        <ele>248</ele>
        <time>2024-08-03T07:58:28Z</time>
      </trkpt>
      <trkpt lat="47.32567" lon="6.0121">
        <ele>248</ele>
        <time>2024-08-03T07:58:29Z</time>
      </trkpt>
      <trkpt lat="47.32567" lon="6.01211">
        <ele>248</ele>
        <time>2024-08-03T07:58:30Z</time>
      </trkpt>
      <trkpt lat="47.32568" lon="6.01211">
        <ele>248.2</ele>
        <time>2024-08-03T07:58:31Z</time>
      </trkpt>
      <trkpt lat="47.32568" lon="6.01211">
        <ele>248</ele>
        <time>2024-08-03T07:58:32Z</time>
      </trkpt>
      <trkpt lat="47.32568" lon="6.01212">
        <ele>248</ele>
        <time>2024-08-03T07:58:33Z</time>
      </trkpt>
      <trkpt lat="47.32567" lon="6.01213">
        <ele>248</ele>
        <time>2024-08-03T07:58:34Z</time>
      </trkpt>
      <trkpt lat="47.32567" lon="6.01213">
        <ele>248.2</ele>
        <time>2024-08-03T07:58:35Z</time>
      </trkpt>
      <trkpt lat="47.32565" lon="6.01213">
        <ele>248</ele>
        <time>2024-08-03T07:58:36Z</time>
      </trkpt>
      <trkpt lat="47.32564" lon="6.01213">
        <ele>248.2</ele>
        <time>2024-08-03T07:58:37Z</time>
      </trkpt>
      <trkpt lat="47.32563" lon="6.01211">
        <ele>248</ele>
        <time>2024-08-03T07:58:38Z</time>
      </trkpt>
      <trkpt lat="47.32562" lon="6.0121">
        <ele>248.2</ele>
        <time>2024-08-03T07:58:39Z</time>
      </trkpt>
      <trkpt lat="47.32561" lon="6.01208">
        <ele>248.2</ele>
        <time>2024-08-03T07:58:40Z</time>
      </trkpt>
      <trkpt lat="47.3256" lon="6.01207">
        <ele>248.2</ele>
        <time>2024-08-03T07:58:41Z</time>
      </trkpt>
      <trkpt lat="47.3256" lon="6.01206">
        <ele>248.2</ele>
        <time>2024-08-03T07:58:42Z</time>
      </trkpt>
      <trkpt lat="47.32559" lon="6.01206">
        <ele>248.2</ele>
        <time>2024-08-03T07:58:43Z</time>
      </trkpt>
      <trkpt lat="47.32558" lon="6.01206">
        <ele>248.2</ele>
        <time>2024-08-03T07:58:44Z</time>
      </trkpt>
      <trkpt lat="47.32558" lon="6.01206">
        <ele>248.2</ele>
        <time>2024-08-03T07:58:45Z</time>
      </trkpt>
      <trkpt lat="47.32558" lon="6.01206">
        <ele>248.2</ele>
        <time>2024-08-03T07:58:46Z</time>
      </trkpt>
      <trkpt lat="47.32558" lon="6.01206">
        <ele>248</ele>
        <time>2024-08-03T07:58:47Z</time>
      </trkpt>
      <trkpt lat="47.32559" lon="6.01206">
        <ele>248.2</ele>
        <time>2024-08-03T07:58:48Z</time>
      </trkpt>
      <trkpt lat="47.32559" lon="6.01207">
        <ele>248</ele>
        <time>2024-08-03T07:58:49Z</time>
      </trkpt>
      <trkpt lat="47.3256" lon="6.01207">
        <ele>248.2</ele>
        <time>2024-08-03T07:58:50Z</time>
      </trkpt>
      <trkpt lat="47.32561" lon="6.01207">
        <ele>248</ele>
        <time>2024-08-03T07:58:51Z</time>
      </trkpt>
      <trkpt lat="47.32561" lon="6.01207">
        <ele>248</ele>
        <time>2024-08-03T07:58:52Z</time>
      </trkpt>
      <trkpt lat="47.32562" lon="6.01207">
        <ele>248.2</ele>
        <time>2024-08-03T07:58:53Z</time>
      </trkpt>
      <trkpt lat="47.32562" lon="6.01207">
        <ele>248</ele>
        <time>2024-08-03T07:58:54Z</time>
      </trkpt>
      <trkpt lat="47.32563" lon="6.01207">
        <ele>248</ele>
        <time>2024-08-03T07:58:55Z</time>
      </trkpt>
      <trkpt lat="47.32563" lon="6.01207">
        <ele>248.2</ele>
        <time>2024-08-03T07:58:56Z</time>
      </trkpt>
      <trkpt lat="47.32564" lon="6.01207">
        <ele>248</ele>
        <time>2024-08-03T07:58:57Z</time>
      </trkpt>
      <trkpt lat="47.32565" lon="6.01207">
        <ele>248</ele>
        <time>2024-08-03T07:58:58Z</time>
      </trkpt>
      <trkpt lat="47.32565" lon="6.01207">
        <ele>248.2</ele>
        <time>2024-08-03T07:58:59Z</time>
      </trkpt>
      <trkpt lat="47.32565" lon="6.01207">
        <ele>248</ele>
        <time>2024-08-03T07:59:00Z</time>
      </trkpt>
      <trkpt lat="47.32565" lon="6.01207">
        <ele>248</ele>
        <time>2024-08-03T07:59:01Z</time>
      </trkpt>
      <trkpt lat="47.32565" lon="6.01207">
        <ele>248</ele>
        <time>2024-08-03T07:59:02Z</time>
      </trkpt>
      <trkpt lat="47.32565" lon="6.01207">
        <ele>248</ele>
        <time>2024-08-03T07:59:03Z</time>
      </trkpt>
      <trkpt lat="47.32564" lon="6.01208">
        <ele>248</ele>
        <time>2024-08-03T07:59:04Z</time>
      </trkpt>
      <trkpt lat="47.32564" lon="6.01208">
        <ele>248</ele>
        <time>2024-08-03T07:59:05Z</time>
      </trkpt>
      <trkpt lat="47.32563" lon="6.01208">
        <ele>248</ele>
        <time>2024-08-03T07:59:06Z</time>
      </trkpt>
      <trkpt lat="47.32563" lon="6.01209">
        <ele>248</ele>
        <time>2024-08-03T07:59:07Z</time>
      </trkpt>
      <trkpt lat="47.32563" lon="6.01209">
        <ele>248</ele>
        <time>2024-08-03T07:59:08Z</time>
      </trkpt>
      <trkpt lat="47.32563" lon="6.01209">
        <ele>248</ele>
        <time>2024-08-03T07:59:09Z</time>
      </trkpt>
      <trkpt lat="47.32563" lon="6.01209">
        <ele>248</ele>
        <time>2024-08-03T07:59:10Z</time>
      </trkpt>
      <trkpt lat="47.32563" lon="6.01209">
        <ele>248.2</ele>
        <time>2024-08-03T07:59:11Z</time>
      </trkpt>
      <trkpt lat="47.32563" lon="6.0121">
        <ele>248.2</ele>
        <time>2024-08-03T07:59:12Z</time>
      </trkpt>
      <trkpt lat="47.32564" lon="6.01211">
        <ele>248.2</ele>
        <time>2024-08-03T07:59:13Z</time>
      </trkpt>
      <trkpt lat="47.32565" lon="6.01212">
        <ele>248.2</ele>
        <time>2024-08-03T07:59:14Z</time>
      </trkpt>
      <trkpt lat="47.32567" lon="6.01213">
        <ele>248.2</ele>
        <time>2024-08-03T07:59:15Z</time>
      </trkpt>
      <trkpt lat="47.3257" lon="6.01215">
        <ele>248.4</ele>
        <time>2024-08-03T07:59:16Z</time>
      </trkpt>
      <trkpt lat="47.32572" lon="6.01217">
        <ele>248.2</ele>
        <time>2024-08-03T07:59:17Z</time>
      </trkpt>
      <trkpt lat="47.32574" lon="6.01219">
        <ele>248.4</ele>
        <time>2024-08-03T07:59:18Z</time>
      </trkpt>
      <trkpt lat="47.32577" lon="6.01222">
        <ele>248.4</ele>
        <time>2024-08-03T07:59:19Z</time>
      </trkpt>
      <trkpt lat="47.32579" lon="6.01225">
        <ele>248.2</ele>
        <time>2024-08-03T07:59:20Z</time>
      </trkpt>
      <trkpt lat="47.32582" lon="6.01227">
        <ele>248.2</ele>
        <time>2024-08-03T07:59:21Z</time>
      </trkpt>
      <trkpt lat="47.32584" lon="6.0123">
        <ele>248.4</ele>
        <time>2024-08-03T07:59:22Z</time>
      </trkpt>
      <trkpt lat="47.32587" lon="6.01233">
        <ele>248.4</ele>
        <time>2024-08-03T07:59:23Z</time>
      </trkpt>
      <trkpt lat="47.3259" lon="6.01236">
        <ele>248.4</ele>
        <time>2024-08-03T07:59:24Z</time>
      </trkpt>
      <trkpt lat="47.32593" lon="6.01239">
        <ele>248.6</ele>
        <time>2024-08-03T07:59:25Z</time>
      </trkpt>
      <trkpt lat="47.32596" lon="6.01242">
        <ele>248.6</ele>
        <time>2024-08-03T07:59:26Z</time>
      </trkpt>
      <trkpt lat="47.32599" lon="6.01244">
        <ele>248.6</ele>
        <time>2024-08-03T07:59:27Z</time>
      </trkpt>
      <trkpt lat="47.32602" lon="6.01246">
        <ele>248.6</ele>
        <time>2024-08-03T07:59:28Z</time>
      </trkpt>
      <trkpt lat="47.32606" lon="6.01248">
        <ele>248.4</ele>
        <time>2024-08-03T07:59:29Z</time>
      </trkpt>
      <trkpt lat="47.32609" lon="6.01249">
        <ele>248.4</ele>
        <time>2024-08-03T07:59:30Z</time>
      </trkpt>
      <trkpt lat="47.32613" lon="6.01251">
        <ele>248.6</ele>
        <time>2024-08-03T07:59:31Z</time>
      </trkpt>
      <trkpt lat="47.32616" lon="6.01252">
        <ele>248.6</ele>
        <time>2024-08-03T07:59:32Z</time>
      </trkpt>
      <trkpt lat="47.3262" lon="6.01252">
        <ele>248.6</ele>
        <time>2024-08-03T07:59:33Z</time>
      </trkpt>
      <trkpt lat="47.32624" lon="6.01251">
        <ele>248.6</ele>
        <time>2024-08-03T07:59:34Z</time>
      </trkpt>
      <trkpt lat="47.32627" lon="6.01249">
        <ele>248.6</ele>
        <time>2024-08-03T07:59:35Z</time>
      </trkpt>
      <trkpt lat="47.3263" lon="6.01248">
        <ele>248.6</ele>
        <time>2024-08-03T07:59:36Z</time>
      </trkpt>
      <trkpt lat="47.32633" lon="6.01246">
        <ele>248.6</ele>
        <time>2024-08-03T07:59:37Z</time>
      </trkpt>
      <trkpt lat="47.32635" lon="6.01243">
        <ele>248.6</ele>
        <time>2024-08-03T07:59:38Z</time>
      </trkpt>
      <trkpt lat="47.32637" lon="6.01241">
        <ele>248.6</ele>
        <time>2024-08-03T07:59:39Z</time>
      </trkpt>
      <trkpt lat="47.32639" lon="6.0124">
        <ele>248.6</ele>
        <time>2024-08-03T07:59:40Z</time>
      </trkpt>
      <trkpt lat="47.32641" lon="6.0124">
        <ele>248.4</ele>
        <time>2024-08-03T07:59:41Z</time>
      </trkpt>
      <trkpt lat="47.32644" lon="6.01241">
        <ele>248.6</ele>
        <time>2024-08-03T07:59:42Z</time>
      </trkpt>
      <trkpt lat="47.32646" lon="6.01243">
        <ele>248.4</ele>
        <time>2024-08-03T07:59:43Z</time>
      </trkpt>
      <trkpt lat="47.32648" lon="6.01247">
        <ele>248.4</ele>
        <time>2024-08-03T07:59:44Z</time>
      </trkpt>
      <trkpt lat="47.32649" lon="6.01252">
        <ele>248.6</ele>
        <time>2024-08-03T07:59:45Z</time>
      </trkpt>
      <trkpt lat="47.32651" lon="6.01257">
        <ele>248.4</ele>
        <time>2024-08-03T07:59:46Z</time>
      </trkpt>
      <trkpt lat="47.32652" lon="6.01263">
        <ele>248.4</ele>
        <time>2024-08-03T07:59:47Z</time>
      </trkpt>
      <trkpt lat="47.32653" lon="6.0127">
        <ele>248.4</ele>
        <time>2024-08-03T07:59:48Z</time>
      </trkpt>
      <trkpt lat="47.32655" lon="6.01276">
        <ele>248.4</ele>
        <time>2024-08-03T07:59:49Z</time>
      </trkpt>
      <trkpt lat="47.32656" lon="6.01283">
        <ele>248.2</ele>
        <time>2024-08-03T07:59:50Z</time>
      </trkpt>
      <trkpt lat="47.32657" lon="6.01289">
        <ele>248.2</ele>
        <time>2024-08-03T07:59:51Z</time>
      </trkpt>
      <trkpt lat="47.32659" lon="6.01295">
        <ele>248.4</ele>
        <time>2024-08-03T07:59:52Z</time>
      </trkpt>
      <trkpt lat="47.3266" lon="6.01301">
        <ele>248.2</ele>
        <time>2024-08-03T07:59:53Z</time>
      </trkpt>
      <trkpt lat="47.32662" lon="6.01307">
        <ele>248.4</ele>
        <time>2024-08-03T07:59:54Z</time>
      </trkpt>
      <trkpt lat="47.32664" lon="6.01312">
        <ele>248.2</ele>
        <time>2024-08-03T07:59:55Z</time>
      </trkpt>
      <trkpt lat="47.32666" lon="6.01318">
        <ele>248.2</ele>
        <time>2024-08-03T07:59:56Z</time>
      </trkpt>
      <trkpt lat="47.32668" lon="6.01324">
        <ele>248.2</ele>
        <time>2024-08-03T07:59:57Z</time>
      </trkpt>
      <trkpt lat="47.32669" lon="6.0133">
        <ele>248.2</ele>
        <time>2024-08-03T07:59:58Z</time>
      </trkpt>
      <trkpt lat="47.32671" lon="6.01336">
        <ele>248.2</ele>
        <time>2024-08-03T07:59:59Z</time>
      </trkpt>
      <trkpt lat="47.32672" lon="6.01342">
        <ele>248</ele>
        <time>2024-08-03T08:00:00Z</time>
      </trkpt>
      <trkpt lat="47.32673" lon="6.01348">
        <ele>248</ele>
        <time>2024-08-03T08:00:01Z</time>
      </trkpt>
      <trkpt lat="47.32674" lon="6.01355">
        <ele>248</ele>
        <time>2024-08-03T08:00:02Z</time>
      </trkpt>
      <trkpt lat="47.32676" lon="6.0136">
        <ele>247.8</ele>
        <time>2024-08-03T08:00:03Z</time>
      </trkpt>
      <trkpt lat="47.32677" lon="6.01366">
        <ele>248</ele>
        <time>2024-08-03T08:00:04Z</time>
      </trkpt>
      <trkpt lat="47.32678" lon="6.01372">
        <ele>247.8</ele>
        <time>2024-08-03T08:00:05Z</time>
      </trkpt>
      <trkpt lat="47.32679" lon="6.01378">
        <ele>248</ele>
        <time>2024-08-03T08:00:06Z</time>
      </trkpt>
      <trkpt lat="47.32679" lon="6.01383">
        <ele>247.8</ele>
        <time>2024-08-03T08:00:07Z</time>
      </trkpt>
      <trkpt lat="47.32681" lon="6.01389">
        <ele>247.8</ele>
        <time>2024-08-03T08:00:08Z</time>
      </trkpt>
      <trkpt lat="47.32682" lon="6.01395">
        <ele>247.8</ele>
        <time>2024-08-03T08:00:09Z</time>
      </trkpt>
      <trkpt lat="47.32685" lon="6.01401">
        <ele>247.8</ele>
        <time>2024-08-03T08:00:10Z</time>
      </trkpt>
      <trkpt lat="47.32688" lon="6.01405">
        <ele>247.6</ele>
        <time>2024-08-03T08:00:11Z</time>
      </trkpt>
      <trkpt lat="47.32691" lon="6.01407">
        <ele>247.8</ele>
        <time>2024-08-03T08:00:12Z</time>
      </trkpt>
      <trkpt lat="47.32694" lon="6.01409">
        <ele>247.6</ele>
        <time>2024-08-03T08:00:13Z</time>
      </trkpt>
      <trkpt lat="47.32698" lon="6.01407">
        <ele>247.6</ele>
        <time>2024-08-03T08:00:14Z</time>
      </trkpt>
      <trkpt lat="47.32701" lon="6.01404">
        <ele>247.6</ele>
        <time>2024-08-03T08:00:15Z</time>
      </trkpt>
      <trkpt lat="47.32705" lon="6.014">
        <ele>247.4</ele>
        <time>2024-08-03T08:00:16Z</time>
      </trkpt>
      <trkpt lat="47.3271" lon="6.01397">
        <ele>247.4</ele>
        <time>2024-08-03T08:00:17Z</time>
      </trkpt>
      <trkpt lat="47.32714" lon="6.01395">
        <ele>247.4</ele>
        <time>2024-08-03T08:00:18Z</time>
      </trkpt>
      <trkpt lat="47.32719" lon="6.01394">
        <ele>247.2</ele>
        <time>2024-08-03T08:00:19Z</time>
      </trkpt>
      <trkpt lat="47.32724" lon="6.01395">
        <ele>247.2</ele>
        <time>2024-08-03T08:00:20Z</time>
      </trkpt>
      <trkpt lat="47.32729" lon="6.01399">
        <ele>247.2</ele>
        <time>2024-08-03T08:00:21Z</time>
      </trkpt>
      <trkpt lat="47.32734" lon="6.01402">
        <ele>247.2</ele>
        <time>2024-08-03T08:00:22Z</time>
      </trkpt>
      <trkpt lat="47.32738" lon="6.01407">
        <ele>247.2</ele>
        <time>2024-08-03T08:00:23Z</time>
      </trkpt>
      <trkpt lat="47.32743" lon="6.0141">
        <ele>247.2</ele>
        <time>2024-08-03T08:00:24Z</time>
      </trkpt>
      <trkpt lat="47.32747" lon="6.01414">
        <ele>247</ele>
        <time>2024-08-03T08:00:25Z</time>
      </trkpt>
      <trkpt lat="47.32751" lon="6.01417">
        <ele>247</ele>
        <time>2024-08-03T08:00:26Z</time>
      </trkpt>
      <trkpt lat="47.32755" lon="6.01421">
        <ele>247</ele>
        <time>2024-08-03T08:00:27Z</time>
      </trkpt>
      <trkpt lat="47.32759" lon="6.01426">
        <ele>247.2</ele>
        <time>2024-08-03T08:00:28Z</time>
      </trkpt>
      <trkpt lat="47.32762" lon="6.0143">
        <ele>247</ele>
        <time>2024-08-03T08:00:29Z</time>
      </trkpt>
      <trkpt lat="47.32766" lon="6.01434">
        <ele>247</ele>
        <time>2024-08-03T08:00:30Z</time>
      </trkpt>
      <trkpt lat="47.3277" lon="6.01437">
        <ele>247</ele>
        <time>2024-08-03T08:00:31Z</time>
      </trkpt>
      <trkpt lat="47.32773" lon="6.01441">
        <ele>247</ele>
        <time>2024-08-03T08:00:32Z</time>
      </trkpt>
      <trkpt lat="47.32777" lon="6.01445">
        <ele>246.8</ele>
        <time>2024-08-03T08:00:33Z</time>
      </trkpt>
      <trkpt lat="47.3278" lon="6.01448">
        <ele>246.8</ele>
        <time>2024-08-03T08:00:34Z</time>
      </trkpt>
      <trkpt lat="47.32784" lon="6.0145">
        <ele>247</ele>
        <time>2024-08-03T08:00:35Z</time>
      </trkpt>
      <trkpt lat="47.32787" lon="6.01453">
        <ele>246.8</ele>
        <time>2024-08-03T08:00:36Z</time>
      </trkpt>
      <trkpt lat="47.3279" lon="6.01455">
        <ele>246.8</ele>
        <time>2024-08-03T08:00:37Z</time>
      </trkpt>
      <trkpt lat="47.32794" lon="6.01458">
        <ele>247</ele>
        <time>2024-08-03T08:00:38Z</time>
      </trkpt>
      <trkpt lat="47.32799" lon="6.0146">
        <ele>247</ele>
        <time>2024-08-03T08:00:39Z</time>
      </trkpt>
      <trkpt lat="47.32803" lon="6.01463">
        <ele>246.8</ele>
        <time>2024-08-03T08:00:40Z</time>
      </trkpt>
      <trkpt lat="47.32805" lon="6.01467">
        <ele>247</ele>
        <time>2024-08-03T08:00:41Z</time>
      </trkpt>
      <trkpt lat="47.32809" lon="6.01469">
        <ele>246.8</ele>
        <time>2024-08-03T08:00:42Z</time>
      </trkpt>
      <trkpt lat="47.32812" lon="6.01471">
        <ele>247</ele>
        <time>2024-08-03T08:00:43Z</time>
      </trkpt>
      <trkpt lat="47.32816" lon="6.01474">
        <ele>246.8</ele>
        <time>2024-08-03T08:00:44Z</time>
      </trkpt>
      <trkpt lat="47.3282" lon="6.01476">
        <ele>246.8</ele>
        <time>2024-08-03T08:00:45Z</time>
      </trkpt>
      <trkpt lat="47.32824" lon="6.01479">
        <ele>247</ele>
        <time>2024-08-03T08:00:46Z</time>
      </trkpt>
      <trkpt lat="47.32827" lon="6.01481">
        <ele>246.8</ele>
        <time>2024-08-03T08:00:47Z</time>
      </trkpt>
      <trkpt lat="47.32831" lon="6.01483">
        <ele>246.8</ele>
        <time>2024-08-03T08:00:48Z</time>
      </trkpt>
      <trkpt lat="47.32835" lon="6.01483">
        <ele>246.8</ele>
        <time>2024-08-03T08:00:49Z</time>
      </trkpt>
      <trkpt lat="47.3284" lon="6.01484">
        <ele>246.8</ele>
        <time>2024-08-03T08:00:50Z</time>
      </trkpt>
      <trkpt lat="47.32844" lon="6.01483">
        <ele>246.8</ele>
        <time>2024-08-03T08:00:51Z</time>
      </trkpt>
      <trkpt lat="47.3285" lon="6.01482">
        <ele>246.8</ele>
        <time>2024-08-03T08:00:52Z</time>
      </trkpt>
      <trkpt lat="47.32854" lon="6.01481">
        <ele>246.8</ele>
        <time>2024-08-03T08:00:53Z</time>
      </trkpt>
      <trkpt lat="47.32859" lon="6.01481">
        <ele>246.8</ele>
        <time>2024-08-03T08:00:54Z</time>
      </trkpt>
      <trkpt lat="47.32863" lon="6.0148">
        <ele>246.8</ele>
        <time>2024-08-03T08:00:55Z</time>
      </trkpt>
      <trkpt lat="47.32867" lon="6.01478">
        <ele>246.8</ele>
        <time>2024-08-03T08:00:56Z</time>
      </trkpt>
      <trkpt lat="47.32871" lon="6.01475">
        <ele>246.6</ele>
        <time>2024-08-03T08:00:57Z</time>
      </trkpt>
      <trkpt lat="47.32874" lon="6.01473">
        <ele>246.6</ele>
        <time>2024-08-03T08:00:58Z</time>
      </trkpt>
      <trkpt lat="47.32879" lon="6.0147">
        <ele>246.6</ele>
        <time>2024-08-03T08:00:59Z</time>
      </trkpt>
      <trkpt lat="47.32884" lon="6.01469">
        <ele>246.6</ele>
        <time>2024-08-03T08:01:00Z</time>
      </trkpt>
      <trkpt lat="47.32889" lon="6.01468">
        <ele>246.6</ele>
        <time>2024-08-03T08:01:01Z</time>
      </trkpt>
      <trkpt lat="47.32893" lon="6.01467">
        <ele>246.6</ele>
        <time>2024-08-03T08:01:02Z</time>
      </trkpt>
      <trkpt lat="47.32897" lon="6.01466">
        <ele>246.6</ele>
        <time>2024-08-03T08:01:03Z</time>
      </trkpt>
      <trkpt lat="47.32901" lon="6.01463">
        <ele>246.4</ele>
        <time>2024-08-03T08:01:04Z</time>
      </trkpt>
      <trkpt lat="47.32905" lon="6.0146">
        <ele>246.6</ele>
        <time>2024-08-03T08:01:05Z</time>
      </trkpt>
      <trkpt lat="47.32908" lon="6.01456">
        <ele>246.6</ele>
        <time>2024-08-03T08:01:06Z</time>
      </trkpt>
      <trkpt lat="47.3291" lon="6.01451">
        <ele>246.4</ele>
        <time>2024-08-03T08:01:07Z</time>
      </trkpt>
      <trkpt lat="47.32914" lon="6.01447">
        <ele>246.6</ele>
        <time>2024-08-03T08:01:08Z</time>
      </trkpt>
      <trkpt lat="47.32918" lon="6.01442">
        <ele>246.6</ele>
        <time>2024-08-03T08:01:09Z</time>
      </trkpt>
      <trkpt lat="47.32921" lon="6.01438">
        <ele>246.6</ele>
        <time>2024-08-03T08:01:10Z</time>
      </trkpt>
      <trkpt lat="47.32924" lon="6.01433">
        <ele>246.6</ele>
        <time>2024-08-03T08:01:11Z</time>
      </trkpt>
      <trkpt lat="47.32927" lon="6.01429">
        <ele>246.4</ele>
        <time>2024-08-03T08:01:12Z</time>
      </trkpt>
      <trkpt lat="47.32931" lon="6.01425">
        <ele>246.6</ele>
        <time>2024-08-03T08:01:13Z</time>
      </trkpt>
      <trkpt lat="47.32934" lon="6.0142">
        <ele>246.6</ele>
        <time>2024-08-03T08:01:14Z</time>
      </trkpt>
      <trkpt lat="47.32937" lon="6.01416">
        <ele>246.6</ele>
        <time>2024-08-03T08:01:15Z</time>
      </trkpt>
      <trkpt lat="47.3294" lon="6.01412">
        <ele>246.8</ele>
        <time>2024-08-03T08:01:16Z</time>
      </trkpt>
      <trkpt lat="47.32943" lon="6.01408">
        <ele>246.6</ele>
        <time>2024-08-03T08:01:17Z</time>
      </trkpt>
      <trkpt lat="47.32946" lon="6.01403">
        <ele>246.8</ele>
        <time>2024-08-03T08:01:18Z</time>
      </trkpt>
      <trkpt lat="47.32948" lon="6.01399">
        <ele>247</ele>
        <time>2024-08-03T08:01:19Z</time>
      </trkpt>
      <trkpt lat="47.32951" lon="6.01395">
        <ele>247</ele>
        <time>2024-08-03T08:01:20Z</time>
      </trkpt>
      <trkpt lat="47.32954" lon="6.01391">
        <ele>247</ele>
        <time>2024-08-03T08:01:21Z</time>
      </trkpt>
      <trkpt lat="47.32958" lon="6.01388">
        <ele>247.4</ele>
        <time>2024-08-03T08:01:22Z</time>
      </trkpt>
      <trkpt lat="47.32961" lon="6.01384">
        <ele>247.4</ele>
        <time>2024-08-03T08:01:23Z</time>
      </trkpt>
      <trkpt lat="47.32964" lon="6.0138">
        <ele>247.6</ele>
        <time>2024-08-03T08:01:24Z</time>
      </trkpt>
      <trkpt lat="47.32968" lon="6.01376">
        <ele>247.8</ele>
        <time>2024-08-03T08:01:25Z</time>
      </trkpt>
      <trkpt lat="47.32971" lon="6.01372">
        <ele>247.8</ele>
        <time>2024-08-03T08:01:26Z</time>
      </trkpt>
      <trkpt lat="47.32975" lon="6.01368">
        <ele>248</ele>
        <time>2024-08-03T08:01:27Z</time>
      </trkpt>
      <trkpt lat="47.32978" lon="6.01364">
        <ele>248.2</ele>
        <time>2024-08-03T08:01:28Z</time>
      </trkpt>
      <trkpt lat="47.32982" lon="6.01359">
        <ele>248.4</ele>
        <time>2024-08-03T08:01:29Z</time>
      </trkpt>
      <trkpt lat="47.32986" lon="6.01354">
        <ele>248.2</ele>
        <time>2024-08-03T08:01:30Z</time>
      </trkpt>
      <trkpt lat="47.3299" lon="6.01348">
        <ele>248.2</ele>
        <time>2024-08-03T08:01:31Z</time>
      </trkpt>
      <trkpt lat="47.32993" lon="6.01342">
        <ele>248.2</ele>
        <time>2024-08-03T08:01:32Z</time>
      </trkpt>
      <trkpt lat="47.32997" lon="6.01335">
        <ele>248.2</ele>
        <time>2024-08-03T08:01:33Z</time>
      </trkpt>
      <trkpt lat="47.33001" lon="6.01329">
        <ele>248.4</ele>
        <time>2024-08-03T08:01:34Z</time>
      </trkpt>
      <trkpt lat="47.33005" lon="6.01322">
        <ele>248.2</ele>
        <time>2024-08-03T08:01:35Z</time>
      </trkpt>
      <trkpt lat="47.3301" lon="6.01314">
        <ele>248.2</ele>
        <time>2024-08-03T08:01:36Z</time>
      </trkpt>
      <trkpt lat="47.33014" lon="6.01306">
        <ele>248.2</ele>
        <time>2024-08-03T08:01:37Z</time>
      </trkpt>
      <trkpt lat="47.33019" lon="6.01299">
        <ele>248.2</ele>
        <time>2024-08-03T08:01:38Z</time>
      </trkpt>
      <trkpt lat="47.33023" lon="6.01292">
        <ele>248</ele>
        <time>2024-08-03T08:01:39Z</time>
      </trkpt>
      <trkpt lat="47.33028" lon="6.01286">
        <ele>248</ele>
        <time>2024-08-03T08:01:40Z</time>
      </trkpt>
      <trkpt lat="47.33033" lon="6.0128">
        <ele>247.6</ele>
        <time>2024-08-03T08:01:41Z</time>
      </trkpt>
      <trkpt lat="47.33037" lon="6.01275">
        <ele>247.4</ele>
        <time>2024-08-03T08:01:42Z</time>
      </trkpt>
      <trkpt lat="47.33041" lon="6.01269">
        <ele>247</ele>
        <time>2024-08-03T08:01:43Z</time>
      </trkpt>
      <trkpt lat="47.33044" lon="6.01263">
        <ele>246.8</ele>
        <time>2024-08-03T08:01:44Z</time>
      </trkpt>
      <trkpt lat="47.33049" lon="6.01258">
        <ele>246.8</ele>
        <time>2024-08-03T08:01:45Z</time>
      </trkpt>
      <trkpt lat="47.33052" lon="6.01253">
        <ele>246.8</ele>
        <time>2024-08-03T08:01:46Z</time>
      </trkpt>
      <trkpt lat="47.33056" lon="6.01247">
        <ele>246.8</ele>
        <time>2024-08-03T08:01:47Z</time>
      </trkpt>
      <trkpt lat="47.33059" lon="6.01243">
        <ele>246.8</ele>
        <time>2024-08-03T08:01:48Z</time>
      </trkpt>
      <trkpt lat="47.33062" lon="6.01237">
        <ele>246.6</ele>
        <time>2024-08-03T08:01:49Z</time>
      </trkpt>
      <trkpt lat="47.33065" lon="6.01233">
        <ele>246.6</ele>
        <time>2024-08-03T08:01:50Z</time>
      </trkpt>
      <trkpt lat="47.33068" lon="6.01228">
        <ele>246.6</ele>
        <time>2024-08-03T08:01:51Z</time>
      </trkpt>
      <trkpt lat="47.3307" lon="6.01224">
        <ele>246.6</ele>
        <time>2024-08-03T08:01:52Z</time>
      </trkpt>
      <trkpt lat="47.33073" lon="6.01219">
        <ele>246.8</ele>
        <time>2024-08-03T08:01:53Z</time>
      </trkpt>
      <trkpt lat="47.33076" lon="6.01214">
        <ele>247</ele>
        <time>2024-08-03T08:01:54Z</time>
      </trkpt>
      <trkpt lat="47.33079" lon="6.01209">
        <ele>246.8</ele>
        <time>2024-08-03T08:01:55Z</time>
      </trkpt>
      <trkpt lat="47.33082" lon="6.01204">
        <ele>247.2</ele>
        <time>2024-08-03T08:01:56Z</time>
      </trkpt>
      <trkpt lat="47.33085" lon="6.01198">
        <ele>247.2</ele>
        <time>2024-08-03T08:01:57Z</time>
      </trkpt>
      <trkpt lat="47.33087" lon="6.01193">
        <ele>247.4</ele>
        <time>2024-08-03T08:01:58Z</time>
      </trkpt>
      <trkpt lat="47.3309" lon="6.01187">
        <ele>247.4</ele>
        <time>2024-08-03T08:01:59Z</time>
      </trkpt>
      <trkpt lat="47.33093" lon="6.01182">
        <ele>247.6</ele>
        <time>2024-08-03T08:02:00Z</time>
      </trkpt>
      <trkpt lat="47.33096" lon="6.01178">
        <ele>247.4</ele>
        <time>2024-08-03T08:02:01Z</time>
      </trkpt>
      <trkpt lat="47.33099" lon="6.01174">
        <ele>247.6</ele>
        <time>2024-08-03T08:02:02Z</time>
      </trkpt>
      <trkpt lat="47.33101" lon="6.0117">
        <ele>247.8</ele>
        <time>2024-08-03T08:02:03Z</time>
      </trkpt>
      <trkpt lat="47.33104" lon="6.01168">
        <ele>247.6</ele>
        <time>2024-08-03T08:02:04Z</time>
      </trkpt>
      <trkpt lat="47.33106" lon="6.01167">
        <ele>247.6</ele>
        <time>2024-08-03T08:02:05Z</time>
      </trkpt>
      <trkpt lat="47.33107" lon="6.01166">
        <ele>247.8</ele>
        <time>2024-08-03T08:02:06Z</time>
      </trkpt>
      <trkpt lat="47.33108" lon="6.01165">
        <ele>247.8</ele>
        <time>2024-08-03T08:02:07Z</time>
      </trkpt>
      <trkpt lat="47.3311" lon="6.01164">
        <ele>247.8</ele>
        <time>2024-08-03T08:02:08Z</time>
      </trkpt>
      <trkpt lat="47.3311" lon="6.01164">
        <ele>247.8</ele>
        <time>2024-08-03T08:02:09Z</time>
      </trkpt>
      <trkpt lat="47.33111" lon="6.01164">
        <ele>247.8</ele>
        <time>2024-08-03T08:02:10Z</time>
      </trkpt>
      <trkpt lat="47.33111" lon="6.01164">
        <ele>248</ele>
        <time>2024-08-03T08:02:11Z</time>
      </trkpt>
      <trkpt lat="47.33112" lon="6.01165">
        <ele>248</ele>
        <time>2024-08-03T08:02:12Z</time>
      </trkpt>
      <trkpt lat="47.33112" lon="6.01165">
        <ele>248</ele>
        <time>2024-08-03T08:02:13Z</time>
      </trkpt>
      <trkpt lat="47.33114" lon="6.01164">
        <ele>248.2</ele>
        <time>2024-08-03T08:02:14Z</time>
      </trkpt>
      <trkpt lat="47.33114" lon="6.01163">
        <ele>248.2</ele>
        <time>2024-08-03T08:02:15Z</time>
      </trkpt>
      <trkpt lat="47.33116" lon="6.01161">
        <ele>248.2</ele>
        <time>2024-08-03T08:02:16Z</time>
      </trkpt>
      <trkpt lat="47.33117" lon="6.01161">
        <ele>248</ele>
        <time>2024-08-03T08:02:17Z</time>
      </trkpt>
      <trkpt lat="47.33119" lon="6.01159">
        <ele>248.2</ele>
        <time>2024-08-03T08:02:18Z</time>
      </trkpt>
      <trkpt lat="47.33122" lon="6.01156">
        <ele>248.2</ele>
        <time>2024-08-03T08:02:19Z</time>
      </trkpt>
      <trkpt lat="47.33125" lon="6.01154">
        <ele>248</ele>
        <time>2024-08-03T08:02:20Z</time>
      </trkpt>
      <trkpt lat="47.3313" lon="6.0115">
        <ele>248</ele>
        <time>2024-08-03T08:02:21Z</time>
      </trkpt>
      <trkpt lat="47.33134" lon="6.01147">
        <ele>248</ele>
        <time>2024-08-03T08:02:22Z</time>
      </trkpt>
      <trkpt lat="47.33138" lon="6.01142">
        <ele>248.2</ele>
        <time>2024-08-03T08:02:23Z</time>
      </trkpt>
      <trkpt lat="47.33143" lon="6.01138">
        <ele>248</ele>
        <time>2024-08-03T08:02:24Z</time>
      </trkpt>
      <trkpt lat="47.33148" lon="6.01133">
        <ele>248</ele>
        <time>2024-08-03T08:02:25Z</time>
      </trkpt>
      <trkpt lat="47.33153" lon="6.01129">
        <ele>248</ele>
        <time>2024-08-03T08:02:26Z</time>
      </trkpt>
      <trkpt lat="47.33159" lon="6.01126">
        <ele>247.8</ele>
        <time>2024-08-03T08:02:27Z</time>
      </trkpt>
      <trkpt lat="47.33164" lon="6.01123">
        <ele>247.4</ele>
        <time>2024-08-03T08:02:28Z</time>
      </trkpt>
      <trkpt lat="47.33169" lon="6.0112">
        <ele>247.2</ele>
        <time>2024-08-03T08:02:29Z</time>
      </trkpt>
      <trkpt lat="47.33174" lon="6.01116">
        <ele>247</ele>
        <time>2024-08-03T08:02:30Z</time>
      </trkpt>
      <trkpt lat="47.33179" lon="6.01113">
        <ele>246.6</ele>
        <time>2024-08-03T08:02:31Z</time>
      </trkpt>
      <trkpt lat="47.33184" lon="6.01109">
        <ele>246.4</ele>
        <time>2024-08-03T08:02:32Z</time>
      </trkpt>
      <trkpt lat="47.33189" lon="6.01105">
        <ele>246.2</ele>
        <time>2024-08-03T08:02:33Z</time>
      </trkpt>
      <trkpt lat="47.33194" lon="6.01101">
        <ele>246.2</ele>
        <time>2024-08-03T08:02:34Z</time>
      </trkpt>
      <trkpt lat="47.33199" lon="6.01097">
        <ele>246</ele>
        <time>2024-08-03T08:02:35Z</time>
      </trkpt>
      <trkpt lat="47.33205" lon="6.01093">
        <ele>246</ele>
        <time>2024-08-03T08:02:36Z</time>
      </trkpt>
      <trkpt lat="47.3321" lon="6.0109">
        <ele>245.8</ele>
        <time>2024-08-03T08:02:37Z</time>
      </trkpt>
      <trkpt lat="47.33215" lon="6.01086">
        <ele>245.8</ele>
        <time>2024-08-03T08:02:38Z</time>
      </trkpt>
      <trkpt lat="47.3322" lon="6.01082">
        <ele>245.6</ele>
        <time>2024-08-03T08:02:39Z</time>
      </trkpt>
      <trkpt lat="47.33225" lon="6.01078">
        <ele>245.6</ele>
        <time>2024-08-03T08:02:40Z</time>
      </trkpt>
      <trkpt lat="47.33231" lon="6.01075">
        <ele>245.4</ele>
        <time>2024-08-03T08:02:41Z</time>
      </trkpt>
      <trkpt lat="47.33236" lon="6.01072">
        <ele>245.4</ele>
        <time>2024-08-03T08:02:42Z</time>
      </trkpt>
      <trkpt lat="47.3324" lon="6.01068">
        <ele>245.4</ele>
        <time>2024-08-03T08:02:43Z</time>
      </trkpt>
      <trkpt lat="47.33245" lon="6.01064">
        <ele>245.2</ele>
        <time>2024-08-03T08:02:44Z</time>
      </trkpt>
      <trkpt lat="47.33249" lon="6.0106">
        <ele>245</ele>
        <time>2024-08-03T08:02:45Z</time>
      </trkpt>
      <trkpt lat="47.33255" lon="6.01057">
        <ele>245</ele>
        <time>2024-08-03T08:02:46Z</time>
      </trkpt>
      <trkpt lat="47.3326" lon="6.01053">
        <ele>245</ele>
        <time>2024-08-03T08:02:47Z</time>
      </trkpt>
      <trkpt lat="47.33266" lon="6.0105">
        <ele>244.8</ele>
        <time>2024-08-03T08:02:48Z</time>
      </trkpt>
      <trkpt lat="47.33272" lon="6.01046">
        <ele>244.8</ele>
        <time>2024-08-03T08:02:49Z</time>
      </trkpt>
      <trkpt lat="47.33278" lon="6.01043">
        <ele>245</ele>
        <time>2024-08-03T08:02:50Z</time>
      </trkpt>
      <trkpt lat="47.33284" lon="6.0104">
        <ele>244.8</ele>
        <time>2024-08-03T08:02:51Z</time>
      </trkpt>
      <trkpt lat="47.3329" lon="6.01038">
        <ele>244.8</ele>
        <time>2024-08-03T08:02:52Z</time>
      </trkpt>
      <trkpt lat="47.33296" lon="6.01036">
        <ele>244.8</ele>
        <time>2024-08-03T08:02:53Z</time>
      </trkpt>
      <trkpt lat="47.33302" lon="6.01033">
        <ele>244.8</ele>
        <time>2024-08-03T08:02:54Z</time>
      </trkpt>
      <trkpt lat="47.33307" lon="6.01029">
        <ele>244.6</ele>
        <time>2024-08-03T08:02:55Z</time>
      </trkpt>
      <trkpt lat="47.33311" lon="6.01025">
        <ele>244.6</ele>
        <time>2024-08-03T08:02:56Z</time>
      </trkpt>
      <trkpt lat="47.33314" lon="6.01019">
        <ele>244.8</ele>
        <time>2024-08-03T08:02:57Z</time>
      </trkpt>
      <trkpt lat="47.33317" lon="6.01012">
        <ele>244.6</ele>
        <time>2024-08-03T08:02:58Z</time>
      </trkpt>
      <trkpt lat="47.33319" lon="6.01004">
        <ele>244.6</ele>
        <time>2024-08-03T08:02:59Z</time>
      </trkpt>
      <trkpt lat="47.3332" lon="6.00997">
        <ele>244.6</ele>
        <time>2024-08-03T08:03:00Z</time>
      </trkpt>
      <trkpt lat="47.3332" lon="6.00991">
        <ele>244.6</ele>
        <time>2024-08-03T08:03:01Z</time>
      </trkpt>
      <trkpt lat="47.3332" lon="6.00986">
        <ele>244.6</ele>
        <time>2024-08-03T08:03:02Z</time>
      </trkpt>
      <trkpt lat="47.33319" lon="6.00981">
        <ele>244.4</ele>
        <time>2024-08-03T08:03:03Z</time>
      </trkpt>
      <trkpt lat="47.33318" lon="6.00977">
        <ele>244.4</ele>
        <time>2024-08-03T08:03:04Z</time>
      </trkpt>
      <trkpt lat="47.33316" lon="6.00973">
        <ele>244.4</ele>
        <time>2024-08-03T08:03:05Z</time>
      </trkpt>
      <trkpt lat="47.33314" lon="6.00969">
        <ele>244.4</ele>
        <time>2024-08-03T08:03:06Z</time>
      </trkpt>
      <trkpt lat="47.33312" lon="6.00966">
        <ele>244.6</ele>
        <time>2024-08-03T08:03:07Z</time>
      </trkpt>
      <trkpt lat="47.33309" lon="6.00962">
        <ele>244.4</ele>
        <time>2024-08-03T08:03:08Z</time>
      </trkpt>
      <trkpt lat="47.33307" lon="6.00959">
        <ele>244.4</ele>
        <time>2024-08-03T08:03:09Z</time>
      </trkpt>
      <trkpt lat="47.33305" lon="6.00957">
        <ele>244.6</ele>
        <time>2024-08-03T08:03:10Z</time>
      </trkpt>
      <trkpt lat="47.33303" lon="6.00953">
        <ele>244.8</ele>
        <time>2024-08-03T08:03:11Z</time>
      </trkpt>
      <trkpt lat="47.33301" lon="6.0095">
        <ele>245</ele>
        <time>2024-08-03T08:03:12Z</time>
      </trkpt>
      <trkpt lat="47.33299" lon="6.00948">
        <ele>245.4</ele>
        <time>2024-08-03T08:03:13Z</time>
      </trkpt>
      <trkpt lat="47.33297" lon="6.00945">
        <ele>245.6</ele>
        <time>2024-08-03T08:03:14Z</time>
      </trkpt>
      <trkpt lat="47.33295" lon="6.00944">
        <ele>245.8</ele>
        <time>2024-08-03T08:03:15Z</time>
      </trkpt>
      <trkpt lat="47.33294" lon="6.00945">
        <ele>246.2</ele>
        <time>2024-08-03T08:03:16Z</time>
      </trkpt>
      <trkpt lat="47.33294" lon="6.00946">
        <ele>246.4</ele>
        <time>2024-08-03T08:03:17Z</time>
      </trkpt>
      <trkpt lat="47.33295" lon="6.00947">
        <ele>246.6</ele>
        <time>2024-08-03T08:03:18Z</time>
      </trkpt>
      <trkpt lat="47.33295" lon="6.00948">
        <ele>247</ele>
        <time>2024-08-03T08:03:19Z</time>
      </trkpt>
      <trkpt lat="47.33295" lon="6.00948">
        <ele>247.2</ele>
        <time>2024-08-03T08:03:20Z</time>
      </trkpt>
      <trkpt lat="47.33295" lon="6.00948">
        <ele>247.4</ele>
        <time>2024-08-03T08:03:21Z</time>
      </trkpt>
      <trkpt lat="47.33294" lon="6.00948">
        <ele>247.4</ele>
        <time>2024-08-03T08:03:22Z</time>
      </trkpt>
      <trkpt lat="47.33293" lon="6.00947">
        <ele>247.6</ele>
        <time>2024-08-03T08:03:23Z</time>
      </trkpt>
      <trkpt lat="47.33293" lon="6.00947">
        <ele>247.6</ele>
        <time>2024-08-03T08:03:24Z</time>
      </trkpt>
      <trkpt lat="47.33293" lon="6.00947">
        <ele>247.6</ele>
        <time>2024-08-03T08:03:25Z</time>
      </trkpt>
      <trkpt lat="47.33294" lon="6.00947">
        <ele>247.8</ele>
        <time>2024-08-03T08:03:26Z</time>
      </trkpt>
      <trkpt lat="47.33294" lon="6.00947">
        <ele>247.8</ele>
        <time>2024-08-03T08:03:27Z</time>
      </trkpt>
      <trkpt lat="47.33294" lon="6.00947">
        <ele>247.6</ele>
        <time>2024-08-03T08:03:28Z</time>
      </trkpt>
      <trkpt lat="47.33294" lon="6.00948">
        <ele>247.6</ele>
        <time>2024-08-03T08:03:29Z</time>
      </trkpt>
      <trkpt lat="47.33294" lon="6.00948">
        <ele>247.6</ele>
        <time>2024-08-03T08:03:30Z</time>
      </trkpt>
      <trkpt lat="47.33294" lon="6.00948">
        <ele>247.8</ele>
        <time>2024-08-03T08:03:31Z</time>
      </trkpt>
      <trkpt lat="47.33294" lon="6.00948">
        <ele>247.6</ele>
        <time>2024-08-03T08:03:32Z</time>
      </trkpt>
      <trkpt lat="47.33295" lon="6.00949">
        <ele>247.6</ele>
        <time>2024-08-03T08:03:33Z</time>
      </trkpt>
      <trkpt lat="47.33295" lon="6.0095">
        <ele>247.8</ele>
        <time>2024-08-03T08:03:34Z</time>
      </trkpt>
      <trkpt lat="47.33295" lon="6.0095">
        <ele>247.8</ele>
        <time>2024-08-03T08:03:35Z</time>
      </trkpt>
      <trkpt lat="47.33293" lon="6.0095">
        <ele>247.8</ele>
        <time>2024-08-03T08:03:36Z</time>
      </trkpt>
      <trkpt lat="47.33291" lon="6.00949">
        <ele>247.8</ele>
        <time>2024-08-03T08:03:37Z</time>
      </trkpt>
      <trkpt lat="47.3329" lon="6.00949">
        <ele>247.6</ele>
        <time>2024-08-03T08:03:38Z</time>
      </trkpt>
      <trkpt lat="47.33288" lon="6.00949">
        <ele>247.8</ele>
        <time>2024-08-03T08:03:39Z</time>
      </trkpt>
      <trkpt lat="47.33287" lon="6.00948">
        <ele>247.8</ele>
        <time>2024-08-03T08:03:40Z</time>
      </trkpt>
      <trkpt lat="47.33287" lon="6.00948">
        <ele>247.8</ele>
        <time>2024-08-03T08:03:41Z</time>
      </trkpt>
      <trkpt lat="47.33286" lon="6.00948">
        <ele>247.8</ele>
        <time>2024-08-03T08:03:42Z</time>
      </trkpt>
      <trkpt lat="47.33286" lon="6.00948">
        <ele>247.8</ele>
        <time>2024-08-03T08:03:43Z</time>
      </trkpt>
      <trkpt lat="47.33285" lon="6.00948">
        <ele>247.8</ele>
        <time>2024-08-03T08:03:44Z</time>
      </trkpt>
      <trkpt lat="47.33285" lon="6.00948">
        <ele>247.8</ele>
        <time>2024-08-03T08:03:45Z</time>
      </trkpt>
      <trkpt lat="47.33284" lon="6.00947">
        <ele>248</ele>
        <time>2024-08-03T08:03:46Z</time>
      </trkpt>
      <trkpt lat="47.33284" lon="6.00947">
        <ele>248</ele>
        <time>2024-08-03T08:03:47Z</time>
      </trkpt>
      <trkpt lat="47.33284" lon="6.00948">
        <ele>248</ele>
        <time>2024-08-03T08:03:48Z</time>
      </trkpt>
      <trkpt lat="47.33284" lon="6.00948">
        <ele>248</ele>
        <time>2024-08-03T08:03:49Z</time>
      </trkpt>
      <trkpt lat="47.33284" lon="6.00948">
        <ele>248</ele>
        <time>2024-08-03T08:03:50Z</time>
      </trkpt>
      <trkpt lat="47.33284" lon="6.00949">
        <ele>247.8</ele>
        <time>2024-08-03T08:03:51Z</time>
      </trkpt>
      <trkpt lat="47.33284" lon="6.00949">
        <ele>248</ele>
        <time>2024-08-03T08:03:52Z</time>
      </trkpt>
      <trkpt lat="47.33284" lon="6.00949">
        <ele>247.8</ele>
        <time>2024-08-03T08:03:53Z</time>
      </trkpt>
      <trkpt lat="47.33284" lon="6.00949">
        <ele>248</ele>
        <time>2024-08-03T08:03:54Z</time>
      </trkpt>
      <trkpt lat="47.33284" lon="6.00949">
        <ele>248</ele>
        <time>2024-08-03T08:03:55Z</time>
      </trkpt>
      <trkpt lat="47.33284" lon="6.00949">
        <ele>248</ele>
        <time>2024-08-03T08:03:56Z</time>
      </trkpt>
      <trkpt lat="47.33284" lon="6.00949">
        <ele>248</ele>
        <time>2024-08-03T08:03:57Z</time>
      </trkpt>
      <trkpt lat="47.33284" lon="6.00949">
        <ele>248.2</ele>
        <time>2024-08-03T08:03:58Z</time>
      </trkpt>
      <trkpt lat="47.33284" lon="6.0095">
        <ele>248</ele>
        <time>2024-08-03T08:03:59Z</time>
      </trkpt>
      <trkpt lat="47.33284" lon="6.0095">
        <ele>248</ele>
        <time>2024-08-03T08:04:00Z</time>
      </trkpt>
      <trkpt lat="47.33285" lon="6.0095">
        <ele>248.2</ele>
        <time>2024-08-03T08:04:01Z</time>
      </trkpt>
      <trkpt lat="47.33285" lon="6.00951">
        <ele>248</ele>
        <time>2024-08-03T08:04:02Z</time>
      </trkpt>
      <trkpt lat="47.33284" lon="6.00951">
        <ele>248.2</ele>
        <time>2024-08-03T08:04:03Z</time>
      </trkpt>
      <trkpt lat="47.33284" lon="6.00949">
        <ele>248.2</ele>
        <time>2024-08-03T08:04:04Z</time>
      </trkpt>
      <trkpt lat="47.33285" lon="6.00948">
        <ele>248.2</ele>
        <time>2024-08-03T08:04:05Z</time>
      </trkpt>
      <trkpt lat="47.33286" lon="6.00947">
        <ele>248.2</ele>
        <time>2024-08-03T08:04:06Z</time>
      </trkpt>
      <trkpt lat="47.33286" lon="6.00945">
        <ele>248.2</ele>
        <time>2024-08-03T08:04:07Z</time>
      </trkpt>
      <trkpt lat="47.33289" lon="6.00943">
        <ele>248.2</ele>
        <time>2024-08-03T08:04:08Z</time>
      </trkpt>
      <trkpt lat="47.3329" lon="6.00942">
        <ele>248</ele>
        <time>2024-08-03T08:04:09Z</time>
      </trkpt>
      <trkpt lat="47.3329" lon="6.00942">
        <ele>248.2</ele>
        <time>2024-08-03T08:04:10Z</time>
      </trkpt>
      <trkpt lat="47.3329" lon="6.00941">
        <ele>248.2</ele>
        <time>2024-08-03T08:04:11Z</time>
      </trkpt>
      <trkpt lat="47.33289" lon="6.00941">
        <ele>248.2</ele>
        <time>2024-08-03T08:04:12Z</time>
      </trkpt>
      <trkpt lat="47.33289" lon="6.00941">
        <ele>248</ele>
        <time>2024-08-03T08:04:13Z</time>
      </trkpt>
      <trkpt lat="47.33289" lon="6.00941">
        <ele>248</ele>
        <time>2024-08-03T08:04:14Z</time>
      </trkpt>
      <trkpt lat="47.3329" lon="6.00941">
        <ele>248</ele>
        <time>2024-08-03T08:04:15Z</time>
      </trkpt>
      <trkpt lat="47.3329" lon="6.00941">
        <ele>248</ele>
        <time>2024-08-03T08:04:16Z</time>
      </trkpt>
      <trkpt lat="47.33291" lon="6.00941">
        <ele>248</ele>
        <time>2024-08-03T08:04:17Z</time>
      </trkpt>
      <trkpt lat="47.33291" lon="6.00942">
        <ele>248</ele>
        <time>2024-08-03T08:04:18Z</time>
      </trkpt>
      <trkpt lat="47.33293" lon="6.00942">
        <ele>248</ele>
        <time>2024-08-03T08:04:19Z</time>
      </trkpt>
      <trkpt lat="47.33293" lon="6.00942">
        <ele>247.8</ele>
        <time>2024-08-03T08:04:20Z</time>
      </trkpt>
      <trkpt lat="47.33293" lon="6.00942">
        <ele>248</ele>
        <time>2024-08-03T08:04:21Z</time>
      </trkpt>
      <trkpt lat="47.33294" lon="6.00942">
        <ele>248</ele>
        <time>2024-08-03T08:04:22Z</time>
      </trkpt>
      <trkpt lat="47.33295" lon="6.00942">
        <ele>248</ele>
        <time>2024-08-03T08:04:23Z</time>
      </trkpt>
      <trkpt lat="47.33296" lon="6.00941">
        <ele>247.8</ele>
        <time>2024-08-03T08:04:24Z</time>
      </trkpt>
      <trkpt lat="47.33297" lon="6.00941">
        <ele>247.8</ele>
        <time>2024-08-03T08:04:25Z</time>
      </trkpt>
      <trkpt lat="47.33298" lon="6.00941">
        <ele>247.8</ele>
        <time>2024-08-03T08:04:26Z</time>
      </trkpt>
      <trkpt lat="47.33298" lon="6.00941">
        <ele>248</ele>
        <time>2024-08-03T08:04:27Z</time>
      </trkpt>
      <trkpt lat="47.33298" lon="6.00941">
        <ele>248</ele>
        <time>2024-08-03T08:04:28Z</time>
      </trkpt>
      <trkpt lat="47.33298" lon="6.00941">
        <ele>248</ele>
        <time>2024-08-03T08:04:29Z</time>
      </trkpt>
      <trkpt lat="47.33298" lon="6.00941">
        <ele>248</ele>
        <time>2024-08-03T08:04:30Z</time>
      </trkpt>
      <trkpt lat="47.33298" lon="6.00941">
        <ele>248</ele>
        <time>2024-08-03T08:04:31Z</time>
      </trkpt>
      <trkpt lat="47.33298" lon="6.0094">
        <ele>248</ele>
        <time>2024-08-03T08:04:32Z</time>
      </trkpt>
      <trkpt lat="47.33298" lon="6.0094">
        <ele>248</ele>
        <time>2024-08-03T08:04:33Z</time>
      </trkpt>
      <trkpt lat="47.33298" lon="6.0094">
        <ele>248</ele>
        <time>2024-08-03T08:04:34Z</time>
      </trkpt>
      <trkpt lat="47.33297" lon="6.00939">
        <ele>248</ele>
        <time>2024-08-03T08:04:35Z</time>
      </trkpt>
      <trkpt lat="47.33297" lon="6.00938">
        <ele>248</ele>
        <time>2024-08-03T08:04:36Z</time>
      </trkpt>
      <trkpt lat="47.33296" lon="6.00937">
        <ele>248</ele>
        <time>2024-08-03T08:04:37Z</time>
      </trkpt>
      <trkpt lat="47.33294" lon="6.00935">
        <ele>248</ele>
        <time>2024-08-03T08:04:38Z</time>
      </trkpt>
      <trkpt lat="47.33293" lon="6.00934">
        <ele>248.2</ele>
        <time>2024-08-03T08:04:39Z</time>
      </trkpt>
      <trkpt lat="47.33292" lon="6.00933">
        <ele>248</ele>
        <time>2024-08-03T08:04:40Z</time>
      </trkpt>
      <trkpt lat="47.33291" lon="6.00931">
        <ele>248.2</ele>
        <time>2024-08-03T08:04:41Z</time>
      </trkpt>
      <trkpt lat="47.3329" lon="6.0093">
        <ele>248</ele>
        <time>2024-08-03T08:04:42Z</time>
      </trkpt>
      <trkpt lat="47.33289" lon="6.00928">
        <ele>248</ele>
        <time>2024-08-03T08:04:43Z</time>
      </trkpt>
      <trkpt lat="47.33287" lon="6.00927">
        <ele>248.2</ele>
        <time>2024-08-03T08:04:44Z</time>
      </trkpt>
      <trkpt lat="47.33286" lon="6.00925">
        <ele>248.2</ele>
        <time>2024-08-03T08:04:45Z</time>
      </trkpt>
      <trkpt lat="47.33284" lon="6.00922">
        <ele>248.4</ele>
        <time>2024-08-03T08:04:46Z</time>
      </trkpt>
      <trkpt lat="47.33283" lon="6.0092">
        <ele>248.2</ele>
        <time>2024-08-03T08:04:47Z</time>
      </trkpt>
      <trkpt lat="47.33281" lon="6.00918">
        <ele>248.4</ele>
        <time>2024-08-03T08:04:48Z</time>
      </trkpt>
      <trkpt lat="47.33279" lon="6.00916">
        <ele>248.6</ele>
        <time>2024-08-03T08:04:49Z</time>
      </trkpt>
      <trkpt lat="47.33277" lon="6.00913">
        <ele>248.8</ele>
        <time>2024-08-03T08:04:50Z</time>
      </trkpt>
      <trkpt lat="47.33275" lon="6.00911">
        <ele>249</ele>
        <time>2024-08-03T08:04:51Z</time>
      </trkpt>
      <trkpt lat="47.33273" lon="6.00909">
        <ele>249</ele>
        <time>2024-08-03T08:04:52Z</time>
      </trkpt>
      <trkpt lat="47.33271" lon="6.00906">
        <ele>249</ele>
        <time>2024-08-03T08:04:53Z</time>
      </trkpt>
      <trkpt lat="47.33269" lon="6.00904">
        <ele>249</ele>
        <time>2024-08-03T08:04:54Z</time>
      </trkpt>
      <trkpt lat="47.33267" lon="6.00902">
        <ele>249.2</ele>
        <time>2024-08-03T08:04:55Z</time>
      </trkpt>
      <trkpt lat="47.33265" lon="6.009">
        <ele>249.2</ele>
        <time>2024-08-03T08:04:56Z</time>
      </trkpt>
      <trkpt lat="47.33264" lon="6.00899">
        <ele>249.2</ele>
        <time>2024-08-03T08:04:57Z</time>
      </trkpt>
      <trkpt lat="47.33262" lon="6.00897">
        <ele>249.6</ele>
        <time>2024-08-03T08:04:58Z</time>
      </trkpt>
      <trkpt lat="47.3326" lon="6.00894">
        <ele>249.8</ele>
        <time>2024-08-03T08:04:59Z</time>
      </trkpt>
      <trkpt lat="47.33257" lon="6.00891">
        <ele>250</ele>
        <time>2024-08-03T08:05:00Z</time>
      </trkpt>
      <trkpt lat="47.33253" lon="6.00888">
        <ele>250.2</ele>
        <time>2024-08-03T08:05:01Z</time>
      </trkpt>
      <trkpt lat="47.33251" lon="6.00886">
        <ele>250.6</ele>
        <time>2024-08-03T08:05:02Z</time>
      </trkpt>
      <trkpt lat="47.3325" lon="6.00883">
        <ele>250.6</ele>
        <time>2024-08-03T08:05:03Z</time>
      </trkpt>
      <trkpt lat="47.33248" lon="6.0088">
        <ele>251</ele>
        <time>2024-08-03T08:05:04Z</time>
      </trkpt>
      <trkpt lat="47.33247" lon="6.00876">
        <ele>251</ele>
        <time>2024-08-03T08:05:05Z</time>
      </trkpt>
      <trkpt lat="47.33245" lon="6.00872">
        <ele>251.4</ele>
        <time>2024-08-03T08:05:06Z</time>
      </trkpt>
      <trkpt lat="47.33244" lon="6.00868">
        <ele>251.8</ele>
        <time>2024-08-03T08:05:07Z</time>
      </trkpt>
      <trkpt lat="47.33243" lon="6.00864">
        <ele>252</ele>
        <time>2024-08-03T08:05:08Z</time>
      </trkpt>
      <trkpt lat="47.33243" lon="6.0086">
        <ele>252</ele>
        <time>2024-08-03T08:05:09Z</time>
      </trkpt>
      <trkpt lat="47.33243" lon="6.00856">
        <ele>252.2</ele>
        <time>2024-08-03T08:05:10Z</time>
      </trkpt>
      <trkpt lat="47.33245" lon="6.00851">
        <ele>252.4</ele>
        <time>2024-08-03T08:05:11Z</time>
      </trkpt>
      <trkpt lat="47.33247" lon="6.00846">
        <ele>252.6</ele>
        <time>2024-08-03T08:05:12Z</time>
      </trkpt>
      <trkpt lat="47.33249" lon="6.00841">
        <ele>252.8</ele>
        <time>2024-08-03T08:05:13Z</time>
      </trkpt>
      <trkpt lat="47.33251" lon="6.00836">
        <ele>253.4</ele>
        <time>2024-08-03T08:05:14Z</time>
      </trkpt>
      <trkpt lat="47.33253" lon="6.00831">
        <ele>253.4</ele>
        <time>2024-08-03T08:05:15Z</time>
      </trkpt>
      <trkpt lat="47.33255" lon="6.00827">
        <ele>253.4</ele>
        <time>2024-08-03T08:05:16Z</time>
      </trkpt>
      <trkpt lat="47.33256" lon="6.00823">
        <ele>253.8</ele>
        <time>2024-08-03T08:05:17Z</time>
      </trkpt>
      <trkpt lat="47.33257" lon="6.00819">
        <ele>254</ele>
        <time>2024-08-03T08:05:18Z</time>
      </trkpt>
      <trkpt lat="47.33258" lon="6.00815">
        <ele>254.4</ele>
        <time>2024-08-03T08:05:19Z</time>
      </trkpt>
      <trkpt lat="47.3326" lon="6.00811">
        <ele>254.4</ele>
        <time>2024-08-03T08:05:20Z</time>
      </trkpt>
      <trkpt lat="47.33261" lon="6.00807">
        <ele>254.8</ele>
        <time>2024-08-03T08:05:21Z</time>
      </trkpt>
      <trkpt lat="47.33262" lon="6.00802">
        <ele>255</ele>
        <time>2024-08-03T08:05:22Z</time>
      </trkpt>
      <trkpt lat="47.33263" lon="6.00798">
        <ele>255</ele>
        <time>2024-08-03T08:05:23Z</time>
      </trkpt>
      <trkpt lat="47.33265" lon="6.00793">
        <ele>255.2</ele>
        <time>2024-08-03T08:05:24Z</time>
      </trkpt>
      <trkpt lat="47.33266" lon="6.00788">
        <ele>255</ele>
        <time>2024-08-03T08:05:25Z</time>
      </trkpt>
      <trkpt lat="47.33268" lon="6.00782">
        <ele>255</ele>
        <time>2024-08-03T08:05:26Z</time>
      </trkpt>
      <trkpt lat="47.33269" lon="6.00776">
        <ele>255.2</ele>
        <time>2024-08-03T08:05:27Z</time>
      </trkpt>
      <trkpt lat="47.33271" lon="6.00769">
        <ele>255</ele>
        <time>2024-08-03T08:05:28Z</time>
      </trkpt>
      <trkpt lat="47.33273" lon="6.00761">
        <ele>255.2</ele>
        <time>2024-08-03T08:05:29Z</time>
      </trkpt>
      <trkpt lat="47.33276" lon="6.00753">
        <ele>255.2</ele>
        <time>2024-08-03T08:05:30Z</time>
      </trkpt>
      <trkpt lat="47.33277" lon="6.00745">
        <ele>255.2</ele>
        <time>2024-08-03T08:05:31Z</time>
      </trkpt>
      <trkpt lat="47.33279" lon="6.00737">
        <ele>255</ele>
        <time>2024-08-03T08:05:32Z</time>
      </trkpt>
      <trkpt lat="47.33282" lon="6.00728">
        <ele>255</ele>
        <time>2024-08-03T08:05:33Z</time>
      </trkpt>
      <trkpt lat="47.33284" lon="6.0072">
        <ele>255</ele>
        <time>2024-08-03T08:05:34Z</time>
      </trkpt>
      <trkpt lat="47.33286" lon="6.00711">
        <ele>254.8</ele>
        <time>2024-08-03T08:05:35Z</time>
      </trkpt>
      <trkpt lat="47.33289" lon="6.00703">
        <ele>254.6</ele>
        <time>2024-08-03T08:05:36Z</time>
      </trkpt>
      <trkpt lat="47.33292" lon="6.00695">
        <ele>254.4</ele>
        <time>2024-08-03T08:05:37Z</time>
      </trkpt>
      <trkpt lat="47.33294" lon="6.00687">
        <ele>254.4</ele>
        <time>2024-08-03T08:05:38Z</time>
      </trkpt>
      <trkpt lat="47.33297" lon="6.00678">
        <ele>254.4</ele>
        <time>2024-08-03T08:05:39Z</time>
      </trkpt>
      <trkpt lat="47.33299" lon="6.0067">
        <ele>254.2</ele>
        <time>2024-08-03T08:05:40Z</time>
      </trkpt>
      <trkpt lat="47.33302" lon="6.00662">
        <ele>254</ele>
        <time>2024-08-03T08:05:41Z</time>
      </trkpt>
      <trkpt lat="47.33305" lon="6.00654">
        <ele>254</ele>
        <time>2024-08-03T08:05:42Z</time>
      </trkpt>
      <trkpt lat="47.33308" lon="6.00647">
        <ele>253.8</ele>
        <time>2024-08-03T08:05:43Z</time>
      </trkpt>
      <trkpt lat="47.33311" lon="6.00639">
        <ele>253.6</ele>
        <time>2024-08-03T08:05:44Z</time>
      </trkpt>
      <trkpt lat="47.33314" lon="6.00632">
        <ele>253.4</ele>
        <time>2024-08-03T08:05:45Z</time>
      </trkpt>
      <trkpt lat="47.33317" lon="6.00624">
        <ele>253.2</ele>
        <time>2024-08-03T08:05:46Z</time>
      </trkpt>
      <trkpt lat="47.33319" lon="6.00617">
        <ele>253</ele>
        <time>2024-08-03T08:05:47Z</time>
      </trkpt>
      <trkpt lat="47.33322" lon="6.0061">
        <ele>253</ele>
        <time>2024-08-03T08:05:48Z</time>
      </trkpt>
      <trkpt lat="47.33325" lon="6.00603">
        <ele>253</ele>
        <time>2024-08-03T08:05:49Z</time>
      </trkpt>
      <trkpt lat="47.33327" lon="6.00595">
        <ele>253</ele>
        <time>2024-08-03T08:05:50Z</time>
      </trkpt>
      <trkpt lat="47.3333" lon="6.00588">
        <ele>252.8</ele>
        <time>2024-08-03T08:05:51Z</time>
      </trkpt>
      <trkpt lat="47.33333" lon="6.00581">
        <ele>252.6</ele>
        <time>2024-08-03T08:05:52Z</time>
      </trkpt>
      <trkpt lat="47.33336" lon="6.00574">
        <ele>252.8</ele>
        <time>2024-08-03T08:05:53Z</time>
      </trkpt>
      <trkpt lat="47.33348" lon="6.00547">
        <ele>252.6</ele>
        <time>2024-08-03T08:05:57Z</time>
      </trkpt>
      <trkpt lat="47.3335" lon="6.00539">
        <ele>252.4</ele>
        <time>2024-08-03T08:05:58Z</time>
      </trkpt>
      <trkpt lat="47.33354" lon="6.00531">
        <ele>252.4</ele>
        <time>2024-08-03T08:05:59Z</time>
      </trkpt>
      <trkpt lat="47.33357" lon="6.00522">
        <ele>252.4</ele>
        <time>2024-08-03T08:06:00Z</time>
      </trkpt>
      <trkpt lat="47.3336" lon="6.00513">
        <ele>252.4</ele>
        <time>2024-08-03T08:06:01Z</time>
      </trkpt>
      <trkpt lat="47.33362" lon="6.00505">
        <ele>252.4</ele>
        <time>2024-08-03T08:06:02Z</time>
      </trkpt>
      <trkpt lat="47.33367" lon="6.00497">
        <ele>252.4</ele>
        <time>2024-08-03T08:06:03Z</time>
      </trkpt>
      <trkpt lat="47.3337" lon="6.00491">
        <ele>252.2</ele>
        <time>2024-08-03T08:06:04Z</time>
      </trkpt>
      <trkpt lat="47.33373" lon="6.00485">
        <ele>252.4</ele>
        <time>2024-08-03T08:06:05Z</time>
      </trkpt>
      <trkpt lat="47.33376" lon="6.0048">
        <ele>252.4</ele>
        <time>2024-08-03T08:06:06Z</time>
      </trkpt>
      <trkpt lat="47.33378" lon="6.00475">
        <ele>252.4</ele>
        <time>2024-08-03T08:06:07Z</time>
      </trkpt>
      <trkpt lat="47.3338" lon="6.0047">
        <ele>252.4</ele>
        <time>2024-08-03T08:06:08Z</time>
      </trkpt>
      <trkpt lat="47.33382" lon="6.00466">
        <ele>252.4</ele>
        <time>2024-08-03T08:06:09Z</time>
      </trkpt>
      <trkpt lat="47.33385" lon="6.00461">
        <ele>252.4</ele>
        <time>2024-08-03T08:06:10Z</time>
      </trkpt>
      <trkpt lat="47.33387" lon="6.00456">
        <ele>252.4</ele>
        <time>2024-08-03T08:06:11Z</time>
      </trkpt>
      <trkpt lat="47.33389" lon="6.00451">
        <ele>252.6</ele>
        <time>2024-08-03T08:06:12Z</time>
      </trkpt>
      <trkpt lat="47.3339" lon="6.00446">
        <ele>252.8</ele>
        <time>2024-08-03T08:06:13Z</time>
      </trkpt>
      <trkpt lat="47.33391" lon="6.00442">
        <ele>253.2</ele>
        <time>2024-08-03T08:06:14Z</time>
      </trkpt>
      <trkpt lat="47.33393" lon="6.00437">
        <ele>253.4</ele>
        <time>2024-08-03T08:06:15Z</time>
      </trkpt>
      <trkpt lat="47.33393" lon="6.00432">
        <ele>253.6</ele>
        <time>2024-08-03T08:06:16Z</time>
      </trkpt>
      <trkpt lat="47.33394" lon="6.00428">
        <ele>254</ele>
        <time>2024-08-03T08:06:17Z</time>
      </trkpt>
      <trkpt lat="47.33395" lon="6.00423">
        <ele>254.2</ele>
        <time>2024-08-03T08:06:18Z</time>
      </trkpt>
      <trkpt lat="47.33396" lon="6.00418">
        <ele>254.4</ele>
        <time>2024-08-03T08:06:19Z</time>
      </trkpt>
      <trkpt lat="47.33398" lon="6.00413">
        <ele>254.6</ele>
        <time>2024-08-03T08:06:20Z</time>
      </trkpt>
      <trkpt lat="47.33398" lon="6.00408">
        <ele>254.8</ele>
        <time>2024-08-03T08:06:21Z</time>
      </trkpt>
      <trkpt lat="47.33399" lon="6.00403">
        <ele>254.8</ele>
        <time>2024-08-03T08:06:22Z</time>
      </trkpt>
      <trkpt lat="47.334" lon="6.00398">
        <ele>255</ele>
        <time>2024-08-03T08:06:23Z</time>
      </trkpt>
      <trkpt lat="47.33401" lon="6.00393">
        <ele>255.4</ele>
        <time>2024-08-03T08:06:24Z</time>
      </trkpt>
      <trkpt lat="47.33402" lon="6.00388">
        <ele>255.6</ele>
        <time>2024-08-03T08:06:25Z</time>
      </trkpt>
      <trkpt lat="47.33403" lon="6.00382">
        <ele>255.8</ele>
        <time>2024-08-03T08:06:26Z</time>
      </trkpt>
      <trkpt lat="47.33403" lon="6.00377">
        <ele>256.2</ele>
        <time>2024-08-03T08:06:27Z</time>
      </trkpt>
      <trkpt lat="47.33403" lon="6.00372">
        <ele>256.2</ele>
        <time>2024-08-03T08:06:28Z</time>
      </trkpt>
      <trkpt lat="47.33404" lon="6.00367">
        <ele>256.4</ele>
        <time>2024-08-03T08:06:29Z</time>
      </trkpt>
      <trkpt lat="47.33404" lon="6.00363">
        <ele>256.8</ele>
        <time>2024-08-03T08:06:30Z</time>
      </trkpt>
      <trkpt lat="47.33404" lon="6.00358">
        <ele>257</ele>
        <time>2024-08-03T08:06:31Z</time>
      </trkpt>
      <trkpt lat="47.33404" lon="6.00352">
        <ele>257.4</ele>
        <time>2024-08-03T08:06:32Z</time>
      </trkpt>
      <trkpt lat="47.33404" lon="6.00347">
        <ele>257.8</ele>
        <time>2024-08-03T08:06:33Z</time>
      </trkpt>
      <trkpt lat="47.33404" lon="6.00342">
        <ele>257.8</ele>
        <time>2024-08-03T08:06:34Z</time>
      </trkpt>
      <trkpt lat="47.33404" lon="6.00338">
        <ele>258.2</ele>
        <time>2024-08-03T08:06:35Z</time>
      </trkpt>
      <trkpt lat="47.33404" lon="6.00333">
        <ele>258.4</ele>
        <time>2024-08-03T08:06:36Z</time>
      </trkpt>
      <trkpt lat="47.33405" lon="6.00328">
        <ele>258.6</ele>
        <time>2024-08-03T08:06:37Z</time>
      </trkpt>
      <trkpt lat="47.33405" lon="6.00323">
        <ele>258.8</ele>
        <time>2024-08-03T08:06:38Z</time>
      </trkpt>
      <trkpt lat="47.33405" lon="6.00318">
        <ele>259.2</ele>
        <time>2024-08-03T08:06:39Z</time>
      </trkpt>
      <trkpt lat="47.33406" lon="6.00313">
        <ele>259.4</ele>
        <time>2024-08-03T08:06:40Z</time>
      </trkpt>
      <trkpt lat="47.33406" lon="6.00307">
        <ele>259.6</ele>
        <time>2024-08-03T08:06:41Z</time>
      </trkpt>
      <trkpt lat="47.33406" lon="6.00302">
        <ele>260</ele>
        <time>2024-08-03T08:06:42Z</time>
      </trkpt>
      <trkpt lat="47.33406" lon="6.00297">
        <ele>260</ele>
        <time>2024-08-03T08:06:43Z</time>
      </trkpt>
      <trkpt lat="47.33407" lon="6.00291">
        <ele>260</ele>
        <time>2024-08-03T08:06:44Z</time>
      </trkpt>
      <trkpt lat="47.33407" lon="6.00286">
        <ele>260.2</ele>
        <time>2024-08-03T08:06:45Z</time>
      </trkpt>
      <trkpt lat="47.33407" lon="6.0028">
        <ele>260.6</ele>
        <time>2024-08-03T08:06:46Z</time>
      </trkpt>
      <trkpt lat="47.33406" lon="6.00274">
        <ele>260.6</ele>
        <time>2024-08-03T08:06:47Z</time>
      </trkpt>
      <trkpt lat="47.33406" lon="6.00268">
        <ele>260.6</ele>
        <time>2024-08-03T08:06:48Z</time>
      </trkpt>
      <trkpt lat="47.33405" lon="6.00261">
        <ele>260.8</ele>
        <time>2024-08-03T08:06:49Z</time>
      </trkpt>
      <trkpt lat="47.33403" lon="6.00254">
        <ele>260.6</ele>
        <time>2024-08-03T08:06:50Z</time>
      </trkpt>
      <trkpt lat="47.33403" lon="6.00246">
        <ele>260.6</ele>
        <time>2024-08-03T08:06:51Z</time>
      </trkpt>
      <trkpt lat="47.33401" lon="6.00238">
        <ele>260.6</ele>
        <time>2024-08-03T08:06:52Z</time>
      </trkpt>
      <trkpt lat="47.334" lon="6.00229">
        <ele>260.6</ele>
        <time>2024-08-03T08:06:53Z</time>
      </trkpt>
      <trkpt lat="47.33398" lon="6.0022">
        <ele>260.8</ele>
        <time>2024-08-03T08:06:54Z</time>
      </trkpt>
      <trkpt lat="47.33396" lon="6.00211">
        <ele>260.8</ele>
        <time>2024-08-03T08:06:55Z</time>
      </trkpt>
      <trkpt lat="47.33394" lon="6.00202">
        <ele>260.6</ele>
        <time>2024-08-03T08:06:56Z</time>
      </trkpt>
      <trkpt lat="47.33392" lon="6.00193">
        <ele>260.6</ele>
        <time>2024-08-03T08:06:57Z</time>
      </trkpt>
      <trkpt lat="47.33391" lon="6.00185">
        <ele>260.4</ele>
        <time>2024-08-03T08:06:58Z</time>
      </trkpt>
      <trkpt lat="47.3339" lon="6.00177">
        <ele>260.2</ele>
        <time>2024-08-03T08:06:59Z</time>
      </trkpt>
      <trkpt lat="47.33388" lon="6.00169">
        <ele>259.8</ele>
        <time>2024-08-03T08:07:00Z</time>
      </trkpt>
      <trkpt lat="47.33387" lon="6.00162">
        <ele>259.4</ele>
        <time>2024-08-03T08:07:01Z</time>
      </trkpt>
      <trkpt lat="47.33386" lon="6.00156">
        <ele>259.2</ele>
        <time>2024-08-03T08:07:02Z</time>
      </trkpt>
      <trkpt lat="47.33386" lon="6.0015">
        <ele>258.6</ele>
        <time>2024-08-03T08:07:03Z</time>
      </trkpt>
      <trkpt lat="47.33385" lon="6.00146">
        <ele>258</ele>
        <time>2024-08-03T08:07:04Z</time>
      </trkpt>
      <trkpt lat="47.33384" lon="6.00143">
        <ele>257.6</ele>
        <time>2024-08-03T08:07:05Z</time>
      </trkpt>
      <trkpt lat="47.33382" lon="6.0014">
        <ele>257.6</ele>
        <time>2024-08-03T08:07:06Z</time>
      </trkpt>
      <trkpt lat="47.3338" lon="6.00139">
        <ele>257</ele>
        <time>2024-08-03T08:07:07Z</time>
      </trkpt>
      <trkpt lat="47.33378" lon="6.00139">
        <ele>256.6</ele>
        <time>2024-08-03T08:07:08Z</time>
      </trkpt>
      <trkpt lat="47.33376" lon="6.0014">
        <ele>256</ele>
        <time>2024-08-03T08:07:09Z</time>
      </trkpt>
      <trkpt lat="47.33374" lon="6.00142">
        <ele>255.8</ele>
        <time>2024-08-03T08:07:10Z</time>
      </trkpt>
      <trkpt lat="47.33372" lon="6.00145">
        <ele>255.6</ele>
        <time>2024-08-03T08:07:11Z</time>
      </trkpt>
      <trkpt lat="47.33371" lon="6.00148">
        <ele>255.6</ele>
        <time>2024-08-03T08:07:12Z</time>
      </trkpt>
      <trkpt lat="47.33369" lon="6.00152">
        <ele>255.6</ele>
        <time>2024-08-03T08:07:13Z</time>
      </trkpt>
      <trkpt lat="47.33368" lon="6.00155">
        <ele>255.4</ele>
        <time>2024-08-03T08:07:14Z</time>
      </trkpt>
      <trkpt lat="47.33367" lon="6.00157">
        <ele>255.6</ele>
        <time>2024-08-03T08:07:15Z</time>
      </trkpt>
      <trkpt lat="47.33366" lon="6.0016">
        <ele>255.6</ele>
        <time>2024-08-03T08:07:16Z</time>
      </trkpt>
      <trkpt lat="47.33366" lon="6.00162">
        <ele>255.4</ele>
        <time>2024-08-03T08:07:17Z</time>
      </trkpt>
      <trkpt lat="47.33366" lon="6.00163">
        <ele>255.6</ele>
        <time>2024-08-03T08:07:18Z</time>
      </trkpt>
      <trkpt lat="47.33366" lon="6.00164">
        <ele>255.8</ele>
        <time>2024-08-03T08:07:19Z</time>
      </trkpt>
      <trkpt lat="47.33366" lon="6.00166">
        <ele>255.8</ele>
        <time>2024-08-03T08:07:20Z</time>
      </trkpt>
      <trkpt lat="47.33366" lon="6.00167">
        <ele>256</ele>
        <time>2024-08-03T08:07:21Z</time>
      </trkpt>
      <trkpt lat="47.33366" lon="6.00168">
        <ele>256.2</ele>
        <time>2024-08-03T08:07:22Z</time>
      </trkpt>
      <trkpt lat="47.33366" lon="6.00169">
        <ele>256.2</ele>
        <time>2024-08-03T08:07:23Z</time>
      </trkpt>
      <trkpt lat="47.33366" lon="6.0017">
        <ele>256.4</ele>
        <time>2024-08-03T08:07:24Z</time>
      </trkpt>
      <trkpt lat="47.33367" lon="6.00171">
        <ele>256.2</ele>
        <time>2024-08-03T08:07:25Z</time>
      </trkpt>
      <trkpt lat="47.33367" lon="6.00171">
        <ele>256.4</ele>
        <time>2024-08-03T08:07:26Z</time>
      </trkpt>
      <trkpt lat="47.33366" lon="6.00172">
        <ele>256.4</ele>
        <time>2024-08-03T08:07:27Z</time>
      </trkpt>
      <trkpt lat="47.33366" lon="6.00172">
        <ele>256.4</ele>
        <time>2024-08-03T08:07:28Z</time>
      </trkpt>
      <trkpt lat="47.33366" lon="6.00172">
        <ele>256.4</ele>
        <time>2024-08-03T08:07:29Z</time>
      </trkpt>
      <trkpt lat="47.33366" lon="6.00172">
        <ele>256.4</ele>
        <time>2024-08-03T08:07:30Z</time>
      </trkpt>
      <trkpt lat="47.33366" lon="6.00172">
        <ele>256.4</ele>
        <time>2024-08-03T08:07:31Z</time>
      </trkpt>
      <trkpt lat="47.33367" lon="6.00172">
        <ele>256.4</ele>
        <time>2024-08-03T08:07:32Z</time>
      </trkpt>
      <trkpt lat="47.33367" lon="6.00172">
        <ele>256.4</ele>
        <time>2024-08-03T08:07:33Z</time>
      </trkpt>
      <trkpt lat="47.33367" lon="6.00172">
        <ele>256.4</ele>
        <time>2024-08-03T08:07:34Z</time>
      </trkpt>
      <trkpt lat="47.33367" lon="6.00171">
        <ele>256.4</ele>
        <time>2024-08-03T08:07:35Z</time>
      </trkpt>
      <trkpt lat="47.33367" lon="6.00171">
        <ele>256.4</ele>
        <time>2024-08-03T08:07:36Z</time>
      </trkpt>
      <trkpt lat="47.33367" lon="6.00171">
        <ele>256.4</ele>
        <time>2024-08-03T08:07:37Z</time>
      </trkpt>
      <trkpt lat="47.33367" lon="6.00171">
        <ele>256.4</ele>
        <time>2024-08-03T08:07:38Z</time>
      </trkpt>
      <trkpt lat="47.33367" lon="6.00171">
        <ele>256.4</ele>
        <time>2024-08-03T08:07:39Z</time>
      </trkpt>
      <trkpt lat="47.33367" lon="6.00171">
        <ele>256.4</ele>
        <time>2024-08-03T08:07:40Z</time>
      </trkpt>
      <trkpt lat="47.33367" lon="6.00171">
        <ele>256.4</ele>
        <time>2024-08-03T08:07:41Z</time>
      </trkpt>
      <trkpt lat="47.33367" lon="6.00171">
        <ele>256.4</ele>
        <time>2024-08-03T08:07:42Z</time>
      </trkpt>
      <trkpt lat="47.33367" lon="6.00172">
        <ele>256.4</ele>
        <time>2024-08-03T08:07:43Z</time>
      </trkpt>
      <trkpt lat="47.33367" lon="6.00173">
        <ele>256.4</ele>
        <time>2024-08-03T08:07:44Z</time>
      </trkpt>
      <trkpt lat="47.33367" lon="6.00173">
        <ele>256.4</ele>
        <time>2024-08-03T08:07:45Z</time>
      </trkpt>
      <trkpt lat="47.33367" lon="6.00174">
        <ele>256.2</ele>
        <time>2024-08-03T08:07:46Z</time>
      </trkpt>
      <trkpt lat="47.33367" lon="6.00175">
        <ele>256.4</ele>
        <time>2024-08-03T08:07:47Z</time>
      </trkpt>
      <trkpt lat="47.33366" lon="6.00175">
        <ele>256.4</ele>
        <time>2024-08-03T08:07:48Z</time>
      </trkpt>
      <trkpt lat="47.33365" lon="6.00175">
        <ele>256.4</ele>
        <time>2024-08-03T08:07:49Z</time>
      </trkpt>
      <trkpt lat="47.33365" lon="6.00175">
        <ele>256.4</ele>
        <time>2024-08-03T08:07:50Z</time>
      </trkpt>
      <trkpt lat="47.33365" lon="6.00176">
        <ele>256.4</ele>
        <time>2024-08-03T08:07:51Z</time>
      </trkpt>
      <trkpt lat="47.33364" lon="6.00176">
        <ele>256.2</ele>
        <time>2024-08-03T08:07:52Z</time>
      </trkpt>
      <trkpt lat="47.33364" lon="6.00177">
        <ele>256.2</ele>
        <time>2024-08-03T08:07:53Z</time>
      </trkpt>
      <trkpt lat="47.33364" lon="6.00177">
        <ele>256.2</ele>
        <time>2024-08-03T08:07:54Z</time>
      </trkpt>
      <trkpt lat="47.33364" lon="6.00178">
        <ele>256.4</ele>
        <time>2024-08-03T08:07:55Z</time>
      </trkpt>
      <trkpt lat="47.33364" lon="6.00178">
        <ele>256.4</ele>
        <time>2024-08-03T08:07:56Z</time>
      </trkpt>
      <trkpt lat="47.33363" lon="6.00178">
        <ele>256.2</ele>
        <time>2024-08-03T08:07:57Z</time>
      </trkpt>
      <trkpt lat="47.33363" lon="6.00178">
        <ele>256.2</ele>
        <time>2024-08-03T08:07:58Z</time>
      </trkpt>
      <trkpt lat="47.33363" lon="6.00178">
        <ele>256.2</ele>
        <time>2024-08-03T08:07:59Z</time>
      </trkpt>
      <trkpt lat="47.33363" lon="6.00178">
        <ele>256.4</ele>
        <time>2024-08-03T08:08:00Z</time>
      </trkpt>
      <trkpt lat="47.33362" lon="6.00178">
        <ele>256.2</ele>
        <time>2024-08-03T08:08:01Z</time>
      </trkpt>
      <trkpt lat="47.33362" lon="6.00178">
        <ele>256.4</ele>
        <time>2024-08-03T08:08:02Z</time>
      </trkpt>
      <trkpt lat="47.33362" lon="6.00177">
        <ele>256.2</ele>
        <time>2024-08-03T08:08:03Z</time>
      </trkpt>
      <trkpt lat="47.33362" lon="6.00177">
        <ele>256.2</ele>
        <time>2024-08-03T08:08:04Z</time>
      </trkpt>
      <trkpt lat="47.33362" lon="6.00177">
        <ele>256.2</ele>
        <time>2024-08-03T08:08:05Z</time>
      </trkpt>
      <trkpt lat="47.33362" lon="6.00177">
        <ele>256.2</ele>
        <time>2024-08-03T08:08:06Z</time>
      </trkpt>
      <trkpt lat="47.33362" lon="6.00177">
        <ele>256.2</ele>
        <time>2024-08-03T08:08:07Z</time>
      </trkpt>
      <trkpt lat="47.33362" lon="6.00177">
        <ele>256.2</ele>
        <time>2024-08-03T08:08:08Z</time>
      </trkpt>
      <trkpt lat="47.33362" lon="6.00177">
        <ele>256.2</ele>
        <time>2024-08-03T08:08:09Z</time>
      </trkpt>
      <trkpt lat="47.33362" lon="6.00177">
        <ele>256.2</ele>
        <time>2024-08-03T08:08:10Z</time>
      </trkpt>
      <trkpt lat="47.33362" lon="6.00177">
        <ele>256.2</ele>
        <time>2024-08-03T08:08:11Z</time>
      </trkpt>
      <trkpt lat="47.33362" lon="6.00177">
        <ele>256.2</ele>
        <time>2024-08-03T08:08:12Z</time>
      </trkpt>
      <trkpt lat="47.33362" lon="6.00177">
        <ele>256.2</ele>
        <time>2024-08-03T08:08:13Z</time>
      </trkpt>
      <trkpt lat="47.33362" lon="6.00177">
        <ele>256.2</ele>
        <time>2024-08-03T08:08:14Z</time>
      </trkpt>
      <trkpt lat="47.33362" lon="6.00177">
        <ele>256.2</ele>
        <time>2024-08-03T08:08:15Z</time>
      </trkpt>
      <trkpt lat="47.33362" lon="6.00177">
        <ele>256.2</ele>
        <time>2024-08-03T08:08:16Z</time>
      </trkpt>
      <trkpt lat="47.33363" lon="6.00177">
        <ele>256</ele>
        <time>2024-08-03T08:08:17Z</time>
      </trkpt>
      <trkpt lat="47.33362" lon="6.00178">
        <ele>256.2</ele>
        <time>2024-08-03T08:08:18Z</time>
      </trkpt>
      <trkpt lat="47.33363" lon="6.00178">
        <ele>256</ele>
        <time>2024-08-03T08:08:19Z</time>
      </trkpt>
      <trkpt lat="47.33363" lon="6.00178">
        <ele>256</ele>
        <time>2024-08-03T08:08:20Z</time>
      </trkpt>
      <trkpt lat="47.33362" lon="6.00178">
        <ele>256.2</ele>
        <time>2024-08-03T08:08:21Z</time>
      </trkpt>
      <trkpt lat="47.33362" lon="6.00179">
        <ele>256.2</ele>
        <time>2024-08-03T08:08:22Z</time>
      </trkpt>
      <trkpt lat="47.33362" lon="6.00179">
        <ele>256.2</ele>
        <time>2024-08-03T08:08:23Z</time>
      </trkpt>
      <trkpt lat="47.33362" lon="6.00179">
        <ele>256.2</ele>
        <time>2024-08-03T08:08:24Z</time>
      </trkpt>
      <trkpt lat="47.33361" lon="6.00178">
        <ele>256.2</ele>
        <time>2024-08-03T08:08:25Z</time>
      </trkpt>
      <trkpt lat="47.33361" lon="6.00178">
        <ele>256</ele>
        <time>2024-08-03T08:08:26Z</time>
      </trkpt>
      <trkpt lat="47.33361" lon="6.00177">
        <ele>256</ele>
        <time>2024-08-03T08:08:27Z</time>
      </trkpt>
      <trkpt lat="47.33361" lon="6.00177">
        <ele>256.2</ele>
        <time>2024-08-03T08:08:28Z</time>
      </trkpt>
      <trkpt lat="47.33361" lon="6.00177">
        <ele>256.2</ele>
        <time>2024-08-03T08:08:29Z</time>
      </trkpt>
      <trkpt lat="47.33361" lon="6.00176">
        <ele>256.2</ele>
        <time>2024-08-03T08:08:30Z</time>
      </trkpt>
      <trkpt lat="47.33361" lon="6.00175">
        <ele>256</ele>
        <time>2024-08-03T08:08:31Z</time>
      </trkpt>
      <trkpt lat="47.33361" lon="6.00175">
        <ele>256.2</ele>
        <time>2024-08-03T08:08:32Z</time>
      </trkpt>
      <trkpt lat="47.33361" lon="6.00175">
        <ele>256.2</ele>
        <time>2024-08-03T08:08:33Z</time>
      </trkpt>
      <trkpt lat="47.33361" lon="6.00175">
        <ele>256</ele>
        <time>2024-08-03T08:08:34Z</time>
      </trkpt>
      <trkpt lat="47.33361" lon="6.00175">
        <ele>256.2</ele>
        <time>2024-08-03T08:08:35Z</time>
      </trkpt>
      <trkpt lat="47.33361" lon="6.00175">
        <ele>256.2</ele>
        <time>2024-08-03T08:08:36Z</time>
      </trkpt>
      <trkpt lat="47.33361" lon="6.00175">
        <ele>256.2</ele>
        <time>2024-08-03T08:08:37Z</time>
      </trkpt>
      <trkpt lat="47.33361" lon="6.00175">
        <ele>256</ele>
        <time>2024-08-03T08:08:38Z</time>
      </trkpt>
      <trkpt lat="47.33361" lon="6.00175">
        <ele>256.2</ele>
        <time>2024-08-03T08:08:39Z</time>
      </trkpt>
      <trkpt lat="47.33361" lon="6.00175">
        <ele>256.2</ele>
        <time>2024-08-03T08:08:40Z</time>
      </trkpt>
      <trkpt lat="47.33361" lon="6.00175">
        <ele>256</ele>
        <time>2024-08-03T08:08:41Z</time>
      </trkpt>
      <trkpt lat="47.33361" lon="6.00175">
        <ele>256</ele>
        <time>2024-08-03T08:08:42Z</time>
      </trkpt>
      <trkpt lat="47.33361" lon="6.00175">
        <ele>256</ele>
        <time>2024-08-03T08:08:43Z</time>
      </trkpt>
      <trkpt lat="47.33361" lon="6.00175">
        <ele>256.2</ele>
        <time>2024-08-03T08:08:44Z</time>
      </trkpt>
      <trkpt lat="47.33361" lon="6.00174">
        <ele>256.2</ele>
        <time>2024-08-03T08:08:45Z</time>
      </trkpt>
      <trkpt lat="47.33361" lon="6.00174">
        <ele>256</ele>
        <time>2024-08-03T08:08:46Z</time>
      </trkpt>
      <trkpt lat="47.33361" lon="6.00174">
        <ele>256.2</ele>
        <time>2024-08-03T08:08:47Z</time>
      </trkpt>
      <trkpt lat="47.33361" lon="6.00175">
        <ele>256.2</ele>
        <time>2024-08-03T08:08:48Z</time>
      </trkpt>
      <trkpt lat="47.33361" lon="6.00175">
        <ele>256</ele>
        <time>2024-08-03T08:08:49Z</time>
      </trkpt>
      <trkpt lat="47.33361" lon="6.00175">
        <ele>256.2</ele>
        <time>2024-08-03T08:08:50Z</time>
      </trkpt>
      <trkpt lat="47.3336" lon="6.00174">
        <ele>256.2</ele>
        <time>2024-08-03T08:08:51Z</time>
      </trkpt>
      <trkpt lat="47.3336" lon="6.00174">
        <ele>256</ele>
        <time>2024-08-03T08:08:52Z</time>
      </trkpt>
      <trkpt lat="47.3336" lon="6.00174">
        <ele>256</ele>
        <time>2024-08-03T08:08:53Z</time>
      </trkpt>
      <trkpt lat="47.3336" lon="6.00174">
        <ele>256.2</ele>
        <time>2024-08-03T08:08:54Z</time>
      </trkpt>
      <trkpt lat="47.3336" lon="6.00174">
        <ele>256.2</ele>
        <time>2024-08-03T08:08:55Z</time>
      </trkpt>
      <trkpt lat="47.3336" lon="6.00174">
        <ele>256.2</ele>
        <time>2024-08-03T08:08:56Z</time>
      </trkpt>
      <trkpt lat="47.3336" lon="6.00174">
        <ele>256.2</ele>
        <time>2024-08-03T08:08:57Z</time>
      </trkpt>
      <trkpt lat="47.3336" lon="6.00174">
        <ele>256.2</ele>
        <time>2024-08-03T08:08:58Z</time>
      </trkpt>
      <trkpt lat="47.3336" lon="6.00174">
        <ele>256.2</ele>
        <time>2024-08-03T08:08:59Z</time>
      </trkpt>
      <trkpt lat="47.3336" lon="6.00173">
        <ele>256.2</ele>
        <time>2024-08-03T08:09:00Z</time>
      </trkpt>
      <trkpt lat="47.3336" lon="6.00173">
        <ele>256.2</ele>
        <time>2024-08-03T08:09:01Z</time>
      </trkpt>
      <trkpt lat="47.33361" lon="6.00173">
        <ele>256</ele>
        <time>2024-08-03T08:09:02Z</time>
      </trkpt>
      <trkpt lat="47.33361" lon="6.00173">
        <ele>256</ele>
        <time>2024-08-03T08:09:03Z</time>
      </trkpt>
      <trkpt lat="47.33361" lon="6.00172">
        <ele>256.2</ele>
        <time>2024-08-03T08:09:04Z</time>
      </trkpt>
      <trkpt lat="47.33361" lon="6.00172">
        <ele>256.2</ele>
        <time>2024-08-03T08:09:05Z</time>
      </trkpt>
      <trkpt lat="47.33361" lon="6.00172">
        <ele>256.2</ele>
        <time>2024-08-03T08:09:06Z</time>
      </trkpt>
      <trkpt lat="47.33361" lon="6.00172">
        <ele>256.2</ele>
        <time>2024-08-03T08:09:07Z</time>
      </trkpt>
      <trkpt lat="47.33361" lon="6.00171">
        <ele>256.2</ele>
        <time>2024-08-03T08:09:08Z</time>
      </trkpt>
      <trkpt lat="47.33362" lon="6.00171">
        <ele>256.2</ele>
        <time>2024-08-03T08:09:09Z</time>
      </trkpt>
      <trkpt lat="47.33362" lon="6.00171">
        <ele>256</ele>
        <time>2024-08-03T08:09:10Z</time>
      </trkpt>
      <trkpt lat="47.33362" lon="6.00171">
        <ele>256</ele>
        <time>2024-08-03T08:09:11Z</time>
      </trkpt>
      <trkpt lat="47.33363" lon="6.00171">
        <ele>256</ele>
        <time>2024-08-03T08:09:12Z</time>
      </trkpt>
      <trkpt lat="47.33363" lon="6.0017">
        <ele>256</ele>
        <time>2024-08-03T08:09:13Z</time>
      </trkpt>
      <trkpt lat="47.33363" lon="6.0017">
        <ele>256</ele>
        <time>2024-08-03T08:09:14Z</time>
      </trkpt>
      <trkpt lat="47.33363" lon="6.0017">
        <ele>256.2</ele>
        <time>2024-08-03T08:09:15Z</time>
      </trkpt>
      <trkpt lat="47.33363" lon="6.0017">
        <ele>256.2</ele>
        <time>2024-08-03T08:09:16Z</time>
      </trkpt>
      <trkpt lat="47.33364" lon="6.0017">
        <ele>256.2</ele>
        <time>2024-08-03T08:09:17Z</time>
      </trkpt>
      <trkpt lat="47.33364" lon="6.00171">
        <ele>256.2</ele>
        <time>2024-08-03T08:09:18Z</time>
      </trkpt>
      <trkpt lat="47.33363" lon="6.00171">
        <ele>256</ele>
        <time>2024-08-03T08:09:19Z</time>
      </trkpt>
      <trkpt lat="47.33363" lon="6.00171">
        <ele>256</ele>
        <time>2024-08-03T08:09:20Z</time>
      </trkpt>
      <trkpt lat="47.33363" lon="6.00171">
        <ele>256</ele>
        <time>2024-08-03T08:09:21Z</time>
      </trkpt>
      <trkpt lat="47.33363" lon="6.00172">
        <ele>256</ele>
        <time>2024-08-03T08:09:22Z</time>
      </trkpt>
      <trkpt lat="47.33364" lon="6.00173">
        <ele>256</ele>
        <time>2024-08-03T08:09:23Z</time>
      </trkpt>
      <trkpt lat="47.33364" lon="6.00173">
        <ele>256.2</ele>
        <time>2024-08-03T08:09:24Z</time>
      </trkpt>
      <trkpt lat="47.33363" lon="6.00173">
        <ele>256.2</ele>
        <time>2024-08-03T08:09:25Z</time>
      </trkpt>
      <trkpt lat="47.33364" lon="6.00174">
        <ele>256.2</ele>
        <time>2024-08-03T08:09:26Z</time>
      </trkpt>
      <trkpt lat="47.33364" lon="6.00174">
        <ele>256.2</ele>
        <time>2024-08-03T08:09:27Z</time>
      </trkpt>
      <trkpt lat="47.33364" lon="6.00174">
        <ele>256</ele>
        <time>2024-08-03T08:09:28Z</time>
      </trkpt>
      <trkpt lat="47.33364" lon="6.00174">
        <ele>256.2</ele>
        <time>2024-08-03T08:09:29Z</time>
      </trkpt>
      <trkpt lat="47.33364" lon="6.00175">
        <ele>256.2</ele>
        <time>2024-08-03T08:09:30Z</time>
      </trkpt>
      <trkpt lat="47.33364" lon="6.00175">
        <ele>256.4</ele>
        <time>2024-08-03T08:09:31Z</time>
      </trkpt>
      <trkpt lat="47.33364" lon="6.00175">
        <ele>256.4</ele>
        <time>2024-08-03T08:09:32Z</time>
      </trkpt>
      <trkpt lat="47.33364" lon="6.00175">
        <ele>256.4</ele>
        <time>2024-08-03T08:09:33Z</time>
      </trkpt>
      <trkpt lat="47.33365" lon="6.00174">
        <ele>256.2</ele>
        <time>2024-08-03T08:09:34Z</time>
      </trkpt>
      <trkpt lat="47.33365" lon="6.00174">
        <ele>256.4</ele>
        <time>2024-08-03T08:09:35Z</time>
      </trkpt>
      <trkpt lat="47.33366" lon="6.00172">
        <ele>256.4</ele>
        <time>2024-08-03T08:09:36Z</time>
      </trkpt>
      <trkpt lat="47.33366" lon="6.00171">
        <ele>256.2</ele>
        <time>2024-08-03T08:09:37Z</time>
      </trkpt>
      <trkpt lat="47.33367" lon="6.00171">
        <ele>256.4</ele>
        <time>2024-08-03T08:09:38Z</time>
      </trkpt>
      <trkpt lat="47.33367" lon="6.0017">
        <ele>256.4</ele>
        <time>2024-08-03T08:09:39Z</time>
      </trkpt>
      <trkpt lat="47.33368" lon="6.00168">
        <ele>256.4</ele>
        <time>2024-08-03T08:09:40Z</time>
      </trkpt>
      <trkpt lat="47.33369" lon="6.00167">
        <ele>256.4</ele>
        <time>2024-08-03T08:09:41Z</time>
      </trkpt>
      <trkpt lat="47.3337" lon="6.00165">
        <ele>256.4</ele>
        <time>2024-08-03T08:09:42Z</time>
      </trkpt>
      <trkpt lat="47.33372" lon="6.00162">
        <ele>256.2</ele>
        <time>2024-08-03T08:09:43Z</time>
      </trkpt>
      <trkpt lat="47.33373" lon="6.0016">
        <ele>256.4</ele>
        <time>2024-08-03T08:09:44Z</time>
      </trkpt>
      <trkpt lat="47.33374" lon="6.00157">
        <ele>256.4</ele>
        <time>2024-08-03T08:09:45Z</time>
      </trkpt>
      <trkpt lat="47.33375" lon="6.00153">
        <ele>256.2</ele>
        <time>2024-08-03T08:09:46Z</time>
      </trkpt>
      <trkpt lat="47.33377" lon="6.00149">
        <ele>256.4</ele>
        <time>2024-08-03T08:09:47Z</time>
      </trkpt>
      <trkpt lat="47.33378" lon="6.00145">
        <ele>256.4</ele>
        <time>2024-08-03T08:09:48Z</time>
      </trkpt>
      <trkpt lat="47.33378" lon="6.00139">
        <ele>256.4</ele>
        <time>2024-08-03T08:09:49Z</time>
      </trkpt>
      <trkpt lat="47.33378" lon="6.00133">
        <ele>256</ele>
        <time>2024-08-03T08:09:50Z</time>
      </trkpt>
      <trkpt lat="47.33378" lon="6.00126">
        <ele>256</ele>
        <time>2024-08-03T08:09:51Z</time>
      </trkpt>
      <trkpt lat="47.33378" lon="6.00119">
        <ele>256</ele>
        <time>2024-08-03T08:09:52Z</time>
      </trkpt>
      <trkpt lat="47.33378" lon="6.00111">
        <ele>255.6</ele>
        <time>2024-08-03T08:09:53Z</time>
      </trkpt>
      <trkpt lat="47.33377" lon="6.00104">
        <ele>255.4</ele>
        <time>2024-08-03T08:09:54Z</time>
      </trkpt>
      <trkpt lat="47.33376" lon="6.00096">
        <ele>255.4</ele>
        <time>2024-08-03T08:09:55Z</time>
      </trkpt>
      <trkpt lat="47.33375" lon="6.00088">
        <ele>255</ele>
        <time>2024-08-03T08:09:56Z</time>
      </trkpt>
      <trkpt lat="47.33375" lon="6.0008">
        <ele>255</ele>
        <time>2024-08-03T08:09:57Z</time>
      </trkpt>
      <trkpt lat="47.33374" lon="6.00072">
        <ele>254.8</ele>
        <time>2024-08-03T08:09:58Z</time>
      </trkpt>
      <trkpt lat="47.33373" lon="6.00064">
        <ele>254.6</ele>
        <time>2024-08-03T08:09:59Z</time>
      </trkpt>
      <trkpt lat="47.33371" lon="6.00055">
        <ele>254.6</ele>
        <time>2024-08-03T08:10:00Z</time>
      </trkpt>
      <trkpt lat="47.3337" lon="6.00046">
        <ele>254.6</ele>
        <time>2024-08-03T08:10:01Z</time>
      </trkpt>
      <trkpt lat="47.33369" lon="6.00037">
        <ele>254.2</ele>
        <time>2024-08-03T08:10:02Z</time>
      </trkpt>
      <trkpt lat="47.33369" lon="6.00027">
        <ele>254</ele>
        <time>2024-08-03T08:10:03Z</time>
      </trkpt>
      <trkpt lat="47.33368" lon="6.00018">
        <ele>254</ele>
        <time>2024-08-03T08:10:04Z</time>
      </trkpt>
      <trkpt lat="47.33368" lon="6.00008">
        <ele>253.8</ele>
        <time>2024-08-03T08:10:05Z</time>
      </trkpt>
      <trkpt lat="47.33368" lon="5.99999">
        <ele>253.6</ele>
        <time>2024-08-03T08:10:06Z</time>
      </trkpt>
      <trkpt lat="47.33368" lon="5.9999">
        <ele>253.4</ele>
        <time>2024-08-03T08:10:07Z</time>
      </trkpt>
      <trkpt lat="47.33368" lon="5.99981">
        <ele>253</ele>
        <time>2024-08-03T08:10:08Z</time>
      </trkpt>
      <trkpt lat="47.33368" lon="5.99972">
        <ele>252.8</ele>
        <time>2024-08-03T08:10:09Z</time>
      </trkpt>
      <trkpt lat="47.33368" lon="5.99965">
        <ele>252.4</ele>
        <time>2024-08-03T08:10:10Z</time>
      </trkpt>
      <trkpt lat="47.33368" lon="5.99959">
        <ele>252</ele>
        <time>2024-08-03T08:10:11Z</time>
      </trkpt>
      <trkpt lat="47.33367" lon="5.99955">
        <ele>251.8</ele>
        <time>2024-08-03T08:10:12Z</time>
      </trkpt>
      <trkpt lat="47.33363" lon="5.99951">
        <ele>251.2</ele>
        <time>2024-08-03T08:10:13Z</time>
      </trkpt>
      <trkpt lat="47.33363" lon="5.99948">
        <ele>251</ele>
        <time>2024-08-03T08:10:14Z</time>
      </trkpt>
      <trkpt lat="47.33362" lon="5.99945">
        <ele>250.4</ele>
        <time>2024-08-03T08:10:15Z</time>
      </trkpt>
      <trkpt lat="47.33363" lon="5.99941">
        <ele>250</ele>
        <time>2024-08-03T08:10:16Z</time>
      </trkpt>
      <trkpt lat="47.33363" lon="5.99937">
        <ele>249.4</ele>
        <time>2024-08-03T08:10:17Z</time>
      </trkpt>
      <trkpt lat="47.33364" lon="5.99932">
        <ele>249</ele>
        <time>2024-08-03T08:10:18Z</time>
      </trkpt>
      <trkpt lat="47.33365" lon="5.99926">
        <ele>248.4</ele>
        <time>2024-08-03T08:10:19Z</time>
      </trkpt>
      <trkpt lat="47.33365" lon="5.9992">
        <ele>248</ele>
        <time>2024-08-03T08:10:20Z</time>
      </trkpt>
      <trkpt lat="47.33365" lon="5.99913">
        <ele>247.6</ele>
        <time>2024-08-03T08:10:21Z</time>
      </trkpt>
      <trkpt lat="47.33365" lon="5.99905">
        <ele>247.4</ele>
        <time>2024-08-03T08:10:22Z</time>
      </trkpt>
      <trkpt lat="47.33365" lon="5.99897">
        <ele>247.4</ele>
        <time>2024-08-03T08:10:23Z</time>
      </trkpt>
      <trkpt lat="47.33366" lon="5.9989">
        <ele>247.2</ele>
        <time>2024-08-03T08:10:24Z</time>
      </trkpt>
      <trkpt lat="47.33365" lon="5.99883">
        <ele>247</ele>
        <time>2024-08-03T08:10:25Z</time>
      </trkpt>
      <trkpt lat="47.33365" lon="5.99877">
        <ele>247</ele>
        <time>2024-08-03T08:10:26Z</time>
      </trkpt>
      <trkpt lat="47.33366" lon="5.99873">
        <ele>246.8</ele>
        <time>2024-08-03T08:10:27Z</time>
      </trkpt>
      <trkpt lat="47.33366" lon="5.9987">
        <ele>246.6</ele>
        <time>2024-08-03T08:10:28Z</time>
      </trkpt>
      <trkpt lat="47.33366" lon="5.99868">
        <ele>246.4</ele>
        <time>2024-08-03T08:10:29Z</time>
      </trkpt>
      <trkpt lat="47.33367" lon="5.99866">
        <ele>246</ele>
        <time>2024-08-03T08:10:30Z</time>
      </trkpt>
      <trkpt lat="47.33367" lon="5.99864">
        <ele>246</ele>
        <time>2024-08-03T08:10:31Z</time>
      </trkpt>
      <trkpt lat="47.33367" lon="5.99861">
        <ele>245.6</ele>
        <time>2024-08-03T08:10:32Z</time>
      </trkpt>
      <trkpt lat="47.33367" lon="5.99857">
        <ele>245.2</ele>
        <time>2024-08-03T08:10:33Z</time>
      </trkpt>
      <trkpt lat="47.33368" lon="5.99854">
        <ele>244.8</ele>
        <time>2024-08-03T08:10:34Z</time>
      </trkpt>
      <trkpt lat="47.33368" lon="5.9985">
        <ele>244.4</ele>
        <time>2024-08-03T08:10:35Z</time>
      </trkpt>
      <trkpt lat="47.33367" lon="5.99846">
        <ele>244.2</ele>
        <time>2024-08-03T08:10:36Z</time>
      </trkpt>
      <trkpt lat="47.33368" lon="5.99841">
        <ele>244</ele>
        <time>2024-08-03T08:10:37Z</time>
      </trkpt>
      <trkpt lat="47.3337" lon="5.99837">
        <ele>243.8</ele>
        <time>2024-08-03T08:10:38Z</time>
      </trkpt>
      <trkpt lat="47.33371" lon="5.99832">
        <ele>243.8</ele>
        <time>2024-08-03T08:10:39Z</time>
      </trkpt>
      <trkpt lat="47.33372" lon="5.99828">
        <ele>243.6</ele>
        <time>2024-08-03T08:10:40Z</time>
      </trkpt>
      <trkpt lat="47.33372" lon="5.99824">
        <ele>243.6</ele>
        <time>2024-08-03T08:10:41Z</time>
      </trkpt>
      <trkpt lat="47.33371" lon="5.9982">
        <ele>243.6</ele>
        <time>2024-08-03T08:10:42Z</time>
      </trkpt>
      <trkpt lat="47.33369" lon="5.99817">
        <ele>243.6</ele>
        <time>2024-08-03T08:10:43Z</time>
      </trkpt>
      <trkpt lat="47.33367" lon="5.99813">
        <ele>243.4</ele>
        <time>2024-08-03T08:10:44Z</time>
      </trkpt>
      <trkpt lat="47.33368" lon="5.99808">
        <ele>243.4</ele>
        <time>2024-08-03T08:10:45Z</time>
      </trkpt>
      <trkpt lat="47.33369" lon="5.99804">
        <ele>243.4</ele>
        <time>2024-08-03T08:10:46Z</time>
      </trkpt>
      <trkpt lat="47.33367" lon="5.99801">
        <ele>243.4</ele>
        <time>2024-08-03T08:10:47Z</time>
      </trkpt>
      <trkpt lat="47.33365" lon="5.99799">
        <ele>243.4</ele>
        <time>2024-08-03T08:10:48Z</time>
      </trkpt>
      <trkpt lat="47.33363" lon="5.99797">
        <ele>243.4</ele>
        <time>2024-08-03T08:10:49Z</time>
      </trkpt>
      <trkpt lat="47.33362" lon="5.99794">
        <ele>243.2</ele>
        <time>2024-08-03T08:10:50Z</time>
      </trkpt>
      <trkpt lat="47.33361" lon="5.99793">
        <ele>243</ele>
        <time>2024-08-03T08:10:51Z</time>
      </trkpt>
      <trkpt lat="47.33362" lon="5.99793">
        <ele>243</ele>
        <time>2024-08-03T08:10:52Z</time>
      </trkpt>
      <trkpt lat="47.33362" lon="5.99794">
        <ele>242.8</ele>
        <time>2024-08-03T08:10:53Z</time>
      </trkpt>
      <trkpt lat="47.33361" lon="5.99795">
        <ele>242.6</ele>
        <time>2024-08-03T08:10:54Z</time>
      </trkpt>
      <trkpt lat="47.3336" lon="5.99796">
        <ele>242.6</ele>
        <time>2024-08-03T08:10:55Z</time>
      </trkpt>
      <trkpt lat="47.33359" lon="5.99797">
        <ele>242.6</ele>
        <time>2024-08-03T08:10:56Z</time>
      </trkpt>
      <trkpt lat="47.33357" lon="5.99797">
        <ele>242.6</ele>
        <time>2024-08-03T08:10:57Z</time>
      </trkpt>
      <trkpt lat="47.33355" lon="5.99797">
        <ele>242.6</ele>
        <time>2024-08-03T08:10:58Z</time>
      </trkpt>
      <trkpt lat="47.33354" lon="5.99796">
        <ele>242.4</ele>
        <time>2024-08-03T08:10:59Z</time>
      </trkpt>
      <trkpt lat="47.33354" lon="5.99796">
        <ele>242.4</ele>
        <time>2024-08-03T08:11:00Z</time>
      </trkpt>
      <trkpt lat="47.33354" lon="5.99796">
        <ele>242.2</ele>
        <time>2024-08-03T08:11:01Z</time>
      </trkpt>
      <trkpt lat="47.33353" lon="5.99796">
        <ele>242.4</ele>
        <time>2024-08-03T08:11:02Z</time>
      </trkpt>
      <trkpt lat="47.33353" lon="5.99796">
        <ele>242.2</ele>
        <time>2024-08-03T08:11:03Z</time>
      </trkpt>
      <trkpt lat="47.3335" lon="5.99793">
        <ele>242.2</ele>
        <time>2024-08-03T08:11:04Z</time>
      </trkpt>
      <trkpt lat="47.33349" lon="5.99792">
        <ele>242.2</ele>
        <time>2024-08-03T08:11:05Z</time>
      </trkpt>
      <trkpt lat="47.33347" lon="5.9979">
        <ele>242.2</ele>
        <time>2024-08-03T08:11:06Z</time>
      </trkpt>
      <trkpt lat="47.33346" lon="5.99789">
        <ele>242.2</ele>
        <time>2024-08-03T08:11:07Z</time>
      </trkpt>
      <trkpt lat="47.33345" lon="5.99788">
        <ele>242.2</ele>
        <time>2024-08-03T08:11:08Z</time>
      </trkpt>
      <trkpt lat="47.33344" lon="5.99787">
        <ele>242.2</ele>
        <time>2024-08-03T08:11:09Z</time>
      </trkpt>
      <trkpt lat="47.33343" lon="5.99788">
        <ele>242.2</ele>
        <time>2024-08-03T08:11:10Z</time>
      </trkpt>
      <trkpt lat="47.33342" lon="5.99789">
        <ele>242.2</ele>
        <time>2024-08-03T08:11:11Z</time>
      </trkpt>
      <trkpt lat="47.3334" lon="5.9979">
        <ele>242.2</ele>
        <time>2024-08-03T08:11:12Z</time>
      </trkpt>
      <trkpt lat="47.33339" lon="5.99791">
        <ele>242.2</ele>
        <time>2024-08-03T08:11:13Z</time>
      </trkpt>
      <trkpt lat="47.33337" lon="5.99792">
        <ele>242.2</ele>
        <time>2024-08-03T08:11:14Z</time>
      </trkpt>
      <trkpt lat="47.33336" lon="5.99792">
        <ele>242.2</ele>
        <time>2024-08-03T08:11:15Z</time>
      </trkpt>
      <trkpt lat="47.33334" lon="5.99793">
        <ele>242.2</ele>
        <time>2024-08-03T08:11:16Z</time>
      </trkpt>
      <trkpt lat="47.33332" lon="5.99793">
        <ele>242.2</ele>
        <time>2024-08-03T08:11:17Z</time>
      </trkpt>
      <trkpt lat="47.33331" lon="5.99793">
        <ele>242.2</ele>
        <time>2024-08-03T08:11:18Z</time>
      </trkpt>
      <trkpt lat="47.33329" lon="5.99793">
        <ele>242.2</ele>
        <time>2024-08-03T08:11:19Z</time>
      </trkpt>
      <trkpt lat="47.33327" lon="5.99793">
        <ele>242.2</ele>
        <time>2024-08-03T08:11:20Z</time>
      </trkpt>
      <trkpt lat="47.33325" lon="5.99793">
        <ele>242.2</ele>
        <time>2024-08-03T08:11:21Z</time>
      </trkpt>
      <trkpt lat="47.33322" lon="5.99792">
        <ele>242.4</ele>
        <time>2024-08-03T08:11:22Z</time>
      </trkpt>
      <trkpt lat="47.33321" lon="5.99792">
        <ele>242.4</ele>
        <time>2024-08-03T08:11:23Z</time>
      </trkpt>
      <trkpt lat="47.33319" lon="5.99793">
        <ele>242.4</ele>
        <time>2024-08-03T08:11:24Z</time>
      </trkpt>
      <trkpt lat="47.33318" lon="5.99793">
        <ele>242.4</ele>
        <time>2024-08-03T08:11:25Z</time>
      </trkpt>
      <trkpt lat="47.33316" lon="5.99794">
        <ele>242.4</ele>
        <time>2024-08-03T08:11:26Z</time>
      </trkpt>
      <trkpt lat="47.33314" lon="5.99795">
        <ele>242.4</ele>
        <time>2024-08-03T08:11:27Z</time>
      </trkpt>
      <trkpt lat="47.33312" lon="5.99796">
        <ele>242.6</ele>
        <time>2024-08-03T08:11:28Z</time>
      </trkpt>
      <trkpt lat="47.3331" lon="5.99798">
        <ele>242.6</ele>
        <time>2024-08-03T08:11:29Z</time>
      </trkpt>
      <trkpt lat="47.33309" lon="5.998">
        <ele>242.6</ele>
        <time>2024-08-03T08:11:30Z</time>
      </trkpt>
      <trkpt lat="47.33307" lon="5.99801">
        <ele>242.8</ele>
        <time>2024-08-03T08:11:31Z</time>
      </trkpt>
      <trkpt lat="47.33305" lon="5.99801">
        <ele>243</ele>
        <time>2024-08-03T08:11:32Z</time>
      </trkpt>
      <trkpt lat="47.33303" lon="5.998">
        <ele>243</ele>
        <time>2024-08-03T08:11:33Z</time>
      </trkpt>
      <trkpt lat="47.33301" lon="5.99799">
        <ele>243</ele>
        <time>2024-08-03T08:11:34Z</time>
      </trkpt>
      <trkpt lat="47.33299" lon="5.99798">
        <ele>243</ele>
        <time>2024-08-03T08:11:35Z</time>
      </trkpt>
      <trkpt lat="47.33297" lon="5.99796">
        <ele>243.2</ele>
        <time>2024-08-03T08:11:36Z</time>
      </trkpt>
      <trkpt lat="47.33295" lon="5.99795">
        <ele>243.4</ele>
        <time>2024-08-03T08:11:37Z</time>
      </trkpt>
      <trkpt lat="47.33294" lon="5.99794">
        <ele>243.6</ele>
        <time>2024-08-03T08:11:38Z</time>
      </trkpt>
      <trkpt lat="47.33292" lon="5.99793">
        <ele>243.6</ele>
        <time>2024-08-03T08:11:39Z</time>
      </trkpt>
      <trkpt lat="47.33291" lon="5.99793">
        <ele>243.6</ele>
        <time>2024-08-03T08:11:40Z</time>
      </trkpt>
      <trkpt lat="47.3329" lon="5.99794">
        <ele>243.8</ele>
        <time>2024-08-03T08:11:41Z</time>
      </trkpt>
      <trkpt lat="47.33288" lon="5.99794">
        <ele>243.8</ele>
        <time>2024-08-03T08:11:42Z</time>
      </trkpt>
      <trkpt lat="47.33287" lon="5.99794">
        <ele>244</ele>
        <time>2024-08-03T08:11:43Z</time>
      </trkpt>
      <trkpt lat="47.33286" lon="5.99794">
        <ele>244.2</ele>
        <time>2024-08-03T08:11:44Z</time>
      </trkpt>
      <trkpt lat="47.33285" lon="5.99794">
        <ele>244.2</ele>
        <time>2024-08-03T08:11:45Z</time>
      </trkpt>
      <trkpt lat="47.33285" lon="5.99795">
        <ele>244.4</ele>
        <time>2024-08-03T08:11:46Z</time>
      </trkpt>
      <trkpt lat="47.33284" lon="5.99795">
        <ele>244.4</ele>
        <time>2024-08-03T08:11:47Z</time>
      </trkpt>
      <trkpt lat="47.33284" lon="5.99794">
        <ele>244.4</ele>
        <time>2024-08-03T08:11:48Z</time>
      </trkpt>
      <trkpt lat="47.33283" lon="5.99794">
        <ele>244.4</ele>
        <time>2024-08-03T08:11:49Z</time>
      </trkpt>
      <trkpt lat="47.33282" lon="5.99794">
        <ele>244.4</ele>
        <time>2024-08-03T08:11:50Z</time>
      </trkpt>
      <trkpt lat="47.33281" lon="5.99793">
        <ele>244.4</ele>
        <time>2024-08-03T08:11:51Z</time>
      </trkpt>
      <trkpt lat="47.3328" lon="5.99791">
        <ele>244.6</ele>
        <time>2024-08-03T08:11:52Z</time>
      </trkpt>
      <trkpt lat="47.33278" lon="5.9979">
        <ele>244.6</ele>
        <time>2024-08-03T08:11:53Z</time>
      </trkpt>
      <trkpt lat="47.33278" lon="5.99789">
        <ele>244.6</ele>
        <time>2024-08-03T08:11:54Z</time>
      </trkpt>
      <trkpt lat="47.33278" lon="5.99788">
        <ele>244.6</ele>
        <time>2024-08-03T08:11:55Z</time>
      </trkpt>
      <trkpt lat="47.33278" lon="5.99787">
        <ele>244.6</ele>
        <time>2024-08-03T08:11:56Z</time>
      </trkpt>
      <trkpt lat="47.33278" lon="5.99787">
        <ele>244.4</ele>
        <time>2024-08-03T08:11:57Z</time>
      </trkpt>
      <trkpt lat="47.33279" lon="5.99787">
        <ele>244.6</ele>
        <time>2024-08-03T08:11:58Z</time>
      </trkpt>
      <trkpt lat="47.33279" lon="5.99788">
        <ele>244.6</ele>
        <time>2024-08-03T08:11:59Z</time>
      </trkpt>
      <trkpt lat="47.3328" lon="5.99788">
        <ele>244.6</ele>
        <time>2024-08-03T08:12:00Z</time>
      </trkpt>
      <trkpt lat="47.3328" lon="5.99788">
        <ele>244.6</ele>
        <time>2024-08-03T08:12:01Z</time>
      </trkpt>
      <trkpt lat="47.3328" lon="5.99788">
        <ele>244.4</ele>
        <time>2024-08-03T08:12:02Z</time>
      </trkpt>
      <trkpt lat="47.3328" lon="5.99788">
        <ele>244.6</ele>
        <time>2024-08-03T08:12:03Z</time>
      </trkpt>
      <trkpt lat="47.3328" lon="5.99788">
        <ele>244.6</ele>
        <time>2024-08-03T08:12:04Z</time>
      </trkpt>
      <trkpt lat="47.33279" lon="5.99788">
        <ele>244.4</ele>
        <time>2024-08-03T08:12:05Z</time>
      </trkpt>
      <trkpt lat="47.33278" lon="5.99788">
        <ele>244.6</ele>
        <time>2024-08-03T08:12:06Z</time>
      </trkpt>
      <trkpt lat="47.33277" lon="5.99788">
        <ele>244.4</ele>
        <time>2024-08-03T08:12:07Z</time>
      </trkpt>
      <trkpt lat="47.33275" lon="5.99788">
        <ele>244.4</ele>
        <time>2024-08-03T08:12:08Z</time>
      </trkpt>
      <trkpt lat="47.33274" lon="5.99787">
        <ele>244.4</ele>
        <time>2024-08-03T08:12:09Z</time>
      </trkpt>
      <trkpt lat="47.33272" lon="5.99787">
        <ele>244.4</ele>
        <time>2024-08-03T08:12:10Z</time>
      </trkpt>
      <trkpt lat="47.3327" lon="5.99786">
        <ele>244.2</ele>
        <time>2024-08-03T08:12:11Z</time>
      </trkpt>
      <trkpt lat="47.33268" lon="5.99786">
        <ele>244.2</ele>
        <time>2024-08-03T08:12:12Z</time>
      </trkpt>
      <trkpt lat="47.33266" lon="5.99786">
        <ele>244.2</ele>
        <time>2024-08-03T08:12:13Z</time>
      </trkpt>
      <trkpt lat="47.33264" lon="5.99786">
        <ele>244.2</ele>
        <time>2024-08-03T08:12:14Z</time>
      </trkpt>
      <trkpt lat="47.33262" lon="5.99786">
        <ele>244.2</ele>
        <time>2024-08-03T08:12:15Z</time>
      </trkpt>
      <trkpt lat="47.3326" lon="5.99786">
        <ele>244.2</ele>
        <time>2024-08-03T08:12:16Z</time>
      </trkpt>
      <trkpt lat="47.33257" lon="5.99786">
        <ele>244.2</ele>
        <time>2024-08-03T08:12:17Z</time>
      </trkpt>
      <trkpt lat="47.33255" lon="5.99786">
        <ele>244.2</ele>
        <time>2024-08-03T08:12:18Z</time>
      </trkpt>
      <trkpt lat="47.33252" lon="5.99786">
        <ele>244.2</ele>
        <time>2024-08-03T08:12:19Z</time>
      </trkpt>
      <trkpt lat="47.3325" lon="5.99787">
        <ele>244.2</ele>
        <time>2024-08-03T08:12:20Z</time>
      </trkpt>
      <trkpt lat="47.33247" lon="5.99787">
        <ele>244.2</ele>
        <time>2024-08-03T08:12:21Z</time>
      </trkpt>
      <trkpt lat="47.33244" lon="5.99789">
        <ele>244.2</ele>
        <time>2024-08-03T08:12:22Z</time>
      </trkpt>
      <trkpt lat="47.3324" lon="5.99789">
        <ele>244.2</ele>
        <time>2024-08-03T08:12:23Z</time>
      </trkpt>
      <trkpt lat="47.33237" lon="5.9979">
        <ele>244.2</ele>
        <time>2024-08-03T08:12:24Z</time>
      </trkpt>
      <trkpt lat="47.33234" lon="5.9979">
        <ele>244.4</ele>
        <time>2024-08-03T08:12:25Z</time>
      </trkpt>
      <trkpt lat="47.33232" lon="5.99791">
        <ele>244.4</ele>
        <time>2024-08-03T08:12:26Z</time>
      </trkpt>
      <trkpt lat="47.33229" lon="5.99791">
        <ele>244.4</ele>
        <time>2024-08-03T08:12:27Z</time>
      </trkpt>
      <trkpt lat="47.33228" lon="5.99791">
        <ele>244.2</ele>
        <time>2024-08-03T08:12:28Z</time>
      </trkpt>
      <trkpt lat="47.33227" lon="5.9979">
        <ele>244.2</ele>
        <time>2024-08-03T08:12:29Z</time>
      </trkpt>
      <trkpt lat="47.33226" lon="5.99791">
        <ele>244.4</ele>
        <time>2024-08-03T08:12:30Z</time>
      </trkpt>
      <trkpt lat="47.33225" lon="5.99791">
        <ele>244.2</ele>
        <time>2024-08-03T08:12:31Z</time>
      </trkpt>
      <trkpt lat="47.33225" lon="5.9979">
        <ele>244.2</ele>
        <time>2024-08-03T08:12:32Z</time>
      </trkpt>
      <trkpt lat="47.33223" lon="5.99789">
        <ele>244.2</ele>
        <time>2024-08-03T08:12:33Z</time>
      </trkpt>
      <trkpt lat="47.33222" lon="5.99789">
        <ele>244.2</ele>
        <time>2024-08-03T08:12:34Z</time>
      </trkpt>
      <trkpt lat="47.33221" lon="5.9979">
        <ele>244.2</ele>
        <time>2024-08-03T08:12:35Z</time>
      </trkpt>
      <trkpt lat="47.33221" lon="5.9979">
        <ele>244.2</ele>
        <time>2024-08-03T08:12:36Z</time>
      </trkpt>
      <trkpt lat="47.33221" lon="5.99791">
        <ele>244.2</ele>
        <time>2024-08-03T08:12:37Z</time>
      </trkpt>
      <trkpt lat="47.3322" lon="5.99791">
        <ele>244.2</ele>
        <time>2024-08-03T08:12:38Z</time>
      </trkpt>
      <trkpt lat="47.3322" lon="5.99791">
        <ele>244.2</ele>
        <time>2024-08-03T08:12:39Z</time>
      </trkpt>
      <trkpt lat="47.3322" lon="5.99791">
        <ele>244</ele>
        <time>2024-08-03T08:12:40Z</time>
      </trkpt>
      <trkpt lat="47.33219" lon="5.9979">
        <ele>244.2</ele>
        <time>2024-08-03T08:12:41Z</time>
      </trkpt>
      <trkpt lat="47.33219" lon="5.9979">
        <ele>244.2</ele>
        <time>2024-08-03T08:12:42Z</time>
      </trkpt>
      <trkpt lat="47.3322" lon="5.99789">
        <ele>244.2</ele>
        <time>2024-08-03T08:12:43Z</time>
      </trkpt>
      <trkpt lat="47.33221" lon="5.99789">
        <ele>244</ele>
        <time>2024-08-03T08:12:44Z</time>
      </trkpt>
      <trkpt lat="47.33223" lon="5.99789">
        <ele>244</ele>
        <time>2024-08-03T08:12:45Z</time>
      </trkpt>
      <trkpt lat="47.33224" lon="5.99789">
        <ele>244</ele>
        <time>2024-08-03T08:12:46Z</time>
      </trkpt>
      <trkpt lat="47.33226" lon="5.99788">
        <ele>244.2</ele>
        <time>2024-08-03T08:12:47Z</time>
      </trkpt>
      <trkpt lat="47.33226" lon="5.99788">
        <ele>244</ele>
        <time>2024-08-03T08:12:48Z</time>
      </trkpt>
      <trkpt lat="47.33226" lon="5.99788">
        <ele>244</ele>
        <time>2024-08-03T08:12:49Z</time>
      </trkpt>
      <trkpt lat="47.33226" lon="5.99788">
        <ele>244</ele>
        <time>2024-08-03T08:12:50Z</time>
      </trkpt>
      <trkpt lat="47.33226" lon="5.99788">
        <ele>244</ele>
        <time>2024-08-03T08:12:51Z</time>
      </trkpt>
      <trkpt lat="47.33226" lon="5.99788">
        <ele>244</ele>
        <time>2024-08-03T08:12:52Z</time>
      </trkpt>
      <trkpt lat="47.33226" lon="5.99788">
        <ele>244</ele>
        <time>2024-08-03T08:12:53Z</time>
      </trkpt>
      <trkpt lat="47.33227" lon="5.99788">
        <ele>244</ele>
        <time>2024-08-03T08:12:54Z</time>
      </trkpt>
      <trkpt lat="47.33227" lon="5.99788">
        <ele>244</ele>
        <time>2024-08-03T08:12:55Z</time>
      </trkpt>
      <trkpt lat="47.33227" lon="5.99788">
        <ele>243.8</ele>
        <time>2024-08-03T08:12:56Z</time>
      </trkpt>
      <trkpt lat="47.33227" lon="5.99788">
        <ele>243.8</ele>
        <time>2024-08-03T08:12:57Z</time>
      </trkpt>
      <trkpt lat="47.33227" lon="5.99788">
        <ele>244</ele>
        <time>2024-08-03T08:12:58Z</time>
      </trkpt>
      <trkpt lat="47.33227" lon="5.99788">
        <ele>244</ele>
        <time>2024-08-03T08:12:59Z</time>
      </trkpt>
      <trkpt lat="47.33226" lon="5.99788">
        <ele>244</ele>
        <time>2024-08-03T08:13:00Z</time>
      </trkpt>
      <trkpt lat="47.33226" lon="5.99787">
        <ele>244</ele>
        <time>2024-08-03T08:13:01Z</time>
      </trkpt>
      <trkpt lat="47.33226" lon="5.99787">
        <ele>243.8</ele>
        <time>2024-08-03T08:13:02Z</time>
      </trkpt>
      <trkpt lat="47.33226" lon="5.99787">
        <ele>244</ele>
        <time>2024-08-03T08:13:03Z</time>
      </trkpt>
      <trkpt lat="47.33226" lon="5.99787">
        <ele>243.8</ele>
        <time>2024-08-03T08:13:04Z</time>
      </trkpt>
      <trkpt lat="47.33226" lon="5.99787">
        <ele>244</ele>
        <time>2024-08-03T08:13:05Z</time>
      </trkpt>
      <trkpt lat="47.33226" lon="5.99787">
        <ele>244</ele>
        <time>2024-08-03T08:13:06Z</time>
      </trkpt>
      <trkpt lat="47.33226" lon="5.99787">
        <ele>244</ele>
        <time>2024-08-03T08:13:07Z</time>
      </trkpt>
      <trkpt lat="47.33226" lon="5.99787">
        <ele>243.8</ele>
        <time>2024-08-03T08:13:08Z</time>
      </trkpt>
      <trkpt lat="47.33227" lon="5.99788">
        <ele>244</ele>
        <time>2024-08-03T08:13:09Z</time>
      </trkpt>
      <trkpt lat="47.33227" lon="5.99788">
        <ele>244</ele>
        <time>2024-08-03T08:13:10Z</time>
      </trkpt>
      <trkpt lat="47.33227" lon="5.99787">
        <ele>244</ele>
        <time>2024-08-03T08:13:11Z</time>
      </trkpt>
      <trkpt lat="47.33226" lon="5.99787">
        <ele>244</ele>
        <time>2024-08-03T08:13:12Z</time>
      </trkpt>
      <trkpt lat="47.33226" lon="5.99787">
        <ele>243.8</ele>
        <time>2024-08-03T08:13:13Z</time>
      </trkpt>
      <trkpt lat="47.33226" lon="5.99787">
        <ele>244</ele>
        <time>2024-08-03T08:13:14Z</time>
      </trkpt>
      <trkpt lat="47.33225" lon="5.99788">
        <ele>243.8</ele>
        <time>2024-08-03T08:13:15Z</time>
      </trkpt>
      <trkpt lat="47.33225" lon="5.99788">
        <ele>243.8</ele>
        <time>2024-08-03T08:13:16Z</time>
      </trkpt>
      <trkpt lat="47.33224" lon="5.99787">
        <ele>244</ele>
        <time>2024-08-03T08:13:17Z</time>
      </trkpt>
      <trkpt lat="47.33223" lon="5.99787">
        <ele>244</ele>
        <time>2024-08-03T08:13:18Z</time>
      </trkpt>
      <trkpt lat="47.33223" lon="5.99787">
        <ele>244</ele>
        <time>2024-08-03T08:13:19Z</time>
      </trkpt>
      <trkpt lat="47.33223" lon="5.99787">
        <ele>244</ele>
        <time>2024-08-03T08:13:20Z</time>
      </trkpt>
      <trkpt lat="47.33223" lon="5.99786">
        <ele>243.8</ele>
        <time>2024-08-03T08:13:21Z</time>
      </trkpt>
      <trkpt lat="47.33223" lon="5.99786">
        <ele>243.8</ele>
        <time>2024-08-03T08:13:22Z</time>
      </trkpt>
      <trkpt lat="47.33223" lon="5.99786">
        <ele>243.8</ele>
        <time>2024-08-03T08:13:23Z</time>
      </trkpt>
      <trkpt lat="47.33222" lon="5.99786">
        <ele>243.8</ele>
        <time>2024-08-03T08:13:24Z</time>
      </trkpt>
      <trkpt lat="47.33222" lon="5.99786">
        <ele>243.8</ele>
        <time>2024-08-03T08:13:25Z</time>
      </trkpt>
      <trkpt lat="47.33222" lon="5.99786">
        <ele>243.8</ele>
        <time>2024-08-03T08:13:26Z</time>
      </trkpt>
      <trkpt lat="47.33222" lon="5.99786">
        <ele>243.8</ele>
        <time>2024-08-03T08:13:27Z</time>
      </trkpt>
      <trkpt lat="47.33223" lon="5.99786">
        <ele>243.8</ele>
        <time>2024-08-03T08:13:28Z</time>
      </trkpt>
      <trkpt lat="47.33223" lon="5.99786">
        <ele>243.8</ele>
        <time>2024-08-03T08:13:29Z</time>
      </trkpt>
      <trkpt lat="47.33224" lon="5.99786">
        <ele>243.8</ele>
        <time>2024-08-03T08:13:30Z</time>
      </trkpt>
      <trkpt lat="47.33224" lon="5.99786">
        <ele>243.8</ele>
        <time>2024-08-03T08:13:31Z</time>
      </trkpt>
      <trkpt lat="47.33224" lon="5.99786">
        <ele>243.8</ele>
        <time>2024-08-03T08:13:32Z</time>
      </trkpt>
      <trkpt lat="47.33224" lon="5.99786">
        <ele>243.8</ele>
        <time>2024-08-03T08:13:33Z</time>
      </trkpt>
      <trkpt lat="47.33224" lon="5.99786">
        <ele>243.8</ele>
        <time>2024-08-03T08:13:34Z</time>
      </trkpt>
      <trkpt lat="47.33224" lon="5.99786">
        <ele>243.8</ele>
        <time>2024-08-03T08:13:35Z</time>
      </trkpt>
      <trkpt lat="47.33224" lon="5.99786">
        <ele>243.6</ele>
        <time>2024-08-03T08:13:36Z</time>
      </trkpt>
      <trkpt lat="47.33224" lon="5.99786">
        <ele>243.6</ele>
        <time>2024-08-03T08:13:37Z</time>
      </trkpt>
      <trkpt lat="47.33224" lon="5.99786">
        <ele>243.6</ele>
        <time>2024-08-03T08:13:38Z</time>
      </trkpt>
      <trkpt lat="47.33224" lon="5.99786">
        <ele>243.6</ele>
        <time>2024-08-03T08:13:39Z</time>
      </trkpt>
      <trkpt lat="47.33224" lon="5.99786">
        <ele>243.6</ele>
        <time>2024-08-03T08:13:40Z</time>
      </trkpt>
      <trkpt lat="47.33224" lon="5.99786">
        <ele>243.6</ele>
        <time>2024-08-03T08:13:41Z</time>
      </trkpt>
      <trkpt lat="47.33224" lon="5.99786">
        <ele>243.8</ele>
        <time>2024-08-03T08:13:42Z</time>
      </trkpt>
      <trkpt lat="47.33224" lon="5.99786">
        <ele>243.8</ele>
        <time>2024-08-03T08:13:43Z</time>
      </trkpt>
      <trkpt lat="47.33224" lon="5.99786">
        <ele>243.6</ele>
        <time>2024-08-03T08:13:44Z</time>
      </trkpt>
      <trkpt lat="47.33224" lon="5.99786">
        <ele>243.6</ele>
        <time>2024-08-03T08:13:45Z</time>
      </trkpt>
      <trkpt lat="47.33224" lon="5.99786">
        <ele>243.6</ele>
        <time>2024-08-03T08:13:46Z</time>
      </trkpt>
      <trkpt lat="47.33224" lon="5.99786">
        <ele>243.6</ele>
        <time>2024-08-03T08:13:47Z</time>
      </trkpt>
      <trkpt lat="47.33224" lon="5.99786">
        <ele>243.6</ele>
        <time>2024-08-03T08:13:48Z</time>
      </trkpt>
      <trkpt lat="47.33224" lon="5.99786">
        <ele>243.8</ele>
        <time>2024-08-03T08:13:49Z</time>
      </trkpt>
      <trkpt lat="47.33224" lon="5.99786">
        <ele>243.6</ele>
        <time>2024-08-03T08:13:50Z</time>
      </trkpt>
      <trkpt lat="47.33224" lon="5.99786">
        <ele>243.8</ele>
        <time>2024-08-03T08:13:51Z</time>
      </trkpt>
      <trkpt lat="47.33224" lon="5.99786">
        <ele>243.8</ele>
        <time>2024-08-03T08:13:52Z</time>
      </trkpt>
      <trkpt lat="47.33224" lon="5.99786">
        <ele>243.6</ele>
        <time>2024-08-03T08:13:53Z</time>
      </trkpt>
      <trkpt lat="47.33224" lon="5.99786">
        <ele>243.8</ele>
        <time>2024-08-03T08:13:54Z</time>
      </trkpt>
      <trkpt lat="47.33224" lon="5.99786">
        <ele>243.6</ele>
        <time>2024-08-03T08:13:55Z</time>
      </trkpt>
      <trkpt lat="47.33224" lon="5.99786">
        <ele>243.8</ele>
        <time>2024-08-03T08:13:56Z</time>
      </trkpt>
      <trkpt lat="47.33224" lon="5.99786">
        <ele>243.6</ele>
        <time>2024-08-03T08:13:57Z</time>
      </trkpt>
      <trkpt lat="47.33224" lon="5.99786">
        <ele>243.8</ele>
        <time>2024-08-03T08:13:58Z</time>
      </trkpt>
      <trkpt lat="47.33224" lon="5.99786">
        <ele>243.6</ele>
        <time>2024-08-03T08:13:59Z</time>
      </trkpt>
      <trkpt lat="47.33224" lon="5.99786">
        <ele>243.8</ele>
        <time>2024-08-03T08:14:00Z</time>
      </trkpt>
      <trkpt lat="47.33224" lon="5.99786">
        <ele>243.8</ele>
        <time>2024-08-03T08:14:01Z</time>
      </trkpt>
      <trkpt lat="47.33225" lon="5.99786">
        <ele>243.8</ele>
        <time>2024-08-03T08:14:02Z</time>
      </trkpt>
      <trkpt lat="47.33225" lon="5.99786">
        <ele>243.8</ele>
        <time>2024-08-03T08:14:03Z</time>
      </trkpt>
      <trkpt lat="47.33225" lon="5.99786">
        <ele>243.8</ele>
        <time>2024-08-03T08:14:04Z</time>
      </trkpt>
      <trkpt lat="47.33225" lon="5.99786">
        <ele>243.8</ele>
        <time>2024-08-03T08:14:05Z</time>
      </trkpt>
      <trkpt lat="47.33225" lon="5.99786">
        <ele>243.8</ele>
        <time>2024-08-03T08:14:06Z</time>
      </trkpt>
      <trkpt lat="47.33225" lon="5.99786">
        <ele>243.8</ele>
        <time>2024-08-03T08:14:07Z</time>
      </trkpt>
      <trkpt lat="47.33225" lon="5.99786">
        <ele>243.8</ele>
        <time>2024-08-03T08:14:08Z</time>
      </trkpt>
      <trkpt lat="47.33225" lon="5.99786">
        <ele>243.8</ele>
        <time>2024-08-03T08:14:09Z</time>
      </trkpt>
      <trkpt lat="47.33225" lon="5.99786">
        <ele>243.8</ele>
        <time>2024-08-03T08:14:10Z</time>
      </trkpt>
      <trkpt lat="47.33225" lon="5.99786">
        <ele>243.8</ele>
        <time>2024-08-03T08:14:11Z</time>
      </trkpt>
      <trkpt lat="47.33225" lon="5.99786">
        <ele>244</ele>
        <time>2024-08-03T08:14:12Z</time>
      </trkpt>
      <trkpt lat="47.33225" lon="5.99786">
        <ele>244</ele>
        <time>2024-08-03T08:14:13Z</time>
      </trkpt>
      <trkpt lat="47.33225" lon="5.99786">
        <ele>243.8</ele>
        <time>2024-08-03T08:14:14Z</time>
      </trkpt>
      <trkpt lat="47.33225" lon="5.99786">
        <ele>243.8</ele>
        <time>2024-08-03T08:14:15Z</time>
      </trkpt>
      <trkpt lat="47.33225" lon="5.99786">
        <ele>243.8</ele>
        <time>2024-08-03T08:14:16Z</time>
      </trkpt>
      <trkpt lat="47.33225" lon="5.99786">
        <ele>244</ele>
        <time>2024-08-03T08:14:17Z</time>
      </trkpt>
      <trkpt lat="47.33225" lon="5.99786">
        <ele>243.8</ele>
        <time>2024-08-03T08:14:18Z</time>
      </trkpt>
      <trkpt lat="47.33225" lon="5.99786">
        <ele>243.8</ele>
        <time>2024-08-03T08:14:19Z</time>
      </trkpt>
      <trkpt lat="47.33225" lon="5.99786">
        <ele>244</ele>
        <time>2024-08-03T08:14:20Z</time>
      </trkpt>
      <trkpt lat="47.33225" lon="5.99786">
        <ele>244</ele>
        <time>2024-08-03T08:14:21Z</time>
      </trkpt>
      <trkpt lat="47.33225" lon="5.99786">
        <ele>243.8</ele>
        <time>2024-08-03T08:14:22Z</time>
      </trkpt>
      <trkpt lat="47.33225" lon="5.99786">
        <ele>243.8</ele>
        <time>2024-08-03T08:14:23Z</time>
      </trkpt>
      <trkpt lat="47.33225" lon="5.99786">
        <ele>243.8</ele>
        <time>2024-08-03T08:14:24Z</time>
      </trkpt>
      <trkpt lat="47.33225" lon="5.99786">
        <ele>243.8</ele>
        <time>2024-08-03T08:14:25Z</time>
      </trkpt>
      <trkpt lat="47.33225" lon="5.99786">
        <ele>243.8</ele>
        <time>2024-08-03T08:14:26Z</time>
      </trkpt>
      <trkpt lat="47.33225" lon="5.99786">
        <ele>243.8</ele>
        <time>2024-08-03T08:14:27Z</time>
      </trkpt>
      <trkpt lat="47.33225" lon="5.99786">
        <ele>243.8</ele>
        <time>2024-08-03T08:14:28Z</time>
      </trkpt>
      <trkpt lat="47.33225" lon="5.99786">
        <ele>243.8</ele>
        <time>2024-08-03T08:14:29Z</time>
      </trkpt>
      <trkpt lat="47.33225" lon="5.99786">
        <ele>243.8</ele>
        <time>2024-08-03T08:14:30Z</time>
      </trkpt>
      <trkpt lat="47.33225" lon="5.99786">
        <ele>243.8</ele>
        <time>2024-08-03T08:14:31Z</time>
      </trkpt>
      <trkpt lat="47.33225" lon="5.99786">
        <ele>243.8</ele>
        <time>2024-08-03T08:14:32Z</time>
      </trkpt>
      <trkpt lat="47.33225" lon="5.99786">
        <ele>243.8</ele>
        <time>2024-08-03T08:14:33Z</time>
      </trkpt>
      <trkpt lat="47.33225" lon="5.99786">
        <ele>243.6</ele>
        <time>2024-08-03T08:14:34Z</time>
      </trkpt>
      <trkpt lat="47.33225" lon="5.99786">
        <ele>243.6</ele>
        <time>2024-08-03T08:14:35Z</time>
      </trkpt>
      <trkpt lat="47.33225" lon="5.99786">
        <ele>243.6</ele>
        <time>2024-08-03T08:14:36Z</time>
      </trkpt>
      <trkpt lat="47.33225" lon="5.99785">
        <ele>243.6</ele>
        <time>2024-08-03T08:14:37Z</time>
      </trkpt>
      <trkpt lat="47.33225" lon="5.99785">
        <ele>243.6</ele>
        <time>2024-08-03T08:14:38Z</time>
      </trkpt>
      <trkpt lat="47.33225" lon="5.99785">
        <ele>243.6</ele>
        <time>2024-08-03T08:14:39Z</time>
      </trkpt>
      <trkpt lat="47.33225" lon="5.99785">
        <ele>243.6</ele>
        <time>2024-08-03T08:14:40Z</time>
      </trkpt>
      <trkpt lat="47.33225" lon="5.99785">
        <ele>243.6</ele>
        <time>2024-08-03T08:14:41Z</time>
      </trkpt>
      <trkpt lat="47.33225" lon="5.99785">
        <ele>243.6</ele>
        <time>2024-08-03T08:14:42Z</time>
      </trkpt>
      <trkpt lat="47.33225" lon="5.99785">
        <ele>243.6</ele>
        <time>2024-08-03T08:14:43Z</time>
      </trkpt>
      <trkpt lat="47.33225" lon="5.99785">
        <ele>243.8</ele>
        <time>2024-08-03T08:14:44Z</time>
      </trkpt>
      <trkpt lat="47.33225" lon="5.99786">
        <ele>243.6</ele>
        <time>2024-08-03T08:14:45Z</time>
      </trkpt>
      <trkpt lat="47.33225" lon="5.99786">
        <ele>243.6</ele>
        <time>2024-08-03T08:14:46Z</time>
      </trkpt>
      <trkpt lat="47.33225" lon="5.99786">
        <ele>243.6</ele>
        <time>2024-08-03T08:14:47Z</time>
      </trkpt>
      <trkpt lat="47.33225" lon="5.99786">
        <ele>243.6</ele>
        <time>2024-08-03T08:14:48Z</time>
      </trkpt>
      <trkpt lat="47.33225" lon="5.99786">
        <ele>243.8</ele>
        <time>2024-08-03T08:14:49Z</time>
      </trkpt>
      <trkpt lat="47.33225" lon="5.99786">
        <ele>243.8</ele>
        <time>2024-08-03T08:14:50Z</time>
      </trkpt>
      <trkpt lat="47.33225" lon="5.99786">
        <ele>243.6</ele>
        <time>2024-08-03T08:14:51Z</time>
      </trkpt>
      <trkpt lat="47.33225" lon="5.99786">
        <ele>243.8</ele>
        <time>2024-08-03T08:14:52Z</time>
      </trkpt>
      <trkpt lat="47.33225" lon="5.99786">
        <ele>244</ele>
        <time>2024-08-03T08:14:53Z</time>
      </trkpt>
      <trkpt lat="47.33225" lon="5.99786">
        <ele>243.8</ele>
        <time>2024-08-03T08:14:54Z</time>
      </trkpt>
      <trkpt lat="47.33225" lon="5.99786">
        <ele>243.8</ele>
        <time>2024-08-03T08:14:55Z</time>
      </trkpt>
      <trkpt lat="47.33225" lon="5.99786">
        <ele>243.8</ele>
        <time>2024-08-03T08:14:56Z</time>
      </trkpt>
      <trkpt lat="47.33225" lon="5.99786">
        <ele>243.8</ele>
        <time>2024-08-03T08:14:57Z</time>
      </trkpt>
      <trkpt lat="47.33225" lon="5.99786">
        <ele>243.8</ele>
        <time>2024-08-03T08:14:58Z</time>
      </trkpt>
      <trkpt lat="47.33225" lon="5.99786">
        <ele>244</ele>
        <time>2024-08-03T08:14:59Z</time>
      </trkpt>
      <trkpt lat="47.33225" lon="5.99786">
        <ele>243.8</ele>
        <time>2024-08-03T08:15:00Z</time>
      </trkpt>
      <trkpt lat="47.33225" lon="5.99786">
        <ele>243.8</ele>
        <time>2024-08-03T08:15:01Z</time>
      </trkpt>
      <trkpt lat="47.33225" lon="5.99786">
        <ele>243.8</ele>
        <time>2024-08-03T08:15:02Z</time>
      </trkpt>
      <trkpt lat="47.33225" lon="5.99786">
        <ele>243.8</ele>
        <time>2024-08-03T08:15:03Z</time>
      </trkpt>
      <trkpt lat="47.33225" lon="5.99786">
        <ele>243.8</ele>
        <time>2024-08-03T08:15:04Z</time>
      </trkpt>
      <trkpt lat="47.33225" lon="5.99786">
        <ele>243.8</ele>
        <time>2024-08-03T08:15:05Z</time>
      </trkpt>
      <trkpt lat="47.33225" lon="5.99786">
        <ele>243.8</ele>
        <time>2024-08-03T08:15:06Z</time>
      </trkpt>
      <trkpt lat="47.33225" lon="5.99786">
        <ele>243.8</ele>
        <time>2024-08-03T08:15:07Z</time>
      </trkpt>
      <trkpt lat="47.33225" lon="5.99786">
        <ele>243.8</ele>
        <time>2024-08-03T08:15:08Z</time>
      </trkpt>
      <trkpt lat="47.33225" lon="5.99786">
        <ele>243.8</ele>
        <time>2024-08-03T08:15:09Z</time>
      </trkpt>
      <trkpt lat="47.33225" lon="5.99786">
        <ele>243.6</ele>
        <time>2024-08-03T08:15:10Z</time>
      </trkpt>
      <trkpt lat="47.33225" lon="5.99786">
        <ele>243.8</ele>
        <time>2024-08-03T08:15:11Z</time>
      </trkpt>
      <trkpt lat="47.33225" lon="5.99786">
        <ele>243.8</ele>
        <time>2024-08-03T08:15:12Z</time>
      </trkpt>
      <trkpt lat="47.33226" lon="5.99786">
        <ele>243.6</ele>
        <time>2024-08-03T08:15:13Z</time>
      </trkpt>
      <trkpt lat="47.33226" lon="5.99787">
        <ele>243.8</ele>
        <time>2024-08-03T08:15:14Z</time>
      </trkpt>
      <trkpt lat="47.33226" lon="5.99787">
        <ele>243.8</ele>
        <time>2024-08-03T08:15:15Z</time>
      </trkpt>
      <trkpt lat="47.33227" lon="5.99787">
        <ele>243.6</ele>
        <time>2024-08-03T08:15:16Z</time>
      </trkpt>
      <trkpt lat="47.33227" lon="5.99787">
        <ele>243.6</ele>
        <time>2024-08-03T08:15:17Z</time>
      </trkpt>
      <trkpt lat="47.33227" lon="5.99787">
        <ele>243.8</ele>
        <time>2024-08-03T08:15:18Z</time>
      </trkpt>
      <trkpt lat="47.33227" lon="5.99787">
        <ele>243.8</ele>
        <time>2024-08-03T08:15:19Z</time>
      </trkpt>
      <trkpt lat="47.33227" lon="5.99787">
        <ele>243.8</ele>
        <time>2024-08-03T08:15:20Z</time>
      </trkpt>
      <trkpt lat="47.33227" lon="5.99787">
        <ele>243.8</ele>
        <time>2024-08-03T08:15:21Z</time>
      </trkpt>
      <trkpt lat="47.33227" lon="5.99787">
        <ele>243.8</ele>
        <time>2024-08-03T08:15:22Z</time>
      </trkpt>
      <trkpt lat="47.33227" lon="5.99787">
        <ele>243.8</ele>
        <time>2024-08-03T08:15:23Z</time>
      </trkpt>
      <trkpt lat="47.33227" lon="5.99787">
        <ele>243.8</ele>
        <time>2024-08-03T08:15:24Z</time>
      </trkpt>
      <trkpt lat="47.33227" lon="5.99787">
        <ele>243.8</ele>
        <time>2024-08-03T08:15:25Z</time>
      </trkpt>
      <trkpt lat="47.33227" lon="5.99787">
        <ele>243.8</ele>
        <time>2024-08-03T08:15:26Z</time>
      </trkpt>
      <trkpt lat="47.33227" lon="5.99787">
        <ele>244</ele>
        <time>2024-08-03T08:15:27Z</time>
      </trkpt>
      <trkpt lat="47.33227" lon="5.99787">
        <ele>244</ele>
        <time>2024-08-03T08:15:28Z</time>
      </trkpt>
      <trkpt lat="47.33227" lon="5.99787">
        <ele>243.8</ele>
        <time>2024-08-03T08:15:29Z</time>
      </trkpt>
      <trkpt lat="47.33227" lon="5.99787">
        <ele>243.8</ele>
        <time>2024-08-03T08:15:30Z</time>
      </trkpt>
      <trkpt lat="47.33227" lon="5.99787">
        <ele>244</ele>
        <time>2024-08-03T08:15:31Z</time>
      </trkpt>
      <trkpt lat="47.33227" lon="5.99788">
        <ele>243.8</ele>
        <time>2024-08-03T08:15:32Z</time>
      </trkpt>
      <trkpt lat="47.33227" lon="5.99788">
        <ele>243.8</ele>
        <time>2024-08-03T08:15:33Z</time>
      </trkpt>
      <trkpt lat="47.33227" lon="5.99788">
        <ele>244</ele>
        <time>2024-08-03T08:15:34Z</time>
      </trkpt>
      <trkpt lat="47.33227" lon="5.99788">
        <ele>244</ele>
        <time>2024-08-03T08:15:35Z</time>
      </trkpt>
      <trkpt lat="47.33227" lon="5.99788">
        <ele>243.8</ele>
        <time>2024-08-03T08:15:36Z</time>
      </trkpt>
      <trkpt lat="47.33227" lon="5.99788">
        <ele>243.8</ele>
        <time>2024-08-03T08:15:37Z</time>
      </trkpt>
      <trkpt lat="47.33227" lon="5.99787">
        <ele>244</ele>
        <time>2024-08-03T08:15:38Z</time>
      </trkpt>
      <trkpt lat="47.33227" lon="5.99787">
        <ele>243.8</ele>
        <time>2024-08-03T08:15:39Z</time>
      </trkpt>
      <trkpt lat="47.33227" lon="5.99787">
        <ele>243.8</ele>
        <time>2024-08-03T08:15:40Z</time>
      </trkpt>
      <trkpt lat="47.33227" lon="5.99787">
        <ele>243.8</ele>
        <time>2024-08-03T08:15:41Z</time>
      </trkpt>
      <trkpt lat="47.33227" lon="5.99787">
        <ele>244</ele>
        <time>2024-08-03T08:15:42Z</time>
      </trkpt>
      <trkpt lat="47.33227" lon="5.99787">
        <ele>244</ele>
        <time>2024-08-03T08:15:43Z</time>
      </trkpt>
      <trkpt lat="47.33227" lon="5.99787">
        <ele>244</ele>
        <time>2024-08-03T08:15:44Z</time>
      </trkpt>
      <trkpt lat="47.33227" lon="5.99787">
        <ele>243.8</ele>
        <time>2024-08-03T08:15:45Z</time>
      </trkpt>
      <trkpt lat="47.33227" lon="5.99787">
        <ele>243.8</ele>
        <time>2024-08-03T08:15:46Z</time>
      </trkpt>
      <trkpt lat="47.33227" lon="5.99787">
        <ele>243.8</ele>
        <time>2024-08-03T08:15:47Z</time>
      </trkpt>
      <trkpt lat="47.33227" lon="5.99787">
        <ele>243.8</ele>
        <time>2024-08-03T08:15:48Z</time>
      </trkpt>
      <trkpt lat="47.33227" lon="5.99787">
        <ele>243.8</ele>
        <time>2024-08-03T08:15:49Z</time>
      </trkpt>
      <trkpt lat="47.33228" lon="5.99787">
        <ele>243.6</ele>
        <time>2024-08-03T08:15:50Z</time>
      </trkpt>
      <trkpt lat="47.33228" lon="5.99787">
        <ele>243.8</ele>
        <time>2024-08-03T08:15:51Z</time>
      </trkpt>
      <trkpt lat="47.33228" lon="5.99787">
        <ele>243.8</ele>
        <time>2024-08-03T08:15:52Z</time>
      </trkpt>
      <trkpt lat="47.33228" lon="5.99787">
        <ele>243.6</ele>
        <time>2024-08-03T08:15:53Z</time>
      </trkpt>
      <trkpt lat="47.33229" lon="5.99788">
        <ele>243.8</ele>
        <time>2024-08-03T08:15:54Z</time>
      </trkpt>
      <trkpt lat="47.33229" lon="5.99788">
        <ele>243.8</ele>
        <time>2024-08-03T08:15:55Z</time>
      </trkpt>
      <trkpt lat="47.33229" lon="5.99788">
        <ele>243.6</ele>
        <time>2024-08-03T08:15:56Z</time>
      </trkpt>
      <trkpt lat="47.3323" lon="5.99788">
        <ele>243.8</ele>
        <time>2024-08-03T08:15:57Z</time>
      </trkpt>
      <trkpt lat="47.33229" lon="5.99788">
        <ele>243.6</ele>
        <time>2024-08-03T08:15:58Z</time>
      </trkpt>
      <trkpt lat="47.3323" lon="5.99788">
        <ele>243.6</ele>
        <time>2024-08-03T08:15:59Z</time>
      </trkpt>
      <trkpt lat="47.3323" lon="5.99788">
        <ele>243.6</ele>
        <time>2024-08-03T08:16:00Z</time>
      </trkpt>
      <trkpt lat="47.3323" lon="5.99788">
        <ele>243.6</ele>
        <time>2024-08-03T08:16:01Z</time>
      </trkpt>
      <trkpt lat="47.3323" lon="5.99788">
        <ele>243.6</ele>
        <time>2024-08-03T08:16:02Z</time>
      </trkpt>
      <trkpt lat="47.3323" lon="5.99788">
        <ele>243.6</ele>
        <time>2024-08-03T08:16:03Z</time>
      </trkpt>
      <trkpt lat="47.3323" lon="5.99788">
        <ele>243.6</ele>
        <time>2024-08-03T08:16:04Z</time>
      </trkpt>
      <trkpt lat="47.3323" lon="5.99788">
        <ele>243.8</ele>
        <time>2024-08-03T08:16:05Z</time>
      </trkpt>
      <trkpt lat="47.3323" lon="5.99788">
        <ele>243.6</ele>
        <time>2024-08-03T08:16:06Z</time>
      </trkpt>
      <trkpt lat="47.33229" lon="5.99788">
        <ele>243.6</ele>
        <time>2024-08-03T08:16:07Z</time>
      </trkpt>
      <trkpt lat="47.33229" lon="5.99788">
        <ele>243.6</ele>
        <time>2024-08-03T08:16:08Z</time>
      </trkpt>
      <trkpt lat="47.33229" lon="5.99788">
        <ele>243.6</ele>
        <time>2024-08-03T08:16:09Z</time>
      </trkpt>
      <trkpt lat="47.33229" lon="5.99788">
        <ele>243.6</ele>
        <time>2024-08-03T08:16:10Z</time>
      </trkpt>
      <trkpt lat="47.33229" lon="5.99788">
        <ele>243.8</ele>
        <time>2024-08-03T08:16:11Z</time>
      </trkpt>
      <trkpt lat="47.33229" lon="5.99788">
        <ele>243.8</ele>
        <time>2024-08-03T08:16:12Z</time>
      </trkpt>
      <trkpt lat="47.33229" lon="5.99788">
        <ele>243.6</ele>
        <time>2024-08-03T08:16:13Z</time>
      </trkpt>
      <trkpt lat="47.33229" lon="5.99788">
        <ele>243.6</ele>
        <time>2024-08-03T08:16:14Z</time>
      </trkpt>
      <trkpt lat="47.3323" lon="5.99788">
        <ele>243.8</ele>
        <time>2024-08-03T08:16:15Z</time>
      </trkpt>
      <trkpt lat="47.3323" lon="5.99788">
        <ele>243.8</ele>
        <time>2024-08-03T08:16:16Z</time>
      </trkpt>
      <trkpt lat="47.33231" lon="5.99788">
        <ele>243.6</ele>
        <time>2024-08-03T08:16:17Z</time>
      </trkpt>
      <trkpt lat="47.33231" lon="5.99789">
        <ele>243.6</ele>
        <time>2024-08-03T08:16:18Z</time>
      </trkpt>
      <trkpt lat="47.33232" lon="5.99789">
        <ele>243.8</ele>
        <time>2024-08-03T08:16:19Z</time>
      </trkpt>
      <trkpt lat="47.33232" lon="5.99789">
        <ele>243.6</ele>
        <time>2024-08-03T08:16:20Z</time>
      </trkpt>
      <trkpt lat="47.33233" lon="5.99789">
        <ele>243.8</ele>
        <time>2024-08-03T08:16:21Z</time>
      </trkpt>
      <trkpt lat="47.33233" lon="5.99789">
        <ele>243.8</ele>
        <time>2024-08-03T08:16:22Z</time>
      </trkpt>
      <trkpt lat="47.33234" lon="5.9979">
        <ele>243.8</ele>
        <time>2024-08-03T08:16:23Z</time>
      </trkpt>
      <trkpt lat="47.33234" lon="5.9979">
        <ele>243.8</ele>
        <time>2024-08-03T08:16:24Z</time>
      </trkpt>
      <trkpt lat="47.33234" lon="5.9979">
        <ele>243.8</ele>
        <time>2024-08-03T08:16:25Z</time>
      </trkpt>
      <trkpt lat="47.33234" lon="5.9979">
        <ele>243.8</ele>
        <time>2024-08-03T08:16:26Z</time>
      </trkpt>
      <trkpt lat="47.33234" lon="5.9979">
        <ele>243.6</ele>
        <time>2024-08-03T08:16:27Z</time>
      </trkpt>
      <trkpt lat="47.33235" lon="5.99791">
        <ele>243.6</ele>
        <time>2024-08-03T08:16:28Z</time>
      </trkpt>
      <trkpt lat="47.33235" lon="5.99791">
        <ele>243.8</ele>
        <time>2024-08-03T08:16:29Z</time>
      </trkpt>
      <trkpt lat="47.33235" lon="5.99791">
        <ele>243.6</ele>
        <time>2024-08-03T08:16:30Z</time>
      </trkpt>
      <trkpt lat="47.33235" lon="5.99791">
        <ele>243.6</ele>
        <time>2024-08-03T08:16:31Z</time>
      </trkpt>
      <trkpt lat="47.33235" lon="5.99791">
        <ele>243.6</ele>
        <time>2024-08-03T08:16:32Z</time>
      </trkpt>
      <trkpt lat="47.33235" lon="5.99791">
        <ele>243.6</ele>
        <time>2024-08-03T08:16:33Z</time>
      </trkpt>
      <trkpt lat="47.33235" lon="5.99791">
        <ele>243.6</ele>
        <time>2024-08-03T08:16:34Z</time>
      </trkpt>
      <trkpt lat="47.33236" lon="5.99791">
        <ele>243.6</ele>
        <time>2024-08-03T08:16:35Z</time>
      </trkpt>
      <trkpt lat="47.33236" lon="5.99791">
        <ele>243.6</ele>
        <time>2024-08-03T08:16:36Z</time>
      </trkpt>
      <trkpt lat="47.33236" lon="5.99791">
        <ele>243.6</ele>
        <time>2024-08-03T08:16:37Z</time>
      </trkpt>
      <trkpt lat="47.33236" lon="5.99791">
        <ele>243.6</ele>
        <time>2024-08-03T08:16:38Z</time>
      </trkpt>
      <trkpt lat="47.33236" lon="5.99791">
        <ele>243.6</ele>
        <time>2024-08-03T08:16:39Z</time>
      </trkpt>
      <trkpt lat="47.33236" lon="5.99791">
        <ele>243.4</ele>
        <time>2024-08-03T08:16:40Z</time>
      </trkpt>
      <trkpt lat="47.33236" lon="5.99792">
        <ele>243.6</ele>
        <time>2024-08-03T08:16:41Z</time>
      </trkpt>
      <trkpt lat="47.33236" lon="5.99792">
        <ele>243.4</ele>
        <time>2024-08-03T08:16:42Z</time>
      </trkpt>
      <trkpt lat="47.33236" lon="5.99792">
        <ele>243.4</ele>
        <time>2024-08-03T08:16:43Z</time>
      </trkpt>
      <trkpt lat="47.33236" lon="5.99792">
        <ele>243.4</ele>
        <time>2024-08-03T08:16:44Z</time>
      </trkpt>
      <trkpt lat="47.33236" lon="5.99792">
        <ele>243.4</ele>
        <time>2024-08-03T08:16:45Z</time>
      </trkpt>
      <trkpt lat="47.33237" lon="5.99792">
        <ele>243.4</ele>
        <time>2024-08-03T08:16:46Z</time>
      </trkpt>
      <trkpt lat="47.33237" lon="5.99792">
        <ele>243.6</ele>
        <time>2024-08-03T08:16:47Z</time>
      </trkpt>
      <trkpt lat="47.33237" lon="5.99792">
        <ele>243.6</ele>
        <time>2024-08-03T08:16:48Z</time>
      </trkpt>
      <trkpt lat="47.33237" lon="5.99792">
        <ele>243.6</ele>
        <time>2024-08-03T08:16:49Z</time>
      </trkpt>
      <trkpt lat="47.33237" lon="5.99792">
        <ele>243.4</ele>
        <time>2024-08-03T08:16:50Z</time>
      </trkpt>
      <trkpt lat="47.33237" lon="5.99792">
        <ele>243.6</ele>
        <time>2024-08-03T08:16:51Z</time>
      </trkpt>
      <trkpt lat="47.33237" lon="5.99792">
        <ele>243.6</ele>
        <time>2024-08-03T08:16:52Z</time>
      </trkpt>
      <trkpt lat="47.33237" lon="5.99792">
        <ele>243.6</ele>
        <time>2024-08-03T08:16:53Z</time>
      </trkpt>
      <trkpt lat="47.33237" lon="5.99792">
        <ele>243.6</ele>
        <time>2024-08-03T08:16:54Z</time>
      </trkpt>
      <trkpt lat="47.33237" lon="5.99792">
        <ele>243.6</ele>
        <time>2024-08-03T08:16:55Z</time>
      </trkpt>
      <trkpt lat="47.33237" lon="5.99792">
        <ele>243.6</ele>
        <time>2024-08-03T08:16:56Z</time>
      </trkpt>
      <trkpt lat="47.33237" lon="5.99792">
        <ele>243.6</ele>
        <time>2024-08-03T08:16:57Z</time>
      </trkpt>
      <trkpt lat="47.33237" lon="5.99792">
        <ele>243.6</ele>
        <time>2024-08-03T08:16:58Z</time>
      </trkpt>
      <trkpt lat="47.33237" lon="5.99792">
        <ele>243.6</ele>
        <time>2024-08-03T08:16:59Z</time>
      </trkpt>
      <trkpt lat="47.33237" lon="5.99793">
        <ele>243.6</ele>
        <time>2024-08-03T08:17:00Z</time>
      </trkpt>
      <trkpt lat="47.33237" lon="5.99793">
        <ele>243.6</ele>
        <time>2024-08-03T08:17:01Z</time>
      </trkpt>
      <trkpt lat="47.33237" lon="5.99793">
        <ele>243.8</ele>
        <time>2024-08-03T08:17:02Z</time>
      </trkpt>
      <trkpt lat="47.33237" lon="5.99793">
        <ele>243.8</ele>
        <time>2024-08-03T08:17:03Z</time>
      </trkpt>
      <trkpt lat="47.33237" lon="5.99793">
        <ele>243.6</ele>
        <time>2024-08-03T08:17:04Z</time>
      </trkpt>
      <trkpt lat="47.33237" lon="5.99793">
        <ele>243.6</ele>
        <time>2024-08-03T08:17:05Z</time>
      </trkpt>
      <trkpt lat="47.33237" lon="5.99793">
        <ele>243.6</ele>
        <time>2024-08-03T08:17:06Z</time>
      </trkpt>
      <trkpt lat="47.33237" lon="5.99793">
        <ele>243.4</ele>
        <time>2024-08-03T08:17:07Z</time>
      </trkpt>
      <trkpt lat="47.33237" lon="5.99793">
        <ele>243.6</ele>
        <time>2024-08-03T08:17:08Z</time>
      </trkpt>
      <trkpt lat="47.33237" lon="5.99793">
        <ele>243.6</ele>
        <time>2024-08-03T08:17:09Z</time>
      </trkpt>
      <trkpt lat="47.33237" lon="5.99793">
        <ele>243.6</ele>
        <time>2024-08-03T08:17:10Z</time>
      </trkpt>
      <trkpt lat="47.33237" lon="5.99793">
        <ele>243.6</ele>
        <time>2024-08-03T08:17:11Z</time>
      </trkpt>
      <trkpt lat="47.33237" lon="5.99793">
        <ele>243.6</ele>
        <time>2024-08-03T08:17:12Z</time>
      </trkpt>
      <trkpt lat="47.33237" lon="5.99793">
        <ele>243.6</ele>
        <time>2024-08-03T08:17:13Z</time>
      </trkpt>
      <trkpt lat="47.33237" lon="5.99793">
        <ele>243.6</ele>
        <time>2024-08-03T08:17:14Z</time>
      </trkpt>
      <trkpt lat="47.33237" lon="5.99793">
        <ele>243.6</ele>
        <time>2024-08-03T08:17:15Z</time>
      </trkpt>
      <trkpt lat="47.33237" lon="5.99793">
        <ele>243.4</ele>
        <time>2024-08-03T08:17:16Z</time>
      </trkpt>
      <trkpt lat="47.33238" lon="5.99793">
        <ele>243.4</ele>
        <time>2024-08-03T08:17:17Z</time>
      </trkpt>
      <trkpt lat="47.33238" lon="5.99793">
        <ele>243.6</ele>
        <time>2024-08-03T08:17:18Z</time>
      </trkpt>
      <trkpt lat="47.33238" lon="5.99792">
        <ele>243.6</ele>
        <time>2024-08-03T08:17:19Z</time>
      </trkpt>
      <trkpt lat="47.33237" lon="5.99792">
        <ele>243.6</ele>
        <time>2024-08-03T08:17:20Z</time>
      </trkpt>
      <trkpt lat="47.33237" lon="5.99792">
        <ele>243.6</ele>
        <time>2024-08-03T08:17:21Z</time>
      </trkpt>
      <trkpt lat="47.33237" lon="5.99792">
        <ele>243.6</ele>
        <time>2024-08-03T08:17:22Z</time>
      </trkpt>
      <trkpt lat="47.33237" lon="5.99792">
        <ele>243.6</ele>
        <time>2024-08-03T08:17:23Z</time>
      </trkpt>
      <trkpt lat="47.33237" lon="5.99792">
        <ele>243.6</ele>
        <time>2024-08-03T08:17:24Z</time>
      </trkpt>
      <trkpt lat="47.33237" lon="5.99792">
        <ele>243.6</ele>
        <time>2024-08-03T08:17:25Z</time>
      </trkpt>
      <trkpt lat="47.33237" lon="5.99792">
        <ele>243.6</ele>
        <time>2024-08-03T08:17:26Z</time>
      </trkpt>
      <trkpt lat="47.33237" lon="5.99792">
        <ele>243.6</ele>
        <time>2024-08-03T08:17:27Z</time>
      </trkpt>
      <trkpt lat="47.33237" lon="5.99792">
        <ele>243.6</ele>
        <time>2024-08-03T08:17:28Z</time>
      </trkpt>
      <trkpt lat="47.33237" lon="5.99792">
        <ele>243.6</ele>
        <time>2024-08-03T08:17:29Z</time>
      </trkpt>
      <trkpt lat="47.33237" lon="5.99792">
        <ele>243.6</ele>
        <time>2024-08-03T08:17:30Z</time>
      </trkpt>
      <trkpt lat="47.33237" lon="5.99792">
        <ele>243.6</ele>
        <time>2024-08-03T08:17:31Z</time>
      </trkpt>
      <trkpt lat="47.33237" lon="5.99792">
        <ele>243.8</ele>
        <time>2024-08-03T08:17:32Z</time>
      </trkpt>
      <trkpt lat="47.33237" lon="5.99792">
        <ele>243.8</ele>
        <time>2024-08-03T08:17:33Z</time>
      </trkpt>
      <trkpt lat="47.33237" lon="5.99792">
        <ele>243.6</ele>
        <time>2024-08-03T08:17:34Z</time>
      </trkpt>
      <trkpt lat="47.33237" lon="5.99792">
        <ele>243.8</ele>
        <time>2024-08-03T08:17:35Z</time>
      </trkpt>
      <trkpt lat="47.33237" lon="5.99792">
        <ele>243.8</ele>
        <time>2024-08-03T08:17:36Z</time>
      </trkpt>
      <trkpt lat="47.33237" lon="5.99792">
        <ele>243.8</ele>
        <time>2024-08-03T08:17:37Z</time>
      </trkpt>
      <trkpt lat="47.33237" lon="5.99792">
        <ele>243.6</ele>
        <time>2024-08-03T08:17:38Z</time>
      </trkpt>
      <trkpt lat="47.33237" lon="5.99792">
        <ele>243.8</ele>
        <time>2024-08-03T08:17:39Z</time>
      </trkpt>
      <trkpt lat="47.33237" lon="5.99792">
        <ele>243.8</ele>
        <time>2024-08-03T08:17:40Z</time>
      </trkpt>
      <trkpt lat="47.33237" lon="5.99792">
        <ele>243.6</ele>
        <time>2024-08-03T08:17:41Z</time>
      </trkpt>
      <trkpt lat="47.33237" lon="5.99792">
        <ele>243.6</ele>
        <time>2024-08-03T08:17:42Z</time>
      </trkpt>
      <trkpt lat="47.33238" lon="5.99792">
        <ele>243.6</ele>
        <time>2024-08-03T08:17:43Z</time>
      </trkpt>
      <trkpt lat="47.33238" lon="5.99792">
        <ele>243.8</ele>
        <time>2024-08-03T08:17:44Z</time>
      </trkpt>
      <trkpt lat="47.33238" lon="5.99792">
        <ele>243.6</ele>
        <time>2024-08-03T08:17:45Z</time>
      </trkpt>
      <trkpt lat="47.33238" lon="5.99792">
        <ele>243.8</ele>
        <time>2024-08-03T08:17:46Z</time>
      </trkpt>
      <trkpt lat="47.33238" lon="5.99792">
        <ele>243.6</ele>
        <time>2024-08-03T08:17:47Z</time>
      </trkpt>
      <trkpt lat="47.33238" lon="5.99792">
        <ele>243.8</ele>
        <time>2024-08-03T08:17:48Z</time>
      </trkpt>
      <trkpt lat="47.33238" lon="5.99792">
        <ele>243.8</ele>
        <time>2024-08-03T08:17:49Z</time>
      </trkpt>
      <trkpt lat="47.33238" lon="5.99792">
        <ele>243.8</ele>
        <time>2024-08-03T08:17:50Z</time>
      </trkpt>
      <trkpt lat="47.33238" lon="5.99792">
        <ele>243.8</ele>
        <time>2024-08-03T08:17:51Z</time>
      </trkpt>
      <trkpt lat="47.33238" lon="5.99792">
        <ele>243.8</ele>
        <time>2024-08-03T08:17:52Z</time>
      </trkpt>
      <trkpt lat="47.33238" lon="5.99792">
        <ele>243.6</ele>
        <time>2024-08-03T08:17:53Z</time>
      </trkpt>
      <trkpt lat="47.33238" lon="5.99792">
        <ele>243.6</ele>
        <time>2024-08-03T08:17:54Z</time>
      </trkpt>
      <trkpt lat="47.33238" lon="5.99792">
        <ele>243.6</ele>
        <time>2024-08-03T08:17:55Z</time>
      </trkpt>
      <trkpt lat="47.33238" lon="5.99792">
        <ele>243.6</ele>
        <time>2024-08-03T08:17:56Z</time>
      </trkpt>
      <trkpt lat="47.33238" lon="5.99792">
        <ele>243.6</ele>
        <time>2024-08-03T08:17:57Z</time>
      </trkpt>
      <trkpt lat="47.33238" lon="5.99792">
        <ele>243.6</ele>
        <time>2024-08-03T08:17:58Z</time>
      </trkpt>
      <trkpt lat="47.33237" lon="5.99792">
        <ele>243.6</ele>
        <time>2024-08-03T08:17:59Z</time>
      </trkpt>
      <trkpt lat="47.33237" lon="5.99792">
        <ele>243.6</ele>
        <time>2024-08-03T08:18:00Z</time>
      </trkpt>
      <trkpt lat="47.33237" lon="5.99792">
        <ele>243.6</ele>
        <time>2024-08-03T08:18:01Z</time>
      </trkpt>
      <trkpt lat="47.33237" lon="5.99792">
        <ele>243.6</ele>
        <time>2024-08-03T08:18:02Z</time>
      </trkpt>
      <trkpt lat="47.33237" lon="5.99792">
        <ele>243.6</ele>
        <time>2024-08-03T08:18:03Z</time>
      </trkpt>
      <trkpt lat="47.33237" lon="5.99792">
        <ele>243.6</ele>
        <time>2024-08-03T08:18:04Z</time>
      </trkpt>
      <trkpt lat="47.33237" lon="5.99792">
        <ele>243.6</ele>
        <time>2024-08-03T08:18:05Z</time>
      </trkpt>
      <trkpt lat="47.33238" lon="5.99792">
        <ele>243.4</ele>
        <time>2024-08-03T08:18:06Z</time>
      </trkpt>
      <trkpt lat="47.33238" lon="5.99792">
        <ele>243.6</ele>
        <time>2024-08-03T08:18:07Z</time>
      </trkpt>
      <trkpt lat="47.33238" lon="5.99792">
        <ele>243.6</ele>
        <time>2024-08-03T08:18:08Z</time>
      </trkpt>
      <trkpt lat="47.33238" lon="5.99792">
        <ele>243.6</ele>
        <time>2024-08-03T08:18:09Z</time>
      </trkpt>
      <trkpt lat="47.33238" lon="5.99792">
        <ele>243.6</ele>
        <time>2024-08-03T08:18:10Z</time>
      </trkpt>
      <trkpt lat="47.33238" lon="5.99792">
        <ele>243.6</ele>
        <time>2024-08-03T08:18:11Z</time>
      </trkpt>
      <trkpt lat="47.33238" lon="5.99792">
        <ele>243.6</ele>
        <time>2024-08-03T08:18:12Z</time>
      </trkpt>
      <trkpt lat="47.33238" lon="5.99792">
        <ele>243.6</ele>
        <time>2024-08-03T08:18:13Z</time>
      </trkpt>
      <trkpt lat="47.33237" lon="5.99792">
        <ele>243.6</ele>
        <time>2024-08-03T08:18:14Z</time>
      </trkpt>
      <trkpt lat="47.33237" lon="5.99792">
        <ele>243.6</ele>
        <time>2024-08-03T08:18:15Z</time>
      </trkpt>
      <trkpt lat="47.33237" lon="5.99792">
        <ele>243.6</ele>
        <time>2024-08-03T08:18:16Z</time>
      </trkpt>
      <trkpt lat="47.33237" lon="5.99792">
        <ele>243.6</ele>
        <time>2024-08-03T08:18:17Z</time>
      </trkpt>
      <trkpt lat="47.33237" lon="5.99792">
        <ele>243.6</ele>
        <time>2024-08-03T08:18:18Z</time>
      </trkpt>
      <trkpt lat="47.33237" lon="5.99792">
        <ele>243.6</ele>
        <time>2024-08-03T08:18:19Z</time>
      </trkpt>
      <trkpt lat="47.33237" lon="5.99792">
        <ele>243.6</ele>
        <time>2024-08-03T08:18:20Z</time>
      </trkpt>
      <trkpt lat="47.33237" lon="5.99792">
        <ele>243.6</ele>
        <time>2024-08-03T08:18:21Z</time>
      </trkpt>
      <trkpt lat="47.33237" lon="5.99792">
        <ele>243.6</ele>
        <time>2024-08-03T08:18:22Z</time>
      </trkpt>
      <trkpt lat="47.33237" lon="5.99792">
        <ele>243.6</ele>
        <time>2024-08-03T08:18:23Z</time>
      </trkpt>
      <trkpt lat="47.33237" lon="5.99792">
        <ele>243.6</ele>
        <time>2024-08-03T08:18:24Z</time>
      </trkpt>
      <trkpt lat="47.33237" lon="5.99792">
        <ele>243.6</ele>
        <time>2024-08-03T08:18:25Z</time>
      </trkpt>
      <trkpt lat="47.33237" lon="5.99792">
        <ele>243.6</ele>
        <time>2024-08-03T08:18:26Z</time>
      </trkpt>
      <trkpt lat="47.33237" lon="5.99792">
        <ele>243.6</ele>
        <time>2024-08-03T08:18:27Z</time>
      </trkpt>
      <trkpt lat="47.33237" lon="5.99792">
        <ele>243.6</ele>
        <time>2024-08-03T08:18:28Z</time>
      </trkpt>
      <trkpt lat="47.33237" lon="5.99792">
        <ele>243.8</ele>
        <time>2024-08-03T08:18:29Z</time>
      </trkpt>
      <trkpt lat="47.33237" lon="5.99792">
        <ele>243.6</ele>
        <time>2024-08-03T08:18:30Z</time>
      </trkpt>
      <trkpt lat="47.33237" lon="5.99792">
        <ele>243.6</ele>
        <time>2024-08-03T08:18:31Z</time>
      </trkpt>
      <trkpt lat="47.33237" lon="5.99792">
        <ele>243.6</ele>
        <time>2024-08-03T08:18:32Z</time>
      </trkpt>
      <trkpt lat="47.33237" lon="5.99792">
        <ele>243.6</ele>
        <time>2024-08-03T08:18:33Z</time>
      </trkpt>
      <trkpt lat="47.33237" lon="5.99792">
        <ele>243.6</ele>
        <time>2024-08-03T08:18:34Z</time>
      </trkpt>
      <trkpt lat="47.33237" lon="5.99792">
        <ele>243.6</ele>
        <time>2024-08-03T08:18:35Z</time>
      </trkpt>
      <trkpt lat="47.33237" lon="5.99792">
        <ele>243.6</ele>
        <time>2024-08-03T08:18:36Z</time>
      </trkpt>
      <trkpt lat="47.33237" lon="5.99792">
        <ele>243.6</ele>
        <time>2024-08-03T08:18:37Z</time>
      </trkpt>
      <trkpt lat="47.33237" lon="5.99792">
        <ele>243.4</ele>
        <time>2024-08-03T08:18:38Z</time>
      </trkpt>
      <trkpt lat="47.33237" lon="5.99792">
        <ele>243.6</ele>
        <time>2024-08-03T08:18:39Z</time>
      </trkpt>
      <trkpt lat="47.33237" lon="5.99792">
        <ele>243.6</ele>
        <time>2024-08-03T08:18:40Z</time>
      </trkpt>
      <trkpt lat="47.33237" lon="5.99792">
        <ele>243.6</ele>
        <time>2024-08-03T08:18:41Z</time>
      </trkpt>
      <trkpt lat="47.33237" lon="5.99792">
        <ele>243.6</ele>
        <time>2024-08-03T08:18:42Z</time>
      </trkpt>
      <trkpt lat="47.33237" lon="5.99792">
        <ele>243.6</ele>
        <time>2024-08-03T08:18:43Z</time>
      </trkpt>
      <trkpt lat="47.33237" lon="5.99792">
        <ele>243.6</ele>
        <time>2024-08-03T08:18:44Z</time>
      </trkpt>
      <trkpt lat="47.33237" lon="5.99792">
        <ele>243.6</ele>
        <time>2024-08-03T08:18:45Z</time>
      </trkpt>
      <trkpt lat="47.33237" lon="5.99792">
        <ele>243.6</ele>
        <time>2024-08-03T08:18:46Z</time>
      </trkpt>
      <trkpt lat="47.33237" lon="5.99792">
        <ele>243.6</ele>
        <time>2024-08-03T08:18:47Z</time>
      </trkpt>
      <trkpt lat="47.33237" lon="5.99792">
        <ele>243.6</ele>
        <time>2024-08-03T08:18:48Z</time>
      </trkpt>
      <trkpt lat="47.33237" lon="5.99792">
        <ele>243.6</ele>
        <time>2024-08-03T08:18:49Z</time>
      </trkpt>
      <trkpt lat="47.33237" lon="5.99792">
        <ele>243.6</ele>
        <time>2024-08-03T08:18:50Z</time>
      </trkpt>
      <trkpt lat="47.33237" lon="5.99792">
        <ele>243.6</ele>
        <time>2024-08-03T08:18:51Z</time>
      </trkpt>
      <trkpt lat="47.33237" lon="5.99792">
        <ele>243.4</ele>
        <time>2024-08-03T08:18:52Z</time>
      </trkpt>
      <trkpt lat="47.33237" lon="5.99792">
        <ele>243.6</ele>
        <time>2024-08-03T08:18:53Z</time>
      </trkpt>
      <trkpt lat="47.33237" lon="5.99791">
        <ele>243.4</ele>
        <time>2024-08-03T08:18:54Z</time>
      </trkpt>
      <trkpt lat="47.33237" lon="5.99791">
        <ele>243.6</ele>
        <time>2024-08-03T08:18:55Z</time>
      </trkpt>
      <trkpt lat="47.33237" lon="5.99791">
        <ele>243.4</ele>
        <time>2024-08-03T08:18:56Z</time>
      </trkpt>
      <trkpt lat="47.33237" lon="5.99791">
        <ele>243.6</ele>
        <time>2024-08-03T08:18:57Z</time>
      </trkpt>
      <trkpt lat="47.33237" lon="5.99791">
        <ele>243.6</ele>
        <time>2024-08-03T08:18:58Z</time>
      </trkpt>
      <trkpt lat="47.33237" lon="5.99791">
        <ele>243.6</ele>
        <time>2024-08-03T08:18:59Z</time>
      </trkpt>
      <trkpt lat="47.33237" lon="5.99791">
        <ele>243.4</ele>
        <time>2024-08-03T08:19:00Z</time>
      </trkpt>
      <trkpt lat="47.33237" lon="5.99791">
        <ele>243.4</ele>
        <time>2024-08-03T08:19:01Z</time>
      </trkpt>
      <trkpt lat="47.33237" lon="5.99791">
        <ele>243.4</ele>
        <time>2024-08-03T08:19:02Z</time>
      </trkpt>
      <trkpt lat="47.33237" lon="5.99791">
        <ele>243.4</ele>
        <time>2024-08-03T08:19:03Z</time>
      </trkpt>
      <trkpt lat="47.33237" lon="5.99791">
        <ele>243.6</ele>
        <time>2024-08-03T08:19:04Z</time>
      </trkpt>
      <trkpt lat="47.33237" lon="5.99791">
        <ele>243.4</ele>
        <time>2024-08-03T08:19:05Z</time>
      </trkpt>
      <trkpt lat="47.33237" lon="5.99791">
        <ele>243.6</ele>
        <time>2024-08-03T08:19:06Z</time>
      </trkpt>
      <trkpt lat="47.33237" lon="5.99791">
        <ele>243.4</ele>
        <time>2024-08-03T08:19:07Z</time>
      </trkpt>
      <trkpt lat="47.33237" lon="5.99791">
        <ele>243.6</ele>
        <time>2024-08-03T08:19:08Z</time>
      </trkpt>
      <trkpt lat="47.33237" lon="5.99791">
        <ele>243.6</ele>
        <time>2024-08-03T08:19:09Z</time>
      </trkpt>
      <trkpt lat="47.33237" lon="5.99791">
        <ele>243.6</ele>
        <time>2024-08-03T08:19:10Z</time>
      </trkpt>
      <trkpt lat="47.33237" lon="5.99791">
        <ele>243.6</ele>
        <time>2024-08-03T08:19:11Z</time>
      </trkpt>
      <trkpt lat="47.33237" lon="5.99791">
        <ele>243.6</ele>
        <time>2024-08-03T08:19:12Z</time>
      </trkpt>
      <trkpt lat="47.33237" lon="5.99791">
        <ele>243.4</ele>
        <time>2024-08-03T08:19:13Z</time>
      </trkpt>
      <trkpt lat="47.33237" lon="5.99791">
        <ele>243.6</ele>
        <time>2024-08-03T08:19:14Z</time>
      </trkpt>
      <trkpt lat="47.33237" lon="5.99791">
        <ele>243.4</ele>
        <time>2024-08-03T08:19:15Z</time>
      </trkpt>
      <trkpt lat="47.33237" lon="5.99791">
        <ele>243.6</ele>
        <time>2024-08-03T08:19:16Z</time>
      </trkpt>
      <trkpt lat="47.33237" lon="5.99791">
        <ele>243.6</ele>
        <time>2024-08-03T08:19:17Z</time>
      </trkpt>
      <trkpt lat="47.33237" lon="5.99791">
        <ele>243.6</ele>
        <time>2024-08-03T08:19:18Z</time>
      </trkpt>
      <trkpt lat="47.33237" lon="5.99791">
        <ele>243.4</ele>
        <time>2024-08-03T08:19:19Z</time>
      </trkpt>
      <trkpt lat="47.33237" lon="5.99791">
        <ele>243.4</ele>
        <time>2024-08-03T08:19:20Z</time>
      </trkpt>
      <trkpt lat="47.33237" lon="5.99791">
        <ele>243.6</ele>
        <time>2024-08-03T08:19:21Z</time>
      </trkpt>
      <trkpt lat="47.33237" lon="5.99791">
        <ele>243.6</ele>
        <time>2024-08-03T08:19:22Z</time>
      </trkpt>
      <trkpt lat="47.33237" lon="5.99791">
        <ele>243.6</ele>
        <time>2024-08-03T08:19:23Z</time>
      </trkpt>
      <trkpt lat="47.33237" lon="5.99791">
        <ele>243.6</ele>
        <time>2024-08-03T08:19:24Z</time>
      </trkpt>
      <trkpt lat="47.33237" lon="5.99791">
        <ele>243.6</ele>
        <time>2024-08-03T08:19:25Z</time>
      </trkpt>
      <trkpt lat="47.33237" lon="5.99791">
        <ele>243.6</ele>
        <time>2024-08-03T08:19:26Z</time>
      </trkpt>
      <trkpt lat="47.33237" lon="5.99791">
        <ele>243.6</ele>
        <time>2024-08-03T08:19:27Z</time>
      </trkpt>
      <trkpt lat="47.33237" lon="5.99791">
        <ele>243.8</ele>
        <time>2024-08-03T08:19:28Z</time>
      </trkpt>
      <trkpt lat="47.33237" lon="5.99791">
        <ele>243.6</ele>
        <time>2024-08-03T08:19:29Z</time>
      </trkpt>
      <trkpt lat="47.33237" lon="5.99791">
        <ele>243.8</ele>
        <time>2024-08-03T08:19:30Z</time>
      </trkpt>
      <trkpt lat="47.33237" lon="5.99791">
        <ele>243.8</ele>
        <time>2024-08-03T08:19:31Z</time>
      </trkpt>
      <trkpt lat="47.33237" lon="5.99791">
        <ele>243.6</ele>
        <time>2024-08-03T08:19:32Z</time>
      </trkpt>
      <trkpt lat="47.33237" lon="5.99791">
        <ele>243.6</ele>
        <time>2024-08-03T08:19:33Z</time>
      </trkpt>
      <trkpt lat="47.33237" lon="5.99791">
        <ele>243.6</ele>
        <time>2024-08-03T08:19:34Z</time>
      </trkpt>
      <trkpt lat="47.33237" lon="5.99791">
        <ele>243.8</ele>
        <time>2024-08-03T08:19:35Z</time>
      </trkpt>
      <trkpt lat="47.33237" lon="5.99791">
        <ele>243.8</ele>
        <time>2024-08-03T08:19:36Z</time>
      </trkpt>
      <trkpt lat="47.33237" lon="5.99791">
        <ele>243.8</ele>
        <time>2024-08-03T08:19:37Z</time>
      </trkpt>
      <trkpt lat="47.33237" lon="5.99791">
        <ele>243.8</ele>
        <time>2024-08-03T08:19:38Z</time>
      </trkpt>
      <trkpt lat="47.33237" lon="5.99791">
        <ele>243.6</ele>
        <time>2024-08-03T08:19:39Z</time>
      </trkpt>
      <trkpt lat="47.33237" lon="5.99791">
        <ele>243.8</ele>
        <time>2024-08-03T08:19:40Z</time>
      </trkpt>
      <trkpt lat="47.33237" lon="5.99791">
        <ele>243.8</ele>
        <time>2024-08-03T08:19:41Z</time>
      </trkpt>
      <trkpt lat="47.33237" lon="5.99791">
        <ele>243.8</ele>
        <time>2024-08-03T08:19:42Z</time>
      </trkpt>
      <trkpt lat="47.33237" lon="5.99791">
        <ele>243.8</ele>
        <time>2024-08-03T08:19:43Z</time>
      </trkpt>
      <trkpt lat="47.33237" lon="5.99791">
        <ele>243.8</ele>
        <time>2024-08-03T08:19:44Z</time>
      </trkpt>
      <trkpt lat="47.33237" lon="5.99791">
        <ele>243.8</ele>
        <time>2024-08-03T08:19:45Z</time>
      </trkpt>
      <trkpt lat="47.33237" lon="5.99791">
        <ele>243.6</ele>
        <time>2024-08-03T08:19:46Z</time>
      </trkpt>
      <trkpt lat="47.33237" lon="5.99791">
        <ele>243.6</ele>
        <time>2024-08-03T08:19:47Z</time>
      </trkpt>
      <trkpt lat="47.33237" lon="5.99791">
        <ele>243.8</ele>
        <time>2024-08-03T08:19:48Z</time>
      </trkpt>
      <trkpt lat="47.33237" lon="5.99791">
        <ele>243.8</ele>
        <time>2024-08-03T08:19:49Z</time>
      </trkpt>
      <trkpt lat="47.33237" lon="5.99791">
        <ele>243.8</ele>
        <time>2024-08-03T08:19:50Z</time>
      </trkpt>
      <trkpt lat="47.33237" lon="5.99792">
        <ele>243.8</ele>
        <time>2024-08-03T08:19:51Z</time>
      </trkpt>
      <trkpt lat="47.33238" lon="5.99792">
        <ele>243.8</ele>
        <time>2024-08-03T08:19:52Z</time>
      </trkpt>
      <trkpt lat="47.33238" lon="5.99792">
        <ele>243.8</ele>
        <time>2024-08-03T08:19:53Z</time>
      </trkpt>
      <trkpt lat="47.33238" lon="5.99792">
        <ele>243.8</ele>
        <time>2024-08-03T08:19:54Z</time>
      </trkpt>
      <trkpt lat="47.33238" lon="5.99792">
        <ele>243.8</ele>
        <time>2024-08-03T08:19:55Z</time>
      </trkpt>
      <trkpt lat="47.33238" lon="5.99792">
        <ele>243.8</ele>
        <time>2024-08-03T08:19:56Z</time>
      </trkpt>
      <trkpt lat="47.33238" lon="5.99792">
        <ele>243.8</ele>
        <time>2024-08-03T08:19:57Z</time>
      </trkpt>
      <trkpt lat="47.33238" lon="5.99792">
        <ele>243.8</ele>
        <time>2024-08-03T08:19:58Z</time>
      </trkpt>
      <trkpt lat="47.33238" lon="5.99792">
        <ele>243.8</ele>
        <time>2024-08-03T08:19:59Z</time>
      </trkpt>
      <trkpt lat="47.33238" lon="5.99792">
        <ele>243.8</ele>
        <time>2024-08-03T08:20:00Z</time>
      </trkpt>
      <trkpt lat="47.33238" lon="5.99793">
        <ele>243.8</ele>
        <time>2024-08-03T08:20:01Z</time>
      </trkpt>
      <trkpt lat="47.33238" lon="5.99793">
        <ele>244</ele>
        <time>2024-08-03T08:20:02Z</time>
      </trkpt>
      <trkpt lat="47.33239" lon="5.99793">
        <ele>243.8</ele>
        <time>2024-08-03T08:20:03Z</time>
      </trkpt>
      <trkpt lat="47.33239" lon="5.99793">
        <ele>243.8</ele>
        <time>2024-08-03T08:20:04Z</time>
      </trkpt>
      <trkpt lat="47.33239" lon="5.99793">
        <ele>243.8</ele>
        <time>2024-08-03T08:20:05Z</time>
      </trkpt>
      <trkpt lat="47.33239" lon="5.99793">
        <ele>243.8</ele>
        <time>2024-08-03T08:20:06Z</time>
      </trkpt>
      <trkpt lat="47.33239" lon="5.99793">
        <ele>243.8</ele>
        <time>2024-08-03T08:20:07Z</time>
      </trkpt>
      <trkpt lat="47.33239" lon="5.99793">
        <ele>243.8</ele>
        <time>2024-08-03T08:20:08Z</time>
      </trkpt>
      <trkpt lat="47.33239" lon="5.99793">
        <ele>243.8</ele>
        <time>2024-08-03T08:20:09Z</time>
      </trkpt>
      <trkpt lat="47.33239" lon="5.99793">
        <ele>243.8</ele>
        <time>2024-08-03T08:20:10Z</time>
      </trkpt>
      <trkpt lat="47.33239" lon="5.99793">
        <ele>243.8</ele>
        <time>2024-08-03T08:20:11Z</time>
      </trkpt>
      <trkpt lat="47.33239" lon="5.99793">
        <ele>243.8</ele>
        <time>2024-08-03T08:20:12Z</time>
      </trkpt>
      <trkpt lat="47.33239" lon="5.99793">
        <ele>243.8</ele>
        <time>2024-08-03T08:20:13Z</time>
      </trkpt>
      <trkpt lat="47.33239" lon="5.99793">
        <ele>243.8</ele>
        <time>2024-08-03T08:20:14Z</time>
      </trkpt>
      <trkpt lat="47.33239" lon="5.99793">
        <ele>243.8</ele>
        <time>2024-08-03T08:20:15Z</time>
      </trkpt>
      <trkpt lat="47.33239" lon="5.99793">
        <ele>243.8</ele>
        <time>2024-08-03T08:20:16Z</time>
      </trkpt>
      <trkpt lat="47.33239" lon="5.99793">
        <ele>243.8</ele>
        <time>2024-08-03T08:20:17Z</time>
      </trkpt>
      <trkpt lat="47.33239" lon="5.99793">
        <ele>243.6</ele>
        <time>2024-08-03T08:20:18Z</time>
      </trkpt>
      <trkpt lat="47.33239" lon="5.99793">
        <ele>243.8</ele>
        <time>2024-08-03T08:20:19Z</time>
      </trkpt>
      <trkpt lat="47.33239" lon="5.99793">
        <ele>243.8</ele>
        <time>2024-08-03T08:20:20Z</time>
      </trkpt>
      <trkpt lat="47.33239" lon="5.99793">
        <ele>243.8</ele>
        <time>2024-08-03T08:20:21Z</time>
      </trkpt>
      <trkpt lat="47.33239" lon="5.99793">
        <ele>243.6</ele>
        <time>2024-08-03T08:20:22Z</time>
      </trkpt>
      <trkpt lat="47.33239" lon="5.99793">
        <ele>243.8</ele>
        <time>2024-08-03T08:20:23Z</time>
      </trkpt>
      <trkpt lat="47.33239" lon="5.99793">
        <ele>243.8</ele>
        <time>2024-08-03T08:20:24Z</time>
      </trkpt>
      <trkpt lat="47.33239" lon="5.99793">
        <ele>243.8</ele>
        <time>2024-08-03T08:20:25Z</time>
      </trkpt>
      <trkpt lat="47.33239" lon="5.99793">
        <ele>243.8</ele>
        <time>2024-08-03T08:20:26Z</time>
      </trkpt>
      <trkpt lat="47.33239" lon="5.99793">
        <ele>243.8</ele>
        <time>2024-08-03T08:20:27Z</time>
      </trkpt>
      <trkpt lat="47.33239" lon="5.99793">
        <ele>243.8</ele>
        <time>2024-08-03T08:20:28Z</time>
      </trkpt>
      <trkpt lat="47.33239" lon="5.99793">
        <ele>243.8</ele>
        <time>2024-08-03T08:20:29Z</time>
      </trkpt>
      <trkpt lat="47.33239" lon="5.99793">
        <ele>243.8</ele>
        <time>2024-08-03T08:20:30Z</time>
      </trkpt>
      <trkpt lat="47.33239" lon="5.99793">
        <ele>243.8</ele>
        <time>2024-08-03T08:20:31Z</time>
      </trkpt>
      <trkpt lat="47.33239" lon="5.99793">
        <ele>243.8</ele>
        <time>2024-08-03T08:20:32Z</time>
      </trkpt>
      <trkpt lat="47.33239" lon="5.99793">
        <ele>243.8</ele>
        <time>2024-08-03T08:20:33Z</time>
      </trkpt>
      <trkpt lat="47.33239" lon="5.99793">
        <ele>243.8</ele>
        <time>2024-08-03T08:20:34Z</time>
      </trkpt>
      <trkpt lat="47.33239" lon="5.99793">
        <ele>243.8</ele>
        <time>2024-08-03T08:20:35Z</time>
      </trkpt>
      <trkpt lat="47.33239" lon="5.99793">
        <ele>243.8</ele>
        <time>2024-08-03T08:20:36Z</time>
      </trkpt>
      <trkpt lat="47.33239" lon="5.99793">
        <ele>243.8</ele>
        <time>2024-08-03T08:20:37Z</time>
      </trkpt>
      <trkpt lat="47.33239" lon="5.99793">
        <ele>243.8</ele>
        <time>2024-08-03T08:20:38Z</time>
      </trkpt>
      <trkpt lat="47.33239" lon="5.99793">
        <ele>243.8</ele>
        <time>2024-08-03T08:20:39Z</time>
      </trkpt>
      <trkpt lat="47.33239" lon="5.99793">
        <ele>243.8</ele>
        <time>2024-08-03T08:20:40Z</time>
      </trkpt>
      <trkpt lat="47.33239" lon="5.99793">
        <ele>243.8</ele>
        <time>2024-08-03T08:20:41Z</time>
      </trkpt>
      <trkpt lat="47.33239" lon="5.99793">
        <ele>243.8</ele>
        <time>2024-08-03T08:20:42Z</time>
      </trkpt>
      <trkpt lat="47.33239" lon="5.99793">
        <ele>243.8</ele>
        <time>2024-08-03T08:20:43Z</time>
      </trkpt>
      <trkpt lat="47.33239" lon="5.99793">
        <ele>243.8</ele>
        <time>2024-08-03T08:20:44Z</time>
      </trkpt>
      <trkpt lat="47.33239" lon="5.99793">
        <ele>243.8</ele>
        <time>2024-08-03T08:20:45Z</time>
      </trkpt>
      <trkpt lat="47.33239" lon="5.99793">
        <ele>243.8</ele>
        <time>2024-08-03T08:20:46Z</time>
      </trkpt>
      <trkpt lat="47.33239" lon="5.99793">
        <ele>243.8</ele>
        <time>2024-08-03T08:20:47Z</time>
      </trkpt>
      <trkpt lat="47.33239" lon="5.99793">
        <ele>243.6</ele>
        <time>2024-08-03T08:20:48Z</time>
      </trkpt>
      <trkpt lat="47.33239" lon="5.99793">
        <ele>243.8</ele>
        <time>2024-08-03T08:20:49Z</time>
      </trkpt>
      <trkpt lat="47.33239" lon="5.99793">
        <ele>243.8</ele>
        <time>2024-08-03T08:20:50Z</time>
      </trkpt>
      <trkpt lat="47.33239" lon="5.99793">
        <ele>243.8</ele>
        <time>2024-08-03T08:20:51Z</time>
      </trkpt>
      <trkpt lat="47.3324" lon="5.99793">
        <ele>243.8</ele>
        <time>2024-08-03T08:20:52Z</time>
      </trkpt>
      <trkpt lat="47.3324" lon="5.99793">
        <ele>243.8</ele>
        <time>2024-08-03T08:20:53Z</time>
      </trkpt>
      <trkpt lat="47.3324" lon="5.99793">
        <ele>243.8</ele>
        <time>2024-08-03T08:20:54Z</time>
      </trkpt>
      <trkpt lat="47.3324" lon="5.99793">
        <ele>243.8</ele>
        <time>2024-08-03T08:20:55Z</time>
      </trkpt>
      <trkpt lat="47.3324" lon="5.99793">
        <ele>243.8</ele>
        <time>2024-08-03T08:20:56Z</time>
      </trkpt>
      <trkpt lat="47.3324" lon="5.99793">
        <ele>243.8</ele>
        <time>2024-08-03T08:20:57Z</time>
      </trkpt>
      <trkpt lat="47.3324" lon="5.99793">
        <ele>243.8</ele>
        <time>2024-08-03T08:20:58Z</time>
      </trkpt>
      <trkpt lat="47.3324" lon="5.99793">
        <ele>243.8</ele>
        <time>2024-08-03T08:20:59Z</time>
      </trkpt>
      <trkpt lat="47.3324" lon="5.99793">
        <ele>243.8</ele>
        <time>2024-08-03T08:21:00Z</time>
      </trkpt>
      <trkpt lat="47.3324" lon="5.99793">
        <ele>243.8</ele>
        <time>2024-08-03T08:21:01Z</time>
      </trkpt>
      <trkpt lat="47.3324" lon="5.99793">
        <ele>243.8</ele>
        <time>2024-08-03T08:21:02Z</time>
      </trkpt>
      <trkpt lat="47.3324" lon="5.99793">
        <ele>243.8</ele>
        <time>2024-08-03T08:21:03Z</time>
      </trkpt>
      <trkpt lat="47.3324" lon="5.99793">
        <ele>243.8</ele>
        <time>2024-08-03T08:21:04Z</time>
      </trkpt>
      <trkpt lat="47.3324" lon="5.99793">
        <ele>243.8</ele>
        <time>2024-08-03T08:21:05Z</time>
      </trkpt>
      <trkpt lat="47.3324" lon="5.99793">
        <ele>243.8</ele>
        <time>2024-08-03T08:21:06Z</time>
      </trkpt>
      <trkpt lat="47.3324" lon="5.99793">
        <ele>243.8</ele>
        <time>2024-08-03T08:21:07Z</time>
      </trkpt>
      <trkpt lat="47.3324" lon="5.99793">
        <ele>243.8</ele>
        <time>2024-08-03T08:21:08Z</time>
      </trkpt>
      <trkpt lat="47.3324" lon="5.99793">
        <ele>243.8</ele>
        <time>2024-08-03T08:21:09Z</time>
      </trkpt>
      <trkpt lat="47.3324" lon="5.99793">
        <ele>243.8</ele>
        <time>2024-08-03T08:21:10Z</time>
      </trkpt>
      <trkpt lat="47.3324" lon="5.99793">
        <ele>243.8</ele>
        <time>2024-08-03T08:21:11Z</time>
      </trkpt>
      <trkpt lat="47.3324" lon="5.99793">
        <ele>243.6</ele>
        <time>2024-08-03T08:21:12Z</time>
      </trkpt>
      <trkpt lat="47.3324" lon="5.99793">
        <ele>243.8</ele>
        <time>2024-08-03T08:21:13Z</time>
      </trkpt>
      <trkpt lat="47.3324" lon="5.99793">
        <ele>243.8</ele>
        <time>2024-08-03T08:21:14Z</time>
      </trkpt>
      <trkpt lat="47.3324" lon="5.99793">
        <ele>243.8</ele>
        <time>2024-08-03T08:21:15Z</time>
      </trkpt>
      <trkpt lat="47.3324" lon="5.99793">
        <ele>243.8</ele>
        <time>2024-08-03T08:21:16Z</time>
      </trkpt>
      <trkpt lat="47.3324" lon="5.99793">
        <ele>243.8</ele>
        <time>2024-08-03T08:21:17Z</time>
      </trkpt>
      <trkpt lat="47.3324" lon="5.99793">
        <ele>243.6</ele>
        <time>2024-08-03T08:21:18Z</time>
      </trkpt>
      <trkpt lat="47.3324" lon="5.99793">
        <ele>243.8</ele>
        <time>2024-08-03T08:21:19Z</time>
      </trkpt>
      <trkpt lat="47.3324" lon="5.99793">
        <ele>243.8</ele>
        <time>2024-08-03T08:21:20Z</time>
      </trkpt>
      <trkpt lat="47.3324" lon="5.99793">
        <ele>243.8</ele>
        <time>2024-08-03T08:21:21Z</time>
      </trkpt>
      <trkpt lat="47.3324" lon="5.99793">
        <ele>243.8</ele>
        <time>2024-08-03T08:21:22Z</time>
      </trkpt>
      <trkpt lat="47.3324" lon="5.99793">
        <ele>243.8</ele>
        <time>2024-08-03T08:21:23Z</time>
      </trkpt>
      <trkpt lat="47.3324" lon="5.99793">
        <ele>243.8</ele>
        <time>2024-08-03T08:21:24Z</time>
      </trkpt>
      <trkpt lat="47.3324" lon="5.99793">
        <ele>243.6</ele>
        <time>2024-08-03T08:21:25Z</time>
      </trkpt>
      <trkpt lat="47.3324" lon="5.99793">
        <ele>243.8</ele>
        <time>2024-08-03T08:21:26Z</time>
      </trkpt>
      <trkpt lat="47.3324" lon="5.99793">
        <ele>243.8</ele>
        <time>2024-08-03T08:21:27Z</time>
      </trkpt>
      <trkpt lat="47.3324" lon="5.99793">
        <ele>243.8</ele>
        <time>2024-08-03T08:21:28Z</time>
      </trkpt>
      <trkpt lat="47.3324" lon="5.99793">
        <ele>243.8</ele>
        <time>2024-08-03T08:21:29Z</time>
      </trkpt>
      <trkpt lat="47.3324" lon="5.99793">
        <ele>243.8</ele>
        <time>2024-08-03T08:21:30Z</time>
      </trkpt>
      <trkpt lat="47.3324" lon="5.99793">
        <ele>243.8</ele>
        <time>2024-08-03T08:21:31Z</time>
      </trkpt>
      <trkpt lat="47.3324" lon="5.99793">
        <ele>243.8</ele>
        <time>2024-08-03T08:21:32Z</time>
      </trkpt>
      <trkpt lat="47.3324" lon="5.99793">
        <ele>243.8</ele>
        <time>2024-08-03T08:21:33Z</time>
      </trkpt>
      <trkpt lat="47.3324" lon="5.99793">
        <ele>243.8</ele>
        <time>2024-08-03T08:21:34Z</time>
      </trkpt>
      <trkpt lat="47.3324" lon="5.99793">
        <ele>243.8</ele>
        <time>2024-08-03T08:21:35Z</time>
      </trkpt>
      <trkpt lat="47.3324" lon="5.99793">
        <ele>243.8</ele>
        <time>2024-08-03T08:21:36Z</time>
      </trkpt>
      <trkpt lat="47.3324" lon="5.99793">
        <ele>243.8</ele>
        <time>2024-08-03T08:21:37Z</time>
      </trkpt>
      <trkpt lat="47.3324" lon="5.99793">
        <ele>243.8</ele>
        <time>2024-08-03T08:21:38Z</time>
      </trkpt>
      <trkpt lat="47.3324" lon="5.99793">
        <ele>243.8</ele>
        <time>2024-08-03T08:21:39Z</time>
      </trkpt>
      <trkpt lat="47.3324" lon="5.99793">
        <ele>243.8</ele>
        <time>2024-08-03T08:21:40Z</time>
      </trkpt>
      <trkpt lat="47.3324" lon="5.99793">
        <ele>243.6</ele>
        <time>2024-08-03T08:21:41Z</time>
      </trkpt>
      <trkpt lat="47.3324" lon="5.99793">
        <ele>243.8</ele>
        <time>2024-08-03T08:21:42Z</time>
      </trkpt>
      <trkpt lat="47.3324" lon="5.99793">
        <ele>243.8</ele>
        <time>2024-08-03T08:21:43Z</time>
      </trkpt>
      <trkpt lat="47.3324" lon="5.99793">
        <ele>243.8</ele>
        <time>2024-08-03T08:21:44Z</time>
      </trkpt>
      <trkpt lat="47.3324" lon="5.99793">
        <ele>243.8</ele>
        <time>2024-08-03T08:21:45Z</time>
      </trkpt>
      <trkpt lat="47.3324" lon="5.99793">
        <ele>243.8</ele>
        <time>2024-08-03T08:21:46Z</time>
      </trkpt>
      <trkpt lat="47.3324" lon="5.99793">
        <ele>243.6</ele>
        <time>2024-08-03T08:21:47Z</time>
      </trkpt>
      <trkpt lat="47.3324" lon="5.99793">
        <ele>243.8</ele>
        <time>2024-08-03T08:21:48Z</time>
      </trkpt>
      <trkpt lat="47.3324" lon="5.99793">
        <ele>243.8</ele>
        <time>2024-08-03T08:21:49Z</time>
      </trkpt>
      <trkpt lat="47.3324" lon="5.99793">
        <ele>243.8</ele>
        <time>2024-08-03T08:21:50Z</time>
      </trkpt>
      <trkpt lat="47.3324" lon="5.99793">
        <ele>243.8</ele>
        <time>2024-08-03T08:21:51Z</time>
      </trkpt>
      <trkpt lat="47.3324" lon="5.99793">
        <ele>243.8</ele>
        <time>2024-08-03T08:21:52Z</time>
      </trkpt>
      <trkpt lat="47.3324" lon="5.99793">
        <ele>243.6</ele>
        <time>2024-08-03T08:21:53Z</time>
      </trkpt>
      <trkpt lat="47.3324" lon="5.99793">
        <ele>243.6</ele>
        <time>2024-08-03T08:21:54Z</time>
      </trkpt>
      <trkpt lat="47.3324" lon="5.99793">
        <ele>243.8</ele>
        <time>2024-08-03T08:21:55Z</time>
      </trkpt>
      <trkpt lat="47.3324" lon="5.99793">
        <ele>243.6</ele>
        <time>2024-08-03T08:21:56Z</time>
      </trkpt>
      <trkpt lat="47.3324" lon="5.99793">
        <ele>243.8</ele>
        <time>2024-08-03T08:21:57Z</time>
      </trkpt>
      <trkpt lat="47.3324" lon="5.99793">
        <ele>243.6</ele>
        <time>2024-08-03T08:21:58Z</time>
      </trkpt>
      <trkpt lat="47.3324" lon="5.99793">
        <ele>243.8</ele>
        <time>2024-08-03T08:21:59Z</time>
      </trkpt>
      <trkpt lat="47.3324" lon="5.99793">
        <ele>243.8</ele>
        <time>2024-08-03T08:22:00Z</time>
      </trkpt>
      <trkpt lat="47.3324" lon="5.99793">
        <ele>243.8</ele>
        <time>2024-08-03T08:22:01Z</time>
      </trkpt>
      <trkpt lat="47.3324" lon="5.99793">
        <ele>243.8</ele>
        <time>2024-08-03T08:22:02Z</time>
      </trkpt>
      <trkpt lat="47.3324" lon="5.99793">
        <ele>243.8</ele>
        <time>2024-08-03T08:22:03Z</time>
      </trkpt>
      <trkpt lat="47.3324" lon="5.99793">
        <ele>243.8</ele>
        <time>2024-08-03T08:22:04Z</time>
      </trkpt>
      <trkpt lat="47.3324" lon="5.99793">
        <ele>243.8</ele>
        <time>2024-08-03T08:22:05Z</time>
      </trkpt>
      <trkpt lat="47.3324" lon="5.99793">
        <ele>243.8</ele>
        <time>2024-08-03T08:22:06Z</time>
      </trkpt>
      <trkpt lat="47.3324" lon="5.99793">
        <ele>243.6</ele>
        <time>2024-08-03T08:22:07Z</time>
      </trkpt>
      <trkpt lat="47.3324" lon="5.99793">
        <ele>243.6</ele>
        <time>2024-08-03T08:22:08Z</time>
      </trkpt>
      <trkpt lat="47.3324" lon="5.99793">
        <ele>243.8</ele>
        <time>2024-08-03T08:22:09Z</time>
      </trkpt>
      <trkpt lat="47.3324" lon="5.99793">
        <ele>243.8</ele>
        <time>2024-08-03T08:22:10Z</time>
      </trkpt>
      <trkpt lat="47.3324" lon="5.99793">
        <ele>243.8</ele>
        <time>2024-08-03T08:22:11Z</time>
      </trkpt>
      <trkpt lat="47.3324" lon="5.99793">
        <ele>243.6</ele>
        <time>2024-08-03T08:22:12Z</time>
      </trkpt>
      <trkpt lat="47.3324" lon="5.99793">
        <ele>243.6</ele>
        <time>2024-08-03T08:22:13Z</time>
      </trkpt>
      <trkpt lat="47.3324" lon="5.99793">
        <ele>243.8</ele>
        <time>2024-08-03T08:22:14Z</time>
      </trkpt>
      <trkpt lat="47.3324" lon="5.99793">
        <ele>243.8</ele>
        <time>2024-08-03T08:22:15Z</time>
      </trkpt>
      <trkpt lat="47.3324" lon="5.99793">
        <ele>243.6</ele>
        <time>2024-08-03T08:22:16Z</time>
      </trkpt>
      <trkpt lat="47.3324" lon="5.99793">
        <ele>243.8</ele>
        <time>2024-08-03T08:22:17Z</time>
      </trkpt>
      <trkpt lat="47.3324" lon="5.99793">
        <ele>243.6</ele>
        <time>2024-08-03T08:22:18Z</time>
      </trkpt>
      <trkpt lat="47.3324" lon="5.99793">
        <ele>243.8</ele>
        <time>2024-08-03T08:22:19Z</time>
      </trkpt>
      <trkpt lat="47.3324" lon="5.99793">
        <ele>243.6</ele>
        <time>2024-08-03T08:22:20Z</time>
      </trkpt>
      <trkpt lat="47.3324" lon="5.99793">
        <ele>243.8</ele>
        <time>2024-08-03T08:22:21Z</time>
      </trkpt>
      <trkpt lat="47.3324" lon="5.99793">
        <ele>243.6</ele>
        <time>2024-08-03T08:22:22Z</time>
      </trkpt>
      <trkpt lat="47.3324" lon="5.99793">
        <ele>243.8</ele>
        <time>2024-08-03T08:22:23Z</time>
      </trkpt>
      <trkpt lat="47.3324" lon="5.99793">
        <ele>243.6</ele>
        <time>2024-08-03T08:22:24Z</time>
      </trkpt>
      <trkpt lat="47.3324" lon="5.99793">
        <ele>243.6</ele>
        <time>2024-08-03T08:22:25Z</time>
      </trkpt>
      <trkpt lat="47.3324" lon="5.99793">
        <ele>243.8</ele>
        <time>2024-08-03T08:22:26Z</time>
      </trkpt>
      <trkpt lat="47.3324" lon="5.99793">
        <ele>243.8</ele>
        <time>2024-08-03T08:22:27Z</time>
      </trkpt>
      <trkpt lat="47.3324" lon="5.99793">
        <ele>243.6</ele>
        <time>2024-08-03T08:22:28Z</time>
      </trkpt>
      <trkpt lat="47.3324" lon="5.99793">
        <ele>243.8</ele>
        <time>2024-08-03T08:22:29Z</time>
      </trkpt>
      <trkpt lat="47.3324" lon="5.99793">
        <ele>243.6</ele>
        <time>2024-08-03T08:22:30Z</time>
      </trkpt>
      <trkpt lat="47.3324" lon="5.99793">
        <ele>243.6</ele>
        <time>2024-08-03T08:22:31Z</time>
      </trkpt>
      <trkpt lat="47.3324" lon="5.99793">
        <ele>243.8</ele>
        <time>2024-08-03T08:22:32Z</time>
      </trkpt>
      <trkpt lat="47.3324" lon="5.99793">
        <ele>243.6</ele>
        <time>2024-08-03T08:22:33Z</time>
      </trkpt>
      <trkpt lat="47.3324" lon="5.99793">
        <ele>243.8</ele>
        <time>2024-08-03T08:22:34Z</time>
      </trkpt>
      <trkpt lat="47.3324" lon="5.99793">
        <ele>243.8</ele>
        <time>2024-08-03T08:22:35Z</time>
      </trkpt>
      <trkpt lat="47.3324" lon="5.99793">
        <ele>243.6</ele>
        <time>2024-08-03T08:22:36Z</time>
      </trkpt>
      <trkpt lat="47.3324" lon="5.99793">
        <ele>243.8</ele>
        <time>2024-08-03T08:22:37Z</time>
      </trkpt>
      <trkpt lat="47.3324" lon="5.99793">
        <ele>244</ele>
        <time>2024-08-03T08:22:38Z</time>
      </trkpt>
      <trkpt lat="47.3324" lon="5.99793">
        <ele>243.8</ele>
        <time>2024-08-03T08:22:39Z</time>
      </trkpt>
      <trkpt lat="47.3324" lon="5.99792">
        <ele>244</ele>
        <time>2024-08-03T08:22:40Z</time>
      </trkpt>
      <trkpt lat="47.3324" lon="5.99792">
        <ele>244</ele>
        <time>2024-08-03T08:22:41Z</time>
      </trkpt>
      <trkpt lat="47.3324" lon="5.99792">
        <ele>243.8</ele>
        <time>2024-08-03T08:22:42Z</time>
      </trkpt>
      <trkpt lat="47.3324" lon="5.99792">
        <ele>243.8</ele>
        <time>2024-08-03T08:22:43Z</time>
      </trkpt>
      <trkpt lat="47.3324" lon="5.99792">
        <ele>243.8</ele>
        <time>2024-08-03T08:22:44Z</time>
      </trkpt>
      <trkpt lat="47.3324" lon="5.99792">
        <ele>243.8</ele>
        <time>2024-08-03T08:22:45Z</time>
      </trkpt>
      <trkpt lat="47.3324" lon="5.99792">
        <ele>244</ele>
        <time>2024-08-03T08:22:46Z</time>
      </trkpt>
      <trkpt lat="47.3324" lon="5.99792">
        <ele>243.8</ele>
        <time>2024-08-03T08:22:47Z</time>
      </trkpt>
      <trkpt lat="47.3324" lon="5.99792">
        <ele>244</ele>
        <time>2024-08-03T08:22:48Z</time>
      </trkpt>
      <trkpt lat="47.3324" lon="5.99792">
        <ele>243.8</ele>
        <time>2024-08-03T08:22:49Z</time>
      </trkpt>
      <trkpt lat="47.3324" lon="5.99792">
        <ele>243.8</ele>
        <time>2024-08-03T08:22:50Z</time>
      </trkpt>
      <trkpt lat="47.3324" lon="5.99792">
        <ele>244</ele>
        <time>2024-08-03T08:22:51Z</time>
      </trkpt>
      <trkpt lat="47.3324" lon="5.99792">
        <ele>244</ele>
        <time>2024-08-03T08:22:52Z</time>
      </trkpt>
      <trkpt lat="47.3324" lon="5.99792">
        <ele>243.8</ele>
        <time>2024-08-03T08:22:53Z</time>
      </trkpt>
      <trkpt lat="47.3324" lon="5.99792">
        <ele>243.8</ele>
        <time>2024-08-03T08:22:54Z</time>
      </trkpt>
      <trkpt lat="47.3324" lon="5.99792">
        <ele>243.8</ele>
        <time>2024-08-03T08:22:55Z</time>
      </trkpt>
      <trkpt lat="47.3324" lon="5.99792">
        <ele>243.8</ele>
        <time>2024-08-03T08:22:56Z</time>
      </trkpt>
      <trkpt lat="47.3324" lon="5.99792">
        <ele>244</ele>
        <time>2024-08-03T08:22:57Z</time>
      </trkpt>
      <trkpt lat="47.3324" lon="5.99792">
        <ele>243.8</ele>
        <time>2024-08-03T08:22:58Z</time>
      </trkpt>
      <trkpt lat="47.3324" lon="5.99792">
        <ele>244</ele>
        <time>2024-08-03T08:22:59Z</time>
      </trkpt>
      <trkpt lat="47.3324" lon="5.99792">
        <ele>243.8</ele>
        <time>2024-08-03T08:23:00Z</time>
      </trkpt>
      <trkpt lat="47.3324" lon="5.99792">
        <ele>244</ele>
        <time>2024-08-03T08:23:01Z</time>
      </trkpt>
      <trkpt lat="47.3324" lon="5.99792">
        <ele>244</ele>
        <time>2024-08-03T08:23:02Z</time>
      </trkpt>
      <trkpt lat="47.3324" lon="5.99792">
        <ele>244</ele>
        <time>2024-08-03T08:23:03Z</time>
      </trkpt>
      <trkpt lat="47.3324" lon="5.99792">
        <ele>243.8</ele>
        <time>2024-08-03T08:23:04Z</time>
      </trkpt>
      <trkpt lat="47.3324" lon="5.99792">
        <ele>243.8</ele>
        <time>2024-08-03T08:23:05Z</time>
      </trkpt>
      <trkpt lat="47.3324" lon="5.99792">
        <ele>243.8</ele>
        <time>2024-08-03T08:23:06Z</time>
      </trkpt>
      <trkpt lat="47.3324" lon="5.99792">
        <ele>243.8</ele>
        <time>2024-08-03T08:23:07Z</time>
      </trkpt>
      <trkpt lat="47.3324" lon="5.99792">
        <ele>244</ele>
        <time>2024-08-03T08:23:08Z</time>
      </trkpt>
      <trkpt lat="47.3324" lon="5.99792">
        <ele>243.8</ele>
        <time>2024-08-03T08:23:09Z</time>
      </trkpt>
      <trkpt lat="47.3324" lon="5.99792">
        <ele>244</ele>
        <time>2024-08-03T08:23:10Z</time>
      </trkpt>
      <trkpt lat="47.3324" lon="5.99792">
        <ele>244</ele>
        <time>2024-08-03T08:23:11Z</time>
      </trkpt>
      <trkpt lat="47.3324" lon="5.99792">
        <ele>243.8</ele>
        <time>2024-08-03T08:23:12Z</time>
      </trkpt>
      <trkpt lat="47.3324" lon="5.99792">
        <ele>243.8</ele>
        <time>2024-08-03T08:23:13Z</time>
      </trkpt>
      <trkpt lat="47.3324" lon="5.99792">
        <ele>243.8</ele>
        <time>2024-08-03T08:23:14Z</time>
      </trkpt>
      <trkpt lat="47.3324" lon="5.99792">
        <ele>244</ele>
        <time>2024-08-03T08:23:15Z</time>
      </trkpt>
      <trkpt lat="47.3324" lon="5.99792">
        <ele>243.8</ele>
        <time>2024-08-03T08:23:16Z</time>
      </trkpt>
      <trkpt lat="47.3324" lon="5.99791">
        <ele>244</ele>
        <time>2024-08-03T08:23:17Z</time>
      </trkpt>
      <trkpt lat="47.3324" lon="5.99791">
        <ele>244</ele>
        <time>2024-08-03T08:23:18Z</time>
      </trkpt>
      <trkpt lat="47.3324" lon="5.99791">
        <ele>244</ele>
        <time>2024-08-03T08:23:19Z</time>
      </trkpt>
      <trkpt lat="47.3324" lon="5.99791">
        <ele>244</ele>
        <time>2024-08-03T08:23:20Z</time>
      </trkpt>
      <trkpt lat="47.3324" lon="5.99791">
        <ele>244</ele>
        <time>2024-08-03T08:23:21Z</time>
      </trkpt>
      <trkpt lat="47.3324" lon="5.99791">
        <ele>244</ele>
        <time>2024-08-03T08:23:22Z</time>
      </trkpt>
      <trkpt lat="47.3324" lon="5.99791">
        <ele>244.2</ele>
        <time>2024-08-03T08:23:23Z</time>
      </trkpt>
      <trkpt lat="47.3324" lon="5.99791">
        <ele>244.2</ele>
        <time>2024-08-03T08:23:24Z</time>
      </trkpt>
      <trkpt lat="47.3324" lon="5.99791">
        <ele>244</ele>
        <time>2024-08-03T08:23:25Z</time>
      </trkpt>
      <trkpt lat="47.3324" lon="5.99791">
        <ele>244.2</ele>
        <time>2024-08-03T08:23:26Z</time>
      </trkpt>
      <trkpt lat="47.3324" lon="5.99791">
        <ele>244</ele>
        <time>2024-08-03T08:23:27Z</time>
      </trkpt>
      <trkpt lat="47.3324" lon="5.99791">
        <ele>244</ele>
        <time>2024-08-03T08:23:28Z</time>
      </trkpt>
      <trkpt lat="47.3324" lon="5.99791">
        <ele>244</ele>
        <time>2024-08-03T08:23:29Z</time>
      </trkpt>
      <trkpt lat="47.3324" lon="5.99791">
        <ele>244</ele>
        <time>2024-08-03T08:23:30Z</time>
      </trkpt>
      <trkpt lat="47.3324" lon="5.99791">
        <ele>244</ele>
        <time>2024-08-03T08:23:31Z</time>
      </trkpt>
      <trkpt lat="47.3324" lon="5.99791">
        <ele>244</ele>
        <time>2024-08-03T08:23:32Z</time>
      </trkpt>
      <trkpt lat="47.3324" lon="5.99791">
        <ele>244</ele>
        <time>2024-08-03T08:23:33Z</time>
      </trkpt>
      <trkpt lat="47.3324" lon="5.99791">
        <ele>244</ele>
        <time>2024-08-03T08:23:34Z</time>
      </trkpt>
      <trkpt lat="47.3324" lon="5.99791">
        <ele>243.8</ele>
        <time>2024-08-03T08:23:35Z</time>
      </trkpt>
      <trkpt lat="47.3324" lon="5.99791">
        <ele>244</ele>
        <time>2024-08-03T08:23:36Z</time>
      </trkpt>
      <trkpt lat="47.3324" lon="5.99791">
        <ele>244</ele>
        <time>2024-08-03T08:23:37Z</time>
      </trkpt>
      <trkpt lat="47.3324" lon="5.99791">
        <ele>243.8</ele>
        <time>2024-08-03T08:23:38Z</time>
      </trkpt>
      <trkpt lat="47.3324" lon="5.99791">
        <ele>244</ele>
        <time>2024-08-03T08:23:39Z</time>
      </trkpt>
      <trkpt lat="47.3324" lon="5.99791">
        <ele>244</ele>
        <time>2024-08-03T08:23:40Z</time>
      </trkpt>
      <trkpt lat="47.3324" lon="5.99791">
        <ele>243.8</ele>
        <time>2024-08-03T08:23:41Z</time>
      </trkpt>
      <trkpt lat="47.3324" lon="5.99791">
        <ele>243.8</ele>
        <time>2024-08-03T08:23:42Z</time>
      </trkpt>
      <trkpt lat="47.3324" lon="5.99791">
        <ele>243.8</ele>
        <time>2024-08-03T08:23:43Z</time>
      </trkpt>
      <trkpt lat="47.3324" lon="5.99791">
        <ele>243.8</ele>
        <time>2024-08-03T08:23:44Z</time>
      </trkpt>
      <trkpt lat="47.3324" lon="5.99791">
        <ele>243.8</ele>
        <time>2024-08-03T08:23:45Z</time>
      </trkpt>
      <trkpt lat="47.3324" lon="5.99791">
        <ele>243.8</ele>
        <time>2024-08-03T08:23:46Z</time>
      </trkpt>
      <trkpt lat="47.3324" lon="5.99791">
        <ele>243.8</ele>
        <time>2024-08-03T08:23:47Z</time>
      </trkpt>
      <trkpt lat="47.3324" lon="5.99791">
        <ele>243.8</ele>
        <time>2024-08-03T08:23:48Z</time>
      </trkpt>
      <trkpt lat="47.3324" lon="5.99791">
        <ele>243.8</ele>
        <time>2024-08-03T08:23:49Z</time>
      </trkpt>
      <trkpt lat="47.3324" lon="5.99791">
        <ele>243.6</ele>
        <time>2024-08-03T08:23:50Z</time>
      </trkpt>
      <trkpt lat="47.3324" lon="5.99791">
        <ele>243.8</ele>
        <time>2024-08-03T08:23:51Z</time>
      </trkpt>
      <trkpt lat="47.3324" lon="5.99791">
        <ele>243.8</ele>
        <time>2024-08-03T08:23:52Z</time>
      </trkpt>
      <trkpt lat="47.3324" lon="5.99791">
        <ele>243.6</ele>
        <time>2024-08-03T08:23:53Z</time>
      </trkpt>
      <trkpt lat="47.3324" lon="5.99791">
        <ele>243.6</ele>
        <time>2024-08-03T08:23:54Z</time>
      </trkpt>
      <trkpt lat="47.3324" lon="5.99791">
        <ele>243.8</ele>
        <time>2024-08-03T08:23:55Z</time>
      </trkpt>
      <trkpt lat="47.3324" lon="5.99791">
        <ele>243.8</ele>
        <time>2024-08-03T08:23:56Z</time>
      </trkpt>
      <trkpt lat="47.3324" lon="5.99791">
        <ele>243.8</ele>
        <time>2024-08-03T08:23:57Z</time>
      </trkpt>
      <trkpt lat="47.3324" lon="5.99791">
        <ele>243.6</ele>
        <time>2024-08-03T08:23:58Z</time>
      </trkpt>
      <trkpt lat="47.3324" lon="5.99791">
        <ele>243.8</ele>
        <time>2024-08-03T08:23:59Z</time>
      </trkpt>
      <trkpt lat="47.3324" lon="5.99791">
        <ele>243.6</ele>
        <time>2024-08-03T08:24:00Z</time>
      </trkpt>
      <trkpt lat="47.3324" lon="5.99791">
        <ele>243.6</ele>
        <time>2024-08-03T08:24:01Z</time>
      </trkpt>
      <trkpt lat="47.3324" lon="5.99791">
        <ele>243.6</ele>
        <time>2024-08-03T08:24:02Z</time>
      </trkpt>
      <trkpt lat="47.3324" lon="5.99791">
        <ele>243.6</ele>
        <time>2024-08-03T08:24:03Z</time>
      </trkpt>
      <trkpt lat="47.3324" lon="5.99791">
        <ele>243.6</ele>
        <time>2024-08-03T08:24:04Z</time>
      </trkpt>
      <trkpt lat="47.3324" lon="5.99791">
        <ele>243.6</ele>
        <time>2024-08-03T08:24:05Z</time>
      </trkpt>
      <trkpt lat="47.3324" lon="5.99791">
        <ele>243.8</ele>
        <time>2024-08-03T08:24:06Z</time>
      </trkpt>
      <trkpt lat="47.3324" lon="5.99791">
        <ele>243.6</ele>
        <time>2024-08-03T08:24:07Z</time>
      </trkpt>
      <trkpt lat="47.3324" lon="5.99791">
        <ele>243.6</ele>
        <time>2024-08-03T08:24:08Z</time>
      </trkpt>
      <trkpt lat="47.3324" lon="5.99791">
        <ele>243.6</ele>
        <time>2024-08-03T08:24:09Z</time>
      </trkpt>
      <trkpt lat="47.3324" lon="5.99791">
        <ele>243.8</ele>
        <time>2024-08-03T08:24:10Z</time>
      </trkpt>
      <trkpt lat="47.3324" lon="5.99791">
        <ele>243.6</ele>
        <time>2024-08-03T08:24:11Z</time>
      </trkpt>
      <trkpt lat="47.3324" lon="5.99791">
        <ele>243.6</ele>
        <time>2024-08-03T08:24:12Z</time>
      </trkpt>
      <trkpt lat="47.3324" lon="5.99791">
        <ele>243.6</ele>
        <time>2024-08-03T08:24:13Z</time>
      </trkpt>
      <trkpt lat="47.3324" lon="5.99791">
        <ele>243.6</ele>
        <time>2024-08-03T08:24:14Z</time>
      </trkpt>
      <trkpt lat="47.3324" lon="5.99791">
        <ele>243.6</ele>
        <time>2024-08-03T08:24:15Z</time>
      </trkpt>
      <trkpt lat="47.3324" lon="5.99791">
        <ele>243.6</ele>
        <time>2024-08-03T08:24:16Z</time>
      </trkpt>
      <trkpt lat="47.3324" lon="5.99791">
        <ele>243.6</ele>
        <time>2024-08-03T08:24:17Z</time>
      </trkpt>
      <trkpt lat="47.3324" lon="5.99791">
        <ele>243.6</ele>
        <time>2024-08-03T08:24:18Z</time>
      </trkpt>
      <trkpt lat="47.3324" lon="5.99791">
        <ele>243.6</ele>
        <time>2024-08-03T08:24:19Z</time>
      </trkpt>
      <trkpt lat="47.3324" lon="5.99791">
        <ele>243.6</ele>
        <time>2024-08-03T08:24:20Z</time>
      </trkpt>
      <trkpt lat="47.3324" lon="5.99791">
        <ele>243.8</ele>
        <time>2024-08-03T08:24:21Z</time>
      </trkpt>
      <trkpt lat="47.3324" lon="5.99791">
        <ele>243.6</ele>
        <time>2024-08-03T08:24:22Z</time>
      </trkpt>
      <trkpt lat="47.3324" lon="5.99791">
        <ele>243.6</ele>
        <time>2024-08-03T08:24:23Z</time>
      </trkpt>
      <trkpt lat="47.3324" lon="5.99791">
        <ele>243.8</ele>
        <time>2024-08-03T08:24:24Z</time>
      </trkpt>
      <trkpt lat="47.3324" lon="5.99791">
        <ele>243.8</ele>
        <time>2024-08-03T08:24:25Z</time>
      </trkpt>
      <trkpt lat="47.3324" lon="5.99791">
        <ele>243.6</ele>
        <time>2024-08-03T08:24:26Z</time>
      </trkpt>
      <trkpt lat="47.3324" lon="5.99791">
        <ele>243.6</ele>
        <time>2024-08-03T08:24:27Z</time>
      </trkpt>
      <trkpt lat="47.3324" lon="5.99791">
        <ele>243.6</ele>
        <time>2024-08-03T08:24:28Z</time>
      </trkpt>
      <trkpt lat="47.3324" lon="5.99791">
        <ele>243.6</ele>
        <time>2024-08-03T08:24:29Z</time>
      </trkpt>
      <trkpt lat="47.3324" lon="5.99792">
        <ele>243.6</ele>
        <time>2024-08-03T08:24:30Z</time>
      </trkpt>
      <trkpt lat="47.3324" lon="5.99792">
        <ele>243.6</ele>
        <time>2024-08-03T08:24:31Z</time>
      </trkpt>
      <trkpt lat="47.3324" lon="5.99792">
        <ele>243.6</ele>
        <time>2024-08-03T08:24:32Z</time>
      </trkpt>
      <trkpt lat="47.3324" lon="5.99792">
        <ele>243.8</ele>
        <time>2024-08-03T08:24:33Z</time>
      </trkpt>
      <trkpt lat="47.3324" lon="5.99792">
        <ele>243.6</ele>
        <time>2024-08-03T08:24:34Z</time>
      </trkpt>
      <trkpt lat="47.3324" lon="5.99792">
        <ele>243.6</ele>
        <time>2024-08-03T08:24:35Z</time>
      </trkpt>
      <trkpt lat="47.3324" lon="5.99792">
        <ele>243.6</ele>
        <time>2024-08-03T08:24:36Z</time>
      </trkpt>
      <trkpt lat="47.3324" lon="5.99792">
        <ele>243.6</ele>
        <time>2024-08-03T08:24:37Z</time>
      </trkpt>
      <trkpt lat="47.3324" lon="5.99792">
        <ele>243.6</ele>
        <time>2024-08-03T08:24:38Z</time>
      </trkpt>
      <trkpt lat="47.3324" lon="5.99792">
        <ele>243.6</ele>
        <time>2024-08-03T08:24:39Z</time>
      </trkpt>
      <trkpt lat="47.3324" lon="5.99792">
        <ele>243.6</ele>
        <time>2024-08-03T08:24:40Z</time>
      </trkpt>
      <trkpt lat="47.3324" lon="5.99792">
        <ele>243.6</ele>
        <time>2024-08-03T08:24:41Z</time>
      </trkpt>
      <trkpt lat="47.3324" lon="5.99792">
        <ele>243.6</ele>
        <time>2024-08-03T08:24:42Z</time>
      </trkpt>
      <trkpt lat="47.3324" lon="5.99792">
        <ele>243.6</ele>
        <time>2024-08-03T08:24:43Z</time>
      </trkpt>
      <trkpt lat="47.3324" lon="5.99792">
        <ele>243.6</ele>
        <time>2024-08-03T08:24:44Z</time>
      </trkpt>
      <trkpt lat="47.3324" lon="5.99791">
        <ele>243.6</ele>
        <time>2024-08-03T08:24:45Z</time>
      </trkpt>
      <trkpt lat="47.3324" lon="5.99791">
        <ele>243.6</ele>
        <time>2024-08-03T08:24:46Z</time>
      </trkpt>
      <trkpt lat="47.3324" lon="5.99791">
        <ele>243.6</ele>
        <time>2024-08-03T08:24:47Z</time>
      </trkpt>
      <trkpt lat="47.3324" lon="5.99791">
        <ele>243.4</ele>
        <time>2024-08-03T08:24:48Z</time>
      </trkpt>
      <trkpt lat="47.3324" lon="5.99791">
        <ele>243.6</ele>
        <time>2024-08-03T08:24:49Z</time>
      </trkpt>
      <trkpt lat="47.3324" lon="5.99791">
        <ele>243.6</ele>
        <time>2024-08-03T08:24:50Z</time>
      </trkpt>
      <trkpt lat="47.3324" lon="5.99791">
        <ele>243.6</ele>
        <time>2024-08-03T08:24:51Z</time>
      </trkpt>
      <trkpt lat="47.3324" lon="5.99791">
        <ele>243.4</ele>
        <time>2024-08-03T08:24:52Z</time>
      </trkpt>
      <trkpt lat="47.3324" lon="5.99791">
        <ele>243.4</ele>
        <time>2024-08-03T08:24:53Z</time>
      </trkpt>
      <trkpt lat="47.3324" lon="5.99791">
        <ele>243.4</ele>
        <time>2024-08-03T08:24:54Z</time>
      </trkpt>
      <trkpt lat="47.3324" lon="5.99791">
        <ele>243.4</ele>
        <time>2024-08-03T08:24:55Z</time>
      </trkpt>
      <trkpt lat="47.3324" lon="5.99791">
        <ele>243.4</ele>
        <time>2024-08-03T08:24:56Z</time>
      </trkpt>
      <trkpt lat="47.3324" lon="5.99791">
        <ele>243.6</ele>
        <time>2024-08-03T08:24:57Z</time>
      </trkpt>
      <trkpt lat="47.3324" lon="5.99791">
        <ele>243.4</ele>
        <time>2024-08-03T08:24:58Z</time>
      </trkpt>
      <trkpt lat="47.3324" lon="5.99791">
        <ele>243.6</ele>
        <time>2024-08-03T08:24:59Z</time>
      </trkpt>
      <trkpt lat="47.3324" lon="5.99792">
        <ele>243.4</ele>
        <time>2024-08-03T08:25:00Z</time>
      </trkpt>
      <trkpt lat="47.3324" lon="5.99792">
        <ele>243.4</ele>
        <time>2024-08-03T08:25:01Z</time>
      </trkpt>
      <trkpt lat="47.3324" lon="5.99792">
        <ele>243.4</ele>
        <time>2024-08-03T08:25:02Z</time>
      </trkpt>
      <trkpt lat="47.3324" lon="5.99792">
        <ele>243.4</ele>
        <time>2024-08-03T08:25:03Z</time>
      </trkpt>
      <trkpt lat="47.3324" lon="5.99792">
        <ele>243.6</ele>
        <time>2024-08-03T08:25:04Z</time>
      </trkpt>
      <trkpt lat="47.3324" lon="5.99792">
        <ele>243.4</ele>
        <time>2024-08-03T08:25:05Z</time>
      </trkpt>
      <trkpt lat="47.3324" lon="5.99792">
        <ele>243.4</ele>
        <time>2024-08-03T08:25:06Z</time>
      </trkpt>
      <trkpt lat="47.3324" lon="5.99792">
        <ele>243.4</ele>
        <time>2024-08-03T08:25:07Z</time>
      </trkpt>
      <trkpt lat="47.3324" lon="5.99792">
        <ele>243.4</ele>
        <time>2024-08-03T08:25:08Z</time>
      </trkpt>
      <trkpt lat="47.3324" lon="5.99792">
        <ele>243.6</ele>
        <time>2024-08-03T08:25:09Z</time>
      </trkpt>
      <trkpt lat="47.3324" lon="5.99792">
        <ele>243.4</ele>
        <time>2024-08-03T08:25:10Z</time>
      </trkpt>
      <trkpt lat="47.3324" lon="5.99792">
        <ele>243.4</ele>
        <time>2024-08-03T08:25:11Z</time>
      </trkpt>
      <trkpt lat="47.3324" lon="5.99792">
        <ele>243.4</ele>
        <time>2024-08-03T08:25:12Z</time>
      </trkpt>
      <trkpt lat="47.3324" lon="5.99792">
        <ele>243.4</ele>
        <time>2024-08-03T08:25:13Z</time>
      </trkpt>
      <trkpt lat="47.3324" lon="5.99792">
        <ele>243.4</ele>
        <time>2024-08-03T08:25:14Z</time>
      </trkpt>
      <trkpt lat="47.33239" lon="5.99792">
        <ele>243.4</ele>
        <time>2024-08-03T08:25:15Z</time>
      </trkpt>
      <trkpt lat="47.33239" lon="5.99792">
        <ele>243.4</ele>
        <time>2024-08-03T08:25:16Z</time>
      </trkpt>
      <trkpt lat="47.33239" lon="5.99792">
        <ele>243.6</ele>
        <time>2024-08-03T08:25:17Z</time>
      </trkpt>
      <trkpt lat="47.33239" lon="5.99792">
        <ele>243.4</ele>
        <time>2024-08-03T08:25:18Z</time>
      </trkpt>
      <trkpt lat="47.33239" lon="5.99792">
        <ele>243.4</ele>
        <time>2024-08-03T08:25:19Z</time>
      </trkpt>
      <trkpt lat="47.33239" lon="5.99792">
        <ele>243.4</ele>
        <time>2024-08-03T08:25:20Z</time>
      </trkpt>
      <trkpt lat="47.33239" lon="5.99792">
        <ele>243.2</ele>
        <time>2024-08-03T08:25:21Z</time>
      </trkpt>
      <trkpt lat="47.33239" lon="5.99792">
        <ele>243.4</ele>
        <time>2024-08-03T08:25:22Z</time>
      </trkpt>
      <trkpt lat="47.33239" lon="5.99792">
        <ele>243.4</ele>
        <time>2024-08-03T08:25:23Z</time>
      </trkpt>
      <trkpt lat="47.33239" lon="5.99792">
        <ele>243.4</ele>
        <time>2024-08-03T08:25:24Z</time>
      </trkpt>
      <trkpt lat="47.33239" lon="5.99792">
        <ele>243.2</ele>
        <time>2024-08-03T08:25:25Z</time>
      </trkpt>
      <trkpt lat="47.33239" lon="5.99792">
        <ele>243.2</ele>
        <time>2024-08-03T08:25:26Z</time>
      </trkpt>
      <trkpt lat="47.33239" lon="5.99792">
        <ele>243.4</ele>
        <time>2024-08-03T08:25:27Z</time>
      </trkpt>
      <trkpt lat="47.33239" lon="5.99792">
        <ele>243.2</ele>
        <time>2024-08-03T08:25:28Z</time>
      </trkpt>
      <trkpt lat="47.33239" lon="5.99792">
        <ele>243.4</ele>
        <time>2024-08-03T08:25:29Z</time>
      </trkpt>
      <trkpt lat="47.33239" lon="5.99792">
        <ele>243.2</ele>
        <time>2024-08-03T08:25:30Z</time>
      </trkpt>
      <trkpt lat="47.33239" lon="5.99792">
        <ele>243.2</ele>
        <time>2024-08-03T08:25:31Z</time>
      </trkpt>
      <trkpt lat="47.33239" lon="5.99792">
        <ele>243.2</ele>
        <time>2024-08-03T08:25:32Z</time>
      </trkpt>
      <trkpt lat="47.33239" lon="5.99792">
        <ele>243.2</ele>
        <time>2024-08-03T08:25:33Z</time>
      </trkpt>
      <trkpt lat="47.33239" lon="5.99792">
        <ele>243.4</ele>
        <time>2024-08-03T08:25:34Z</time>
      </trkpt>
      <trkpt lat="47.33239" lon="5.99792">
        <ele>243.4</ele>
        <time>2024-08-03T08:25:35Z</time>
      </trkpt>
      <trkpt lat="47.33239" lon="5.99792">
        <ele>243.4</ele>
        <time>2024-08-03T08:25:36Z</time>
      </trkpt>
      <trkpt lat="47.33239" lon="5.99792">
        <ele>243.2</ele>
        <time>2024-08-03T08:25:37Z</time>
      </trkpt>
      <trkpt lat="47.33239" lon="5.99792">
        <ele>243.2</ele>
        <time>2024-08-03T08:25:38Z</time>
      </trkpt>
      <trkpt lat="47.33239" lon="5.99792">
        <ele>243.2</ele>
        <time>2024-08-03T08:25:39Z</time>
      </trkpt>
      <trkpt lat="47.33239" lon="5.99792">
        <ele>243.4</ele>
        <time>2024-08-03T08:25:40Z</time>
      </trkpt>
      <trkpt lat="47.33239" lon="5.99792">
        <ele>243.4</ele>
        <time>2024-08-03T08:25:41Z</time>
      </trkpt>
      <trkpt lat="47.33239" lon="5.99792">
        <ele>243.4</ele>
        <time>2024-08-03T08:25:42Z</time>
      </trkpt>
      <trkpt lat="47.33239" lon="5.99792">
        <ele>243.4</ele>
        <time>2024-08-03T08:25:43Z</time>
      </trkpt>
      <trkpt lat="47.33239" lon="5.99792">
        <ele>243.4</ele>
        <time>2024-08-03T08:25:44Z</time>
      </trkpt>
      <trkpt lat="47.33239" lon="5.99792">
        <ele>243.4</ele>
        <time>2024-08-03T08:25:45Z</time>
      </trkpt>
      <trkpt lat="47.33239" lon="5.99792">
        <ele>243.4</ele>
        <time>2024-08-03T08:25:46Z</time>
      </trkpt>
      <trkpt lat="47.33239" lon="5.99792">
        <ele>243.4</ele>
        <time>2024-08-03T08:25:47Z</time>
      </trkpt>
      <trkpt lat="47.33239" lon="5.99792">
        <ele>243.4</ele>
        <time>2024-08-03T08:25:48Z</time>
      </trkpt>
      <trkpt lat="47.33239" lon="5.99792">
        <ele>243.4</ele>
        <time>2024-08-03T08:25:49Z</time>
      </trkpt>
      <trkpt lat="47.33239" lon="5.99792">
        <ele>243.4</ele>
        <time>2024-08-03T08:25:50Z</time>
      </trkpt>
      <trkpt lat="47.33239" lon="5.99792">
        <ele>243.6</ele>
        <time>2024-08-03T08:25:51Z</time>
      </trkpt>
      <trkpt lat="47.33239" lon="5.99793">
        <ele>243.6</ele>
        <time>2024-08-03T08:25:52Z</time>
      </trkpt>
      <trkpt lat="47.33239" lon="5.99792">
        <ele>243.4</ele>
        <time>2024-08-03T08:25:53Z</time>
      </trkpt>
      <trkpt lat="47.33239" lon="5.99792">
        <ele>243.4</ele>
        <time>2024-08-03T08:25:54Z</time>
      </trkpt>
      <trkpt lat="47.33239" lon="5.99792">
        <ele>243.4</ele>
        <time>2024-08-03T08:25:55Z</time>
      </trkpt>
      <trkpt lat="47.33239" lon="5.99793">
        <ele>243.4</ele>
        <time>2024-08-03T08:25:56Z</time>
      </trkpt>
      <trkpt lat="47.33239" lon="5.99793">
        <ele>243.2</ele>
        <time>2024-08-03T08:25:57Z</time>
      </trkpt>
      <trkpt lat="47.33239" lon="5.99793">
        <ele>243.4</ele>
        <time>2024-08-03T08:25:58Z</time>
      </trkpt>
      <trkpt lat="47.33239" lon="5.99793">
        <ele>243.2</ele>
        <time>2024-08-03T08:25:59Z</time>
      </trkpt>
      <trkpt lat="47.33239" lon="5.99793">
        <ele>243.2</ele>
        <time>2024-08-03T08:26:00Z</time>
      </trkpt>
      <trkpt lat="47.33239" lon="5.99793">
        <ele>243.2</ele>
        <time>2024-08-03T08:26:01Z</time>
      </trkpt>
      <trkpt lat="47.33239" lon="5.99793">
        <ele>243.2</ele>
        <time>2024-08-03T08:26:02Z</time>
      </trkpt>
      <trkpt lat="47.33239" lon="5.99793">
        <ele>243.2</ele>
        <time>2024-08-03T08:26:03Z</time>
      </trkpt>
      <trkpt lat="47.33239" lon="5.99793">
        <ele>243.2</ele>
        <time>2024-08-03T08:26:04Z</time>
      </trkpt>
      <trkpt lat="47.33239" lon="5.99793">
        <ele>243.2</ele>
        <time>2024-08-03T08:26:05Z</time>
      </trkpt>
      <trkpt lat="47.33239" lon="5.99793">
        <ele>243.2</ele>
        <time>2024-08-03T08:26:06Z</time>
      </trkpt>
      <trkpt lat="47.33239" lon="5.99793">
        <ele>243.2</ele>
        <time>2024-08-03T08:26:07Z</time>
      </trkpt>
      <trkpt lat="47.33239" lon="5.99793">
        <ele>243.2</ele>
        <time>2024-08-03T08:26:08Z</time>
      </trkpt>
      <trkpt lat="47.33239" lon="5.99793">
        <ele>243</ele>
        <time>2024-08-03T08:26:09Z</time>
      </trkpt>
      <trkpt lat="47.33239" lon="5.99793">
        <ele>243.2</ele>
        <time>2024-08-03T08:26:10Z</time>
      </trkpt>
      <trkpt lat="47.33239" lon="5.99793">
        <ele>243.2</ele>
        <time>2024-08-03T08:26:11Z</time>
      </trkpt>
      <trkpt lat="47.33239" lon="5.99793">
        <ele>243.2</ele>
        <time>2024-08-03T08:26:12Z</time>
      </trkpt>
      <trkpt lat="47.33239" lon="5.99793">
        <ele>243</ele>
        <time>2024-08-03T08:26:13Z</time>
      </trkpt>
      <trkpt lat="47.33239" lon="5.99793">
        <ele>243</ele>
        <time>2024-08-03T08:26:14Z</time>
      </trkpt>
      <trkpt lat="47.33239" lon="5.99793">
        <ele>243</ele>
        <time>2024-08-03T08:26:15Z</time>
      </trkpt>
      <trkpt lat="47.33239" lon="5.99793">
        <ele>243</ele>
        <time>2024-08-03T08:26:16Z</time>
      </trkpt>
      <trkpt lat="47.33239" lon="5.99793">
        <ele>243</ele>
        <time>2024-08-03T08:26:17Z</time>
      </trkpt>
      <trkpt lat="47.33239" lon="5.99793">
        <ele>243</ele>
        <time>2024-08-03T08:26:18Z</time>
      </trkpt>
      <trkpt lat="47.33239" lon="5.99793">
        <ele>243</ele>
        <time>2024-08-03T08:26:19Z</time>
      </trkpt>
      <trkpt lat="47.33239" lon="5.99793">
        <ele>243</ele>
        <time>2024-08-03T08:26:20Z</time>
      </trkpt>
      <trkpt lat="47.33239" lon="5.99793">
        <ele>243</ele>
        <time>2024-08-03T08:26:21Z</time>
      </trkpt>
      <trkpt lat="47.33239" lon="5.99793">
        <ele>243</ele>
        <time>2024-08-03T08:26:22Z</time>
      </trkpt>
      <trkpt lat="47.33239" lon="5.99793">
        <ele>243</ele>
        <time>2024-08-03T08:26:23Z</time>
      </trkpt>
      <trkpt lat="47.33239" lon="5.99793">
        <ele>243</ele>
        <time>2024-08-03T08:26:24Z</time>
      </trkpt>
      <trkpt lat="47.33239" lon="5.99793">
        <ele>243</ele>
        <time>2024-08-03T08:26:25Z</time>
      </trkpt>
      <trkpt lat="47.3324" lon="5.99793">
        <ele>243</ele>
        <time>2024-08-03T08:26:26Z</time>
      </trkpt>
      <trkpt lat="47.3324" lon="5.99793">
        <ele>243</ele>
        <time>2024-08-03T08:26:27Z</time>
      </trkpt>
      <trkpt lat="47.3324" lon="5.99793">
        <ele>243</ele>
        <time>2024-08-03T08:26:28Z</time>
      </trkpt>
      <trkpt lat="47.3324" lon="5.99793">
        <ele>243</ele>
        <time>2024-08-03T08:26:29Z</time>
      </trkpt>
      <trkpt lat="47.3324" lon="5.99793">
        <ele>243</ele>
        <time>2024-08-03T08:26:30Z</time>
      </trkpt>
      <trkpt lat="47.3324" lon="5.99793">
        <ele>243</ele>
        <time>2024-08-03T08:26:31Z</time>
      </trkpt>
      <trkpt lat="47.3324" lon="5.99793">
        <ele>243</ele>
        <time>2024-08-03T08:26:32Z</time>
      </trkpt>
      <trkpt lat="47.3324" lon="5.99793">
        <ele>242.8</ele>
        <time>2024-08-03T08:26:33Z</time>
      </trkpt>
      <trkpt lat="47.3324" lon="5.99793">
        <ele>243</ele>
        <time>2024-08-03T08:26:34Z</time>
      </trkpt>
      <trkpt lat="47.3324" lon="5.99793">
        <ele>243</ele>
        <time>2024-08-03T08:26:35Z</time>
      </trkpt>
      <trkpt lat="47.3324" lon="5.99793">
        <ele>243</ele>
        <time>2024-08-03T08:26:36Z</time>
      </trkpt>
      <trkpt lat="47.3324" lon="5.99793">
        <ele>243</ele>
        <time>2024-08-03T08:26:37Z</time>
      </trkpt>
      <trkpt lat="47.3324" lon="5.99793">
        <ele>243</ele>
        <time>2024-08-03T08:26:38Z</time>
      </trkpt>
      <trkpt lat="47.3324" lon="5.99793">
        <ele>242.8</ele>
        <time>2024-08-03T08:26:39Z</time>
      </trkpt>
      <trkpt lat="47.3324" lon="5.99793">
        <ele>242.8</ele>
        <time>2024-08-03T08:26:40Z</time>
      </trkpt>
      <trkpt lat="47.3324" lon="5.99793">
        <ele>242.8</ele>
        <time>2024-08-03T08:26:41Z</time>
      </trkpt>
      <trkpt lat="47.3324" lon="5.99793">
        <ele>243</ele>
        <time>2024-08-03T08:26:42Z</time>
      </trkpt>
      <trkpt lat="47.3324" lon="5.99793">
        <ele>243</ele>
        <time>2024-08-03T08:26:43Z</time>
      </trkpt>
      <trkpt lat="47.3324" lon="5.99793">
        <ele>243</ele>
        <time>2024-08-03T08:26:44Z</time>
      </trkpt>
      <trkpt lat="47.3324" lon="5.99793">
        <ele>243</ele>
        <time>2024-08-03T08:26:45Z</time>
      </trkpt>
      <trkpt lat="47.3324" lon="5.99793">
        <ele>243</ele>
        <time>2024-08-03T08:26:46Z</time>
      </trkpt>
      <trkpt lat="47.3324" lon="5.99793">
        <ele>243</ele>
        <time>2024-08-03T08:26:47Z</time>
      </trkpt>
      <trkpt lat="47.3324" lon="5.99793">
        <ele>242.8</ele>
        <time>2024-08-03T08:26:48Z</time>
      </trkpt>
      <trkpt lat="47.3324" lon="5.99793">
        <ele>242.8</ele>
        <time>2024-08-03T08:26:49Z</time>
      </trkpt>
      <trkpt lat="47.3324" lon="5.99793">
        <ele>242.8</ele>
        <time>2024-08-03T08:26:50Z</time>
      </trkpt>
      <trkpt lat="47.3324" lon="5.99792">
        <ele>242.8</ele>
        <time>2024-08-03T08:26:51Z</time>
      </trkpt>
      <trkpt lat="47.3324" lon="5.99792">
        <ele>242.8</ele>
        <time>2024-08-03T08:26:52Z</time>
      </trkpt>
      <trkpt lat="47.3324" lon="5.99792">
        <ele>243</ele>
        <time>2024-08-03T08:26:53Z</time>
      </trkpt>
      <trkpt lat="47.3324" lon="5.99792">
        <ele>243</ele>
        <time>2024-08-03T08:26:54Z</time>
      </trkpt>
      <trkpt lat="47.3324" lon="5.99792">
        <ele>243</ele>
        <time>2024-08-03T08:26:55Z</time>
      </trkpt>
      <trkpt lat="47.3324" lon="5.99792">
        <ele>242.8</ele>
        <time>2024-08-03T08:26:56Z</time>
      </trkpt>
      <trkpt lat="47.3324" lon="5.99792">
        <ele>243</ele>
        <time>2024-08-03T08:26:57Z</time>
      </trkpt>
      <trkpt lat="47.3324" lon="5.99792">
        <ele>242.8</ele>
        <time>2024-08-03T08:26:58Z</time>
      </trkpt>
      <trkpt lat="47.3324" lon="5.99792">
        <ele>242.8</ele>
        <time>2024-08-03T08:26:59Z</time>
      </trkpt>
      <trkpt lat="47.3324" lon="5.99792">
        <ele>243</ele>
        <time>2024-08-03T08:27:00Z</time>
      </trkpt>
      <trkpt lat="47.3324" lon="5.99792">
        <ele>243</ele>
        <time>2024-08-03T08:27:01Z</time>
      </trkpt>
      <trkpt lat="47.3324" lon="5.99792">
        <ele>243.2</ele>
        <time>2024-08-03T08:27:02Z</time>
      </trkpt>
      <trkpt lat="47.33239" lon="5.99792">
        <ele>243.2</ele>
        <time>2024-08-03T08:27:03Z</time>
      </trkpt>
      <trkpt lat="47.33239" lon="5.99792">
        <ele>243.2</ele>
        <time>2024-08-03T08:27:04Z</time>
      </trkpt>
      <trkpt lat="47.33239" lon="5.99792">
        <ele>243.2</ele>
        <time>2024-08-03T08:27:05Z</time>
      </trkpt>
      <trkpt lat="47.33239" lon="5.99792">
        <ele>243.2</ele>
        <time>2024-08-03T08:27:06Z</time>
      </trkpt>
      <trkpt lat="47.33239" lon="5.99792">
        <ele>243.2</ele>
        <time>2024-08-03T08:27:07Z</time>
      </trkpt>
      <trkpt lat="47.33239" lon="5.99792">
        <ele>243.2</ele>
        <time>2024-08-03T08:27:08Z</time>
      </trkpt>
      <trkpt lat="47.33239" lon="5.99792">
        <ele>243.2</ele>
        <time>2024-08-03T08:27:09Z</time>
      </trkpt>
      <trkpt lat="47.33239" lon="5.99792">
        <ele>243.2</ele>
        <time>2024-08-03T08:27:10Z</time>
      </trkpt>
      <trkpt lat="47.33239" lon="5.99792">
        <ele>243.2</ele>
        <time>2024-08-03T08:27:11Z</time>
      </trkpt>
      <trkpt lat="47.33239" lon="5.99792">
        <ele>243.2</ele>
        <time>2024-08-03T08:27:12Z</time>
      </trkpt>
      <trkpt lat="47.33239" lon="5.99792">
        <ele>243.2</ele>
        <time>2024-08-03T08:27:13Z</time>
      </trkpt>
      <trkpt lat="47.3324" lon="5.99792">
        <ele>243.2</ele>
        <time>2024-08-03T08:27:14Z</time>
      </trkpt>
      <trkpt lat="47.3324" lon="5.99792">
        <ele>243.2</ele>
        <time>2024-08-03T08:27:15Z</time>
      </trkpt>
      <trkpt lat="47.3324" lon="5.99792">
        <ele>243.4</ele>
        <time>2024-08-03T08:27:16Z</time>
      </trkpt>
      <trkpt lat="47.3324" lon="5.99792">
        <ele>243.4</ele>
        <time>2024-08-03T08:27:17Z</time>
      </trkpt>
      <trkpt lat="47.3324" lon="5.99793">
        <ele>243.2</ele>
        <time>2024-08-03T08:27:18Z</time>
      </trkpt>
      <trkpt lat="47.3324" lon="5.99793">
        <ele>243.2</ele>
        <time>2024-08-03T08:27:19Z</time>
      </trkpt>
      <trkpt lat="47.3324" lon="5.99793">
        <ele>243.2</ele>
        <time>2024-08-03T08:27:20Z</time>
      </trkpt>
      <trkpt lat="47.3324" lon="5.99793">
        <ele>243.2</ele>
        <time>2024-08-03T08:27:21Z</time>
      </trkpt>
      <trkpt lat="47.3324" lon="5.99793">
        <ele>243.4</ele>
        <time>2024-08-03T08:27:22Z</time>
      </trkpt>
      <trkpt lat="47.3324" lon="5.99793">
        <ele>243.2</ele>
        <time>2024-08-03T08:27:23Z</time>
      </trkpt>
      <trkpt lat="47.3324" lon="5.99793">
        <ele>243.2</ele>
        <time>2024-08-03T08:27:24Z</time>
      </trkpt>
      <trkpt lat="47.3324" lon="5.99793">
        <ele>243.2</ele>
        <time>2024-08-03T08:27:25Z</time>
      </trkpt>
      <trkpt lat="47.3324" lon="5.99793">
        <ele>243.2</ele>
        <time>2024-08-03T08:27:26Z</time>
      </trkpt>
      <trkpt lat="47.3324" lon="5.99793">
        <ele>243.4</ele>
        <time>2024-08-03T08:27:27Z</time>
      </trkpt>
      <trkpt lat="47.3324" lon="5.99793">
        <ele>243.4</ele>
        <time>2024-08-03T08:27:28Z</time>
      </trkpt>
      <trkpt lat="47.3324" lon="5.99793">
        <ele>243.4</ele>
        <time>2024-08-03T08:27:29Z</time>
      </trkpt>
      <trkpt lat="47.3324" lon="5.99793">
        <ele>243.4</ele>
        <time>2024-08-03T08:27:30Z</time>
      </trkpt>
      <trkpt lat="47.3324" lon="5.99793">
        <ele>243.4</ele>
        <time>2024-08-03T08:27:31Z</time>
      </trkpt>
      <trkpt lat="47.3324" lon="5.99793">
        <ele>243.4</ele>
        <time>2024-08-03T08:27:32Z</time>
      </trkpt>
      <trkpt lat="47.3324" lon="5.99793">
        <ele>243.4</ele>
        <time>2024-08-03T08:27:33Z</time>
      </trkpt>
      <trkpt lat="47.3324" lon="5.99793">
        <ele>243.2</ele>
        <time>2024-08-03T08:27:34Z</time>
      </trkpt>
      <trkpt lat="47.3324" lon="5.99793">
        <ele>243.2</ele>
        <time>2024-08-03T08:27:35Z</time>
      </trkpt>
      <trkpt lat="47.3324" lon="5.99793">
        <ele>243.2</ele>
        <time>2024-08-03T08:27:36Z</time>
      </trkpt>
      <trkpt lat="47.3324" lon="5.99793">
        <ele>243.4</ele>
        <time>2024-08-03T08:27:37Z</time>
      </trkpt>
      <trkpt lat="47.3324" lon="5.99793">
        <ele>243.4</ele>
        <time>2024-08-03T08:27:38Z</time>
      </trkpt>
      <trkpt lat="47.3324" lon="5.99793">
        <ele>243.4</ele>
        <time>2024-08-03T08:27:39Z</time>
      </trkpt>
      <trkpt lat="47.3324" lon="5.99793">
        <ele>243.2</ele>
        <time>2024-08-03T08:27:40Z</time>
      </trkpt>
      <trkpt lat="47.3324" lon="5.99793">
        <ele>243.4</ele>
        <time>2024-08-03T08:27:41Z</time>
      </trkpt>
      <trkpt lat="47.3324" lon="5.99793">
        <ele>243.2</ele>
        <time>2024-08-03T08:27:42Z</time>
      </trkpt>
      <trkpt lat="47.3324" lon="5.99793">
        <ele>243.2</ele>
        <time>2024-08-03T08:27:43Z</time>
      </trkpt>
      <trkpt lat="47.3324" lon="5.99793">
        <ele>243.2</ele>
        <time>2024-08-03T08:27:44Z</time>
      </trkpt>
      <trkpt lat="47.3324" lon="5.99793">
        <ele>243.2</ele>
        <time>2024-08-03T08:27:45Z</time>
      </trkpt>
      <trkpt lat="47.3324" lon="5.99793">
        <ele>243.2</ele>
        <time>2024-08-03T08:27:46Z</time>
      </trkpt>
      <trkpt lat="47.3324" lon="5.99793">
        <ele>243.2</ele>
        <time>2024-08-03T08:27:47Z</time>
      </trkpt>
      <trkpt lat="47.3324" lon="5.99793">
        <ele>243</ele>
        <time>2024-08-03T08:27:48Z</time>
      </trkpt>
      <trkpt lat="47.3324" lon="5.99793">
        <ele>243</ele>
        <time>2024-08-03T08:27:49Z</time>
      </trkpt>
      <trkpt lat="47.3324" lon="5.99794">
        <ele>243.2</ele>
        <time>2024-08-03T08:27:50Z</time>
      </trkpt>
      <trkpt lat="47.3324" lon="5.99794">
        <ele>243.2</ele>
        <time>2024-08-03T08:27:51Z</time>
      </trkpt>
      <trkpt lat="47.33239" lon="5.99794">
        <ele>243.2</ele>
        <time>2024-08-03T08:27:52Z</time>
      </trkpt>
      <trkpt lat="47.33239" lon="5.99794">
        <ele>243.2</ele>
        <time>2024-08-03T08:27:53Z</time>
      </trkpt>
      <trkpt lat="47.33239" lon="5.99794">
        <ele>243.2</ele>
        <time>2024-08-03T08:27:54Z</time>
      </trkpt>
      <trkpt lat="47.33239" lon="5.99794">
        <ele>243.2</ele>
        <time>2024-08-03T08:27:55Z</time>
      </trkpt>
      <trkpt lat="47.33239" lon="5.99794">
        <ele>243.2</ele>
        <time>2024-08-03T08:27:56Z</time>
      </trkpt>
      <trkpt lat="47.33239" lon="5.99795">
        <ele>243.2</ele>
        <time>2024-08-03T08:27:57Z</time>
      </trkpt>
      <trkpt lat="47.33239" lon="5.99795">
        <ele>243.2</ele>
        <time>2024-08-03T08:27:58Z</time>
      </trkpt>
      <trkpt lat="47.33239" lon="5.99795">
        <ele>243.2</ele>
        <time>2024-08-03T08:27:59Z</time>
      </trkpt>
      <trkpt lat="47.33239" lon="5.99795">
        <ele>243.2</ele>
        <time>2024-08-03T08:28:00Z</time>
      </trkpt>
      <trkpt lat="47.33238" lon="5.99796">
        <ele>243.2</ele>
        <time>2024-08-03T08:28:01Z</time>
      </trkpt>
      <trkpt lat="47.33237" lon="5.99796">
        <ele>243.2</ele>
        <time>2024-08-03T08:28:02Z</time>
      </trkpt>
      <trkpt lat="47.33236" lon="5.99796">
        <ele>243.2</ele>
        <time>2024-08-03T08:28:03Z</time>
      </trkpt>
      <trkpt lat="47.33234" lon="5.99796">
        <ele>243.2</ele>
        <time>2024-08-03T08:28:04Z</time>
      </trkpt>
      <trkpt lat="47.33232" lon="5.99797">
        <ele>243.2</ele>
        <time>2024-08-03T08:28:05Z</time>
      </trkpt>
      <trkpt lat="47.33229" lon="5.99797">
        <ele>243.2</ele>
        <time>2024-08-03T08:28:06Z</time>
      </trkpt>
      <trkpt lat="47.33226" lon="5.99797">
        <ele>243.2</ele>
        <time>2024-08-03T08:28:07Z</time>
      </trkpt>
      <trkpt lat="47.33224" lon="5.99798">
        <ele>243.2</ele>
        <time>2024-08-03T08:28:08Z</time>
      </trkpt>
      <trkpt lat="47.3322" lon="5.99798">
        <ele>243.2</ele>
        <time>2024-08-03T08:28:09Z</time>
      </trkpt>
      <trkpt lat="47.33217" lon="5.99799">
        <ele>243.2</ele>
        <time>2024-08-03T08:28:10Z</time>
      </trkpt>
      <trkpt lat="47.33213" lon="5.998">
        <ele>243.4</ele>
        <time>2024-08-03T08:28:11Z</time>
      </trkpt>
      <trkpt lat="47.3321" lon="5.99801">
        <ele>243.4</ele>
        <time>2024-08-03T08:28:12Z</time>
      </trkpt>
      <trkpt lat="47.33206" lon="5.99801">
        <ele>243.4</ele>
        <time>2024-08-03T08:28:13Z</time>
      </trkpt>
      <trkpt lat="47.33203" lon="5.99802">
        <ele>243.4</ele>
        <time>2024-08-03T08:28:14Z</time>
      </trkpt>
      <trkpt lat="47.33199" lon="5.99803">
        <ele>243.4</ele>
        <time>2024-08-03T08:28:15Z</time>
      </trkpt>
      <trkpt lat="47.33195" lon="5.99805">
        <ele>243.4</ele>
        <time>2024-08-03T08:28:16Z</time>
      </trkpt>
      <trkpt lat="47.33191" lon="5.99807">
        <ele>243.2</ele>
        <time>2024-08-03T08:28:17Z</time>
      </trkpt>
      <trkpt lat="47.33187" lon="5.99808">
        <ele>243.2</ele>
        <time>2024-08-03T08:28:18Z</time>
      </trkpt>
      <trkpt lat="47.33182" lon="5.9981">
        <ele>243.2</ele>
        <time>2024-08-03T08:28:19Z</time>
      </trkpt>
      <trkpt lat="47.33178" lon="5.99811">
        <ele>243.4</ele>
        <time>2024-08-03T08:28:20Z</time>
      </trkpt>
      <trkpt lat="47.33172" lon="5.99812">
        <ele>243.4</ele>
        <time>2024-08-03T08:28:21Z</time>
      </trkpt>
      <trkpt lat="47.33166" lon="5.99813">
        <ele>243.4</ele>
        <time>2024-08-03T08:28:22Z</time>
      </trkpt>
      <trkpt lat="47.33161" lon="5.99814">
        <ele>243.6</ele>
        <time>2024-08-03T08:28:23Z</time>
      </trkpt>
      <trkpt lat="47.33156" lon="5.99815">
        <ele>243.6</ele>
        <time>2024-08-03T08:28:24Z</time>
      </trkpt>
      <trkpt lat="47.33151" lon="5.99816">
        <ele>243.8</ele>
        <time>2024-08-03T08:28:25Z</time>
      </trkpt>
      <trkpt lat="47.33146" lon="5.99817">
        <ele>243.6</ele>
        <time>2024-08-03T08:28:26Z</time>
      </trkpt>
      <trkpt lat="47.33141" lon="5.99819">
        <ele>243.6</ele>
        <time>2024-08-03T08:28:27Z</time>
      </trkpt>
      <trkpt lat="47.33136" lon="5.9982">
        <ele>243.6</ele>
        <time>2024-08-03T08:28:28Z</time>
      </trkpt>
      <trkpt lat="47.3313" lon="5.99821">
        <ele>243.8</ele>
        <time>2024-08-03T08:28:29Z</time>
      </trkpt>
      <trkpt lat="47.33126" lon="5.99822">
        <ele>243.6</ele>
        <time>2024-08-03T08:28:30Z</time>
      </trkpt>
      <trkpt lat="47.33121" lon="5.99822">
        <ele>243.6</ele>
        <time>2024-08-03T08:28:31Z</time>
      </trkpt>
      <trkpt lat="47.33116" lon="5.99823">
        <ele>243.6</ele>
        <time>2024-08-03T08:28:32Z</time>
      </trkpt>
      <trkpt lat="47.33111" lon="5.99824">
        <ele>243.6</ele>
        <time>2024-08-03T08:28:33Z</time>
      </trkpt>
      <trkpt lat="47.33106" lon="5.99824">
        <ele>243.8</ele>
        <time>2024-08-03T08:28:34Z</time>
      </trkpt>
      <trkpt lat="47.33102" lon="5.99826">
        <ele>243.6</ele>
        <time>2024-08-03T08:28:35Z</time>
      </trkpt>
      <trkpt lat="47.33097" lon="5.99826">
        <ele>243.8</ele>
        <time>2024-08-03T08:28:36Z</time>
      </trkpt>
      <trkpt lat="47.33092" lon="5.99827">
        <ele>243.8</ele>
        <time>2024-08-03T08:28:37Z</time>
      </trkpt>
      <trkpt lat="47.33087" lon="5.99828">
        <ele>243.6</ele>
        <time>2024-08-03T08:28:38Z</time>
      </trkpt>
      <trkpt lat="47.33082" lon="5.99829">
        <ele>243.6</ele>
        <time>2024-08-03T08:28:39Z</time>
      </trkpt>
      <trkpt lat="47.33077" lon="5.9983">
        <ele>243.6</ele>
        <time>2024-08-03T08:28:40Z</time>
      </trkpt>
      <trkpt lat="47.33072" lon="5.9983">
        <ele>243.6</ele>
        <time>2024-08-03T08:28:41Z</time>
      </trkpt>
      <trkpt lat="47.33067" lon="5.99831">
        <ele>243.6</ele>
        <time>2024-08-03T08:28:42Z</time>
      </trkpt>
      <trkpt lat="47.33062" lon="5.99831">
        <ele>243.6</ele>
        <time>2024-08-03T08:28:43Z</time>
      </trkpt>
      <trkpt lat="47.33058" lon="5.99832">
        <ele>243.4</ele>
        <time>2024-08-03T08:28:44Z</time>
      </trkpt>
      <trkpt lat="47.33053" lon="5.99833">
        <ele>243.6</ele>
        <time>2024-08-03T08:28:45Z</time>
      </trkpt>
      <trkpt lat="47.33049" lon="5.99833">
        <ele>243.6</ele>
        <time>2024-08-03T08:28:46Z</time>
      </trkpt>
      <trkpt lat="47.33045" lon="5.99834">
        <ele>243.6</ele>
        <time>2024-08-03T08:28:47Z</time>
      </trkpt>
      <trkpt lat="47.3304" lon="5.99835">
        <ele>243.6</ele>
        <time>2024-08-03T08:28:48Z</time>
      </trkpt>
      <trkpt lat="47.33036" lon="5.99836">
        <ele>243.6</ele>
        <time>2024-08-03T08:28:49Z</time>
      </trkpt>
      <trkpt lat="47.33032" lon="5.99836">
        <ele>243.6</ele>
        <time>2024-08-03T08:28:50Z</time>
      </trkpt>
      <trkpt lat="47.33027" lon="5.99837">
        <ele>243.6</ele>
        <time>2024-08-03T08:28:51Z</time>
      </trkpt>
      <trkpt lat="47.33023" lon="5.99838">
        <ele>243.6</ele>
        <time>2024-08-03T08:28:52Z</time>
      </trkpt>
      <trkpt lat="47.33019" lon="5.99838">
        <ele>243.6</ele>
        <time>2024-08-03T08:28:53Z</time>
      </trkpt>
      <trkpt lat="47.33015" lon="5.99839">
        <ele>243.6</ele>
        <time>2024-08-03T08:28:54Z</time>
      </trkpt>
      <trkpt lat="47.33011" lon="5.9984">
        <ele>243.6</ele>
        <time>2024-08-03T08:28:55Z</time>
      </trkpt>
      <trkpt lat="47.33007" lon="5.99841">
        <ele>243.8</ele>
        <time>2024-08-03T08:28:56Z</time>
      </trkpt>
      <trkpt lat="47.33004" lon="5.99842">
        <ele>244</ele>
        <time>2024-08-03T08:28:57Z</time>
      </trkpt>
      <trkpt lat="47.33" lon="5.99843">
        <ele>244.2</ele>
        <time>2024-08-03T08:28:58Z</time>
      </trkpt>
      <trkpt lat="47.32998" lon="5.99844">
        <ele>244.4</ele>
        <time>2024-08-03T08:28:59Z</time>
      </trkpt>
      <trkpt lat="47.32995" lon="5.99845">
        <ele>244.4</ele>
        <time>2024-08-03T08:29:00Z</time>
      </trkpt>
      <trkpt lat="47.32992" lon="5.99845">
        <ele>244.6</ele>
        <time>2024-08-03T08:29:01Z</time>
      </trkpt>
      <trkpt lat="47.32989" lon="5.99845">
        <ele>244.6</ele>
        <time>2024-08-03T08:29:02Z</time>
      </trkpt>
      <trkpt lat="47.32986" lon="5.99844">
        <ele>244.6</ele>
        <time>2024-08-03T08:29:03Z</time>
      </trkpt>
      <trkpt lat="47.32982" lon="5.99845">
        <ele>244.6</ele>
        <time>2024-08-03T08:29:04Z</time>
      </trkpt>
      <trkpt lat="47.32979" lon="5.99846">
        <ele>245</ele>
        <time>2024-08-03T08:29:05Z</time>
      </trkpt>
      <trkpt lat="47.32976" lon="5.99847">
        <ele>245.2</ele>
        <time>2024-08-03T08:29:06Z</time>
      </trkpt>
      <trkpt lat="47.32973" lon="5.9985">
        <ele>245.4</ele>
        <time>2024-08-03T08:29:07Z</time>
      </trkpt>
      <trkpt lat="47.32971" lon="5.99851">
        <ele>245.6</ele>
        <time>2024-08-03T08:29:08Z</time>
      </trkpt>
      <trkpt lat="47.32969" lon="5.99851">
        <ele>245.8</ele>
        <time>2024-08-03T08:29:09Z</time>
      </trkpt>
      <trkpt lat="47.32966" lon="5.9985">
        <ele>245.8</ele>
        <time>2024-08-03T08:29:10Z</time>
      </trkpt>
      <trkpt lat="47.32963" lon="5.99847">
        <ele>245.8</ele>
        <time>2024-08-03T08:29:11Z</time>
      </trkpt>
      <trkpt lat="47.3296" lon="5.99844">
        <ele>246.2</ele>
        <time>2024-08-03T08:29:12Z</time>
      </trkpt>
      <trkpt lat="47.32957" lon="5.99841">
        <ele>246.2</ele>
        <time>2024-08-03T08:29:13Z</time>
      </trkpt>
      <trkpt lat="47.32954" lon="5.99837">
        <ele>246.2</ele>
        <time>2024-08-03T08:29:14Z</time>
      </trkpt>
      <trkpt lat="47.3295" lon="5.99832">
        <ele>246.4</ele>
        <time>2024-08-03T08:29:15Z</time>
      </trkpt>
      <trkpt lat="47.32946" lon="5.99828">
        <ele>246.4</ele>
        <time>2024-08-03T08:29:16Z</time>
      </trkpt>
      <trkpt lat="47.32942" lon="5.99824">
        <ele>246.6</ele>
        <time>2024-08-03T08:29:17Z</time>
      </trkpt>
      <trkpt lat="47.32938" lon="5.99819">
        <ele>246.6</ele>
        <time>2024-08-03T08:29:18Z</time>
      </trkpt>
      <trkpt lat="47.32935" lon="5.99815">
        <ele>246.6</ele>
        <time>2024-08-03T08:29:19Z</time>
      </trkpt>
      <trkpt lat="47.32931" lon="5.9981">
        <ele>246.6</ele>
        <time>2024-08-03T08:29:20Z</time>
      </trkpt>
      <trkpt lat="47.32927" lon="5.99805">
        <ele>246.4</ele>
        <time>2024-08-03T08:29:21Z</time>
      </trkpt>
      <trkpt lat="47.32923" lon="5.99801">
        <ele>246.4</ele>
        <time>2024-08-03T08:29:22Z</time>
      </trkpt>
      <trkpt lat="47.3292" lon="5.99795">
        <ele>246.6</ele>
        <time>2024-08-03T08:29:23Z</time>
      </trkpt>
      <trkpt lat="47.32916" lon="5.99788">
        <ele>246.4</ele>
        <time>2024-08-03T08:29:24Z</time>
      </trkpt>
      <trkpt lat="47.32914" lon="5.99781">
        <ele>246.4</ele>
        <time>2024-08-03T08:29:25Z</time>
      </trkpt>
      <trkpt lat="47.32913" lon="5.99773">
        <ele>246.6</ele>
        <time>2024-08-03T08:29:26Z</time>
      </trkpt>
      <trkpt lat="47.32912" lon="5.99764">
        <ele>246.6</ele>
        <time>2024-08-03T08:29:27Z</time>
      </trkpt>
      <trkpt lat="47.32912" lon="5.99754">
        <ele>246.4</ele>
        <time>2024-08-03T08:29:28Z</time>
      </trkpt>
      <trkpt lat="47.32911" lon="5.99743">
        <ele>246.4</ele>
        <time>2024-08-03T08:29:29Z</time>
      </trkpt>
      <trkpt lat="47.32909" lon="5.99734">
        <ele>246.4</ele>
        <time>2024-08-03T08:29:30Z</time>
      </trkpt>
      <trkpt lat="47.32905" lon="5.99726">
        <ele>246.2</ele>
        <time>2024-08-03T08:29:31Z</time>
      </trkpt>
      <trkpt lat="47.32899" lon="5.99719">
        <ele>246.2</ele>
        <time>2024-08-03T08:29:32Z</time>
      </trkpt>
      <trkpt lat="47.32894" lon="5.99713">
        <ele>246</ele>
        <time>2024-08-03T08:29:33Z</time>
      </trkpt>
      <trkpt lat="47.32888" lon="5.99708">
        <ele>245.8</ele>
        <time>2024-08-03T08:29:34Z</time>
      </trkpt>
      <trkpt lat="47.32881" lon="5.99705">
        <ele>245.6</ele>
        <time>2024-08-03T08:29:35Z</time>
      </trkpt>
      <trkpt lat="47.32874" lon="5.99703">
        <ele>245.2</ele>
        <time>2024-08-03T08:29:36Z</time>
      </trkpt>
      <trkpt lat="47.32867" lon="5.99703">
        <ele>245</ele>
        <time>2024-08-03T08:29:37Z</time>
      </trkpt>
      <trkpt lat="47.3286" lon="5.99703">
        <ele>244.4</ele>
        <time>2024-08-03T08:29:38Z</time>
      </trkpt>
      <trkpt lat="47.32853" lon="5.99704">
        <ele>244</ele>
        <time>2024-08-03T08:29:39Z</time>
      </trkpt>
      <trkpt lat="47.32847" lon="5.99704">
        <ele>243.8</ele>
        <time>2024-08-03T08:29:40Z</time>
      </trkpt>
      <trkpt lat="47.32841" lon="5.99703">
        <ele>243.8</ele>
        <time>2024-08-03T08:29:41Z</time>
      </trkpt>
      <trkpt lat="47.32835" lon="5.99701">
        <ele>243.6</ele>
        <time>2024-08-03T08:29:42Z</time>
      </trkpt>
      <trkpt lat="47.3283" lon="5.99698">
        <ele>243.6</ele>
        <time>2024-08-03T08:29:43Z</time>
      </trkpt>
      <trkpt lat="47.32827" lon="5.99695">
        <ele>243.6</ele>
        <time>2024-08-03T08:29:44Z</time>
      </trkpt>
      <trkpt lat="47.32823" lon="5.99692">
        <ele>243.6</ele>
        <time>2024-08-03T08:29:45Z</time>
      </trkpt>
      <trkpt lat="47.3282" lon="5.99689">
        <ele>243.4</ele>
        <time>2024-08-03T08:29:46Z</time>
      </trkpt>
      <trkpt lat="47.32817" lon="5.99685">
        <ele>243.4</ele>
        <time>2024-08-03T08:29:47Z</time>
      </trkpt>
      <trkpt lat="47.32814" lon="5.99681">
        <ele>243.4</ele>
        <time>2024-08-03T08:29:48Z</time>
      </trkpt>
      <trkpt lat="47.32811" lon="5.99677">
        <ele>243.6</ele>
        <time>2024-08-03T08:29:49Z</time>
      </trkpt>
      <trkpt lat="47.32808" lon="5.99674">
        <ele>243.4</ele>
        <time>2024-08-03T08:29:50Z</time>
      </trkpt>
      <trkpt lat="47.32805" lon="5.99671">
        <ele>243.6</ele>
        <time>2024-08-03T08:29:51Z</time>
      </trkpt>
      <trkpt lat="47.32802" lon="5.99667">
        <ele>243.4</ele>
        <time>2024-08-03T08:29:52Z</time>
      </trkpt>
      <trkpt lat="47.328" lon="5.99664">
        <ele>243.6</ele>
        <time>2024-08-03T08:29:53Z</time>
      </trkpt>
      <trkpt lat="47.32797" lon="5.99661">
        <ele>243.8</ele>
        <time>2024-08-03T08:29:54Z</time>
      </trkpt>
      <trkpt lat="47.32794" lon="5.99658">
        <ele>244</ele>
        <time>2024-08-03T08:29:55Z</time>
      </trkpt>
      <trkpt lat="47.32791" lon="5.99655">
        <ele>244.4</ele>
        <time>2024-08-03T08:29:56Z</time>
      </trkpt>
      <trkpt lat="47.32789" lon="5.99652">
        <ele>244.6</ele>
        <time>2024-08-03T08:29:57Z</time>
      </trkpt>
      <trkpt lat="47.32786" lon="5.99649">
        <ele>244.6</ele>
        <time>2024-08-03T08:29:58Z</time>
      </trkpt>
      <trkpt lat="47.32784" lon="5.99646">
        <ele>245</ele>
        <time>2024-08-03T08:29:59Z</time>
      </trkpt>
      <trkpt lat="47.32781" lon="5.99643">
        <ele>245.2</ele>
        <time>2024-08-03T08:30:00Z</time>
      </trkpt>
      <trkpt lat="47.32779" lon="5.9964">
        <ele>245.4</ele>
        <time>2024-08-03T08:30:01Z</time>
      </trkpt>
      <trkpt lat="47.32776" lon="5.99637">
        <ele>245.6</ele>
        <time>2024-08-03T08:30:02Z</time>
      </trkpt>
      <trkpt lat="47.32773" lon="5.99634">
        <ele>246</ele>
        <time>2024-08-03T08:30:03Z</time>
      </trkpt>
      <trkpt lat="47.3277" lon="5.99631">
        <ele>246.2</ele>
        <time>2024-08-03T08:30:04Z</time>
      </trkpt>
      <trkpt lat="47.32768" lon="5.99628">
        <ele>246.4</ele>
        <time>2024-08-03T08:30:05Z</time>
      </trkpt>
      <trkpt lat="47.32765" lon="5.99626">
        <ele>246.8</ele>
        <time>2024-08-03T08:30:06Z</time>
      </trkpt>
      <trkpt lat="47.32762" lon="5.99623">
        <ele>246.8</ele>
        <time>2024-08-03T08:30:07Z</time>
      </trkpt>
      <trkpt lat="47.3276" lon="5.9962">
        <ele>247.2</ele>
        <time>2024-08-03T08:30:08Z</time>
      </trkpt>
      <trkpt lat="47.32757" lon="5.99617">
        <ele>247.2</ele>
        <time>2024-08-03T08:30:09Z</time>
      </trkpt>
      <trkpt lat="47.32754" lon="5.99614">
        <ele>247.4</ele>
        <time>2024-08-03T08:30:10Z</time>
      </trkpt>
      <trkpt lat="47.32751" lon="5.99611">
        <ele>247.6</ele>
        <time>2024-08-03T08:30:11Z</time>
      </trkpt>
      <trkpt lat="47.32748" lon="5.99608">
        <ele>247.8</ele>
        <time>2024-08-03T08:30:12Z</time>
      </trkpt>
      <trkpt lat="47.32745" lon="5.99605">
        <ele>248</ele>
        <time>2024-08-03T08:30:13Z</time>
      </trkpt>
      <trkpt lat="47.32742" lon="5.99602">
        <ele>248.4</ele>
        <time>2024-08-03T08:30:14Z</time>
      </trkpt>
      <trkpt lat="47.32739" lon="5.996">
        <ele>248.6</ele>
        <time>2024-08-03T08:30:15Z</time>
      </trkpt>
      <trkpt lat="47.32736" lon="5.99597">
        <ele>249</ele>
        <time>2024-08-03T08:30:16Z</time>
      </trkpt>
      <trkpt lat="47.32733" lon="5.99593">
        <ele>249</ele>
        <time>2024-08-03T08:30:17Z</time>
      </trkpt>
      <trkpt lat="47.3273" lon="5.9959">
        <ele>249.4</ele>
        <time>2024-08-03T08:30:18Z</time>
      </trkpt>
      <trkpt lat="47.32727" lon="5.99586">
        <ele>249.6</ele>
        <time>2024-08-03T08:30:19Z</time>
      </trkpt>
      <trkpt lat="47.32724" lon="5.99583">
        <ele>249.8</ele>
        <time>2024-08-03T08:30:20Z</time>
      </trkpt>
      <trkpt lat="47.32721" lon="5.99579">
        <ele>250.2</ele>
        <time>2024-08-03T08:30:21Z</time>
      </trkpt>
      <trkpt lat="47.32718" lon="5.99575">
        <ele>250.4</ele>
        <time>2024-08-03T08:30:22Z</time>
      </trkpt>
      <trkpt lat="47.32715" lon="5.99572">
        <ele>250.8</ele>
        <time>2024-08-03T08:30:23Z</time>
      </trkpt>
      <trkpt lat="47.32713" lon="5.99568">
        <ele>251</ele>
        <time>2024-08-03T08:30:24Z</time>
      </trkpt>
      <trkpt lat="47.3271" lon="5.99564">
        <ele>251.2</ele>
        <time>2024-08-03T08:30:25Z</time>
      </trkpt>
      <trkpt lat="47.32707" lon="5.99559">
        <ele>251.4</ele>
        <time>2024-08-03T08:30:26Z</time>
      </trkpt>
      <trkpt lat="47.32705" lon="5.99555">
        <ele>251.8</ele>
        <time>2024-08-03T08:30:27Z</time>
      </trkpt>
      <trkpt lat="47.32702" lon="5.99552">
        <ele>251.8</ele>
        <time>2024-08-03T08:30:28Z</time>
      </trkpt>
      <trkpt lat="47.327" lon="5.99548">
        <ele>252</ele>
        <time>2024-08-03T08:30:29Z</time>
      </trkpt>
      <trkpt lat="47.32697" lon="5.99544">
        <ele>252.2</ele>
        <time>2024-08-03T08:30:30Z</time>
      </trkpt>
      <trkpt lat="47.32694" lon="5.9954">
        <ele>252.2</ele>
        <time>2024-08-03T08:30:31Z</time>
      </trkpt>
      <trkpt lat="47.32691" lon="5.99537">
        <ele>252.4</ele>
        <time>2024-08-03T08:30:32Z</time>
      </trkpt>
      <trkpt lat="47.32688" lon="5.99533">
        <ele>252.4</ele>
        <time>2024-08-03T08:30:33Z</time>
      </trkpt>
      <trkpt lat="47.32685" lon="5.99529">
        <ele>252.8</ele>
        <time>2024-08-03T08:30:34Z</time>
      </trkpt>
      <trkpt lat="47.32683" lon="5.99525">
        <ele>252.8</ele>
        <time>2024-08-03T08:30:35Z</time>
      </trkpt>
      <trkpt lat="47.3268" lon="5.99522">
        <ele>252.8</ele>
        <time>2024-08-03T08:30:36Z</time>
      </trkpt>
      <trkpt lat="47.32677" lon="5.99518">
        <ele>253.2</ele>
        <time>2024-08-03T08:30:37Z</time>
      </trkpt>
      <trkpt lat="47.32674" lon="5.99515">
        <ele>253.6</ele>
        <time>2024-08-03T08:30:38Z</time>
      </trkpt>
      <trkpt lat="47.32671" lon="5.99511">
        <ele>253.6</ele>
        <time>2024-08-03T08:30:39Z</time>
      </trkpt>
      <trkpt lat="47.32668" lon="5.99507">
        <ele>253.8</ele>
        <time>2024-08-03T08:30:40Z</time>
      </trkpt>
      <trkpt lat="47.32665" lon="5.99503">
        <ele>254</ele>
        <time>2024-08-03T08:30:41Z</time>
      </trkpt>
      <trkpt lat="47.32662" lon="5.99499">
        <ele>254.2</ele>
        <time>2024-08-03T08:30:42Z</time>
      </trkpt>
      <trkpt lat="47.32658" lon="5.99495">
        <ele>254.2</ele>
        <time>2024-08-03T08:30:43Z</time>
      </trkpt>
      <trkpt lat="47.32655" lon="5.99491">
        <ele>254.2</ele>
        <time>2024-08-03T08:30:44Z</time>
      </trkpt>
      <trkpt lat="47.32651" lon="5.99486">
        <ele>254.2</ele>
        <time>2024-08-03T08:30:45Z</time>
      </trkpt>
      <trkpt lat="47.32648" lon="5.99482">
        <ele>254.4</ele>
        <time>2024-08-03T08:30:46Z</time>
      </trkpt>
      <trkpt lat="47.32644" lon="5.99477">
        <ele>254.4</ele>
        <time>2024-08-03T08:30:47Z</time>
      </trkpt>
      <trkpt lat="47.3264" lon="5.99473">
        <ele>254.2</ele>
        <time>2024-08-03T08:30:48Z</time>
      </trkpt>
      <trkpt lat="47.32636" lon="5.99468">
        <ele>254.4</ele>
        <time>2024-08-03T08:30:49Z</time>
      </trkpt>
      <trkpt lat="47.32632" lon="5.99463">
        <ele>254.2</ele>
        <time>2024-08-03T08:30:50Z</time>
      </trkpt>
      <trkpt lat="47.32628" lon="5.99457">
        <ele>254.4</ele>
        <time>2024-08-03T08:30:51Z</time>
      </trkpt>
      <trkpt lat="47.32623" lon="5.99452">
        <ele>254.4</ele>
        <time>2024-08-03T08:30:52Z</time>
      </trkpt>
      <trkpt lat="47.32618" lon="5.99447">
        <ele>254.4</ele>
        <time>2024-08-03T08:30:53Z</time>
      </trkpt>
      <trkpt lat="47.32612" lon="5.9944">
        <ele>254.2</ele>
        <time>2024-08-03T08:30:54Z</time>
      </trkpt>
      <trkpt lat="47.32606" lon="5.99434">
        <ele>254.4</ele>
        <time>2024-08-03T08:30:55Z</time>
      </trkpt>
      <trkpt lat="47.32601" lon="5.99428">
        <ele>254.4</ele>
        <time>2024-08-03T08:30:56Z</time>
      </trkpt>
      <trkpt lat="47.32595" lon="5.99422">
        <ele>254.2</ele>
        <time>2024-08-03T08:30:57Z</time>
      </trkpt>
      <trkpt lat="47.32589" lon="5.99415">
        <ele>254</ele>
        <time>2024-08-03T08:30:58Z</time>
      </trkpt>
      <trkpt lat="47.32583" lon="5.99409">
        <ele>253.8</ele>
        <time>2024-08-03T08:30:59Z</time>
      </trkpt>
      <trkpt lat="47.32577" lon="5.99403">
        <ele>253.8</ele>
        <time>2024-08-03T08:31:00Z</time>
      </trkpt>
      <trkpt lat="47.32571" lon="5.99396">
        <ele>253.6</ele>
        <time>2024-08-03T08:31:01Z</time>
      </trkpt>
      <trkpt lat="47.32565" lon="5.9939">
        <ele>253.2</ele>
        <time>2024-08-03T08:31:02Z</time>
      </trkpt>
      <trkpt lat="47.32559" lon="5.99385">
        <ele>253</ele>
        <time>2024-08-03T08:31:03Z</time>
      </trkpt>
      <trkpt lat="47.32554" lon="5.99379">
        <ele>252.8</ele>
        <time>2024-08-03T08:31:04Z</time>
      </trkpt>
      <trkpt lat="47.32547" lon="5.99373">
        <ele>252.4</ele>
        <time>2024-08-03T08:31:05Z</time>
      </trkpt>
      <trkpt lat="47.32542" lon="5.99367">
        <ele>252.2</ele>
        <time>2024-08-03T08:31:06Z</time>
      </trkpt>
      <trkpt lat="47.32536" lon="5.99361">
        <ele>252</ele>
        <time>2024-08-03T08:31:07Z</time>
      </trkpt>
      <trkpt lat="47.32531" lon="5.99355">
        <ele>251.8</ele>
        <time>2024-08-03T08:31:08Z</time>
      </trkpt>
      <trkpt lat="47.32525" lon="5.9935">
        <ele>251.4</ele>
        <time>2024-08-03T08:31:09Z</time>
      </trkpt>
      <trkpt lat="47.3252" lon="5.99344">
        <ele>251.2</ele>
        <time>2024-08-03T08:31:10Z</time>
      </trkpt>
      <trkpt lat="47.32514" lon="5.99338">
        <ele>251</ele>
        <time>2024-08-03T08:31:11Z</time>
      </trkpt>
      <trkpt lat="47.32509" lon="5.99332">
        <ele>251</ele>
        <time>2024-08-03T08:31:12Z</time>
      </trkpt>
      <trkpt lat="47.32503" lon="5.99326">
        <ele>250.8</ele>
        <time>2024-08-03T08:31:13Z</time>
      </trkpt>
      <trkpt lat="47.32497" lon="5.99319">
        <ele>250.4</ele>
        <time>2024-08-03T08:31:14Z</time>
      </trkpt>
      <trkpt lat="47.32491" lon="5.99311">
        <ele>250.4</ele>
        <time>2024-08-03T08:31:15Z</time>
      </trkpt>
      <trkpt lat="47.32484" lon="5.99304">
        <ele>250.2</ele>
        <time>2024-08-03T08:31:16Z</time>
      </trkpt>
      <trkpt lat="47.32478" lon="5.99296">
        <ele>249.8</ele>
        <time>2024-08-03T08:31:17Z</time>
      </trkpt>
      <trkpt lat="47.32472" lon="5.99288">
        <ele>249.4</ele>
        <time>2024-08-03T08:31:18Z</time>
      </trkpt>
      <trkpt lat="47.32466" lon="5.9928">
        <ele>249</ele>
        <time>2024-08-03T08:31:19Z</time>
      </trkpt>
      <trkpt lat="47.32461" lon="5.99271">
        <ele>248.8</ele>
        <time>2024-08-03T08:31:20Z</time>
      </trkpt>
      <trkpt lat="47.32455" lon="5.99262">
        <ele>248.6</ele>
        <time>2024-08-03T08:31:21Z</time>
      </trkpt>
      <trkpt lat="47.3245" lon="5.99253">
        <ele>248.2</ele>
        <time>2024-08-03T08:31:22Z</time>
      </trkpt>
      <trkpt lat="47.32445" lon="5.99244">
        <ele>248.2</ele>
        <time>2024-08-03T08:31:23Z</time>
      </trkpt>
      <trkpt lat="47.3244" lon="5.99235">
        <ele>248</ele>
        <time>2024-08-03T08:31:24Z</time>
      </trkpt>
      <trkpt lat="47.32435" lon="5.99226">
        <ele>247.6</ele>
        <time>2024-08-03T08:31:25Z</time>
      </trkpt>
      <trkpt lat="47.3243" lon="5.99217">
        <ele>247.2</ele>
        <time>2024-08-03T08:31:26Z</time>
      </trkpt>
      <trkpt lat="47.32425" lon="5.99209">
        <ele>246.8</ele>
        <time>2024-08-03T08:31:27Z</time>
      </trkpt>
      <trkpt lat="47.3242" lon="5.99201">
        <ele>246.6</ele>
        <time>2024-08-03T08:31:28Z</time>
      </trkpt>
      <trkpt lat="47.32415" lon="5.99193">
        <ele>246.4</ele>
        <time>2024-08-03T08:31:29Z</time>
      </trkpt>
      <trkpt lat="47.32411" lon="5.99185">
        <ele>246</ele>
        <time>2024-08-03T08:31:30Z</time>
      </trkpt>
      <trkpt lat="47.32406" lon="5.99178">
        <ele>245.6</ele>
        <time>2024-08-03T08:31:31Z</time>
      </trkpt>
      <trkpt lat="47.32402" lon="5.99171">
        <ele>245.4</ele>
        <time>2024-08-03T08:31:32Z</time>
      </trkpt>
      <trkpt lat="47.32399" lon="5.99163">
        <ele>245.4</ele>
        <time>2024-08-03T08:31:33Z</time>
      </trkpt>
      <trkpt lat="47.32397" lon="5.99156">
        <ele>245</ele>
        <time>2024-08-03T08:31:34Z</time>
      </trkpt>
      <trkpt lat="47.32395" lon="5.99149">
        <ele>245</ele>
        <time>2024-08-03T08:31:35Z</time>
      </trkpt>
      <trkpt lat="47.32395" lon="5.99142">
        <ele>245</ele>
        <time>2024-08-03T08:31:36Z</time>
      </trkpt>
      <trkpt lat="47.32396" lon="5.99135">
        <ele>245</ele>
        <time>2024-08-03T08:31:37Z</time>
      </trkpt>
      <trkpt lat="47.32397" lon="5.99129">
        <ele>245</ele>
        <time>2024-08-03T08:31:38Z</time>
      </trkpt>
      <trkpt lat="47.32397" lon="5.99122">
        <ele>245</ele>
        <time>2024-08-03T08:31:39Z</time>
      </trkpt>
      <trkpt lat="47.32397" lon="5.99117">
        <ele>245</ele>
        <time>2024-08-03T08:31:40Z</time>
      </trkpt>
      <trkpt lat="47.32396" lon="5.99111">
        <ele>245</ele>
        <time>2024-08-03T08:31:41Z</time>
      </trkpt>
      <trkpt lat="47.32395" lon="5.99106">
        <ele>245</ele>
        <time>2024-08-03T08:31:42Z</time>
      </trkpt>
      <trkpt lat="47.32393" lon="5.99101">
        <ele>245.2</ele>
        <time>2024-08-03T08:31:43Z</time>
      </trkpt>
      <trkpt lat="47.32391" lon="5.99097">
        <ele>245</ele>
        <time>2024-08-03T08:31:44Z</time>
      </trkpt>
      <trkpt lat="47.32388" lon="5.99093">
        <ele>245.2</ele>
        <time>2024-08-03T08:31:45Z</time>
      </trkpt>
      <trkpt lat="47.32385" lon="5.9909">
        <ele>245.2</ele>
        <time>2024-08-03T08:31:46Z</time>
      </trkpt>
      <trkpt lat="47.32382" lon="5.99087">
        <ele>245.2</ele>
        <time>2024-08-03T08:31:47Z</time>
      </trkpt>
      <trkpt lat="47.32379" lon="5.99083">
        <ele>245.4</ele>
        <time>2024-08-03T08:31:48Z</time>
      </trkpt>
      <trkpt lat="47.32376" lon="5.9908">
        <ele>245.6</ele>
        <time>2024-08-03T08:31:49Z</time>
      </trkpt>
      <trkpt lat="47.32373" lon="5.99077">
        <ele>245.8</ele>
        <time>2024-08-03T08:31:50Z</time>
      </trkpt>
      <trkpt lat="47.3237" lon="5.99075">
        <ele>246</ele>
        <time>2024-08-03T08:31:51Z</time>
      </trkpt>
      <trkpt lat="47.32366" lon="5.99074">
        <ele>246.2</ele>
        <time>2024-08-03T08:31:52Z</time>
      </trkpt>
      <trkpt lat="47.32362" lon="5.99074">
        <ele>246.4</ele>
        <time>2024-08-03T08:31:53Z</time>
      </trkpt>
      <trkpt lat="47.32358" lon="5.99075">
        <ele>246.6</ele>
        <time>2024-08-03T08:31:54Z</time>
      </trkpt>
      <trkpt lat="47.32354" lon="5.99076">
        <ele>246.8</ele>
        <time>2024-08-03T08:31:55Z</time>
      </trkpt>
      <trkpt lat="47.32349" lon="5.99076">
        <ele>247</ele>
        <time>2024-08-03T08:31:56Z</time>
      </trkpt>
      <trkpt lat="47.32346" lon="5.99074">
        <ele>247.2</ele>
        <time>2024-08-03T08:31:57Z</time>
      </trkpt>
      <trkpt lat="47.32343" lon="5.99072">
        <ele>247.2</ele>
        <time>2024-08-03T08:31:58Z</time>
      </trkpt>
      <trkpt lat="47.3234" lon="5.99069">
        <ele>247.2</ele>
        <time>2024-08-03T08:31:59Z</time>
      </trkpt>
      <trkpt lat="47.32337" lon="5.99065">
        <ele>247.6</ele>
        <time>2024-08-03T08:32:00Z</time>
      </trkpt>
      <trkpt lat="47.32334" lon="5.99062">
        <ele>247.6</ele>
        <time>2024-08-03T08:32:01Z</time>
      </trkpt>
      <trkpt lat="47.32332" lon="5.99058">
        <ele>248</ele>
        <time>2024-08-03T08:32:02Z</time>
      </trkpt>
      <trkpt lat="47.32329" lon="5.99054">
        <ele>248</ele>
        <time>2024-08-03T08:32:03Z</time>
      </trkpt>
      <trkpt lat="47.32327" lon="5.99049">
        <ele>248.2</ele>
        <time>2024-08-03T08:32:04Z</time>
      </trkpt>
      <trkpt lat="47.32324" lon="5.99045">
        <ele>248.6</ele>
        <time>2024-08-03T08:32:05Z</time>
      </trkpt>
      <trkpt lat="47.32321" lon="5.99041">
        <ele>248.6</ele>
        <time>2024-08-03T08:32:06Z</time>
      </trkpt>
      <trkpt lat="47.32318" lon="5.99037">
        <ele>248.8</ele>
        <time>2024-08-03T08:32:07Z</time>
      </trkpt>
      <trkpt lat="47.32316" lon="5.99032">
        <ele>249</ele>
        <time>2024-08-03T08:32:08Z</time>
      </trkpt>
      <trkpt lat="47.32313" lon="5.99028">
        <ele>249.2</ele>
        <time>2024-08-03T08:32:09Z</time>
      </trkpt>
      <trkpt lat="47.3231" lon="5.99023">
        <ele>249.2</ele>
        <time>2024-08-03T08:32:10Z</time>
      </trkpt>
      <trkpt lat="47.32307" lon="5.99019">
        <ele>249.6</ele>
        <time>2024-08-03T08:32:11Z</time>
      </trkpt>
      <trkpt lat="47.32305" lon="5.99014">
        <ele>250</ele>
        <time>2024-08-03T08:32:12Z</time>
      </trkpt>
      <trkpt lat="47.32302" lon="5.99009">
        <ele>250.2</ele>
        <time>2024-08-03T08:32:13Z</time>
      </trkpt>
      <trkpt lat="47.32299" lon="5.99005">
        <ele>250.4</ele>
        <time>2024-08-03T08:32:14Z</time>
      </trkpt>
      <trkpt lat="47.32296" lon="5.99">
        <ele>250.8</ele>
        <time>2024-08-03T08:32:15Z</time>
      </trkpt>
      <trkpt lat="47.32293" lon="5.98995">
        <ele>251</ele>
        <time>2024-08-03T08:32:16Z</time>
      </trkpt>
      <trkpt lat="47.3229" lon="5.98991">
        <ele>251.2</ele>
        <time>2024-08-03T08:32:17Z</time>
      </trkpt>
      <trkpt lat="47.32288" lon="5.98986">
        <ele>251.4</ele>
        <time>2024-08-03T08:32:18Z</time>
      </trkpt>
      <trkpt lat="47.32285" lon="5.98982">
        <ele>251.6</ele>
        <time>2024-08-03T08:32:19Z</time>
      </trkpt>
      <trkpt lat="47.32283" lon="5.98978">
        <ele>251.8</ele>
        <time>2024-08-03T08:32:20Z</time>
      </trkpt>
      <trkpt lat="47.3228" lon="5.98974">
        <ele>251.8</ele>
        <time>2024-08-03T08:32:21Z</time>
      </trkpt>
      <trkpt lat="47.32277" lon="5.98971">
        <ele>252</ele>
        <time>2024-08-03T08:32:22Z</time>
      </trkpt>
      <trkpt lat="47.32275" lon="5.98969">
        <ele>252.2</ele>
        <time>2024-08-03T08:32:23Z</time>
      </trkpt>
      <trkpt lat="47.32273" lon="5.98967">
        <ele>252.6</ele>
        <time>2024-08-03T08:32:24Z</time>
      </trkpt>
      <trkpt lat="47.32271" lon="5.98968">
        <ele>252.8</ele>
        <time>2024-08-03T08:32:25Z</time>
      </trkpt>
      <trkpt lat="47.32271" lon="5.98969">
        <ele>253</ele>
        <time>2024-08-03T08:32:26Z</time>
      </trkpt>
      <trkpt lat="47.32272" lon="5.9897">
        <ele>253.2</ele>
        <time>2024-08-03T08:32:27Z</time>
      </trkpt>
      <trkpt lat="47.32273" lon="5.98972">
        <ele>253.6</ele>
        <time>2024-08-03T08:32:28Z</time>
      </trkpt>
      <trkpt lat="47.32275" lon="5.98973">
        <ele>253.6</ele>
        <time>2024-08-03T08:32:29Z</time>
      </trkpt>
      <trkpt lat="47.32277" lon="5.98973">
        <ele>253.8</ele>
        <time>2024-08-03T08:32:30Z</time>
      </trkpt>
      <trkpt lat="47.32279" lon="5.98973">
        <ele>253.8</ele>
        <time>2024-08-03T08:32:31Z</time>
      </trkpt>
      <trkpt lat="47.32281" lon="5.98972">
        <ele>253.8</ele>
        <time>2024-08-03T08:32:32Z</time>
      </trkpt>
      <trkpt lat="47.32282" lon="5.9897">
        <ele>254</ele>
        <time>2024-08-03T08:32:33Z</time>
      </trkpt>
      <trkpt lat="47.32283" lon="5.98968">
        <ele>254</ele>
        <time>2024-08-03T08:32:34Z</time>
      </trkpt>
      <trkpt lat="47.32282" lon="5.98966">
        <ele>253.8</ele>
        <time>2024-08-03T08:32:35Z</time>
      </trkpt>
      <trkpt lat="47.32281" lon="5.98964">
        <ele>253.8</ele>
        <time>2024-08-03T08:32:36Z</time>
      </trkpt>
      <trkpt lat="47.32279" lon="5.98962">
        <ele>254</ele>
        <time>2024-08-03T08:32:37Z</time>
      </trkpt>
      <trkpt lat="47.32277" lon="5.9896">
        <ele>254</ele>
        <time>2024-08-03T08:32:38Z</time>
      </trkpt>
      <trkpt lat="47.32274" lon="5.98959">
        <ele>254</ele>
        <time>2024-08-03T08:32:39Z</time>
      </trkpt>
      <trkpt lat="47.32271" lon="5.98958">
        <ele>254.2</ele>
        <time>2024-08-03T08:32:40Z</time>
      </trkpt>
      <trkpt lat="47.32268" lon="5.98957">
        <ele>254.2</ele>
        <time>2024-08-03T08:32:41Z</time>
      </trkpt>
      <trkpt lat="47.32266" lon="5.98955">
        <ele>254</ele>
        <time>2024-08-03T08:32:42Z</time>
      </trkpt>
      <trkpt lat="47.32263" lon="5.98954">
        <ele>254</ele>
        <time>2024-08-03T08:32:43Z</time>
      </trkpt>
      <trkpt lat="47.32261" lon="5.98952">
        <ele>254.2</ele>
        <time>2024-08-03T08:32:44Z</time>
      </trkpt>
      <trkpt lat="47.32258" lon="5.98949">
        <ele>254.2</ele>
        <time>2024-08-03T08:32:45Z</time>
      </trkpt>
      <trkpt lat="47.32255" lon="5.98946">
        <ele>254.2</ele>
        <time>2024-08-03T08:32:46Z</time>
      </trkpt>
      <trkpt lat="47.32252" lon="5.98943">
        <ele>254.2</ele>
        <time>2024-08-03T08:32:47Z</time>
      </trkpt>
      <trkpt lat="47.32249" lon="5.98939">
        <ele>254.2</ele>
        <time>2024-08-03T08:32:48Z</time>
      </trkpt>
      <trkpt lat="47.32247" lon="5.98935">
        <ele>254.2</ele>
        <time>2024-08-03T08:32:49Z</time>
      </trkpt>
      <trkpt lat="47.32244" lon="5.98931">
        <ele>254.4</ele>
        <time>2024-08-03T08:32:50Z</time>
      </trkpt>
      <trkpt lat="47.32242" lon="5.98926">
        <ele>254.6</ele>
        <time>2024-08-03T08:32:51Z</time>
      </trkpt>
      <trkpt lat="47.32239" lon="5.98922">
        <ele>254.8</ele>
        <time>2024-08-03T08:32:52Z</time>
      </trkpt>
      <trkpt lat="47.32236" lon="5.98917">
        <ele>255</ele>
        <time>2024-08-03T08:32:53Z</time>
      </trkpt>
      <trkpt lat="47.32234" lon="5.98913">
        <ele>255.2</ele>
        <time>2024-08-03T08:32:54Z</time>
      </trkpt>
      <trkpt lat="47.32231" lon="5.98908">
        <ele>255.2</ele>
        <time>2024-08-03T08:32:55Z</time>
      </trkpt>
      <trkpt lat="47.32228" lon="5.98903">
        <ele>255.2</ele>
        <time>2024-08-03T08:32:56Z</time>
      </trkpt>
      <trkpt lat="47.32225" lon="5.98898">
        <ele>255.4</ele>
        <time>2024-08-03T08:32:57Z</time>
      </trkpt>
      <trkpt lat="47.32223" lon="5.98893">
        <ele>255.6</ele>
        <time>2024-08-03T08:32:58Z</time>
      </trkpt>
      <trkpt lat="47.32219" lon="5.98889">
        <ele>255.8</ele>
        <time>2024-08-03T08:32:59Z</time>
      </trkpt>
      <trkpt lat="47.32216" lon="5.98884">
        <ele>255.8</ele>
        <time>2024-08-03T08:33:00Z</time>
      </trkpt>
      <trkpt lat="47.32213" lon="5.98879">
        <ele>255.8</ele>
        <time>2024-08-03T08:33:01Z</time>
      </trkpt>
      <trkpt lat="47.3221" lon="5.98874">
        <ele>256.2</ele>
        <time>2024-08-03T08:33:02Z</time>
      </trkpt>
      <trkpt lat="47.32206" lon="5.9887">
        <ele>256.4</ele>
        <time>2024-08-03T08:33:03Z</time>
      </trkpt>
      <trkpt lat="47.32203" lon="5.98864">
        <ele>256.4</ele>
        <time>2024-08-03T08:33:04Z</time>
      </trkpt>
      <trkpt lat="47.322" lon="5.98859">
        <ele>256.4</ele>
        <time>2024-08-03T08:33:05Z</time>
      </trkpt>
      <trkpt lat="47.32196" lon="5.98854">
        <ele>256.6</ele>
        <time>2024-08-03T08:33:06Z</time>
      </trkpt>
      <trkpt lat="47.32192" lon="5.98848">
        <ele>256.6</ele>
        <time>2024-08-03T08:33:07Z</time>
      </trkpt>
      <trkpt lat="47.32188" lon="5.98842">
        <ele>256.8</ele>
        <time>2024-08-03T08:33:08Z</time>
      </trkpt>
      <trkpt lat="47.32184" lon="5.98836">
        <ele>256.8</ele>
        <time>2024-08-03T08:33:09Z</time>
      </trkpt>
      <trkpt lat="47.3218" lon="5.9883">
        <ele>256.8</ele>
        <time>2024-08-03T08:33:10Z</time>
      </trkpt>
      <trkpt lat="47.32176" lon="5.98823">
        <ele>256.8</ele>
        <time>2024-08-03T08:33:11Z</time>
      </trkpt>
      <trkpt lat="47.32171" lon="5.98817">
        <ele>256.8</ele>
        <time>2024-08-03T08:33:12Z</time>
      </trkpt>
      <trkpt lat="47.32167" lon="5.9881">
        <ele>257</ele>
        <time>2024-08-03T08:33:13Z</time>
      </trkpt>
      <trkpt lat="47.32163" lon="5.98804">
        <ele>257</ele>
        <time>2024-08-03T08:33:14Z</time>
      </trkpt>
      <trkpt lat="47.32158" lon="5.98797">
        <ele>257</ele>
        <time>2024-08-03T08:33:15Z</time>
      </trkpt>
      <trkpt lat="47.32154" lon="5.98791">
        <ele>256.8</ele>
        <time>2024-08-03T08:33:16Z</time>
      </trkpt>
      <trkpt lat="47.32149" lon="5.98785">
        <ele>256.8</ele>
        <time>2024-08-03T08:33:17Z</time>
      </trkpt>
      <trkpt lat="47.32145" lon="5.98779">
        <ele>256.8</ele>
        <time>2024-08-03T08:33:18Z</time>
      </trkpt>
      <trkpt lat="47.3214" lon="5.98772">
        <ele>256.6</ele>
        <time>2024-08-03T08:33:19Z</time>
      </trkpt>
      <trkpt lat="47.32136" lon="5.98766">
        <ele>256.6</ele>
        <time>2024-08-03T08:33:20Z</time>
      </trkpt>
      <trkpt lat="47.32131" lon="5.9876">
        <ele>256.4</ele>
        <time>2024-08-03T08:33:21Z</time>
      </trkpt>
      <trkpt lat="47.32126" lon="5.98753">
        <ele>256.4</ele>
        <time>2024-08-03T08:33:22Z</time>
      </trkpt>
      <trkpt lat="47.32121" lon="5.98746">
        <ele>256.2</ele>
        <time>2024-08-03T08:33:23Z</time>
      </trkpt>
      <trkpt lat="47.32117" lon="5.9874">
        <ele>256.2</ele>
        <time>2024-08-03T08:33:24Z</time>
      </trkpt>
      <trkpt lat="47.32113" lon="5.98733">
        <ele>256.2</ele>
        <time>2024-08-03T08:33:25Z</time>
      </trkpt>
      <trkpt lat="47.32108" lon="5.98727">
        <ele>256.2</ele>
        <time>2024-08-03T08:33:26Z</time>
      </trkpt>
      <trkpt lat="47.32103" lon="5.9872">
        <ele>256.2</ele>
        <time>2024-08-03T08:33:27Z</time>
      </trkpt>
      <trkpt lat="47.32099" lon="5.98713">
        <ele>256</ele>
        <time>2024-08-03T08:33:28Z</time>
      </trkpt>
      <trkpt lat="47.32094" lon="5.98706">
        <ele>256</ele>
        <time>2024-08-03T08:33:29Z</time>
      </trkpt>
      <trkpt lat="47.32089" lon="5.98699">
        <ele>255.8</ele>
        <time>2024-08-03T08:33:30Z</time>
      </trkpt>
      <trkpt lat="47.32085" lon="5.98691">
        <ele>255.6</ele>
        <time>2024-08-03T08:33:31Z</time>
      </trkpt>
      <trkpt lat="47.3208" lon="5.98684">
        <ele>255.6</ele>
        <time>2024-08-03T08:33:32Z</time>
      </trkpt>
      <trkpt lat="47.32075" lon="5.98676">
        <ele>255.4</ele>
        <time>2024-08-03T08:33:33Z</time>
      </trkpt>
      <trkpt lat="47.3207" lon="5.98668">
        <ele>255.2</ele>
        <time>2024-08-03T08:33:34Z</time>
      </trkpt>
      <trkpt lat="47.32066" lon="5.98661">
        <ele>255.2</ele>
        <time>2024-08-03T08:33:35Z</time>
      </trkpt>
      <trkpt lat="47.32061" lon="5.98653">
        <ele>255.2</ele>
        <time>2024-08-03T08:33:36Z</time>
      </trkpt>
      <trkpt lat="47.32056" lon="5.98645">
        <ele>255.2</ele>
        <time>2024-08-03T08:33:37Z</time>
      </trkpt>
      <trkpt lat="47.32051" lon="5.98637">
        <ele>255</ele>
        <time>2024-08-03T08:33:38Z</time>
      </trkpt>
      <trkpt lat="47.32047" lon="5.9863">
        <ele>254.8</ele>
        <time>2024-08-03T08:33:39Z</time>
      </trkpt>
      <trkpt lat="47.32042" lon="5.98622">
        <ele>254.6</ele>
        <time>2024-08-03T08:33:40Z</time>
      </trkpt>
      <trkpt lat="47.32037" lon="5.98615">
        <ele>254.4</ele>
        <time>2024-08-03T08:33:41Z</time>
      </trkpt>
      <trkpt lat="47.32033" lon="5.98608">
        <ele>254.4</ele>
        <time>2024-08-03T08:33:42Z</time>
      </trkpt>
      <trkpt lat="47.32028" lon="5.986">
        <ele>254.4</ele>
        <time>2024-08-03T08:33:43Z</time>
      </trkpt>
      <trkpt lat="47.32024" lon="5.98593">
        <ele>254.4</ele>
        <time>2024-08-03T08:33:44Z</time>
      </trkpt>
      <trkpt lat="47.32019" lon="5.98585">
        <ele>254.2</ele>
        <time>2024-08-03T08:33:45Z</time>
      </trkpt>
      <trkpt lat="47.32015" lon="5.98578">
        <ele>254.4</ele>
        <time>2024-08-03T08:33:46Z</time>
      </trkpt>
      <trkpt lat="47.3201" lon="5.9857">
        <ele>254.2</ele>
        <time>2024-08-03T08:33:47Z</time>
      </trkpt>
      <trkpt lat="47.32006" lon="5.98563">
        <ele>254.2</ele>
        <time>2024-08-03T08:33:48Z</time>
      </trkpt>
      <trkpt lat="47.32001" lon="5.98555">
        <ele>254.2</ele>
        <time>2024-08-03T08:33:49Z</time>
      </trkpt>
      <trkpt lat="47.31996" lon="5.98547">
        <ele>254.2</ele>
        <time>2024-08-03T08:33:50Z</time>
      </trkpt>
      <trkpt lat="47.31991" lon="5.98539">
        <ele>254</ele>
        <time>2024-08-03T08:33:51Z</time>
      </trkpt>
      <trkpt lat="47.31987" lon="5.98531">
        <ele>254.2</ele>
        <time>2024-08-03T08:33:52Z</time>
      </trkpt>
      <trkpt lat="47.31982" lon="5.98523">
        <ele>254</ele>
        <time>2024-08-03T08:33:53Z</time>
      </trkpt>
      <trkpt lat="47.31977" lon="5.98515">
        <ele>254</ele>
        <time>2024-08-03T08:33:54Z</time>
      </trkpt>
      <trkpt lat="47.31973" lon="5.98507">
        <ele>254</ele>
        <time>2024-08-03T08:33:55Z</time>
      </trkpt>
      <trkpt lat="47.31968" lon="5.98499">
        <ele>254</ele>
        <time>2024-08-03T08:33:56Z</time>
      </trkpt>
      <trkpt lat="47.31963" lon="5.98491">
        <ele>253.8</ele>
        <time>2024-08-03T08:33:57Z</time>
      </trkpt>
      <trkpt lat="47.31958" lon="5.98483">
        <ele>253.6</ele>
        <time>2024-08-03T08:33:58Z</time>
      </trkpt>
      <trkpt lat="47.31953" lon="5.98475">
        <ele>253.2</ele>
        <time>2024-08-03T08:33:59Z</time>
      </trkpt>
      <trkpt lat="47.31948" lon="5.98466">
        <ele>253.2</ele>
        <time>2024-08-03T08:34:00Z</time>
      </trkpt>
      <trkpt lat="47.31943" lon="5.98458">
        <ele>253.2</ele>
        <time>2024-08-03T08:34:01Z</time>
      </trkpt>
      <trkpt lat="47.31938" lon="5.98449">
        <ele>252.8</ele>
        <time>2024-08-03T08:34:02Z</time>
      </trkpt>
      <trkpt lat="47.31933" lon="5.98441">
        <ele>252.4</ele>
        <time>2024-08-03T08:34:03Z</time>
      </trkpt>
      <trkpt lat="47.31927" lon="5.98433">
        <ele>252.6</ele>
        <time>2024-08-03T08:34:04Z</time>
      </trkpt>
      <trkpt lat="47.31922" lon="5.98424">
        <ele>252.2</ele>
        <time>2024-08-03T08:34:05Z</time>
      </trkpt>
      <trkpt lat="47.31917" lon="5.98416">
        <ele>252.2</ele>
        <time>2024-08-03T08:34:06Z</time>
      </trkpt>
      <trkpt lat="47.31912" lon="5.98408">
        <ele>252.2</ele>
        <time>2024-08-03T08:34:07Z</time>
      </trkpt>
      <trkpt lat="47.31906" lon="5.984">
        <ele>252</ele>
        <time>2024-08-03T08:34:08Z</time>
      </trkpt>
      <trkpt lat="47.31901" lon="5.98391">
        <ele>251.6</ele>
        <time>2024-08-03T08:34:09Z</time>
      </trkpt>
      <trkpt lat="47.31896" lon="5.98383">
        <ele>251.4</ele>
        <time>2024-08-03T08:34:10Z</time>
      </trkpt>
      <trkpt lat="47.31891" lon="5.98374">
        <ele>251.4</ele>
        <time>2024-08-03T08:34:11Z</time>
      </trkpt>
      <trkpt lat="47.31886" lon="5.98366">
        <ele>251.4</ele>
        <time>2024-08-03T08:34:12Z</time>
      </trkpt>
      <trkpt lat="47.31881" lon="5.98357">
        <ele>251</ele>
        <time>2024-08-03T08:34:13Z</time>
      </trkpt>
      <trkpt lat="47.31876" lon="5.98347">
        <ele>250.6</ele>
        <time>2024-08-03T08:34:14Z</time>
      </trkpt>
      <trkpt lat="47.31872" lon="5.98338">
        <ele>250.4</ele>
        <time>2024-08-03T08:34:15Z</time>
      </trkpt>
      <trkpt lat="47.31868" lon="5.98328">
        <ele>250.2</ele>
        <time>2024-08-03T08:34:16Z</time>
      </trkpt>
      <trkpt lat="47.31863" lon="5.98318">
        <ele>250</ele>
        <time>2024-08-03T08:34:17Z</time>
      </trkpt>
      <trkpt lat="47.31859" lon="5.98308">
        <ele>249.6</ele>
        <time>2024-08-03T08:34:18Z</time>
      </trkpt>
      <trkpt lat="47.31854" lon="5.98299">
        <ele>249.2</ele>
        <time>2024-08-03T08:34:19Z</time>
      </trkpt>
      <trkpt lat="47.3185" lon="5.98289">
        <ele>249</ele>
        <time>2024-08-03T08:34:20Z</time>
      </trkpt>
      <trkpt lat="47.31846" lon="5.98279">
        <ele>248.6</ele>
        <time>2024-08-03T08:34:21Z</time>
      </trkpt>
      <trkpt lat="47.31841" lon="5.98269">
        <ele>248.4</ele>
        <time>2024-08-03T08:34:22Z</time>
      </trkpt>
      <trkpt lat="47.31837" lon="5.98259">
        <ele>248.2</ele>
        <time>2024-08-03T08:34:23Z</time>
      </trkpt>
      <trkpt lat="47.31833" lon="5.98249">
        <ele>248</ele>
        <time>2024-08-03T08:34:24Z</time>
      </trkpt>
      <trkpt lat="47.31829" lon="5.98239">
        <ele>248</ele>
        <time>2024-08-03T08:34:25Z</time>
      </trkpt>
      <trkpt lat="47.31825" lon="5.98229">
        <ele>247.4</ele>
        <time>2024-08-03T08:34:26Z</time>
      </trkpt>
      <trkpt lat="47.31821" lon="5.98221">
        <ele>247.2</ele>
        <time>2024-08-03T08:34:27Z</time>
      </trkpt>
      <trkpt lat="47.31818" lon="5.98214">
        <ele>247</ele>
        <time>2024-08-03T08:34:28Z</time>
      </trkpt>
      <trkpt lat="47.31816" lon="5.98209">
        <ele>246.6</ele>
        <time>2024-08-03T08:34:29Z</time>
      </trkpt>
      <trkpt lat="47.31814" lon="5.98205">
        <ele>246.2</ele>
        <time>2024-08-03T08:34:30Z</time>
      </trkpt>
      <trkpt lat="47.31812" lon="5.98202">
        <ele>245.6</ele>
        <time>2024-08-03T08:34:31Z</time>
      </trkpt>
      <trkpt lat="47.31811" lon="5.98198">
        <ele>245.2</ele>
        <time>2024-08-03T08:34:32Z</time>
      </trkpt>
      <trkpt lat="47.31809" lon="5.98194">
        <ele>245.2</ele>
        <time>2024-08-03T08:34:33Z</time>
      </trkpt>
      <trkpt lat="47.31808" lon="5.98189">
        <ele>245</ele>
        <time>2024-08-03T08:34:34Z</time>
      </trkpt>
      <trkpt lat="47.31807" lon="5.98184">
        <ele>244.6</ele>
        <time>2024-08-03T08:34:35Z</time>
      </trkpt>
      <trkpt lat="47.31808" lon="5.98177">
        <ele>244.2</ele>
        <time>2024-08-03T08:34:36Z</time>
      </trkpt>
      <trkpt lat="47.3181" lon="5.98171">
        <ele>243.6</ele>
        <time>2024-08-03T08:34:37Z</time>
      </trkpt>
      <trkpt lat="47.31813" lon="5.98166">
        <ele>243.4</ele>
        <time>2024-08-03T08:34:38Z</time>
      </trkpt>
      <trkpt lat="47.31817" lon="5.9816">
        <ele>243.4</ele>
        <time>2024-08-03T08:34:39Z</time>
      </trkpt>
      <trkpt lat="47.3182" lon="5.98155">
        <ele>243.4</ele>
        <time>2024-08-03T08:34:40Z</time>
      </trkpt>
      <trkpt lat="47.31821" lon="5.98148">
        <ele>243.2</ele>
        <time>2024-08-03T08:34:41Z</time>
      </trkpt>
      <trkpt lat="47.31821" lon="5.98142">
        <ele>243.4</ele>
        <time>2024-08-03T08:34:42Z</time>
      </trkpt>
      <trkpt lat="47.3182" lon="5.98136">
        <ele>243.2</ele>
        <time>2024-08-03T08:34:43Z</time>
      </trkpt>
      <trkpt lat="47.31819" lon="5.98129">
        <ele>243</ele>
        <time>2024-08-03T08:34:44Z</time>
      </trkpt>
      <trkpt lat="47.31817" lon="5.98122">
        <ele>243</ele>
        <time>2024-08-03T08:34:45Z</time>
      </trkpt>
      <trkpt lat="47.31816" lon="5.98115">
        <ele>242.6</ele>
        <time>2024-08-03T08:34:46Z</time>
      </trkpt>
      <trkpt lat="47.31817" lon="5.98107">
        <ele>242.4</ele>
        <time>2024-08-03T08:34:47Z</time>
      </trkpt>
      <trkpt lat="47.31818" lon="5.98099">
        <ele>242.2</ele>
        <time>2024-08-03T08:34:48Z</time>
      </trkpt>
      <trkpt lat="47.31819" lon="5.9809">
        <ele>242</ele>
        <time>2024-08-03T08:34:49Z</time>
      </trkpt>
      <trkpt lat="47.3182" lon="5.98082">
        <ele>241.6</ele>
        <time>2024-08-03T08:34:50Z</time>
      </trkpt>
      <trkpt lat="47.3182" lon="5.98074">
        <ele>241.4</ele>
        <time>2024-08-03T08:34:51Z</time>
      </trkpt>
      <trkpt lat="47.3182" lon="5.98067">
        <ele>241.2</ele>
        <time>2024-08-03T08:34:52Z</time>
      </trkpt>
      <trkpt lat="47.3182" lon="5.98062">
        <ele>241.2</ele>
        <time>2024-08-03T08:34:53Z</time>
      </trkpt>
      <trkpt lat="47.3182" lon="5.98056">
        <ele>241</ele>
        <time>2024-08-03T08:34:54Z</time>
      </trkpt>
      <trkpt lat="47.3182" lon="5.98051">
        <ele>241</ele>
        <time>2024-08-03T08:34:55Z</time>
      </trkpt>
      <trkpt lat="47.31821" lon="5.98046">
        <ele>241</ele>
        <time>2024-08-03T08:34:56Z</time>
      </trkpt>
      <trkpt lat="47.31822" lon="5.98042">
        <ele>240.8</ele>
        <time>2024-08-03T08:34:57Z</time>
      </trkpt>
      <trkpt lat="47.31824" lon="5.98039">
        <ele>240.8</ele>
        <time>2024-08-03T08:34:58Z</time>
      </trkpt>
      <trkpt lat="47.31825" lon="5.98036">
        <ele>240.8</ele>
        <time>2024-08-03T08:34:59Z</time>
      </trkpt>
      <trkpt lat="47.31827" lon="5.98033">
        <ele>240.8</ele>
        <time>2024-08-03T08:35:00Z</time>
      </trkpt>
      <trkpt lat="47.31829" lon="5.98031">
        <ele>240.8</ele>
        <time>2024-08-03T08:35:01Z</time>
      </trkpt>
      <trkpt lat="47.31832" lon="5.98029">
        <ele>240.8</ele>
        <time>2024-08-03T08:35:02Z</time>
      </trkpt>
      <trkpt lat="47.31834" lon="5.98027">
        <ele>240.6</ele>
        <time>2024-08-03T08:35:03Z</time>
      </trkpt>
      <trkpt lat="47.31838" lon="5.98024">
        <ele>240.6</ele>
        <time>2024-08-03T08:35:04Z</time>
      </trkpt>
      <trkpt lat="47.31841" lon="5.98022">
        <ele>240.8</ele>
        <time>2024-08-03T08:35:05Z</time>
      </trkpt>
      <trkpt lat="47.31845" lon="5.9802">
        <ele>240.8</ele>
        <time>2024-08-03T08:35:06Z</time>
      </trkpt>
      <trkpt lat="47.31849" lon="5.98018">
        <ele>240.6</ele>
        <time>2024-08-03T08:35:07Z</time>
      </trkpt>
      <trkpt lat="47.31854" lon="5.98017">
        <ele>240.6</ele>
        <time>2024-08-03T08:35:08Z</time>
      </trkpt>
      <trkpt lat="47.31858" lon="5.98014">
        <ele>240.6</ele>
        <time>2024-08-03T08:35:09Z</time>
      </trkpt>
      <trkpt lat="47.31863" lon="5.98011">
        <ele>240.8</ele>
        <time>2024-08-03T08:35:10Z</time>
      </trkpt>
      <trkpt lat="47.31868" lon="5.98009">
        <ele>240.6</ele>
        <time>2024-08-03T08:35:11Z</time>
      </trkpt>
      <trkpt lat="47.31874" lon="5.98006">
        <ele>240.6</ele>
        <time>2024-08-03T08:35:12Z</time>
      </trkpt>
      <trkpt lat="47.31879" lon="5.98004">
        <ele>240.6</ele>
        <time>2024-08-03T08:35:13Z</time>
      </trkpt>
      <trkpt lat="47.31885" lon="5.98001">
        <ele>240.8</ele>
        <time>2024-08-03T08:35:14Z</time>
      </trkpt>
      <trkpt lat="47.31891" lon="5.97999">
        <ele>240.8</ele>
        <time>2024-08-03T08:35:15Z</time>
      </trkpt>
      <trkpt lat="47.31897" lon="5.97996">
        <ele>240.6</ele>
        <time>2024-08-03T08:35:16Z</time>
      </trkpt>
      <trkpt lat="47.31904" lon="5.97995">
        <ele>240.6</ele>
        <time>2024-08-03T08:35:17Z</time>
      </trkpt>
      <trkpt lat="47.31909" lon="5.97991">
        <ele>240.8</ele>
        <time>2024-08-03T08:35:18Z</time>
      </trkpt>
      <trkpt lat="47.31915" lon="5.97988">
        <ele>240.8</ele>
        <time>2024-08-03T08:35:19Z</time>
      </trkpt>
      <trkpt lat="47.31922" lon="5.97986">
        <ele>240.6</ele>
        <time>2024-08-03T08:35:20Z</time>
      </trkpt>
      <trkpt lat="47.31929" lon="5.97984">
        <ele>240.6</ele>
        <time>2024-08-03T08:35:21Z</time>
      </trkpt>
      <trkpt lat="47.31934" lon="5.97981">
        <ele>240.6</ele>
        <time>2024-08-03T08:35:22Z</time>
      </trkpt>
      <trkpt lat="47.3194" lon="5.97978">
        <ele>240.6</ele>
        <time>2024-08-03T08:35:23Z</time>
      </trkpt>
      <trkpt lat="47.31946" lon="5.97975">
        <ele>240.8</ele>
        <time>2024-08-03T08:35:24Z</time>
      </trkpt>
      <trkpt lat="47.31952" lon="5.97972">
        <ele>240.6</ele>
        <time>2024-08-03T08:35:25Z</time>
      </trkpt>
      <trkpt lat="47.31958" lon="5.9797">
        <ele>240.8</ele>
        <time>2024-08-03T08:35:26Z</time>
      </trkpt>
      <trkpt lat="47.31964" lon="5.97968">
        <ele>240.6</ele>
        <time>2024-08-03T08:35:27Z</time>
      </trkpt>
      <trkpt lat="47.3197" lon="5.97965">
        <ele>240.6</ele>
        <time>2024-08-03T08:35:28Z</time>
      </trkpt>
      <trkpt lat="47.31976" lon="5.97962">
        <ele>240.8</ele>
        <time>2024-08-03T08:35:29Z</time>
      </trkpt>
      <trkpt lat="47.31982" lon="5.9796">
        <ele>240.6</ele>
        <time>2024-08-03T08:35:30Z</time>
      </trkpt>
      <trkpt lat="47.31988" lon="5.97958">
        <ele>240.6</ele>
        <time>2024-08-03T08:35:31Z</time>
      </trkpt>
      <trkpt lat="47.31994" lon="5.97956">
        <ele>240.6</ele>
        <time>2024-08-03T08:35:32Z</time>
      </trkpt>
      <trkpt lat="47.32" lon="5.97954">
        <ele>240.6</ele>
        <time>2024-08-03T08:35:33Z</time>
      </trkpt>
      <trkpt lat="47.32005" lon="5.97951">
        <ele>240.6</ele>
        <time>2024-08-03T08:35:34Z</time>
      </trkpt>
      <trkpt lat="47.32011" lon="5.97949">
        <ele>240.6</ele>
        <time>2024-08-03T08:35:35Z</time>
      </trkpt>
      <trkpt lat="47.32016" lon="5.97946">
        <ele>240.4</ele>
        <time>2024-08-03T08:35:36Z</time>
      </trkpt>
      <trkpt lat="47.32022" lon="5.97943">
        <ele>240.4</ele>
        <time>2024-08-03T08:35:37Z</time>
      </trkpt>
      <trkpt lat="47.32027" lon="5.9794">
        <ele>240.4</ele>
        <time>2024-08-03T08:35:38Z</time>
      </trkpt>
      <trkpt lat="47.32033" lon="5.97938">
        <ele>240.4</ele>
        <time>2024-08-03T08:35:39Z</time>
      </trkpt>
      <trkpt lat="47.32039" lon="5.97935">
        <ele>240.4</ele>
        <time>2024-08-03T08:35:40Z</time>
      </trkpt>
      <trkpt lat="47.32045" lon="5.97932">
        <ele>240.2</ele>
        <time>2024-08-03T08:35:41Z</time>
      </trkpt>
      <trkpt lat="47.3205" lon="5.97929">
        <ele>240</ele>
        <time>2024-08-03T08:35:42Z</time>
      </trkpt>
      <trkpt lat="47.32056" lon="5.97926">
        <ele>240</ele>
        <time>2024-08-03T08:35:43Z</time>
      </trkpt>
      <trkpt lat="47.32062" lon="5.97924">
        <ele>239.8</ele>
        <time>2024-08-03T08:35:44Z</time>
      </trkpt>
      <trkpt lat="47.32068" lon="5.97921">
        <ele>239.8</ele>
        <time>2024-08-03T08:35:45Z</time>
      </trkpt>
      <trkpt lat="47.32073" lon="5.97918">
        <ele>239.6</ele>
        <time>2024-08-03T08:35:46Z</time>
      </trkpt>
      <trkpt lat="47.32079" lon="5.97916">
        <ele>239.6</ele>
        <time>2024-08-03T08:35:47Z</time>
      </trkpt>
      <trkpt lat="47.32085" lon="5.97914">
        <ele>239.4</ele>
        <time>2024-08-03T08:35:48Z</time>
      </trkpt>
      <trkpt lat="47.3209" lon="5.97911">
        <ele>239.4</ele>
        <time>2024-08-03T08:35:49Z</time>
      </trkpt>
      <trkpt lat="47.32095" lon="5.9791">
        <ele>239.2</ele>
        <time>2024-08-03T08:35:50Z</time>
      </trkpt>
      <trkpt lat="47.32099" lon="5.97909">
        <ele>239.2</ele>
        <time>2024-08-03T08:35:51Z</time>
      </trkpt>
      <trkpt lat="47.32104" lon="5.97908">
        <ele>239.2</ele>
        <time>2024-08-03T08:35:52Z</time>
      </trkpt>
      <trkpt lat="47.32107" lon="5.97909">
        <ele>239</ele>
        <time>2024-08-03T08:35:53Z</time>
      </trkpt>
      <trkpt lat="47.3211" lon="5.9791">
        <ele>239</ele>
        <time>2024-08-03T08:35:54Z</time>
      </trkpt>
      <trkpt lat="47.32113" lon="5.97912">
        <ele>238.8</ele>
        <time>2024-08-03T08:35:55Z</time>
      </trkpt>
      <trkpt lat="47.32115" lon="5.97913">
        <ele>238.6</ele>
        <time>2024-08-03T08:35:56Z</time>
      </trkpt>
      <trkpt lat="47.32117" lon="5.97914">
        <ele>238.6</ele>
        <time>2024-08-03T08:35:57Z</time>
      </trkpt>
      <trkpt lat="47.32118" lon="5.97915">
        <ele>238.6</ele>
        <time>2024-08-03T08:35:58Z</time>
      </trkpt>
      <trkpt lat="47.32119" lon="5.9792">
        <ele>238.2</ele>
        <time>2024-08-03T08:35:59Z</time>
      </trkpt>
      <trkpt lat="47.32119" lon="5.97924">
        <ele>238.4</ele>
        <time>2024-08-03T08:36:00Z</time>
      </trkpt>
      <trkpt lat="47.3212" lon="5.97929">
        <ele>238.4</ele>
        <time>2024-08-03T08:36:01Z</time>
      </trkpt>
      <trkpt lat="47.32122" lon="5.97935">
        <ele>238.2</ele>
        <time>2024-08-03T08:36:02Z</time>
      </trkpt>
      <trkpt lat="47.32124" lon="5.9794">
        <ele>238.2</ele>
        <time>2024-08-03T08:36:03Z</time>
      </trkpt>
      <trkpt lat="47.32126" lon="5.97945">
        <ele>238.2</ele>
        <time>2024-08-03T08:36:04Z</time>
      </trkpt>
      <trkpt lat="47.32129" lon="5.9795">
        <ele>238.2</ele>
        <time>2024-08-03T08:36:05Z</time>
      </trkpt>
      <trkpt lat="47.32133" lon="5.97955">
        <ele>238.2</ele>
        <time>2024-08-03T08:36:06Z</time>
      </trkpt>
      <trkpt lat="47.32137" lon="5.97958">
        <ele>238</ele>
        <time>2024-08-03T08:36:07Z</time>
      </trkpt>
      <trkpt lat="47.32141" lon="5.97962">
        <ele>238</ele>
        <time>2024-08-03T08:36:08Z</time>
      </trkpt>
      <trkpt lat="47.32145" lon="5.97964">
        <ele>238.2</ele>
        <time>2024-08-03T08:36:09Z</time>
      </trkpt>
      <trkpt lat="47.3215" lon="5.97966">
        <ele>238.2</ele>
        <time>2024-08-03T08:36:10Z</time>
      </trkpt>
      <trkpt lat="47.32155" lon="5.97967">
        <ele>238.2</ele>
        <time>2024-08-03T08:36:11Z</time>
      </trkpt>
      <trkpt lat="47.3216" lon="5.97968">
        <ele>238.4</ele>
        <time>2024-08-03T08:36:12Z</time>
      </trkpt>
      <trkpt lat="47.32166" lon="5.97969">
        <ele>238.4</ele>
        <time>2024-08-03T08:36:13Z</time>
      </trkpt>
      <trkpt lat="47.32171" lon="5.97969">
        <ele>238.6</ele>
        <time>2024-08-03T08:36:14Z</time>
      </trkpt>
      <trkpt lat="47.32176" lon="5.97968">
        <ele>238.6</ele>
        <time>2024-08-03T08:36:15Z</time>
      </trkpt>
      <trkpt lat="47.32181" lon="5.97967">
        <ele>238.8</ele>
        <time>2024-08-03T08:36:16Z</time>
      </trkpt>
      <trkpt lat="47.32186" lon="5.97965">
        <ele>238.8</ele>
        <time>2024-08-03T08:36:17Z</time>
      </trkpt>
      <trkpt lat="47.32192" lon="5.97963">
        <ele>238.8</ele>
        <time>2024-08-03T08:36:18Z</time>
      </trkpt>
      <trkpt lat="47.32197" lon="5.97961">
        <ele>239</ele>
        <time>2024-08-03T08:36:19Z</time>
      </trkpt>
      <trkpt lat="47.32202" lon="5.97959">
        <ele>239</ele>
        <time>2024-08-03T08:36:20Z</time>
      </trkpt>
      <trkpt lat="47.32207" lon="5.97956">
        <ele>239.2</ele>
        <time>2024-08-03T08:36:21Z</time>
      </trkpt>
      <trkpt lat="47.32212" lon="5.97954">
        <ele>239.4</ele>
        <time>2024-08-03T08:36:22Z</time>
      </trkpt>
      <trkpt lat="47.32217" lon="5.97951">
        <ele>239.4</ele>
        <time>2024-08-03T08:36:23Z</time>
      </trkpt>
      <trkpt lat="47.32222" lon="5.97948">
        <ele>239.2</ele>
        <time>2024-08-03T08:36:24Z</time>
      </trkpt>
      <trkpt lat="47.32227" lon="5.97945">
        <ele>239.4</ele>
        <time>2024-08-03T08:36:25Z</time>
      </trkpt>
      <trkpt lat="47.32232" lon="5.97942">
        <ele>239.4</ele>
        <time>2024-08-03T08:36:26Z</time>
      </trkpt>
      <trkpt lat="47.32237" lon="5.97939">
        <ele>239.4</ele>
        <time>2024-08-03T08:36:27Z</time>
      </trkpt>
      <trkpt lat="47.32241" lon="5.97936">
        <ele>239.4</ele>
        <time>2024-08-03T08:36:28Z</time>
      </trkpt>
      <trkpt lat="47.32246" lon="5.97933">
        <ele>239.4</ele>
        <time>2024-08-03T08:36:29Z</time>
      </trkpt>
      <trkpt lat="47.32251" lon="5.97931">
        <ele>239.4</ele>
        <time>2024-08-03T08:36:30Z</time>
      </trkpt>
      <trkpt lat="47.32255" lon="5.97928">
        <ele>239.4</ele>
        <time>2024-08-03T08:36:31Z</time>
      </trkpt>
      <trkpt lat="47.3226" lon="5.97926">
        <ele>239.4</ele>
        <time>2024-08-03T08:36:32Z</time>
      </trkpt>
      <trkpt lat="47.32265" lon="5.97924">
        <ele>239.6</ele>
        <time>2024-08-03T08:36:33Z</time>
      </trkpt>
      <trkpt lat="47.3227" lon="5.97922">
        <ele>239.4</ele>
        <time>2024-08-03T08:36:34Z</time>
      </trkpt>
      <trkpt lat="47.32275" lon="5.97919">
        <ele>239.4</ele>
        <time>2024-08-03T08:36:35Z</time>
      </trkpt>
      <trkpt lat="47.3228" lon="5.97917">
        <ele>239.2</ele>
        <time>2024-08-03T08:36:36Z</time>
      </trkpt>
      <trkpt lat="47.32284" lon="5.97913">
        <ele>239.2</ele>
        <time>2024-08-03T08:36:37Z</time>
      </trkpt>
      <trkpt lat="47.32289" lon="5.9791">
        <ele>239</ele>
        <time>2024-08-03T08:36:38Z</time>
      </trkpt>
      <trkpt lat="47.32293" lon="5.97907">
        <ele>239</ele>
        <time>2024-08-03T08:36:39Z</time>
      </trkpt>
      <trkpt lat="47.32298" lon="5.97904">
        <ele>238.8</ele>
        <time>2024-08-03T08:36:40Z</time>
      </trkpt>
      <trkpt lat="47.32303" lon="5.97902">
        <ele>238.8</ele>
        <time>2024-08-03T08:36:41Z</time>
      </trkpt>
      <trkpt lat="47.32308" lon="5.97899">
        <ele>238.8</ele>
        <time>2024-08-03T08:36:42Z</time>
      </trkpt>
      <trkpt lat="47.32313" lon="5.97897">
        <ele>239</ele>
        <time>2024-08-03T08:36:43Z</time>
      </trkpt>
      <trkpt lat="47.32318" lon="5.97895">
        <ele>238.8</ele>
        <time>2024-08-03T08:36:44Z</time>
      </trkpt>
      <trkpt lat="47.32324" lon="5.97893">
        <ele>238.8</ele>
        <time>2024-08-03T08:36:45Z</time>
      </trkpt>
      <trkpt lat="47.3233" lon="5.97891">
        <ele>238.6</ele>
        <time>2024-08-03T08:36:46Z</time>
      </trkpt>
      <trkpt lat="47.32335" lon="5.9789">
        <ele>238.6</ele>
        <time>2024-08-03T08:36:47Z</time>
      </trkpt>
      <trkpt lat="47.32341" lon="5.9789">
        <ele>238.4</ele>
        <time>2024-08-03T08:36:48Z</time>
      </trkpt>
      <trkpt lat="47.32346" lon="5.97888">
        <ele>238.4</ele>
        <time>2024-08-03T08:36:49Z</time>
      </trkpt>
      <trkpt lat="47.32351" lon="5.97886">
        <ele>238.4</ele>
        <time>2024-08-03T08:36:50Z</time>
      </trkpt>
      <trkpt lat="47.32356" lon="5.97884">
        <ele>238</ele>
        <time>2024-08-03T08:36:51Z</time>
      </trkpt>
      <trkpt lat="47.32361" lon="5.97881">
        <ele>237.8</ele>
        <time>2024-08-03T08:36:52Z</time>
      </trkpt>
      <trkpt lat="47.32366" lon="5.97878">
        <ele>237.8</ele>
        <time>2024-08-03T08:36:53Z</time>
      </trkpt>
      <trkpt lat="47.3237" lon="5.97875">
        <ele>237.8</ele>
        <time>2024-08-03T08:36:54Z</time>
      </trkpt>
      <trkpt lat="47.32376" lon="5.97871">
        <ele>237.6</ele>
        <time>2024-08-03T08:36:55Z</time>
      </trkpt>
      <trkpt lat="47.32381" lon="5.97868">
        <ele>237.4</ele>
        <time>2024-08-03T08:36:56Z</time>
      </trkpt>
      <trkpt lat="47.32387" lon="5.97865">
        <ele>237.4</ele>
        <time>2024-08-03T08:36:57Z</time>
      </trkpt>
      <trkpt lat="47.32393" lon="5.97862">
        <ele>237.4</ele>
        <time>2024-08-03T08:36:58Z</time>
      </trkpt>
      <trkpt lat="47.32399" lon="5.9786">
        <ele>237.4</ele>
        <time>2024-08-03T08:36:59Z</time>
      </trkpt>
      <trkpt lat="47.32404" lon="5.97857">
        <ele>237.4</ele>
        <time>2024-08-03T08:37:00Z</time>
      </trkpt>
      <trkpt lat="47.32409" lon="5.97854">
        <ele>237.2</ele>
        <time>2024-08-03T08:37:01Z</time>
      </trkpt>
      <trkpt lat="47.32414" lon="5.97851">
        <ele>237.2</ele>
        <time>2024-08-03T08:37:02Z</time>
      </trkpt>
      <trkpt lat="47.32418" lon="5.97848">
        <ele>237.2</ele>
        <time>2024-08-03T08:37:03Z</time>
      </trkpt>
      <trkpt lat="47.32422" lon="5.97846">
        <ele>237</ele>
        <time>2024-08-03T08:37:04Z</time>
      </trkpt>
      <trkpt lat="47.32426" lon="5.97844">
        <ele>237</ele>
        <time>2024-08-03T08:37:05Z</time>
      </trkpt>
      <trkpt lat="47.32429" lon="5.97842">
        <ele>237</ele>
        <time>2024-08-03T08:37:06Z</time>
      </trkpt>
      <trkpt lat="47.32433" lon="5.9784">
        <ele>237</ele>
        <time>2024-08-03T08:37:07Z</time>
      </trkpt>
      <trkpt lat="47.32437" lon="5.97838">
        <ele>237</ele>
        <time>2024-08-03T08:37:08Z</time>
      </trkpt>
      <trkpt lat="47.3244" lon="5.97835">
        <ele>237</ele>
        <time>2024-08-03T08:37:09Z</time>
      </trkpt>
      <trkpt lat="47.32444" lon="5.97833">
        <ele>236.8</ele>
        <time>2024-08-03T08:37:10Z</time>
      </trkpt>
      <trkpt lat="47.32447" lon="5.97831">
        <ele>236.8</ele>
        <time>2024-08-03T08:37:11Z</time>
      </trkpt>
      <trkpt lat="47.3245" lon="5.97828">
        <ele>236.8</ele>
        <time>2024-08-03T08:37:12Z</time>
      </trkpt>
      <trkpt lat="47.32453" lon="5.97825">
        <ele>236.8</ele>
        <time>2024-08-03T08:37:13Z</time>
      </trkpt>
      <trkpt lat="47.32456" lon="5.97823">
        <ele>236.6</ele>
        <time>2024-08-03T08:37:14Z</time>
      </trkpt>
      <trkpt lat="47.32458" lon="5.97821">
        <ele>236.6</ele>
        <time>2024-08-03T08:37:15Z</time>
      </trkpt>
      <trkpt lat="47.32459" lon="5.97821">
        <ele>236.6</ele>
        <time>2024-08-03T08:37:16Z</time>
      </trkpt>
      <trkpt lat="47.3246" lon="5.9782">
        <ele>236.6</ele>
        <time>2024-08-03T08:37:17Z</time>
      </trkpt>
      <trkpt lat="47.3246" lon="5.9782">
        <ele>236.6</ele>
        <time>2024-08-03T08:37:18Z</time>
      </trkpt>
      <trkpt lat="47.3246" lon="5.9782">
        <ele>236.4</ele>
        <time>2024-08-03T08:37:19Z</time>
      </trkpt>
      <trkpt lat="47.3246" lon="5.97821">
        <ele>236.6</ele>
        <time>2024-08-03T08:37:20Z</time>
      </trkpt>
      <trkpt lat="47.3246" lon="5.97822">
        <ele>236.4</ele>
        <time>2024-08-03T08:37:21Z</time>
      </trkpt>
      <trkpt lat="47.3246" lon="5.97822">
        <ele>236.4</ele>
        <time>2024-08-03T08:37:22Z</time>
      </trkpt>
      <trkpt lat="47.3246" lon="5.97823">
        <ele>236.4</ele>
        <time>2024-08-03T08:37:23Z</time>
      </trkpt>
      <trkpt lat="47.3246" lon="5.97823">
        <ele>236.4</ele>
        <time>2024-08-03T08:37:24Z</time>
      </trkpt>
      <trkpt lat="47.3246" lon="5.97823">
        <ele>236.4</ele>
        <time>2024-08-03T08:37:25Z</time>
      </trkpt>
      <trkpt lat="47.3246" lon="5.97822">
        <ele>236.4</ele>
        <time>2024-08-03T08:37:26Z</time>
      </trkpt>
      <trkpt lat="47.3246" lon="5.97822">
        <ele>236.4</ele>
        <time>2024-08-03T08:37:27Z</time>
      </trkpt>
      <trkpt lat="47.3246" lon="5.97822">
        <ele>236.4</ele>
        <time>2024-08-03T08:37:28Z</time>
      </trkpt>
      <trkpt lat="47.3246" lon="5.97822">
        <ele>236.4</ele>
        <time>2024-08-03T08:37:29Z</time>
      </trkpt>
      <trkpt lat="47.3246" lon="5.97822">
        <ele>236.4</ele>
        <time>2024-08-03T08:37:30Z</time>
      </trkpt>
      <trkpt lat="47.32461" lon="5.97821">
        <ele>236.4</ele>
        <time>2024-08-03T08:37:31Z</time>
      </trkpt>
      <trkpt lat="47.32461" lon="5.97821">
        <ele>236.4</ele>
        <time>2024-08-03T08:37:32Z</time>
      </trkpt>
      <trkpt lat="47.32461" lon="5.97821">
        <ele>236.4</ele>
        <time>2024-08-03T08:37:33Z</time>
      </trkpt>
      <trkpt lat="47.32461" lon="5.97821">
        <ele>236.4</ele>
        <time>2024-08-03T08:37:34Z</time>
      </trkpt>
      <trkpt lat="47.32461" lon="5.97821">
        <ele>236.4</ele>
        <time>2024-08-03T08:37:35Z</time>
      </trkpt>
      <trkpt lat="47.32462" lon="5.97821">
        <ele>236.4</ele>
        <time>2024-08-03T08:37:36Z</time>
      </trkpt>
      <trkpt lat="47.32462" lon="5.9782">
        <ele>236.6</ele>
        <time>2024-08-03T08:37:37Z</time>
      </trkpt>
      <trkpt lat="47.32463" lon="5.9782">
        <ele>236.4</ele>
        <time>2024-08-03T08:37:38Z</time>
      </trkpt>
      <trkpt lat="47.32464" lon="5.9782">
        <ele>236.4</ele>
        <time>2024-08-03T08:37:39Z</time>
      </trkpt>
      <trkpt lat="47.32464" lon="5.9782">
        <ele>236.4</ele>
        <time>2024-08-03T08:37:40Z</time>
      </trkpt>
      <trkpt lat="47.32465" lon="5.9782">
        <ele>236.4</ele>
        <time>2024-08-03T08:37:41Z</time>
      </trkpt>
      <trkpt lat="47.32466" lon="5.9782">
        <ele>236.4</ele>
        <time>2024-08-03T08:37:42Z</time>
      </trkpt>
      <trkpt lat="47.32466" lon="5.97819">
        <ele>236.4</ele>
        <time>2024-08-03T08:37:43Z</time>
      </trkpt>
      <trkpt lat="47.32466" lon="5.97818">
        <ele>236.4</ele>
        <time>2024-08-03T08:37:44Z</time>
      </trkpt>
      <trkpt lat="47.32467" lon="5.97818">
        <ele>236.6</ele>
        <time>2024-08-03T08:37:45Z</time>
      </trkpt>
      <trkpt lat="47.32467" lon="5.97817">
        <ele>236.4</ele>
        <time>2024-08-03T08:37:46Z</time>
      </trkpt>
      <trkpt lat="47.32467" lon="5.97816">
        <ele>236.4</ele>
        <time>2024-08-03T08:37:47Z</time>
      </trkpt>
      <trkpt lat="47.32467" lon="5.97816">
        <ele>236.6</ele>
        <time>2024-08-03T08:37:48Z</time>
      </trkpt>
      <trkpt lat="47.32468" lon="5.97815">
        <ele>236.8</ele>
        <time>2024-08-03T08:37:49Z</time>
      </trkpt>
      <trkpt lat="47.32468" lon="5.97815">
        <ele>236.8</ele>
        <time>2024-08-03T08:37:50Z</time>
      </trkpt>
      <trkpt lat="47.32468" lon="5.97815">
        <ele>236.8</ele>
        <time>2024-08-03T08:37:51Z</time>
      </trkpt>
      <trkpt lat="47.32468" lon="5.97814">
        <ele>236.8</ele>
        <time>2024-08-03T08:37:52Z</time>
      </trkpt>
      <trkpt lat="47.32468" lon="5.97814">
        <ele>236.8</ele>
        <time>2024-08-03T08:37:53Z</time>
      </trkpt>
      <trkpt lat="47.32468" lon="5.97814">
        <ele>236.6</ele>
        <time>2024-08-03T08:37:54Z</time>
      </trkpt>
      <trkpt lat="47.32468" lon="5.97814">
        <ele>236.8</ele>
        <time>2024-08-03T08:37:55Z</time>
      </trkpt>
      <trkpt lat="47.32468" lon="5.97814">
        <ele>236.8</ele>
        <time>2024-08-03T08:37:56Z</time>
      </trkpt>
      <trkpt lat="47.32468" lon="5.97814">
        <ele>236.8</ele>
        <time>2024-08-03T08:37:57Z</time>
      </trkpt>
      <trkpt lat="47.32468" lon="5.97814">
        <ele>236.6</ele>
        <time>2024-08-03T08:37:58Z</time>
      </trkpt>
      <trkpt lat="47.32468" lon="5.97814">
        <ele>236.8</ele>
        <time>2024-08-03T08:37:59Z</time>
      </trkpt>
      <trkpt lat="47.32468" lon="5.97813">
        <ele>236.8</ele>
        <time>2024-08-03T08:38:00Z</time>
      </trkpt>
      <trkpt lat="47.32468" lon="5.97812">
        <ele>236.8</ele>
        <time>2024-08-03T08:38:01Z</time>
      </trkpt>
      <trkpt lat="47.32468" lon="5.9781">
        <ele>236.8</ele>
        <time>2024-08-03T08:38:02Z</time>
      </trkpt>
      <trkpt lat="47.32468" lon="5.97807">
        <ele>236.8</ele>
        <time>2024-08-03T08:38:03Z</time>
      </trkpt>
      <trkpt lat="47.32468" lon="5.97803">
        <ele>236.8</ele>
        <time>2024-08-03T08:38:04Z</time>
      </trkpt>
      <trkpt lat="47.32468" lon="5.97799">
        <ele>236.6</ele>
        <time>2024-08-03T08:38:05Z</time>
      </trkpt>
      <trkpt lat="47.32468" lon="5.97795">
        <ele>236.8</ele>
        <time>2024-08-03T08:38:06Z</time>
      </trkpt>
      <trkpt lat="47.32467" lon="5.9779">
        <ele>236.8</ele>
        <time>2024-08-03T08:38:07Z</time>
      </trkpt>
      <trkpt lat="47.32466" lon="5.97785">
        <ele>236.6</ele>
        <time>2024-08-03T08:38:08Z</time>
      </trkpt>
      <trkpt lat="47.32465" lon="5.97779">
        <ele>236.8</ele>
        <time>2024-08-03T08:38:09Z</time>
      </trkpt>
      <trkpt lat="47.32464" lon="5.97773">
        <ele>236.6</ele>
        <time>2024-08-03T08:38:10Z</time>
      </trkpt>
      <trkpt lat="47.32463" lon="5.97767">
        <ele>236.8</ele>
        <time>2024-08-03T08:38:11Z</time>
      </trkpt>
      <trkpt lat="47.32462" lon="5.9776">
        <ele>236.8</ele>
        <time>2024-08-03T08:38:12Z</time>
      </trkpt>
      <trkpt lat="47.3246" lon="5.97753">
        <ele>236.8</ele>
        <time>2024-08-03T08:38:13Z</time>
      </trkpt>
      <trkpt lat="47.3246" lon="5.97746">
        <ele>236.8</ele>
        <time>2024-08-03T08:38:14Z</time>
      </trkpt>
      <trkpt lat="47.32459" lon="5.97739">
        <ele>236.8</ele>
        <time>2024-08-03T08:38:15Z</time>
      </trkpt>
      <trkpt lat="47.32458" lon="5.97732">
        <ele>236.8</ele>
        <time>2024-08-03T08:38:16Z</time>
      </trkpt>
      <trkpt lat="47.32457" lon="5.97725">
        <ele>236.8</ele>
        <time>2024-08-03T08:38:17Z</time>
      </trkpt>
      <trkpt lat="47.32457" lon="5.97719">
        <ele>236.8</ele>
        <time>2024-08-03T08:38:18Z</time>
      </trkpt>
      <trkpt lat="47.32456" lon="5.97712">
        <ele>236.8</ele>
        <time>2024-08-03T08:38:19Z</time>
      </trkpt>
      <trkpt lat="47.32456" lon="5.97705">
        <ele>237</ele>
        <time>2024-08-03T08:38:20Z</time>
      </trkpt>
      <trkpt lat="47.32455" lon="5.97699">
        <ele>236.8</ele>
        <time>2024-08-03T08:38:21Z</time>
      </trkpt>
      <trkpt lat="47.32454" lon="5.97692">
        <ele>237</ele>
        <time>2024-08-03T08:38:22Z</time>
      </trkpt>
      <trkpt lat="47.32454" lon="5.97684">
        <ele>236.8</ele>
        <time>2024-08-03T08:38:23Z</time>
      </trkpt>
      <trkpt lat="47.32453" lon="5.97677">
        <ele>237</ele>
        <time>2024-08-03T08:38:24Z</time>
      </trkpt>
      <trkpt lat="47.32452" lon="5.97669">
        <ele>236.8</ele>
        <time>2024-08-03T08:38:25Z</time>
      </trkpt>
      <trkpt lat="47.32451" lon="5.97661">
        <ele>237</ele>
        <time>2024-08-03T08:38:26Z</time>
      </trkpt>
      <trkpt lat="47.3245" lon="5.97653">
        <ele>237</ele>
        <time>2024-08-03T08:38:27Z</time>
      </trkpt>
      <trkpt lat="47.32449" lon="5.97645">
        <ele>237</ele>
        <time>2024-08-03T08:38:28Z</time>
      </trkpt>
      <trkpt lat="47.32449" lon="5.97637">
        <ele>237</ele>
        <time>2024-08-03T08:38:29Z</time>
      </trkpt>
      <trkpt lat="47.32448" lon="5.97629">
        <ele>237</ele>
        <time>2024-08-03T08:38:30Z</time>
      </trkpt>
      <trkpt lat="47.32448" lon="5.97621">
        <ele>237.2</ele>
        <time>2024-08-03T08:38:31Z</time>
      </trkpt>
      <trkpt lat="47.32447" lon="5.97612">
        <ele>237.2</ele>
        <time>2024-08-03T08:38:32Z</time>
      </trkpt>
      <trkpt lat="47.32446" lon="5.97604">
        <ele>237.2</ele>
        <time>2024-08-03T08:38:33Z</time>
      </trkpt>
      <trkpt lat="47.32445" lon="5.97595">
        <ele>237.2</ele>
        <time>2024-08-03T08:38:34Z</time>
      </trkpt>
      <trkpt lat="47.32444" lon="5.97587">
        <ele>237.2</ele>
        <time>2024-08-03T08:38:35Z</time>
      </trkpt>
      <trkpt lat="47.32443" lon="5.97578">
        <ele>237.2</ele>
        <time>2024-08-03T08:38:36Z</time>
      </trkpt>
      <trkpt lat="47.32442" lon="5.9757">
        <ele>237.2</ele>
        <time>2024-08-03T08:38:37Z</time>
      </trkpt>
      <trkpt lat="47.32441" lon="5.97561">
        <ele>237.4</ele>
        <time>2024-08-03T08:38:38Z</time>
      </trkpt>
      <trkpt lat="47.3244" lon="5.97552">
        <ele>237.4</ele>
        <time>2024-08-03T08:38:39Z</time>
      </trkpt>
      <trkpt lat="47.32439" lon="5.97543">
        <ele>237.2</ele>
        <time>2024-08-03T08:38:40Z</time>
      </trkpt>
      <trkpt lat="47.32438" lon="5.97535">
        <ele>237.2</ele>
        <time>2024-08-03T08:38:41Z</time>
      </trkpt>
      <trkpt lat="47.32436" lon="5.97526">
        <ele>237.4</ele>
        <time>2024-08-03T08:38:42Z</time>
      </trkpt>
      <trkpt lat="47.32435" lon="5.97517">
        <ele>237.4</ele>
        <time>2024-08-03T08:38:43Z</time>
      </trkpt>
      <trkpt lat="47.32433" lon="5.97509">
        <ele>237.4</ele>
        <time>2024-08-03T08:38:44Z</time>
      </trkpt>
      <trkpt lat="47.32431" lon="5.975">
        <ele>237.4</ele>
        <time>2024-08-03T08:38:45Z</time>
      </trkpt>
      <trkpt lat="47.3243" lon="5.97492">
        <ele>237.2</ele>
        <time>2024-08-03T08:38:46Z</time>
      </trkpt>
      <trkpt lat="47.32428" lon="5.97483">
        <ele>237.2</ele>
        <time>2024-08-03T08:38:47Z</time>
      </trkpt>
      <trkpt lat="47.32426" lon="5.97475">
        <ele>237.2</ele>
        <time>2024-08-03T08:38:48Z</time>
      </trkpt>
      <trkpt lat="47.32424" lon="5.97467">
        <ele>237.2</ele>
        <time>2024-08-03T08:38:49Z</time>
      </trkpt>
      <trkpt lat="47.32422" lon="5.97459">
        <ele>237.2</ele>
        <time>2024-08-03T08:38:50Z</time>
      </trkpt>
      <trkpt lat="47.32421" lon="5.97451">
        <ele>237.2</ele>
        <time>2024-08-03T08:38:51Z</time>
      </trkpt>
      <trkpt lat="47.32419" lon="5.97443">
        <ele>237.2</ele>
        <time>2024-08-03T08:38:52Z</time>
      </trkpt>
      <trkpt lat="47.32418" lon="5.97436">
        <ele>237.2</ele>
        <time>2024-08-03T08:38:53Z</time>
      </trkpt>
      <trkpt lat="47.32417" lon="5.9743">
        <ele>237.2</ele>
        <time>2024-08-03T08:38:54Z</time>
      </trkpt>
      <trkpt lat="47.32415" lon="5.97424">
        <ele>237.4</ele>
        <time>2024-08-03T08:38:55Z</time>
      </trkpt>
      <trkpt lat="47.32414" lon="5.97418">
        <ele>237.2</ele>
        <time>2024-08-03T08:38:56Z</time>
      </trkpt>
      <trkpt lat="47.32413" lon="5.97411">
        <ele>237.2</ele>
        <time>2024-08-03T08:38:57Z</time>
      </trkpt>
      <trkpt lat="47.32411" lon="5.97405">
        <ele>237.4</ele>
        <time>2024-08-03T08:38:58Z</time>
      </trkpt>
      <trkpt lat="47.3241" lon="5.974">
        <ele>237.4</ele>
        <time>2024-08-03T08:38:59Z</time>
      </trkpt>
      <trkpt lat="47.32408" lon="5.97395">
        <ele>237.4</ele>
        <time>2024-08-03T08:39:00Z</time>
      </trkpt>
      <trkpt lat="47.32407" lon="5.9739">
        <ele>237.4</ele>
        <time>2024-08-03T08:39:01Z</time>
      </trkpt>
      <trkpt lat="47.32404" lon="5.97384">
        <ele>237.6</ele>
        <time>2024-08-03T08:39:02Z</time>
      </trkpt>
      <trkpt lat="47.32402" lon="5.97378">
        <ele>237.6</ele>
        <time>2024-08-03T08:39:03Z</time>
      </trkpt>
      <trkpt lat="47.324" lon="5.97372">
        <ele>237.8</ele>
        <time>2024-08-03T08:39:04Z</time>
      </trkpt>
      <trkpt lat="47.32398" lon="5.97366">
        <ele>237.8</ele>
        <time>2024-08-03T08:39:05Z</time>
      </trkpt>
      <trkpt lat="47.32396" lon="5.9736">
        <ele>238</ele>
        <time>2024-08-03T08:39:06Z</time>
      </trkpt>
      <trkpt lat="47.32394" lon="5.97354">
        <ele>238.2</ele>
        <time>2024-08-03T08:39:07Z</time>
      </trkpt>
      <trkpt lat="47.32392" lon="5.97347">
        <ele>238.2</ele>
        <time>2024-08-03T08:39:08Z</time>
      </trkpt>
      <trkpt lat="47.32389" lon="5.97341">
        <ele>238.4</ele>
        <time>2024-08-03T08:39:09Z</time>
      </trkpt>
      <trkpt lat="47.32387" lon="5.97335">
        <ele>238.4</ele>
        <time>2024-08-03T08:39:10Z</time>
      </trkpt>
      <trkpt lat="47.32385" lon="5.97329">
        <ele>238.6</ele>
        <time>2024-08-03T08:39:11Z</time>
      </trkpt>
      <trkpt lat="47.32382" lon="5.97322">
        <ele>238.6</ele>
        <time>2024-08-03T08:39:12Z</time>
      </trkpt>
      <trkpt lat="47.32383" lon="5.97316">
        <ele>238.6</ele>
        <time>2024-08-03T08:39:13Z</time>
      </trkpt>
      <trkpt lat="47.32384" lon="5.97309">
        <ele>238.6</ele>
        <time>2024-08-03T08:39:14Z</time>
      </trkpt>
      <trkpt lat="47.32386" lon="5.97304">
        <ele>238.6</ele>
        <time>2024-08-03T08:39:15Z</time>
      </trkpt>
      <trkpt lat="47.32388" lon="5.97298">
        <ele>238.6</ele>
        <time>2024-08-03T08:39:16Z</time>
      </trkpt>
      <trkpt lat="47.3239" lon="5.97292">
        <ele>238.8</ele>
        <time>2024-08-03T08:39:17Z</time>
      </trkpt>
      <trkpt lat="47.32392" lon="5.97286">
        <ele>238.8</ele>
        <time>2024-08-03T08:39:18Z</time>
      </trkpt>
      <trkpt lat="47.32394" lon="5.9728">
        <ele>238.8</ele>
        <time>2024-08-03T08:39:19Z</time>
      </trkpt>
      <trkpt lat="47.32395" lon="5.97273">
        <ele>238.8</ele>
        <time>2024-08-03T08:39:20Z</time>
      </trkpt>
      <trkpt lat="47.32395" lon="5.97267">
        <ele>238.8</ele>
        <time>2024-08-03T08:39:21Z</time>
      </trkpt>
      <trkpt lat="47.32395" lon="5.9726">
        <ele>238.8</ele>
        <time>2024-08-03T08:39:22Z</time>
      </trkpt>
      <trkpt lat="47.32395" lon="5.97253">
        <ele>239</ele>
        <time>2024-08-03T08:39:23Z</time>
      </trkpt>
      <trkpt lat="47.32394" lon="5.97248">
        <ele>239.2</ele>
        <time>2024-08-03T08:39:24Z</time>
      </trkpt>
      <trkpt lat="47.32393" lon="5.97242">
        <ele>239.4</ele>
        <time>2024-08-03T08:39:25Z</time>
      </trkpt>
      <trkpt lat="47.32392" lon="5.97237">
        <ele>239.6</ele>
        <time>2024-08-03T08:39:26Z</time>
      </trkpt>
      <trkpt lat="47.3239" lon="5.97232">
        <ele>239.8</ele>
        <time>2024-08-03T08:39:27Z</time>
      </trkpt>
      <trkpt lat="47.32388" lon="5.97227">
        <ele>240.2</ele>
        <time>2024-08-03T08:39:28Z</time>
      </trkpt>
      <trkpt lat="47.32387" lon="5.97222">
        <ele>240.4</ele>
        <time>2024-08-03T08:39:29Z</time>
      </trkpt>
      <trkpt lat="47.32385" lon="5.97217">
        <ele>240.8</ele>
        <time>2024-08-03T08:39:30Z</time>
      </trkpt>
      <trkpt lat="47.32383" lon="5.97212">
        <ele>241</ele>
        <time>2024-08-03T08:39:31Z</time>
      </trkpt>
      <trkpt lat="47.32382" lon="5.97207">
        <ele>241.6</ele>
        <time>2024-08-03T08:39:32Z</time>
      </trkpt>
      <trkpt lat="47.32381" lon="5.97203">
        <ele>241.8</ele>
        <time>2024-08-03T08:39:33Z</time>
      </trkpt>
      <trkpt lat="47.3238" lon="5.972">
        <ele>242.2</ele>
        <time>2024-08-03T08:39:34Z</time>
      </trkpt>
      <trkpt lat="47.32378" lon="5.97196">
        <ele>242.6</ele>
        <time>2024-08-03T08:39:35Z</time>
      </trkpt>
      <trkpt lat="47.32377" lon="5.97191">
        <ele>243</ele>
        <time>2024-08-03T08:39:36Z</time>
      </trkpt>
      <trkpt lat="47.32375" lon="5.97187">
        <ele>243.4</ele>
        <time>2024-08-03T08:39:37Z</time>
      </trkpt>
      <trkpt lat="47.32374" lon="5.97183">
        <ele>243.6</ele>
        <time>2024-08-03T08:39:38Z</time>
      </trkpt>
      <trkpt lat="47.32373" lon="5.97179">
        <ele>244</ele>
        <time>2024-08-03T08:39:39Z</time>
      </trkpt>
      <trkpt lat="47.32372" lon="5.97175">
        <ele>244.6</ele>
        <time>2024-08-03T08:39:40Z</time>
      </trkpt>
      <trkpt lat="47.3237" lon="5.97171">
        <ele>244.6</ele>
        <time>2024-08-03T08:39:41Z</time>
      </trkpt>
      <trkpt lat="47.32369" lon="5.97167">
        <ele>244.8</ele>
        <time>2024-08-03T08:39:42Z</time>
      </trkpt>
      <trkpt lat="47.32368" lon="5.97163">
        <ele>245.2</ele>
        <time>2024-08-03T08:39:43Z</time>
      </trkpt>
      <trkpt lat="47.32367" lon="5.9716">
        <ele>245.4</ele>
        <time>2024-08-03T08:39:44Z</time>
      </trkpt>
      <trkpt lat="47.32366" lon="5.97157">
        <ele>245.6</ele>
        <time>2024-08-03T08:39:45Z</time>
      </trkpt>
      <trkpt lat="47.32365" lon="5.97154">
        <ele>245.8</ele>
        <time>2024-08-03T08:39:46Z</time>
      </trkpt>
      <trkpt lat="47.32364" lon="5.97152">
        <ele>246.2</ele>
        <time>2024-08-03T08:39:47Z</time>
      </trkpt>
      <trkpt lat="47.32364" lon="5.9715">
        <ele>246.4</ele>
        <time>2024-08-03T08:39:48Z</time>
      </trkpt>
      <trkpt lat="47.32367" lon="5.97149">
        <ele>246.6</ele>
        <time>2024-08-03T08:39:49Z</time>
      </trkpt>
      <trkpt lat="47.32368" lon="5.97148">
        <ele>246.6</ele>
        <time>2024-08-03T08:39:50Z</time>
      </trkpt>
      <trkpt lat="47.3237" lon="5.97146">
        <ele>246.6</ele>
        <time>2024-08-03T08:39:51Z</time>
      </trkpt>
      <trkpt lat="47.32373" lon="5.97145">
        <ele>246.6</ele>
        <time>2024-08-03T08:39:52Z</time>
      </trkpt>
      <trkpt lat="47.32377" lon="5.97143">
        <ele>246.6</ele>
        <time>2024-08-03T08:39:53Z</time>
      </trkpt>
      <trkpt lat="47.32381" lon="5.9714">
        <ele>246.6</ele>
        <time>2024-08-03T08:39:54Z</time>
      </trkpt>
      <trkpt lat="47.32384" lon="5.97138">
        <ele>246.8</ele>
        <time>2024-08-03T08:39:55Z</time>
      </trkpt>
      <trkpt lat="47.32387" lon="5.97134">
        <ele>246.6</ele>
        <time>2024-08-03T08:39:56Z</time>
      </trkpt>
      <trkpt lat="47.32392" lon="5.97131">
        <ele>246.6</ele>
        <time>2024-08-03T08:39:57Z</time>
      </trkpt>
      <trkpt lat="47.32397" lon="5.9713">
        <ele>246.8</ele>
        <time>2024-08-03T08:39:58Z</time>
      </trkpt>
      <trkpt lat="47.32402" lon="5.9713">
        <ele>246.6</ele>
        <time>2024-08-03T08:39:59Z</time>
      </trkpt>
      <trkpt lat="47.32407" lon="5.97129">
        <ele>246.6</ele>
        <time>2024-08-03T08:40:00Z</time>
      </trkpt>
      <trkpt lat="47.32413" lon="5.97128">
        <ele>246.6</ele>
        <time>2024-08-03T08:40:01Z</time>
      </trkpt>
      <trkpt lat="47.3242" lon="5.97127">
        <ele>246.4</ele>
        <time>2024-08-03T08:40:02Z</time>
      </trkpt>
      <trkpt lat="47.32425" lon="5.97126">
        <ele>246.4</ele>
        <time>2024-08-03T08:40:03Z</time>
      </trkpt>
      <trkpt lat="47.32432" lon="5.97124">
        <ele>246.2</ele>
        <time>2024-08-03T08:40:04Z</time>
      </trkpt>
      <trkpt lat="47.32438" lon="5.97123">
        <ele>246</ele>
        <time>2024-08-03T08:40:05Z</time>
      </trkpt>
      <trkpt lat="47.32445" lon="5.97121">
        <ele>245.8</ele>
        <time>2024-08-03T08:40:06Z</time>
      </trkpt>
      <trkpt lat="47.32451" lon="5.97118">
        <ele>245</ele>
        <time>2024-08-03T08:40:07Z</time>
      </trkpt>
      <trkpt lat="47.32458" lon="5.97115">
        <ele>244.8</ele>
        <time>2024-08-03T08:40:08Z</time>
      </trkpt>
      <trkpt lat="47.32464" lon="5.97112">
        <ele>244.4</ele>
        <time>2024-08-03T08:40:09Z</time>
      </trkpt>
      <trkpt lat="47.3247" lon="5.97109">
        <ele>243.8</ele>
        <time>2024-08-03T08:40:10Z</time>
      </trkpt>
      <trkpt lat="47.32475" lon="5.97106">
        <ele>243.2</ele>
        <time>2024-08-03T08:40:11Z</time>
      </trkpt>
      <trkpt lat="47.3248" lon="5.97102">
        <ele>242.6</ele>
        <time>2024-08-03T08:40:12Z</time>
      </trkpt>
      <trkpt lat="47.32484" lon="5.97098">
        <ele>242.2</ele>
        <time>2024-08-03T08:40:13Z</time>
      </trkpt>
      <trkpt lat="47.32488" lon="5.97093">
        <ele>241.8</ele>
        <time>2024-08-03T08:40:14Z</time>
      </trkpt>
      <trkpt lat="47.32492" lon="5.97088">
        <ele>241.4</ele>
        <time>2024-08-03T08:40:15Z</time>
      </trkpt>
      <trkpt lat="47.32496" lon="5.97082">
        <ele>241.4</ele>
        <time>2024-08-03T08:40:16Z</time>
      </trkpt>
      <trkpt lat="47.32499" lon="5.97076">
        <ele>241.2</ele>
        <time>2024-08-03T08:40:17Z</time>
      </trkpt>
      <trkpt lat="47.32502" lon="5.9707">
        <ele>241</ele>
        <time>2024-08-03T08:40:18Z</time>
      </trkpt>
      <trkpt lat="47.32505" lon="5.97065">
        <ele>240.8</ele>
        <time>2024-08-03T08:40:19Z</time>
      </trkpt>
      <trkpt lat="47.32507" lon="5.97059">
        <ele>240.6</ele>
        <time>2024-08-03T08:40:20Z</time>
      </trkpt>
      <trkpt lat="47.32509" lon="5.97053">
        <ele>240.4</ele>
        <time>2024-08-03T08:40:21Z</time>
      </trkpt>
      <trkpt lat="47.3251" lon="5.97048">
        <ele>240.6</ele>
        <time>2024-08-03T08:40:22Z</time>
      </trkpt>
      <trkpt lat="47.3251" lon="5.97042">
        <ele>240.4</ele>
        <time>2024-08-03T08:40:23Z</time>
      </trkpt>
      <trkpt lat="47.3251" lon="5.97037">
        <ele>240.4</ele>
        <time>2024-08-03T08:40:24Z</time>
      </trkpt>
      <trkpt lat="47.32508" lon="5.97032">
        <ele>240.4</ele>
        <time>2024-08-03T08:40:25Z</time>
      </trkpt>
      <trkpt lat="47.32506" lon="5.97028">
        <ele>240.4</ele>
        <time>2024-08-03T08:40:26Z</time>
      </trkpt>
      <trkpt lat="47.32504" lon="5.97024">
        <ele>240.4</ele>
        <time>2024-08-03T08:40:27Z</time>
      </trkpt>
      <trkpt lat="47.32502" lon="5.9702">
        <ele>240.2</ele>
        <time>2024-08-03T08:40:28Z</time>
      </trkpt>
      <trkpt lat="47.325" lon="5.97017">
        <ele>240.2</ele>
        <time>2024-08-03T08:40:29Z</time>
      </trkpt>
      <trkpt lat="47.32498" lon="5.97013">
        <ele>240.2</ele>
        <time>2024-08-03T08:40:30Z</time>
      </trkpt>
      <trkpt lat="47.32497" lon="5.9701">
        <ele>240.2</ele>
        <time>2024-08-03T08:40:31Z</time>
      </trkpt>
      <trkpt lat="47.32497" lon="5.97008">
        <ele>240.2</ele>
        <time>2024-08-03T08:40:32Z</time>
      </trkpt>
      <trkpt lat="47.32496" lon="5.97007">
        <ele>240.2</ele>
        <time>2024-08-03T08:40:33Z</time>
      </trkpt>
      <trkpt lat="47.32495" lon="5.97005">
        <ele>240</ele>
        <time>2024-08-03T08:40:34Z</time>
      </trkpt>
      <trkpt lat="47.32494" lon="5.97005">
        <ele>240</ele>
        <time>2024-08-03T08:40:35Z</time>
      </trkpt>
      <trkpt lat="47.32494" lon="5.97005">
        <ele>240</ele>
        <time>2024-08-03T08:40:36Z</time>
      </trkpt>
      <trkpt lat="47.32494" lon="5.97006">
        <ele>240.2</ele>
        <time>2024-08-03T08:40:37Z</time>
      </trkpt>
      <trkpt lat="47.32495" lon="5.97007">
        <ele>240.2</ele>
        <time>2024-08-03T08:40:38Z</time>
      </trkpt>
      <trkpt lat="47.32495" lon="5.97008">
        <ele>239.8</ele>
        <time>2024-08-03T08:40:39Z</time>
      </trkpt>
      <trkpt lat="47.32496" lon="5.97009">
        <ele>239.8</ele>
        <time>2024-08-03T08:40:40Z</time>
      </trkpt>
      <trkpt lat="47.32496" lon="5.9701">
        <ele>240</ele>
        <time>2024-08-03T08:40:41Z</time>
      </trkpt>
      <trkpt lat="47.32496" lon="5.97011">
        <ele>239.8</ele>
        <time>2024-08-03T08:40:42Z</time>
      </trkpt>
      <trkpt lat="47.32496" lon="5.97012">
        <ele>239.8</ele>
        <time>2024-08-03T08:40:43Z</time>
      </trkpt>
      <trkpt lat="47.32496" lon="5.97012">
        <ele>239.8</ele>
        <time>2024-08-03T08:40:44Z</time>
      </trkpt>
      <trkpt lat="47.32496" lon="5.97012">
        <ele>239.8</ele>
        <time>2024-08-03T08:40:45Z</time>
      </trkpt>
      <trkpt lat="47.32496" lon="5.97012">
        <ele>239.6</ele>
        <time>2024-08-03T08:40:46Z</time>
      </trkpt>
      <trkpt lat="47.32496" lon="5.97012">
        <ele>239.6</ele>
        <time>2024-08-03T08:40:47Z</time>
      </trkpt>
      <trkpt lat="47.32496" lon="5.97012">
        <ele>239.6</ele>
        <time>2024-08-03T08:40:48Z</time>
      </trkpt>
      <trkpt lat="47.32496" lon="5.97012">
        <ele>239.6</ele>
        <time>2024-08-03T08:40:49Z</time>
      </trkpt>
      <trkpt lat="47.32496" lon="5.97012">
        <ele>239.6</ele>
        <time>2024-08-03T08:40:50Z</time>
      </trkpt>
      <trkpt lat="47.32496" lon="5.97012">
        <ele>239.6</ele>
        <time>2024-08-03T08:40:51Z</time>
      </trkpt>
      <trkpt lat="47.32496" lon="5.97012">
        <ele>239.6</ele>
        <time>2024-08-03T08:40:52Z</time>
      </trkpt>
      <trkpt lat="47.32496" lon="5.97012">
        <ele>239.6</ele>
        <time>2024-08-03T08:40:53Z</time>
      </trkpt>
      <trkpt lat="47.32496" lon="5.97012">
        <ele>239.6</ele>
        <time>2024-08-03T08:40:54Z</time>
      </trkpt>
      <trkpt lat="47.32496" lon="5.97012">
        <ele>239.6</ele>
        <time>2024-08-03T08:40:55Z</time>
      </trkpt>
      <trkpt lat="47.32496" lon="5.97012">
        <ele>239.4</ele>
        <time>2024-08-03T08:40:56Z</time>
      </trkpt>
      <trkpt lat="47.32496" lon="5.97012">
        <ele>239.6</ele>
        <time>2024-08-03T08:40:57Z</time>
      </trkpt>
      <trkpt lat="47.32496" lon="5.97012">
        <ele>239.4</ele>
        <time>2024-08-03T08:40:58Z</time>
      </trkpt>
      <trkpt lat="47.32496" lon="5.97012">
        <ele>239.6</ele>
        <time>2024-08-03T08:40:59Z</time>
      </trkpt>
      <trkpt lat="47.32497" lon="5.97012">
        <ele>239.6</ele>
        <time>2024-08-03T08:41:00Z</time>
      </trkpt>
      <trkpt lat="47.32497" lon="5.97013">
        <ele>239.4</ele>
        <time>2024-08-03T08:41:01Z</time>
      </trkpt>
      <trkpt lat="47.32498" lon="5.97014">
        <ele>239.4</ele>
        <time>2024-08-03T08:41:02Z</time>
      </trkpt>
      <trkpt lat="47.32499" lon="5.97015">
        <ele>239.4</ele>
        <time>2024-08-03T08:41:03Z</time>
      </trkpt>
      <trkpt lat="47.325" lon="5.97017">
        <ele>239.6</ele>
        <time>2024-08-03T08:41:04Z</time>
      </trkpt>
      <trkpt lat="47.32502" lon="5.9702">
        <ele>239.6</ele>
        <time>2024-08-03T08:41:05Z</time>
      </trkpt>
      <trkpt lat="47.32503" lon="5.97023">
        <ele>239.6</ele>
        <time>2024-08-03T08:41:06Z</time>
      </trkpt>
      <trkpt lat="47.32505" lon="5.97027">
        <ele>239.6</ele>
        <time>2024-08-03T08:41:07Z</time>
      </trkpt>
      <trkpt lat="47.32507" lon="5.97031">
        <ele>239.6</ele>
        <time>2024-08-03T08:41:08Z</time>
      </trkpt>
      <trkpt lat="47.32508" lon="5.97036">
        <ele>239.6</ele>
        <time>2024-08-03T08:41:09Z</time>
      </trkpt>
      <trkpt lat="47.32508" lon="5.9704">
        <ele>239.6</ele>
        <time>2024-08-03T08:41:10Z</time>
      </trkpt>
      <trkpt lat="47.32508" lon="5.97045">
        <ele>239.6</ele>
        <time>2024-08-03T08:41:11Z</time>
      </trkpt>
      <trkpt lat="47.32506" lon="5.97049">
        <ele>239.8</ele>
        <time>2024-08-03T08:41:12Z</time>
      </trkpt>
      <trkpt lat="47.32504" lon="5.97054">
        <ele>239.8</ele>
        <time>2024-08-03T08:41:13Z</time>
      </trkpt>
      <trkpt lat="47.32502" lon="5.97059">
        <ele>239.8</ele>
        <time>2024-08-03T08:41:14Z</time>
      </trkpt>
      <trkpt lat="47.32499" lon="5.97064">
        <ele>239.8</ele>
        <time>2024-08-03T08:41:15Z</time>
      </trkpt>
      <trkpt lat="47.32497" lon="5.9707">
        <ele>240</ele>
        <time>2024-08-03T08:41:16Z</time>
      </trkpt>
      <trkpt lat="47.32494" lon="5.97075">
        <ele>240</ele>
        <time>2024-08-03T08:41:17Z</time>
      </trkpt>
      <trkpt lat="47.32491" lon="5.97081">
        <ele>240</ele>
        <time>2024-08-03T08:41:18Z</time>
      </trkpt>
      <trkpt lat="47.32488" lon="5.97087">
        <ele>240</ele>
        <time>2024-08-03T08:41:19Z</time>
      </trkpt>
      <trkpt lat="47.32485" lon="5.97093">
        <ele>240</ele>
        <time>2024-08-03T08:41:20Z</time>
      </trkpt>
      <trkpt lat="47.32481" lon="5.97098">
        <ele>240</ele>
        <time>2024-08-03T08:41:21Z</time>
      </trkpt>
      <trkpt lat="47.32477" lon="5.97103">
        <ele>240</ele>
        <time>2024-08-03T08:41:22Z</time>
      </trkpt>
      <trkpt lat="47.32474" lon="5.97107">
        <ele>240</ele>
        <time>2024-08-03T08:41:23Z</time>
      </trkpt>
      <trkpt lat="47.3247" lon="5.9711">
        <ele>240</ele>
        <time>2024-08-03T08:41:24Z</time>
      </trkpt>
      <trkpt lat="47.32466" lon="5.97113">
        <ele>240</ele>
        <time>2024-08-03T08:41:25Z</time>
      </trkpt>
      <trkpt lat="47.32462" lon="5.97116">
        <ele>240</ele>
        <time>2024-08-03T08:41:26Z</time>
      </trkpt>
      <trkpt lat="47.32457" lon="5.97119">
        <ele>240</ele>
        <time>2024-08-03T08:41:27Z</time>
      </trkpt>
      <trkpt lat="47.32453" lon="5.97121">
        <ele>240.2</ele>
        <time>2024-08-03T08:41:28Z</time>
      </trkpt>
      <trkpt lat="47.32448" lon="5.97123">
        <ele>240</ele>
        <time>2024-08-03T08:41:29Z</time>
      </trkpt>
      <trkpt lat="47.32443" lon="5.97125">
        <ele>240.2</ele>
        <time>2024-08-03T08:41:30Z</time>
      </trkpt>
      <trkpt lat="47.32439" lon="5.97126">
        <ele>240.2</ele>
        <time>2024-08-03T08:41:31Z</time>
      </trkpt>
      <trkpt lat="47.32434" lon="5.97128">
        <ele>240.2</ele>
        <time>2024-08-03T08:41:32Z</time>
      </trkpt>
      <trkpt lat="47.3243" lon="5.97129">
        <ele>240.2</ele>
        <time>2024-08-03T08:41:33Z</time>
      </trkpt>
      <trkpt lat="47.32425" lon="5.9713">
        <ele>240</ele>
        <time>2024-08-03T08:41:34Z</time>
      </trkpt>
      <trkpt lat="47.32421" lon="5.97131">
        <ele>240.2</ele>
        <time>2024-08-03T08:41:35Z</time>
      </trkpt>
      <trkpt lat="47.32417" lon="5.97131">
        <ele>240.4</ele>
        <time>2024-08-03T08:41:36Z</time>
      </trkpt>
      <trkpt lat="47.32413" lon="5.97131">
        <ele>240.2</ele>
        <time>2024-08-03T08:41:37Z</time>
      </trkpt>
      <trkpt lat="47.3241" lon="5.97132">
        <ele>240.4</ele>
        <time>2024-08-03T08:41:38Z</time>
      </trkpt>
      <trkpt lat="47.32407" lon="5.97132">
        <ele>240.6</ele>
        <time>2024-08-03T08:41:39Z</time>
      </trkpt>
      <trkpt lat="47.32403" lon="5.97132">
        <ele>240.6</ele>
        <time>2024-08-03T08:41:40Z</time>
      </trkpt>
      <trkpt lat="47.324" lon="5.97132">
        <ele>241</ele>
        <time>2024-08-03T08:41:41Z</time>
      </trkpt>
      <trkpt lat="47.32397" lon="5.97132">
        <ele>241</ele>
        <time>2024-08-03T08:41:42Z</time>
      </trkpt>
      <trkpt lat="47.32394" lon="5.97132">
        <ele>241.2</ele>
        <time>2024-08-03T08:41:43Z</time>
      </trkpt>
      <trkpt lat="47.32391" lon="5.97132">
        <ele>241.4</ele>
        <time>2024-08-03T08:41:44Z</time>
      </trkpt>
      <trkpt lat="47.32387" lon="5.97132">
        <ele>241.8</ele>
        <time>2024-08-03T08:41:45Z</time>
      </trkpt>
      <trkpt lat="47.32385" lon="5.97133">
        <ele>242</ele>
        <time>2024-08-03T08:41:46Z</time>
      </trkpt>
      <trkpt lat="47.32382" lon="5.97133">
        <ele>242.2</ele>
        <time>2024-08-03T08:41:47Z</time>
      </trkpt>
      <trkpt lat="47.3238" lon="5.97134">
        <ele>242.8</ele>
        <time>2024-08-03T08:41:48Z</time>
      </trkpt>
      <trkpt lat="47.32377" lon="5.97135">
        <ele>243</ele>
        <time>2024-08-03T08:41:49Z</time>
      </trkpt>
      <trkpt lat="47.32375" lon="5.97136">
        <ele>243.2</ele>
        <time>2024-08-03T08:41:50Z</time>
      </trkpt>
      <trkpt lat="47.32372" lon="5.97137">
        <ele>243.4</ele>
        <time>2024-08-03T08:41:51Z</time>
      </trkpt>
      <trkpt lat="47.3237" lon="5.97138">
        <ele>243.8</ele>
        <time>2024-08-03T08:41:52Z</time>
      </trkpt>
      <trkpt lat="47.32368" lon="5.97139">
        <ele>243.8</ele>
        <time>2024-08-03T08:41:53Z</time>
      </trkpt>
      <trkpt lat="47.32366" lon="5.9714">
        <ele>244</ele>
        <time>2024-08-03T08:41:54Z</time>
      </trkpt>
      <trkpt lat="47.32363" lon="5.97142">
        <ele>244.2</ele>
        <time>2024-08-03T08:41:55Z</time>
      </trkpt>
      <trkpt lat="47.32361" lon="5.97144">
        <ele>244.4</ele>
        <time>2024-08-03T08:41:56Z</time>
      </trkpt>
      <trkpt lat="47.32359" lon="5.97146">
        <ele>244.6</ele>
        <time>2024-08-03T08:41:57Z</time>
      </trkpt>
      <trkpt lat="47.32356" lon="5.97148">
        <ele>244.8</ele>
        <time>2024-08-03T08:41:58Z</time>
      </trkpt>
      <trkpt lat="47.32354" lon="5.9715">
        <ele>245.2</ele>
        <time>2024-08-03T08:41:59Z</time>
      </trkpt>
      <trkpt lat="47.32352" lon="5.97152">
        <ele>245.4</ele>
        <time>2024-08-03T08:42:00Z</time>
      </trkpt>
      <trkpt lat="47.32349" lon="5.97153">
        <ele>245.8</ele>
        <time>2024-08-03T08:42:01Z</time>
      </trkpt>
      <trkpt lat="47.32347" lon="5.97155">
        <ele>246</ele>
        <time>2024-08-03T08:42:02Z</time>
      </trkpt>
      <trkpt lat="47.32344" lon="5.97156">
        <ele>246.2</ele>
        <time>2024-08-03T08:42:03Z</time>
      </trkpt>
      <trkpt lat="47.32342" lon="5.97158">
        <ele>246.6</ele>
        <time>2024-08-03T08:42:04Z</time>
      </trkpt>
      <trkpt lat="47.32339" lon="5.9716">
        <ele>246.8</ele>
        <time>2024-08-03T08:42:05Z</time>
      </trkpt>
      <trkpt lat="47.32336" lon="5.97161">
        <ele>247</ele>
        <time>2024-08-03T08:42:06Z</time>
      </trkpt>
      <trkpt lat="47.32334" lon="5.97164">
        <ele>247.2</ele>
        <time>2024-08-03T08:42:07Z</time>
      </trkpt>
      <trkpt lat="47.32332" lon="5.97166">
        <ele>247.4</ele>
        <time>2024-08-03T08:42:08Z</time>
      </trkpt>
      <trkpt lat="47.32329" lon="5.97168">
        <ele>247.4</ele>
        <time>2024-08-03T08:42:09Z</time>
      </trkpt>
      <trkpt lat="47.32327" lon="5.97169">
        <ele>247.6</ele>
        <time>2024-08-03T08:42:10Z</time>
      </trkpt>
      <trkpt lat="47.32324" lon="5.97171">
        <ele>247.8</ele>
        <time>2024-08-03T08:42:11Z</time>
      </trkpt>
      <trkpt lat="47.32322" lon="5.97173">
        <ele>248</ele>
        <time>2024-08-03T08:42:12Z</time>
      </trkpt>
      <trkpt lat="47.32319" lon="5.97174">
        <ele>248.2</ele>
        <time>2024-08-03T08:42:13Z</time>
      </trkpt>
      <trkpt lat="47.32317" lon="5.97175">
        <ele>248.2</ele>
        <time>2024-08-03T08:42:14Z</time>
      </trkpt>
      <trkpt lat="47.32315" lon="5.97176">
        <ele>248.2</ele>
        <time>2024-08-03T08:42:15Z</time>
      </trkpt>
      <trkpt lat="47.32313" lon="5.97178">
        <ele>248.4</ele>
        <time>2024-08-03T08:42:16Z</time>
      </trkpt>
      <trkpt lat="47.3231" lon="5.97179">
        <ele>248.8</ele>
        <time>2024-08-03T08:42:17Z</time>
      </trkpt>
      <trkpt lat="47.32308" lon="5.97181">
        <ele>248.8</ele>
        <time>2024-08-03T08:42:18Z</time>
      </trkpt>
      <trkpt lat="47.32306" lon="5.97181">
        <ele>248.8</ele>
        <time>2024-08-03T08:42:19Z</time>
      </trkpt>
      <trkpt lat="47.32304" lon="5.9718">
        <ele>249</ele>
        <time>2024-08-03T08:42:20Z</time>
      </trkpt>
      <trkpt lat="47.32302" lon="5.97178">
        <ele>249</ele>
        <time>2024-08-03T08:42:21Z</time>
      </trkpt>
      <trkpt lat="47.323" lon="5.97175">
        <ele>249.4</ele>
        <time>2024-08-03T08:42:22Z</time>
      </trkpt>
      <trkpt lat="47.32299" lon="5.97171">
        <ele>249.6</ele>
        <time>2024-08-03T08:42:23Z</time>
      </trkpt>
      <trkpt lat="47.32297" lon="5.97168">
        <ele>249.6</ele>
        <time>2024-08-03T08:42:24Z</time>
      </trkpt>
      <trkpt lat="47.32295" lon="5.97165">
        <ele>249.8</ele>
        <time>2024-08-03T08:42:25Z</time>
      </trkpt>
      <trkpt lat="47.32293" lon="5.97161">
        <ele>250</ele>
        <time>2024-08-03T08:42:26Z</time>
      </trkpt>
      <trkpt lat="47.32292" lon="5.97159">
        <ele>250.2</ele>
        <time>2024-08-03T08:42:27Z</time>
      </trkpt>
      <trkpt lat="47.3229" lon="5.97156">
        <ele>250.2</ele>
        <time>2024-08-03T08:42:28Z</time>
      </trkpt>
      <trkpt lat="47.32288" lon="5.97154">
        <ele>250.4</ele>
        <time>2024-08-03T08:42:29Z</time>
      </trkpt>
      <trkpt lat="47.32285" lon="5.97152">
        <ele>250.6</ele>
        <time>2024-08-03T08:42:30Z</time>
      </trkpt>
      <trkpt lat="47.32283" lon="5.97151">
        <ele>250.8</ele>
        <time>2024-08-03T08:42:31Z</time>
      </trkpt>
      <trkpt lat="47.32281" lon="5.9715">
        <ele>251</ele>
        <time>2024-08-03T08:42:32Z</time>
      </trkpt>
      <trkpt lat="47.32279" lon="5.97149">
        <ele>251.2</ele>
        <time>2024-08-03T08:42:33Z</time>
      </trkpt>
      <trkpt lat="47.32277" lon="5.97147">
        <ele>251.4</ele>
        <time>2024-08-03T08:42:34Z</time>
      </trkpt>
      <trkpt lat="47.32274" lon="5.97145">
        <ele>251.6</ele>
        <time>2024-08-03T08:42:35Z</time>
      </trkpt>
      <trkpt lat="47.32272" lon="5.97144">
        <ele>251.6</ele>
        <time>2024-08-03T08:42:36Z</time>
      </trkpt>
      <trkpt lat="47.3227" lon="5.97142">
        <ele>251.6</ele>
        <time>2024-08-03T08:42:37Z</time>
      </trkpt>
      <trkpt lat="47.32268" lon="5.97139">
        <ele>251.8</ele>
        <time>2024-08-03T08:42:38Z</time>
      </trkpt>
      <trkpt lat="47.32269" lon="5.97136">
        <ele>252</ele>
        <time>2024-08-03T08:42:39Z</time>
      </trkpt>
      <trkpt lat="47.3227" lon="5.97133">
        <ele>252.2</ele>
        <time>2024-08-03T08:42:40Z</time>
      </trkpt>
      <trkpt lat="47.32271" lon="5.97129">
        <ele>252.4</ele>
        <time>2024-08-03T08:42:41Z</time>
      </trkpt>
      <trkpt lat="47.32273" lon="5.97125">
        <ele>252.4</ele>
        <time>2024-08-03T08:42:42Z</time>
      </trkpt>
      <trkpt lat="47.32274" lon="5.97121">
        <ele>252.4</ele>
        <time>2024-08-03T08:42:43Z</time>
      </trkpt>
      <trkpt lat="47.32276" lon="5.97117">
        <ele>252.4</ele>
        <time>2024-08-03T08:42:44Z</time>
      </trkpt>
      <trkpt lat="47.32277" lon="5.97112">
        <ele>252.4</ele>
        <time>2024-08-03T08:42:45Z</time>
      </trkpt>
      <trkpt lat="47.32278" lon="5.97107">
        <ele>252.4</ele>
        <time>2024-08-03T08:42:46Z</time>
      </trkpt>
      <trkpt lat="47.32278" lon="5.97102">
        <ele>252.4</ele>
        <time>2024-08-03T08:42:47Z</time>
      </trkpt>
      <trkpt lat="47.32277" lon="5.97096">
        <ele>252.4</ele>
        <time>2024-08-03T08:42:48Z</time>
      </trkpt>
      <trkpt lat="47.32276" lon="5.97092">
        <ele>252.4</ele>
        <time>2024-08-03T08:42:49Z</time>
      </trkpt>
      <trkpt lat="47.32273" lon="5.97089">
        <ele>252.6</ele>
        <time>2024-08-03T08:42:50Z</time>
      </trkpt>
      <trkpt lat="47.32271" lon="5.97088">
        <ele>252.2</ele>
        <time>2024-08-03T08:42:51Z</time>
      </trkpt>
      <trkpt lat="47.32267" lon="5.97087">
        <ele>252.2</ele>
        <time>2024-08-03T08:42:52Z</time>
      </trkpt>
      <trkpt lat="47.32264" lon="5.97087">
        <ele>252.2</ele>
        <time>2024-08-03T08:42:53Z</time>
      </trkpt>
      <trkpt lat="47.32261" lon="5.97088">
        <ele>252</ele>
        <time>2024-08-03T08:42:54Z</time>
      </trkpt>
      <trkpt lat="47.32258" lon="5.97088">
        <ele>252.2</ele>
        <time>2024-08-03T08:42:55Z</time>
      </trkpt>
      <trkpt lat="47.32255" lon="5.97088">
        <ele>252.2</ele>
        <time>2024-08-03T08:42:56Z</time>
      </trkpt>
      <trkpt lat="47.32251" lon="5.97088">
        <ele>252</ele>
        <time>2024-08-03T08:42:57Z</time>
      </trkpt>
      <trkpt lat="47.32248" lon="5.97089">
        <ele>252</ele>
        <time>2024-08-03T08:42:58Z</time>
      </trkpt>
      <trkpt lat="47.32245" lon="5.9709">
        <ele>252</ele>
        <time>2024-08-03T08:42:59Z</time>
      </trkpt>
      <trkpt lat="47.32242" lon="5.9709">
        <ele>252</ele>
        <time>2024-08-03T08:43:00Z</time>
      </trkpt>
      <trkpt lat="47.32238" lon="5.9709">
        <ele>252.2</ele>
        <time>2024-08-03T08:43:01Z</time>
      </trkpt>
      <trkpt lat="47.32235" lon="5.9709">
        <ele>252</ele>
        <time>2024-08-03T08:43:02Z</time>
      </trkpt>
      <trkpt lat="47.32231" lon="5.97091">
        <ele>252.2</ele>
        <time>2024-08-03T08:43:03Z</time>
      </trkpt>
      <trkpt lat="47.32228" lon="5.97092">
        <ele>252.4</ele>
        <time>2024-08-03T08:43:04Z</time>
      </trkpt>
      <trkpt lat="47.32224" lon="5.97092">
        <ele>252.4</ele>
        <time>2024-08-03T08:43:05Z</time>
      </trkpt>
      <trkpt lat="47.3222" lon="5.97093">
        <ele>252.6</ele>
        <time>2024-08-03T08:43:06Z</time>
      </trkpt>
      <trkpt lat="47.32216" lon="5.97094">
        <ele>252.8</ele>
        <time>2024-08-03T08:43:07Z</time>
      </trkpt>
      <trkpt lat="47.32212" lon="5.97094">
        <ele>253</ele>
        <time>2024-08-03T08:43:08Z</time>
      </trkpt>
      <trkpt lat="47.32208" lon="5.97095">
        <ele>253</ele>
        <time>2024-08-03T08:43:09Z</time>
      </trkpt>
      <trkpt lat="47.32204" lon="5.97096">
        <ele>253.4</ele>
        <time>2024-08-03T08:43:10Z</time>
      </trkpt>
      <trkpt lat="47.322" lon="5.97097">
        <ele>253.4</ele>
        <time>2024-08-03T08:43:11Z</time>
      </trkpt>
      <trkpt lat="47.32197" lon="5.97099">
        <ele>253.6</ele>
        <time>2024-08-03T08:43:12Z</time>
      </trkpt>
      <trkpt lat="47.32192" lon="5.971">
        <ele>253.6</ele>
        <time>2024-08-03T08:43:13Z</time>
      </trkpt>
      <trkpt lat="47.32188" lon="5.97101">
        <ele>253.6</ele>
        <time>2024-08-03T08:43:14Z</time>
      </trkpt>
      <trkpt lat="47.32184" lon="5.97103">
        <ele>253.6</ele>
        <time>2024-08-03T08:43:15Z</time>
      </trkpt>
      <trkpt lat="47.3218" lon="5.97104">
        <ele>253.6</ele>
        <time>2024-08-03T08:43:16Z</time>
      </trkpt>
      <trkpt lat="47.32175" lon="5.97106">
        <ele>253.8</ele>
        <time>2024-08-03T08:43:17Z</time>
      </trkpt>
      <trkpt lat="47.32171" lon="5.97107">
        <ele>254</ele>
        <time>2024-08-03T08:43:18Z</time>
      </trkpt>
      <trkpt lat="47.32167" lon="5.97109">
        <ele>254</ele>
        <time>2024-08-03T08:43:19Z</time>
      </trkpt>
      <trkpt lat="47.32163" lon="5.9711">
        <ele>254.2</ele>
        <time>2024-08-03T08:43:20Z</time>
      </trkpt>
      <trkpt lat="47.32158" lon="5.97111">
        <ele>254.4</ele>
        <time>2024-08-03T08:43:21Z</time>
      </trkpt>
      <trkpt lat="47.32154" lon="5.97112">
        <ele>254.4</ele>
        <time>2024-08-03T08:43:22Z</time>
      </trkpt>
      <trkpt lat="47.3215" lon="5.97113">
        <ele>254.4</ele>
        <time>2024-08-03T08:43:23Z</time>
      </trkpt>
      <trkpt lat="47.32147" lon="5.97114">
        <ele>254.6</ele>
        <time>2024-08-03T08:43:24Z</time>
      </trkpt>
      <trkpt lat="47.32143" lon="5.97115">
        <ele>254.6</ele>
        <time>2024-08-03T08:43:25Z</time>
      </trkpt>
      <trkpt lat="47.3214" lon="5.97117">
        <ele>254.6</ele>
        <time>2024-08-03T08:43:26Z</time>
      </trkpt>
      <trkpt lat="47.32136" lon="5.97118">
        <ele>254.6</ele>
        <time>2024-08-03T08:43:27Z</time>
      </trkpt>
      <trkpt lat="47.32133" lon="5.97119">
        <ele>254.8</ele>
        <time>2024-08-03T08:43:28Z</time>
      </trkpt>
      <trkpt lat="47.32129" lon="5.9712">
        <ele>255</ele>
        <time>2024-08-03T08:43:29Z</time>
      </trkpt>
      <trkpt lat="47.32125" lon="5.97122">
        <ele>255.2</ele>
        <time>2024-08-03T08:43:30Z</time>
      </trkpt>
      <trkpt lat="47.32121" lon="5.97122">
        <ele>255.4</ele>
        <time>2024-08-03T08:43:31Z</time>
      </trkpt>
      <trkpt lat="47.32118" lon="5.97123">
        <ele>255.4</ele>
        <time>2024-08-03T08:43:32Z</time>
      </trkpt>
      <trkpt lat="47.32114" lon="5.97123">
        <ele>255.6</ele>
        <time>2024-08-03T08:43:33Z</time>
      </trkpt>
      <trkpt lat="47.32111" lon="5.97123">
        <ele>255.8</ele>
        <time>2024-08-03T08:43:34Z</time>
      </trkpt>
      <trkpt lat="47.32108" lon="5.97123">
        <ele>255.8</ele>
        <time>2024-08-03T08:43:35Z</time>
      </trkpt>
      <trkpt lat="47.32105" lon="5.97122">
        <ele>256</ele>
        <time>2024-08-03T08:43:36Z</time>
      </trkpt>
      <trkpt lat="47.32102" lon="5.97122">
        <ele>256</ele>
        <time>2024-08-03T08:43:37Z</time>
      </trkpt>
      <trkpt lat="47.32099" lon="5.97121">
        <ele>256.2</ele>
        <time>2024-08-03T08:43:38Z</time>
      </trkpt>
      <trkpt lat="47.32096" lon="5.9712">
        <ele>256.4</ele>
        <time>2024-08-03T08:43:39Z</time>
      </trkpt>
      <trkpt lat="47.32093" lon="5.97119">
        <ele>256.6</ele>
        <time>2024-08-03T08:43:40Z</time>
      </trkpt>
      <trkpt lat="47.3209" lon="5.97117">
        <ele>256.6</ele>
        <time>2024-08-03T08:43:41Z</time>
      </trkpt>
      <trkpt lat="47.32087" lon="5.97116">
        <ele>256.8</ele>
        <time>2024-08-03T08:43:42Z</time>
      </trkpt>
      <trkpt lat="47.32083" lon="5.97114">
        <ele>256.8</ele>
        <time>2024-08-03T08:43:43Z</time>
      </trkpt>
      <trkpt lat="47.3208" lon="5.97112">
        <ele>256.8</ele>
        <time>2024-08-03T08:43:44Z</time>
      </trkpt>
      <trkpt lat="47.32077" lon="5.97111">
        <ele>257</ele>
        <time>2024-08-03T08:43:45Z</time>
      </trkpt>
      <trkpt lat="47.32074" lon="5.97109">
        <ele>257.2</ele>
        <time>2024-08-03T08:43:46Z</time>
      </trkpt>
      <trkpt lat="47.3207" lon="5.97107">
        <ele>257.4</ele>
        <time>2024-08-03T08:43:47Z</time>
      </trkpt>
      <trkpt lat="47.32067" lon="5.97105">
        <ele>257.6</ele>
        <time>2024-08-03T08:43:48Z</time>
      </trkpt>
      <trkpt lat="47.32064" lon="5.97104">
        <ele>257.6</ele>
        <time>2024-08-03T08:43:49Z</time>
      </trkpt>
      <trkpt lat="47.32061" lon="5.97102">
        <ele>257.6</ele>
        <time>2024-08-03T08:43:50Z</time>
      </trkpt>
      <trkpt lat="47.32058" lon="5.97101">
        <ele>257.8</ele>
        <time>2024-08-03T08:43:51Z</time>
      </trkpt>
      <trkpt lat="47.32055" lon="5.97099">
        <ele>258</ele>
        <time>2024-08-03T08:43:52Z</time>
      </trkpt>
      <trkpt lat="47.32052" lon="5.97098">
        <ele>258.2</ele>
        <time>2024-08-03T08:43:53Z</time>
      </trkpt>
      <trkpt lat="47.32049" lon="5.97097">
        <ele>258.2</ele>
        <time>2024-08-03T08:43:54Z</time>
      </trkpt>
      <trkpt lat="47.32046" lon="5.97096">
        <ele>258.4</ele>
        <time>2024-08-03T08:43:55Z</time>
      </trkpt>
      <trkpt lat="47.32042" lon="5.97095">
        <ele>258.6</ele>
        <time>2024-08-03T08:43:56Z</time>
      </trkpt>
      <trkpt lat="47.32038" lon="5.97094">
        <ele>258.6</ele>
        <time>2024-08-03T08:43:57Z</time>
      </trkpt>
      <trkpt lat="47.32035" lon="5.97092">
        <ele>258.8</ele>
        <time>2024-08-03T08:43:58Z</time>
      </trkpt>
      <trkpt lat="47.32031" lon="5.97091">
        <ele>259</ele>
        <time>2024-08-03T08:43:59Z</time>
      </trkpt>
      <trkpt lat="47.32027" lon="5.9709">
        <ele>259</ele>
        <time>2024-08-03T08:44:00Z</time>
      </trkpt>
      <trkpt lat="47.32024" lon="5.97089">
        <ele>259.2</ele>
        <time>2024-08-03T08:44:01Z</time>
      </trkpt>
      <trkpt lat="47.32021" lon="5.97088">
        <ele>259.2</ele>
        <time>2024-08-03T08:44:02Z</time>
      </trkpt>
      <trkpt lat="47.32017" lon="5.97087">
        <ele>259.4</ele>
        <time>2024-08-03T08:44:03Z</time>
      </trkpt>
      <trkpt lat="47.32013" lon="5.97085">
        <ele>259.6</ele>
        <time>2024-08-03T08:44:04Z</time>
      </trkpt>
      <trkpt lat="47.3201" lon="5.97084">
        <ele>259.8</ele>
        <time>2024-08-03T08:44:05Z</time>
      </trkpt>
      <trkpt lat="47.32007" lon="5.97083">
        <ele>259.8</ele>
        <time>2024-08-03T08:44:06Z</time>
      </trkpt>
      <trkpt lat="47.32004" lon="5.97081">
        <ele>260</ele>
        <time>2024-08-03T08:44:07Z</time>
      </trkpt>
      <trkpt lat="47.32001" lon="5.9708">
        <ele>260</ele>
        <time>2024-08-03T08:44:08Z</time>
      </trkpt>
      <trkpt lat="47.31998" lon="5.97078">
        <ele>260.2</ele>
        <time>2024-08-03T08:44:09Z</time>
      </trkpt>
      <trkpt lat="47.31995" lon="5.97077">
        <ele>260.4</ele>
        <time>2024-08-03T08:44:10Z</time>
      </trkpt>
      <trkpt lat="47.31992" lon="5.97076">
        <ele>260.6</ele>
        <time>2024-08-03T08:44:11Z</time>
      </trkpt>
      <trkpt lat="47.31988" lon="5.97075">
        <ele>260.8</ele>
        <time>2024-08-03T08:44:12Z</time>
      </trkpt>
      <trkpt lat="47.31985" lon="5.97074">
        <ele>261</ele>
        <time>2024-08-03T08:44:13Z</time>
      </trkpt>
      <trkpt lat="47.31981" lon="5.97073">
        <ele>261.2</ele>
        <time>2024-08-03T08:44:14Z</time>
      </trkpt>
      <trkpt lat="47.31977" lon="5.97073">
        <ele>261.6</ele>
        <time>2024-08-03T08:44:15Z</time>
      </trkpt>
      <trkpt lat="47.31973" lon="5.97071">
        <ele>261.6</ele>
        <time>2024-08-03T08:44:16Z</time>
      </trkpt>
      <trkpt lat="47.31969" lon="5.9707">
        <ele>262</ele>
        <time>2024-08-03T08:44:17Z</time>
      </trkpt>
      <trkpt lat="47.31965" lon="5.97067">
        <ele>262.2</ele>
        <time>2024-08-03T08:44:18Z</time>
      </trkpt>
      <trkpt lat="47.31962" lon="5.97064">
        <ele>262.2</ele>
        <time>2024-08-03T08:44:19Z</time>
      </trkpt>
      <trkpt lat="47.31958" lon="5.97061">
        <ele>262.4</ele>
        <time>2024-08-03T08:44:20Z</time>
      </trkpt>
      <trkpt lat="47.31955" lon="5.97057">
        <ele>262.8</ele>
        <time>2024-08-03T08:44:21Z</time>
      </trkpt>
      <trkpt lat="47.31952" lon="5.97054">
        <ele>262.8</ele>
        <time>2024-08-03T08:44:22Z</time>
      </trkpt>
      <trkpt lat="47.31949" lon="5.9705">
        <ele>263.2</ele>
        <time>2024-08-03T08:44:23Z</time>
      </trkpt>
      <trkpt lat="47.31946" lon="5.97047">
        <ele>263.4</ele>
        <time>2024-08-03T08:44:24Z</time>
      </trkpt>
      <trkpt lat="47.31944" lon="5.97042">
        <ele>263.6</ele>
        <time>2024-08-03T08:44:25Z</time>
      </trkpt>
      <trkpt lat="47.31941" lon="5.97038">
        <ele>263.8</ele>
        <time>2024-08-03T08:44:26Z</time>
      </trkpt>
      <trkpt lat="47.31938" lon="5.97033">
        <ele>264</ele>
        <time>2024-08-03T08:44:27Z</time>
      </trkpt>
      <trkpt lat="47.31936" lon="5.97028">
        <ele>264</ele>
        <time>2024-08-03T08:44:28Z</time>
      </trkpt>
      <trkpt lat="47.31934" lon="5.97023">
        <ele>264.2</ele>
        <time>2024-08-03T08:44:29Z</time>
      </trkpt>
      <trkpt lat="47.31931" lon="5.97019">
        <ele>264.4</ele>
        <time>2024-08-03T08:44:30Z</time>
      </trkpt>
      <trkpt lat="47.31929" lon="5.97014">
        <ele>264.6</ele>
        <time>2024-08-03T08:44:31Z</time>
      </trkpt>
      <trkpt lat="47.31927" lon="5.9701">
        <ele>264.6</ele>
        <time>2024-08-03T08:44:32Z</time>
      </trkpt>
      <trkpt lat="47.31925" lon="5.97005">
        <ele>264.8</ele>
        <time>2024-08-03T08:44:33Z</time>
      </trkpt>
      <trkpt lat="47.31922" lon="5.97">
        <ele>264.8</ele>
        <time>2024-08-03T08:44:34Z</time>
      </trkpt>
      <trkpt lat="47.3192" lon="5.96996">
        <ele>265</ele>
        <time>2024-08-03T08:44:35Z</time>
      </trkpt>
      <trkpt lat="47.31918" lon="5.96992">
        <ele>265</ele>
        <time>2024-08-03T08:44:36Z</time>
      </trkpt>
      <trkpt lat="47.31916" lon="5.96987">
        <ele>264.8</ele>
        <time>2024-08-03T08:44:37Z</time>
      </trkpt>
      <trkpt lat="47.31913" lon="5.96982">
        <ele>265.2</ele>
        <time>2024-08-03T08:44:38Z</time>
      </trkpt>
      <trkpt lat="47.31911" lon="5.96978">
        <ele>265.2</ele>
        <time>2024-08-03T08:44:39Z</time>
      </trkpt>
      <trkpt lat="47.31908" lon="5.96973">
        <ele>265.4</ele>
        <time>2024-08-03T08:44:40Z</time>
      </trkpt>
      <trkpt lat="47.31906" lon="5.96968">
        <ele>265.2</ele>
        <time>2024-08-03T08:44:41Z</time>
      </trkpt>
      <trkpt lat="47.31903" lon="5.96964">
        <ele>265.2</ele>
        <time>2024-08-03T08:44:42Z</time>
      </trkpt>
      <trkpt lat="47.31901" lon="5.96959">
        <ele>265.2</ele>
        <time>2024-08-03T08:44:43Z</time>
      </trkpt>
      <trkpt lat="47.31898" lon="5.96955">
        <ele>265.2</ele>
        <time>2024-08-03T08:44:44Z</time>
      </trkpt>
      <trkpt lat="47.31896" lon="5.9695">
        <ele>265.2</ele>
        <time>2024-08-03T08:44:45Z</time>
      </trkpt>
      <trkpt lat="47.31893" lon="5.96946">
        <ele>265.2</ele>
        <time>2024-08-03T08:44:46Z</time>
      </trkpt>
      <trkpt lat="47.31891" lon="5.96941">
        <ele>265.2</ele>
        <time>2024-08-03T08:44:47Z</time>
      </trkpt>
      <trkpt lat="47.31888" lon="5.96937">
        <ele>265.4</ele>
        <time>2024-08-03T08:44:48Z</time>
      </trkpt>
      <trkpt lat="47.31886" lon="5.96934">
        <ele>265.2</ele>
        <time>2024-08-03T08:44:49Z</time>
      </trkpt>
      <trkpt lat="47.31883" lon="5.9693">
        <ele>265.2</ele>
        <time>2024-08-03T08:44:50Z</time>
      </trkpt>
      <trkpt lat="47.31881" lon="5.96926">
        <ele>265.2</ele>
        <time>2024-08-03T08:44:51Z</time>
      </trkpt>
      <trkpt lat="47.31879" lon="5.96922">
        <ele>265.2</ele>
        <time>2024-08-03T08:44:52Z</time>
      </trkpt>
      <trkpt lat="47.31876" lon="5.96918">
        <ele>265</ele>
        <time>2024-08-03T08:44:53Z</time>
      </trkpt>
      <trkpt lat="47.31873" lon="5.96915">
        <ele>264.8</ele>
        <time>2024-08-03T08:44:54Z</time>
      </trkpt>
      <trkpt lat="47.3187" lon="5.96912">
        <ele>264.8</ele>
        <time>2024-08-03T08:44:55Z</time>
      </trkpt>
      <trkpt lat="47.31867" lon="5.96911">
        <ele>264.8</ele>
        <time>2024-08-03T08:44:56Z</time>
      </trkpt>
      <trkpt lat="47.31863" lon="5.9691">
        <ele>264.8</ele>
        <time>2024-08-03T08:44:57Z</time>
      </trkpt>
      <trkpt lat="47.31859" lon="5.96912">
        <ele>264.8</ele>
        <time>2024-08-03T08:44:58Z</time>
      </trkpt>
      <trkpt lat="47.31854" lon="5.96913">
        <ele>264.8</ele>
        <time>2024-08-03T08:44:59Z</time>
      </trkpt>
      <trkpt lat="47.3185" lon="5.96915">
        <ele>264.6</ele>
        <time>2024-08-03T08:45:00Z</time>
      </trkpt>
      <trkpt lat="47.31846" lon="5.96918">
        <ele>264.6</ele>
        <time>2024-08-03T08:45:01Z</time>
      </trkpt>
      <trkpt lat="47.31842" lon="5.96921">
        <ele>264.4</ele>
        <time>2024-08-03T08:45:02Z</time>
      </trkpt>
      <trkpt lat="47.31838" lon="5.96925">
        <ele>264.2</ele>
        <time>2024-08-03T08:45:03Z</time>
      </trkpt>
      <trkpt lat="47.31835" lon="5.96929">
        <ele>264</ele>
        <time>2024-08-03T08:45:04Z</time>
      </trkpt>
      <trkpt lat="47.31831" lon="5.96933">
        <ele>263.8</ele>
        <time>2024-08-03T08:45:05Z</time>
      </trkpt>
      <trkpt lat="47.31827" lon="5.96938">
        <ele>263.8</ele>
        <time>2024-08-03T08:45:06Z</time>
      </trkpt>
      <trkpt lat="47.31823" lon="5.96942">
        <ele>263.6</ele>
        <time>2024-08-03T08:45:07Z</time>
      </trkpt>
      <trkpt lat="47.31819" lon="5.96947">
        <ele>263.6</ele>
        <time>2024-08-03T08:45:08Z</time>
      </trkpt>
      <trkpt lat="47.31815" lon="5.96951">
        <ele>263.6</ele>
        <time>2024-08-03T08:45:09Z</time>
      </trkpt>
      <trkpt lat="47.31811" lon="5.96957">
        <ele>263.2</ele>
        <time>2024-08-03T08:45:10Z</time>
      </trkpt>
      <trkpt lat="47.31806" lon="5.96962">
        <ele>263.2</ele>
        <time>2024-08-03T08:45:11Z</time>
      </trkpt>
      <trkpt lat="47.31801" lon="5.96969">
        <ele>263.2</ele>
        <time>2024-08-03T08:45:12Z</time>
      </trkpt>
      <trkpt lat="47.31795" lon="5.96975">
        <ele>263.4</ele>
        <time>2024-08-03T08:45:13Z</time>
      </trkpt>
      <trkpt lat="47.31789" lon="5.96981">
        <ele>263.2</ele>
        <time>2024-08-03T08:45:14Z</time>
      </trkpt>
      <trkpt lat="47.31783" lon="5.96988">
        <ele>263</ele>
        <time>2024-08-03T08:45:15Z</time>
      </trkpt>
      <trkpt lat="47.31777" lon="5.96994">
        <ele>262.8</ele>
        <time>2024-08-03T08:45:16Z</time>
      </trkpt>
      <trkpt lat="47.31771" lon="5.97001">
        <ele>262.4</ele>
        <time>2024-08-03T08:45:17Z</time>
      </trkpt>
      <trkpt lat="47.31764" lon="5.97008">
        <ele>262.2</ele>
        <time>2024-08-03T08:45:18Z</time>
      </trkpt>
      <trkpt lat="47.31758" lon="5.97014">
        <ele>262</ele>
        <time>2024-08-03T08:45:19Z</time>
      </trkpt>
      <trkpt lat="47.31752" lon="5.97021">
        <ele>261.6</ele>
        <time>2024-08-03T08:45:20Z</time>
      </trkpt>
      <trkpt lat="47.31745" lon="5.97028">
        <ele>261.4</ele>
        <time>2024-08-03T08:45:21Z</time>
      </trkpt>
      <trkpt lat="47.31738" lon="5.97034">
        <ele>261</ele>
        <time>2024-08-03T08:45:22Z</time>
      </trkpt>
      <trkpt lat="47.31732" lon="5.9704">
        <ele>260.4</ele>
        <time>2024-08-03T08:45:23Z</time>
      </trkpt>
      <trkpt lat="47.31726" lon="5.97047">
        <ele>260.4</ele>
        <time>2024-08-03T08:45:24Z</time>
      </trkpt>
      <trkpt lat="47.3172" lon="5.97053">
        <ele>260.2</ele>
        <time>2024-08-03T08:45:25Z</time>
      </trkpt>
      <trkpt lat="47.31714" lon="5.9706">
        <ele>259.6</ele>
        <time>2024-08-03T08:45:26Z</time>
      </trkpt>
      <trkpt lat="47.31709" lon="5.97066">
        <ele>259.4</ele>
        <time>2024-08-03T08:45:27Z</time>
      </trkpt>
      <trkpt lat="47.31703" lon="5.97073">
        <ele>259</ele>
        <time>2024-08-03T08:45:28Z</time>
      </trkpt>
      <trkpt lat="47.31697" lon="5.97079">
        <ele>258.4</ele>
        <time>2024-08-03T08:45:29Z</time>
      </trkpt>
      <trkpt lat="47.31691" lon="5.97084">
        <ele>258.2</ele>
        <time>2024-08-03T08:45:30Z</time>
      </trkpt>
      <trkpt lat="47.31685" lon="5.9709">
        <ele>257.8</ele>
        <time>2024-08-03T08:45:31Z</time>
      </trkpt>
      <trkpt lat="47.31679" lon="5.97097">
        <ele>257.4</ele>
        <time>2024-08-03T08:45:32Z</time>
      </trkpt>
      <trkpt lat="47.31673" lon="5.97103">
        <ele>257</ele>
        <time>2024-08-03T08:45:33Z</time>
      </trkpt>
      <trkpt lat="47.31667" lon="5.97108">
        <ele>257</ele>
        <time>2024-08-03T08:45:34Z</time>
      </trkpt>
      <trkpt lat="47.31661" lon="5.97114">
        <ele>256.8</ele>
        <time>2024-08-03T08:45:35Z</time>
      </trkpt>
      <trkpt lat="47.31655" lon="5.97119">
        <ele>256.8</ele>
        <time>2024-08-03T08:45:36Z</time>
      </trkpt>
      <trkpt lat="47.3165" lon="5.97124">
        <ele>256.6</ele>
        <time>2024-08-03T08:45:37Z</time>
      </trkpt>
      <trkpt lat="47.31645" lon="5.97129">
        <ele>256.4</ele>
        <time>2024-08-03T08:45:38Z</time>
      </trkpt>
      <trkpt lat="47.31639" lon="5.97133">
        <ele>256.2</ele>
        <time>2024-08-03T08:45:39Z</time>
      </trkpt>
      <trkpt lat="47.31634" lon="5.97137">
        <ele>255.8</ele>
        <time>2024-08-03T08:45:40Z</time>
      </trkpt>
      <trkpt lat="47.31629" lon="5.97143">
        <ele>255.4</ele>
        <time>2024-08-03T08:45:41Z</time>
      </trkpt>
      <trkpt lat="47.31624" lon="5.97147">
        <ele>255.4</ele>
        <time>2024-08-03T08:45:42Z</time>
      </trkpt>
      <trkpt lat="47.31618" lon="5.97153">
        <ele>255</ele>
        <time>2024-08-03T08:45:43Z</time>
      </trkpt>
      <trkpt lat="47.31613" lon="5.97157">
        <ele>254.4</ele>
        <time>2024-08-03T08:45:44Z</time>
      </trkpt>
      <trkpt lat="47.31609" lon="5.97161">
        <ele>254.2</ele>
        <time>2024-08-03T08:45:45Z</time>
      </trkpt>
      <trkpt lat="47.31604" lon="5.97165">
        <ele>254</ele>
        <time>2024-08-03T08:45:46Z</time>
      </trkpt>
      <trkpt lat="47.31599" lon="5.97169">
        <ele>253.8</ele>
        <time>2024-08-03T08:45:47Z</time>
      </trkpt>
      <trkpt lat="47.31593" lon="5.97173">
        <ele>253.8</ele>
        <time>2024-08-03T08:45:48Z</time>
      </trkpt>
      <trkpt lat="47.31588" lon="5.97178">
        <ele>253.8</ele>
        <time>2024-08-03T08:45:49Z</time>
      </trkpt>
      <trkpt lat="47.31583" lon="5.97182">
        <ele>253.6</ele>
        <time>2024-08-03T08:45:50Z</time>
      </trkpt>
      <trkpt lat="47.31578" lon="5.97186">
        <ele>253.4</ele>
        <time>2024-08-03T08:45:51Z</time>
      </trkpt>
      <trkpt lat="47.31574" lon="5.97191">
        <ele>253.4</ele>
        <time>2024-08-03T08:45:52Z</time>
      </trkpt>
      <trkpt lat="47.31569" lon="5.97195">
        <ele>253.4</ele>
        <time>2024-08-03T08:45:53Z</time>
      </trkpt>
      <trkpt lat="47.31565" lon="5.972">
        <ele>253.4</ele>
        <time>2024-08-03T08:45:54Z</time>
      </trkpt>
      <trkpt lat="47.3156" lon="5.97204">
        <ele>253.4</ele>
        <time>2024-08-03T08:45:55Z</time>
      </trkpt>
      <trkpt lat="47.31556" lon="5.97209">
        <ele>253.4</ele>
        <time>2024-08-03T08:45:56Z</time>
      </trkpt>
      <trkpt lat="47.31551" lon="5.97214">
        <ele>253.2</ele>
        <time>2024-08-03T08:45:57Z</time>
      </trkpt>
      <trkpt lat="47.31547" lon="5.97219">
        <ele>253.4</ele>
        <time>2024-08-03T08:45:58Z</time>
      </trkpt>
      <trkpt lat="47.31542" lon="5.97223">
        <ele>253.2</ele>
        <time>2024-08-03T08:45:59Z</time>
      </trkpt>
      <trkpt lat="47.31537" lon="5.97225">
        <ele>253.2</ele>
        <time>2024-08-03T08:46:00Z</time>
      </trkpt>
      <trkpt lat="47.31532" lon="5.97224">
        <ele>253.2</ele>
        <time>2024-08-03T08:46:01Z</time>
      </trkpt>
      <trkpt lat="47.31528" lon="5.97222">
        <ele>253.2</ele>
        <time>2024-08-03T08:46:02Z</time>
      </trkpt>
      <trkpt lat="47.31524" lon="5.97218">
        <ele>253.2</ele>
        <time>2024-08-03T08:46:03Z</time>
      </trkpt>
      <trkpt lat="47.31521" lon="5.97213">
        <ele>253.4</ele>
        <time>2024-08-03T08:46:04Z</time>
      </trkpt>
      <trkpt lat="47.31518" lon="5.97209">
        <ele>253.4</ele>
        <time>2024-08-03T08:46:05Z</time>
      </trkpt>
      <trkpt lat="47.31515" lon="5.97203">
        <ele>253.4</ele>
        <time>2024-08-03T08:46:06Z</time>
      </trkpt>
      <trkpt lat="47.31512" lon="5.97197">
        <ele>253.4</ele>
        <time>2024-08-03T08:46:07Z</time>
      </trkpt>
      <trkpt lat="47.31509" lon="5.97191">
        <ele>253.2</ele>
        <time>2024-08-03T08:46:08Z</time>
      </trkpt>
      <trkpt lat="47.31506" lon="5.97185">
        <ele>253.2</ele>
        <time>2024-08-03T08:46:09Z</time>
      </trkpt>
      <trkpt lat="47.31502" lon="5.97179">
        <ele>253.2</ele>
        <time>2024-08-03T08:46:10Z</time>
      </trkpt>
      <trkpt lat="47.31499" lon="5.97173">
        <ele>253.4</ele>
        <time>2024-08-03T08:46:11Z</time>
      </trkpt>
      <trkpt lat="47.31496" lon="5.97167">
        <ele>253.4</ele>
        <time>2024-08-03T08:46:12Z</time>
      </trkpt>
      <trkpt lat="47.31493" lon="5.9716">
        <ele>253.4</ele>
        <time>2024-08-03T08:46:13Z</time>
      </trkpt>
      <trkpt lat="47.31491" lon="5.97155">
        <ele>253.4</ele>
        <time>2024-08-03T08:46:14Z</time>
      </trkpt>
      <trkpt lat="47.31489" lon="5.97149">
        <ele>253.4</ele>
        <time>2024-08-03T08:46:15Z</time>
      </trkpt>
      <trkpt lat="47.31486" lon="5.97143">
        <ele>253.4</ele>
        <time>2024-08-03T08:46:16Z</time>
      </trkpt>
      <trkpt lat="47.31482" lon="5.97135">
        <ele>253.4</ele>
        <time>2024-08-03T08:46:17Z</time>
      </trkpt>
      <trkpt lat="47.3148" lon="5.97129">
        <ele>253.4</ele>
        <time>2024-08-03T08:46:18Z</time>
      </trkpt>
      <trkpt lat="47.31477" lon="5.97122">
        <ele>253.4</ele>
        <time>2024-08-03T08:46:19Z</time>
      </trkpt>
      <trkpt lat="47.31474" lon="5.97116">
        <ele>253.4</ele>
        <time>2024-08-03T08:46:20Z</time>
      </trkpt>
      <trkpt lat="47.31471" lon="5.97109">
        <ele>253.4</ele>
        <time>2024-08-03T08:46:21Z</time>
      </trkpt>
      <trkpt lat="47.31469" lon="5.97102">
        <ele>253.2</ele>
        <time>2024-08-03T08:46:22Z</time>
      </trkpt>
      <trkpt lat="47.31466" lon="5.97095">
        <ele>253.2</ele>
        <time>2024-08-03T08:46:23Z</time>
      </trkpt>
      <trkpt lat="47.31464" lon="5.97089">
        <ele>253.2</ele>
        <time>2024-08-03T08:46:24Z</time>
      </trkpt>
      <trkpt lat="47.31462" lon="5.97083">
        <ele>253.2</ele>
        <time>2024-08-03T08:46:25Z</time>
      </trkpt>
      <trkpt lat="47.31459" lon="5.97077">
        <ele>253.2</ele>
        <time>2024-08-03T08:46:26Z</time>
      </trkpt>
      <trkpt lat="47.31457" lon="5.97071">
        <ele>253.2</ele>
        <time>2024-08-03T08:46:27Z</time>
      </trkpt>
      <trkpt lat="47.31455" lon="5.97064">
        <ele>253.2</ele>
        <time>2024-08-03T08:46:28Z</time>
      </trkpt>
      <trkpt lat="47.31453" lon="5.97058">
        <ele>253</ele>
        <time>2024-08-03T08:46:29Z</time>
      </trkpt>
      <trkpt lat="47.31451" lon="5.97052">
        <ele>253</ele>
        <time>2024-08-03T08:46:30Z</time>
      </trkpt>
      <trkpt lat="47.31449" lon="5.97046">
        <ele>253</ele>
        <time>2024-08-03T08:46:31Z</time>
      </trkpt>
      <trkpt lat="47.31447" lon="5.9704">
        <ele>253</ele>
        <time>2024-08-03T08:46:32Z</time>
      </trkpt>
      <trkpt lat="47.31445" lon="5.97035">
        <ele>253</ele>
        <time>2024-08-03T08:46:33Z</time>
      </trkpt>
      <trkpt lat="47.31443" lon="5.97029">
        <ele>252.8</ele>
        <time>2024-08-03T08:46:34Z</time>
      </trkpt>
      <trkpt lat="47.31441" lon="5.97024">
        <ele>253</ele>
        <time>2024-08-03T08:46:35Z</time>
      </trkpt>
      <trkpt lat="47.31438" lon="5.97018">
        <ele>252.8</ele>
        <time>2024-08-03T08:46:36Z</time>
      </trkpt>
      <trkpt lat="47.31435" lon="5.97012">
        <ele>252.8</ele>
        <time>2024-08-03T08:46:37Z</time>
      </trkpt>
      <trkpt lat="47.31433" lon="5.97005">
        <ele>252.8</ele>
        <time>2024-08-03T08:46:38Z</time>
      </trkpt>
      <trkpt lat="47.3143" lon="5.96999">
        <ele>252.8</ele>
        <time>2024-08-03T08:46:39Z</time>
      </trkpt>
      <trkpt lat="47.31427" lon="5.96993">
        <ele>252.8</ele>
        <time>2024-08-03T08:46:40Z</time>
      </trkpt>
      <trkpt lat="47.31423" lon="5.96983">
        <ele>252.6</ele>
        <time>2024-08-03T08:46:41Z</time>
      </trkpt>
      <trkpt lat="47.31419" lon="5.96975">
        <ele>252.6</ele>
        <time>2024-08-03T08:46:42Z</time>
      </trkpt>
      <trkpt lat="47.31416" lon="5.96968">
        <ele>252.4</ele>
        <time>2024-08-03T08:46:43Z</time>
      </trkpt>
      <trkpt lat="47.31412" lon="5.96961">
        <ele>252</ele>
        <time>2024-08-03T08:46:44Z</time>
      </trkpt>
      <trkpt lat="47.31409" lon="5.96954">
        <ele>252</ele>
        <time>2024-08-03T08:46:45Z</time>
      </trkpt>
      <trkpt lat="47.31404" lon="5.96945">
        <ele>251.8</ele>
        <time>2024-08-03T08:46:46Z</time>
      </trkpt>
      <trkpt lat="47.31401" lon="5.96939">
        <ele>251.6</ele>
        <time>2024-08-03T08:46:47Z</time>
      </trkpt>
      <trkpt lat="47.31396" lon="5.96931">
        <ele>251.4</ele>
        <time>2024-08-03T08:46:48Z</time>
      </trkpt>
      <trkpt lat="47.31393" lon="5.96923">
        <ele>251.4</ele>
        <time>2024-08-03T08:46:49Z</time>
      </trkpt>
      <trkpt lat="47.31389" lon="5.96915">
        <ele>251.2</ele>
        <time>2024-08-03T08:46:50Z</time>
      </trkpt>
      <trkpt lat="47.31384" lon="5.96906">
        <ele>251.2</ele>
        <time>2024-08-03T08:46:51Z</time>
      </trkpt>
      <trkpt lat="47.31379" lon="5.96899">
        <ele>251</ele>
        <time>2024-08-03T08:46:52Z</time>
      </trkpt>
      <trkpt lat="47.31375" lon="5.96893">
        <ele>250.8</ele>
        <time>2024-08-03T08:46:53Z</time>
      </trkpt>
      <trkpt lat="47.31369" lon="5.96888">
        <ele>250.6</ele>
        <time>2024-08-03T08:46:54Z</time>
      </trkpt>
      <trkpt lat="47.31362" lon="5.96885">
        <ele>250.2</ele>
        <time>2024-08-03T08:46:55Z</time>
      </trkpt>
      <trkpt lat="47.31356" lon="5.96883">
        <ele>250.2</ele>
        <time>2024-08-03T08:46:56Z</time>
      </trkpt>
      <trkpt lat="47.31348" lon="5.96882">
        <ele>250</ele>
        <time>2024-08-03T08:46:57Z</time>
      </trkpt>
      <trkpt lat="47.31341" lon="5.96879">
        <ele>249.6</ele>
        <time>2024-08-03T08:46:58Z</time>
      </trkpt>
      <trkpt lat="47.31334" lon="5.96877">
        <ele>249.2</ele>
        <time>2024-08-03T08:46:59Z</time>
      </trkpt>
      <trkpt lat="47.31328" lon="5.96874">
        <ele>249</ele>
        <time>2024-08-03T08:47:00Z</time>
      </trkpt>
      <trkpt lat="47.31323" lon="5.9687">
        <ele>248.4</ele>
        <time>2024-08-03T08:47:01Z</time>
      </trkpt>
      <trkpt lat="47.31317" lon="5.96865">
        <ele>248.4</ele>
        <time>2024-08-03T08:47:02Z</time>
      </trkpt>
      <trkpt lat="47.31313" lon="5.96859">
        <ele>248.4</ele>
        <time>2024-08-03T08:47:03Z</time>
      </trkpt>
      <trkpt lat="47.31309" lon="5.96854">
        <ele>248.2</ele>
        <time>2024-08-03T08:47:04Z</time>
      </trkpt>
      <trkpt lat="47.31306" lon="5.96848">
        <ele>248</ele>
        <time>2024-08-03T08:47:05Z</time>
      </trkpt>
      <trkpt lat="47.31303" lon="5.96843">
        <ele>248.2</ele>
        <time>2024-08-03T08:47:06Z</time>
      </trkpt>
      <trkpt lat="47.31301" lon="5.96837">
        <ele>248</ele>
        <time>2024-08-03T08:47:07Z</time>
      </trkpt>
      <trkpt lat="47.31297" lon="5.96831">
        <ele>248</ele>
        <time>2024-08-03T08:47:08Z</time>
      </trkpt>
      <trkpt lat="47.31295" lon="5.96825">
        <ele>248</ele>
        <time>2024-08-03T08:47:09Z</time>
      </trkpt>
      <trkpt lat="47.31292" lon="5.96818">
        <ele>248</ele>
        <time>2024-08-03T08:47:10Z</time>
      </trkpt>
      <trkpt lat="47.31289" lon="5.96811">
        <ele>248</ele>
        <time>2024-08-03T08:47:11Z</time>
      </trkpt>
      <trkpt lat="47.31287" lon="5.96803">
        <ele>248.2</ele>
        <time>2024-08-03T08:47:12Z</time>
      </trkpt>
      <trkpt lat="47.31284" lon="5.96794">
        <ele>248.2</ele>
        <time>2024-08-03T08:47:13Z</time>
      </trkpt>
      <trkpt lat="47.3128" lon="5.96786">
        <ele>248.4</ele>
        <time>2024-08-03T08:47:14Z</time>
      </trkpt>
      <trkpt lat="47.31277" lon="5.96778">
        <ele>248.4</ele>
        <time>2024-08-03T08:47:15Z</time>
      </trkpt>
      <trkpt lat="47.31273" lon="5.96771">
        <ele>248.4</ele>
        <time>2024-08-03T08:47:16Z</time>
      </trkpt>
      <trkpt lat="47.31269" lon="5.96763">
        <ele>248.4</ele>
        <time>2024-08-03T08:47:17Z</time>
      </trkpt>
      <trkpt lat="47.31266" lon="5.96756">
        <ele>248.6</ele>
        <time>2024-08-03T08:47:18Z</time>
      </trkpt>
      <trkpt lat="47.31263" lon="5.96745">
        <ele>248.6</ele>
        <time>2024-08-03T08:47:19Z</time>
      </trkpt>
      <trkpt lat="47.3126" lon="5.96736">
        <ele>248.6</ele>
        <time>2024-08-03T08:47:20Z</time>
      </trkpt>
      <trkpt lat="47.31257" lon="5.96727">
        <ele>248.6</ele>
        <time>2024-08-03T08:47:21Z</time>
      </trkpt>
      <trkpt lat="47.31254" lon="5.96718">
        <ele>248.6</ele>
        <time>2024-08-03T08:47:22Z</time>
      </trkpt>
      <trkpt lat="47.31252" lon="5.96709">
        <ele>248.6</ele>
        <time>2024-08-03T08:47:23Z</time>
      </trkpt>
      <trkpt lat="47.3125" lon="5.96701">
        <ele>248.6</ele>
        <time>2024-08-03T08:47:24Z</time>
      </trkpt>
      <trkpt lat="47.31249" lon="5.96692">
        <ele>248.6</ele>
        <time>2024-08-03T08:47:25Z</time>
      </trkpt>
      <trkpt lat="47.31247" lon="5.96683">
        <ele>248.6</ele>
        <time>2024-08-03T08:47:26Z</time>
      </trkpt>
      <trkpt lat="47.31245" lon="5.96675">
        <ele>248.6</ele>
        <time>2024-08-03T08:47:27Z</time>
      </trkpt>
      <trkpt lat="47.31242" lon="5.96667">
        <ele>248.6</ele>
        <time>2024-08-03T08:47:28Z</time>
      </trkpt>
      <trkpt lat="47.3124" lon="5.9666">
        <ele>248.6</ele>
        <time>2024-08-03T08:47:29Z</time>
      </trkpt>
      <trkpt lat="47.31238" lon="5.96653">
        <ele>248.6</ele>
        <time>2024-08-03T08:47:30Z</time>
      </trkpt>
      <trkpt lat="47.31237" lon="5.96644">
        <ele>248.6</ele>
        <time>2024-08-03T08:47:31Z</time>
      </trkpt>
      <trkpt lat="47.31238" lon="5.96634">
        <ele>248.6</ele>
        <time>2024-08-03T08:47:32Z</time>
      </trkpt>
      <trkpt lat="47.31239" lon="5.96625">
        <ele>248.6</ele>
        <time>2024-08-03T08:47:33Z</time>
      </trkpt>
      <trkpt lat="47.31242" lon="5.96615">
        <ele>248.4</ele>
        <time>2024-08-03T08:47:34Z</time>
      </trkpt>
      <trkpt lat="47.31245" lon="5.96606">
        <ele>248.6</ele>
        <time>2024-08-03T08:47:35Z</time>
      </trkpt>
      <trkpt lat="47.31248" lon="5.96598">
        <ele>248.4</ele>
        <time>2024-08-03T08:47:36Z</time>
      </trkpt>
      <trkpt lat="47.31252" lon="5.96589">
        <ele>248.4</ele>
        <time>2024-08-03T08:47:37Z</time>
      </trkpt>
      <trkpt lat="47.31255" lon="5.96582">
        <ele>248.2</ele>
        <time>2024-08-03T08:47:38Z</time>
      </trkpt>
      <trkpt lat="47.31258" lon="5.96574">
        <ele>248.2</ele>
        <time>2024-08-03T08:47:39Z</time>
      </trkpt>
      <trkpt lat="47.31261" lon="5.96567">
        <ele>248.2</ele>
        <time>2024-08-03T08:47:40Z</time>
      </trkpt>
      <trkpt lat="47.31263" lon="5.9656">
        <ele>248.2</ele>
        <time>2024-08-03T08:47:41Z</time>
      </trkpt>
      <trkpt lat="47.31264" lon="5.96553">
        <ele>248.2</ele>
        <time>2024-08-03T08:47:42Z</time>
      </trkpt>
      <trkpt lat="47.31263" lon="5.96544">
        <ele>248</ele>
        <time>2024-08-03T08:47:43Z</time>
      </trkpt>
      <trkpt lat="47.31262" lon="5.96536">
        <ele>248</ele>
        <time>2024-08-03T08:47:44Z</time>
      </trkpt>
      <trkpt lat="47.3126" lon="5.96526">
        <ele>248</ele>
        <time>2024-08-03T08:47:45Z</time>
      </trkpt>
      <trkpt lat="47.31257" lon="5.96519">
        <ele>248</ele>
        <time>2024-08-03T08:47:46Z</time>
      </trkpt>
      <trkpt lat="47.31255" lon="5.96511">
        <ele>248</ele>
        <time>2024-08-03T08:47:47Z</time>
      </trkpt>
      <trkpt lat="47.31252" lon="5.96506">
        <ele>247.8</ele>
        <time>2024-08-03T08:47:48Z</time>
      </trkpt>
      <trkpt lat="47.3125" lon="5.96501">
        <ele>247.8</ele>
        <time>2024-08-03T08:47:49Z</time>
      </trkpt>
      <trkpt lat="47.31249" lon="5.96498">
        <ele>247.8</ele>
        <time>2024-08-03T08:47:50Z</time>
      </trkpt>
      <trkpt lat="47.31247" lon="5.96496">
        <ele>247.8</ele>
        <time>2024-08-03T08:47:51Z</time>
      </trkpt>
      <trkpt lat="47.31246" lon="5.96495">
        <ele>247.4</ele>
        <time>2024-08-03T08:47:52Z</time>
      </trkpt>
      <trkpt lat="47.31245" lon="5.96493">
        <ele>247.2</ele>
        <time>2024-08-03T08:47:53Z</time>
      </trkpt>
      <trkpt lat="47.31244" lon="5.96491">
        <ele>246.8</ele>
        <time>2024-08-03T08:47:54Z</time>
      </trkpt>
      <trkpt lat="47.31243" lon="5.96489">
        <ele>246.4</ele>
        <time>2024-08-03T08:47:55Z</time>
      </trkpt>
      <trkpt lat="47.31242" lon="5.96486">
        <ele>246.2</ele>
        <time>2024-08-03T08:47:56Z</time>
      </trkpt>
      <trkpt lat="47.31241" lon="5.96483">
        <ele>245.8</ele>
        <time>2024-08-03T08:47:57Z</time>
      </trkpt>
      <trkpt lat="47.3124" lon="5.96479">
        <ele>245.6</ele>
        <time>2024-08-03T08:47:58Z</time>
      </trkpt>
      <trkpt lat="47.3124" lon="5.96476">
        <ele>245.2</ele>
        <time>2024-08-03T08:47:59Z</time>
      </trkpt>
      <trkpt lat="47.31241" lon="5.96471">
        <ele>245.4</ele>
        <time>2024-08-03T08:48:00Z</time>
      </trkpt>
      <trkpt lat="47.31242" lon="5.96467">
        <ele>245.4</ele>
        <time>2024-08-03T08:48:01Z</time>
      </trkpt>
      <trkpt lat="47.31244" lon="5.96462">
        <ele>245.2</ele>
        <time>2024-08-03T08:48:02Z</time>
      </trkpt>
      <trkpt lat="47.31245" lon="5.96457">
        <ele>245.4</ele>
        <time>2024-08-03T08:48:03Z</time>
      </trkpt>
      <trkpt lat="47.31246" lon="5.96452">
        <ele>245.4</ele>
        <time>2024-08-03T08:48:04Z</time>
      </trkpt>
      <trkpt lat="47.31245" lon="5.96445">
        <ele>245.4</ele>
        <time>2024-08-03T08:48:05Z</time>
      </trkpt>
      <trkpt lat="47.31244" lon="5.96439">
        <ele>245.2</ele>
        <time>2024-08-03T08:48:06Z</time>
      </trkpt>
      <trkpt lat="47.31242" lon="5.96435">
        <ele>245.2</ele>
        <time>2024-08-03T08:48:07Z</time>
      </trkpt>
      <trkpt lat="47.31239" lon="5.96431">
        <ele>245.2</ele>
        <time>2024-08-03T08:48:08Z</time>
      </trkpt>
      <trkpt lat="47.31236" lon="5.96428">
        <ele>245.2</ele>
        <time>2024-08-03T08:48:09Z</time>
      </trkpt>
      <trkpt lat="47.31233" lon="5.96425">
        <ele>245.2</ele>
        <time>2024-08-03T08:48:10Z</time>
      </trkpt>
      <trkpt lat="47.3123" lon="5.96422">
        <ele>245.2</ele>
        <time>2024-08-03T08:48:11Z</time>
      </trkpt>
      <trkpt lat="47.31226" lon="5.9642">
        <ele>245.2</ele>
        <time>2024-08-03T08:48:12Z</time>
      </trkpt>
      <trkpt lat="47.31222" lon="5.96418">
        <ele>245.2</ele>
        <time>2024-08-03T08:48:13Z</time>
      </trkpt>
      <trkpt lat="47.31219" lon="5.96417">
        <ele>245.2</ele>
        <time>2024-08-03T08:48:14Z</time>
      </trkpt>
      <trkpt lat="47.31215" lon="5.96415">
        <ele>245.2</ele>
        <time>2024-08-03T08:48:15Z</time>
      </trkpt>
      <trkpt lat="47.31211" lon="5.96413">
        <ele>245.2</ele>
        <time>2024-08-03T08:48:16Z</time>
      </trkpt>
      <trkpt lat="47.31208" lon="5.96411">
        <ele>245.2</ele>
        <time>2024-08-03T08:48:17Z</time>
      </trkpt>
      <trkpt lat="47.31205" lon="5.96408">
        <ele>245.4</ele>
        <time>2024-08-03T08:48:18Z</time>
      </trkpt>
      <trkpt lat="47.31201" lon="5.96407">
        <ele>245.2</ele>
        <time>2024-08-03T08:48:19Z</time>
      </trkpt>
      <trkpt lat="47.31196" lon="5.96406">
        <ele>245.2</ele>
        <time>2024-08-03T08:48:20Z</time>
      </trkpt>
      <trkpt lat="47.31193" lon="5.96405">
        <ele>245.4</ele>
        <time>2024-08-03T08:48:21Z</time>
      </trkpt>
      <trkpt lat="47.31188" lon="5.96405">
        <ele>245.4</ele>
        <time>2024-08-03T08:48:22Z</time>
      </trkpt>
      <trkpt lat="47.31184" lon="5.96406">
        <ele>245.4</ele>
        <time>2024-08-03T08:48:23Z</time>
      </trkpt>
      <trkpt lat="47.3118" lon="5.96407">
        <ele>245.4</ele>
        <time>2024-08-03T08:48:24Z</time>
      </trkpt>
      <trkpt lat="47.31175" lon="5.96408">
        <ele>245.6</ele>
        <time>2024-08-03T08:48:25Z</time>
      </trkpt>
      <trkpt lat="47.31171" lon="5.96408">
        <ele>245.6</ele>
        <time>2024-08-03T08:48:26Z</time>
      </trkpt>
      <trkpt lat="47.31166" lon="5.96408">
        <ele>245.6</ele>
        <time>2024-08-03T08:48:27Z</time>
      </trkpt>
      <trkpt lat="47.31161" lon="5.96407">
        <ele>245.6</ele>
        <time>2024-08-03T08:48:28Z</time>
      </trkpt>
      <trkpt lat="47.31156" lon="5.96406">
        <ele>245.6</ele>
        <time>2024-08-03T08:48:29Z</time>
      </trkpt>
      <trkpt lat="47.31153" lon="5.96403">
        <ele>245.6</ele>
        <time>2024-08-03T08:48:30Z</time>
      </trkpt>
      <trkpt lat="47.31151" lon="5.96397">
        <ele>245.6</ele>
        <time>2024-08-03T08:48:31Z</time>
      </trkpt>
      <trkpt lat="47.31148" lon="5.96391">
        <ele>245.6</ele>
        <time>2024-08-03T08:48:32Z</time>
      </trkpt>
      <trkpt lat="47.31146" lon="5.96386">
        <ele>245.6</ele>
        <time>2024-08-03T08:48:33Z</time>
      </trkpt>
      <trkpt lat="47.31143" lon="5.96381">
        <ele>245.8</ele>
        <time>2024-08-03T08:48:34Z</time>
      </trkpt>
      <trkpt lat="47.31141" lon="5.96375">
        <ele>246</ele>
        <time>2024-08-03T08:48:35Z</time>
      </trkpt>
      <trkpt lat="47.31139" lon="5.9637">
        <ele>246</ele>
        <time>2024-08-03T08:48:36Z</time>
      </trkpt>
      <trkpt lat="47.31137" lon="5.96364">
        <ele>246</ele>
        <time>2024-08-03T08:48:37Z</time>
      </trkpt>
      <trkpt lat="47.31136" lon="5.96358">
        <ele>246.2</ele>
        <time>2024-08-03T08:48:38Z</time>
      </trkpt>
      <trkpt lat="47.31133" lon="5.96352">
        <ele>246.2</ele>
        <time>2024-08-03T08:48:39Z</time>
      </trkpt>
      <trkpt lat="47.31132" lon="5.96346">
        <ele>246.4</ele>
        <time>2024-08-03T08:48:40Z</time>
      </trkpt>
      <trkpt lat="47.31129" lon="5.9634">
        <ele>246.4</ele>
        <time>2024-08-03T08:48:41Z</time>
      </trkpt>
      <trkpt lat="47.31127" lon="5.96334">
        <ele>246.6</ele>
        <time>2024-08-03T08:48:42Z</time>
      </trkpt>
      <trkpt lat="47.31125" lon="5.96328">
        <ele>246.4</ele>
        <time>2024-08-03T08:48:43Z</time>
      </trkpt>
      <trkpt lat="47.31122" lon="5.96322">
        <ele>246.6</ele>
        <time>2024-08-03T08:48:44Z</time>
      </trkpt>
      <trkpt lat="47.3112" lon="5.96317">
        <ele>246.8</ele>
        <time>2024-08-03T08:48:45Z</time>
      </trkpt>
      <trkpt lat="47.31118" lon="5.96311">
        <ele>246.8</ele>
        <time>2024-08-03T08:48:46Z</time>
      </trkpt>
      <trkpt lat="47.31116" lon="5.96304">
        <ele>246.8</ele>
        <time>2024-08-03T08:48:47Z</time>
      </trkpt>
      <trkpt lat="47.31115" lon="5.96297">
        <ele>246.8</ele>
        <time>2024-08-03T08:48:48Z</time>
      </trkpt>
      <trkpt lat="47.31113" lon="5.96292">
        <ele>247</ele>
        <time>2024-08-03T08:48:49Z</time>
      </trkpt>
      <trkpt lat="47.31111" lon="5.96286">
        <ele>247</ele>
        <time>2024-08-03T08:48:50Z</time>
      </trkpt>
      <trkpt lat="47.31109" lon="5.9628">
        <ele>247</ele>
        <time>2024-08-03T08:48:51Z</time>
      </trkpt>
      <trkpt lat="47.31107" lon="5.96275">
        <ele>247</ele>
        <time>2024-08-03T08:48:52Z</time>
      </trkpt>
      <trkpt lat="47.31104" lon="5.96269">
        <ele>247.2</ele>
        <time>2024-08-03T08:48:53Z</time>
      </trkpt>
      <trkpt lat="47.31103" lon="5.96264">
        <ele>247.2</ele>
        <time>2024-08-03T08:48:54Z</time>
      </trkpt>
      <trkpt lat="47.31101" lon="5.96258">
        <ele>247.4</ele>
        <time>2024-08-03T08:48:55Z</time>
      </trkpt>
      <trkpt lat="47.311" lon="5.96252">
        <ele>247.4</ele>
        <time>2024-08-03T08:48:56Z</time>
      </trkpt>
      <trkpt lat="47.31098" lon="5.96246">
        <ele>247.6</ele>
        <time>2024-08-03T08:48:57Z</time>
      </trkpt>
      <trkpt lat="47.31097" lon="5.9624">
        <ele>247.4</ele>
        <time>2024-08-03T08:48:58Z</time>
      </trkpt>
      <trkpt lat="47.31095" lon="5.96234">
        <ele>247.4</ele>
        <time>2024-08-03T08:48:59Z</time>
      </trkpt>
      <trkpt lat="47.31093" lon="5.96229">
        <ele>247.6</ele>
        <time>2024-08-03T08:49:00Z</time>
      </trkpt>
      <trkpt lat="47.31091" lon="5.96224">
        <ele>247.8</ele>
        <time>2024-08-03T08:49:01Z</time>
      </trkpt>
      <trkpt lat="47.31089" lon="5.96218">
        <ele>247.8</ele>
        <time>2024-08-03T08:49:02Z</time>
      </trkpt>
      <trkpt lat="47.31087" lon="5.96213">
        <ele>248</ele>
        <time>2024-08-03T08:49:03Z</time>
      </trkpt>
      <trkpt lat="47.31084" lon="5.96208">
        <ele>248</ele>
        <time>2024-08-03T08:49:04Z</time>
      </trkpt>
      <trkpt lat="47.31082" lon="5.96202">
        <ele>248</ele>
        <time>2024-08-03T08:49:05Z</time>
      </trkpt>
      <trkpt lat="47.3108" lon="5.96196">
        <ele>248</ele>
        <time>2024-08-03T08:49:06Z</time>
      </trkpt>
      <trkpt lat="47.31078" lon="5.96189">
        <ele>248</ele>
        <time>2024-08-03T08:49:07Z</time>
      </trkpt>
      <trkpt lat="47.31076" lon="5.96183">
        <ele>248</ele>
        <time>2024-08-03T08:49:08Z</time>
      </trkpt>
      <trkpt lat="47.31075" lon="5.96178">
        <ele>248</ele>
        <time>2024-08-03T08:49:09Z</time>
      </trkpt>
      <trkpt lat="47.31073" lon="5.96172">
        <ele>248</ele>
        <time>2024-08-03T08:49:10Z</time>
      </trkpt>
      <trkpt lat="47.31071" lon="5.96166">
        <ele>248.2</ele>
        <time>2024-08-03T08:49:11Z</time>
      </trkpt>
      <trkpt lat="47.31069" lon="5.9616">
        <ele>248</ele>
        <time>2024-08-03T08:49:12Z</time>
      </trkpt>
      <trkpt lat="47.31066" lon="5.96154">
        <ele>248</ele>
        <time>2024-08-03T08:49:13Z</time>
      </trkpt>
      <trkpt lat="47.31065" lon="5.96148">
        <ele>248</ele>
        <time>2024-08-03T08:49:14Z</time>
      </trkpt>
      <trkpt lat="47.31063" lon="5.96143">
        <ele>248.2</ele>
        <time>2024-08-03T08:49:15Z</time>
      </trkpt>
      <trkpt lat="47.31061" lon="5.96137">
        <ele>248</ele>
        <time>2024-08-03T08:49:16Z</time>
      </trkpt>
      <trkpt lat="47.31059" lon="5.96131">
        <ele>248.2</ele>
        <time>2024-08-03T08:49:17Z</time>
      </trkpt>
      <trkpt lat="47.31057" lon="5.96126">
        <ele>248</ele>
        <time>2024-08-03T08:49:18Z</time>
      </trkpt>
      <trkpt lat="47.31055" lon="5.96121">
        <ele>248.2</ele>
        <time>2024-08-03T08:49:19Z</time>
      </trkpt>
      <trkpt lat="47.31052" lon="5.96115">
        <ele>248.2</ele>
        <time>2024-08-03T08:49:20Z</time>
      </trkpt>
      <trkpt lat="47.3105" lon="5.9611">
        <ele>248</ele>
        <time>2024-08-03T08:49:21Z</time>
      </trkpt>
      <trkpt lat="47.31049" lon="5.96104">
        <ele>248.2</ele>
        <time>2024-08-03T08:49:22Z</time>
      </trkpt>
      <trkpt lat="47.31048" lon="5.96098">
        <ele>248.2</ele>
        <time>2024-08-03T08:49:23Z</time>
      </trkpt>
      <trkpt lat="47.31045" lon="5.96092">
        <ele>248.2</ele>
        <time>2024-08-03T08:49:24Z</time>
      </trkpt>
      <trkpt lat="47.31044" lon="5.96086">
        <ele>248.4</ele>
        <time>2024-08-03T08:49:25Z</time>
      </trkpt>
      <trkpt lat="47.31042" lon="5.9608">
        <ele>248.4</ele>
        <time>2024-08-03T08:49:26Z</time>
      </trkpt>
      <trkpt lat="47.3104" lon="5.96074">
        <ele>248.4</ele>
        <time>2024-08-03T08:49:27Z</time>
      </trkpt>
      <trkpt lat="47.31038" lon="5.96069">
        <ele>248.6</ele>
        <time>2024-08-03T08:49:28Z</time>
      </trkpt>
      <trkpt lat="47.31035" lon="5.96064">
        <ele>248.6</ele>
        <time>2024-08-03T08:49:29Z</time>
      </trkpt>
      <trkpt lat="47.31033" lon="5.96058">
        <ele>248.8</ele>
        <time>2024-08-03T08:49:30Z</time>
      </trkpt>
      <trkpt lat="47.31032" lon="5.96053">
        <ele>249</ele>
        <time>2024-08-03T08:49:31Z</time>
      </trkpt>
      <trkpt lat="47.31029" lon="5.96048">
        <ele>249</ele>
        <time>2024-08-03T08:49:32Z</time>
      </trkpt>
      <trkpt lat="47.31027" lon="5.96042">
        <ele>249</ele>
        <time>2024-08-03T08:49:33Z</time>
      </trkpt>
      <trkpt lat="47.31025" lon="5.96037">
        <ele>249</ele>
        <time>2024-08-03T08:49:34Z</time>
      </trkpt>
      <trkpt lat="47.31023" lon="5.96031">
        <ele>249</ele>
        <time>2024-08-03T08:49:35Z</time>
      </trkpt>
      <trkpt lat="47.31021" lon="5.96026">
        <ele>249.2</ele>
        <time>2024-08-03T08:49:36Z</time>
      </trkpt>
      <trkpt lat="47.31019" lon="5.96019">
        <ele>249.2</ele>
        <time>2024-08-03T08:49:37Z</time>
      </trkpt>
      <trkpt lat="47.31018" lon="5.96014">
        <ele>249.4</ele>
        <time>2024-08-03T08:49:38Z</time>
      </trkpt>
      <trkpt lat="47.31016" lon="5.96008">
        <ele>249.6</ele>
        <time>2024-08-03T08:49:39Z</time>
      </trkpt>
      <trkpt lat="47.31014" lon="5.96001">
        <ele>249.6</ele>
        <time>2024-08-03T08:49:40Z</time>
      </trkpt>
      <trkpt lat="47.31012" lon="5.95996">
        <ele>249.6</ele>
        <time>2024-08-03T08:49:41Z</time>
      </trkpt>
      <trkpt lat="47.3101" lon="5.95989">
        <ele>249.8</ele>
        <time>2024-08-03T08:49:42Z</time>
      </trkpt>
      <trkpt lat="47.31009" lon="5.95983">
        <ele>250</ele>
        <time>2024-08-03T08:49:43Z</time>
      </trkpt>
      <trkpt lat="47.31007" lon="5.95978">
        <ele>250.2</ele>
        <time>2024-08-03T08:49:44Z</time>
      </trkpt>
      <trkpt lat="47.31005" lon="5.95972">
        <ele>250.2</ele>
        <time>2024-08-03T08:49:45Z</time>
      </trkpt>
      <trkpt lat="47.31003" lon="5.95966">
        <ele>250.4</ele>
        <time>2024-08-03T08:49:46Z</time>
      </trkpt>
      <trkpt lat="47.31002" lon="5.95959">
        <ele>250.6</ele>
        <time>2024-08-03T08:49:47Z</time>
      </trkpt>
      <trkpt lat="47.31" lon="5.95952">
        <ele>250.6</ele>
        <time>2024-08-03T08:49:48Z</time>
      </trkpt>
      <trkpt lat="47.30999" lon="5.95946">
        <ele>250.6</ele>
        <time>2024-08-03T08:49:49Z</time>
      </trkpt>
      <trkpt lat="47.30998" lon="5.95939">
        <ele>250.6</ele>
        <time>2024-08-03T08:49:50Z</time>
      </trkpt>
      <trkpt lat="47.30998" lon="5.95932">
        <ele>250.6</ele>
        <time>2024-08-03T08:49:51Z</time>
      </trkpt>
      <trkpt lat="47.30998" lon="5.95925">
        <ele>250.6</ele>
        <time>2024-08-03T08:49:52Z</time>
      </trkpt>
      <trkpt lat="47.30999" lon="5.95918">
        <ele>250.8</ele>
        <time>2024-08-03T08:49:53Z</time>
      </trkpt>
      <trkpt lat="47.31" lon="5.95912">
        <ele>250.8</ele>
        <time>2024-08-03T08:49:54Z</time>
      </trkpt>
      <trkpt lat="47.31001" lon="5.95906">
        <ele>250.8</ele>
        <time>2024-08-03T08:49:55Z</time>
      </trkpt>
      <trkpt lat="47.31" lon="5.959">
        <ele>251</ele>
        <time>2024-08-03T08:49:56Z</time>
      </trkpt>
      <trkpt lat="47.31" lon="5.95894">
        <ele>251</ele>
        <time>2024-08-03T08:49:57Z</time>
      </trkpt>
      <trkpt lat="47.30999" lon="5.95888">
        <ele>251</ele>
        <time>2024-08-03T08:49:58Z</time>
      </trkpt>
      <trkpt lat="47.30998" lon="5.95882">
        <ele>251</ele>
        <time>2024-08-03T08:49:59Z</time>
      </trkpt>
      <trkpt lat="47.30997" lon="5.95877">
        <ele>251</ele>
        <time>2024-08-03T08:50:00Z</time>
      </trkpt>
      <trkpt lat="47.30996" lon="5.95871">
        <ele>251.2</ele>
        <time>2024-08-03T08:50:01Z</time>
      </trkpt>
      <trkpt lat="47.30994" lon="5.95867">
        <ele>251.2</ele>
        <time>2024-08-03T08:50:02Z</time>
      </trkpt>
      <trkpt lat="47.30993" lon="5.95862">
        <ele>251</ele>
        <time>2024-08-03T08:50:03Z</time>
      </trkpt>
      <trkpt lat="47.30991" lon="5.95857">
        <ele>251.2</ele>
        <time>2024-08-03T08:50:04Z</time>
      </trkpt>
      <trkpt lat="47.30989" lon="5.95852">
        <ele>251.2</ele>
        <time>2024-08-03T08:50:05Z</time>
      </trkpt>
      <trkpt lat="47.30987" lon="5.95846">
        <ele>251.2</ele>
        <time>2024-08-03T08:50:06Z</time>
      </trkpt>
      <trkpt lat="47.30986" lon="5.95841">
        <ele>251.4</ele>
        <time>2024-08-03T08:50:07Z</time>
      </trkpt>
      <trkpt lat="47.30984" lon="5.95836">
        <ele>251.6</ele>
        <time>2024-08-03T08:50:08Z</time>
      </trkpt>
      <trkpt lat="47.30983" lon="5.95831">
        <ele>251.6</ele>
        <time>2024-08-03T08:50:09Z</time>
      </trkpt>
      <trkpt lat="47.30982" lon="5.95825">
        <ele>251.6</ele>
        <time>2024-08-03T08:50:10Z</time>
      </trkpt>
      <trkpt lat="47.30981" lon="5.9582">
        <ele>252</ele>
        <time>2024-08-03T08:50:11Z</time>
      </trkpt>
      <trkpt lat="47.3098" lon="5.95814">
        <ele>252.4</ele>
        <time>2024-08-03T08:50:12Z</time>
      </trkpt>
      <trkpt lat="47.30978" lon="5.95809">
        <ele>252.2</ele>
        <time>2024-08-03T08:50:13Z</time>
      </trkpt>
      <trkpt lat="47.30977" lon="5.95804">
        <ele>252.4</ele>
        <time>2024-08-03T08:50:14Z</time>
      </trkpt>
      <trkpt lat="47.30975" lon="5.95799">
        <ele>252.6</ele>
        <time>2024-08-03T08:50:15Z</time>
      </trkpt>
      <trkpt lat="47.30974" lon="5.95794">
        <ele>252.6</ele>
        <time>2024-08-03T08:50:16Z</time>
      </trkpt>
      <trkpt lat="47.30973" lon="5.95789">
        <ele>252.8</ele>
        <time>2024-08-03T08:50:17Z</time>
      </trkpt>
      <trkpt lat="47.30971" lon="5.95784">
        <ele>253</ele>
        <time>2024-08-03T08:50:18Z</time>
      </trkpt>
      <trkpt lat="47.3097" lon="5.95779">
        <ele>253</ele>
        <time>2024-08-03T08:50:19Z</time>
      </trkpt>
      <trkpt lat="47.30969" lon="5.95773">
        <ele>253</ele>
        <time>2024-08-03T08:50:20Z</time>
      </trkpt>
      <trkpt lat="47.30967" lon="5.95768">
        <ele>253.4</ele>
        <time>2024-08-03T08:50:21Z</time>
      </trkpt>
      <trkpt lat="47.30966" lon="5.95764">
        <ele>253.6</ele>
        <time>2024-08-03T08:50:22Z</time>
      </trkpt>
      <trkpt lat="47.30964" lon="5.95759">
        <ele>253.6</ele>
        <time>2024-08-03T08:50:23Z</time>
      </trkpt>
      <trkpt lat="47.30962" lon="5.95755">
        <ele>253.8</ele>
        <time>2024-08-03T08:50:24Z</time>
      </trkpt>
      <trkpt lat="47.3096" lon="5.9575">
        <ele>254</ele>
        <time>2024-08-03T08:50:25Z</time>
      </trkpt>
      <trkpt lat="47.30958" lon="5.95745">
        <ele>254</ele>
        <time>2024-08-03T08:50:26Z</time>
      </trkpt>
      <trkpt lat="47.30957" lon="5.9574">
        <ele>254.2</ele>
        <time>2024-08-03T08:50:27Z</time>
      </trkpt>
      <trkpt lat="47.30956" lon="5.95735">
        <ele>254.4</ele>
        <time>2024-08-03T08:50:28Z</time>
      </trkpt>
      <trkpt lat="47.30955" lon="5.9573">
        <ele>254.6</ele>
        <time>2024-08-03T08:50:29Z</time>
      </trkpt>
      <trkpt lat="47.30954" lon="5.95725">
        <ele>254.8</ele>
        <time>2024-08-03T08:50:30Z</time>
      </trkpt>
      <trkpt lat="47.30953" lon="5.95721">
        <ele>255</ele>
        <time>2024-08-03T08:50:31Z</time>
      </trkpt>
      <trkpt lat="47.30951" lon="5.95715">
        <ele>255.2</ele>
        <time>2024-08-03T08:50:32Z</time>
      </trkpt>
      <trkpt lat="47.3095" lon="5.9571">
        <ele>255.2</ele>
        <time>2024-08-03T08:50:33Z</time>
      </trkpt>
      <trkpt lat="47.30949" lon="5.95704">
        <ele>255.2</ele>
        <time>2024-08-03T08:50:34Z</time>
      </trkpt>
      <trkpt lat="47.30949" lon="5.95697">
        <ele>255.6</ele>
        <time>2024-08-03T08:50:35Z</time>
      </trkpt>
      <trkpt lat="47.30948" lon="5.9569">
        <ele>255.6</ele>
        <time>2024-08-03T08:50:36Z</time>
      </trkpt>
      <trkpt lat="47.30947" lon="5.95684">
        <ele>255.8</ele>
        <time>2024-08-03T08:50:37Z</time>
      </trkpt>
      <trkpt lat="47.30946" lon="5.95678">
        <ele>256.2</ele>
        <time>2024-08-03T08:50:38Z</time>
      </trkpt>
      <trkpt lat="47.30945" lon="5.95672">
        <ele>256.2</ele>
        <time>2024-08-03T08:50:39Z</time>
      </trkpt>
      <trkpt lat="47.30944" lon="5.95666">
        <ele>256.4</ele>
        <time>2024-08-03T08:50:40Z</time>
      </trkpt>
      <trkpt lat="47.30944" lon="5.95659">
        <ele>256.4</ele>
        <time>2024-08-03T08:50:41Z</time>
      </trkpt>
      <trkpt lat="47.30943" lon="5.95653">
        <ele>256.4</ele>
        <time>2024-08-03T08:50:42Z</time>
      </trkpt>
      <trkpt lat="47.30941" lon="5.95646">
        <ele>256.6</ele>
        <time>2024-08-03T08:50:43Z</time>
      </trkpt>
      <trkpt lat="47.3094" lon="5.9564">
        <ele>256.6</ele>
        <time>2024-08-03T08:50:44Z</time>
      </trkpt>
      <trkpt lat="47.30939" lon="5.95634">
        <ele>256.6</ele>
        <time>2024-08-03T08:50:45Z</time>
      </trkpt>
      <trkpt lat="47.30937" lon="5.95627">
        <ele>256.8</ele>
        <time>2024-08-03T08:50:46Z</time>
      </trkpt>
      <trkpt lat="47.30936" lon="5.95621">
        <ele>256.8</ele>
        <time>2024-08-03T08:50:47Z</time>
      </trkpt>
      <trkpt lat="47.30934" lon="5.95615">
        <ele>256.8</ele>
        <time>2024-08-03T08:50:48Z</time>
      </trkpt>
      <trkpt lat="47.30932" lon="5.95609">
        <ele>257</ele>
        <time>2024-08-03T08:50:49Z</time>
      </trkpt>
      <trkpt lat="47.30931" lon="5.95603">
        <ele>257</ele>
        <time>2024-08-03T08:50:50Z</time>
      </trkpt>
      <trkpt lat="47.30929" lon="5.95596">
        <ele>257</ele>
        <time>2024-08-03T08:50:51Z</time>
      </trkpt>
      <trkpt lat="47.30928" lon="5.9559">
        <ele>257</ele>
        <time>2024-08-03T08:50:52Z</time>
      </trkpt>
      <trkpt lat="47.30926" lon="5.95583">
        <ele>256.8</ele>
        <time>2024-08-03T08:50:53Z</time>
      </trkpt>
      <trkpt lat="47.30925" lon="5.95575">
        <ele>256.8</ele>
        <time>2024-08-03T08:50:54Z</time>
      </trkpt>
      <trkpt lat="47.30924" lon="5.95568">
        <ele>257</ele>
        <time>2024-08-03T08:50:55Z</time>
      </trkpt>
      <trkpt lat="47.30922" lon="5.95561">
        <ele>257</ele>
        <time>2024-08-03T08:50:56Z</time>
      </trkpt>
      <trkpt lat="47.3092" lon="5.95555">
        <ele>257</ele>
        <time>2024-08-03T08:50:57Z</time>
      </trkpt>
      <trkpt lat="47.30919" lon="5.95548">
        <ele>256.8</ele>
        <time>2024-08-03T08:50:58Z</time>
      </trkpt>
      <trkpt lat="47.30917" lon="5.95542">
        <ele>256.6</ele>
        <time>2024-08-03T08:50:59Z</time>
      </trkpt>
      <trkpt lat="47.30914" lon="5.95536">
        <ele>256.8</ele>
        <time>2024-08-03T08:51:00Z</time>
      </trkpt>
      <trkpt lat="47.30912" lon="5.9553">
        <ele>256.6</ele>
        <time>2024-08-03T08:51:01Z</time>
      </trkpt>
      <trkpt lat="47.3091" lon="5.95524">
        <ele>256.4</ele>
        <time>2024-08-03T08:51:02Z</time>
      </trkpt>
      <trkpt lat="47.30908" lon="5.95516">
        <ele>256.4</ele>
        <time>2024-08-03T08:51:03Z</time>
      </trkpt>
      <trkpt lat="47.30906" lon="5.95509">
        <ele>256.2</ele>
        <time>2024-08-03T08:51:04Z</time>
      </trkpt>
      <trkpt lat="47.30903" lon="5.95501">
        <ele>256.4</ele>
        <time>2024-08-03T08:51:05Z</time>
      </trkpt>
      <trkpt lat="47.30902" lon="5.95493">
        <ele>256.2</ele>
        <time>2024-08-03T08:51:06Z</time>
      </trkpt>
      <trkpt lat="47.309" lon="5.95486">
        <ele>255.8</ele>
        <time>2024-08-03T08:51:07Z</time>
      </trkpt>
      <trkpt lat="47.30899" lon="5.95478">
        <ele>255.6</ele>
        <time>2024-08-03T08:51:08Z</time>
      </trkpt>
      <trkpt lat="47.30898" lon="5.9547">
        <ele>255.6</ele>
        <time>2024-08-03T08:51:09Z</time>
      </trkpt>
      <trkpt lat="47.30898" lon="5.95463">
        <ele>255.6</ele>
        <time>2024-08-03T08:51:10Z</time>
      </trkpt>
      <trkpt lat="47.30899" lon="5.95454">
        <ele>255.4</ele>
        <time>2024-08-03T08:51:11Z</time>
      </trkpt>
      <trkpt lat="47.30899" lon="5.95446">
        <ele>255.4</ele>
        <time>2024-08-03T08:51:12Z</time>
      </trkpt>
      <trkpt lat="47.309" lon="5.95439">
        <ele>255</ele>
        <time>2024-08-03T08:51:13Z</time>
      </trkpt>
      <trkpt lat="47.30901" lon="5.95431">
        <ele>254.6</ele>
        <time>2024-08-03T08:51:14Z</time>
      </trkpt>
      <trkpt lat="47.30901" lon="5.95424">
        <ele>254.6</ele>
        <time>2024-08-03T08:51:15Z</time>
      </trkpt>
      <trkpt lat="47.30902" lon="5.95416">
        <ele>254.6</ele>
        <time>2024-08-03T08:51:16Z</time>
      </trkpt>
      <trkpt lat="47.30902" lon="5.95408">
        <ele>254.2</ele>
        <time>2024-08-03T08:51:17Z</time>
      </trkpt>
      <trkpt lat="47.30901" lon="5.95401">
        <ele>254</ele>
        <time>2024-08-03T08:51:18Z</time>
      </trkpt>
      <trkpt lat="47.30901" lon="5.95394">
        <ele>254</ele>
        <time>2024-08-03T08:51:19Z</time>
      </trkpt>
      <trkpt lat="47.309" lon="5.95387">
        <ele>253.8</ele>
        <time>2024-08-03T08:51:20Z</time>
      </trkpt>
      <trkpt lat="47.30898" lon="5.95379">
        <ele>253.6</ele>
        <time>2024-08-03T08:51:21Z</time>
      </trkpt>
      <trkpt lat="47.30896" lon="5.95371">
        <ele>253.4</ele>
        <time>2024-08-03T08:51:22Z</time>
      </trkpt>
      <trkpt lat="47.30894" lon="5.95364">
        <ele>253</ele>
        <time>2024-08-03T08:51:23Z</time>
      </trkpt>
      <trkpt lat="47.30893" lon="5.95357">
        <ele>252.6</ele>
        <time>2024-08-03T08:51:24Z</time>
      </trkpt>
      <trkpt lat="47.30892" lon="5.9535">
        <ele>252.6</ele>
        <time>2024-08-03T08:51:25Z</time>
      </trkpt>
      <trkpt lat="47.3089" lon="5.95342">
        <ele>252.4</ele>
        <time>2024-08-03T08:51:26Z</time>
      </trkpt>
      <trkpt lat="47.30889" lon="5.95334">
        <ele>252</ele>
        <time>2024-08-03T08:51:27Z</time>
      </trkpt>
      <trkpt lat="47.30889" lon="5.95327">
        <ele>252.2</ele>
        <time>2024-08-03T08:51:28Z</time>
      </trkpt>
      <trkpt lat="47.30887" lon="5.9532">
        <ele>252</ele>
        <time>2024-08-03T08:51:29Z</time>
      </trkpt>
      <trkpt lat="47.30886" lon="5.95313">
        <ele>252</ele>
        <time>2024-08-03T08:51:30Z</time>
      </trkpt>
      <trkpt lat="47.30886" lon="5.95306">
        <ele>252</ele>
        <time>2024-08-03T08:51:31Z</time>
      </trkpt>
      <trkpt lat="47.30886" lon="5.953">
        <ele>252</ele>
        <time>2024-08-03T08:51:32Z</time>
      </trkpt>
      <trkpt lat="47.30886" lon="5.95293">
        <ele>252</ele>
        <time>2024-08-03T08:51:33Z</time>
      </trkpt>
      <trkpt lat="47.30886" lon="5.95287">
        <ele>252</ele>
        <time>2024-08-03T08:51:34Z</time>
      </trkpt>
      <trkpt lat="47.30885" lon="5.9528">
        <ele>252</ele>
        <time>2024-08-03T08:51:35Z</time>
      </trkpt>
      <trkpt lat="47.30885" lon="5.95274">
        <ele>252.2</ele>
        <time>2024-08-03T08:51:36Z</time>
      </trkpt>
      <trkpt lat="47.30884" lon="5.95267">
        <ele>252.4</ele>
        <time>2024-08-03T08:51:37Z</time>
      </trkpt>
      <trkpt lat="47.30884" lon="5.95261">
        <ele>252.8</ele>
        <time>2024-08-03T08:51:38Z</time>
      </trkpt>
      <trkpt lat="47.30882" lon="5.95253">
        <ele>253</ele>
        <time>2024-08-03T08:51:39Z</time>
      </trkpt>
      <trkpt lat="47.30882" lon="5.95246">
        <ele>253.2</ele>
        <time>2024-08-03T08:51:40Z</time>
      </trkpt>
      <trkpt lat="47.30881" lon="5.95239">
        <ele>253.4</ele>
        <time>2024-08-03T08:51:41Z</time>
      </trkpt>
      <trkpt lat="47.30881" lon="5.95232">
        <ele>253.6</ele>
        <time>2024-08-03T08:51:42Z</time>
      </trkpt>
      <trkpt lat="47.3088" lon="5.95225">
        <ele>253.4</ele>
        <time>2024-08-03T08:51:43Z</time>
      </trkpt>
      <trkpt lat="47.30879" lon="5.95218">
        <ele>253.6</ele>
        <time>2024-08-03T08:51:44Z</time>
      </trkpt>
      <trkpt lat="47.30877" lon="5.9521">
        <ele>253.6</ele>
        <time>2024-08-03T08:51:45Z</time>
      </trkpt>
      <trkpt lat="47.30874" lon="5.95201">
        <ele>253.8</ele>
        <time>2024-08-03T08:51:46Z</time>
      </trkpt>
      <trkpt lat="47.30871" lon="5.95192">
        <ele>253.8</ele>
        <time>2024-08-03T08:51:47Z</time>
      </trkpt>
      <trkpt lat="47.30869" lon="5.95184">
        <ele>253.8</ele>
        <time>2024-08-03T08:51:48Z</time>
      </trkpt>
      <trkpt lat="47.30867" lon="5.95177">
        <ele>253.6</ele>
        <time>2024-08-03T08:51:49Z</time>
      </trkpt>
      <trkpt lat="47.30865" lon="5.95169">
        <ele>253.6</ele>
        <time>2024-08-03T08:51:50Z</time>
      </trkpt>
      <trkpt lat="47.30863" lon="5.95161">
        <ele>253.8</ele>
        <time>2024-08-03T08:51:51Z</time>
      </trkpt>
      <trkpt lat="47.30861" lon="5.95151">
        <ele>253.6</ele>
        <time>2024-08-03T08:51:52Z</time>
      </trkpt>
      <trkpt lat="47.30858" lon="5.95139">
        <ele>253.6</ele>
        <time>2024-08-03T08:51:53Z</time>
      </trkpt>
      <trkpt lat="47.30855" lon="5.95129">
        <ele>253.4</ele>
        <time>2024-08-03T08:51:54Z</time>
      </trkpt>
      <trkpt lat="47.30852" lon="5.95117">
        <ele>253.2</ele>
        <time>2024-08-03T08:51:55Z</time>
      </trkpt>
      <trkpt lat="47.30849" lon="5.95107">
        <ele>252.6</ele>
        <time>2024-08-03T08:51:56Z</time>
      </trkpt>
      <trkpt lat="47.30847" lon="5.95097">
        <ele>252.6</ele>
        <time>2024-08-03T08:51:57Z</time>
      </trkpt>
      <trkpt lat="47.30844" lon="5.95086">
        <ele>252</ele>
        <time>2024-08-03T08:51:58Z</time>
      </trkpt>
      <trkpt lat="47.30841" lon="5.95075">
        <ele>251.4</ele>
        <time>2024-08-03T08:51:59Z</time>
      </trkpt>
      <trkpt lat="47.30839" lon="5.95063">
        <ele>250.8</ele>
        <time>2024-08-03T08:52:00Z</time>
      </trkpt>
      <trkpt lat="47.30837" lon="5.95051">
        <ele>250.2</ele>
        <time>2024-08-03T08:52:01Z</time>
      </trkpt>
      <trkpt lat="47.30834" lon="5.95039">
        <ele>249.8</ele>
        <time>2024-08-03T08:52:02Z</time>
      </trkpt>
      <trkpt lat="47.30831" lon="5.95029">
        <ele>249.4</ele>
        <time>2024-08-03T08:52:03Z</time>
      </trkpt>
      <trkpt lat="47.3083" lon="5.95016">
        <ele>248.8</ele>
        <time>2024-08-03T08:52:04Z</time>
      </trkpt>
      <trkpt lat="47.30828" lon="5.95006">
        <ele>248.6</ele>
        <time>2024-08-03T08:52:05Z</time>
      </trkpt>
      <trkpt lat="47.30826" lon="5.94996">
        <ele>248.4</ele>
        <time>2024-08-03T08:52:06Z</time>
      </trkpt>
      <trkpt lat="47.30824" lon="5.94987">
        <ele>248</ele>
        <time>2024-08-03T08:52:07Z</time>
      </trkpt>
      <trkpt lat="47.3082" lon="5.94976">
        <ele>247.6</ele>
        <time>2024-08-03T08:52:08Z</time>
      </trkpt>
      <trkpt lat="47.30818" lon="5.94968">
        <ele>247.6</ele>
        <time>2024-08-03T08:52:09Z</time>
      </trkpt>
      <trkpt lat="47.30816" lon="5.94959">
        <ele>247.4</ele>
        <time>2024-08-03T08:52:10Z</time>
      </trkpt>
      <trkpt lat="47.30814" lon="5.9495">
        <ele>247.4</ele>
        <time>2024-08-03T08:52:11Z</time>
      </trkpt>
      <trkpt lat="47.30812" lon="5.9494">
        <ele>247.2</ele>
        <time>2024-08-03T08:52:12Z</time>
      </trkpt>
      <trkpt lat="47.3081" lon="5.94929">
        <ele>247.2</ele>
        <time>2024-08-03T08:52:13Z</time>
      </trkpt>
      <trkpt lat="47.30809" lon="5.9492">
        <ele>247</ele>
        <time>2024-08-03T08:52:14Z</time>
      </trkpt>
      <trkpt lat="47.30807" lon="5.94912">
        <ele>247</ele>
        <time>2024-08-03T08:52:15Z</time>
      </trkpt>
      <trkpt lat="47.30806" lon="5.94905">
        <ele>246.8</ele>
        <time>2024-08-03T08:52:16Z</time>
      </trkpt>
      <trkpt lat="47.30803" lon="5.94898">
        <ele>247</ele>
        <time>2024-08-03T08:52:17Z</time>
      </trkpt>
      <trkpt lat="47.30801" lon="5.94891">
        <ele>246.8</ele>
        <time>2024-08-03T08:52:18Z</time>
      </trkpt>
      <trkpt lat="47.308" lon="5.94885">
        <ele>247</ele>
        <time>2024-08-03T08:52:19Z</time>
      </trkpt>
      <trkpt lat="47.30798" lon="5.94879">
        <ele>246.8</ele>
        <time>2024-08-03T08:52:20Z</time>
      </trkpt>
      <trkpt lat="47.30797" lon="5.94872">
        <ele>247</ele>
        <time>2024-08-03T08:52:21Z</time>
      </trkpt>
      <trkpt lat="47.30796" lon="5.94864">
        <ele>247</ele>
        <time>2024-08-03T08:52:22Z</time>
      </trkpt>
      <trkpt lat="47.30796" lon="5.94856">
        <ele>247</ele>
        <time>2024-08-03T08:52:23Z</time>
      </trkpt>
      <trkpt lat="47.30795" lon="5.94849">
        <ele>247</ele>
        <time>2024-08-03T08:52:24Z</time>
      </trkpt>
      <trkpt lat="47.30795" lon="5.94842">
        <ele>247</ele>
        <time>2024-08-03T08:52:25Z</time>
      </trkpt>
      <trkpt lat="47.30795" lon="5.94835">
        <ele>247</ele>
        <time>2024-08-03T08:52:26Z</time>
      </trkpt>
      <trkpt lat="47.30793" lon="5.94828">
        <ele>247.2</ele>
        <time>2024-08-03T08:52:27Z</time>
      </trkpt>
      <trkpt lat="47.30792" lon="5.94822">
        <ele>247.2</ele>
        <time>2024-08-03T08:52:28Z</time>
      </trkpt>
      <trkpt lat="47.30791" lon="5.94815">
        <ele>247.2</ele>
        <time>2024-08-03T08:52:29Z</time>
      </trkpt>
      <trkpt lat="47.30789" lon="5.94809">
        <ele>247.4</ele>
        <time>2024-08-03T08:52:30Z</time>
      </trkpt>
      <trkpt lat="47.30788" lon="5.94803">
        <ele>247.4</ele>
        <time>2024-08-03T08:52:31Z</time>
      </trkpt>
      <trkpt lat="47.30787" lon="5.94798">
        <ele>247.4</ele>
        <time>2024-08-03T08:52:32Z</time>
      </trkpt>
      <trkpt lat="47.30787" lon="5.9479">
        <ele>247.4</ele>
        <time>2024-08-03T08:52:33Z</time>
      </trkpt>
      <trkpt lat="47.30786" lon="5.94782">
        <ele>247.4</ele>
        <time>2024-08-03T08:52:34Z</time>
      </trkpt>
      <trkpt lat="47.30785" lon="5.94776">
        <ele>247.4</ele>
        <time>2024-08-03T08:52:35Z</time>
      </trkpt>
      <trkpt lat="47.30783" lon="5.94769">
        <ele>247.4</ele>
        <time>2024-08-03T08:52:36Z</time>
      </trkpt>
      <trkpt lat="47.30782" lon="5.9476">
        <ele>247.6</ele>
        <time>2024-08-03T08:52:37Z</time>
      </trkpt>
      <trkpt lat="47.3078" lon="5.94751">
        <ele>247.6</ele>
        <time>2024-08-03T08:52:38Z</time>
      </trkpt>
      <trkpt lat="47.30778" lon="5.94742">
        <ele>247.4</ele>
        <time>2024-08-03T08:52:39Z</time>
      </trkpt>
      <trkpt lat="47.30776" lon="5.94735">
        <ele>247.6</ele>
        <time>2024-08-03T08:52:40Z</time>
      </trkpt>
      <trkpt lat="47.30774" lon="5.94727">
        <ele>247.6</ele>
        <time>2024-08-03T08:52:41Z</time>
      </trkpt>
      <trkpt lat="47.30772" lon="5.94719">
        <ele>247.8</ele>
        <time>2024-08-03T08:52:42Z</time>
      </trkpt>
      <trkpt lat="47.3077" lon="5.94712">
        <ele>247.8</ele>
        <time>2024-08-03T08:52:43Z</time>
      </trkpt>
      <trkpt lat="47.30769" lon="5.94705">
        <ele>247.8</ele>
        <time>2024-08-03T08:52:44Z</time>
      </trkpt>
      <trkpt lat="47.30768" lon="5.94698">
        <ele>248</ele>
        <time>2024-08-03T08:52:45Z</time>
      </trkpt>
      <trkpt lat="47.30767" lon="5.94691">
        <ele>248</ele>
        <time>2024-08-03T08:52:46Z</time>
      </trkpt>
      <trkpt lat="47.30766" lon="5.94684">
        <ele>248.2</ele>
        <time>2024-08-03T08:52:47Z</time>
      </trkpt>
      <trkpt lat="47.30765" lon="5.94677">
        <ele>248.2</ele>
        <time>2024-08-03T08:52:48Z</time>
      </trkpt>
      <trkpt lat="47.30764" lon="5.9467">
        <ele>248.2</ele>
        <time>2024-08-03T08:52:49Z</time>
      </trkpt>
      <trkpt lat="47.30762" lon="5.94663">
        <ele>248.2</ele>
        <time>2024-08-03T08:52:50Z</time>
      </trkpt>
      <trkpt lat="47.30761" lon="5.94656">
        <ele>248.6</ele>
        <time>2024-08-03T08:52:51Z</time>
      </trkpt>
      <trkpt lat="47.3076" lon="5.9465">
        <ele>248.6</ele>
        <time>2024-08-03T08:52:52Z</time>
      </trkpt>
      <trkpt lat="47.30759" lon="5.94642">
        <ele>248.6</ele>
        <time>2024-08-03T08:52:53Z</time>
      </trkpt>
      <trkpt lat="47.30758" lon="5.94634">
        <ele>249</ele>
        <time>2024-08-03T08:52:54Z</time>
      </trkpt>
      <trkpt lat="47.30756" lon="5.94626">
        <ele>249.2</ele>
        <time>2024-08-03T08:52:55Z</time>
      </trkpt>
      <trkpt lat="47.30755" lon="5.94619">
        <ele>249.6</ele>
        <time>2024-08-03T08:52:56Z</time>
      </trkpt>
      <trkpt lat="47.30753" lon="5.94612">
        <ele>249.8</ele>
        <time>2024-08-03T08:52:57Z</time>
      </trkpt>
      <trkpt lat="47.30751" lon="5.94606">
        <ele>250</ele>
        <time>2024-08-03T08:52:58Z</time>
      </trkpt>
      <trkpt lat="47.3075" lon="5.946">
        <ele>250.2</ele>
        <time>2024-08-03T08:52:59Z</time>
      </trkpt>
      <trkpt lat="47.30748" lon="5.94593">
        <ele>250.2</ele>
        <time>2024-08-03T08:53:00Z</time>
      </trkpt>
      <trkpt lat="47.30747" lon="5.94588">
        <ele>250.2</ele>
        <time>2024-08-03T08:53:01Z</time>
      </trkpt>
      <trkpt lat="47.30745" lon="5.94583">
        <ele>250.4</ele>
        <time>2024-08-03T08:53:02Z</time>
      </trkpt>
      <trkpt lat="47.30743" lon="5.94576">
        <ele>250.2</ele>
        <time>2024-08-03T08:53:03Z</time>
      </trkpt>
      <trkpt lat="47.30742" lon="5.94569">
        <ele>250.4</ele>
        <time>2024-08-03T08:53:04Z</time>
      </trkpt>
      <trkpt lat="47.3074" lon="5.94563">
        <ele>250.2</ele>
        <time>2024-08-03T08:53:05Z</time>
      </trkpt>
      <trkpt lat="47.30738" lon="5.94557">
        <ele>250.4</ele>
        <time>2024-08-03T08:53:06Z</time>
      </trkpt>
      <trkpt lat="47.30736" lon="5.94549">
        <ele>250.2</ele>
        <time>2024-08-03T08:53:07Z</time>
      </trkpt>
      <trkpt lat="47.30734" lon="5.94542">
        <ele>250.4</ele>
        <time>2024-08-03T08:53:08Z</time>
      </trkpt>
      <trkpt lat="47.30732" lon="5.94534">
        <ele>250.4</ele>
        <time>2024-08-03T08:53:09Z</time>
      </trkpt>
      <trkpt lat="47.30731" lon="5.94528">
        <ele>250.4</ele>
        <time>2024-08-03T08:53:10Z</time>
      </trkpt>
      <trkpt lat="47.30728" lon="5.9452">
        <ele>250.6</ele>
        <time>2024-08-03T08:53:11Z</time>
      </trkpt>
      <trkpt lat="47.30727" lon="5.94512">
        <ele>250.4</ele>
        <time>2024-08-03T08:53:12Z</time>
      </trkpt>
      <trkpt lat="47.30725" lon="5.94502">
        <ele>250</ele>
        <time>2024-08-03T08:53:13Z</time>
      </trkpt>
      <trkpt lat="47.30723" lon="5.94495">
        <ele>249.8</ele>
        <time>2024-08-03T08:53:14Z</time>
      </trkpt>
      <trkpt lat="47.30721" lon="5.94485">
        <ele>249.8</ele>
        <time>2024-08-03T08:53:15Z</time>
      </trkpt>
      <trkpt lat="47.30719" lon="5.94478">
        <ele>249.4</ele>
        <time>2024-08-03T08:53:16Z</time>
      </trkpt>
      <trkpt lat="47.30717" lon="5.94467">
        <ele>249.2</ele>
        <time>2024-08-03T08:53:17Z</time>
      </trkpt>
      <trkpt lat="47.30716" lon="5.94458">
        <ele>249</ele>
        <time>2024-08-03T08:53:18Z</time>
      </trkpt>
      <trkpt lat="47.30714" lon="5.94448">
        <ele>249</ele>
        <time>2024-08-03T08:53:19Z</time>
      </trkpt>
      <trkpt lat="47.30712" lon="5.9444">
        <ele>249</ele>
        <time>2024-08-03T08:53:20Z</time>
      </trkpt>
      <trkpt lat="47.30711" lon="5.9443">
        <ele>249</ele>
        <time>2024-08-03T08:53:21Z</time>
      </trkpt>
      <trkpt lat="47.3071" lon="5.94424">
        <ele>249.2</ele>
        <time>2024-08-03T08:53:22Z</time>
      </trkpt>
      <trkpt lat="47.30709" lon="5.94417">
        <ele>249</ele>
        <time>2024-08-03T08:53:23Z</time>
      </trkpt>
      <trkpt lat="47.30708" lon="5.94411">
        <ele>249</ele>
        <time>2024-08-03T08:53:24Z</time>
      </trkpt>
      <trkpt lat="47.30707" lon="5.94405">
        <ele>249</ele>
        <time>2024-08-03T08:53:25Z</time>
      </trkpt>
      <trkpt lat="47.30706" lon="5.94399">
        <ele>249</ele>
        <time>2024-08-03T08:53:26Z</time>
      </trkpt>
      <trkpt lat="47.30705" lon="5.94393">
        <ele>249.2</ele>
        <time>2024-08-03T08:53:27Z</time>
      </trkpt>
      <trkpt lat="47.30704" lon="5.94388">
        <ele>249.2</ele>
        <time>2024-08-03T08:53:28Z</time>
      </trkpt>
      <trkpt lat="47.30703" lon="5.94381">
        <ele>249.4</ele>
        <time>2024-08-03T08:53:29Z</time>
      </trkpt>
      <trkpt lat="47.30702" lon="5.94377">
        <ele>249.4</ele>
        <time>2024-08-03T08:53:30Z</time>
      </trkpt>
      <trkpt lat="47.30702" lon="5.94368">
        <ele>249.6</ele>
        <time>2024-08-03T08:53:31Z</time>
      </trkpt>
      <trkpt lat="47.307" lon="5.94364">
        <ele>249.6</ele>
        <time>2024-08-03T08:53:32Z</time>
      </trkpt>
      <trkpt lat="47.30697" lon="5.94359">
        <ele>249.6</ele>
        <time>2024-08-03T08:53:33Z</time>
      </trkpt>
      <trkpt lat="47.30694" lon="5.94359">
        <ele>249.6</ele>
        <time>2024-08-03T08:53:34Z</time>
      </trkpt>
      <trkpt lat="47.3069" lon="5.9436">
        <ele>249.6</ele>
        <time>2024-08-03T08:53:35Z</time>
      </trkpt>
      <trkpt lat="47.30686" lon="5.94363">
        <ele>249.6</ele>
        <time>2024-08-03T08:53:36Z</time>
      </trkpt>
      <trkpt lat="47.30682" lon="5.94367">
        <ele>249.6</ele>
        <time>2024-08-03T08:53:37Z</time>
      </trkpt>
      <trkpt lat="47.30679" lon="5.94372">
        <ele>249.8</ele>
        <time>2024-08-03T08:53:38Z</time>
      </trkpt>
      <trkpt lat="47.30674" lon="5.94377">
        <ele>249.6</ele>
        <time>2024-08-03T08:53:39Z</time>
      </trkpt>
      <trkpt lat="47.30671" lon="5.94383">
        <ele>249.6</ele>
        <time>2024-08-03T08:53:40Z</time>
      </trkpt>
      <trkpt lat="47.30667" lon="5.9439">
        <ele>249.6</ele>
        <time>2024-08-03T08:53:41Z</time>
      </trkpt>
      <trkpt lat="47.30664" lon="5.94398">
        <ele>249.6</ele>
        <time>2024-08-03T08:53:42Z</time>
      </trkpt>
      <trkpt lat="47.30661" lon="5.94406">
        <ele>249.4</ele>
        <time>2024-08-03T08:53:43Z</time>
      </trkpt>
      <trkpt lat="47.30658" lon="5.94414">
        <ele>249.2</ele>
        <time>2024-08-03T08:53:44Z</time>
      </trkpt>
      <trkpt lat="47.30656" lon="5.94423">
        <ele>249.2</ele>
        <time>2024-08-03T08:53:45Z</time>
      </trkpt>
      <trkpt lat="47.30653" lon="5.94432">
        <ele>249</ele>
        <time>2024-08-03T08:53:46Z</time>
      </trkpt>
      <trkpt lat="47.3065" lon="5.94442">
        <ele>248.8</ele>
        <time>2024-08-03T08:53:47Z</time>
      </trkpt>
      <trkpt lat="47.30647" lon="5.94452">
        <ele>248.4</ele>
        <time>2024-08-03T08:53:48Z</time>
      </trkpt>
      <trkpt lat="47.30645" lon="5.94461">
        <ele>248.2</ele>
        <time>2024-08-03T08:53:49Z</time>
      </trkpt>
      <trkpt lat="47.30641" lon="5.9447">
        <ele>247.8</ele>
        <time>2024-08-03T08:53:50Z</time>
      </trkpt>
      <trkpt lat="47.30638" lon="5.94479">
        <ele>247.4</ele>
        <time>2024-08-03T08:53:51Z</time>
      </trkpt>
      <trkpt lat="47.30634" lon="5.94487">
        <ele>247</ele>
        <time>2024-08-03T08:53:52Z</time>
      </trkpt>
      <trkpt lat="47.3063" lon="5.94494">
        <ele>247</ele>
        <time>2024-08-03T08:53:53Z</time>
      </trkpt>
      <trkpt lat="47.30626" lon="5.94501">
        <ele>246.8</ele>
        <time>2024-08-03T08:53:54Z</time>
      </trkpt>
      <trkpt lat="47.30622" lon="5.94506">
        <ele>246.6</ele>
        <time>2024-08-03T08:53:55Z</time>
      </trkpt>
      <trkpt lat="47.30618" lon="5.9451">
        <ele>246.4</ele>
        <time>2024-08-03T08:53:56Z</time>
      </trkpt>
      <trkpt lat="47.30613" lon="5.94511">
        <ele>246</ele>
        <time>2024-08-03T08:53:57Z</time>
      </trkpt>
      <trkpt lat="47.30608" lon="5.94513">
        <ele>245.8</ele>
        <time>2024-08-03T08:53:58Z</time>
      </trkpt>
      <trkpt lat="47.30604" lon="5.9451">
        <ele>245.8</ele>
        <time>2024-08-03T08:53:59Z</time>
      </trkpt>
      <trkpt lat="47.306" lon="5.94508">
        <ele>245.4</ele>
        <time>2024-08-03T08:54:00Z</time>
      </trkpt>
      <trkpt lat="47.30598" lon="5.94507">
        <ele>245.2</ele>
        <time>2024-08-03T08:54:01Z</time>
      </trkpt>
      <trkpt lat="47.30595" lon="5.94506">
        <ele>244.8</ele>
        <time>2024-08-03T08:54:02Z</time>
      </trkpt>
      <trkpt lat="47.30593" lon="5.94506">
        <ele>244.4</ele>
        <time>2024-08-03T08:54:03Z</time>
      </trkpt>
      <trkpt lat="47.30591" lon="5.94505">
        <ele>244.4</ele>
        <time>2024-08-03T08:54:04Z</time>
      </trkpt>
      <trkpt lat="47.30589" lon="5.94503">
        <ele>244.2</ele>
        <time>2024-08-03T08:54:05Z</time>
      </trkpt>
      <trkpt lat="47.30587" lon="5.94502">
        <ele>244</ele>
        <time>2024-08-03T08:54:06Z</time>
      </trkpt>
      <trkpt lat="47.30585" lon="5.94501">
        <ele>244</ele>
        <time>2024-08-03T08:54:07Z</time>
      </trkpt>
      <trkpt lat="47.30583" lon="5.94499">
        <ele>244</ele>
        <time>2024-08-03T08:54:08Z</time>
      </trkpt>
      <trkpt lat="47.3058" lon="5.94498">
        <ele>244</ele>
        <time>2024-08-03T08:54:09Z</time>
      </trkpt>
      <trkpt lat="47.30577" lon="5.94496">
        <ele>244</ele>
        <time>2024-08-03T08:54:10Z</time>
      </trkpt>
      <trkpt lat="47.30575" lon="5.94495">
        <ele>244</ele>
        <time>2024-08-03T08:54:11Z</time>
      </trkpt>
      <trkpt lat="47.30572" lon="5.94494">
        <ele>244</ele>
        <time>2024-08-03T08:54:12Z</time>
      </trkpt>
      <trkpt lat="47.3057" lon="5.94492">
        <ele>244.2</ele>
        <time>2024-08-03T08:54:13Z</time>
      </trkpt>
      <trkpt lat="47.30568" lon="5.9449">
        <ele>244.4</ele>
        <time>2024-08-03T08:54:14Z</time>
      </trkpt>
      <trkpt lat="47.30565" lon="5.94489">
        <ele>244.4</ele>
        <time>2024-08-03T08:54:15Z</time>
      </trkpt>
      <trkpt lat="47.30563" lon="5.94486">
        <ele>244.6</ele>
        <time>2024-08-03T08:54:16Z</time>
      </trkpt>
      <trkpt lat="47.30561" lon="5.94483">
        <ele>245</ele>
        <time>2024-08-03T08:54:17Z</time>
      </trkpt>
      <trkpt lat="47.30558" lon="5.9448">
        <ele>245.2</ele>
        <time>2024-08-03T08:54:18Z</time>
      </trkpt>
      <trkpt lat="47.30556" lon="5.94476">
        <ele>245.4</ele>
        <time>2024-08-03T08:54:19Z</time>
      </trkpt>
      <trkpt lat="47.30554" lon="5.94472">
        <ele>245.4</ele>
        <time>2024-08-03T08:54:20Z</time>
      </trkpt>
      <trkpt lat="47.30552" lon="5.94469">
        <ele>245.8</ele>
        <time>2024-08-03T08:54:21Z</time>
      </trkpt>
      <trkpt lat="47.30549" lon="5.94465">
        <ele>245.8</ele>
        <time>2024-08-03T08:54:22Z</time>
      </trkpt>
      <trkpt lat="47.30547" lon="5.94461">
        <ele>245.8</ele>
        <time>2024-08-03T08:54:23Z</time>
      </trkpt>
      <trkpt lat="47.30545" lon="5.94457">
        <ele>246</ele>
        <time>2024-08-03T08:54:24Z</time>
      </trkpt>
      <trkpt lat="47.30543" lon="5.94452">
        <ele>246</ele>
        <time>2024-08-03T08:54:25Z</time>
      </trkpt>
      <trkpt lat="47.30541" lon="5.94447">
        <ele>246</ele>
        <time>2024-08-03T08:54:26Z</time>
      </trkpt>
      <trkpt lat="47.30538" lon="5.9444">
        <ele>246</ele>
        <time>2024-08-03T08:54:27Z</time>
      </trkpt>
      <trkpt lat="47.30535" lon="5.94433">
        <ele>246.2</ele>
        <time>2024-08-03T08:54:28Z</time>
      </trkpt>
      <trkpt lat="47.30533" lon="5.94425">
        <ele>246</ele>
        <time>2024-08-03T08:54:29Z</time>
      </trkpt>
      <trkpt lat="47.3053" lon="5.94416">
        <ele>246</ele>
        <time>2024-08-03T08:54:30Z</time>
      </trkpt>
      <trkpt lat="47.30528" lon="5.94407">
        <ele>246.2</ele>
        <time>2024-08-03T08:54:31Z</time>
      </trkpt>
      <trkpt lat="47.30525" lon="5.944">
        <ele>246.2</ele>
        <time>2024-08-03T08:54:32Z</time>
      </trkpt>
      <trkpt lat="47.30523" lon="5.94393">
        <ele>246</ele>
        <time>2024-08-03T08:54:33Z</time>
      </trkpt>
      <trkpt lat="47.30521" lon="5.94386">
        <ele>245.8</ele>
        <time>2024-08-03T08:54:34Z</time>
      </trkpt>
      <trkpt lat="47.3052" lon="5.94381">
        <ele>245.4</ele>
        <time>2024-08-03T08:54:35Z</time>
      </trkpt>
      <trkpt lat="47.30519" lon="5.94375">
        <ele>245.2</ele>
        <time>2024-08-03T08:54:36Z</time>
      </trkpt>
      <trkpt lat="47.30518" lon="5.9437">
        <ele>245</ele>
        <time>2024-08-03T08:54:37Z</time>
      </trkpt>
      <trkpt lat="47.30516" lon="5.94365">
        <ele>245</ele>
        <time>2024-08-03T08:54:38Z</time>
      </trkpt>
      <trkpt lat="47.30515" lon="5.94359">
        <ele>245</ele>
        <time>2024-08-03T08:54:39Z</time>
      </trkpt>
      <trkpt lat="47.30513" lon="5.94353">
        <ele>245</ele>
        <time>2024-08-03T08:54:40Z</time>
      </trkpt>
      <trkpt lat="47.30511" lon="5.94347">
        <ele>245</ele>
        <time>2024-08-03T08:54:41Z</time>
      </trkpt>
      <trkpt lat="47.30509" lon="5.94341">
        <ele>245</ele>
        <time>2024-08-03T08:54:42Z</time>
      </trkpt>
      <trkpt lat="47.30508" lon="5.94335">
        <ele>245</ele>
        <time>2024-08-03T08:54:43Z</time>
      </trkpt>
      <trkpt lat="47.30507" lon="5.94329">
        <ele>245</ele>
        <time>2024-08-03T08:54:44Z</time>
      </trkpt>
      <trkpt lat="47.30505" lon="5.94322">
        <ele>245</ele>
        <time>2024-08-03T08:54:45Z</time>
      </trkpt>
      <trkpt lat="47.30503" lon="5.94315">
        <ele>245</ele>
        <time>2024-08-03T08:54:46Z</time>
      </trkpt>
      <trkpt lat="47.30501" lon="5.94309">
        <ele>245</ele>
        <time>2024-08-03T08:54:47Z</time>
      </trkpt>
      <trkpt lat="47.305" lon="5.94302">
        <ele>245</ele>
        <time>2024-08-03T08:54:48Z</time>
      </trkpt>
      <trkpt lat="47.30498" lon="5.94296">
        <ele>245</ele>
        <time>2024-08-03T08:54:49Z</time>
      </trkpt>
      <trkpt lat="47.30496" lon="5.94289">
        <ele>245.2</ele>
        <time>2024-08-03T08:54:50Z</time>
      </trkpt>
      <trkpt lat="47.30495" lon="5.94283">
        <ele>245</ele>
        <time>2024-08-03T08:54:51Z</time>
      </trkpt>
      <trkpt lat="47.30493" lon="5.94276">
        <ele>245.2</ele>
        <time>2024-08-03T08:54:52Z</time>
      </trkpt>
      <trkpt lat="47.30491" lon="5.94269">
        <ele>245</ele>
        <time>2024-08-03T08:54:53Z</time>
      </trkpt>
      <trkpt lat="47.30489" lon="5.94263">
        <ele>245</ele>
        <time>2024-08-03T08:54:54Z</time>
      </trkpt>
      <trkpt lat="47.30487" lon="5.94256">
        <ele>245</ele>
        <time>2024-08-03T08:54:55Z</time>
      </trkpt>
      <trkpt lat="47.30484" lon="5.94249">
        <ele>245</ele>
        <time>2024-08-03T08:54:56Z</time>
      </trkpt>
      <trkpt lat="47.30482" lon="5.94243">
        <ele>245</ele>
        <time>2024-08-03T08:54:57Z</time>
      </trkpt>
      <trkpt lat="47.30479" lon="5.94236">
        <ele>245</ele>
        <time>2024-08-03T08:54:58Z</time>
      </trkpt>
      <trkpt lat="47.30476" lon="5.94229">
        <ele>244.8</ele>
        <time>2024-08-03T08:54:59Z</time>
      </trkpt>
      <trkpt lat="47.30473" lon="5.94222">
        <ele>244.6</ele>
        <time>2024-08-03T08:55:00Z</time>
      </trkpt>
      <trkpt lat="47.30471" lon="5.94214">
        <ele>244.6</ele>
        <time>2024-08-03T08:55:01Z</time>
      </trkpt>
      <trkpt lat="47.30468" lon="5.94206">
        <ele>244.6</ele>
        <time>2024-08-03T08:55:02Z</time>
      </trkpt>
      <trkpt lat="47.30465" lon="5.94199">
        <ele>244.6</ele>
        <time>2024-08-03T08:55:03Z</time>
      </trkpt>
      <trkpt lat="47.30462" lon="5.94191">
        <ele>244.8</ele>
        <time>2024-08-03T08:55:04Z</time>
      </trkpt>
      <trkpt lat="47.30459" lon="5.94183">
        <ele>244.6</ele>
        <time>2024-08-03T08:55:05Z</time>
      </trkpt>
      <trkpt lat="47.30456" lon="5.94175">
        <ele>244.4</ele>
        <time>2024-08-03T08:55:06Z</time>
      </trkpt>
      <trkpt lat="47.30453" lon="5.94166">
        <ele>244.2</ele>
        <time>2024-08-03T08:55:07Z</time>
      </trkpt>
      <trkpt lat="47.3045" lon="5.94158">
        <ele>244.2</ele>
        <time>2024-08-03T08:55:08Z</time>
      </trkpt>
      <trkpt lat="47.30448" lon="5.94149">
        <ele>244</ele>
        <time>2024-08-03T08:55:09Z</time>
      </trkpt>
      <trkpt lat="47.30445" lon="5.9414">
        <ele>244</ele>
        <time>2024-08-03T08:55:10Z</time>
      </trkpt>
      <trkpt lat="47.30442" lon="5.94132">
        <ele>243.8</ele>
        <time>2024-08-03T08:55:11Z</time>
      </trkpt>
      <trkpt lat="47.3044" lon="5.94123">
        <ele>243.8</ele>
        <time>2024-08-03T08:55:12Z</time>
      </trkpt>
      <trkpt lat="47.30438" lon="5.94115">
        <ele>243.6</ele>
        <time>2024-08-03T08:55:13Z</time>
      </trkpt>
      <trkpt lat="47.30437" lon="5.94106">
        <ele>243.6</ele>
        <time>2024-08-03T08:55:14Z</time>
      </trkpt>
      <trkpt lat="47.30437" lon="5.94098">
        <ele>243.4</ele>
        <time>2024-08-03T08:55:15Z</time>
      </trkpt>
      <trkpt lat="47.30437" lon="5.94092">
        <ele>243.4</ele>
        <time>2024-08-03T08:55:16Z</time>
      </trkpt>
      <trkpt lat="47.30437" lon="5.94088">
        <ele>243.4</ele>
        <time>2024-08-03T08:55:17Z</time>
      </trkpt>
      <trkpt lat="47.30437" lon="5.94086">
        <ele>243</ele>
        <time>2024-08-03T08:55:18Z</time>
      </trkpt>
      <trkpt lat="47.30437" lon="5.94085">
        <ele>242.8</ele>
        <time>2024-08-03T08:55:19Z</time>
      </trkpt>
      <trkpt lat="47.30437" lon="5.94086">
        <ele>242.6</ele>
        <time>2024-08-03T08:55:20Z</time>
      </trkpt>
      <trkpt lat="47.30438" lon="5.94087">
        <ele>242.4</ele>
        <time>2024-08-03T08:55:21Z</time>
      </trkpt>
      <trkpt lat="47.30438" lon="5.94088">
        <ele>242.2</ele>
        <time>2024-08-03T08:55:22Z</time>
      </trkpt>
      <trkpt lat="47.30439" lon="5.94089">
        <ele>242</ele>
        <time>2024-08-03T08:55:23Z</time>
      </trkpt>
      <trkpt lat="47.3044" lon="5.9409">
        <ele>242</ele>
        <time>2024-08-03T08:55:24Z</time>
      </trkpt>
      <trkpt lat="47.30441" lon="5.94092">
        <ele>241.6</ele>
        <time>2024-08-03T08:55:25Z</time>
      </trkpt>
      <trkpt lat="47.30441" lon="5.94094">
        <ele>241.4</ele>
        <time>2024-08-03T08:55:26Z</time>
      </trkpt>
      <trkpt lat="47.30441" lon="5.94096">
        <ele>241.2</ele>
        <time>2024-08-03T08:55:27Z</time>
      </trkpt>
      <trkpt lat="47.30441" lon="5.94098">
        <ele>241.4</ele>
        <time>2024-08-03T08:55:28Z</time>
      </trkpt>
      <trkpt lat="47.30441" lon="5.94099">
        <ele>241.4</ele>
        <time>2024-08-03T08:55:29Z</time>
      </trkpt>
      <trkpt lat="47.30441" lon="5.94101">
        <ele>241.2</ele>
        <time>2024-08-03T08:55:30Z</time>
      </trkpt>
      <trkpt lat="47.30442" lon="5.94103">
        <ele>241.2</ele>
        <time>2024-08-03T08:55:31Z</time>
      </trkpt>
      <trkpt lat="47.30442" lon="5.94104">
        <ele>241.4</ele>
        <time>2024-08-03T08:55:32Z</time>
      </trkpt>
      <trkpt lat="47.30442" lon="5.94106">
        <ele>241.2</ele>
        <time>2024-08-03T08:55:33Z</time>
      </trkpt>
      <trkpt lat="47.30443" lon="5.94108">
        <ele>241.2</ele>
        <time>2024-08-03T08:55:34Z</time>
      </trkpt>
      <trkpt lat="47.30443" lon="5.9411">
        <ele>241.2</ele>
        <time>2024-08-03T08:55:35Z</time>
      </trkpt>
      <trkpt lat="47.30444" lon="5.94112">
        <ele>241.2</ele>
        <time>2024-08-03T08:55:36Z</time>
      </trkpt>
      <trkpt lat="47.30444" lon="5.94114">
        <ele>241.2</ele>
        <time>2024-08-03T08:55:37Z</time>
      </trkpt>
      <trkpt lat="47.30445" lon="5.94115">
        <ele>241.4</ele>
        <time>2024-08-03T08:55:38Z</time>
      </trkpt>
      <trkpt lat="47.30445" lon="5.94116">
        <ele>241.4</ele>
        <time>2024-08-03T08:55:39Z</time>
      </trkpt>
      <trkpt lat="47.30446" lon="5.94117">
        <ele>241.2</ele>
        <time>2024-08-03T08:55:40Z</time>
      </trkpt>
      <trkpt lat="47.30446" lon="5.94117">
        <ele>241.4</ele>
        <time>2024-08-03T08:55:41Z</time>
      </trkpt>
      <trkpt lat="47.30446" lon="5.94117">
        <ele>241.4</ele>
        <time>2024-08-03T08:55:42Z</time>
      </trkpt>
      <trkpt lat="47.30446" lon="5.94117">
        <ele>241.4</ele>
        <time>2024-08-03T08:55:43Z</time>
      </trkpt>
      <trkpt lat="47.30446" lon="5.94117">
        <ele>241.4</ele>
        <time>2024-08-03T08:55:44Z</time>
      </trkpt>
      <trkpt lat="47.30446" lon="5.94117">
        <ele>241.4</ele>
        <time>2024-08-03T08:55:45Z</time>
      </trkpt>
      <trkpt lat="47.30446" lon="5.94117">
        <ele>241.4</ele>
        <time>2024-08-03T08:55:46Z</time>
      </trkpt>
      <trkpt lat="47.30446" lon="5.94117">
        <ele>241.4</ele>
        <time>2024-08-03T08:55:47Z</time>
      </trkpt>
      <trkpt lat="47.30446" lon="5.94117">
        <ele>241.4</ele>
        <time>2024-08-03T08:55:48Z</time>
      </trkpt>
      <trkpt lat="47.30446" lon="5.94117">
        <ele>241.4</ele>
        <time>2024-08-03T08:55:49Z</time>
      </trkpt>
      <trkpt lat="47.30446" lon="5.94117">
        <ele>241.4</ele>
        <time>2024-08-03T08:55:50Z</time>
      </trkpt>
      <trkpt lat="47.30446" lon="5.94117">
        <ele>241.4</ele>
        <time>2024-08-03T08:55:51Z</time>
      </trkpt>
      <trkpt lat="47.30446" lon="5.94118">
        <ele>241.4</ele>
        <time>2024-08-03T08:55:52Z</time>
      </trkpt>
      <trkpt lat="47.30446" lon="5.94118">
        <ele>241.4</ele>
        <time>2024-08-03T08:55:53Z</time>
      </trkpt>
      <trkpt lat="47.30446" lon="5.94118">
        <ele>241.4</ele>
        <time>2024-08-03T08:55:54Z</time>
      </trkpt>
      <trkpt lat="47.30446" lon="5.94118">
        <ele>241.2</ele>
        <time>2024-08-03T08:55:55Z</time>
      </trkpt>
      <trkpt lat="47.30446" lon="5.94118">
        <ele>241.4</ele>
        <time>2024-08-03T08:55:56Z</time>
      </trkpt>
      <trkpt lat="47.30446" lon="5.94119">
        <ele>241.4</ele>
        <time>2024-08-03T08:55:57Z</time>
      </trkpt>
      <trkpt lat="47.30446" lon="5.94119">
        <ele>241.2</ele>
        <time>2024-08-03T08:55:58Z</time>
      </trkpt>
      <trkpt lat="47.30446" lon="5.94119">
        <ele>241.4</ele>
        <time>2024-08-03T08:55:59Z</time>
      </trkpt>
      <trkpt lat="47.30446" lon="5.94119">
        <ele>241.4</ele>
        <time>2024-08-03T08:56:00Z</time>
      </trkpt>
      <trkpt lat="47.30446" lon="5.94119">
        <ele>241.4</ele>
        <time>2024-08-03T08:56:01Z</time>
      </trkpt>
      <trkpt lat="47.30446" lon="5.94119">
        <ele>241.4</ele>
        <time>2024-08-03T08:56:02Z</time>
      </trkpt>
      <trkpt lat="47.30446" lon="5.94119">
        <ele>241.4</ele>
        <time>2024-08-03T08:56:03Z</time>
      </trkpt>
      <trkpt lat="47.30446" lon="5.94119">
        <ele>241.4</ele>
        <time>2024-08-03T08:56:04Z</time>
      </trkpt>
      <trkpt lat="47.30446" lon="5.94119">
        <ele>241.4</ele>
        <time>2024-08-03T08:56:05Z</time>
      </trkpt>
      <trkpt lat="47.30446" lon="5.9412">
        <ele>241.2</ele>
        <time>2024-08-03T08:56:06Z</time>
      </trkpt>
      <trkpt lat="47.30446" lon="5.9412">
        <ele>241.4</ele>
        <time>2024-08-03T08:56:07Z</time>
      </trkpt>
      <trkpt lat="47.30445" lon="5.9412">
        <ele>241.4</ele>
        <time>2024-08-03T08:56:08Z</time>
      </trkpt>
      <trkpt lat="47.30445" lon="5.94121">
        <ele>241.2</ele>
        <time>2024-08-03T08:56:09Z</time>
      </trkpt>
      <trkpt lat="47.30445" lon="5.94121">
        <ele>241.4</ele>
        <time>2024-08-03T08:56:10Z</time>
      </trkpt>
      <trkpt lat="47.30445" lon="5.94121">
        <ele>241.4</ele>
        <time>2024-08-03T08:56:11Z</time>
      </trkpt>
      <trkpt lat="47.30445" lon="5.94121">
        <ele>241.2</ele>
        <time>2024-08-03T08:56:12Z</time>
      </trkpt>
      <trkpt lat="47.30445" lon="5.94121">
        <ele>241.2</ele>
        <time>2024-08-03T08:56:13Z</time>
      </trkpt>
      <trkpt lat="47.30445" lon="5.94121">
        <ele>241.4</ele>
        <time>2024-08-03T08:56:14Z</time>
      </trkpt>
      <trkpt lat="47.30445" lon="5.94121">
        <ele>241.4</ele>
        <time>2024-08-03T08:56:15Z</time>
      </trkpt>
      <trkpt lat="47.30445" lon="5.94121">
        <ele>241.4</ele>
        <time>2024-08-03T08:56:16Z</time>
      </trkpt>
      <trkpt lat="47.30445" lon="5.94121">
        <ele>241.4</ele>
        <time>2024-08-03T08:56:17Z</time>
      </trkpt>
      <trkpt lat="47.30445" lon="5.94121">
        <ele>241.4</ele>
        <time>2024-08-03T08:56:18Z</time>
      </trkpt>
      <trkpt lat="47.30444" lon="5.94121">
        <ele>241.4</ele>
        <time>2024-08-03T08:56:19Z</time>
      </trkpt>
      <trkpt lat="47.30444" lon="5.94121">
        <ele>241.2</ele>
        <time>2024-08-03T08:56:20Z</time>
      </trkpt>
      <trkpt lat="47.30444" lon="5.94121">
        <ele>241.2</ele>
        <time>2024-08-03T08:56:21Z</time>
      </trkpt>
      <trkpt lat="47.30444" lon="5.9412">
        <ele>241.4</ele>
        <time>2024-08-03T08:56:22Z</time>
      </trkpt>
      <trkpt lat="47.30443" lon="5.94119">
        <ele>241.2</ele>
        <time>2024-08-03T08:56:23Z</time>
      </trkpt>
      <trkpt lat="47.30443" lon="5.94118">
        <ele>241.4</ele>
        <time>2024-08-03T08:56:24Z</time>
      </trkpt>
      <trkpt lat="47.30442" lon="5.94117">
        <ele>241.2</ele>
        <time>2024-08-03T08:56:25Z</time>
      </trkpt>
      <trkpt lat="47.3044" lon="5.94115">
        <ele>241.2</ele>
        <time>2024-08-03T08:56:26Z</time>
      </trkpt>
      <trkpt lat="47.3044" lon="5.94111">
        <ele>241.2</ele>
        <time>2024-08-03T08:56:27Z</time>
      </trkpt>
      <trkpt lat="47.30439" lon="5.94106">
        <ele>241.2</ele>
        <time>2024-08-03T08:56:28Z</time>
      </trkpt>
      <trkpt lat="47.30438" lon="5.941">
        <ele>241.4</ele>
        <time>2024-08-03T08:56:29Z</time>
      </trkpt>
      <trkpt lat="47.30437" lon="5.94095">
        <ele>241.4</ele>
        <time>2024-08-03T08:56:30Z</time>
      </trkpt>
      <trkpt lat="47.30435" lon="5.94089">
        <ele>241.2</ele>
        <time>2024-08-03T08:56:31Z</time>
      </trkpt>
      <trkpt lat="47.30434" lon="5.94082">
        <ele>241.4</ele>
        <time>2024-08-03T08:56:32Z</time>
      </trkpt>
      <trkpt lat="47.30433" lon="5.94077">
        <ele>241.2</ele>
        <time>2024-08-03T08:56:33Z</time>
      </trkpt>
      <trkpt lat="47.30432" lon="5.94071">
        <ele>241.2</ele>
        <time>2024-08-03T08:56:34Z</time>
      </trkpt>
      <trkpt lat="47.3043" lon="5.94065">
        <ele>241.2</ele>
        <time>2024-08-03T08:56:35Z</time>
      </trkpt>
      <trkpt lat="47.30429" lon="5.94058">
        <ele>241.2</ele>
        <time>2024-08-03T08:56:36Z</time>
      </trkpt>
      <trkpt lat="47.30428" lon="5.94052">
        <ele>241.2</ele>
        <time>2024-08-03T08:56:37Z</time>
      </trkpt>
      <trkpt lat="47.30426" lon="5.94046">
        <ele>241.2</ele>
        <time>2024-08-03T08:56:38Z</time>
      </trkpt>
      <trkpt lat="47.30425" lon="5.94039">
        <ele>241.2</ele>
        <time>2024-08-03T08:56:39Z</time>
      </trkpt>
      <trkpt lat="47.30424" lon="5.94032">
        <ele>241</ele>
        <time>2024-08-03T08:56:40Z</time>
      </trkpt>
      <trkpt lat="47.30422" lon="5.94027">
        <ele>241.2</ele>
        <time>2024-08-03T08:56:41Z</time>
      </trkpt>
      <trkpt lat="47.3042" lon="5.9402">
        <ele>241.2</ele>
        <time>2024-08-03T08:56:42Z</time>
      </trkpt>
      <trkpt lat="47.30418" lon="5.94013">
        <ele>241.2</ele>
        <time>2024-08-03T08:56:43Z</time>
      </trkpt>
      <trkpt lat="47.30417" lon="5.94007">
        <ele>241.2</ele>
        <time>2024-08-03T08:56:44Z</time>
      </trkpt>
      <trkpt lat="47.30415" lon="5.94001">
        <ele>241.2</ele>
        <time>2024-08-03T08:56:45Z</time>
      </trkpt>
      <trkpt lat="47.30413" lon="5.93995">
        <ele>241.2</ele>
        <time>2024-08-03T08:56:46Z</time>
      </trkpt>
      <trkpt lat="47.30411" lon="5.9399">
        <ele>241.2</ele>
        <time>2024-08-03T08:56:47Z</time>
      </trkpt>
      <trkpt lat="47.30408" lon="5.93986">
        <ele>241.2</ele>
        <time>2024-08-03T08:56:48Z</time>
      </trkpt>
      <trkpt lat="47.30406" lon="5.93982">
        <ele>241.2</ele>
        <time>2024-08-03T08:56:49Z</time>
      </trkpt>
      <trkpt lat="47.30403" lon="5.9398">
        <ele>241.2</ele>
        <time>2024-08-03T08:56:50Z</time>
      </trkpt>
      <trkpt lat="47.304" lon="5.93978">
        <ele>241.2</ele>
        <time>2024-08-03T08:56:51Z</time>
      </trkpt>
      <trkpt lat="47.30397" lon="5.93978">
        <ele>241</ele>
        <time>2024-08-03T08:56:52Z</time>
      </trkpt>
      <trkpt lat="47.30393" lon="5.93977">
        <ele>241</ele>
        <time>2024-08-03T08:56:53Z</time>
      </trkpt>
      <trkpt lat="47.30375" lon="5.93981">
        <ele>240.8</ele>
        <time>2024-08-03T08:56:58Z</time>
      </trkpt>
      <trkpt lat="47.3037" lon="5.93984">
        <ele>241</ele>
        <time>2024-08-03T08:56:59Z</time>
      </trkpt>
      <trkpt lat="47.30366" lon="5.93985">
        <ele>240.8</ele>
        <time>2024-08-03T08:57:00Z</time>
      </trkpt>
      <trkpt lat="47.30363" lon="5.93986">
        <ele>241</ele>
        <time>2024-08-03T08:57:01Z</time>
      </trkpt>
      <trkpt lat="47.30361" lon="5.93985">
        <ele>241</ele>
        <time>2024-08-03T08:57:02Z</time>
      </trkpt>
      <trkpt lat="47.30359" lon="5.93984">
        <ele>240.8</ele>
        <time>2024-08-03T08:57:03Z</time>
      </trkpt>
      <trkpt lat="47.30359" lon="5.93983">
        <ele>240.8</ele>
        <time>2024-08-03T08:57:04Z</time>
      </trkpt>
      <trkpt lat="47.30357" lon="5.93981">
        <ele>241</ele>
        <time>2024-08-03T08:57:05Z</time>
      </trkpt>
      <trkpt lat="47.30356" lon="5.93976">
        <ele>241</ele>
        <time>2024-08-03T08:57:06Z</time>
      </trkpt>
      <trkpt lat="47.30354" lon="5.93972">
        <ele>241</ele>
        <time>2024-08-03T08:57:07Z</time>
      </trkpt>
      <trkpt lat="47.30352" lon="5.93967">
        <ele>241</ele>
        <time>2024-08-03T08:57:08Z</time>
      </trkpt>
      <trkpt lat="47.30351" lon="5.93962">
        <ele>241</ele>
        <time>2024-08-03T08:57:09Z</time>
      </trkpt>
      <trkpt lat="47.30349" lon="5.93956">
        <ele>241</ele>
        <time>2024-08-03T08:57:10Z</time>
      </trkpt>
      <trkpt lat="47.30347" lon="5.93951">
        <ele>241</ele>
        <time>2024-08-03T08:57:11Z</time>
      </trkpt>
      <trkpt lat="47.30346" lon="5.93946">
        <ele>241.4</ele>
        <time>2024-08-03T08:57:12Z</time>
      </trkpt>
      <trkpt lat="47.30345" lon="5.9394">
        <ele>241.6</ele>
        <time>2024-08-03T08:57:13Z</time>
      </trkpt>
      <trkpt lat="47.30343" lon="5.93935">
        <ele>241.8</ele>
        <time>2024-08-03T08:57:14Z</time>
      </trkpt>
      <trkpt lat="47.30342" lon="5.93929">
        <ele>241.6</ele>
        <time>2024-08-03T08:57:15Z</time>
      </trkpt>
      <trkpt lat="47.3034" lon="5.93922">
        <ele>241.8</ele>
        <time>2024-08-03T08:57:16Z</time>
      </trkpt>
      <trkpt lat="47.30338" lon="5.93916">
        <ele>242</ele>
        <time>2024-08-03T08:57:17Z</time>
      </trkpt>
      <trkpt lat="47.30337" lon="5.9391">
        <ele>242</ele>
        <time>2024-08-03T08:57:18Z</time>
      </trkpt>
      <trkpt lat="47.30335" lon="5.93904">
        <ele>242</ele>
        <time>2024-08-03T08:57:19Z</time>
      </trkpt>
      <trkpt lat="47.30333" lon="5.93898">
        <ele>242</ele>
        <time>2024-08-03T08:57:20Z</time>
      </trkpt>
      <trkpt lat="47.30331" lon="5.93892">
        <ele>242.2</ele>
        <time>2024-08-03T08:57:21Z</time>
      </trkpt>
      <trkpt lat="47.30329" lon="5.93888">
        <ele>242.2</ele>
        <time>2024-08-03T08:57:22Z</time>
      </trkpt>
      <trkpt lat="47.30326" lon="5.93885">
        <ele>242.2</ele>
        <time>2024-08-03T08:57:23Z</time>
      </trkpt>
      <trkpt lat="47.30323" lon="5.93883">
        <ele>242.2</ele>
        <time>2024-08-03T08:57:24Z</time>
      </trkpt>
      <trkpt lat="47.30319" lon="5.93883">
        <ele>242.2</ele>
        <time>2024-08-03T08:57:25Z</time>
      </trkpt>
      <trkpt lat="47.30315" lon="5.93882">
        <ele>242.2</ele>
        <time>2024-08-03T08:57:26Z</time>
      </trkpt>
      <trkpt lat="47.30311" lon="5.9388">
        <ele>242.2</ele>
        <time>2024-08-03T08:57:27Z</time>
      </trkpt>
      <trkpt lat="47.30309" lon="5.93877">
        <ele>242.2</ele>
        <time>2024-08-03T08:57:28Z</time>
      </trkpt>
      <trkpt lat="47.30306" lon="5.93873">
        <ele>242.2</ele>
        <time>2024-08-03T08:57:29Z</time>
      </trkpt>
      <trkpt lat="47.30304" lon="5.93869">
        <ele>242.2</ele>
        <time>2024-08-03T08:57:30Z</time>
      </trkpt>
      <trkpt lat="47.30303" lon="5.93864">
        <ele>242.2</ele>
        <time>2024-08-03T08:57:31Z</time>
      </trkpt>
      <trkpt lat="47.30301" lon="5.93859">
        <ele>242.2</ele>
        <time>2024-08-03T08:57:32Z</time>
      </trkpt>
      <trkpt lat="47.30299" lon="5.93854">
        <ele>242.2</ele>
        <time>2024-08-03T08:57:33Z</time>
      </trkpt>
      <trkpt lat="47.30297" lon="5.93848">
        <ele>242.2</ele>
        <time>2024-08-03T08:57:34Z</time>
      </trkpt>
      <trkpt lat="47.30295" lon="5.93843">
        <ele>242.2</ele>
        <time>2024-08-03T08:57:35Z</time>
      </trkpt>
      <trkpt lat="47.30294" lon="5.93838">
        <ele>242.2</ele>
        <time>2024-08-03T08:57:36Z</time>
      </trkpt>
      <trkpt lat="47.30292" lon="5.93832">
        <ele>242.2</ele>
        <time>2024-08-03T08:57:37Z</time>
      </trkpt>
      <trkpt lat="47.3029" lon="5.93827">
        <ele>242.2</ele>
        <time>2024-08-03T08:57:38Z</time>
      </trkpt>
      <trkpt lat="47.30288" lon="5.93821">
        <ele>242.2</ele>
        <time>2024-08-03T08:57:39Z</time>
      </trkpt>
      <trkpt lat="47.30286" lon="5.93816">
        <ele>242.2</ele>
        <time>2024-08-03T08:57:40Z</time>
      </trkpt>
      <trkpt lat="47.30285" lon="5.93811">
        <ele>242.2</ele>
        <time>2024-08-03T08:57:41Z</time>
      </trkpt>
      <trkpt lat="47.30284" lon="5.93806">
        <ele>242.2</ele>
        <time>2024-08-03T08:57:42Z</time>
      </trkpt>
      <trkpt lat="47.30282" lon="5.93801">
        <ele>242.2</ele>
        <time>2024-08-03T08:57:43Z</time>
      </trkpt>
      <trkpt lat="47.30281" lon="5.93796">
        <ele>242.2</ele>
        <time>2024-08-03T08:57:44Z</time>
      </trkpt>
      <trkpt lat="47.3028" lon="5.93791">
        <ele>242.4</ele>
        <time>2024-08-03T08:57:45Z</time>
      </trkpt>
      <trkpt lat="47.3028" lon="5.93787">
        <ele>242.4</ele>
        <time>2024-08-03T08:57:46Z</time>
      </trkpt>
      <trkpt lat="47.3028" lon="5.93783">
        <ele>242.4</ele>
        <time>2024-08-03T08:57:47Z</time>
      </trkpt>
      <trkpt lat="47.3028" lon="5.93779">
        <ele>242.4</ele>
        <time>2024-08-03T08:57:48Z</time>
      </trkpt>
      <trkpt lat="47.30279" lon="5.93776">
        <ele>242.6</ele>
        <time>2024-08-03T08:57:49Z</time>
      </trkpt>
      <trkpt lat="47.30279" lon="5.93773">
        <ele>242.6</ele>
        <time>2024-08-03T08:57:50Z</time>
      </trkpt>
      <trkpt lat="47.30278" lon="5.93771">
        <ele>242.8</ele>
        <time>2024-08-03T08:57:51Z</time>
      </trkpt>
      <trkpt lat="47.30278" lon="5.93769">
        <ele>243</ele>
        <time>2024-08-03T08:57:52Z</time>
      </trkpt>
      <trkpt lat="47.30277" lon="5.93767">
        <ele>243</ele>
        <time>2024-08-03T08:57:53Z</time>
      </trkpt>
      <trkpt lat="47.30277" lon="5.93765">
        <ele>243</ele>
        <time>2024-08-03T08:57:54Z</time>
      </trkpt>
      <trkpt lat="47.30276" lon="5.93764">
        <ele>243.2</ele>
        <time>2024-08-03T08:57:55Z</time>
      </trkpt>
      <trkpt lat="47.30275" lon="5.93762">
        <ele>243.4</ele>
        <time>2024-08-03T08:57:56Z</time>
      </trkpt>
      <trkpt lat="47.30273" lon="5.93761">
        <ele>243.6</ele>
        <time>2024-08-03T08:57:57Z</time>
      </trkpt>
      <trkpt lat="47.3027" lon="5.93759">
        <ele>244</ele>
        <time>2024-08-03T08:57:58Z</time>
      </trkpt>
      <trkpt lat="47.30268" lon="5.93756">
        <ele>244.4</ele>
        <time>2024-08-03T08:57:59Z</time>
      </trkpt>
      <trkpt lat="47.30266" lon="5.93752">
        <ele>244.4</ele>
        <time>2024-08-03T08:58:00Z</time>
      </trkpt>
      <trkpt lat="47.30264" lon="5.93749">
        <ele>244.4</ele>
        <time>2024-08-03T08:58:01Z</time>
      </trkpt>
      <trkpt lat="47.30263" lon="5.93744">
        <ele>244.6</ele>
        <time>2024-08-03T08:58:02Z</time>
      </trkpt>
      <trkpt lat="47.30261" lon="5.9374">
        <ele>244.8</ele>
        <time>2024-08-03T08:58:03Z</time>
      </trkpt>
      <trkpt lat="47.3026" lon="5.93735">
        <ele>244.6</ele>
        <time>2024-08-03T08:58:04Z</time>
      </trkpt>
      <trkpt lat="47.30259" lon="5.9373">
        <ele>244.6</ele>
        <time>2024-08-03T08:58:05Z</time>
      </trkpt>
      <trkpt lat="47.30257" lon="5.93725">
        <ele>244.8</ele>
        <time>2024-08-03T08:58:06Z</time>
      </trkpt>
      <trkpt lat="47.30256" lon="5.9372">
        <ele>244.8</ele>
        <time>2024-08-03T08:58:07Z</time>
      </trkpt>
      <trkpt lat="47.30256" lon="5.93715">
        <ele>244.6</ele>
        <time>2024-08-03T08:58:08Z</time>
      </trkpt>
      <trkpt lat="47.30255" lon="5.93711">
        <ele>245</ele>
        <time>2024-08-03T08:58:09Z</time>
      </trkpt>
      <trkpt lat="47.30254" lon="5.93706">
        <ele>245.2</ele>
        <time>2024-08-03T08:58:10Z</time>
      </trkpt>
      <trkpt lat="47.30253" lon="5.93701">
        <ele>245.4</ele>
        <time>2024-08-03T08:58:11Z</time>
      </trkpt>
      <trkpt lat="47.30252" lon="5.93696">
        <ele>245.4</ele>
        <time>2024-08-03T08:58:12Z</time>
      </trkpt>
      <trkpt lat="47.30251" lon="5.93691">
        <ele>245.8</ele>
        <time>2024-08-03T08:58:13Z</time>
      </trkpt>
      <trkpt lat="47.3025" lon="5.93686">
        <ele>245.8</ele>
        <time>2024-08-03T08:58:14Z</time>
      </trkpt>
      <trkpt lat="47.30248" lon="5.93681">
        <ele>245.8</ele>
        <time>2024-08-03T08:58:15Z</time>
      </trkpt>
      <trkpt lat="47.30246" lon="5.93676">
        <ele>246.2</ele>
        <time>2024-08-03T08:58:16Z</time>
      </trkpt>
      <trkpt lat="47.30245" lon="5.93672">
        <ele>246.4</ele>
        <time>2024-08-03T08:58:17Z</time>
      </trkpt>
      <trkpt lat="47.30242" lon="5.93667">
        <ele>246.6</ele>
        <time>2024-08-03T08:58:18Z</time>
      </trkpt>
      <trkpt lat="47.3024" lon="5.93664">
        <ele>246.6</ele>
        <time>2024-08-03T08:58:19Z</time>
      </trkpt>
      <trkpt lat="47.30238" lon="5.9366">
        <ele>246.8</ele>
        <time>2024-08-03T08:58:20Z</time>
      </trkpt>
      <trkpt lat="47.30235" lon="5.93657">
        <ele>247</ele>
        <time>2024-08-03T08:58:21Z</time>
      </trkpt>
      <trkpt lat="47.30232" lon="5.93654">
        <ele>247.2</ele>
        <time>2024-08-03T08:58:22Z</time>
      </trkpt>
      <trkpt lat="47.30228" lon="5.93651">
        <ele>247.4</ele>
        <time>2024-08-03T08:58:23Z</time>
      </trkpt>
      <trkpt lat="47.30224" lon="5.93649">
        <ele>247.6</ele>
        <time>2024-08-03T08:58:24Z</time>
      </trkpt>
      <trkpt lat="47.3022" lon="5.93648">
        <ele>247.8</ele>
        <time>2024-08-03T08:58:25Z</time>
      </trkpt>
      <trkpt lat="47.30216" lon="5.93647">
        <ele>247.8</ele>
        <time>2024-08-03T08:58:26Z</time>
      </trkpt>
      <trkpt lat="47.3021" lon="5.93646">
        <ele>247.8</ele>
        <time>2024-08-03T08:58:27Z</time>
      </trkpt>
      <trkpt lat="47.30206" lon="5.93646">
        <ele>247.6</ele>
        <time>2024-08-03T08:58:28Z</time>
      </trkpt>
      <trkpt lat="47.302" lon="5.93647">
        <ele>247.6</ele>
        <time>2024-08-03T08:58:29Z</time>
      </trkpt>
      <trkpt lat="47.30195" lon="5.93648">
        <ele>247.8</ele>
        <time>2024-08-03T08:58:30Z</time>
      </trkpt>
      <trkpt lat="47.30188" lon="5.9365">
        <ele>247.8</ele>
        <time>2024-08-03T08:58:31Z</time>
      </trkpt>
      <trkpt lat="47.30182" lon="5.93652">
        <ele>247.8</ele>
        <time>2024-08-03T08:58:32Z</time>
      </trkpt>
      <trkpt lat="47.30176" lon="5.93655">
        <ele>247.6</ele>
        <time>2024-08-03T08:58:33Z</time>
      </trkpt>
      <trkpt lat="47.30169" lon="5.93658">
        <ele>247.8</ele>
        <time>2024-08-03T08:58:34Z</time>
      </trkpt>
      <trkpt lat="47.30163" lon="5.93661">
        <ele>247.6</ele>
        <time>2024-08-03T08:58:35Z</time>
      </trkpt>
      <trkpt lat="47.30157" lon="5.93664">
        <ele>247.2</ele>
        <time>2024-08-03T08:58:36Z</time>
      </trkpt>
      <trkpt lat="47.30151" lon="5.93668">
        <ele>247.2</ele>
        <time>2024-08-03T08:58:37Z</time>
      </trkpt>
      <trkpt lat="47.30145" lon="5.93672">
        <ele>247.2</ele>
        <time>2024-08-03T08:58:38Z</time>
      </trkpt>
      <trkpt lat="47.30139" lon="5.93676">
        <ele>247</ele>
        <time>2024-08-03T08:58:39Z</time>
      </trkpt>
      <trkpt lat="47.30133" lon="5.9368">
        <ele>246.8</ele>
        <time>2024-08-03T08:58:40Z</time>
      </trkpt>
      <trkpt lat="47.30128" lon="5.93684">
        <ele>246.4</ele>
        <time>2024-08-03T08:58:41Z</time>
      </trkpt>
      <trkpt lat="47.30123" lon="5.93687">
        <ele>246.4</ele>
        <time>2024-08-03T08:58:42Z</time>
      </trkpt>
      <trkpt lat="47.30119" lon="5.93689">
        <ele>246</ele>
        <time>2024-08-03T08:58:43Z</time>
      </trkpt>
      <trkpt lat="47.30116" lon="5.93689">
        <ele>245.6</ele>
        <time>2024-08-03T08:58:44Z</time>
      </trkpt>
      <trkpt lat="47.30113" lon="5.93688">
        <ele>245.4</ele>
        <time>2024-08-03T08:58:45Z</time>
      </trkpt>
      <trkpt lat="47.3011" lon="5.93685">
        <ele>245.2</ele>
        <time>2024-08-03T08:58:46Z</time>
      </trkpt>
      <trkpt lat="47.30109" lon="5.93682">
        <ele>244.8</ele>
        <time>2024-08-03T08:58:47Z</time>
      </trkpt>
      <trkpt lat="47.30107" lon="5.93678">
        <ele>244.8</ele>
        <time>2024-08-03T08:58:48Z</time>
      </trkpt>
      <trkpt lat="47.30107" lon="5.93674">
        <ele>244.8</ele>
        <time>2024-08-03T08:58:49Z</time>
      </trkpt>
      <trkpt lat="47.30106" lon="5.93671">
        <ele>244.4</ele>
        <time>2024-08-03T08:58:50Z</time>
      </trkpt>
      <trkpt lat="47.30105" lon="5.93666">
        <ele>244.4</ele>
        <time>2024-08-03T08:58:51Z</time>
      </trkpt>
      <trkpt lat="47.30103" lon="5.93662">
        <ele>244.2</ele>
        <time>2024-08-03T08:58:52Z</time>
      </trkpt>
      <trkpt lat="47.30102" lon="5.93658">
        <ele>244</ele>
        <time>2024-08-03T08:58:53Z</time>
      </trkpt>
      <trkpt lat="47.301" lon="5.93654">
        <ele>244.2</ele>
        <time>2024-08-03T08:58:54Z</time>
      </trkpt>
      <trkpt lat="47.30097" lon="5.93649">
        <ele>244</ele>
        <time>2024-08-03T08:58:55Z</time>
      </trkpt>
      <trkpt lat="47.30095" lon="5.93644">
        <ele>244.2</ele>
        <time>2024-08-03T08:58:56Z</time>
      </trkpt>
      <trkpt lat="47.30093" lon="5.9364">
        <ele>244</ele>
        <time>2024-08-03T08:58:57Z</time>
      </trkpt>
      <trkpt lat="47.30091" lon="5.93636">
        <ele>244</ele>
        <time>2024-08-03T08:58:58Z</time>
      </trkpt>
      <trkpt lat="47.30088" lon="5.93632">
        <ele>244</ele>
        <time>2024-08-03T08:58:59Z</time>
      </trkpt>
      <trkpt lat="47.30086" lon="5.93628">
        <ele>244</ele>
        <time>2024-08-03T08:59:00Z</time>
      </trkpt>
      <trkpt lat="47.30083" lon="5.93624">
        <ele>244</ele>
        <time>2024-08-03T08:59:01Z</time>
      </trkpt>
      <trkpt lat="47.3008" lon="5.9362">
        <ele>244.2</ele>
        <time>2024-08-03T08:59:02Z</time>
      </trkpt>
      <trkpt lat="47.30077" lon="5.93616">
        <ele>244.2</ele>
        <time>2024-08-03T08:59:03Z</time>
      </trkpt>
      <trkpt lat="47.30074" lon="5.93611">
        <ele>244.2</ele>
        <time>2024-08-03T08:59:04Z</time>
      </trkpt>
      <trkpt lat="47.30071" lon="5.93607">
        <ele>244.4</ele>
        <time>2024-08-03T08:59:05Z</time>
      </trkpt>
      <trkpt lat="47.30068" lon="5.93603">
        <ele>244.2</ele>
        <time>2024-08-03T08:59:06Z</time>
      </trkpt>
      <trkpt lat="47.30065" lon="5.93598">
        <ele>244.6</ele>
        <time>2024-08-03T08:59:07Z</time>
      </trkpt>
      <trkpt lat="47.30062" lon="5.93593">
        <ele>244.6</ele>
        <time>2024-08-03T08:59:08Z</time>
      </trkpt>
      <trkpt lat="47.30059" lon="5.93588">
        <ele>244.8</ele>
        <time>2024-08-03T08:59:09Z</time>
      </trkpt>
      <trkpt lat="47.30056" lon="5.93583">
        <ele>245.2</ele>
        <time>2024-08-03T08:59:10Z</time>
      </trkpt>
      <trkpt lat="47.30053" lon="5.93578">
        <ele>245.2</ele>
        <time>2024-08-03T08:59:11Z</time>
      </trkpt>
      <trkpt lat="47.3005" lon="5.93572">
        <ele>245.4</ele>
        <time>2024-08-03T08:59:12Z</time>
      </trkpt>
      <trkpt lat="47.30047" lon="5.93567">
        <ele>245.6</ele>
        <time>2024-08-03T08:59:13Z</time>
      </trkpt>
      <trkpt lat="47.30044" lon="5.93561">
        <ele>245.4</ele>
        <time>2024-08-03T08:59:14Z</time>
      </trkpt>
      <trkpt lat="47.30042" lon="5.93555">
        <ele>245.4</ele>
        <time>2024-08-03T08:59:15Z</time>
      </trkpt>
      <trkpt lat="47.30039" lon="5.93549">
        <ele>245.6</ele>
        <time>2024-08-03T08:59:16Z</time>
      </trkpt>
      <trkpt lat="47.30036" lon="5.93543">
        <ele>245.6</ele>
        <time>2024-08-03T08:59:17Z</time>
      </trkpt>
      <trkpt lat="47.30033" lon="5.93536">
        <ele>245.6</ele>
        <time>2024-08-03T08:59:18Z</time>
      </trkpt>
      <trkpt lat="47.3003" lon="5.9353">
        <ele>245.6</ele>
        <time>2024-08-03T08:59:19Z</time>
      </trkpt>
      <trkpt lat="47.30028" lon="5.93523">
        <ele>245.6</ele>
        <time>2024-08-03T08:59:20Z</time>
      </trkpt>
      <trkpt lat="47.30026" lon="5.93518">
        <ele>245.6</ele>
        <time>2024-08-03T08:59:21Z</time>
      </trkpt>
      <trkpt lat="47.30024" lon="5.93512">
        <ele>245.8</ele>
        <time>2024-08-03T08:59:22Z</time>
      </trkpt>
      <trkpt lat="47.30022" lon="5.93507">
        <ele>245.8</ele>
        <time>2024-08-03T08:59:23Z</time>
      </trkpt>
      <trkpt lat="47.3002" lon="5.93502">
        <ele>245.8</ele>
        <time>2024-08-03T08:59:24Z</time>
      </trkpt>
      <trkpt lat="47.30018" lon="5.93498">
        <ele>245.6</ele>
        <time>2024-08-03T08:59:25Z</time>
      </trkpt>
      <trkpt lat="47.30017" lon="5.93494">
        <ele>245.8</ele>
        <time>2024-08-03T08:59:26Z</time>
      </trkpt>
      <trkpt lat="47.30015" lon="5.93489">
        <ele>245.6</ele>
        <time>2024-08-03T08:59:27Z</time>
      </trkpt>
      <trkpt lat="47.30013" lon="5.93485">
        <ele>245.8</ele>
        <time>2024-08-03T08:59:28Z</time>
      </trkpt>
      <trkpt lat="47.3001" lon="5.93481">
        <ele>245.8</ele>
        <time>2024-08-03T08:59:29Z</time>
      </trkpt>
      <trkpt lat="47.30008" lon="5.93477">
        <ele>245.8</ele>
        <time>2024-08-03T08:59:30Z</time>
      </trkpt>
      <trkpt lat="47.30005" lon="5.93473">
        <ele>245.8</ele>
        <time>2024-08-03T08:59:31Z</time>
      </trkpt>
      <trkpt lat="47.30002" lon="5.93469">
        <ele>245.8</ele>
        <time>2024-08-03T08:59:32Z</time>
      </trkpt>
      <trkpt lat="47.29999" lon="5.93466">
        <ele>245.8</ele>
        <time>2024-08-03T08:59:33Z</time>
      </trkpt>
      <trkpt lat="47.29996" lon="5.93463">
        <ele>245.8</ele>
        <time>2024-08-03T08:59:34Z</time>
      </trkpt>
      <trkpt lat="47.29994" lon="5.9346">
        <ele>245.8</ele>
        <time>2024-08-03T08:59:35Z</time>
      </trkpt>
      <trkpt lat="47.29991" lon="5.93457">
        <ele>245.8</ele>
        <time>2024-08-03T08:59:36Z</time>
      </trkpt>
      <trkpt lat="47.29988" lon="5.93454">
        <ele>245.8</ele>
        <time>2024-08-03T08:59:37Z</time>
      </trkpt>
      <trkpt lat="47.29986" lon="5.93451">
        <ele>245.8</ele>
        <time>2024-08-03T08:59:38Z</time>
      </trkpt>
      <trkpt lat="47.29983" lon="5.93449">
        <ele>246</ele>
        <time>2024-08-03T08:59:39Z</time>
      </trkpt>
      <trkpt lat="47.29981" lon="5.93447">
        <ele>246</ele>
        <time>2024-08-03T08:59:40Z</time>
      </trkpt>
      <trkpt lat="47.29978" lon="5.93444">
        <ele>246.2</ele>
        <time>2024-08-03T08:59:41Z</time>
      </trkpt>
      <trkpt lat="47.29976" lon="5.93442">
        <ele>246.4</ele>
        <time>2024-08-03T08:59:42Z</time>
      </trkpt>
      <trkpt lat="47.29974" lon="5.9344">
        <ele>246.4</ele>
        <time>2024-08-03T08:59:43Z</time>
      </trkpt>
      <trkpt lat="47.29971" lon="5.93438">
        <ele>246.4</ele>
        <time>2024-08-03T08:59:44Z</time>
      </trkpt>
      <trkpt lat="47.29969" lon="5.93436">
        <ele>246.8</ele>
        <time>2024-08-03T08:59:45Z</time>
      </trkpt>
      <trkpt lat="47.29966" lon="5.93434">
        <ele>247</ele>
        <time>2024-08-03T08:59:46Z</time>
      </trkpt>
      <trkpt lat="47.29963" lon="5.93432">
        <ele>247.2</ele>
        <time>2024-08-03T08:59:47Z</time>
      </trkpt>
      <trkpt lat="47.29959" lon="5.9343">
        <ele>247.4</ele>
        <time>2024-08-03T08:59:48Z</time>
      </trkpt>
      <trkpt lat="47.29956" lon="5.93428">
        <ele>247.8</ele>
        <time>2024-08-03T08:59:49Z</time>
      </trkpt>
      <trkpt lat="47.29953" lon="5.93426">
        <ele>247.8</ele>
        <time>2024-08-03T08:59:50Z</time>
      </trkpt>
      <trkpt lat="47.2995" lon="5.93424">
        <ele>248.2</ele>
        <time>2024-08-03T08:59:51Z</time>
      </trkpt>
      <trkpt lat="47.29947" lon="5.93422">
        <ele>248.4</ele>
        <time>2024-08-03T08:59:52Z</time>
      </trkpt>
      <trkpt lat="47.29944" lon="5.9342">
        <ele>248.6</ele>
        <time>2024-08-03T08:59:53Z</time>
      </trkpt>
      <trkpt lat="47.29941" lon="5.93418">
        <ele>248.8</ele>
        <time>2024-08-03T08:59:54Z</time>
      </trkpt>
      <trkpt lat="47.29938" lon="5.93416">
        <ele>249.2</ele>
        <time>2024-08-03T08:59:55Z</time>
      </trkpt>
      <trkpt lat="47.29935" lon="5.93414">
        <ele>249.4</ele>
        <time>2024-08-03T08:59:56Z</time>
      </trkpt>
      <trkpt lat="47.29933" lon="5.93413">
        <ele>249.6</ele>
        <time>2024-08-03T08:59:57Z</time>
      </trkpt>
      <trkpt lat="47.2993" lon="5.9341">
        <ele>250</ele>
        <time>2024-08-03T08:59:58Z</time>
      </trkpt>
      <trkpt lat="47.29927" lon="5.93408">
        <ele>250.4</ele>
        <time>2024-08-03T08:59:59Z</time>
      </trkpt>
      <trkpt lat="47.29924" lon="5.93406">
        <ele>250.4</ele>
        <time>2024-08-03T09:00:00Z</time>
      </trkpt>
      <trkpt lat="47.29921" lon="5.93404">
        <ele>250.6</ele>
        <time>2024-08-03T09:00:01Z</time>
      </trkpt>
      <trkpt lat="47.29918" lon="5.93402">
        <ele>251.2</ele>
        <time>2024-08-03T09:00:02Z</time>
      </trkpt>
      <trkpt lat="47.29915" lon="5.934">
        <ele>251.2</ele>
        <time>2024-08-03T09:00:03Z</time>
      </trkpt>
      <trkpt lat="47.29913" lon="5.93398">
        <ele>251.4</ele>
        <time>2024-08-03T09:00:04Z</time>
      </trkpt>
      <trkpt lat="47.2991" lon="5.93396">
        <ele>251.4</ele>
        <time>2024-08-03T09:00:05Z</time>
      </trkpt>
      <trkpt lat="47.29907" lon="5.93393">
        <ele>251.4</ele>
        <time>2024-08-03T09:00:06Z</time>
      </trkpt>
      <trkpt lat="47.29905" lon="5.9339">
        <ele>251.8</ele>
        <time>2024-08-03T09:00:07Z</time>
      </trkpt>
      <trkpt lat="47.29902" lon="5.93388">
        <ele>252</ele>
        <time>2024-08-03T09:00:08Z</time>
      </trkpt>
      <trkpt lat="47.29899" lon="5.93385">
        <ele>252.2</ele>
        <time>2024-08-03T09:00:09Z</time>
      </trkpt>
      <trkpt lat="47.29897" lon="5.93382">
        <ele>252.4</ele>
        <time>2024-08-03T09:00:10Z</time>
      </trkpt>
      <trkpt lat="47.29894" lon="5.93378">
        <ele>252.6</ele>
        <time>2024-08-03T09:00:11Z</time>
      </trkpt>
      <trkpt lat="47.29891" lon="5.93375">
        <ele>252.6</ele>
        <time>2024-08-03T09:00:12Z</time>
      </trkpt>
      <trkpt lat="47.29888" lon="5.93372">
        <ele>252.6</ele>
        <time>2024-08-03T09:00:13Z</time>
      </trkpt>
      <trkpt lat="47.29885" lon="5.93368">
        <ele>252.8</ele>
        <time>2024-08-03T09:00:14Z</time>
      </trkpt>
      <trkpt lat="47.29882" lon="5.93364">
        <ele>253</ele>
        <time>2024-08-03T09:00:15Z</time>
      </trkpt>
      <trkpt lat="47.2988" lon="5.93361">
        <ele>253</ele>
        <time>2024-08-03T09:00:16Z</time>
      </trkpt>
      <trkpt lat="47.29877" lon="5.93357">
        <ele>253.2</ele>
        <time>2024-08-03T09:00:17Z</time>
      </trkpt>
      <trkpt lat="47.29874" lon="5.93353">
        <ele>253.2</ele>
        <time>2024-08-03T09:00:18Z</time>
      </trkpt>
      <trkpt lat="47.29871" lon="5.93349">
        <ele>253.4</ele>
        <time>2024-08-03T09:00:19Z</time>
      </trkpt>
      <trkpt lat="47.29869" lon="5.93345">
        <ele>253.4</ele>
        <time>2024-08-03T09:00:20Z</time>
      </trkpt>
      <trkpt lat="47.29866" lon="5.93341">
        <ele>253.6</ele>
        <time>2024-08-03T09:00:21Z</time>
      </trkpt>
      <trkpt lat="47.29864" lon="5.93338">
        <ele>254</ele>
        <time>2024-08-03T09:00:22Z</time>
      </trkpt>
      <trkpt lat="47.29862" lon="5.93334">
        <ele>254.4</ele>
        <time>2024-08-03T09:00:23Z</time>
      </trkpt>
      <trkpt lat="47.29859" lon="5.9333">
        <ele>254.4</ele>
        <time>2024-08-03T09:00:24Z</time>
      </trkpt>
      <trkpt lat="47.29857" lon="5.93327">
        <ele>254.6</ele>
        <time>2024-08-03T09:00:25Z</time>
      </trkpt>
      <trkpt lat="47.29855" lon="5.93323">
        <ele>254.6</ele>
        <time>2024-08-03T09:00:26Z</time>
      </trkpt>
      <trkpt lat="47.29852" lon="5.93319">
        <ele>254.6</ele>
        <time>2024-08-03T09:00:27Z</time>
      </trkpt>
      <trkpt lat="47.2985" lon="5.93316">
        <ele>254.8</ele>
        <time>2024-08-03T09:00:28Z</time>
      </trkpt>
      <trkpt lat="47.29849" lon="5.93312">
        <ele>254.8</ele>
        <time>2024-08-03T09:00:29Z</time>
      </trkpt>
      <trkpt lat="47.29847" lon="5.93309">
        <ele>254.8</ele>
        <time>2024-08-03T09:00:30Z</time>
      </trkpt>
      <trkpt lat="47.29845" lon="5.93305">
        <ele>255</ele>
        <time>2024-08-03T09:00:31Z</time>
      </trkpt>
      <trkpt lat="47.29842" lon="5.93302">
        <ele>255.2</ele>
        <time>2024-08-03T09:00:32Z</time>
      </trkpt>
      <trkpt lat="47.29841" lon="5.93298">
        <ele>255.2</ele>
        <time>2024-08-03T09:00:33Z</time>
      </trkpt>
      <trkpt lat="47.29839" lon="5.93295">
        <ele>255.4</ele>
        <time>2024-08-03T09:00:34Z</time>
      </trkpt>
      <trkpt lat="47.29836" lon="5.93291">
        <ele>255.8</ele>
        <time>2024-08-03T09:00:35Z</time>
      </trkpt>
      <trkpt lat="47.29834" lon="5.93288">
        <ele>255.8</ele>
        <time>2024-08-03T09:00:36Z</time>
      </trkpt>
      <trkpt lat="47.29832" lon="5.93285">
        <ele>256</ele>
        <time>2024-08-03T09:00:37Z</time>
      </trkpt>
      <trkpt lat="47.29829" lon="5.93281">
        <ele>256</ele>
        <time>2024-08-03T09:00:38Z</time>
      </trkpt>
      <trkpt lat="47.29827" lon="5.93278">
        <ele>256.2</ele>
        <time>2024-08-03T09:00:39Z</time>
      </trkpt>
      <trkpt lat="47.29824" lon="5.93275">
        <ele>256.2</ele>
        <time>2024-08-03T09:00:40Z</time>
      </trkpt>
      <trkpt lat="47.29822" lon="5.93271">
        <ele>256.4</ele>
        <time>2024-08-03T09:00:41Z</time>
      </trkpt>
      <trkpt lat="47.29819" lon="5.93268">
        <ele>256.4</ele>
        <time>2024-08-03T09:00:42Z</time>
      </trkpt>
      <trkpt lat="47.29817" lon="5.93266">
        <ele>256.4</ele>
        <time>2024-08-03T09:00:43Z</time>
      </trkpt>
      <trkpt lat="47.29814" lon="5.93263">
        <ele>256.4</ele>
        <time>2024-08-03T09:00:44Z</time>
      </trkpt>
      <trkpt lat="47.29811" lon="5.93261">
        <ele>256.4</ele>
        <time>2024-08-03T09:00:45Z</time>
      </trkpt>
      <trkpt lat="47.29809" lon="5.93258">
        <ele>256.4</ele>
        <time>2024-08-03T09:00:46Z</time>
      </trkpt>
      <trkpt lat="47.29806" lon="5.93255">
        <ele>256.4</ele>
        <time>2024-08-03T09:00:47Z</time>
      </trkpt>
      <trkpt lat="47.29803" lon="5.93251">
        <ele>256.4</ele>
        <time>2024-08-03T09:00:48Z</time>
      </trkpt>
      <trkpt lat="47.298" lon="5.93246">
        <ele>256.4</ele>
        <time>2024-08-03T09:00:49Z</time>
      </trkpt>
      <trkpt lat="47.29797" lon="5.93241">
        <ele>256.4</ele>
        <time>2024-08-03T09:00:50Z</time>
      </trkpt>
      <trkpt lat="47.29794" lon="5.93237">
        <ele>256.4</ele>
        <time>2024-08-03T09:00:51Z</time>
      </trkpt>
      <trkpt lat="47.2979" lon="5.93232">
        <ele>256.4</ele>
        <time>2024-08-03T09:00:52Z</time>
      </trkpt>
      <trkpt lat="47.29787" lon="5.93228">
        <ele>256.4</ele>
        <time>2024-08-03T09:00:53Z</time>
      </trkpt>
      <trkpt lat="47.29784" lon="5.93223">
        <ele>256.6</ele>
        <time>2024-08-03T09:00:54Z</time>
      </trkpt>
      <trkpt lat="47.29781" lon="5.93218">
        <ele>256.4</ele>
        <time>2024-08-03T09:00:55Z</time>
      </trkpt>
      <trkpt lat="47.29777" lon="5.93214">
        <ele>256.4</ele>
        <time>2024-08-03T09:00:56Z</time>
      </trkpt>
      <trkpt lat="47.29774" lon="5.93209">
        <ele>256.4</ele>
        <time>2024-08-03T09:00:57Z</time>
      </trkpt>
      <trkpt lat="47.2977" lon="5.93204">
        <ele>256.4</ele>
        <time>2024-08-03T09:00:58Z</time>
      </trkpt>
      <trkpt lat="47.29767" lon="5.93199">
        <ele>256.6</ele>
        <time>2024-08-03T09:00:59Z</time>
      </trkpt>
      <trkpt lat="47.29763" lon="5.93194">
        <ele>256.6</ele>
        <time>2024-08-03T09:01:00Z</time>
      </trkpt>
      <trkpt lat="47.29761" lon="5.93189">
        <ele>256.8</ele>
        <time>2024-08-03T09:01:01Z</time>
      </trkpt>
      <trkpt lat="47.29757" lon="5.93184">
        <ele>256.6</ele>
        <time>2024-08-03T09:01:02Z</time>
      </trkpt>
      <trkpt lat="47.29754" lon="5.93179">
        <ele>256.8</ele>
        <time>2024-08-03T09:01:03Z</time>
      </trkpt>
      <trkpt lat="47.2975" lon="5.93174">
        <ele>256.8</ele>
        <time>2024-08-03T09:01:04Z</time>
      </trkpt>
      <trkpt lat="47.29746" lon="5.93169">
        <ele>256.8</ele>
        <time>2024-08-03T09:01:05Z</time>
      </trkpt>
      <trkpt lat="47.29743" lon="5.93164">
        <ele>256.8</ele>
        <time>2024-08-03T09:01:06Z</time>
      </trkpt>
      <trkpt lat="47.29739" lon="5.93158">
        <ele>257</ele>
        <time>2024-08-03T09:01:07Z</time>
      </trkpt>
      <trkpt lat="47.29736" lon="5.93153">
        <ele>257</ele>
        <time>2024-08-03T09:01:08Z</time>
      </trkpt>
      <trkpt lat="47.29733" lon="5.93148">
        <ele>257</ele>
        <time>2024-08-03T09:01:09Z</time>
      </trkpt>
      <trkpt lat="47.2973" lon="5.93143">
        <ele>257</ele>
        <time>2024-08-03T09:01:10Z</time>
      </trkpt>
      <trkpt lat="47.29727" lon="5.93138">
        <ele>257</ele>
        <time>2024-08-03T09:01:11Z</time>
      </trkpt>
      <trkpt lat="47.29724" lon="5.93133">
        <ele>257</ele>
        <time>2024-08-03T09:01:12Z</time>
      </trkpt>
      <trkpt lat="47.29721" lon="5.93129">
        <ele>257</ele>
        <time>2024-08-03T09:01:13Z</time>
      </trkpt>
      <trkpt lat="47.29718" lon="5.93124">
        <ele>257</ele>
        <time>2024-08-03T09:01:14Z</time>
      </trkpt>
      <trkpt lat="47.29715" lon="5.9312">
        <ele>257.2</ele>
        <time>2024-08-03T09:01:15Z</time>
      </trkpt>
      <trkpt lat="47.29712" lon="5.93116">
        <ele>257.4</ele>
        <time>2024-08-03T09:01:16Z</time>
      </trkpt>
      <trkpt lat="47.29709" lon="5.93111">
        <ele>257.4</ele>
        <time>2024-08-03T09:01:17Z</time>
      </trkpt>
      <trkpt lat="47.29707" lon="5.93107">
        <ele>257.6</ele>
        <time>2024-08-03T09:01:18Z</time>
      </trkpt>
      <trkpt lat="47.29704" lon="5.93103">
        <ele>257.6</ele>
        <time>2024-08-03T09:01:19Z</time>
      </trkpt>
      <trkpt lat="47.29701" lon="5.93099">
        <ele>257.8</ele>
        <time>2024-08-03T09:01:20Z</time>
      </trkpt>
      <trkpt lat="47.29698" lon="5.93094">
        <ele>258</ele>
        <time>2024-08-03T09:01:21Z</time>
      </trkpt>
      <trkpt lat="47.29695" lon="5.9309">
        <ele>258</ele>
        <time>2024-08-03T09:01:22Z</time>
      </trkpt>
      <trkpt lat="47.29693" lon="5.93086">
        <ele>258.4</ele>
        <time>2024-08-03T09:01:23Z</time>
      </trkpt>
      <trkpt lat="47.2969" lon="5.93082">
        <ele>258.6</ele>
        <time>2024-08-03T09:01:24Z</time>
      </trkpt>
      <trkpt lat="47.29686" lon="5.93078">
        <ele>258.8</ele>
        <time>2024-08-03T09:01:25Z</time>
      </trkpt>
      <trkpt lat="47.29683" lon="5.93075">
        <ele>258.8</ele>
        <time>2024-08-03T09:01:26Z</time>
      </trkpt>
      <trkpt lat="47.2968" lon="5.93071">
        <ele>259</ele>
        <time>2024-08-03T09:01:27Z</time>
      </trkpt>
      <trkpt lat="47.29677" lon="5.93068">
        <ele>259</ele>
        <time>2024-08-03T09:01:28Z</time>
      </trkpt>
      <trkpt lat="47.29674" lon="5.93065">
        <ele>259.2</ele>
        <time>2024-08-03T09:01:29Z</time>
      </trkpt>
      <trkpt lat="47.29671" lon="5.93062">
        <ele>259.2</ele>
        <time>2024-08-03T09:01:30Z</time>
      </trkpt>
      <trkpt lat="47.29668" lon="5.9306">
        <ele>259.4</ele>
        <time>2024-08-03T09:01:31Z</time>
      </trkpt>
      <trkpt lat="47.29664" lon="5.93057">
        <ele>259.6</ele>
        <time>2024-08-03T09:01:32Z</time>
      </trkpt>
      <trkpt lat="47.29661" lon="5.93054">
        <ele>259.6</ele>
        <time>2024-08-03T09:01:33Z</time>
      </trkpt>
      <trkpt lat="47.29658" lon="5.93051">
        <ele>259.6</ele>
        <time>2024-08-03T09:01:34Z</time>
      </trkpt>
      <trkpt lat="47.29655" lon="5.93049">
        <ele>260</ele>
        <time>2024-08-03T09:01:35Z</time>
      </trkpt>
      <trkpt lat="47.29652" lon="5.93046">
        <ele>260.2</ele>
        <time>2024-08-03T09:01:36Z</time>
      </trkpt>
      <trkpt lat="47.29649" lon="5.93044">
        <ele>260.2</ele>
        <time>2024-08-03T09:01:37Z</time>
      </trkpt>
      <trkpt lat="47.29646" lon="5.93041">
        <ele>260.4</ele>
        <time>2024-08-03T09:01:38Z</time>
      </trkpt>
      <trkpt lat="47.29643" lon="5.93037">
        <ele>260.8</ele>
        <time>2024-08-03T09:01:39Z</time>
      </trkpt>
      <trkpt lat="47.2964" lon="5.93034">
        <ele>260.8</ele>
        <time>2024-08-03T09:01:40Z</time>
      </trkpt>
      <trkpt lat="47.29637" lon="5.9303">
        <ele>261.2</ele>
        <time>2024-08-03T09:01:41Z</time>
      </trkpt>
      <trkpt lat="47.29635" lon="5.93025">
        <ele>261.4</ele>
        <time>2024-08-03T09:01:42Z</time>
      </trkpt>
      <trkpt lat="47.29632" lon="5.93021">
        <ele>261.6</ele>
        <time>2024-08-03T09:01:43Z</time>
      </trkpt>
      <trkpt lat="47.29629" lon="5.93016">
        <ele>261.6</ele>
        <time>2024-08-03T09:01:44Z</time>
      </trkpt>
      <trkpt lat="47.29627" lon="5.93011">
        <ele>261.8</ele>
        <time>2024-08-03T09:01:45Z</time>
      </trkpt>
      <trkpt lat="47.29624" lon="5.93006">
        <ele>262</ele>
        <time>2024-08-03T09:01:46Z</time>
      </trkpt>
      <trkpt lat="47.29622" lon="5.93001">
        <ele>262.2</ele>
        <time>2024-08-03T09:01:47Z</time>
      </trkpt>
      <trkpt lat="47.2962" lon="5.92996">
        <ele>262.2</ele>
        <time>2024-08-03T09:01:48Z</time>
      </trkpt>
      <trkpt lat="47.29617" lon="5.92991">
        <ele>262.4</ele>
        <time>2024-08-03T09:01:49Z</time>
      </trkpt>
      <trkpt lat="47.29615" lon="5.92986">
        <ele>262.6</ele>
        <time>2024-08-03T09:01:50Z</time>
      </trkpt>
      <trkpt lat="47.29612" lon="5.92981">
        <ele>262.6</ele>
        <time>2024-08-03T09:01:51Z</time>
      </trkpt>
      <trkpt lat="47.29609" lon="5.92976">
        <ele>262.6</ele>
        <time>2024-08-03T09:01:52Z</time>
      </trkpt>
      <trkpt lat="47.29606" lon="5.9297">
        <ele>262.6</ele>
        <time>2024-08-03T09:01:53Z</time>
      </trkpt>
      <trkpt lat="47.29604" lon="5.92965">
        <ele>262.6</ele>
        <time>2024-08-03T09:01:54Z</time>
      </trkpt>
      <trkpt lat="47.296" lon="5.92959">
        <ele>262.6</ele>
        <time>2024-08-03T09:01:55Z</time>
      </trkpt>
      <trkpt lat="47.29597" lon="5.92954">
        <ele>262.6</ele>
        <time>2024-08-03T09:01:56Z</time>
      </trkpt>
      <trkpt lat="47.29594" lon="5.92948">
        <ele>262.6</ele>
        <time>2024-08-03T09:01:57Z</time>
      </trkpt>
      <trkpt lat="47.29591" lon="5.92942">
        <ele>262.6</ele>
        <time>2024-08-03T09:01:58Z</time>
      </trkpt>
      <trkpt lat="47.29587" lon="5.92936">
        <ele>262.6</ele>
        <time>2024-08-03T09:01:59Z</time>
      </trkpt>
      <trkpt lat="47.29584" lon="5.92929">
        <ele>262.6</ele>
        <time>2024-08-03T09:02:00Z</time>
      </trkpt>
      <trkpt lat="47.29581" lon="5.92923">
        <ele>262.6</ele>
        <time>2024-08-03T09:02:01Z</time>
      </trkpt>
      <trkpt lat="47.29579" lon="5.92916">
        <ele>262.6</ele>
        <time>2024-08-03T09:02:02Z</time>
      </trkpt>
      <trkpt lat="47.29576" lon="5.92909">
        <ele>262.6</ele>
        <time>2024-08-03T09:02:03Z</time>
      </trkpt>
      <trkpt lat="47.29573" lon="5.92902">
        <ele>262.4</ele>
        <time>2024-08-03T09:02:04Z</time>
      </trkpt>
      <trkpt lat="47.29571" lon="5.92895">
        <ele>262.4</ele>
        <time>2024-08-03T09:02:05Z</time>
      </trkpt>
      <trkpt lat="47.29568" lon="5.92888">
        <ele>262.4</ele>
        <time>2024-08-03T09:02:06Z</time>
      </trkpt>
      <trkpt lat="47.29565" lon="5.92881">
        <ele>262.4</ele>
        <time>2024-08-03T09:02:07Z</time>
      </trkpt>
      <trkpt lat="47.29563" lon="5.92874">
        <ele>262.2</ele>
        <time>2024-08-03T09:02:08Z</time>
      </trkpt>
      <trkpt lat="47.29559" lon="5.92866">
        <ele>262</ele>
        <time>2024-08-03T09:02:09Z</time>
      </trkpt>
      <trkpt lat="47.29556" lon="5.92859">
        <ele>262</ele>
        <time>2024-08-03T09:02:10Z</time>
      </trkpt>
      <trkpt lat="47.29553" lon="5.92851">
        <ele>261.8</ele>
        <time>2024-08-03T09:02:11Z</time>
      </trkpt>
      <trkpt lat="47.2955" lon="5.92844">
        <ele>261.6</ele>
        <time>2024-08-03T09:02:12Z</time>
      </trkpt>
      <trkpt lat="47.29547" lon="5.92837">
        <ele>261.6</ele>
        <time>2024-08-03T09:02:13Z</time>
      </trkpt>
      <trkpt lat="47.29543" lon="5.92829">
        <ele>261.2</ele>
        <time>2024-08-03T09:02:14Z</time>
      </trkpt>
      <trkpt lat="47.29539" lon="5.9282">
        <ele>261.2</ele>
        <time>2024-08-03T09:02:15Z</time>
      </trkpt>
      <trkpt lat="47.29534" lon="5.92812">
        <ele>260.8</ele>
        <time>2024-08-03T09:02:16Z</time>
      </trkpt>
      <trkpt lat="47.29529" lon="5.92804">
        <ele>260.8</ele>
        <time>2024-08-03T09:02:17Z</time>
      </trkpt>
      <trkpt lat="47.29524" lon="5.92797">
        <ele>260.4</ele>
        <time>2024-08-03T09:02:18Z</time>
      </trkpt>
      <trkpt lat="47.29519" lon="5.9279">
        <ele>260.2</ele>
        <time>2024-08-03T09:02:19Z</time>
      </trkpt>
      <trkpt lat="47.29514" lon="5.92783">
        <ele>260</ele>
        <time>2024-08-03T09:02:20Z</time>
      </trkpt>
      <trkpt lat="47.29509" lon="5.92777">
        <ele>260</ele>
        <time>2024-08-03T09:02:21Z</time>
      </trkpt>
      <trkpt lat="47.29504" lon="5.9277">
        <ele>259.8</ele>
        <time>2024-08-03T09:02:22Z</time>
      </trkpt>
      <trkpt lat="47.29499" lon="5.92764">
        <ele>259.2</ele>
        <time>2024-08-03T09:02:23Z</time>
      </trkpt>
      <trkpt lat="47.29494" lon="5.92758">
        <ele>259</ele>
        <time>2024-08-03T09:02:24Z</time>
      </trkpt>
      <trkpt lat="47.2949" lon="5.92751">
        <ele>258.6</ele>
        <time>2024-08-03T09:02:25Z</time>
      </trkpt>
      <trkpt lat="47.29485" lon="5.92745">
        <ele>258.2</ele>
        <time>2024-08-03T09:02:26Z</time>
      </trkpt>
      <trkpt lat="47.2948" lon="5.92739">
        <ele>258</ele>
        <time>2024-08-03T09:02:27Z</time>
      </trkpt>
      <trkpt lat="47.29475" lon="5.92733">
        <ele>257.8</ele>
        <time>2024-08-03T09:02:28Z</time>
      </trkpt>
      <trkpt lat="47.2947" lon="5.92726">
        <ele>257.8</ele>
        <time>2024-08-03T09:02:29Z</time>
      </trkpt>
      <trkpt lat="47.29465" lon="5.9272">
        <ele>257.4</ele>
        <time>2024-08-03T09:02:30Z</time>
      </trkpt>
      <trkpt lat="47.29461" lon="5.92714">
        <ele>257.2</ele>
        <time>2024-08-03T09:02:31Z</time>
      </trkpt>
      <trkpt lat="47.29456" lon="5.92708">
        <ele>257</ele>
        <time>2024-08-03T09:02:32Z</time>
      </trkpt>
      <trkpt lat="47.29451" lon="5.92702">
        <ele>256.6</ele>
        <time>2024-08-03T09:02:33Z</time>
      </trkpt>
      <trkpt lat="47.29447" lon="5.92696">
        <ele>256.6</ele>
        <time>2024-08-03T09:02:34Z</time>
      </trkpt>
      <trkpt lat="47.29442" lon="5.9269">
        <ele>256.2</ele>
        <time>2024-08-03T09:02:35Z</time>
      </trkpt>
      <trkpt lat="47.29438" lon="5.92684">
        <ele>256.2</ele>
        <time>2024-08-03T09:02:36Z</time>
      </trkpt>
      <trkpt lat="47.29434" lon="5.92677">
        <ele>256</ele>
        <time>2024-08-03T09:02:37Z</time>
      </trkpt>
      <trkpt lat="47.2943" lon="5.92671">
        <ele>255.8</ele>
        <time>2024-08-03T09:02:38Z</time>
      </trkpt>
      <trkpt lat="47.29427" lon="5.92664">
        <ele>255.8</ele>
        <time>2024-08-03T09:02:39Z</time>
      </trkpt>
      <trkpt lat="47.29424" lon="5.92658">
        <ele>255.6</ele>
        <time>2024-08-03T09:02:40Z</time>
      </trkpt>
      <trkpt lat="47.29422" lon="5.92651">
        <ele>255.4</ele>
        <time>2024-08-03T09:02:41Z</time>
      </trkpt>
      <trkpt lat="47.29421" lon="5.92645">
        <ele>255.4</ele>
        <time>2024-08-03T09:02:42Z</time>
      </trkpt>
      <trkpt lat="47.29421" lon="5.92638">
        <ele>255.2</ele>
        <time>2024-08-03T09:02:43Z</time>
      </trkpt>
      <trkpt lat="47.29422" lon="5.92633">
        <ele>255</ele>
        <time>2024-08-03T09:02:44Z</time>
      </trkpt>
      <trkpt lat="47.29423" lon="5.92627">
        <ele>254.8</ele>
        <time>2024-08-03T09:02:45Z</time>
      </trkpt>
      <trkpt lat="47.29424" lon="5.92622">
        <ele>255</ele>
        <time>2024-08-03T09:02:46Z</time>
      </trkpt>
      <trkpt lat="47.29426" lon="5.92617">
        <ele>255</ele>
        <time>2024-08-03T09:02:47Z</time>
      </trkpt>
      <trkpt lat="47.29427" lon="5.92612">
        <ele>255</ele>
        <time>2024-08-03T09:02:48Z</time>
      </trkpt>
      <trkpt lat="47.29429" lon="5.92608">
        <ele>255</ele>
        <time>2024-08-03T09:02:49Z</time>
      </trkpt>
      <trkpt lat="47.29431" lon="5.92603">
        <ele>255</ele>
        <time>2024-08-03T09:02:50Z</time>
      </trkpt>
      <trkpt lat="47.29432" lon="5.92599">
        <ele>255</ele>
        <time>2024-08-03T09:02:51Z</time>
      </trkpt>
      <trkpt lat="47.29433" lon="5.92595">
        <ele>255</ele>
        <time>2024-08-03T09:02:52Z</time>
      </trkpt>
      <trkpt lat="47.29435" lon="5.92591">
        <ele>255.2</ele>
        <time>2024-08-03T09:02:53Z</time>
      </trkpt>
      <trkpt lat="47.29436" lon="5.92588">
        <ele>255.2</ele>
        <time>2024-08-03T09:02:54Z</time>
      </trkpt>
      <trkpt lat="47.29437" lon="5.92584">
        <ele>255.4</ele>
        <time>2024-08-03T09:02:55Z</time>
      </trkpt>
      <trkpt lat="47.29439" lon="5.9258">
        <ele>255.4</ele>
        <time>2024-08-03T09:02:56Z</time>
      </trkpt>
      <trkpt lat="47.29439" lon="5.92576">
        <ele>255.6</ele>
        <time>2024-08-03T09:02:57Z</time>
      </trkpt>
      <trkpt lat="47.2944" lon="5.92573">
        <ele>255.6</ele>
        <time>2024-08-03T09:02:58Z</time>
      </trkpt>
      <trkpt lat="47.2944" lon="5.92569">
        <ele>256</ele>
        <time>2024-08-03T09:02:59Z</time>
      </trkpt>
      <trkpt lat="47.29441" lon="5.92565">
        <ele>256.2</ele>
        <time>2024-08-03T09:03:00Z</time>
      </trkpt>
      <trkpt lat="47.29443" lon="5.92561">
        <ele>256.2</ele>
        <time>2024-08-03T09:03:01Z</time>
      </trkpt>
      <trkpt lat="47.29444" lon="5.92558">
        <ele>256.2</ele>
        <time>2024-08-03T09:03:02Z</time>
      </trkpt>
      <trkpt lat="47.29445" lon="5.92554">
        <ele>256.6</ele>
        <time>2024-08-03T09:03:03Z</time>
      </trkpt>
      <trkpt lat="47.29446" lon="5.92551">
        <ele>257</ele>
        <time>2024-08-03T09:03:04Z</time>
      </trkpt>
      <trkpt lat="47.29447" lon="5.92548">
        <ele>257.2</ele>
        <time>2024-08-03T09:03:05Z</time>
      </trkpt>
      <trkpt lat="47.29448" lon="5.92546">
        <ele>257.4</ele>
        <time>2024-08-03T09:03:06Z</time>
      </trkpt>
      <trkpt lat="47.29448" lon="5.92543">
        <ele>257.6</ele>
        <time>2024-08-03T09:03:07Z</time>
      </trkpt>
      <trkpt lat="47.29449" lon="5.92541">
        <ele>258.2</ele>
        <time>2024-08-03T09:03:08Z</time>
      </trkpt>
      <trkpt lat="47.2945" lon="5.92539">
        <ele>258.2</ele>
        <time>2024-08-03T09:03:09Z</time>
      </trkpt>
      <trkpt lat="47.2945" lon="5.92537">
        <ele>258.4</ele>
        <time>2024-08-03T09:03:10Z</time>
      </trkpt>
      <trkpt lat="47.29451" lon="5.92535">
        <ele>258.8</ele>
        <time>2024-08-03T09:03:11Z</time>
      </trkpt>
      <trkpt lat="47.2945" lon="5.92533">
        <ele>259</ele>
        <time>2024-08-03T09:03:12Z</time>
      </trkpt>
      <trkpt lat="47.2945" lon="5.9253">
        <ele>259.4</ele>
        <time>2024-08-03T09:03:13Z</time>
      </trkpt>
      <trkpt lat="47.2945" lon="5.92528">
        <ele>259.6</ele>
        <time>2024-08-03T09:03:14Z</time>
      </trkpt>
      <trkpt lat="47.29451" lon="5.92526">
        <ele>260</ele>
        <time>2024-08-03T09:03:15Z</time>
      </trkpt>
      <trkpt lat="47.2945" lon="5.92524">
        <ele>260.2</ele>
        <time>2024-08-03T09:03:16Z</time>
      </trkpt>
      <trkpt lat="47.2945" lon="5.92522">
        <ele>260.4</ele>
        <time>2024-08-03T09:03:17Z</time>
      </trkpt>
      <trkpt lat="47.2945" lon="5.9252">
        <ele>260.6</ele>
        <time>2024-08-03T09:03:18Z</time>
      </trkpt>
      <trkpt lat="47.2945" lon="5.92518">
        <ele>260.6</ele>
        <time>2024-08-03T09:03:19Z</time>
      </trkpt>
      <trkpt lat="47.2945" lon="5.92516">
        <ele>260.6</ele>
        <time>2024-08-03T09:03:20Z</time>
      </trkpt>
      <trkpt lat="47.29451" lon="5.92513">
        <ele>260.6</ele>
        <time>2024-08-03T09:03:21Z</time>
      </trkpt>
      <trkpt lat="47.29451" lon="5.92511">
        <ele>260.8</ele>
        <time>2024-08-03T09:03:22Z</time>
      </trkpt>
      <trkpt lat="47.29451" lon="5.92509">
        <ele>260.8</ele>
        <time>2024-08-03T09:03:23Z</time>
      </trkpt>
      <trkpt lat="47.29452" lon="5.92506">
        <ele>260.8</ele>
        <time>2024-08-03T09:03:24Z</time>
      </trkpt>
      <trkpt lat="47.29453" lon="5.92504">
        <ele>261.2</ele>
        <time>2024-08-03T09:03:25Z</time>
      </trkpt>
      <trkpt lat="47.29453" lon="5.92501">
        <ele>261.2</ele>
        <time>2024-08-03T09:03:26Z</time>
      </trkpt>
      <trkpt lat="47.29454" lon="5.92499">
        <ele>261.2</ele>
        <time>2024-08-03T09:03:27Z</time>
      </trkpt>
      <trkpt lat="47.29455" lon="5.92497">
        <ele>261.4</ele>
        <time>2024-08-03T09:03:28Z</time>
      </trkpt>
      <trkpt lat="47.29455" lon="5.92494">
        <ele>261.4</ele>
        <time>2024-08-03T09:03:29Z</time>
      </trkpt>
      <trkpt lat="47.29456" lon="5.92492">
        <ele>261.8</ele>
        <time>2024-08-03T09:03:30Z</time>
      </trkpt>
      <trkpt lat="47.29456" lon="5.92489">
        <ele>262</ele>
        <time>2024-08-03T09:03:31Z</time>
      </trkpt>
      <trkpt lat="47.29456" lon="5.92488">
        <ele>262.4</ele>
        <time>2024-08-03T09:03:32Z</time>
      </trkpt>
      <trkpt lat="47.29456" lon="5.92486">
        <ele>262.4</ele>
        <time>2024-08-03T09:03:33Z</time>
      </trkpt>
      <trkpt lat="47.29457" lon="5.92484">
        <ele>262.6</ele>
        <time>2024-08-03T09:03:34Z</time>
      </trkpt>
      <trkpt lat="47.29457" lon="5.92482">
        <ele>263</ele>
        <time>2024-08-03T09:03:35Z</time>
      </trkpt>
      <trkpt lat="47.29458" lon="5.9248">
        <ele>263</ele>
        <time>2024-08-03T09:03:36Z</time>
      </trkpt>
      <trkpt lat="47.29459" lon="5.92478">
        <ele>263.4</ele>
        <time>2024-08-03T09:03:37Z</time>
      </trkpt>
      <trkpt lat="47.2946" lon="5.92475">
        <ele>263.4</ele>
        <time>2024-08-03T09:03:38Z</time>
      </trkpt>
      <trkpt lat="47.29461" lon="5.92473">
        <ele>263.8</ele>
        <time>2024-08-03T09:03:39Z</time>
      </trkpt>
      <trkpt lat="47.29461" lon="5.9247">
        <ele>263.8</ele>
        <time>2024-08-03T09:03:40Z</time>
      </trkpt>
      <trkpt lat="47.29461" lon="5.92468">
        <ele>264</ele>
        <time>2024-08-03T09:03:41Z</time>
      </trkpt>
      <trkpt lat="47.29462" lon="5.92466">
        <ele>264.4</ele>
        <time>2024-08-03T09:03:42Z</time>
      </trkpt>
      <trkpt lat="47.29462" lon="5.92465">
        <ele>264.6</ele>
        <time>2024-08-03T09:03:43Z</time>
      </trkpt>
      <trkpt lat="47.29463" lon="5.92462">
        <ele>264.8</ele>
        <time>2024-08-03T09:03:44Z</time>
      </trkpt>
      <trkpt lat="47.29464" lon="5.9246">
        <ele>264.8</ele>
        <time>2024-08-03T09:03:45Z</time>
      </trkpt>
      <trkpt lat="47.29465" lon="5.92459">
        <ele>265</ele>
        <time>2024-08-03T09:03:46Z</time>
      </trkpt>
      <trkpt lat="47.29465" lon="5.92455">
        <ele>265.2</ele>
        <time>2024-08-03T09:03:47Z</time>
      </trkpt>
      <trkpt lat="47.29466" lon="5.92452">
        <ele>265.4</ele>
        <time>2024-08-03T09:03:48Z</time>
      </trkpt>
      <trkpt lat="47.29467" lon="5.9245">
        <ele>265.6</ele>
        <time>2024-08-03T09:03:49Z</time>
      </trkpt>
      <trkpt lat="47.29468" lon="5.92447">
        <ele>265.6</ele>
        <time>2024-08-03T09:03:50Z</time>
      </trkpt>
      <trkpt lat="47.29469" lon="5.92445">
        <ele>265.8</ele>
        <time>2024-08-03T09:03:51Z</time>
      </trkpt>
      <trkpt lat="47.29469" lon="5.92443">
        <ele>266</ele>
        <time>2024-08-03T09:03:52Z</time>
      </trkpt>
      <trkpt lat="47.29469" lon="5.92441">
        <ele>266</ele>
        <time>2024-08-03T09:03:53Z</time>
      </trkpt>
      <trkpt lat="47.2947" lon="5.92438">
        <ele>266.2</ele>
        <time>2024-08-03T09:03:54Z</time>
      </trkpt>
      <trkpt lat="47.29471" lon="5.92435">
        <ele>266.6</ele>
        <time>2024-08-03T09:03:55Z</time>
      </trkpt>
      <trkpt lat="47.29472" lon="5.92429">
        <ele>266.8</ele>
        <time>2024-08-03T09:03:56Z</time>
      </trkpt>
      <trkpt lat="47.29472" lon="5.92426">
        <ele>267</ele>
        <time>2024-08-03T09:03:57Z</time>
      </trkpt>
      <trkpt lat="47.29473" lon="5.92422">
        <ele>267.2</ele>
        <time>2024-08-03T09:03:58Z</time>
      </trkpt>
      <trkpt lat="47.29474" lon="5.92419">
        <ele>267.4</ele>
        <time>2024-08-03T09:03:59Z</time>
      </trkpt>
      <trkpt lat="47.29475" lon="5.92416">
        <ele>267.6</ele>
        <time>2024-08-03T09:04:00Z</time>
      </trkpt>
      <trkpt lat="47.29476" lon="5.92413">
        <ele>267.8</ele>
        <time>2024-08-03T09:04:01Z</time>
      </trkpt>
      <trkpt lat="47.29477" lon="5.92408">
        <ele>267.8</ele>
        <time>2024-08-03T09:04:02Z</time>
      </trkpt>
      <trkpt lat="47.29477" lon="5.92404">
        <ele>268.2</ele>
        <time>2024-08-03T09:04:03Z</time>
      </trkpt>
      <trkpt lat="47.29478" lon="5.92401">
        <ele>268.2</ele>
        <time>2024-08-03T09:04:04Z</time>
      </trkpt>
      <trkpt lat="47.29478" lon="5.92398">
        <ele>268.4</ele>
        <time>2024-08-03T09:04:05Z</time>
      </trkpt>
      <trkpt lat="47.29478" lon="5.92395">
        <ele>268.4</ele>
        <time>2024-08-03T09:04:06Z</time>
      </trkpt>
      <trkpt lat="47.29479" lon="5.92393">
        <ele>268.4</ele>
        <time>2024-08-03T09:04:07Z</time>
      </trkpt>
      <trkpt lat="47.2948" lon="5.9239">
        <ele>268.6</ele>
        <time>2024-08-03T09:04:08Z</time>
      </trkpt>
      <trkpt lat="47.29481" lon="5.92384">
        <ele>268.8</ele>
        <time>2024-08-03T09:04:09Z</time>
      </trkpt>
      <trkpt lat="47.29482" lon="5.92381">
        <ele>269</ele>
        <time>2024-08-03T09:04:10Z</time>
      </trkpt>
      <trkpt lat="47.29484" lon="5.92377">
        <ele>269.4</ele>
        <time>2024-08-03T09:04:11Z</time>
      </trkpt>
      <trkpt lat="47.29486" lon="5.92374">
        <ele>269.4</ele>
        <time>2024-08-03T09:04:12Z</time>
      </trkpt>
      <trkpt lat="47.29487" lon="5.9237">
        <ele>269.6</ele>
        <time>2024-08-03T09:04:13Z</time>
      </trkpt>
      <trkpt lat="47.29487" lon="5.92367">
        <ele>269.8</ele>
        <time>2024-08-03T09:04:14Z</time>
      </trkpt>
      <trkpt lat="47.29488" lon="5.92364">
        <ele>269.8</ele>
        <time>2024-08-03T09:04:15Z</time>
      </trkpt>
      <trkpt lat="47.29488" lon="5.92361">
        <ele>269.8</ele>
        <time>2024-08-03T09:04:16Z</time>
      </trkpt>
      <trkpt lat="47.29489" lon="5.92356">
        <ele>270.2</ele>
        <time>2024-08-03T09:04:17Z</time>
      </trkpt>
      <trkpt lat="47.29489" lon="5.92352">
        <ele>270.2</ele>
        <time>2024-08-03T09:04:18Z</time>
      </trkpt>
      <trkpt lat="47.2949" lon="5.92348">
        <ele>270.4</ele>
        <time>2024-08-03T09:04:19Z</time>
      </trkpt>
      <trkpt lat="47.29491" lon="5.92344">
        <ele>270.6</ele>
        <time>2024-08-03T09:04:20Z</time>
      </trkpt>
      <trkpt lat="47.29492" lon="5.92341">
        <ele>270.6</ele>
        <time>2024-08-03T09:04:21Z</time>
      </trkpt>
      <trkpt lat="47.29494" lon="5.92338">
        <ele>270.8</ele>
        <time>2024-08-03T09:04:22Z</time>
      </trkpt>
      <trkpt lat="47.29496" lon="5.92335">
        <ele>271</ele>
        <time>2024-08-03T09:04:23Z</time>
      </trkpt>
      <trkpt lat="47.29497" lon="5.92332">
        <ele>270.8</ele>
        <time>2024-08-03T09:04:24Z</time>
      </trkpt>
      <trkpt lat="47.29497" lon="5.9233">
        <ele>271</ele>
        <time>2024-08-03T09:04:25Z</time>
      </trkpt>
      <trkpt lat="47.29497" lon="5.92327">
        <ele>271</ele>
        <time>2024-08-03T09:04:26Z</time>
      </trkpt>
      <trkpt lat="47.29496" lon="5.92323">
        <ele>271.2</ele>
        <time>2024-08-03T09:04:27Z</time>
      </trkpt>
      <trkpt lat="47.29495" lon="5.92319">
        <ele>271</ele>
        <time>2024-08-03T09:04:28Z</time>
      </trkpt>
      <trkpt lat="47.29494" lon="5.92315">
        <ele>271</ele>
        <time>2024-08-03T09:04:29Z</time>
      </trkpt>
      <trkpt lat="47.29492" lon="5.92312">
        <ele>271</ele>
        <time>2024-08-03T09:04:30Z</time>
      </trkpt>
      <trkpt lat="47.2949" lon="5.92309">
        <ele>271.2</ele>
        <time>2024-08-03T09:04:31Z</time>
      </trkpt>
      <trkpt lat="47.29488" lon="5.92306">
        <ele>271.2</ele>
        <time>2024-08-03T09:04:32Z</time>
      </trkpt>
      <trkpt lat="47.29485" lon="5.92304">
        <ele>271.2</ele>
        <time>2024-08-03T09:04:33Z</time>
      </trkpt>
      <trkpt lat="47.29484" lon="5.92299">
        <ele>271</ele>
        <time>2024-08-03T09:04:34Z</time>
      </trkpt>
      <trkpt lat="47.29481" lon="5.92296">
        <ele>271.2</ele>
        <time>2024-08-03T09:04:35Z</time>
      </trkpt>
      <trkpt lat="47.29478" lon="5.9229">
        <ele>271</ele>
        <time>2024-08-03T09:04:36Z</time>
      </trkpt>
      <trkpt lat="47.29476" lon="5.92287">
        <ele>271.2</ele>
        <time>2024-08-03T09:04:37Z</time>
      </trkpt>
      <trkpt lat="47.29473" lon="5.92282">
        <ele>271.2</ele>
        <time>2024-08-03T09:04:38Z</time>
      </trkpt>
      <trkpt lat="47.2947" lon="5.92279">
        <ele>271.2</ele>
        <time>2024-08-03T09:04:39Z</time>
      </trkpt>
      <trkpt lat="47.29468" lon="5.92273">
        <ele>271</ele>
        <time>2024-08-03T09:04:40Z</time>
      </trkpt>
      <trkpt lat="47.29465" lon="5.92268">
        <ele>271</ele>
        <time>2024-08-03T09:04:41Z</time>
      </trkpt>
      <trkpt lat="47.29463" lon="5.92261">
        <ele>271.2</ele>
        <time>2024-08-03T09:04:42Z</time>
      </trkpt>
      <trkpt lat="47.29461" lon="5.92256">
        <ele>271</ele>
        <time>2024-08-03T09:04:43Z</time>
      </trkpt>
      <trkpt lat="47.29458" lon="5.92251">
        <ele>271</ele>
        <time>2024-08-03T09:04:44Z</time>
      </trkpt>
      <trkpt lat="47.29454" lon="5.92247">
        <ele>271</ele>
        <time>2024-08-03T09:04:45Z</time>
      </trkpt>
      <trkpt lat="47.29451" lon="5.92243">
        <ele>270.8</ele>
        <time>2024-08-03T09:04:46Z</time>
      </trkpt>
      <trkpt lat="47.29447" lon="5.92236">
        <ele>270.8</ele>
        <time>2024-08-03T09:04:47Z</time>
      </trkpt>
      <trkpt lat="47.29444" lon="5.9223">
        <ele>270.6</ele>
        <time>2024-08-03T09:04:48Z</time>
      </trkpt>
      <trkpt lat="47.2944" lon="5.92224">
        <ele>270.6</ele>
        <time>2024-08-03T09:04:49Z</time>
      </trkpt>
      <trkpt lat="47.29437" lon="5.92219">
        <ele>270.6</ele>
        <time>2024-08-03T09:04:50Z</time>
      </trkpt>
      <trkpt lat="47.29433" lon="5.92214">
        <ele>270.6</ele>
        <time>2024-08-03T09:04:51Z</time>
      </trkpt>
      <trkpt lat="47.29429" lon="5.92209">
        <ele>270.6</ele>
        <time>2024-08-03T09:04:52Z</time>
      </trkpt>
      <trkpt lat="47.29425" lon="5.92203">
        <ele>270.4</ele>
        <time>2024-08-03T09:04:53Z</time>
      </trkpt>
      <trkpt lat="47.29421" lon="5.92197">
        <ele>270.2</ele>
        <time>2024-08-03T09:04:54Z</time>
      </trkpt>
      <trkpt lat="47.29418" lon="5.92192">
        <ele>270.2</ele>
        <time>2024-08-03T09:04:55Z</time>
      </trkpt>
      <trkpt lat="47.29415" lon="5.92185">
        <ele>270.2</ele>
        <time>2024-08-03T09:04:56Z</time>
      </trkpt>
      <trkpt lat="47.29413" lon="5.9218">
        <ele>270</ele>
        <time>2024-08-03T09:04:57Z</time>
      </trkpt>
      <trkpt lat="47.29412" lon="5.92174">
        <ele>269.8</ele>
        <time>2024-08-03T09:04:58Z</time>
      </trkpt>
      <trkpt lat="47.2941" lon="5.92169">
        <ele>269.8</ele>
        <time>2024-08-03T09:04:59Z</time>
      </trkpt>
      <trkpt lat="47.29408" lon="5.92164">
        <ele>269.8</ele>
        <time>2024-08-03T09:05:00Z</time>
      </trkpt>
      <trkpt lat="47.29406" lon="5.92159">
        <ele>269.6</ele>
        <time>2024-08-03T09:05:01Z</time>
      </trkpt>
      <trkpt lat="47.29403" lon="5.92155">
        <ele>269.6</ele>
        <time>2024-08-03T09:05:02Z</time>
      </trkpt>
      <trkpt lat="47.29399" lon="5.92151">
        <ele>269.4</ele>
        <time>2024-08-03T09:05:03Z</time>
      </trkpt>
      <trkpt lat="47.29396" lon="5.92148">
        <ele>269.6</ele>
        <time>2024-08-03T09:05:04Z</time>
      </trkpt>
      <trkpt lat="47.29393" lon="5.92144">
        <ele>269.6</ele>
        <time>2024-08-03T09:05:05Z</time>
      </trkpt>
      <trkpt lat="47.29389" lon="5.92141">
        <ele>269.6</ele>
        <time>2024-08-03T09:05:06Z</time>
      </trkpt>
      <trkpt lat="47.29387" lon="5.92139">
        <ele>269.4</ele>
        <time>2024-08-03T09:05:07Z</time>
      </trkpt>
      <trkpt lat="47.29384" lon="5.92136">
        <ele>269.6</ele>
        <time>2024-08-03T09:05:08Z</time>
      </trkpt>
      <trkpt lat="47.29382" lon="5.92134">
        <ele>269.4</ele>
        <time>2024-08-03T09:05:09Z</time>
      </trkpt>
      <trkpt lat="47.29379" lon="5.92131">
        <ele>269.6</ele>
        <time>2024-08-03T09:05:10Z</time>
      </trkpt>
      <trkpt lat="47.29376" lon="5.92129">
        <ele>269.6</ele>
        <time>2024-08-03T09:05:11Z</time>
      </trkpt>
      <trkpt lat="47.29374" lon="5.92126">
        <ele>269.8</ele>
        <time>2024-08-03T09:05:12Z</time>
      </trkpt>
      <trkpt lat="47.29371" lon="5.92125">
        <ele>269.8</ele>
        <time>2024-08-03T09:05:13Z</time>
      </trkpt>
      <trkpt lat="47.29368" lon="5.92124">
        <ele>269.8</ele>
        <time>2024-08-03T09:05:14Z</time>
      </trkpt>
      <trkpt lat="47.29365" lon="5.92122">
        <ele>270.2</ele>
        <time>2024-08-03T09:05:15Z</time>
      </trkpt>
      <trkpt lat="47.29362" lon="5.9212">
        <ele>270.4</ele>
        <time>2024-08-03T09:05:16Z</time>
      </trkpt>
      <trkpt lat="47.29359" lon="5.92119">
        <ele>270.6</ele>
        <time>2024-08-03T09:05:17Z</time>
      </trkpt>
      <trkpt lat="47.29357" lon="5.92118">
        <ele>271</ele>
        <time>2024-08-03T09:05:18Z</time>
      </trkpt>
      <trkpt lat="47.29353" lon="5.92116">
        <ele>271</ele>
        <time>2024-08-03T09:05:19Z</time>
      </trkpt>
      <trkpt lat="47.29349" lon="5.92115">
        <ele>271</ele>
        <time>2024-08-03T09:05:20Z</time>
      </trkpt>
      <trkpt lat="47.29346" lon="5.92113">
        <ele>271.4</ele>
        <time>2024-08-03T09:05:21Z</time>
      </trkpt>
      <trkpt lat="47.29342" lon="5.92112">
        <ele>271.6</ele>
        <time>2024-08-03T09:05:22Z</time>
      </trkpt>
      <trkpt lat="47.29339" lon="5.92111">
        <ele>271.6</ele>
        <time>2024-08-03T09:05:23Z</time>
      </trkpt>
      <trkpt lat="47.29336" lon="5.92109">
        <ele>271.8</ele>
        <time>2024-08-03T09:05:24Z</time>
      </trkpt>
      <trkpt lat="47.29332" lon="5.92107">
        <ele>272</ele>
        <time>2024-08-03T09:05:25Z</time>
      </trkpt>
      <trkpt lat="47.29329" lon="5.92105">
        <ele>272.2</ele>
        <time>2024-08-03T09:05:26Z</time>
      </trkpt>
      <trkpt lat="47.29325" lon="5.92103">
        <ele>272.4</ele>
        <time>2024-08-03T09:05:27Z</time>
      </trkpt>
      <trkpt lat="47.29321" lon="5.921">
        <ele>272.6</ele>
        <time>2024-08-03T09:05:28Z</time>
      </trkpt>
      <trkpt lat="47.29318" lon="5.92098">
        <ele>272.8</ele>
        <time>2024-08-03T09:05:29Z</time>
      </trkpt>
      <trkpt lat="47.29315" lon="5.92097">
        <ele>273</ele>
        <time>2024-08-03T09:05:30Z</time>
      </trkpt>
      <trkpt lat="47.29312" lon="5.92095">
        <ele>273.2</ele>
        <time>2024-08-03T09:05:31Z</time>
      </trkpt>
      <trkpt lat="47.29309" lon="5.92093">
        <ele>273</ele>
        <time>2024-08-03T09:05:32Z</time>
      </trkpt>
      <trkpt lat="47.29307" lon="5.92092">
        <ele>273.2</ele>
        <time>2024-08-03T09:05:33Z</time>
      </trkpt>
      <trkpt lat="47.29304" lon="5.9209">
        <ele>273.2</ele>
        <time>2024-08-03T09:05:34Z</time>
      </trkpt>
      <trkpt lat="47.29303" lon="5.92088">
        <ele>273.4</ele>
        <time>2024-08-03T09:05:35Z</time>
      </trkpt>
      <trkpt lat="47.29301" lon="5.92085">
        <ele>273.2</ele>
        <time>2024-08-03T09:05:36Z</time>
      </trkpt>
      <trkpt lat="47.29299" lon="5.92082">
        <ele>273.4</ele>
        <time>2024-08-03T09:05:37Z</time>
      </trkpt>
      <trkpt lat="47.29298" lon="5.92079">
        <ele>273.4</ele>
        <time>2024-08-03T09:05:38Z</time>
      </trkpt>
      <trkpt lat="47.29297" lon="5.92076">
        <ele>273.4</ele>
        <time>2024-08-03T09:05:39Z</time>
      </trkpt>
      <trkpt lat="47.29295" lon="5.92073">
        <ele>273.4</ele>
        <time>2024-08-03T09:05:40Z</time>
      </trkpt>
      <trkpt lat="47.29294" lon="5.92069">
        <ele>273.4</ele>
        <time>2024-08-03T09:05:41Z</time>
      </trkpt>
      <trkpt lat="47.29292" lon="5.92067">
        <ele>273.4</ele>
        <time>2024-08-03T09:05:42Z</time>
      </trkpt>
      <trkpt lat="47.29289" lon="5.92065">
        <ele>273.4</ele>
        <time>2024-08-03T09:05:43Z</time>
      </trkpt>
      <trkpt lat="47.29286" lon="5.92064">
        <ele>273.6</ele>
        <time>2024-08-03T09:05:44Z</time>
      </trkpt>
      <trkpt lat="47.29281" lon="5.92065">
        <ele>273.4</ele>
        <time>2024-08-03T09:05:45Z</time>
      </trkpt>
      <trkpt lat="47.29277" lon="5.92066">
        <ele>273.6</ele>
        <time>2024-08-03T09:05:46Z</time>
      </trkpt>
      <trkpt lat="47.29272" lon="5.92068">
        <ele>273.6</ele>
        <time>2024-08-03T09:05:47Z</time>
      </trkpt>
      <trkpt lat="47.29268" lon="5.9207">
        <ele>273.6</ele>
        <time>2024-08-03T09:05:48Z</time>
      </trkpt>
      <trkpt lat="47.29263" lon="5.92072">
        <ele>273.6</ele>
        <time>2024-08-03T09:05:49Z</time>
      </trkpt>
      <trkpt lat="47.29257" lon="5.92074">
        <ele>273.4</ele>
        <time>2024-08-03T09:05:50Z</time>
      </trkpt>
      <trkpt lat="47.29252" lon="5.92076">
        <ele>273.4</ele>
        <time>2024-08-03T09:05:51Z</time>
      </trkpt>
      <trkpt lat="47.29248" lon="5.92079">
        <ele>273.4</ele>
        <time>2024-08-03T09:05:52Z</time>
      </trkpt>
      <trkpt lat="47.29243" lon="5.92082">
        <ele>273.4</ele>
        <time>2024-08-03T09:05:53Z</time>
      </trkpt>
      <trkpt lat="47.29238" lon="5.92086">
        <ele>273.4</ele>
        <time>2024-08-03T09:05:54Z</time>
      </trkpt>
      <trkpt lat="47.29234" lon="5.9209">
        <ele>273.4</ele>
        <time>2024-08-03T09:05:55Z</time>
      </trkpt>
      <trkpt lat="47.29231" lon="5.92093">
        <ele>273.2</ele>
        <time>2024-08-03T09:05:56Z</time>
      </trkpt>
      <trkpt lat="47.29229" lon="5.92096">
        <ele>273.2</ele>
        <time>2024-08-03T09:05:57Z</time>
      </trkpt>
      <trkpt lat="47.29227" lon="5.92099">
        <ele>273</ele>
        <time>2024-08-03T09:05:58Z</time>
      </trkpt>
      <trkpt lat="47.29225" lon="5.92102">
        <ele>273</ele>
        <time>2024-08-03T09:05:59Z</time>
      </trkpt>
      <trkpt lat="47.29224" lon="5.92106">
        <ele>272.4</ele>
        <time>2024-08-03T09:06:00Z</time>
      </trkpt>
      <trkpt lat="47.29223" lon="5.9211">
        <ele>272</ele>
        <time>2024-08-03T09:06:01Z</time>
      </trkpt>
      <trkpt lat="47.29222" lon="5.92115">
        <ele>271.8</ele>
        <time>2024-08-03T09:06:02Z</time>
      </trkpt>
      <trkpt lat="47.29221" lon="5.92119">
        <ele>271.6</ele>
        <time>2024-08-03T09:06:03Z</time>
      </trkpt>
      <trkpt lat="47.2922" lon="5.92123">
        <ele>271.6</ele>
        <time>2024-08-03T09:06:04Z</time>
      </trkpt>
      <trkpt lat="47.29218" lon="5.92127">
        <ele>271.6</ele>
        <time>2024-08-03T09:06:05Z</time>
      </trkpt>
      <trkpt lat="47.29216" lon="5.9213">
        <ele>271.6</ele>
        <time>2024-08-03T09:06:06Z</time>
      </trkpt>
      <trkpt lat="47.29214" lon="5.92133">
        <ele>271.6</ele>
        <time>2024-08-03T09:06:07Z</time>
      </trkpt>
      <trkpt lat="47.29212" lon="5.92136">
        <ele>271.6</ele>
        <time>2024-08-03T09:06:08Z</time>
      </trkpt>
      <trkpt lat="47.29211" lon="5.92139">
        <ele>271.6</ele>
        <time>2024-08-03T09:06:09Z</time>
      </trkpt>
      <trkpt lat="47.29209" lon="5.92142">
        <ele>271.6</ele>
        <time>2024-08-03T09:06:10Z</time>
      </trkpt>
      <trkpt lat="47.29208" lon="5.92144">
        <ele>271.6</ele>
        <time>2024-08-03T09:06:11Z</time>
      </trkpt>
      <trkpt lat="47.29206" lon="5.92146">
        <ele>271.6</ele>
        <time>2024-08-03T09:06:12Z</time>
      </trkpt>
      <trkpt lat="47.29204" lon="5.92149">
        <ele>271.6</ele>
        <time>2024-08-03T09:06:13Z</time>
      </trkpt>
      <trkpt lat="47.29202" lon="5.92152">
        <ele>271.6</ele>
        <time>2024-08-03T09:06:14Z</time>
      </trkpt>
      <trkpt lat="47.29199" lon="5.92155">
        <ele>271.6</ele>
        <time>2024-08-03T09:06:15Z</time>
      </trkpt>
      <trkpt lat="47.29197" lon="5.92156">
        <ele>271.8</ele>
        <time>2024-08-03T09:06:16Z</time>
      </trkpt>
      <trkpt lat="47.29194" lon="5.92158">
        <ele>271.8</ele>
        <time>2024-08-03T09:06:17Z</time>
      </trkpt>
      <trkpt lat="47.29191" lon="5.9216">
        <ele>271.8</ele>
        <time>2024-08-03T09:06:18Z</time>
      </trkpt>
      <trkpt lat="47.29188" lon="5.92162">
        <ele>272</ele>
        <time>2024-08-03T09:06:19Z</time>
      </trkpt>
      <trkpt lat="47.29186" lon="5.92164">
        <ele>271.8</ele>
        <time>2024-08-03T09:06:20Z</time>
      </trkpt>
      <trkpt lat="47.29183" lon="5.92165">
        <ele>271.8</ele>
        <time>2024-08-03T09:06:21Z</time>
      </trkpt>
      <trkpt lat="47.29179" lon="5.92167">
        <ele>272</ele>
        <time>2024-08-03T09:06:22Z</time>
      </trkpt>
      <trkpt lat="47.29176" lon="5.92167">
        <ele>272</ele>
        <time>2024-08-03T09:06:23Z</time>
      </trkpt>
      <trkpt lat="47.29173" lon="5.92168">
        <ele>272</ele>
        <time>2024-08-03T09:06:24Z</time>
      </trkpt>
      <trkpt lat="47.2917" lon="5.92169">
        <ele>272.2</ele>
        <time>2024-08-03T09:06:25Z</time>
      </trkpt>
      <trkpt lat="47.29167" lon="5.92169">
        <ele>272</ele>
        <time>2024-08-03T09:06:26Z</time>
      </trkpt>
      <trkpt lat="47.29164" lon="5.9217">
        <ele>272.2</ele>
        <time>2024-08-03T09:06:27Z</time>
      </trkpt>
      <trkpt lat="47.29161" lon="5.92171">
        <ele>272.2</ele>
        <time>2024-08-03T09:06:28Z</time>
      </trkpt>
      <trkpt lat="47.29158" lon="5.92171">
        <ele>272.2</ele>
        <time>2024-08-03T09:06:29Z</time>
      </trkpt>
      <trkpt lat="47.29155" lon="5.92172">
        <ele>272.2</ele>
        <time>2024-08-03T09:06:30Z</time>
      </trkpt>
      <trkpt lat="47.29153" lon="5.92173">
        <ele>272.2</ele>
        <time>2024-08-03T09:06:31Z</time>
      </trkpt>
      <trkpt lat="47.2915" lon="5.92174">
        <ele>272.2</ele>
        <time>2024-08-03T09:06:32Z</time>
      </trkpt>
      <trkpt lat="47.29146" lon="5.92175">
        <ele>272.2</ele>
        <time>2024-08-03T09:06:33Z</time>
      </trkpt>
      <trkpt lat="47.29143" lon="5.92177">
        <ele>272</ele>
        <time>2024-08-03T09:06:34Z</time>
      </trkpt>
      <trkpt lat="47.29141" lon="5.92178">
        <ele>272</ele>
        <time>2024-08-03T09:06:35Z</time>
      </trkpt>
      <trkpt lat="47.29139" lon="5.9218">
        <ele>272</ele>
        <time>2024-08-03T09:06:36Z</time>
      </trkpt>
      <trkpt lat="47.29137" lon="5.92182">
        <ele>272</ele>
        <time>2024-08-03T09:06:37Z</time>
      </trkpt>
      <trkpt lat="47.29135" lon="5.92185">
        <ele>272</ele>
        <time>2024-08-03T09:06:38Z</time>
      </trkpt>
      <trkpt lat="47.29133" lon="5.92187">
        <ele>272</ele>
        <time>2024-08-03T09:06:39Z</time>
      </trkpt>
      <trkpt lat="47.29131" lon="5.9219">
        <ele>272</ele>
        <time>2024-08-03T09:06:40Z</time>
      </trkpt>
      <trkpt lat="47.29129" lon="5.92192">
        <ele>272</ele>
        <time>2024-08-03T09:06:41Z</time>
      </trkpt>
      <trkpt lat="47.29127" lon="5.92195">
        <ele>271.8</ele>
        <time>2024-08-03T09:06:42Z</time>
      </trkpt>
      <trkpt lat="47.29124" lon="5.92197">
        <ele>272</ele>
        <time>2024-08-03T09:06:43Z</time>
      </trkpt>
      <trkpt lat="47.29121" lon="5.92199">
        <ele>272</ele>
        <time>2024-08-03T09:06:44Z</time>
      </trkpt>
      <trkpt lat="47.29118" lon="5.922">
        <ele>272</ele>
        <time>2024-08-03T09:06:45Z</time>
      </trkpt>
      <trkpt lat="47.29115" lon="5.92202">
        <ele>272</ele>
        <time>2024-08-03T09:06:46Z</time>
      </trkpt>
      <trkpt lat="47.29112" lon="5.92203">
        <ele>272</ele>
        <time>2024-08-03T09:06:47Z</time>
      </trkpt>
      <trkpt lat="47.29109" lon="5.92203">
        <ele>272.2</ele>
        <time>2024-08-03T09:06:48Z</time>
      </trkpt>
      <trkpt lat="47.29106" lon="5.92204">
        <ele>272.2</ele>
        <time>2024-08-03T09:06:49Z</time>
      </trkpt>
      <trkpt lat="47.29103" lon="5.92204">
        <ele>272.2</ele>
        <time>2024-08-03T09:06:50Z</time>
      </trkpt>
      <trkpt lat="47.291" lon="5.92205">
        <ele>272.2</ele>
        <time>2024-08-03T09:06:51Z</time>
      </trkpt>
      <trkpt lat="47.29097" lon="5.92205">
        <ele>272.6</ele>
        <time>2024-08-03T09:06:52Z</time>
      </trkpt>
      <trkpt lat="47.29094" lon="5.92205">
        <ele>272.4</ele>
        <time>2024-08-03T09:06:53Z</time>
      </trkpt>
      <trkpt lat="47.29092" lon="5.92206">
        <ele>272.6</ele>
        <time>2024-08-03T09:06:54Z</time>
      </trkpt>
      <trkpt lat="47.29089" lon="5.92206">
        <ele>272.6</ele>
        <time>2024-08-03T09:06:55Z</time>
      </trkpt>
      <trkpt lat="47.29086" lon="5.92207">
        <ele>272.8</ele>
        <time>2024-08-03T09:06:56Z</time>
      </trkpt>
      <trkpt lat="47.29083" lon="5.92207">
        <ele>272.8</ele>
        <time>2024-08-03T09:06:57Z</time>
      </trkpt>
      <trkpt lat="47.29081" lon="5.92207">
        <ele>272.8</ele>
        <time>2024-08-03T09:06:58Z</time>
      </trkpt>
      <trkpt lat="47.29078" lon="5.92207">
        <ele>272.8</ele>
        <time>2024-08-03T09:06:59Z</time>
      </trkpt>
      <trkpt lat="47.29075" lon="5.92208">
        <ele>272.8</ele>
        <time>2024-08-03T09:07:00Z</time>
      </trkpt>
      <trkpt lat="47.29073" lon="5.92207">
        <ele>273</ele>
        <time>2024-08-03T09:07:01Z</time>
      </trkpt>
      <trkpt lat="47.2907" lon="5.92208">
        <ele>273</ele>
        <time>2024-08-03T09:07:02Z</time>
      </trkpt>
      <trkpt lat="47.29067" lon="5.92208">
        <ele>273</ele>
        <time>2024-08-03T09:07:03Z</time>
      </trkpt>
      <trkpt lat="47.29064" lon="5.92209">
        <ele>273</ele>
        <time>2024-08-03T09:07:04Z</time>
      </trkpt>
      <trkpt lat="47.29062" lon="5.92209">
        <ele>273</ele>
        <time>2024-08-03T09:07:05Z</time>
      </trkpt>
      <trkpt lat="47.29059" lon="5.92209">
        <ele>273</ele>
        <time>2024-08-03T09:07:06Z</time>
      </trkpt>
      <trkpt lat="47.29056" lon="5.92209">
        <ele>273.2</ele>
        <time>2024-08-03T09:07:07Z</time>
      </trkpt>
      <trkpt lat="47.29053" lon="5.92209">
        <ele>273.2</ele>
        <time>2024-08-03T09:07:08Z</time>
      </trkpt>
      <trkpt lat="47.2905" lon="5.92209">
        <ele>273.2</ele>
        <time>2024-08-03T09:07:09Z</time>
      </trkpt>
      <trkpt lat="47.29047" lon="5.9221">
        <ele>273.2</ele>
        <time>2024-08-03T09:07:10Z</time>
      </trkpt>
      <trkpt lat="47.29044" lon="5.9221">
        <ele>273.2</ele>
        <time>2024-08-03T09:07:11Z</time>
      </trkpt>
      <trkpt lat="47.29041" lon="5.92211">
        <ele>273.4</ele>
        <time>2024-08-03T09:07:12Z</time>
      </trkpt>
      <trkpt lat="47.29037" lon="5.92211">
        <ele>273.4</ele>
        <time>2024-08-03T09:07:13Z</time>
      </trkpt>
      <trkpt lat="47.29034" lon="5.92212">
        <ele>273.4</ele>
        <time>2024-08-03T09:07:14Z</time>
      </trkpt>
      <trkpt lat="47.29031" lon="5.92213">
        <ele>273.6</ele>
        <time>2024-08-03T09:07:15Z</time>
      </trkpt>
      <trkpt lat="47.29028" lon="5.92213">
        <ele>273.8</ele>
        <time>2024-08-03T09:07:16Z</time>
      </trkpt>
      <trkpt lat="47.29025" lon="5.92214">
        <ele>274</ele>
        <time>2024-08-03T09:07:17Z</time>
      </trkpt>
      <trkpt lat="47.29021" lon="5.92214">
        <ele>274</ele>
        <time>2024-08-03T09:07:18Z</time>
      </trkpt>
      <trkpt lat="47.29019" lon="5.92214">
        <ele>274</ele>
        <time>2024-08-03T09:07:19Z</time>
      </trkpt>
      <trkpt lat="47.29016" lon="5.92214">
        <ele>274.2</ele>
        <time>2024-08-03T09:07:20Z</time>
      </trkpt>
      <trkpt lat="47.29012" lon="5.92214">
        <ele>274.2</ele>
        <time>2024-08-03T09:07:21Z</time>
      </trkpt>
      <trkpt lat="47.29009" lon="5.92215">
        <ele>274.4</ele>
        <time>2024-08-03T09:07:22Z</time>
      </trkpt>
      <trkpt lat="47.29006" lon="5.92215">
        <ele>274.6</ele>
        <time>2024-08-03T09:07:23Z</time>
      </trkpt>
      <trkpt lat="47.29003" lon="5.92216">
        <ele>274.6</ele>
        <time>2024-08-03T09:07:24Z</time>
      </trkpt>
      <trkpt lat="47.29001" lon="5.92217">
        <ele>274.6</ele>
        <time>2024-08-03T09:07:25Z</time>
      </trkpt>
      <trkpt lat="47.28998" lon="5.92219">
        <ele>274.8</ele>
        <time>2024-08-03T09:07:26Z</time>
      </trkpt>
      <trkpt lat="47.28997" lon="5.92221">
        <ele>274.8</ele>
        <time>2024-08-03T09:07:27Z</time>
      </trkpt>
      <trkpt lat="47.28994" lon="5.92222">
        <ele>274.8</ele>
        <time>2024-08-03T09:07:28Z</time>
      </trkpt>
      <trkpt lat="47.28991" lon="5.92224">
        <ele>274.8</ele>
        <time>2024-08-03T09:07:29Z</time>
      </trkpt>
      <trkpt lat="47.28989" lon="5.92225">
        <ele>275</ele>
        <time>2024-08-03T09:07:30Z</time>
      </trkpt>
      <trkpt lat="47.28987" lon="5.92227">
        <ele>274.8</ele>
        <time>2024-08-03T09:07:31Z</time>
      </trkpt>
      <trkpt lat="47.28985" lon="5.92228">
        <ele>274.8</ele>
        <time>2024-08-03T09:07:32Z</time>
      </trkpt>
      <trkpt lat="47.28983" lon="5.92229">
        <ele>275</ele>
        <time>2024-08-03T09:07:33Z</time>
      </trkpt>
      <trkpt lat="47.28981" lon="5.92229">
        <ele>274.8</ele>
        <time>2024-08-03T09:07:34Z</time>
      </trkpt>
      <trkpt lat="47.2898" lon="5.92229">
        <ele>275</ele>
        <time>2024-08-03T09:07:35Z</time>
      </trkpt>
      <trkpt lat="47.28979" lon="5.9223">
        <ele>275</ele>
        <time>2024-08-03T09:07:36Z</time>
      </trkpt>
      <trkpt lat="47.28978" lon="5.92232">
        <ele>275</ele>
        <time>2024-08-03T09:07:37Z</time>
      </trkpt>
      <trkpt lat="47.28978" lon="5.92233">
        <ele>275</ele>
        <time>2024-08-03T09:07:38Z</time>
      </trkpt>
      <trkpt lat="47.28977" lon="5.92235">
        <ele>275</ele>
        <time>2024-08-03T09:07:39Z</time>
      </trkpt>
      <trkpt lat="47.28976" lon="5.92237">
        <ele>275</ele>
        <time>2024-08-03T09:07:40Z</time>
      </trkpt>
      <trkpt lat="47.28975" lon="5.92238">
        <ele>275</ele>
        <time>2024-08-03T09:07:41Z</time>
      </trkpt>
      <trkpt lat="47.28974" lon="5.9224">
        <ele>275</ele>
        <time>2024-08-03T09:07:42Z</time>
      </trkpt>
      <trkpt lat="47.28972" lon="5.92241">
        <ele>275</ele>
        <time>2024-08-03T09:07:43Z</time>
      </trkpt>
      <trkpt lat="47.28971" lon="5.92242">
        <ele>275</ele>
        <time>2024-08-03T09:07:44Z</time>
      </trkpt>
      <trkpt lat="47.28969" lon="5.92244">
        <ele>275</ele>
        <time>2024-08-03T09:07:45Z</time>
      </trkpt>
      <trkpt lat="47.28967" lon="5.92245">
        <ele>275</ele>
        <time>2024-08-03T09:07:46Z</time>
      </trkpt>
      <trkpt lat="47.28963" lon="5.92246">
        <ele>275</ele>
        <time>2024-08-03T09:07:47Z</time>
      </trkpt>
      <trkpt lat="47.28961" lon="5.92247">
        <ele>275</ele>
        <time>2024-08-03T09:07:48Z</time>
      </trkpt>
      <trkpt lat="47.28957" lon="5.9225">
        <ele>275</ele>
        <time>2024-08-03T09:07:49Z</time>
      </trkpt>
      <trkpt lat="47.28955" lon="5.92251">
        <ele>275.2</ele>
        <time>2024-08-03T09:07:50Z</time>
      </trkpt>
      <trkpt lat="47.28952" lon="5.92254">
        <ele>275</ele>
        <time>2024-08-03T09:07:51Z</time>
      </trkpt>
      <trkpt lat="47.2895" lon="5.92257">
        <ele>275.2</ele>
        <time>2024-08-03T09:07:52Z</time>
      </trkpt>
      <trkpt lat="47.28947" lon="5.9226">
        <ele>275.2</ele>
        <time>2024-08-03T09:07:53Z</time>
      </trkpt>
      <trkpt lat="47.28944" lon="5.92262">
        <ele>275.2</ele>
        <time>2024-08-03T09:07:54Z</time>
      </trkpt>
      <trkpt lat="47.28941" lon="5.92266">
        <ele>275.4</ele>
        <time>2024-08-03T09:07:55Z</time>
      </trkpt>
      <trkpt lat="47.28939" lon="5.9227">
        <ele>275.2</ele>
        <time>2024-08-03T09:07:56Z</time>
      </trkpt>
      <trkpt lat="47.28938" lon="5.92273">
        <ele>275.4</ele>
        <time>2024-08-03T09:07:57Z</time>
      </trkpt>
      <trkpt lat="47.28937" lon="5.92275">
        <ele>275.2</ele>
        <time>2024-08-03T09:07:58Z</time>
      </trkpt>
      <trkpt lat="47.28936" lon="5.92277">
        <ele>275.4</ele>
        <time>2024-08-03T09:07:59Z</time>
      </trkpt>
      <trkpt lat="47.28936" lon="5.9228">
        <ele>275.4</ele>
        <time>2024-08-03T09:08:00Z</time>
      </trkpt>
      <trkpt lat="47.28936" lon="5.92284">
        <ele>275.2</ele>
        <time>2024-08-03T09:08:01Z</time>
      </trkpt>
      <trkpt lat="47.28935" lon="5.92286">
        <ele>275</ele>
        <time>2024-08-03T09:08:02Z</time>
      </trkpt>
      <trkpt lat="47.28934" lon="5.92287">
        <ele>274.6</ele>
        <time>2024-08-03T09:08:03Z</time>
      </trkpt>
      <trkpt lat="47.28933" lon="5.9229">
        <ele>274.2</ele>
        <time>2024-08-03T09:08:04Z</time>
      </trkpt>
      <trkpt lat="47.28932" lon="5.92292">
        <ele>273.8</ele>
        <time>2024-08-03T09:08:05Z</time>
      </trkpt>
      <trkpt lat="47.28931" lon="5.92294">
        <ele>273.4</ele>
        <time>2024-08-03T09:08:06Z</time>
      </trkpt>
      <trkpt lat="47.2893" lon="5.92297">
        <ele>273.4</ele>
        <time>2024-08-03T09:08:07Z</time>
      </trkpt>
      <trkpt lat="47.2893" lon="5.92299">
        <ele>273</ele>
        <time>2024-08-03T09:08:08Z</time>
      </trkpt>
      <trkpt lat="47.28929" lon="5.92301">
        <ele>272.4</ele>
        <time>2024-08-03T09:08:09Z</time>
      </trkpt>
      <trkpt lat="47.28929" lon="5.92304">
        <ele>272.2</ele>
        <time>2024-08-03T09:08:10Z</time>
      </trkpt>
      <trkpt lat="47.28929" lon="5.92306">
        <ele>272.2</ele>
        <time>2024-08-03T09:08:11Z</time>
      </trkpt>
      <trkpt lat="47.28928" lon="5.92308">
        <ele>272</ele>
        <time>2024-08-03T09:08:12Z</time>
      </trkpt>
      <trkpt lat="47.28927" lon="5.92312">
        <ele>272</ele>
        <time>2024-08-03T09:08:13Z</time>
      </trkpt>
      <trkpt lat="47.28926" lon="5.92315">
        <ele>271.6</ele>
        <time>2024-08-03T09:08:14Z</time>
      </trkpt>
      <trkpt lat="47.28924" lon="5.92317">
        <ele>271.2</ele>
        <time>2024-08-03T09:08:15Z</time>
      </trkpt>
      <trkpt lat="47.28923" lon="5.92319">
        <ele>270.6</ele>
        <time>2024-08-03T09:08:16Z</time>
      </trkpt>
      <trkpt lat="47.28922" lon="5.92321">
        <ele>270.4</ele>
        <time>2024-08-03T09:08:17Z</time>
      </trkpt>
      <trkpt lat="47.2892" lon="5.92322">
        <ele>270</ele>
        <time>2024-08-03T09:08:18Z</time>
      </trkpt>
      <trkpt lat="47.28915" lon="5.92323">
        <ele>269.2</ele>
        <time>2024-08-03T09:08:19Z</time>
      </trkpt>
      <trkpt lat="47.28913" lon="5.92325">
        <ele>268.6</ele>
        <time>2024-08-03T09:08:20Z</time>
      </trkpt>
      <trkpt lat="47.2891" lon="5.92326">
        <ele>268.2</ele>
        <time>2024-08-03T09:08:21Z</time>
      </trkpt>
      <trkpt lat="47.28909" lon="5.92328">
        <ele>267.8</ele>
        <time>2024-08-03T09:08:22Z</time>
      </trkpt>
      <trkpt lat="47.28906" lon="5.92329">
        <ele>267.6</ele>
        <time>2024-08-03T09:08:23Z</time>
      </trkpt>
      <trkpt lat="47.28904" lon="5.92329">
        <ele>267</ele>
        <time>2024-08-03T09:08:24Z</time>
      </trkpt>
      <trkpt lat="47.28902" lon="5.9233">
        <ele>266.4</ele>
        <time>2024-08-03T09:08:25Z</time>
      </trkpt>
      <trkpt lat="47.289" lon="5.9233">
        <ele>265.8</ele>
        <time>2024-08-03T09:08:26Z</time>
      </trkpt>
      <trkpt lat="47.28899" lon="5.92329">
        <ele>265.4</ele>
        <time>2024-08-03T09:08:27Z</time>
      </trkpt>
      <trkpt lat="47.28898" lon="5.92329">
        <ele>265.2</ele>
        <time>2024-08-03T09:08:28Z</time>
      </trkpt>
      <trkpt lat="47.28897" lon="5.92328">
        <ele>265.2</ele>
        <time>2024-08-03T09:08:29Z</time>
      </trkpt>
      <trkpt lat="47.28895" lon="5.92327">
        <ele>265</ele>
        <time>2024-08-03T09:08:30Z</time>
      </trkpt>
      <trkpt lat="47.28894" lon="5.92326">
        <ele>265</ele>
        <time>2024-08-03T09:08:31Z</time>
      </trkpt>
      <trkpt lat="47.28893" lon="5.92325">
        <ele>265</ele>
        <time>2024-08-03T09:08:32Z</time>
      </trkpt>
      <trkpt lat="47.28892" lon="5.92323">
        <ele>264.8</ele>
        <time>2024-08-03T09:08:33Z</time>
      </trkpt>
      <trkpt lat="47.28893" lon="5.92323">
        <ele>264.8</ele>
        <time>2024-08-03T09:08:34Z</time>
      </trkpt>
      <trkpt lat="47.28893" lon="5.92323">
        <ele>264.8</ele>
        <time>2024-08-03T09:08:35Z</time>
      </trkpt>
      <trkpt lat="47.28892" lon="5.92324">
        <ele>265</ele>
        <time>2024-08-03T09:08:36Z</time>
      </trkpt>
      <trkpt lat="47.28892" lon="5.92325">
        <ele>264.8</ele>
        <time>2024-08-03T09:08:37Z</time>
      </trkpt>
      <trkpt lat="47.28892" lon="5.92325">
        <ele>264.8</ele>
        <time>2024-08-03T09:08:38Z</time>
      </trkpt>
      <trkpt lat="47.28892" lon="5.92325">
        <ele>264.8</ele>
        <time>2024-08-03T09:08:39Z</time>
      </trkpt>
      <trkpt lat="47.28892" lon="5.92325">
        <ele>264.8</ele>
        <time>2024-08-03T09:08:40Z</time>
      </trkpt>
      <trkpt lat="47.28892" lon="5.92325">
        <ele>264.8</ele>
        <time>2024-08-03T09:08:41Z</time>
      </trkpt>
      <trkpt lat="47.28892" lon="5.92324">
        <ele>265</ele>
        <time>2024-08-03T09:08:42Z</time>
      </trkpt>
      <trkpt lat="47.28892" lon="5.92325">
        <ele>264.8</ele>
        <time>2024-08-03T09:08:43Z</time>
      </trkpt>
      <trkpt lat="47.28891" lon="5.92325">
        <ele>264.8</ele>
        <time>2024-08-03T09:08:44Z</time>
      </trkpt>
      <trkpt lat="47.28891" lon="5.92324">
        <ele>264.8</ele>
        <time>2024-08-03T09:08:45Z</time>
      </trkpt>
      <trkpt lat="47.28891" lon="5.92323">
        <ele>264.8</ele>
        <time>2024-08-03T09:08:46Z</time>
      </trkpt>
      <trkpt lat="47.28891" lon="5.92322">
        <ele>264.8</ele>
        <time>2024-08-03T09:08:47Z</time>
      </trkpt>
      <trkpt lat="47.28891" lon="5.92322">
        <ele>264.8</ele>
        <time>2024-08-03T09:08:48Z</time>
      </trkpt>
      <trkpt lat="47.28891" lon="5.92323">
        <ele>264.8</ele>
        <time>2024-08-03T09:08:49Z</time>
      </trkpt>
      <trkpt lat="47.28891" lon="5.92322">
        <ele>264.8</ele>
        <time>2024-08-03T09:08:50Z</time>
      </trkpt>
      <trkpt lat="47.2889" lon="5.92322">
        <ele>265</ele>
        <time>2024-08-03T09:09:01Z</time>
      </trkpt>
      <trkpt lat="47.2889" lon="5.92322">
        <ele>264.8</ele>
        <time>2024-08-03T09:09:02Z</time>
      </trkpt>
      <trkpt lat="47.2889" lon="5.92322">
        <ele>265</ele>
        <time>2024-08-03T09:09:03Z</time>
      </trkpt>
      <trkpt lat="47.2889" lon="5.92322">
        <ele>265</ele>
        <time>2024-08-03T09:09:04Z</time>
      </trkpt>
      <trkpt lat="47.2889" lon="5.92322">
        <ele>265</ele>
        <time>2024-08-03T09:09:05Z</time>
      </trkpt>
      <trkpt lat="47.2889" lon="5.92321">
        <ele>265</ele>
        <time>2024-08-03T09:09:06Z</time>
      </trkpt>
      <trkpt lat="47.2889" lon="5.9232">
        <ele>265</ele>
        <time>2024-08-03T09:09:07Z</time>
      </trkpt>
      <trkpt lat="47.2889" lon="5.9232">
        <ele>265</ele>
        <time>2024-08-03T09:09:08Z</time>
      </trkpt>
      <trkpt lat="47.2889" lon="5.9232">
        <ele>265</ele>
        <time>2024-08-03T09:09:09Z</time>
      </trkpt>
      <trkpt lat="47.2889" lon="5.9232">
        <ele>265</ele>
        <time>2024-08-03T09:09:10Z</time>
      </trkpt>
      <trkpt lat="47.2889" lon="5.92318">
        <ele>265.2</ele>
        <time>2024-08-03T09:09:11Z</time>
      </trkpt>
      <trkpt lat="47.2889" lon="5.92317">
        <ele>265.2</ele>
        <time>2024-08-03T09:09:12Z</time>
      </trkpt>
      <trkpt lat="47.2889" lon="5.92317">
        <ele>265.2</ele>
        <time>2024-08-03T09:09:13Z</time>
      </trkpt>
      <trkpt lat="47.2889" lon="5.92316">
        <ele>265</ele>
        <time>2024-08-03T09:09:14Z</time>
      </trkpt>
      <trkpt lat="47.2889" lon="5.92317">
        <ele>265</ele>
        <time>2024-08-03T09:09:15Z</time>
      </trkpt>
      <trkpt lat="47.2889" lon="5.92316">
        <ele>265</ele>
        <time>2024-08-03T09:09:16Z</time>
      </trkpt>
      <trkpt lat="47.2889" lon="5.92316">
        <ele>265.2</ele>
        <time>2024-08-03T09:09:17Z</time>
      </trkpt>
      <trkpt lat="47.2889" lon="5.92316">
        <ele>265.2</ele>
        <time>2024-08-03T09:09:18Z</time>
      </trkpt>
      <trkpt lat="47.2889" lon="5.92316">
        <ele>265.2</ele>
        <time>2024-08-03T09:09:19Z</time>
      </trkpt>
      <trkpt lat="47.2889" lon="5.92316">
        <ele>265</ele>
        <time>2024-08-03T09:09:20Z</time>
      </trkpt>
      <trkpt lat="47.2889" lon="5.92316">
        <ele>265</ele>
        <time>2024-08-03T09:09:21Z</time>
      </trkpt>
      <trkpt lat="47.28889" lon="5.92316">
        <ele>265.2</ele>
        <time>2024-08-03T09:09:22Z</time>
      </trkpt>
      <trkpt lat="47.28889" lon="5.92316">
        <ele>265.2</ele>
        <time>2024-08-03T09:09:23Z</time>
      </trkpt>
      <trkpt lat="47.28888" lon="5.92316">
        <ele>265.2</ele>
        <time>2024-08-03T09:09:24Z</time>
      </trkpt>
      <trkpt lat="47.28888" lon="5.92316">
        <ele>265</ele>
        <time>2024-08-03T09:09:25Z</time>
      </trkpt>
      <trkpt lat="47.28887" lon="5.92317">
        <ele>265</ele>
        <time>2024-08-03T09:09:26Z</time>
      </trkpt>
      <trkpt lat="47.28887" lon="5.92317">
        <ele>265</ele>
        <time>2024-08-03T09:09:27Z</time>
      </trkpt>
      <trkpt lat="47.28887" lon="5.92317">
        <ele>265</ele>
        <time>2024-08-03T09:09:28Z</time>
      </trkpt>
      <trkpt lat="47.28887" lon="5.92317">
        <ele>265</ele>
        <time>2024-08-03T09:09:29Z</time>
      </trkpt>
      <trkpt lat="47.28887" lon="5.92317">
        <ele>265</ele>
        <time>2024-08-03T09:09:30Z</time>
      </trkpt>
      <trkpt lat="47.28887" lon="5.92318">
        <ele>265</ele>
        <time>2024-08-03T09:09:31Z</time>
      </trkpt>
      <trkpt lat="47.28887" lon="5.92317">
        <ele>265</ele>
        <time>2024-08-03T09:09:32Z</time>
      </trkpt>
      <trkpt lat="47.28887" lon="5.92318">
        <ele>265</ele>
        <time>2024-08-03T09:09:33Z</time>
      </trkpt>
      <trkpt lat="47.28887" lon="5.92318">
        <ele>265</ele>
        <time>2024-08-03T09:09:34Z</time>
      </trkpt>
      <trkpt lat="47.28887" lon="5.92318">
        <ele>265</ele>
        <time>2024-08-03T09:09:35Z</time>
      </trkpt>
      <trkpt lat="47.28887" lon="5.92319">
        <ele>265</ele>
        <time>2024-08-03T09:09:36Z</time>
      </trkpt>
      <trkpt lat="47.28887" lon="5.92319">
        <ele>265</ele>
        <time>2024-08-03T09:09:37Z</time>
      </trkpt>
      <trkpt lat="47.28887" lon="5.9232">
        <ele>265</ele>
        <time>2024-08-03T09:09:38Z</time>
      </trkpt>
      <trkpt lat="47.28887" lon="5.92321">
        <ele>265</ele>
        <time>2024-08-03T09:09:47Z</time>
      </trkpt>
      <trkpt lat="47.28887" lon="5.92321">
        <ele>265.2</ele>
        <time>2024-08-03T09:09:50Z</time>
      </trkpt>
      <trkpt lat="47.28887" lon="5.9232">
        <ele>265.2</ele>
        <time>2024-08-03T09:09:51Z</time>
      </trkpt>
      <trkpt lat="47.28887" lon="5.92319">
        <ele>265.2</ele>
        <time>2024-08-03T09:09:52Z</time>
      </trkpt>
      <trkpt lat="47.28888" lon="5.92318">
        <ele>265.2</ele>
        <time>2024-08-03T09:09:53Z</time>
      </trkpt>
      <trkpt lat="47.28888" lon="5.92317">
        <ele>265</ele>
        <time>2024-08-03T09:09:54Z</time>
      </trkpt>
      <trkpt lat="47.28888" lon="5.92317">
        <ele>265</ele>
        <time>2024-08-03T09:09:55Z</time>
      </trkpt>
      <trkpt lat="47.28888" lon="5.92317">
        <ele>265</ele>
        <time>2024-08-03T09:09:56Z</time>
      </trkpt>
      <trkpt lat="47.28888" lon="5.92316">
        <ele>265</ele>
        <time>2024-08-03T09:09:57Z</time>
      </trkpt>
      <trkpt lat="47.28887" lon="5.92316">
        <ele>265</ele>
        <time>2024-08-03T09:09:58Z</time>
      </trkpt>
      <trkpt lat="47.28887" lon="5.92315">
        <ele>265</ele>
        <time>2024-08-03T09:09:59Z</time>
      </trkpt>
      <trkpt lat="47.28886" lon="5.92315">
        <ele>265</ele>
        <time>2024-08-03T09:10:00Z</time>
      </trkpt>
      <trkpt lat="47.28886" lon="5.92314">
        <ele>265.2</ele>
        <time>2024-08-03T09:10:01Z</time>
      </trkpt>
      <trkpt lat="47.28885" lon="5.92313">
        <ele>265</ele>
        <time>2024-08-03T09:10:02Z</time>
      </trkpt>
      <trkpt lat="47.28885" lon="5.92312">
        <ele>265</ele>
        <time>2024-08-03T09:10:03Z</time>
      </trkpt>
      <trkpt lat="47.28884" lon="5.92311">
        <ele>265</ele>
        <time>2024-08-03T09:10:04Z</time>
      </trkpt>
      <trkpt lat="47.28883" lon="5.92312">
        <ele>265</ele>
        <time>2024-08-03T09:10:05Z</time>
      </trkpt>
      <trkpt lat="47.28876" lon="5.92318">
        <ele>264.8</ele>
        <time>2024-08-03T09:10:12Z</time>
      </trkpt>
      <trkpt lat="47.2887" lon="5.9232">
        <ele>264.8</ele>
        <time>2024-08-03T09:10:17Z</time>
      </trkpt>
      <trkpt lat="47.2887" lon="5.92319">
        <ele>265</ele>
        <time>2024-08-03T09:10:18Z</time>
      </trkpt>
      <trkpt lat="47.28873" lon="5.92318">
        <ele>265</ele>
        <time>2024-08-03T09:10:19Z</time>
      </trkpt>
      <trkpt lat="47.28884" lon="5.9231">
        <ele>264.8</ele>
        <time>2024-08-03T09:10:23Z</time>
      </trkpt>
      <trkpt lat="47.28886" lon="5.92308">
        <ele>265</ele>
        <time>2024-08-03T09:10:24Z</time>
      </trkpt>
      <trkpt lat="47.28888" lon="5.92306">
        <ele>264.8</ele>
        <time>2024-08-03T09:10:25Z</time>
      </trkpt>
      <trkpt lat="47.28889" lon="5.92305">
        <ele>264.8</ele>
        <time>2024-08-03T09:10:26Z</time>
      </trkpt>
      <trkpt lat="47.28891" lon="5.92303">
        <ele>264.8</ele>
        <time>2024-08-03T09:10:27Z</time>
      </trkpt>
      <trkpt lat="47.28893" lon="5.92301">
        <ele>264.8</ele>
        <time>2024-08-03T09:10:28Z</time>
      </trkpt>
      <trkpt lat="47.28895" lon="5.92301">
        <ele>264.8</ele>
        <time>2024-08-03T09:10:29Z</time>
      </trkpt>
      <trkpt lat="47.28895" lon="5.923">
        <ele>264.8</ele>
        <time>2024-08-03T09:10:30Z</time>
      </trkpt>
      <trkpt lat="47.28896" lon="5.92299">
        <ele>265</ele>
        <time>2024-08-03T09:10:31Z</time>
      </trkpt>
      <trkpt lat="47.28896" lon="5.92298">
        <ele>264.8</ele>
        <time>2024-08-03T09:10:32Z</time>
      </trkpt>
      <trkpt lat="47.28897" lon="5.92297">
        <ele>264.8</ele>
        <time>2024-08-03T09:10:33Z</time>
      </trkpt>
      <trkpt lat="47.28897" lon="5.92298">
        <ele>264.8</ele>
        <time>2024-08-03T09:10:34Z</time>
      </trkpt>
      <trkpt lat="47.28898" lon="5.92299">
        <ele>264.8</ele>
        <time>2024-08-03T09:10:35Z</time>
      </trkpt>
      <trkpt lat="47.28898" lon="5.92301">
        <ele>264.8</ele>
        <time>2024-08-03T09:10:36Z</time>
      </trkpt>
      <trkpt lat="47.28898" lon="5.92304">
        <ele>264.8</ele>
        <time>2024-08-03T09:10:37Z</time>
      </trkpt>
      <trkpt lat="47.28897" lon="5.92308">
        <ele>264.8</ele>
        <time>2024-08-03T09:10:38Z</time>
      </trkpt>
      <trkpt lat="47.28896" lon="5.92312">
        <ele>264.8</ele>
        <time>2024-08-03T09:10:39Z</time>
      </trkpt>
      <trkpt lat="47.28895" lon="5.92317">
        <ele>264.8</ele>
        <time>2024-08-03T09:10:40Z</time>
      </trkpt>
      <trkpt lat="47.28894" lon="5.92323">
        <ele>264.8</ele>
        <time>2024-08-03T09:10:41Z</time>
      </trkpt>
      <trkpt lat="47.28893" lon="5.92328">
        <ele>264.8</ele>
        <time>2024-08-03T09:10:42Z</time>
      </trkpt>
      <trkpt lat="47.28892" lon="5.92332">
        <ele>264.8</ele>
        <time>2024-08-03T09:10:43Z</time>
      </trkpt>
      <trkpt lat="47.28892" lon="5.92335">
        <ele>264.6</ele>
        <time>2024-08-03T09:10:44Z</time>
      </trkpt>
      <trkpt lat="47.28892" lon="5.92337">
        <ele>264.8</ele>
        <time>2024-08-03T09:10:45Z</time>
      </trkpt>
      <trkpt lat="47.28892" lon="5.9234">
        <ele>264.8</ele>
        <time>2024-08-03T09:10:46Z</time>
      </trkpt>
      <trkpt lat="47.28893" lon="5.9234">
        <ele>264.8</ele>
        <time>2024-08-03T09:10:47Z</time>
      </trkpt>
      <trkpt lat="47.28894" lon="5.92339">
        <ele>264.6</ele>
        <time>2024-08-03T09:10:48Z</time>
      </trkpt>
      <trkpt lat="47.28896" lon="5.92335">
        <ele>264.6</ele>
        <time>2024-08-03T09:10:49Z</time>
      </trkpt>
      <trkpt lat="47.28897" lon="5.92332">
        <ele>264.8</ele>
        <time>2024-08-03T09:10:50Z</time>
      </trkpt>
      <trkpt lat="47.28899" lon="5.92329">
        <ele>264.8</ele>
        <time>2024-08-03T09:10:51Z</time>
      </trkpt>
      <trkpt lat="47.289" lon="5.92327">
        <ele>264.6</ele>
        <time>2024-08-03T09:10:52Z</time>
      </trkpt>
      <trkpt lat="47.28901" lon="5.92324">
        <ele>264.6</ele>
        <time>2024-08-03T09:10:53Z</time>
      </trkpt>
      <trkpt lat="47.28901" lon="5.92324">
        <ele>264.8</ele>
        <time>2024-08-03T09:10:54Z</time>
      </trkpt>
      <trkpt lat="47.289" lon="5.92325">
        <ele>264.6</ele>
        <time>2024-08-03T09:10:55Z</time>
      </trkpt>
      <trkpt lat="47.28898" lon="5.9233">
        <ele>264.6</ele>
        <time>2024-08-03T09:10:56Z</time>
      </trkpt>
      <trkpt lat="47.28896" lon="5.9233">
        <ele>264.6</ele>
        <time>2024-08-03T09:10:57Z</time>
      </trkpt>
      <trkpt lat="47.28893" lon="5.92331">
        <ele>264.8</ele>
        <time>2024-08-03T09:10:58Z</time>
      </trkpt>
      <trkpt lat="47.28891" lon="5.92331">
        <ele>264.6</ele>
        <time>2024-08-03T09:10:59Z</time>
      </trkpt>
      <trkpt lat="47.28889" lon="5.92331">
        <ele>264.8</ele>
        <time>2024-08-03T09:11:00Z</time>
      </trkpt>
      <trkpt lat="47.28887" lon="5.9233">
        <ele>264.8</ele>
        <time>2024-08-03T09:11:01Z</time>
      </trkpt>
      <trkpt lat="47.28884" lon="5.9233">
        <ele>264.8</ele>
        <time>2024-08-03T09:11:02Z</time>
      </trkpt>
      <trkpt lat="47.28881" lon="5.92329">
        <ele>264.8</ele>
        <time>2024-08-03T09:11:03Z</time>
      </trkpt>
      <trkpt lat="47.28879" lon="5.92325">
        <ele>264.8</ele>
        <time>2024-08-03T09:11:04Z</time>
      </trkpt>
      <trkpt lat="47.28876" lon="5.92323">
        <ele>264.8</ele>
        <time>2024-08-03T09:11:05Z</time>
      </trkpt>
      <trkpt lat="47.28874" lon="5.92321">
        <ele>264.8</ele>
        <time>2024-08-03T09:11:06Z</time>
      </trkpt>
      <trkpt lat="47.28871" lon="5.92319">
        <ele>265</ele>
        <time>2024-08-03T09:11:07Z</time>
      </trkpt>
      <trkpt lat="47.28869" lon="5.92317">
        <ele>265</ele>
        <time>2024-08-03T09:11:08Z</time>
      </trkpt>
      <trkpt lat="47.28866" lon="5.92315">
        <ele>265.2</ele>
        <time>2024-08-03T09:11:09Z</time>
      </trkpt>
      <trkpt lat="47.28864" lon="5.92314">
        <ele>265.4</ele>
        <time>2024-08-03T09:11:10Z</time>
      </trkpt>
      <trkpt lat="47.28861" lon="5.92311">
        <ele>265.6</ele>
        <time>2024-08-03T09:11:11Z</time>
      </trkpt>
      <trkpt lat="47.28859" lon="5.92309">
        <ele>265.6</ele>
        <time>2024-08-03T09:11:12Z</time>
      </trkpt>
      <trkpt lat="47.28856" lon="5.92306">
        <ele>265.8</ele>
        <time>2024-08-03T09:11:13Z</time>
      </trkpt>
      <trkpt lat="47.28854" lon="5.92304">
        <ele>266</ele>
        <time>2024-08-03T09:11:14Z</time>
      </trkpt>
      <trkpt lat="47.28851" lon="5.92301">
        <ele>266.4</ele>
        <time>2024-08-03T09:11:15Z</time>
      </trkpt>
      <trkpt lat="47.28849" lon="5.92299">
        <ele>266.4</ele>
        <time>2024-08-03T09:11:16Z</time>
      </trkpt>
      <trkpt lat="47.28846" lon="5.92295">
        <ele>266.4</ele>
        <time>2024-08-03T09:11:17Z</time>
      </trkpt>
      <trkpt lat="47.28844" lon="5.92292">
        <ele>266.6</ele>
        <time>2024-08-03T09:11:18Z</time>
      </trkpt>
      <trkpt lat="47.28841" lon="5.92289">
        <ele>266.8</ele>
        <time>2024-08-03T09:11:19Z</time>
      </trkpt>
      <trkpt lat="47.28838" lon="5.92286">
        <ele>266.8</ele>
        <time>2024-08-03T09:11:20Z</time>
      </trkpt>
      <trkpt lat="47.28836" lon="5.92283">
        <ele>267</ele>
        <time>2024-08-03T09:11:21Z</time>
      </trkpt>
      <trkpt lat="47.28833" lon="5.92281">
        <ele>267.2</ele>
        <time>2024-08-03T09:11:22Z</time>
      </trkpt>
      <trkpt lat="47.28831" lon="5.92278">
        <ele>267.4</ele>
        <time>2024-08-03T09:11:23Z</time>
      </trkpt>
      <trkpt lat="47.28828" lon="5.92274">
        <ele>267.6</ele>
        <time>2024-08-03T09:11:24Z</time>
      </trkpt>
      <trkpt lat="47.28826" lon="5.92271">
        <ele>267.6</ele>
        <time>2024-08-03T09:11:25Z</time>
      </trkpt>
      <trkpt lat="47.28823" lon="5.92267">
        <ele>267.8</ele>
        <time>2024-08-03T09:11:26Z</time>
      </trkpt>
      <trkpt lat="47.28821" lon="5.92265">
        <ele>267.8</ele>
        <time>2024-08-03T09:11:27Z</time>
      </trkpt>
      <trkpt lat="47.28818" lon="5.92262">
        <ele>267.8</ele>
        <time>2024-08-03T09:11:28Z</time>
      </trkpt>
      <trkpt lat="47.28816" lon="5.9226">
        <ele>268</ele>
        <time>2024-08-03T09:11:29Z</time>
      </trkpt>
      <trkpt lat="47.28814" lon="5.92257">
        <ele>268</ele>
        <time>2024-08-03T09:11:30Z</time>
      </trkpt>
      <trkpt lat="47.28812" lon="5.92254">
        <ele>268.4</ele>
        <time>2024-08-03T09:11:31Z</time>
      </trkpt>
      <trkpt lat="47.28809" lon="5.92251">
        <ele>268.6</ele>
        <time>2024-08-03T09:11:32Z</time>
      </trkpt>
      <trkpt lat="47.28807" lon="5.92248">
        <ele>268.8</ele>
        <time>2024-08-03T09:11:33Z</time>
      </trkpt>
      <trkpt lat="47.28804" lon="5.92245">
        <ele>268.8</ele>
        <time>2024-08-03T09:11:34Z</time>
      </trkpt>
      <trkpt lat="47.28801" lon="5.92242">
        <ele>269</ele>
        <time>2024-08-03T09:11:35Z</time>
      </trkpt>
      <trkpt lat="47.28799" lon="5.92239">
        <ele>269</ele>
        <time>2024-08-03T09:11:36Z</time>
      </trkpt>
      <trkpt lat="47.28796" lon="5.92236">
        <ele>269.2</ele>
        <time>2024-08-03T09:11:37Z</time>
      </trkpt>
      <trkpt lat="47.28793" lon="5.92232">
        <ele>269.4</ele>
        <time>2024-08-03T09:11:38Z</time>
      </trkpt>
      <trkpt lat="47.2879" lon="5.92229">
        <ele>269.6</ele>
        <time>2024-08-03T09:11:39Z</time>
      </trkpt>
      <trkpt lat="47.28787" lon="5.92225">
        <ele>269.8</ele>
        <time>2024-08-03T09:11:40Z</time>
      </trkpt>
      <trkpt lat="47.28784" lon="5.92221">
        <ele>269.8</ele>
        <time>2024-08-03T09:11:41Z</time>
      </trkpt>
      <trkpt lat="47.28781" lon="5.92218">
        <ele>270</ele>
        <time>2024-08-03T09:11:42Z</time>
      </trkpt>
      <trkpt lat="47.28779" lon="5.92215">
        <ele>270</ele>
        <time>2024-08-03T09:11:43Z</time>
      </trkpt>
      <trkpt lat="47.28776" lon="5.92211">
        <ele>270.2</ele>
        <time>2024-08-03T09:11:44Z</time>
      </trkpt>
      <trkpt lat="47.28773" lon="5.92208">
        <ele>270.4</ele>
        <time>2024-08-03T09:11:45Z</time>
      </trkpt>
      <trkpt lat="47.28771" lon="5.92204">
        <ele>270.4</ele>
        <time>2024-08-03T09:11:46Z</time>
      </trkpt>
      <trkpt lat="47.28768" lon="5.92201">
        <ele>270.4</ele>
        <time>2024-08-03T09:11:47Z</time>
      </trkpt>
      <trkpt lat="47.28766" lon="5.92197">
        <ele>270.6</ele>
        <time>2024-08-03T09:11:48Z</time>
      </trkpt>
      <trkpt lat="47.28763" lon="5.92194">
        <ele>270.8</ele>
        <time>2024-08-03T09:11:49Z</time>
      </trkpt>
      <trkpt lat="47.28761" lon="5.9219">
        <ele>270.8</ele>
        <time>2024-08-03T09:11:50Z</time>
      </trkpt>
      <trkpt lat="47.28757" lon="5.92187">
        <ele>270.8</ele>
        <time>2024-08-03T09:11:51Z</time>
      </trkpt>
      <trkpt lat="47.28754" lon="5.92184">
        <ele>271</ele>
        <time>2024-08-03T09:11:52Z</time>
      </trkpt>
      <trkpt lat="47.28752" lon="5.92181">
        <ele>271.2</ele>
        <time>2024-08-03T09:11:53Z</time>
      </trkpt>
      <trkpt lat="47.2875" lon="5.92177">
        <ele>271.4</ele>
        <time>2024-08-03T09:11:54Z</time>
      </trkpt>
      <trkpt lat="47.28747" lon="5.92174">
        <ele>271.6</ele>
        <time>2024-08-03T09:11:55Z</time>
      </trkpt>
      <trkpt lat="47.28745" lon="5.92171">
        <ele>272</ele>
        <time>2024-08-03T09:11:56Z</time>
      </trkpt>
      <trkpt lat="47.28742" lon="5.92169">
        <ele>272.2</ele>
        <time>2024-08-03T09:11:57Z</time>
      </trkpt>
      <trkpt lat="47.28739" lon="5.92165">
        <ele>272.6</ele>
        <time>2024-08-03T09:11:58Z</time>
      </trkpt>
      <trkpt lat="47.28736" lon="5.92161">
        <ele>272.6</ele>
        <time>2024-08-03T09:11:59Z</time>
      </trkpt>
      <trkpt lat="47.28734" lon="5.92157">
        <ele>273</ele>
        <time>2024-08-03T09:12:00Z</time>
      </trkpt>
      <trkpt lat="47.28731" lon="5.92152">
        <ele>273.2</ele>
        <time>2024-08-03T09:12:01Z</time>
      </trkpt>
      <trkpt lat="47.28728" lon="5.92148">
        <ele>273.2</ele>
        <time>2024-08-03T09:12:02Z</time>
      </trkpt>
      <trkpt lat="47.28725" lon="5.92144">
        <ele>273.4</ele>
        <time>2024-08-03T09:12:03Z</time>
      </trkpt>
      <trkpt lat="47.28722" lon="5.9214">
        <ele>273.4</ele>
        <time>2024-08-03T09:12:04Z</time>
      </trkpt>
      <trkpt lat="47.28719" lon="5.92135">
        <ele>273.6</ele>
        <time>2024-08-03T09:12:05Z</time>
      </trkpt>
      <trkpt lat="47.28717" lon="5.9213">
        <ele>273.8</ele>
        <time>2024-08-03T09:12:06Z</time>
      </trkpt>
      <trkpt lat="47.28714" lon="5.92127">
        <ele>274</ele>
        <time>2024-08-03T09:12:07Z</time>
      </trkpt>
      <trkpt lat="47.28711" lon="5.92123">
        <ele>274.2</ele>
        <time>2024-08-03T09:12:08Z</time>
      </trkpt>
      <trkpt lat="47.28708" lon="5.9212">
        <ele>274.2</ele>
        <time>2024-08-03T09:12:09Z</time>
      </trkpt>
      <trkpt lat="47.28705" lon="5.92117">
        <ele>274.4</ele>
        <time>2024-08-03T09:12:10Z</time>
      </trkpt>
      <trkpt lat="47.28702" lon="5.92113">
        <ele>274.4</ele>
        <time>2024-08-03T09:12:11Z</time>
      </trkpt>
      <trkpt lat="47.28699" lon="5.92109">
        <ele>274.6</ele>
        <time>2024-08-03T09:12:12Z</time>
      </trkpt>
      <trkpt lat="47.28695" lon="5.92104">
        <ele>275</ele>
        <time>2024-08-03T09:12:13Z</time>
      </trkpt>
      <trkpt lat="47.28692" lon="5.92099">
        <ele>275.2</ele>
        <time>2024-08-03T09:12:14Z</time>
      </trkpt>
      <trkpt lat="47.28688" lon="5.92096">
        <ele>275.4</ele>
        <time>2024-08-03T09:12:15Z</time>
      </trkpt>
      <trkpt lat="47.28685" lon="5.92092">
        <ele>275.6</ele>
        <time>2024-08-03T09:12:16Z</time>
      </trkpt>
      <trkpt lat="47.28682" lon="5.92089">
        <ele>275.6</ele>
        <time>2024-08-03T09:12:17Z</time>
      </trkpt>
      <trkpt lat="47.28679" lon="5.92085">
        <ele>275.8</ele>
        <time>2024-08-03T09:12:18Z</time>
      </trkpt>
      <trkpt lat="47.28676" lon="5.92081">
        <ele>275.8</ele>
        <time>2024-08-03T09:12:19Z</time>
      </trkpt>
      <trkpt lat="47.28673" lon="5.92077">
        <ele>276</ele>
        <time>2024-08-03T09:12:20Z</time>
      </trkpt>
      <trkpt lat="47.2867" lon="5.92073">
        <ele>276</ele>
        <time>2024-08-03T09:12:21Z</time>
      </trkpt>
      <trkpt lat="47.28667" lon="5.92069">
        <ele>276</ele>
        <time>2024-08-03T09:12:22Z</time>
      </trkpt>
      <trkpt lat="47.28664" lon="5.92065">
        <ele>276</ele>
        <time>2024-08-03T09:12:23Z</time>
      </trkpt>
      <trkpt lat="47.28662" lon="5.92061">
        <ele>276.2</ele>
        <time>2024-08-03T09:12:24Z</time>
      </trkpt>
      <trkpt lat="47.2866" lon="5.92056">
        <ele>276.2</ele>
        <time>2024-08-03T09:12:25Z</time>
      </trkpt>
      <trkpt lat="47.28658" lon="5.92052">
        <ele>276.6</ele>
        <time>2024-08-03T09:12:26Z</time>
      </trkpt>
      <trkpt lat="47.28656" lon="5.92048">
        <ele>277</ele>
        <time>2024-08-03T09:12:27Z</time>
      </trkpt>
      <trkpt lat="47.28654" lon="5.92043">
        <ele>277.4</ele>
        <time>2024-08-03T09:12:28Z</time>
      </trkpt>
      <trkpt lat="47.28653" lon="5.92038">
        <ele>277.6</ele>
        <time>2024-08-03T09:12:29Z</time>
      </trkpt>
      <trkpt lat="47.2865" lon="5.92033">
        <ele>277.6</ele>
        <time>2024-08-03T09:12:30Z</time>
      </trkpt>
      <trkpt lat="47.28647" lon="5.92029">
        <ele>277.6</ele>
        <time>2024-08-03T09:12:31Z</time>
      </trkpt>
      <trkpt lat="47.28645" lon="5.92024">
        <ele>277.8</ele>
        <time>2024-08-03T09:12:32Z</time>
      </trkpt>
      <trkpt lat="47.28641" lon="5.9202">
        <ele>277.8</ele>
        <time>2024-08-03T09:12:33Z</time>
      </trkpt>
      <trkpt lat="47.28639" lon="5.92016">
        <ele>278</ele>
        <time>2024-08-03T09:12:34Z</time>
      </trkpt>
      <trkpt lat="47.28636" lon="5.92012">
        <ele>278</ele>
        <time>2024-08-03T09:12:35Z</time>
      </trkpt>
      <trkpt lat="47.28633" lon="5.92008">
        <ele>278.2</ele>
        <time>2024-08-03T09:12:36Z</time>
      </trkpt>
      <trkpt lat="47.28631" lon="5.92004">
        <ele>278.4</ele>
        <time>2024-08-03T09:12:37Z</time>
      </trkpt>
      <trkpt lat="47.28629" lon="5.92">
        <ele>278.2</ele>
        <time>2024-08-03T09:12:38Z</time>
      </trkpt>
      <trkpt lat="47.28626" lon="5.91995">
        <ele>278.6</ele>
        <time>2024-08-03T09:12:39Z</time>
      </trkpt>
      <trkpt lat="47.28624" lon="5.91991">
        <ele>278.4</ele>
        <time>2024-08-03T09:12:40Z</time>
      </trkpt>
      <trkpt lat="47.28621" lon="5.91987">
        <ele>278.6</ele>
        <time>2024-08-03T09:12:41Z</time>
      </trkpt>
      <trkpt lat="47.28619" lon="5.91983">
        <ele>278.8</ele>
        <time>2024-08-03T09:12:42Z</time>
      </trkpt>
      <trkpt lat="47.28616" lon="5.91979">
        <ele>279</ele>
        <time>2024-08-03T09:12:43Z</time>
      </trkpt>
      <trkpt lat="47.28614" lon="5.91975">
        <ele>279.2</ele>
        <time>2024-08-03T09:12:44Z</time>
      </trkpt>
      <trkpt lat="47.28611" lon="5.91971">
        <ele>279.2</ele>
        <time>2024-08-03T09:12:45Z</time>
      </trkpt>
      <trkpt lat="47.28609" lon="5.91967">
        <ele>279.4</ele>
        <time>2024-08-03T09:12:46Z</time>
      </trkpt>
      <trkpt lat="47.28606" lon="5.91963">
        <ele>279.6</ele>
        <time>2024-08-03T09:12:47Z</time>
      </trkpt>
      <trkpt lat="47.28603" lon="5.91958">
        <ele>279.8</ele>
        <time>2024-08-03T09:12:48Z</time>
      </trkpt>
      <trkpt lat="47.286" lon="5.91954">
        <ele>280</ele>
        <time>2024-08-03T09:12:49Z</time>
      </trkpt>
      <trkpt lat="47.28597" lon="5.9195">
        <ele>280</ele>
        <time>2024-08-03T09:12:50Z</time>
      </trkpt>
      <trkpt lat="47.28593" lon="5.91946">
        <ele>280.4</ele>
        <time>2024-08-03T09:12:51Z</time>
      </trkpt>
      <trkpt lat="47.2859" lon="5.91942">
        <ele>280.6</ele>
        <time>2024-08-03T09:12:52Z</time>
      </trkpt>
      <trkpt lat="47.28587" lon="5.91938">
        <ele>280.6</ele>
        <time>2024-08-03T09:12:53Z</time>
      </trkpt>
      <trkpt lat="47.28584" lon="5.91934">
        <ele>280.6</ele>
        <time>2024-08-03T09:12:54Z</time>
      </trkpt>
      <trkpt lat="47.28581" lon="5.9193">
        <ele>280.6</ele>
        <time>2024-08-03T09:12:55Z</time>
      </trkpt>
      <trkpt lat="47.28578" lon="5.91926">
        <ele>280.8</ele>
        <time>2024-08-03T09:12:56Z</time>
      </trkpt>
      <trkpt lat="47.28575" lon="5.91922">
        <ele>281</ele>
        <time>2024-08-03T09:12:57Z</time>
      </trkpt>
      <trkpt lat="47.28572" lon="5.91918">
        <ele>280.8</ele>
        <time>2024-08-03T09:12:58Z</time>
      </trkpt>
      <trkpt lat="47.2857" lon="5.91914">
        <ele>280.8</ele>
        <time>2024-08-03T09:12:59Z</time>
      </trkpt>
      <trkpt lat="47.28567" lon="5.9191">
        <ele>281</ele>
        <time>2024-08-03T09:13:00Z</time>
      </trkpt>
      <trkpt lat="47.28564" lon="5.91906">
        <ele>281</ele>
        <time>2024-08-03T09:13:01Z</time>
      </trkpt>
      <trkpt lat="47.28561" lon="5.91903">
        <ele>281</ele>
        <time>2024-08-03T09:13:02Z</time>
      </trkpt>
      <trkpt lat="47.28558" lon="5.91899">
        <ele>281.2</ele>
        <time>2024-08-03T09:13:03Z</time>
      </trkpt>
      <trkpt lat="47.28556" lon="5.91895">
        <ele>281.4</ele>
        <time>2024-08-03T09:13:04Z</time>
      </trkpt>
      <trkpt lat="47.28554" lon="5.91891">
        <ele>281.4</ele>
        <time>2024-08-03T09:13:05Z</time>
      </trkpt>
      <trkpt lat="47.28552" lon="5.91887">
        <ele>281.6</ele>
        <time>2024-08-03T09:13:06Z</time>
      </trkpt>
      <trkpt lat="47.28549" lon="5.91883">
        <ele>281.8</ele>
        <time>2024-08-03T09:13:07Z</time>
      </trkpt>
      <trkpt lat="47.28548" lon="5.91879">
        <ele>281.8</ele>
        <time>2024-08-03T09:13:08Z</time>
      </trkpt>
      <trkpt lat="47.28547" lon="5.91874">
        <ele>282.2</ele>
        <time>2024-08-03T09:13:09Z</time>
      </trkpt>
      <trkpt lat="47.28546" lon="5.9187">
        <ele>282.2</ele>
        <time>2024-08-03T09:13:10Z</time>
      </trkpt>
      <trkpt lat="47.28544" lon="5.91865">
        <ele>282.2</ele>
        <time>2024-08-03T09:13:11Z</time>
      </trkpt>
      <trkpt lat="47.28542" lon="5.91861">
        <ele>282.6</ele>
        <time>2024-08-03T09:13:12Z</time>
      </trkpt>
      <trkpt lat="47.28539" lon="5.91857">
        <ele>282.6</ele>
        <time>2024-08-03T09:13:13Z</time>
      </trkpt>
      <trkpt lat="47.28536" lon="5.91853">
        <ele>282.8</ele>
        <time>2024-08-03T09:13:14Z</time>
      </trkpt>
      <trkpt lat="47.28533" lon="5.91849">
        <ele>282.8</ele>
        <time>2024-08-03T09:13:15Z</time>
      </trkpt>
      <trkpt lat="47.28531" lon="5.91846">
        <ele>282.8</ele>
        <time>2024-08-03T09:13:16Z</time>
      </trkpt>
      <trkpt lat="47.28528" lon="5.91842">
        <ele>282.8</ele>
        <time>2024-08-03T09:13:17Z</time>
      </trkpt>
      <trkpt lat="47.28525" lon="5.91838">
        <ele>283</ele>
        <time>2024-08-03T09:13:18Z</time>
      </trkpt>
      <trkpt lat="47.28523" lon="5.91835">
        <ele>283.2</ele>
        <time>2024-08-03T09:13:19Z</time>
      </trkpt>
      <trkpt lat="47.2852" lon="5.91831">
        <ele>283.4</ele>
        <time>2024-08-03T09:13:20Z</time>
      </trkpt>
      <trkpt lat="47.28518" lon="5.91827">
        <ele>283.6</ele>
        <time>2024-08-03T09:13:21Z</time>
      </trkpt>
      <trkpt lat="47.28515" lon="5.91824">
        <ele>283.6</ele>
        <time>2024-08-03T09:13:22Z</time>
      </trkpt>
      <trkpt lat="47.28512" lon="5.9182">
        <ele>284</ele>
        <time>2024-08-03T09:13:23Z</time>
      </trkpt>
      <trkpt lat="47.2851" lon="5.91817">
        <ele>284.2</ele>
        <time>2024-08-03T09:13:24Z</time>
      </trkpt>
      <trkpt lat="47.28507" lon="5.91814">
        <ele>284.2</ele>
        <time>2024-08-03T09:13:25Z</time>
      </trkpt>
      <trkpt lat="47.28505" lon="5.9181">
        <ele>284.4</ele>
        <time>2024-08-03T09:13:26Z</time>
      </trkpt>
      <trkpt lat="47.28503" lon="5.91807">
        <ele>284.4</ele>
        <time>2024-08-03T09:13:27Z</time>
      </trkpt>
      <trkpt lat="47.28501" lon="5.91803">
        <ele>284.4</ele>
        <time>2024-08-03T09:13:28Z</time>
      </trkpt>
      <trkpt lat="47.28499" lon="5.918">
        <ele>284.8</ele>
        <time>2024-08-03T09:13:29Z</time>
      </trkpt>
      <trkpt lat="47.28498" lon="5.91796">
        <ele>284.8</ele>
        <time>2024-08-03T09:13:30Z</time>
      </trkpt>
      <trkpt lat="47.28498" lon="5.91791">
        <ele>285</ele>
        <time>2024-08-03T09:13:31Z</time>
      </trkpt>
      <trkpt lat="47.28499" lon="5.91787">
        <ele>285.4</ele>
        <time>2024-08-03T09:13:32Z</time>
      </trkpt>
      <trkpt lat="47.28501" lon="5.91783">
        <ele>285.8</ele>
        <time>2024-08-03T09:13:33Z</time>
      </trkpt>
      <trkpt lat="47.28503" lon="5.91779">
        <ele>286.2</ele>
        <time>2024-08-03T09:13:34Z</time>
      </trkpt>
      <trkpt lat="47.28505" lon="5.91774">
        <ele>286.4</ele>
        <time>2024-08-03T09:13:35Z</time>
      </trkpt>
      <trkpt lat="47.28507" lon="5.9177">
        <ele>286.8</ele>
        <time>2024-08-03T09:13:36Z</time>
      </trkpt>
      <trkpt lat="47.2851" lon="5.91765">
        <ele>286.8</ele>
        <time>2024-08-03T09:13:37Z</time>
      </trkpt>
      <trkpt lat="47.28513" lon="5.91759">
        <ele>287.2</ele>
        <time>2024-08-03T09:13:38Z</time>
      </trkpt>
      <trkpt lat="47.28515" lon="5.91754">
        <ele>287.2</ele>
        <time>2024-08-03T09:13:39Z</time>
      </trkpt>
      <trkpt lat="47.28518" lon="5.91749">
        <ele>287.4</ele>
        <time>2024-08-03T09:13:40Z</time>
      </trkpt>
      <trkpt lat="47.2852" lon="5.91743">
        <ele>287.4</ele>
        <time>2024-08-03T09:13:41Z</time>
      </trkpt>
      <trkpt lat="47.28523" lon="5.91737">
        <ele>287.6</ele>
        <time>2024-08-03T09:13:42Z</time>
      </trkpt>
      <trkpt lat="47.28526" lon="5.9173">
        <ele>287.6</ele>
        <time>2024-08-03T09:13:43Z</time>
      </trkpt>
      <trkpt lat="47.28528" lon="5.91723">
        <ele>287.4</ele>
        <time>2024-08-03T09:13:44Z</time>
      </trkpt>
      <trkpt lat="47.28531" lon="5.91715">
        <ele>287.4</ele>
        <time>2024-08-03T09:13:45Z</time>
      </trkpt>
      <trkpt lat="47.28535" lon="5.91707">
        <ele>287.4</ele>
        <time>2024-08-03T09:13:46Z</time>
      </trkpt>
      <trkpt lat="47.28538" lon="5.91699">
        <ele>287.4</ele>
        <time>2024-08-03T09:13:47Z</time>
      </trkpt>
      <trkpt lat="47.28541" lon="5.91689">
        <ele>287.6</ele>
        <time>2024-08-03T09:13:48Z</time>
      </trkpt>
      <trkpt lat="47.28546" lon="5.9168">
        <ele>287.4</ele>
        <time>2024-08-03T09:13:49Z</time>
      </trkpt>
      <trkpt lat="47.2855" lon="5.91671">
        <ele>287.2</ele>
        <time>2024-08-03T09:13:50Z</time>
      </trkpt>
      <trkpt lat="47.28555" lon="5.91661">
        <ele>287</ele>
        <time>2024-08-03T09:13:51Z</time>
      </trkpt>
      <trkpt lat="47.2856" lon="5.91652">
        <ele>286.6</ele>
        <time>2024-08-03T09:13:52Z</time>
      </trkpt>
      <trkpt lat="47.28565" lon="5.91642">
        <ele>286.2</ele>
        <time>2024-08-03T09:13:53Z</time>
      </trkpt>
      <trkpt lat="47.28569" lon="5.91632">
        <ele>285.8</ele>
        <time>2024-08-03T09:13:54Z</time>
      </trkpt>
      <trkpt lat="47.28573" lon="5.91621">
        <ele>285.4</ele>
        <time>2024-08-03T09:13:55Z</time>
      </trkpt>
      <trkpt lat="47.28577" lon="5.9161">
        <ele>285</ele>
        <time>2024-08-03T09:13:56Z</time>
      </trkpt>
      <trkpt lat="47.28581" lon="5.91599">
        <ele>284.8</ele>
        <time>2024-08-03T09:13:57Z</time>
      </trkpt>
      <trkpt lat="47.28586" lon="5.91587">
        <ele>284.4</ele>
        <time>2024-08-03T09:13:58Z</time>
      </trkpt>
      <trkpt lat="47.2859" lon="5.91575">
        <ele>284.4</ele>
        <time>2024-08-03T09:13:59Z</time>
      </trkpt>
      <trkpt lat="47.28595" lon="5.91563">
        <ele>284</ele>
        <time>2024-08-03T09:14:00Z</time>
      </trkpt>
      <trkpt lat="47.286" lon="5.9155">
        <ele>283.6</ele>
        <time>2024-08-03T09:14:01Z</time>
      </trkpt>
      <trkpt lat="47.28604" lon="5.91537">
        <ele>283.4</ele>
        <time>2024-08-03T09:14:02Z</time>
      </trkpt>
      <trkpt lat="47.28609" lon="5.91523">
        <ele>282.8</ele>
        <time>2024-08-03T09:14:03Z</time>
      </trkpt>
      <trkpt lat="47.28614" lon="5.91509">
        <ele>282.6</ele>
        <time>2024-08-03T09:14:04Z</time>
      </trkpt>
      <trkpt lat="47.28619" lon="5.91495">
        <ele>282.2</ele>
        <time>2024-08-03T09:14:05Z</time>
      </trkpt>
      <trkpt lat="47.28623" lon="5.91481">
        <ele>281.4</ele>
        <time>2024-08-03T09:14:06Z</time>
      </trkpt>
      <trkpt lat="47.28628" lon="5.91467">
        <ele>281</ele>
        <time>2024-08-03T09:14:07Z</time>
      </trkpt>
      <trkpt lat="47.28633" lon="5.91453">
        <ele>280.2</ele>
        <time>2024-08-03T09:14:08Z</time>
      </trkpt>
      <trkpt lat="47.28638" lon="5.91438">
        <ele>279.6</ele>
        <time>2024-08-03T09:14:09Z</time>
      </trkpt>
      <trkpt lat="47.28643" lon="5.91423">
        <ele>279</ele>
        <time>2024-08-03T09:14:10Z</time>
      </trkpt>
      <trkpt lat="47.28648" lon="5.91409">
        <ele>278.4</ele>
        <time>2024-08-03T09:14:11Z</time>
      </trkpt>
      <trkpt lat="47.28653" lon="5.91394">
        <ele>277.6</ele>
        <time>2024-08-03T09:14:12Z</time>
      </trkpt>
      <trkpt lat="47.28658" lon="5.91379">
        <ele>276.8</ele>
        <time>2024-08-03T09:14:13Z</time>
      </trkpt>
      <trkpt lat="47.28663" lon="5.91364">
        <ele>276.2</ele>
        <time>2024-08-03T09:14:14Z</time>
      </trkpt>
      <trkpt lat="47.28668" lon="5.91349">
        <ele>274.8</ele>
        <time>2024-08-03T09:14:15Z</time>
      </trkpt>
      <trkpt lat="47.28673" lon="5.91335">
        <ele>274</ele>
        <time>2024-08-03T09:14:16Z</time>
      </trkpt>
      <trkpt lat="47.28678" lon="5.91321">
        <ele>273</ele>
        <time>2024-08-03T09:14:17Z</time>
      </trkpt>
      <trkpt lat="47.28682" lon="5.91308">
        <ele>272</ele>
        <time>2024-08-03T09:14:18Z</time>
      </trkpt>
      <trkpt lat="47.28687" lon="5.91295">
        <ele>271.2</ele>
        <time>2024-08-03T09:14:19Z</time>
      </trkpt>
      <trkpt lat="47.28692" lon="5.91282">
        <ele>270.2</ele>
        <time>2024-08-03T09:14:20Z</time>
      </trkpt>
      <trkpt lat="47.28696" lon="5.9127">
        <ele>270.2</ele>
        <time>2024-08-03T09:14:21Z</time>
      </trkpt>
      <trkpt lat="47.28701" lon="5.91258">
        <ele>269.6</ele>
        <time>2024-08-03T09:14:22Z</time>
      </trkpt>
      <trkpt lat="47.28705" lon="5.91246">
        <ele>269</ele>
        <time>2024-08-03T09:14:23Z</time>
      </trkpt>
      <trkpt lat="47.28709" lon="5.91236">
        <ele>268.6</ele>
        <time>2024-08-03T09:14:24Z</time>
      </trkpt>
      <trkpt lat="47.28712" lon="5.91226">
        <ele>268</ele>
        <time>2024-08-03T09:14:25Z</time>
      </trkpt>
      <trkpt lat="47.28716" lon="5.91216">
        <ele>267.4</ele>
        <time>2024-08-03T09:14:26Z</time>
      </trkpt>
      <trkpt lat="47.28719" lon="5.91207">
        <ele>266.8</ele>
        <time>2024-08-03T09:14:27Z</time>
      </trkpt>
      <trkpt lat="47.28722" lon="5.912">
        <ele>266.6</ele>
        <time>2024-08-03T09:14:28Z</time>
      </trkpt>
      <trkpt lat="47.28725" lon="5.91194">
        <ele>266.2</ele>
        <time>2024-08-03T09:14:29Z</time>
      </trkpt>
      <trkpt lat="47.28727" lon="5.9119">
        <ele>265.8</ele>
        <time>2024-08-03T09:14:30Z</time>
      </trkpt>
      <trkpt lat="47.28728" lon="5.91186">
        <ele>265.4</ele>
        <time>2024-08-03T09:14:31Z</time>
      </trkpt>
      <trkpt lat="47.28728" lon="5.91184">
        <ele>265.4</ele>
        <time>2024-08-03T09:14:32Z</time>
      </trkpt>
      <trkpt lat="47.28727" lon="5.91183">
        <ele>265</ele>
        <time>2024-08-03T09:14:33Z</time>
      </trkpt>
      <trkpt lat="47.28726" lon="5.91183">
        <ele>264.6</ele>
        <time>2024-08-03T09:14:34Z</time>
      </trkpt>
      <trkpt lat="47.28725" lon="5.91185">
        <ele>264.4</ele>
        <time>2024-08-03T09:14:35Z</time>
      </trkpt>
      <trkpt lat="47.28725" lon="5.91187">
        <ele>264</ele>
        <time>2024-08-03T09:14:36Z</time>
      </trkpt>
      <trkpt lat="47.28725" lon="5.91189">
        <ele>263.6</ele>
        <time>2024-08-03T09:14:37Z</time>
      </trkpt>
      <trkpt lat="47.28725" lon="5.91192">
        <ele>263</ele>
        <time>2024-08-03T09:14:38Z</time>
      </trkpt>
      <trkpt lat="47.28724" lon="5.91194">
        <ele>262.6</ele>
        <time>2024-08-03T09:14:39Z</time>
      </trkpt>
      <trkpt lat="47.28723" lon="5.91196">
        <ele>262.4</ele>
        <time>2024-08-03T09:14:40Z</time>
      </trkpt>
      <trkpt lat="47.28721" lon="5.91199">
        <ele>262.4</ele>
        <time>2024-08-03T09:14:41Z</time>
      </trkpt>
      <trkpt lat="47.2872" lon="5.91201">
        <ele>262.2</ele>
        <time>2024-08-03T09:14:42Z</time>
      </trkpt>
      <trkpt lat="47.28718" lon="5.91203">
        <ele>262.2</ele>
        <time>2024-08-03T09:14:43Z</time>
      </trkpt>
      <trkpt lat="47.28717" lon="5.91206">
        <ele>262.2</ele>
        <time>2024-08-03T09:14:44Z</time>
      </trkpt>
      <trkpt lat="47.28715" lon="5.91208">
        <ele>262.2</ele>
        <time>2024-08-03T09:14:45Z</time>
      </trkpt>
      <trkpt lat="47.28713" lon="5.91209">
        <ele>262.2</ele>
        <time>2024-08-03T09:14:46Z</time>
      </trkpt>
      <trkpt lat="47.28711" lon="5.91209">
        <ele>262.2</ele>
        <time>2024-08-03T09:14:47Z</time>
      </trkpt>
      <trkpt lat="47.2871" lon="5.91207">
        <ele>262.2</ele>
        <time>2024-08-03T09:14:48Z</time>
      </trkpt>
      <trkpt lat="47.28709" lon="5.91203">
        <ele>262</ele>
        <time>2024-08-03T09:14:49Z</time>
      </trkpt>
      <trkpt lat="47.28708" lon="5.91198">
        <ele>262.2</ele>
        <time>2024-08-03T09:14:50Z</time>
      </trkpt>
      <trkpt lat="47.28706" lon="5.91192">
        <ele>262.2</ele>
        <time>2024-08-03T09:14:51Z</time>
      </trkpt>
      <trkpt lat="47.28705" lon="5.91186">
        <ele>262.2</ele>
        <time>2024-08-03T09:14:52Z</time>
      </trkpt>
      <trkpt lat="47.28703" lon="5.9118">
        <ele>262.4</ele>
        <time>2024-08-03T09:14:53Z</time>
      </trkpt>
      <trkpt lat="47.28701" lon="5.91173">
        <ele>262.4</ele>
        <time>2024-08-03T09:14:54Z</time>
      </trkpt>
      <trkpt lat="47.28698" lon="5.91167">
        <ele>262.4</ele>
        <time>2024-08-03T09:14:55Z</time>
      </trkpt>
      <trkpt lat="47.28696" lon="5.91159">
        <ele>262.4</ele>
        <time>2024-08-03T09:14:56Z</time>
      </trkpt>
      <trkpt lat="47.28693" lon="5.91151">
        <ele>262.4</ele>
        <time>2024-08-03T09:14:57Z</time>
      </trkpt>
      <trkpt lat="47.2869" lon="5.91144">
        <ele>262.4</ele>
        <time>2024-08-03T09:14:58Z</time>
      </trkpt>
      <trkpt lat="47.28688" lon="5.91136">
        <ele>262.4</ele>
        <time>2024-08-03T09:14:59Z</time>
      </trkpt>
      <trkpt lat="47.28685" lon="5.91128">
        <ele>262.4</ele>
        <time>2024-08-03T09:15:00Z</time>
      </trkpt>
      <trkpt lat="47.28683" lon="5.91119">
        <ele>262.2</ele>
        <time>2024-08-03T09:15:01Z</time>
      </trkpt>
      <trkpt lat="47.2868" lon="5.91111">
        <ele>262.2</ele>
        <time>2024-08-03T09:15:02Z</time>
      </trkpt>
      <trkpt lat="47.28677" lon="5.91102">
        <ele>262.4</ele>
        <time>2024-08-03T09:15:03Z</time>
      </trkpt>
      <trkpt lat="47.28675" lon="5.91094">
        <ele>262.4</ele>
        <time>2024-08-03T09:15:04Z</time>
      </trkpt>
      <trkpt lat="47.28673" lon="5.91085">
        <ele>262.4</ele>
        <time>2024-08-03T09:15:05Z</time>
      </trkpt>
      <trkpt lat="47.28671" lon="5.91076">
        <ele>262.2</ele>
        <time>2024-08-03T09:15:06Z</time>
      </trkpt>
      <trkpt lat="47.28668" lon="5.91067">
        <ele>262.4</ele>
        <time>2024-08-03T09:15:07Z</time>
      </trkpt>
      <trkpt lat="47.28665" lon="5.91058">
        <ele>262.2</ele>
        <time>2024-08-03T09:15:08Z</time>
      </trkpt>
      <trkpt lat="47.28663" lon="5.91048">
        <ele>262.2</ele>
        <time>2024-08-03T09:15:09Z</time>
      </trkpt>
      <trkpt lat="47.2866" lon="5.91039">
        <ele>262</ele>
        <time>2024-08-03T09:15:10Z</time>
      </trkpt>
      <trkpt lat="47.28657" lon="5.91029">
        <ele>261.6</ele>
        <time>2024-08-03T09:15:11Z</time>
      </trkpt>
      <trkpt lat="47.28654" lon="5.9102">
        <ele>261.6</ele>
        <time>2024-08-03T09:15:12Z</time>
      </trkpt>
      <trkpt lat="47.28651" lon="5.9101">
        <ele>261.4</ele>
        <time>2024-08-03T09:15:13Z</time>
      </trkpt>
      <trkpt lat="47.28649" lon="5.91">
        <ele>261.4</ele>
        <time>2024-08-03T09:15:14Z</time>
      </trkpt>
      <trkpt lat="47.28646" lon="5.90989">
        <ele>261.2</ele>
        <time>2024-08-03T09:15:15Z</time>
      </trkpt>
      <trkpt lat="47.28644" lon="5.90979">
        <ele>261</ele>
        <time>2024-08-03T09:15:16Z</time>
      </trkpt>
      <trkpt lat="47.28642" lon="5.90968">
        <ele>260.8</ele>
        <time>2024-08-03T09:15:17Z</time>
      </trkpt>
      <trkpt lat="47.2864" lon="5.90957">
        <ele>260.6</ele>
        <time>2024-08-03T09:15:18Z</time>
      </trkpt>
      <trkpt lat="47.28638" lon="5.90946">
        <ele>260.4</ele>
        <time>2024-08-03T09:15:19Z</time>
      </trkpt>
      <trkpt lat="47.28636" lon="5.90935">
        <ele>260.2</ele>
        <time>2024-08-03T09:15:20Z</time>
      </trkpt>
      <trkpt lat="47.28635" lon="5.90923">
        <ele>259.8</ele>
        <time>2024-08-03T09:15:21Z</time>
      </trkpt>
      <trkpt lat="47.28633" lon="5.90912">
        <ele>259.6</ele>
        <time>2024-08-03T09:15:22Z</time>
      </trkpt>
      <trkpt lat="47.28632" lon="5.90901">
        <ele>259.2</ele>
        <time>2024-08-03T09:15:23Z</time>
      </trkpt>
      <trkpt lat="47.28631" lon="5.90889">
        <ele>259.2</ele>
        <time>2024-08-03T09:15:24Z</time>
      </trkpt>
      <trkpt lat="47.28629" lon="5.90878">
        <ele>259</ele>
        <time>2024-08-03T09:15:25Z</time>
      </trkpt>
      <trkpt lat="47.28628" lon="5.90866">
        <ele>258.6</ele>
        <time>2024-08-03T09:15:26Z</time>
      </trkpt>
      <trkpt lat="47.28627" lon="5.90855">
        <ele>258.6</ele>
        <time>2024-08-03T09:15:27Z</time>
      </trkpt>
      <trkpt lat="47.28626" lon="5.90843">
        <ele>258.4</ele>
        <time>2024-08-03T09:15:28Z</time>
      </trkpt>
      <trkpt lat="47.28626" lon="5.90832">
        <ele>258.2</ele>
        <time>2024-08-03T09:15:29Z</time>
      </trkpt>
      <trkpt lat="47.28626" lon="5.9082">
        <ele>257.8</ele>
        <time>2024-08-03T09:15:30Z</time>
      </trkpt>
      <trkpt lat="47.28626" lon="5.90808">
        <ele>257.4</ele>
        <time>2024-08-03T09:15:31Z</time>
      </trkpt>
      <trkpt lat="47.28626" lon="5.90796">
        <ele>257</ele>
        <time>2024-08-03T09:15:32Z</time>
      </trkpt>
      <trkpt lat="47.28627" lon="5.90784">
        <ele>256.8</ele>
        <time>2024-08-03T09:15:33Z</time>
      </trkpt>
      <trkpt lat="47.28627" lon="5.90773">
        <ele>256.4</ele>
        <time>2024-08-03T09:15:34Z</time>
      </trkpt>
      <trkpt lat="47.28628" lon="5.90761">
        <ele>256</ele>
        <time>2024-08-03T09:15:35Z</time>
      </trkpt>
      <trkpt lat="47.28629" lon="5.90749">
        <ele>255.6</ele>
        <time>2024-08-03T09:15:36Z</time>
      </trkpt>
      <trkpt lat="47.2863" lon="5.90737">
        <ele>255.6</ele>
        <time>2024-08-03T09:15:37Z</time>
      </trkpt>
      <trkpt lat="47.28631" lon="5.90725">
        <ele>255.2</ele>
        <time>2024-08-03T09:15:38Z</time>
      </trkpt>
      <trkpt lat="47.28633" lon="5.90714">
        <ele>255</ele>
        <time>2024-08-03T09:15:39Z</time>
      </trkpt>
      <trkpt lat="47.28634" lon="5.90702">
        <ele>254.6</ele>
        <time>2024-08-03T09:15:40Z</time>
      </trkpt>
      <trkpt lat="47.28636" lon="5.9069">
        <ele>254.2</ele>
        <time>2024-08-03T09:15:41Z</time>
      </trkpt>
      <trkpt lat="47.28638" lon="5.90678">
        <ele>254</ele>
        <time>2024-08-03T09:15:42Z</time>
      </trkpt>
      <trkpt lat="47.2864" lon="5.90667">
        <ele>253.8</ele>
        <time>2024-08-03T09:15:43Z</time>
      </trkpt>
      <trkpt lat="47.28642" lon="5.90655">
        <ele>253.6</ele>
        <time>2024-08-03T09:15:44Z</time>
      </trkpt>
      <trkpt lat="47.28645" lon="5.90643">
        <ele>253.2</ele>
        <time>2024-08-03T09:15:45Z</time>
      </trkpt>
      <trkpt lat="47.28647" lon="5.90632">
        <ele>252.8</ele>
        <time>2024-08-03T09:15:46Z</time>
      </trkpt>
      <trkpt lat="47.28649" lon="5.9062">
        <ele>252.4</ele>
        <time>2024-08-03T09:15:47Z</time>
      </trkpt>
      <trkpt lat="47.28651" lon="5.90608">
        <ele>252.2</ele>
        <time>2024-08-03T09:15:48Z</time>
      </trkpt>
      <trkpt lat="47.28653" lon="5.90596">
        <ele>252.2</ele>
        <time>2024-08-03T09:15:49Z</time>
      </trkpt>
      <trkpt lat="47.28654" lon="5.90584">
        <ele>251.6</ele>
        <time>2024-08-03T09:15:50Z</time>
      </trkpt>
      <trkpt lat="47.28656" lon="5.90572">
        <ele>251.4</ele>
        <time>2024-08-03T09:15:51Z</time>
      </trkpt>
      <trkpt lat="47.28657" lon="5.9056">
        <ele>251.2</ele>
        <time>2024-08-03T09:15:52Z</time>
      </trkpt>
      <trkpt lat="47.28658" lon="5.90548">
        <ele>250.8</ele>
        <time>2024-08-03T09:15:53Z</time>
      </trkpt>
      <trkpt lat="47.28659" lon="5.90536">
        <ele>250.6</ele>
        <time>2024-08-03T09:15:54Z</time>
      </trkpt>
      <trkpt lat="47.2866" lon="5.90524">
        <ele>250.4</ele>
        <time>2024-08-03T09:15:55Z</time>
      </trkpt>
      <trkpt lat="47.28661" lon="5.90512">
        <ele>250</ele>
        <time>2024-08-03T09:15:56Z</time>
      </trkpt>
      <trkpt lat="47.28662" lon="5.905">
        <ele>249.8</ele>
        <time>2024-08-03T09:15:57Z</time>
      </trkpt>
      <trkpt lat="47.28662" lon="5.90488">
        <ele>249.4</ele>
        <time>2024-08-03T09:15:58Z</time>
      </trkpt>
      <trkpt lat="47.28663" lon="5.90476">
        <ele>249.2</ele>
        <time>2024-08-03T09:15:59Z</time>
      </trkpt>
      <trkpt lat="47.28664" lon="5.90464">
        <ele>249</ele>
        <time>2024-08-03T09:16:00Z</time>
      </trkpt>
      <trkpt lat="47.28665" lon="5.90453">
        <ele>248.4</ele>
        <time>2024-08-03T09:16:01Z</time>
      </trkpt>
      <trkpt lat="47.28666" lon="5.90441">
        <ele>248.2</ele>
        <time>2024-08-03T09:16:02Z</time>
      </trkpt>
      <trkpt lat="47.28666" lon="5.9043">
        <ele>247.6</ele>
        <time>2024-08-03T09:16:03Z</time>
      </trkpt>
      <trkpt lat="47.28667" lon="5.90418">
        <ele>247.2</ele>
        <time>2024-08-03T09:16:04Z</time>
      </trkpt>
      <trkpt lat="47.28667" lon="5.90407">
        <ele>247</ele>
        <time>2024-08-03T09:16:05Z</time>
      </trkpt>
      <trkpt lat="47.28668" lon="5.90395">
        <ele>246.8</ele>
        <time>2024-08-03T09:16:06Z</time>
      </trkpt>
      <trkpt lat="47.28668" lon="5.90383">
        <ele>246.4</ele>
        <time>2024-08-03T09:16:07Z</time>
      </trkpt>
      <trkpt lat="47.28668" lon="5.90372">
        <ele>246.2</ele>
        <time>2024-08-03T09:16:08Z</time>
      </trkpt>
      <trkpt lat="47.28669" lon="5.9036">
        <ele>246</ele>
        <time>2024-08-03T09:16:09Z</time>
      </trkpt>
      <trkpt lat="47.28669" lon="5.90348">
        <ele>245.6</ele>
        <time>2024-08-03T09:16:10Z</time>
      </trkpt>
      <trkpt lat="47.2867" lon="5.90335">
        <ele>245.6</ele>
        <time>2024-08-03T09:16:11Z</time>
      </trkpt>
      <trkpt lat="47.28671" lon="5.90323">
        <ele>245.4</ele>
        <time>2024-08-03T09:16:12Z</time>
      </trkpt>
      <trkpt lat="47.28672" lon="5.9031">
        <ele>245</ele>
        <time>2024-08-03T09:16:13Z</time>
      </trkpt>
      <trkpt lat="47.28673" lon="5.90298">
        <ele>244.8</ele>
        <time>2024-08-03T09:16:14Z</time>
      </trkpt>
      <trkpt lat="47.28674" lon="5.90286">
        <ele>244.6</ele>
        <time>2024-08-03T09:16:15Z</time>
      </trkpt>
      <trkpt lat="47.28674" lon="5.90274">
        <ele>244</ele>
        <time>2024-08-03T09:16:16Z</time>
      </trkpt>
      <trkpt lat="47.28674" lon="5.90262">
        <ele>243.6</ele>
        <time>2024-08-03T09:16:17Z</time>
      </trkpt>
      <trkpt lat="47.28675" lon="5.9025">
        <ele>243.2</ele>
        <time>2024-08-03T09:16:18Z</time>
      </trkpt>
      <trkpt lat="47.28675" lon="5.90237">
        <ele>242.8</ele>
        <time>2024-08-03T09:16:19Z</time>
      </trkpt>
      <trkpt lat="47.28675" lon="5.90225">
        <ele>242.8</ele>
        <time>2024-08-03T09:16:20Z</time>
      </trkpt>
      <trkpt lat="47.28675" lon="5.90213">
        <ele>242.4</ele>
        <time>2024-08-03T09:16:21Z</time>
      </trkpt>
      <trkpt lat="47.28676" lon="5.90201">
        <ele>242</ele>
        <time>2024-08-03T09:16:22Z</time>
      </trkpt>
      <trkpt lat="47.28677" lon="5.90189">
        <ele>241.8</ele>
        <time>2024-08-03T09:16:23Z</time>
      </trkpt>
      <trkpt lat="47.28678" lon="5.90177">
        <ele>241.2</ele>
        <time>2024-08-03T09:16:24Z</time>
      </trkpt>
      <trkpt lat="47.28678" lon="5.90166">
        <ele>240.8</ele>
        <time>2024-08-03T09:16:25Z</time>
      </trkpt>
      <trkpt lat="47.28679" lon="5.90155">
        <ele>240.2</ele>
        <time>2024-08-03T09:16:26Z</time>
      </trkpt>
      <trkpt lat="47.28679" lon="5.90143">
        <ele>240</ele>
        <time>2024-08-03T09:16:27Z</time>
      </trkpt>
      <trkpt lat="47.2868" lon="5.90133">
        <ele>239.6</ele>
        <time>2024-08-03T09:16:28Z</time>
      </trkpt>
      <trkpt lat="47.2868" lon="5.90122">
        <ele>239.6</ele>
        <time>2024-08-03T09:16:29Z</time>
      </trkpt>
      <trkpt lat="47.2868" lon="5.90112">
        <ele>239</ele>
        <time>2024-08-03T09:16:30Z</time>
      </trkpt>
      <trkpt lat="47.28678" lon="5.90103">
        <ele>239</ele>
        <time>2024-08-03T09:16:31Z</time>
      </trkpt>
      <trkpt lat="47.28677" lon="5.90094">
        <ele>238.8</ele>
        <time>2024-08-03T09:16:32Z</time>
      </trkpt>
      <trkpt lat="47.28674" lon="5.90085">
        <ele>238.8</ele>
        <time>2024-08-03T09:16:33Z</time>
      </trkpt>
      <trkpt lat="47.28672" lon="5.90077">
        <ele>238.6</ele>
        <time>2024-08-03T09:16:34Z</time>
      </trkpt>
      <trkpt lat="47.28669" lon="5.90068">
        <ele>238.4</ele>
        <time>2024-08-03T09:16:35Z</time>
      </trkpt>
      <trkpt lat="47.28667" lon="5.9006">
        <ele>238.4</ele>
        <time>2024-08-03T09:16:36Z</time>
      </trkpt>
      <trkpt lat="47.28665" lon="5.90052">
        <ele>238.2</ele>
        <time>2024-08-03T09:16:37Z</time>
      </trkpt>
      <trkpt lat="47.28663" lon="5.90045">
        <ele>238.2</ele>
        <time>2024-08-03T09:16:38Z</time>
      </trkpt>
      <trkpt lat="47.28662" lon="5.90037">
        <ele>238.2</ele>
        <time>2024-08-03T09:16:39Z</time>
      </trkpt>
      <trkpt lat="47.28661" lon="5.9003">
        <ele>238.2</ele>
        <time>2024-08-03T09:16:40Z</time>
      </trkpt>
      <trkpt lat="47.28659" lon="5.90023">
        <ele>238.2</ele>
        <time>2024-08-03T09:16:41Z</time>
      </trkpt>
      <trkpt lat="47.28658" lon="5.90016">
        <ele>238</ele>
        <time>2024-08-03T09:16:42Z</time>
      </trkpt>
      <trkpt lat="47.28656" lon="5.90009">
        <ele>238.2</ele>
        <time>2024-08-03T09:16:43Z</time>
      </trkpt>
      <trkpt lat="47.28653" lon="5.90001">
        <ele>238.2</ele>
        <time>2024-08-03T09:16:44Z</time>
      </trkpt>
      <trkpt lat="47.28651" lon="5.89993">
        <ele>238</ele>
        <time>2024-08-03T09:16:45Z</time>
      </trkpt>
      <trkpt lat="47.28648" lon="5.89985">
        <ele>238</ele>
        <time>2024-08-03T09:16:46Z</time>
      </trkpt>
      <trkpt lat="47.28646" lon="5.89977">
        <ele>238.2</ele>
        <time>2024-08-03T09:16:47Z</time>
      </trkpt>
      <trkpt lat="47.28643" lon="5.89969">
        <ele>238.2</ele>
        <time>2024-08-03T09:16:48Z</time>
      </trkpt>
      <trkpt lat="47.28641" lon="5.89961">
        <ele>238</ele>
        <time>2024-08-03T09:16:49Z</time>
      </trkpt>
      <trkpt lat="47.28638" lon="5.89952">
        <ele>238</ele>
        <time>2024-08-03T09:16:50Z</time>
      </trkpt>
      <trkpt lat="47.28636" lon="5.89943">
        <ele>238</ele>
        <time>2024-08-03T09:16:51Z</time>
      </trkpt>
      <trkpt lat="47.28633" lon="5.89934">
        <ele>238.2</ele>
        <time>2024-08-03T09:16:52Z</time>
      </trkpt>
      <trkpt lat="47.28631" lon="5.89925">
        <ele>238</ele>
        <time>2024-08-03T09:16:53Z</time>
      </trkpt>
      <trkpt lat="47.28629" lon="5.89916">
        <ele>238</ele>
        <time>2024-08-03T09:16:54Z</time>
      </trkpt>
      <trkpt lat="47.28627" lon="5.89908">
        <ele>238</ele>
        <time>2024-08-03T09:16:55Z</time>
      </trkpt>
      <trkpt lat="47.28624" lon="5.89899">
        <ele>238</ele>
        <time>2024-08-03T09:16:56Z</time>
      </trkpt>
      <trkpt lat="47.28622" lon="5.89891">
        <ele>238</ele>
        <time>2024-08-03T09:16:57Z</time>
      </trkpt>
      <trkpt lat="47.2862" lon="5.89883">
        <ele>238</ele>
        <time>2024-08-03T09:16:58Z</time>
      </trkpt>
      <trkpt lat="47.28619" lon="5.89876">
        <ele>238</ele>
        <time>2024-08-03T09:16:59Z</time>
      </trkpt>
      <trkpt lat="47.28617" lon="5.89868">
        <ele>238</ele>
        <time>2024-08-03T09:17:00Z</time>
      </trkpt>
      <trkpt lat="47.28616" lon="5.89861">
        <ele>238</ele>
        <time>2024-08-03T09:17:01Z</time>
      </trkpt>
      <trkpt lat="47.28615" lon="5.89853">
        <ele>237.8</ele>
        <time>2024-08-03T09:17:02Z</time>
      </trkpt>
      <trkpt lat="47.28613" lon="5.89845">
        <ele>238</ele>
        <time>2024-08-03T09:17:03Z</time>
      </trkpt>
      <trkpt lat="47.28611" lon="5.89837">
        <ele>238</ele>
        <time>2024-08-03T09:17:04Z</time>
      </trkpt>
      <trkpt lat="47.28608" lon="5.89829">
        <ele>237.8</ele>
        <time>2024-08-03T09:17:05Z</time>
      </trkpt>
      <trkpt lat="47.28606" lon="5.89821">
        <ele>238</ele>
        <time>2024-08-03T09:17:06Z</time>
      </trkpt>
      <trkpt lat="47.28605" lon="5.89812">
        <ele>238</ele>
        <time>2024-08-03T09:17:07Z</time>
      </trkpt>
      <trkpt lat="47.28605" lon="5.89804">
        <ele>238</ele>
        <time>2024-08-03T09:17:08Z</time>
      </trkpt>
      <trkpt lat="47.28604" lon="5.89796">
        <ele>238</ele>
        <time>2024-08-03T09:17:09Z</time>
      </trkpt>
      <trkpt lat="47.28603" lon="5.89789">
        <ele>238.2</ele>
        <time>2024-08-03T09:17:10Z</time>
      </trkpt>
      <trkpt lat="47.286" lon="5.89786">
        <ele>238.2</ele>
        <time>2024-08-03T09:17:11Z</time>
      </trkpt>
      <trkpt lat="47.28598" lon="5.89783">
        <ele>238.2</ele>
        <time>2024-08-03T09:17:12Z</time>
      </trkpt>
      <trkpt lat="47.28596" lon="5.89779">
        <ele>238.2</ele>
        <time>2024-08-03T09:17:13Z</time>
      </trkpt>
      <trkpt lat="47.28597" lon="5.89776">
        <ele>238.4</ele>
        <time>2024-08-03T09:17:14Z</time>
      </trkpt>
      <trkpt lat="47.28598" lon="5.89772">
        <ele>238.4</ele>
        <time>2024-08-03T09:17:15Z</time>
      </trkpt>
      <trkpt lat="47.286" lon="5.8977">
        <ele>238.6</ele>
        <time>2024-08-03T09:17:16Z</time>
      </trkpt>
      <trkpt lat="47.28601" lon="5.89767">
        <ele>238.6</ele>
        <time>2024-08-03T09:17:17Z</time>
      </trkpt>
      <trkpt lat="47.28603" lon="5.89764">
        <ele>238.8</ele>
        <time>2024-08-03T09:17:18Z</time>
      </trkpt>
      <trkpt lat="47.28605" lon="5.8976">
        <ele>239</ele>
        <time>2024-08-03T09:17:19Z</time>
      </trkpt>
      <trkpt lat="47.28606" lon="5.89754">
        <ele>239.2</ele>
        <time>2024-08-03T09:17:20Z</time>
      </trkpt>
      <trkpt lat="47.28606" lon="5.89748">
        <ele>239.2</ele>
        <time>2024-08-03T09:17:21Z</time>
      </trkpt>
      <trkpt lat="47.28608" lon="5.89744">
        <ele>239.4</ele>
        <time>2024-08-03T09:17:22Z</time>
      </trkpt>
      <trkpt lat="47.28608" lon="5.8974">
        <ele>239.4</ele>
        <time>2024-08-03T09:17:23Z</time>
      </trkpt>
      <trkpt lat="47.28609" lon="5.89737">
        <ele>239.6</ele>
        <time>2024-08-03T09:17:24Z</time>
      </trkpt>
      <trkpt lat="47.2861" lon="5.89735">
        <ele>239.8</ele>
        <time>2024-08-03T09:17:25Z</time>
      </trkpt>
      <trkpt lat="47.28611" lon="5.89734">
        <ele>240</ele>
        <time>2024-08-03T09:17:26Z</time>
      </trkpt>
      <trkpt lat="47.28612" lon="5.89732">
        <ele>240</ele>
        <time>2024-08-03T09:17:27Z</time>
      </trkpt>
      <trkpt lat="47.28613" lon="5.8973">
        <ele>240.2</ele>
        <time>2024-08-03T09:17:28Z</time>
      </trkpt>
      <trkpt lat="47.28613" lon="5.89728">
        <ele>240.4</ele>
        <time>2024-08-03T09:17:29Z</time>
      </trkpt>
      <trkpt lat="47.28613" lon="5.89726">
        <ele>240.6</ele>
        <time>2024-08-03T09:17:30Z</time>
      </trkpt>
      <trkpt lat="47.28614" lon="5.89725">
        <ele>240.6</ele>
        <time>2024-08-03T09:17:31Z</time>
      </trkpt>
      <trkpt lat="47.28614" lon="5.89726">
        <ele>240.6</ele>
        <time>2024-08-03T09:17:32Z</time>
      </trkpt>
      <trkpt lat="47.28614" lon="5.89728">
        <ele>240.4</ele>
        <time>2024-08-03T09:17:33Z</time>
      </trkpt>
      <trkpt lat="47.28614" lon="5.89731">
        <ele>240.4</ele>
        <time>2024-08-03T09:17:34Z</time>
      </trkpt>
      <trkpt lat="47.28613" lon="5.89735">
        <ele>240.6</ele>
        <time>2024-08-03T09:17:35Z</time>
      </trkpt>
      <trkpt lat="47.28611" lon="5.89739">
        <ele>240.6</ele>
        <time>2024-08-03T09:17:36Z</time>
      </trkpt>
      <trkpt lat="47.28609" lon="5.89743">
        <ele>240.6</ele>
        <time>2024-08-03T09:17:37Z</time>
      </trkpt>
      <trkpt lat="47.28607" lon="5.89747">
        <ele>240.6</ele>
        <time>2024-08-03T09:17:38Z</time>
      </trkpt>
      <trkpt lat="47.28606" lon="5.89751">
        <ele>240.6</ele>
        <time>2024-08-03T09:17:39Z</time>
      </trkpt>
      <trkpt lat="47.28604" lon="5.89755">
        <ele>240.6</ele>
        <time>2024-08-03T09:17:40Z</time>
      </trkpt>
      <trkpt lat="47.28601" lon="5.8976">
        <ele>240.4</ele>
        <time>2024-08-03T09:17:41Z</time>
      </trkpt>
      <trkpt lat="47.28598" lon="5.89765">
        <ele>240.6</ele>
        <time>2024-08-03T09:17:42Z</time>
      </trkpt>
      <trkpt lat="47.28595" lon="5.89769">
        <ele>240.6</ele>
        <time>2024-08-03T09:17:43Z</time>
      </trkpt>
      <trkpt lat="47.28592" lon="5.89775">
        <ele>240.4</ele>
        <time>2024-08-03T09:17:44Z</time>
      </trkpt>
      <trkpt lat="47.28589" lon="5.89778">
        <ele>240.4</ele>
        <time>2024-08-03T09:17:45Z</time>
      </trkpt>
      <trkpt lat="47.28585" lon="5.89783">
        <ele>240.4</ele>
        <time>2024-08-03T09:17:46Z</time>
      </trkpt>
      <trkpt lat="47.28582" lon="5.89788">
        <ele>240.4</ele>
        <time>2024-08-03T09:17:47Z</time>
      </trkpt>
      <trkpt lat="47.28579" lon="5.89792">
        <ele>240.2</ele>
        <time>2024-08-03T09:17:48Z</time>
      </trkpt>
      <trkpt lat="47.28575" lon="5.89796">
        <ele>240</ele>
        <time>2024-08-03T09:17:49Z</time>
      </trkpt>
      <trkpt lat="47.28571" lon="5.898">
        <ele>240.2</ele>
        <time>2024-08-03T09:17:50Z</time>
      </trkpt>
      <trkpt lat="47.28568" lon="5.89803">
        <ele>240</ele>
        <time>2024-08-03T09:17:51Z</time>
      </trkpt>
      <trkpt lat="47.28565" lon="5.89805">
        <ele>240</ele>
        <time>2024-08-03T09:17:52Z</time>
      </trkpt>
      <trkpt lat="47.28562" lon="5.89807">
        <ele>240</ele>
        <time>2024-08-03T09:17:53Z</time>
      </trkpt>
      <trkpt lat="47.28559" lon="5.8981">
        <ele>239.8</ele>
        <time>2024-08-03T09:17:54Z</time>
      </trkpt>
      <trkpt lat="47.28557" lon="5.89813">
        <ele>240</ele>
        <time>2024-08-03T09:17:55Z</time>
      </trkpt>
      <trkpt lat="47.28554" lon="5.89815">
        <ele>240</ele>
        <time>2024-08-03T09:17:56Z</time>
      </trkpt>
      <trkpt lat="47.28552" lon="5.89817">
        <ele>239.8</ele>
        <time>2024-08-03T09:17:57Z</time>
      </trkpt>
      <trkpt lat="47.2855" lon="5.89819">
        <ele>240</ele>
        <time>2024-08-03T09:17:58Z</time>
      </trkpt>
      <trkpt lat="47.28548" lon="5.89822">
        <ele>240</ele>
        <time>2024-08-03T09:17:59Z</time>
      </trkpt>
      <trkpt lat="47.28545" lon="5.89824">
        <ele>239.8</ele>
        <time>2024-08-03T09:18:00Z</time>
      </trkpt>
      <trkpt lat="47.28542" lon="5.89827">
        <ele>239.8</ele>
        <time>2024-08-03T09:18:01Z</time>
      </trkpt>
      <trkpt lat="47.28539" lon="5.8983">
        <ele>240</ele>
        <time>2024-08-03T09:18:02Z</time>
      </trkpt>
      <trkpt lat="47.28537" lon="5.89832">
        <ele>240</ele>
        <time>2024-08-03T09:18:03Z</time>
      </trkpt>
      <trkpt lat="47.28534" lon="5.89834">
        <ele>240</ele>
        <time>2024-08-03T09:18:04Z</time>
      </trkpt>
      <trkpt lat="47.28532" lon="5.89837">
        <ele>240</ele>
        <time>2024-08-03T09:18:05Z</time>
      </trkpt>
      <trkpt lat="47.2853" lon="5.89839">
        <ele>239.8</ele>
        <time>2024-08-03T09:18:06Z</time>
      </trkpt>
      <trkpt lat="47.28527" lon="5.89843">
        <ele>239.8</ele>
        <time>2024-08-03T09:18:07Z</time>
      </trkpt>
      <trkpt lat="47.28525" lon="5.89846">
        <ele>239.8</ele>
        <time>2024-08-03T09:18:08Z</time>
      </trkpt>
      <trkpt lat="47.28522" lon="5.8985">
        <ele>240</ele>
        <time>2024-08-03T09:18:09Z</time>
      </trkpt>
      <trkpt lat="47.28519" lon="5.89854">
        <ele>239.8</ele>
        <time>2024-08-03T09:18:10Z</time>
      </trkpt>
      <trkpt lat="47.28515" lon="5.8986">
        <ele>240</ele>
        <time>2024-08-03T09:18:11Z</time>
      </trkpt>
      <trkpt lat="47.2851" lon="5.89865">
        <ele>240</ele>
        <time>2024-08-03T09:18:12Z</time>
      </trkpt>
      <trkpt lat="47.28505" lon="5.89871">
        <ele>239.8</ele>
        <time>2024-08-03T09:18:13Z</time>
      </trkpt>
      <trkpt lat="47.285" lon="5.89876">
        <ele>239.8</ele>
        <time>2024-08-03T09:18:14Z</time>
      </trkpt>
      <trkpt lat="47.28495" lon="5.89881">
        <ele>239.8</ele>
        <time>2024-08-03T09:18:15Z</time>
      </trkpt>
      <trkpt lat="47.2849" lon="5.89885">
        <ele>239.6</ele>
        <time>2024-08-03T09:18:16Z</time>
      </trkpt>
      <trkpt lat="47.28484" lon="5.89889">
        <ele>239.6</ele>
        <time>2024-08-03T09:18:17Z</time>
      </trkpt>
      <trkpt lat="47.28479" lon="5.89894">
        <ele>239.4</ele>
        <time>2024-08-03T09:18:18Z</time>
      </trkpt>
      <trkpt lat="47.28474" lon="5.89897">
        <ele>239.4</ele>
        <time>2024-08-03T09:18:19Z</time>
      </trkpt>
      <trkpt lat="47.28469" lon="5.89901">
        <ele>239.2</ele>
        <time>2024-08-03T09:18:20Z</time>
      </trkpt>
      <trkpt lat="47.28463" lon="5.89904">
        <ele>238.8</ele>
        <time>2024-08-03T09:18:21Z</time>
      </trkpt>
      <trkpt lat="47.28458" lon="5.89904">
        <ele>238.6</ele>
        <time>2024-08-03T09:18:22Z</time>
      </trkpt>
      <trkpt lat="47.28452" lon="5.89903">
        <ele>238.6</ele>
        <time>2024-08-03T09:18:23Z</time>
      </trkpt>
      <trkpt lat="47.28446" lon="5.89902">
        <ele>238.6</ele>
        <time>2024-08-03T09:18:24Z</time>
      </trkpt>
      <trkpt lat="47.28441" lon="5.899">
        <ele>238.4</ele>
        <time>2024-08-03T09:18:25Z</time>
      </trkpt>
      <trkpt lat="47.28435" lon="5.899">
        <ele>238.4</ele>
        <time>2024-08-03T09:18:26Z</time>
      </trkpt>
      <trkpt lat="47.2843" lon="5.899">
        <ele>238.4</ele>
        <time>2024-08-03T09:18:27Z</time>
      </trkpt>
      <trkpt lat="47.28425" lon="5.899">
        <ele>238.2</ele>
        <time>2024-08-03T09:18:28Z</time>
      </trkpt>
      <trkpt lat="47.2842" lon="5.89898">
        <ele>238.4</ele>
        <time>2024-08-03T09:18:29Z</time>
      </trkpt>
      <trkpt lat="47.28416" lon="5.89897">
        <ele>238.2</ele>
        <time>2024-08-03T09:18:30Z</time>
      </trkpt>
      <trkpt lat="47.28411" lon="5.89896">
        <ele>238.2</ele>
        <time>2024-08-03T09:18:31Z</time>
      </trkpt>
      <trkpt lat="47.28406" lon="5.89895">
        <ele>238.2</ele>
        <time>2024-08-03T09:18:32Z</time>
      </trkpt>
      <trkpt lat="47.28402" lon="5.89893">
        <ele>238.4</ele>
        <time>2024-08-03T09:18:33Z</time>
      </trkpt>
      <trkpt lat="47.28398" lon="5.89891">
        <ele>238.2</ele>
        <time>2024-08-03T09:18:34Z</time>
      </trkpt>
      <trkpt lat="47.28394" lon="5.8989">
        <ele>238.4</ele>
        <time>2024-08-03T09:18:35Z</time>
      </trkpt>
      <trkpt lat="47.2839" lon="5.89887">
        <ele>238.4</ele>
        <time>2024-08-03T09:18:36Z</time>
      </trkpt>
      <trkpt lat="47.28387" lon="5.89885">
        <ele>238.4</ele>
        <time>2024-08-03T09:18:37Z</time>
      </trkpt>
      <trkpt lat="47.28383" lon="5.89882">
        <ele>238.6</ele>
        <time>2024-08-03T09:18:38Z</time>
      </trkpt>
      <trkpt lat="47.2838" lon="5.89879">
        <ele>238.8</ele>
        <time>2024-08-03T09:18:39Z</time>
      </trkpt>
      <trkpt lat="47.28377" lon="5.89876">
        <ele>239.2</ele>
        <time>2024-08-03T09:18:40Z</time>
      </trkpt>
      <trkpt lat="47.28374" lon="5.89872">
        <ele>239.2</ele>
        <time>2024-08-03T09:18:41Z</time>
      </trkpt>
      <trkpt lat="47.28372" lon="5.89869">
        <ele>239.4</ele>
        <time>2024-08-03T09:18:42Z</time>
      </trkpt>
      <trkpt lat="47.28369" lon="5.89865">
        <ele>239.6</ele>
        <time>2024-08-03T09:18:43Z</time>
      </trkpt>
      <trkpt lat="47.28366" lon="5.89861">
        <ele>240</ele>
        <time>2024-08-03T09:18:44Z</time>
      </trkpt>
      <trkpt lat="47.28364" lon="5.89858">
        <ele>240</ele>
        <time>2024-08-03T09:18:45Z</time>
      </trkpt>
      <trkpt lat="47.28361" lon="5.89854">
        <ele>240</ele>
        <time>2024-08-03T09:18:46Z</time>
      </trkpt>
      <trkpt lat="47.28359" lon="5.8985">
        <ele>240.4</ele>
        <time>2024-08-03T09:18:47Z</time>
      </trkpt>
      <trkpt lat="47.28357" lon="5.89847">
        <ele>240.4</ele>
        <time>2024-08-03T09:18:48Z</time>
      </trkpt>
      <trkpt lat="47.28354" lon="5.89843">
        <ele>240.4</ele>
        <time>2024-08-03T09:18:49Z</time>
      </trkpt>
      <trkpt lat="47.28352" lon="5.89839">
        <ele>240.6</ele>
        <time>2024-08-03T09:18:50Z</time>
      </trkpt>
      <trkpt lat="47.2835" lon="5.89835">
        <ele>241</ele>
        <time>2024-08-03T09:18:51Z</time>
      </trkpt>
      <trkpt lat="47.28348" lon="5.89831">
        <ele>241</ele>
        <time>2024-08-03T09:18:52Z</time>
      </trkpt>
      <trkpt lat="47.28347" lon="5.89826">
        <ele>241.4</ele>
        <time>2024-08-03T09:18:53Z</time>
      </trkpt>
      <trkpt lat="47.28346" lon="5.89822">
        <ele>241.6</ele>
        <time>2024-08-03T09:18:54Z</time>
      </trkpt>
      <trkpt lat="47.28344" lon="5.89817">
        <ele>242</ele>
        <time>2024-08-03T09:18:55Z</time>
      </trkpt>
      <trkpt lat="47.28343" lon="5.89812">
        <ele>242.2</ele>
        <time>2024-08-03T09:18:56Z</time>
      </trkpt>
      <trkpt lat="47.28341" lon="5.89808">
        <ele>242.4</ele>
        <time>2024-08-03T09:18:57Z</time>
      </trkpt>
      <trkpt lat="47.28338" lon="5.89804">
        <ele>242.4</ele>
        <time>2024-08-03T09:18:58Z</time>
      </trkpt>
      <trkpt lat="47.28337" lon="5.898">
        <ele>242.6</ele>
        <time>2024-08-03T09:18:59Z</time>
      </trkpt>
      <trkpt lat="47.28333" lon="5.89795">
        <ele>242.8</ele>
        <time>2024-08-03T09:19:00Z</time>
      </trkpt>
      <trkpt lat="47.28331" lon="5.89791">
        <ele>242.8</ele>
        <time>2024-08-03T09:19:01Z</time>
      </trkpt>
      <trkpt lat="47.28327" lon="5.89789">
        <ele>243.4</ele>
        <time>2024-08-03T09:19:02Z</time>
      </trkpt>
      <trkpt lat="47.28325" lon="5.89786">
        <ele>243.6</ele>
        <time>2024-08-03T09:19:03Z</time>
      </trkpt>
      <trkpt lat="47.28323" lon="5.89782">
        <ele>243.8</ele>
        <time>2024-08-03T09:19:04Z</time>
      </trkpt>
      <trkpt lat="47.28321" lon="5.89778">
        <ele>244</ele>
        <time>2024-08-03T09:19:05Z</time>
      </trkpt>
      <trkpt lat="47.2832" lon="5.89774">
        <ele>244.2</ele>
        <time>2024-08-03T09:19:06Z</time>
      </trkpt>
      <trkpt lat="47.28318" lon="5.89769">
        <ele>244.2</ele>
        <time>2024-08-03T09:19:07Z</time>
      </trkpt>
      <trkpt lat="47.28316" lon="5.89765">
        <ele>244.2</ele>
        <time>2024-08-03T09:19:08Z</time>
      </trkpt>
      <trkpt lat="47.28313" lon="5.89761">
        <ele>244.2</ele>
        <time>2024-08-03T09:19:09Z</time>
      </trkpt>
      <trkpt lat="47.28311" lon="5.89756">
        <ele>244.6</ele>
        <time>2024-08-03T09:19:10Z</time>
      </trkpt>
      <trkpt lat="47.28308" lon="5.89751">
        <ele>244.8</ele>
        <time>2024-08-03T09:19:11Z</time>
      </trkpt>
      <trkpt lat="47.28305" lon="5.89748">
        <ele>244.8</ele>
        <time>2024-08-03T09:19:12Z</time>
      </trkpt>
      <trkpt lat="47.28302" lon="5.89743">
        <ele>244.8</ele>
        <time>2024-08-03T09:19:13Z</time>
      </trkpt>
      <trkpt lat="47.28299" lon="5.89739">
        <ele>245</ele>
        <time>2024-08-03T09:19:14Z</time>
      </trkpt>
      <trkpt lat="47.28297" lon="5.89735">
        <ele>245</ele>
        <time>2024-08-03T09:19:15Z</time>
      </trkpt>
      <trkpt lat="47.28295" lon="5.89731">
        <ele>245.2</ele>
        <time>2024-08-03T09:19:16Z</time>
      </trkpt>
      <trkpt lat="47.28292" lon="5.89727">
        <ele>245</ele>
        <time>2024-08-03T09:19:17Z</time>
      </trkpt>
      <trkpt lat="47.2829" lon="5.89723">
        <ele>245.4</ele>
        <time>2024-08-03T09:19:18Z</time>
      </trkpt>
      <trkpt lat="47.28288" lon="5.89719">
        <ele>245.6</ele>
        <time>2024-08-03T09:19:19Z</time>
      </trkpt>
      <trkpt lat="47.28286" lon="5.89715">
        <ele>245.8</ele>
        <time>2024-08-03T09:19:20Z</time>
      </trkpt>
      <trkpt lat="47.28283" lon="5.89711">
        <ele>245.8</ele>
        <time>2024-08-03T09:19:21Z</time>
      </trkpt>
      <trkpt lat="47.28281" lon="5.89708">
        <ele>246</ele>
        <time>2024-08-03T09:19:22Z</time>
      </trkpt>
      <trkpt lat="47.28279" lon="5.89703">
        <ele>246</ele>
        <time>2024-08-03T09:19:23Z</time>
      </trkpt>
      <trkpt lat="47.28277" lon="5.89699">
        <ele>246.2</ele>
        <time>2024-08-03T09:19:24Z</time>
      </trkpt>
      <trkpt lat="47.28275" lon="5.89696">
        <ele>246.4</ele>
        <time>2024-08-03T09:19:25Z</time>
      </trkpt>
      <trkpt lat="47.28273" lon="5.89692">
        <ele>246.6</ele>
        <time>2024-08-03T09:19:26Z</time>
      </trkpt>
      <trkpt lat="47.28271" lon="5.89689">
        <ele>247</ele>
        <time>2024-08-03T09:19:27Z</time>
      </trkpt>
      <trkpt lat="47.28269" lon="5.89686">
        <ele>247</ele>
        <time>2024-08-03T09:19:28Z</time>
      </trkpt>
      <trkpt lat="47.28267" lon="5.89682">
        <ele>247</ele>
        <time>2024-08-03T09:19:29Z</time>
      </trkpt>
      <trkpt lat="47.28264" lon="5.89678">
        <ele>247.4</ele>
        <time>2024-08-03T09:19:30Z</time>
      </trkpt>
      <trkpt lat="47.28262" lon="5.89674">
        <ele>247.4</ele>
        <time>2024-08-03T09:19:31Z</time>
      </trkpt>
      <trkpt lat="47.2826" lon="5.89669">
        <ele>247.8</ele>
        <time>2024-08-03T09:19:32Z</time>
      </trkpt>
      <trkpt lat="47.28258" lon="5.89665">
        <ele>247.8</ele>
        <time>2024-08-03T09:19:33Z</time>
      </trkpt>
      <trkpt lat="47.28256" lon="5.8966">
        <ele>248.2</ele>
        <time>2024-08-03T09:19:34Z</time>
      </trkpt>
      <trkpt lat="47.28254" lon="5.89656">
        <ele>248.2</ele>
        <time>2024-08-03T09:19:35Z</time>
      </trkpt>
      <trkpt lat="47.28252" lon="5.89652">
        <ele>248.4</ele>
        <time>2024-08-03T09:19:36Z</time>
      </trkpt>
      <trkpt lat="47.28249" lon="5.89648">
        <ele>248.6</ele>
        <time>2024-08-03T09:19:37Z</time>
      </trkpt>
      <trkpt lat="47.28247" lon="5.89644">
        <ele>248.8</ele>
        <time>2024-08-03T09:19:38Z</time>
      </trkpt>
      <trkpt lat="47.28245" lon="5.8964">
        <ele>249</ele>
        <time>2024-08-03T09:19:39Z</time>
      </trkpt>
      <trkpt lat="47.28243" lon="5.89636">
        <ele>249.4</ele>
        <time>2024-08-03T09:19:40Z</time>
      </trkpt>
      <trkpt lat="47.28241" lon="5.89632">
        <ele>249.6</ele>
        <time>2024-08-03T09:19:41Z</time>
      </trkpt>
      <trkpt lat="47.28239" lon="5.89628">
        <ele>249.6</ele>
        <time>2024-08-03T09:19:42Z</time>
      </trkpt>
      <trkpt lat="47.28238" lon="5.89624">
        <ele>249.8</ele>
        <time>2024-08-03T09:19:43Z</time>
      </trkpt>
      <trkpt lat="47.28236" lon="5.89621">
        <ele>249.8</ele>
        <time>2024-08-03T09:19:44Z</time>
      </trkpt>
      <trkpt lat="47.28234" lon="5.89617">
        <ele>250</ele>
        <time>2024-08-03T09:19:45Z</time>
      </trkpt>
      <trkpt lat="47.28232" lon="5.89613">
        <ele>250.4</ele>
        <time>2024-08-03T09:19:46Z</time>
      </trkpt>
      <trkpt lat="47.2823" lon="5.8961">
        <ele>250.4</ele>
        <time>2024-08-03T09:19:47Z</time>
      </trkpt>
      <trkpt lat="47.28228" lon="5.89606">
        <ele>250.6</ele>
        <time>2024-08-03T09:19:48Z</time>
      </trkpt>
      <trkpt lat="47.28226" lon="5.89603">
        <ele>250.8</ele>
        <time>2024-08-03T09:19:49Z</time>
      </trkpt>
      <trkpt lat="47.28223" lon="5.89599">
        <ele>251</ele>
        <time>2024-08-03T09:19:50Z</time>
      </trkpt>
      <trkpt lat="47.28221" lon="5.89595">
        <ele>251</ele>
        <time>2024-08-03T09:19:51Z</time>
      </trkpt>
      <trkpt lat="47.28219" lon="5.89591">
        <ele>251.2</ele>
        <time>2024-08-03T09:19:52Z</time>
      </trkpt>
      <trkpt lat="47.28218" lon="5.89586">
        <ele>251.4</ele>
        <time>2024-08-03T09:19:53Z</time>
      </trkpt>
      <trkpt lat="47.28216" lon="5.89582">
        <ele>251.8</ele>
        <time>2024-08-03T09:19:54Z</time>
      </trkpt>
      <trkpt lat="47.28214" lon="5.89578">
        <ele>252</ele>
        <time>2024-08-03T09:19:55Z</time>
      </trkpt>
      <trkpt lat="47.28212" lon="5.89574">
        <ele>252.2</ele>
        <time>2024-08-03T09:19:56Z</time>
      </trkpt>
      <trkpt lat="47.2821" lon="5.8957">
        <ele>252.4</ele>
        <time>2024-08-03T09:19:57Z</time>
      </trkpt>
      <trkpt lat="47.28208" lon="5.89566">
        <ele>252.6</ele>
        <time>2024-08-03T09:19:58Z</time>
      </trkpt>
      <trkpt lat="47.28206" lon="5.89563">
        <ele>253</ele>
        <time>2024-08-03T09:19:59Z</time>
      </trkpt>
      <trkpt lat="47.28204" lon="5.89559">
        <ele>253.2</ele>
        <time>2024-08-03T09:20:00Z</time>
      </trkpt>
      <trkpt lat="47.28203" lon="5.89555">
        <ele>253.6</ele>
        <time>2024-08-03T09:20:01Z</time>
      </trkpt>
      <trkpt lat="47.28201" lon="5.89551">
        <ele>253.6</ele>
        <time>2024-08-03T09:20:02Z</time>
      </trkpt>
      <trkpt lat="47.28199" lon="5.89546">
        <ele>254</ele>
        <time>2024-08-03T09:20:03Z</time>
      </trkpt>
      <trkpt lat="47.28197" lon="5.89543">
        <ele>254.2</ele>
        <time>2024-08-03T09:20:04Z</time>
      </trkpt>
      <trkpt lat="47.28195" lon="5.89539">
        <ele>254.6</ele>
        <time>2024-08-03T09:20:05Z</time>
      </trkpt>
      <trkpt lat="47.28194" lon="5.89536">
        <ele>254.6</ele>
        <time>2024-08-03T09:20:06Z</time>
      </trkpt>
      <trkpt lat="47.28193" lon="5.89532">
        <ele>255</ele>
        <time>2024-08-03T09:20:07Z</time>
      </trkpt>
      <trkpt lat="47.28192" lon="5.89528">
        <ele>255.2</ele>
        <time>2024-08-03T09:20:08Z</time>
      </trkpt>
      <trkpt lat="47.28191" lon="5.89524">
        <ele>255.4</ele>
        <time>2024-08-03T09:20:09Z</time>
      </trkpt>
      <trkpt lat="47.2819" lon="5.89521">
        <ele>255.8</ele>
        <time>2024-08-03T09:20:10Z</time>
      </trkpt>
      <trkpt lat="47.28189" lon="5.89517">
        <ele>256</ele>
        <time>2024-08-03T09:20:11Z</time>
      </trkpt>
      <trkpt lat="47.28188" lon="5.89513">
        <ele>256</ele>
        <time>2024-08-03T09:20:12Z</time>
      </trkpt>
      <trkpt lat="47.28187" lon="5.8951">
        <ele>256</ele>
        <time>2024-08-03T09:20:13Z</time>
      </trkpt>
      <trkpt lat="47.28186" lon="5.89507">
        <ele>256</ele>
        <time>2024-08-03T09:20:14Z</time>
      </trkpt>
      <trkpt lat="47.28184" lon="5.89505">
        <ele>256.2</ele>
        <time>2024-08-03T09:20:15Z</time>
      </trkpt>
      <trkpt lat="47.28183" lon="5.89503">
        <ele>256.4</ele>
        <time>2024-08-03T09:20:16Z</time>
      </trkpt>
      <trkpt lat="47.28182" lon="5.895">
        <ele>256.4</ele>
        <time>2024-08-03T09:20:17Z</time>
      </trkpt>
      <trkpt lat="47.28181" lon="5.89498">
        <ele>256.6</ele>
        <time>2024-08-03T09:20:18Z</time>
      </trkpt>
      <trkpt lat="47.2818" lon="5.89496">
        <ele>256.6</ele>
        <time>2024-08-03T09:20:19Z</time>
      </trkpt>
      <trkpt lat="47.28179" lon="5.89493">
        <ele>256.8</ele>
        <time>2024-08-03T09:20:20Z</time>
      </trkpt>
      <trkpt lat="47.28178" lon="5.89491">
        <ele>256.8</ele>
        <time>2024-08-03T09:20:21Z</time>
      </trkpt>
      <trkpt lat="47.28176" lon="5.89488">
        <ele>257</ele>
        <time>2024-08-03T09:20:22Z</time>
      </trkpt>
      <trkpt lat="47.28174" lon="5.89486">
        <ele>257</ele>
        <time>2024-08-03T09:20:23Z</time>
      </trkpt>
      <trkpt lat="47.28173" lon="5.89483">
        <ele>257.2</ele>
        <time>2024-08-03T09:20:24Z</time>
      </trkpt>
      <trkpt lat="47.28171" lon="5.89481">
        <ele>257.2</ele>
        <time>2024-08-03T09:20:25Z</time>
      </trkpt>
      <trkpt lat="47.2817" lon="5.89479">
        <ele>257.2</ele>
        <time>2024-08-03T09:20:26Z</time>
      </trkpt>
      <trkpt lat="47.28169" lon="5.89476">
        <ele>257.4</ele>
        <time>2024-08-03T09:20:27Z</time>
      </trkpt>
      <trkpt lat="47.28168" lon="5.89473">
        <ele>257.6</ele>
        <time>2024-08-03T09:20:28Z</time>
      </trkpt>
      <trkpt lat="47.28166" lon="5.8947">
        <ele>257.4</ele>
        <time>2024-08-03T09:20:29Z</time>
      </trkpt>
      <trkpt lat="47.28165" lon="5.89467">
        <ele>257.4</ele>
        <time>2024-08-03T09:20:30Z</time>
      </trkpt>
      <trkpt lat="47.28163" lon="5.89464">
        <ele>257.4</ele>
        <time>2024-08-03T09:20:31Z</time>
      </trkpt>
      <trkpt lat="47.28161" lon="5.89461">
        <ele>257.6</ele>
        <time>2024-08-03T09:20:32Z</time>
      </trkpt>
      <trkpt lat="47.28159" lon="5.89458">
        <ele>257.6</ele>
        <time>2024-08-03T09:20:33Z</time>
      </trkpt>
      <trkpt lat="47.28154" lon="5.89452">
        <ele>257.8</ele>
        <time>2024-08-03T09:20:34Z</time>
      </trkpt>
      <trkpt lat="47.28151" lon="5.89447">
        <ele>257.8</ele>
        <time>2024-08-03T09:20:35Z</time>
      </trkpt>
      <trkpt lat="47.2815" lon="5.89443">
        <ele>257.6</ele>
        <time>2024-08-03T09:20:36Z</time>
      </trkpt>
      <trkpt lat="47.28148" lon="5.89439">
        <ele>257.8</ele>
        <time>2024-08-03T09:20:37Z</time>
      </trkpt>
      <trkpt lat="47.28145" lon="5.89436">
        <ele>257.6</ele>
        <time>2024-08-03T09:20:38Z</time>
      </trkpt>
      <trkpt lat="47.28143" lon="5.8943">
        <ele>257.8</ele>
        <time>2024-08-03T09:20:39Z</time>
      </trkpt>
      <trkpt lat="47.28141" lon="5.89427">
        <ele>257.8</ele>
        <time>2024-08-03T09:20:40Z</time>
      </trkpt>
      <trkpt lat="47.2814" lon="5.89423">
        <ele>258</ele>
        <time>2024-08-03T09:20:41Z</time>
      </trkpt>
      <trkpt lat="47.28138" lon="5.8942">
        <ele>257.8</ele>
        <time>2024-08-03T09:20:42Z</time>
      </trkpt>
      <trkpt lat="47.28137" lon="5.89416">
        <ele>258</ele>
        <time>2024-08-03T09:20:43Z</time>
      </trkpt>
      <trkpt lat="47.28135" lon="5.89412">
        <ele>258</ele>
        <time>2024-08-03T09:20:44Z</time>
      </trkpt>
      <trkpt lat="47.28133" lon="5.89409">
        <ele>258</ele>
        <time>2024-08-03T09:20:45Z</time>
      </trkpt>
      <trkpt lat="47.28131" lon="5.89405">
        <ele>258.2</ele>
        <time>2024-08-03T09:20:46Z</time>
      </trkpt>
      <trkpt lat="47.28129" lon="5.89401">
        <ele>258.2</ele>
        <time>2024-08-03T09:20:47Z</time>
      </trkpt>
      <trkpt lat="47.28125" lon="5.89396">
        <ele>258.2</ele>
        <time>2024-08-03T09:20:48Z</time>
      </trkpt>
      <trkpt lat="47.28123" lon="5.89392">
        <ele>258.4</ele>
        <time>2024-08-03T09:20:49Z</time>
      </trkpt>
      <trkpt lat="47.28121" lon="5.89388">
        <ele>258.4</ele>
        <time>2024-08-03T09:20:50Z</time>
      </trkpt>
      <trkpt lat="47.28119" lon="5.89384">
        <ele>258.6</ele>
        <time>2024-08-03T09:20:51Z</time>
      </trkpt>
      <trkpt lat="47.28115" lon="5.89378">
        <ele>258.8</ele>
        <time>2024-08-03T09:20:52Z</time>
      </trkpt>
      <trkpt lat="47.28108" lon="5.89371">
        <ele>259</ele>
        <time>2024-08-03T09:20:53Z</time>
      </trkpt>
      <trkpt lat="47.28106" lon="5.89365">
        <ele>259</ele>
        <time>2024-08-03T09:20:54Z</time>
      </trkpt>
      <trkpt lat="47.28101" lon="5.8936">
        <ele>259</ele>
        <time>2024-08-03T09:20:55Z</time>
      </trkpt>
      <trkpt lat="47.28098" lon="5.89356">
        <ele>259.2</ele>
        <time>2024-08-03T09:20:56Z</time>
      </trkpt>
      <trkpt lat="47.28096" lon="5.89351">
        <ele>259.2</ele>
        <time>2024-08-03T09:20:57Z</time>
      </trkpt>
      <trkpt lat="47.28094" lon="5.89345">
        <ele>259.4</ele>
        <time>2024-08-03T09:20:58Z</time>
      </trkpt>
      <trkpt lat="47.28092" lon="5.89339">
        <ele>259.6</ele>
        <time>2024-08-03T09:20:59Z</time>
      </trkpt>
      <trkpt lat="47.28088" lon="5.89334">
        <ele>259.4</ele>
        <time>2024-08-03T09:21:00Z</time>
      </trkpt>
      <trkpt lat="47.28084" lon="5.89328">
        <ele>259.6</ele>
        <time>2024-08-03T09:21:01Z</time>
      </trkpt>
      <trkpt lat="47.28079" lon="5.89322">
        <ele>259.8</ele>
        <time>2024-08-03T09:21:02Z</time>
      </trkpt>
      <trkpt lat="47.28076" lon="5.89318">
        <ele>260</ele>
        <time>2024-08-03T09:21:03Z</time>
      </trkpt>
      <trkpt lat="47.28074" lon="5.89314">
        <ele>259.8</ele>
        <time>2024-08-03T09:21:04Z</time>
      </trkpt>
      <trkpt lat="47.28072" lon="5.8931">
        <ele>260</ele>
        <time>2024-08-03T09:21:05Z</time>
      </trkpt>
      <trkpt lat="47.28071" lon="5.89307">
        <ele>260</ele>
        <time>2024-08-03T09:21:06Z</time>
      </trkpt>
      <trkpt lat="47.28069" lon="5.89302">
        <ele>260.2</ele>
        <time>2024-08-03T09:21:07Z</time>
      </trkpt>
      <trkpt lat="47.28066" lon="5.89299">
        <ele>260.4</ele>
        <time>2024-08-03T09:21:08Z</time>
      </trkpt>
      <trkpt lat="47.28065" lon="5.89297">
        <ele>260.2</ele>
        <time>2024-08-03T09:21:09Z</time>
      </trkpt>
      <trkpt lat="47.28065" lon="5.89294">
        <ele>260.6</ele>
        <time>2024-08-03T09:21:10Z</time>
      </trkpt>
      <trkpt lat="47.28064" lon="5.89292">
        <ele>260.8</ele>
        <time>2024-08-03T09:21:11Z</time>
      </trkpt>
      <trkpt lat="47.28065" lon="5.8929">
        <ele>260.8</ele>
        <time>2024-08-03T09:21:12Z</time>
      </trkpt>
      <trkpt lat="47.28064" lon="5.89286">
        <ele>260.8</ele>
        <time>2024-08-03T09:21:13Z</time>
      </trkpt>
      <trkpt lat="47.28065" lon="5.89283">
        <ele>261</ele>
        <time>2024-08-03T09:21:14Z</time>
      </trkpt>
      <trkpt lat="47.28065" lon="5.89282">
        <ele>261</ele>
        <time>2024-08-03T09:21:15Z</time>
      </trkpt>
      <trkpt lat="47.28066" lon="5.8928">
        <ele>261</ele>
        <time>2024-08-03T09:21:16Z</time>
      </trkpt>
      <trkpt lat="47.28066" lon="5.89278">
        <ele>261</ele>
        <time>2024-08-03T09:21:17Z</time>
      </trkpt>
      <trkpt lat="47.28066" lon="5.89276">
        <ele>261</ele>
        <time>2024-08-03T09:21:18Z</time>
      </trkpt>
      <trkpt lat="47.28066" lon="5.89274">
        <ele>261</ele>
        <time>2024-08-03T09:21:19Z</time>
      </trkpt>
      <trkpt lat="47.28066" lon="5.89272">
        <ele>261</ele>
        <time>2024-08-03T09:21:20Z</time>
      </trkpt>
      <trkpt lat="47.28065" lon="5.89268">
        <ele>261</ele>
        <time>2024-08-03T09:21:21Z</time>
      </trkpt>
      <trkpt lat="47.28064" lon="5.89265">
        <ele>261</ele>
        <time>2024-08-03T09:21:22Z</time>
      </trkpt>
      <trkpt lat="47.28063" lon="5.89261">
        <ele>260.8</ele>
        <time>2024-08-03T09:21:23Z</time>
      </trkpt>
      <trkpt lat="47.28062" lon="5.89256">
        <ele>260.6</ele>
        <time>2024-08-03T09:21:24Z</time>
      </trkpt>
      <trkpt lat="47.28061" lon="5.89252">
        <ele>260.4</ele>
        <time>2024-08-03T09:21:25Z</time>
      </trkpt>
      <trkpt lat="47.2806" lon="5.89247">
        <ele>260.4</ele>
        <time>2024-08-03T09:21:26Z</time>
      </trkpt>
      <trkpt lat="47.28059" lon="5.89243">
        <ele>260</ele>
        <time>2024-08-03T09:21:27Z</time>
      </trkpt>
      <trkpt lat="47.28058" lon="5.89237">
        <ele>260</ele>
        <time>2024-08-03T09:21:28Z</time>
      </trkpt>
      <trkpt lat="47.28058" lon="5.89233">
        <ele>260</ele>
        <time>2024-08-03T09:21:29Z</time>
      </trkpt>
      <trkpt lat="47.28057" lon="5.89228">
        <ele>259.8</ele>
        <time>2024-08-03T09:21:30Z</time>
      </trkpt>
      <trkpt lat="47.28057" lon="5.89223">
        <ele>259.6</ele>
        <time>2024-08-03T09:21:31Z</time>
      </trkpt>
      <trkpt lat="47.28056" lon="5.89219">
        <ele>259.6</ele>
        <time>2024-08-03T09:21:32Z</time>
      </trkpt>
      <trkpt lat="47.28056" lon="5.89215">
        <ele>259.8</ele>
        <time>2024-08-03T09:21:33Z</time>
      </trkpt>
      <trkpt lat="47.28056" lon="5.89212">
        <ele>259.6</ele>
        <time>2024-08-03T09:21:34Z</time>
      </trkpt>
      <trkpt lat="47.28056" lon="5.89209">
        <ele>259.6</ele>
        <time>2024-08-03T09:21:35Z</time>
      </trkpt>
      <trkpt lat="47.28056" lon="5.89205">
        <ele>259.6</ele>
        <time>2024-08-03T09:21:36Z</time>
      </trkpt>
      <trkpt lat="47.28057" lon="5.89202">
        <ele>259.6</ele>
        <time>2024-08-03T09:21:37Z</time>
      </trkpt>
      <trkpt lat="47.28058" lon="5.89199">
        <ele>259.6</ele>
        <time>2024-08-03T09:21:38Z</time>
      </trkpt>
      <trkpt lat="47.2806" lon="5.89196">
        <ele>259.6</ele>
        <time>2024-08-03T09:21:39Z</time>
      </trkpt>
      <trkpt lat="47.28061" lon="5.89193">
        <ele>259.6</ele>
        <time>2024-08-03T09:21:40Z</time>
      </trkpt>
      <trkpt lat="47.28062" lon="5.89189">
        <ele>259.6</ele>
        <time>2024-08-03T09:21:41Z</time>
      </trkpt>
      <trkpt lat="47.28064" lon="5.89186">
        <ele>259.6</ele>
        <time>2024-08-03T09:21:42Z</time>
      </trkpt>
      <trkpt lat="47.28065" lon="5.89184">
        <ele>259.6</ele>
        <time>2024-08-03T09:21:43Z</time>
      </trkpt>
      <trkpt lat="47.28066" lon="5.89181">
        <ele>259.6</ele>
        <time>2024-08-03T09:21:44Z</time>
      </trkpt>
      <trkpt lat="47.28067" lon="5.89179">
        <ele>259.8</ele>
        <time>2024-08-03T09:21:45Z</time>
      </trkpt>
      <trkpt lat="47.28069" lon="5.89175">
        <ele>260</ele>
        <time>2024-08-03T09:21:46Z</time>
      </trkpt>
      <trkpt lat="47.28071" lon="5.89171">
        <ele>260.2</ele>
        <time>2024-08-03T09:21:47Z</time>
      </trkpt>
      <trkpt lat="47.28072" lon="5.89167">
        <ele>260.2</ele>
        <time>2024-08-03T09:21:48Z</time>
      </trkpt>
      <trkpt lat="47.28073" lon="5.89165">
        <ele>260.2</ele>
        <time>2024-08-03T09:21:49Z</time>
      </trkpt>
      <trkpt lat="47.28073" lon="5.89162">
        <ele>260.6</ele>
        <time>2024-08-03T09:21:50Z</time>
      </trkpt>
      <trkpt lat="47.28074" lon="5.89159">
        <ele>260.6</ele>
        <time>2024-08-03T09:21:51Z</time>
      </trkpt>
      <trkpt lat="47.28075" lon="5.89156">
        <ele>261</ele>
        <time>2024-08-03T09:21:52Z</time>
      </trkpt>
      <trkpt lat="47.28077" lon="5.89153">
        <ele>261.2</ele>
        <time>2024-08-03T09:21:53Z</time>
      </trkpt>
      <trkpt lat="47.28078" lon="5.89151">
        <ele>261.4</ele>
        <time>2024-08-03T09:21:54Z</time>
      </trkpt>
      <trkpt lat="47.28078" lon="5.89148">
        <ele>261.6</ele>
        <time>2024-08-03T09:21:55Z</time>
      </trkpt>
      <trkpt lat="47.28079" lon="5.89145">
        <ele>261.6</ele>
        <time>2024-08-03T09:21:56Z</time>
      </trkpt>
      <trkpt lat="47.2808" lon="5.89143">
        <ele>261.8</ele>
        <time>2024-08-03T09:21:57Z</time>
      </trkpt>
      <trkpt lat="47.28082" lon="5.8914">
        <ele>262</ele>
        <time>2024-08-03T09:21:58Z</time>
      </trkpt>
      <trkpt lat="47.28083" lon="5.89138">
        <ele>262.2</ele>
        <time>2024-08-03T09:21:59Z</time>
      </trkpt>
      <trkpt lat="47.28084" lon="5.89135">
        <ele>262.4</ele>
        <time>2024-08-03T09:22:00Z</time>
      </trkpt>
      <trkpt lat="47.28086" lon="5.89133">
        <ele>262.6</ele>
        <time>2024-08-03T09:22:01Z</time>
      </trkpt>
      <trkpt lat="47.28088" lon="5.8913">
        <ele>262.6</ele>
        <time>2024-08-03T09:22:02Z</time>
      </trkpt>
      <trkpt lat="47.2809" lon="5.89128">
        <ele>262.8</ele>
        <time>2024-08-03T09:22:03Z</time>
      </trkpt>
      <trkpt lat="47.28092" lon="5.89125">
        <ele>262.8</ele>
        <time>2024-08-03T09:22:04Z</time>
      </trkpt>
      <trkpt lat="47.28095" lon="5.89121">
        <ele>262.8</ele>
        <time>2024-08-03T09:22:05Z</time>
      </trkpt>
      <trkpt lat="47.28098" lon="5.89118">
        <ele>263</ele>
        <time>2024-08-03T09:22:06Z</time>
      </trkpt>
      <trkpt lat="47.281" lon="5.89115">
        <ele>263.2</ele>
        <time>2024-08-03T09:22:07Z</time>
      </trkpt>
      <trkpt lat="47.28102" lon="5.89112">
        <ele>263.6</ele>
        <time>2024-08-03T09:22:08Z</time>
      </trkpt>
      <trkpt lat="47.28105" lon="5.89108">
        <ele>263.8</ele>
        <time>2024-08-03T09:22:09Z</time>
      </trkpt>
      <trkpt lat="47.28106" lon="5.89105">
        <ele>264</ele>
        <time>2024-08-03T09:22:10Z</time>
      </trkpt>
      <trkpt lat="47.28108" lon="5.89102">
        <ele>264.2</ele>
        <time>2024-08-03T09:22:11Z</time>
      </trkpt>
      <trkpt lat="47.2811" lon="5.89099">
        <ele>264.4</ele>
        <time>2024-08-03T09:22:12Z</time>
      </trkpt>
      <trkpt lat="47.28111" lon="5.89096">
        <ele>264.6</ele>
        <time>2024-08-03T09:22:13Z</time>
      </trkpt>
      <trkpt lat="47.28112" lon="5.89093">
        <ele>264.8</ele>
        <time>2024-08-03T09:22:14Z</time>
      </trkpt>
      <trkpt lat="47.28113" lon="5.89091">
        <ele>265.2</ele>
        <time>2024-08-03T09:22:15Z</time>
      </trkpt>
      <trkpt lat="47.28115" lon="5.89088">
        <ele>265.2</ele>
        <time>2024-08-03T09:22:16Z</time>
      </trkpt>
      <trkpt lat="47.28116" lon="5.89085">
        <ele>265.4</ele>
        <time>2024-08-03T09:22:17Z</time>
      </trkpt>
      <trkpt lat="47.28118" lon="5.89082">
        <ele>265.8</ele>
        <time>2024-08-03T09:22:18Z</time>
      </trkpt>
      <trkpt lat="47.28119" lon="5.89079">
        <ele>266</ele>
        <time>2024-08-03T09:22:19Z</time>
      </trkpt>
      <trkpt lat="47.28121" lon="5.89077">
        <ele>266.2</ele>
        <time>2024-08-03T09:22:20Z</time>
      </trkpt>
      <trkpt lat="47.28123" lon="5.89075">
        <ele>266.2</ele>
        <time>2024-08-03T09:22:21Z</time>
      </trkpt>
      <trkpt lat="47.28124" lon="5.89072">
        <ele>266.2</ele>
        <time>2024-08-03T09:22:22Z</time>
      </trkpt>
      <trkpt lat="47.28126" lon="5.8907">
        <ele>266.2</ele>
        <time>2024-08-03T09:22:23Z</time>
      </trkpt>
      <trkpt lat="47.28131" lon="5.89064">
        <ele>266.2</ele>
        <time>2024-08-03T09:22:24Z</time>
      </trkpt>
      <trkpt lat="47.28134" lon="5.89061">
        <ele>266.2</ele>
        <time>2024-08-03T09:22:25Z</time>
      </trkpt>
      <trkpt lat="47.28136" lon="5.89057">
        <ele>266.2</ele>
        <time>2024-08-03T09:22:26Z</time>
      </trkpt>
      <trkpt lat="47.28139" lon="5.89053">
        <ele>266.2</ele>
        <time>2024-08-03T09:22:27Z</time>
      </trkpt>
      <trkpt lat="47.28142" lon="5.8905">
        <ele>266.2</ele>
        <time>2024-08-03T09:22:28Z</time>
      </trkpt>
      <trkpt lat="47.28145" lon="5.89047">
        <ele>266.2</ele>
        <time>2024-08-03T09:22:29Z</time>
      </trkpt>
      <trkpt lat="47.28148" lon="5.89044">
        <ele>266.2</ele>
        <time>2024-08-03T09:22:30Z</time>
      </trkpt>
      <trkpt lat="47.2815" lon="5.8904">
        <ele>266.2</ele>
        <time>2024-08-03T09:22:31Z</time>
      </trkpt>
      <trkpt lat="47.28152" lon="5.89037">
        <ele>266</ele>
        <time>2024-08-03T09:22:32Z</time>
      </trkpt>
      <trkpt lat="47.28154" lon="5.89033">
        <ele>266</ele>
        <time>2024-08-03T09:22:33Z</time>
      </trkpt>
      <trkpt lat="47.28157" lon="5.8903">
        <ele>265.8</ele>
        <time>2024-08-03T09:22:34Z</time>
      </trkpt>
      <trkpt lat="47.28159" lon="5.89027">
        <ele>266</ele>
        <time>2024-08-03T09:22:35Z</time>
      </trkpt>
      <trkpt lat="47.28161" lon="5.89024">
        <ele>265.6</ele>
        <time>2024-08-03T09:22:36Z</time>
      </trkpt>
      <trkpt lat="47.28165" lon="5.89019">
        <ele>265.6</ele>
        <time>2024-08-03T09:22:37Z</time>
      </trkpt>
      <trkpt lat="47.2817" lon="5.89014">
        <ele>265.2</ele>
        <time>2024-08-03T09:22:38Z</time>
      </trkpt>
      <trkpt lat="47.28175" lon="5.89006">
        <ele>265</ele>
        <time>2024-08-03T09:22:39Z</time>
      </trkpt>
      <trkpt lat="47.28177" lon="5.89">
        <ele>265</ele>
        <time>2024-08-03T09:22:40Z</time>
      </trkpt>
      <trkpt lat="47.28181" lon="5.88993">
        <ele>264.6</ele>
        <time>2024-08-03T09:22:41Z</time>
      </trkpt>
      <trkpt lat="47.28183" lon="5.88988">
        <ele>264.4</ele>
        <time>2024-08-03T09:22:42Z</time>
      </trkpt>
      <trkpt lat="47.28184" lon="5.88986">
        <ele>264.2</ele>
        <time>2024-08-03T09:22:43Z</time>
      </trkpt>
      <trkpt lat="47.28185" lon="5.88984">
        <ele>264</ele>
        <time>2024-08-03T09:22:44Z</time>
      </trkpt>
      <trkpt lat="47.28187" lon="5.88984">
        <ele>264</ele>
        <time>2024-08-03T09:22:45Z</time>
      </trkpt>
      <trkpt lat="47.28188" lon="5.88983">
        <ele>264</ele>
        <time>2024-08-03T09:22:46Z</time>
      </trkpt>
      <trkpt lat="47.2819" lon="5.88983">
        <ele>263.8</ele>
        <time>2024-08-03T09:22:47Z</time>
      </trkpt>
      <trkpt lat="47.28191" lon="5.88982">
        <ele>263.4</ele>
        <time>2024-08-03T09:22:48Z</time>
      </trkpt>
      <trkpt lat="47.28193" lon="5.88979">
        <ele>263.2</ele>
        <time>2024-08-03T09:22:49Z</time>
      </trkpt>
      <trkpt lat="47.28195" lon="5.88977">
        <ele>263</ele>
        <time>2024-08-03T09:22:50Z</time>
      </trkpt>
      <trkpt lat="47.28197" lon="5.88973">
        <ele>262.8</ele>
        <time>2024-08-03T09:22:51Z</time>
      </trkpt>
      <trkpt lat="47.282" lon="5.8897">
        <ele>262.8</ele>
        <time>2024-08-03T09:22:52Z</time>
      </trkpt>
      <trkpt lat="47.28202" lon="5.88965">
        <ele>262.6</ele>
        <time>2024-08-03T09:22:53Z</time>
      </trkpt>
      <trkpt lat="47.28205" lon="5.8896">
        <ele>262.6</ele>
        <time>2024-08-03T09:22:54Z</time>
      </trkpt>
      <trkpt lat="47.28209" lon="5.88955">
        <ele>262.4</ele>
        <time>2024-08-03T09:22:55Z</time>
      </trkpt>
      <trkpt lat="47.28213" lon="5.88948">
        <ele>262.2</ele>
        <time>2024-08-03T09:22:56Z</time>
      </trkpt>
      <trkpt lat="47.28218" lon="5.88942">
        <ele>262</ele>
        <time>2024-08-03T09:22:57Z</time>
      </trkpt>
      <trkpt lat="47.28223" lon="5.88935">
        <ele>261.6</ele>
        <time>2024-08-03T09:22:58Z</time>
      </trkpt>
      <trkpt lat="47.28229" lon="5.88927">
        <ele>261.4</ele>
        <time>2024-08-03T09:22:59Z</time>
      </trkpt>
      <trkpt lat="47.28233" lon="5.88918">
        <ele>261</ele>
        <time>2024-08-03T09:23:00Z</time>
      </trkpt>
      <trkpt lat="47.28238" lon="5.88911">
        <ele>260.8</ele>
        <time>2024-08-03T09:23:01Z</time>
      </trkpt>
      <trkpt lat="47.28243" lon="5.88906">
        <ele>260.2</ele>
        <time>2024-08-03T09:23:02Z</time>
      </trkpt>
      <trkpt lat="47.28247" lon="5.88901">
        <ele>259.8</ele>
        <time>2024-08-03T09:23:03Z</time>
      </trkpt>
      <trkpt lat="47.28251" lon="5.88896">
        <ele>259.4</ele>
        <time>2024-08-03T09:23:04Z</time>
      </trkpt>
      <trkpt lat="47.28255" lon="5.88892">
        <ele>259.2</ele>
        <time>2024-08-03T09:23:05Z</time>
      </trkpt>
      <trkpt lat="47.28259" lon="5.88887">
        <ele>259</ele>
        <time>2024-08-03T09:23:06Z</time>
      </trkpt>
      <trkpt lat="47.28262" lon="5.88883">
        <ele>259</ele>
        <time>2024-08-03T09:23:07Z</time>
      </trkpt>
      <trkpt lat="47.28265" lon="5.8888">
        <ele>259</ele>
        <time>2024-08-03T09:23:08Z</time>
      </trkpt>
      <trkpt lat="47.28268" lon="5.88876">
        <ele>259</ele>
        <time>2024-08-03T09:23:09Z</time>
      </trkpt>
      <trkpt lat="47.2827" lon="5.88873">
        <ele>259</ele>
        <time>2024-08-03T09:23:10Z</time>
      </trkpt>
      <trkpt lat="47.28272" lon="5.88871">
        <ele>258.8</ele>
        <time>2024-08-03T09:23:11Z</time>
      </trkpt>
      <trkpt lat="47.28273" lon="5.88868">
        <ele>259</ele>
        <time>2024-08-03T09:23:12Z</time>
      </trkpt>
      <trkpt lat="47.28275" lon="5.88865">
        <ele>259</ele>
        <time>2024-08-03T09:23:13Z</time>
      </trkpt>
      <trkpt lat="47.28277" lon="5.88863">
        <ele>259</ele>
        <time>2024-08-03T09:23:14Z</time>
      </trkpt>
      <trkpt lat="47.2828" lon="5.8886">
        <ele>259.2</ele>
        <time>2024-08-03T09:23:15Z</time>
      </trkpt>
      <trkpt lat="47.28282" lon="5.88858">
        <ele>259.2</ele>
        <time>2024-08-03T09:23:16Z</time>
      </trkpt>
      <trkpt lat="47.28285" lon="5.88854">
        <ele>259.6</ele>
        <time>2024-08-03T09:23:17Z</time>
      </trkpt>
      <trkpt lat="47.28287" lon="5.88851">
        <ele>259.6</ele>
        <time>2024-08-03T09:23:18Z</time>
      </trkpt>
      <trkpt lat="47.2829" lon="5.88848">
        <ele>259.8</ele>
        <time>2024-08-03T09:23:19Z</time>
      </trkpt>
      <trkpt lat="47.28292" lon="5.88846">
        <ele>260.2</ele>
        <time>2024-08-03T09:23:20Z</time>
      </trkpt>
      <trkpt lat="47.28294" lon="5.88843">
        <ele>260.4</ele>
        <time>2024-08-03T09:23:21Z</time>
      </trkpt>
      <trkpt lat="47.28297" lon="5.88841">
        <ele>260.6</ele>
        <time>2024-08-03T09:23:22Z</time>
      </trkpt>
      <trkpt lat="47.283" lon="5.88838">
        <ele>260.6</ele>
        <time>2024-08-03T09:23:23Z</time>
      </trkpt>
      <trkpt lat="47.28302" lon="5.88835">
        <ele>261</ele>
        <time>2024-08-03T09:23:24Z</time>
      </trkpt>
      <trkpt lat="47.28305" lon="5.88833">
        <ele>261.2</ele>
        <time>2024-08-03T09:23:25Z</time>
      </trkpt>
      <trkpt lat="47.28307" lon="5.8883">
        <ele>261.4</ele>
        <time>2024-08-03T09:23:26Z</time>
      </trkpt>
      <trkpt lat="47.2831" lon="5.88826">
        <ele>261.4</ele>
        <time>2024-08-03T09:23:27Z</time>
      </trkpt>
      <trkpt lat="47.28313" lon="5.88823">
        <ele>261.4</ele>
        <time>2024-08-03T09:23:28Z</time>
      </trkpt>
      <trkpt lat="47.28315" lon="5.8882">
        <ele>261.6</ele>
        <time>2024-08-03T09:23:29Z</time>
      </trkpt>
      <trkpt lat="47.28317" lon="5.88818">
        <ele>261.6</ele>
        <time>2024-08-03T09:23:30Z</time>
      </trkpt>
      <trkpt lat="47.28318" lon="5.88816">
        <ele>261.6</ele>
        <time>2024-08-03T09:23:31Z</time>
      </trkpt>
      <trkpt lat="47.28318" lon="5.88814">
        <ele>261.6</ele>
        <time>2024-08-03T09:23:32Z</time>
      </trkpt>
      <trkpt lat="47.28319" lon="5.88812">
        <ele>261.4</ele>
        <time>2024-08-03T09:23:33Z</time>
      </trkpt>
      <trkpt lat="47.28319" lon="5.88811">
        <ele>261.6</ele>
        <time>2024-08-03T09:23:34Z</time>
      </trkpt>
      <trkpt lat="47.28319" lon="5.88808">
        <ele>261.6</ele>
        <time>2024-08-03T09:23:35Z</time>
      </trkpt>
      <trkpt lat="47.28319" lon="5.88807">
        <ele>261.4</ele>
        <time>2024-08-03T09:23:36Z</time>
      </trkpt>
      <trkpt lat="47.28318" lon="5.88803">
        <ele>261.4</ele>
        <time>2024-08-03T09:23:37Z</time>
      </trkpt>
      <trkpt lat="47.28318" lon="5.888">
        <ele>261.4</ele>
        <time>2024-08-03T09:23:38Z</time>
      </trkpt>
      <trkpt lat="47.28317" lon="5.88797">
        <ele>261.4</ele>
        <time>2024-08-03T09:23:39Z</time>
      </trkpt>
      <trkpt lat="47.28317" lon="5.88794">
        <ele>261.4</ele>
        <time>2024-08-03T09:23:40Z</time>
      </trkpt>
      <trkpt lat="47.28316" lon="5.88791">
        <ele>261.4</ele>
        <time>2024-08-03T09:23:41Z</time>
      </trkpt>
      <trkpt lat="47.28315" lon="5.88789">
        <ele>261.2</ele>
        <time>2024-08-03T09:23:42Z</time>
      </trkpt>
      <trkpt lat="47.28315" lon="5.88785">
        <ele>261.4</ele>
        <time>2024-08-03T09:23:43Z</time>
      </trkpt>
      <trkpt lat="47.28315" lon="5.88783">
        <ele>261.4</ele>
        <time>2024-08-03T09:23:44Z</time>
      </trkpt>
      <trkpt lat="47.28314" lon="5.8878">
        <ele>261.4</ele>
        <time>2024-08-03T09:23:45Z</time>
      </trkpt>
      <trkpt lat="47.28313" lon="5.88777">
        <ele>261.6</ele>
        <time>2024-08-03T09:23:46Z</time>
      </trkpt>
      <trkpt lat="47.28313" lon="5.88775">
        <ele>261.6</ele>
        <time>2024-08-03T09:23:47Z</time>
      </trkpt>
      <trkpt lat="47.28312" lon="5.88772">
        <ele>261.6</ele>
        <time>2024-08-03T09:23:48Z</time>
      </trkpt>
      <trkpt lat="47.2831" lon="5.88767">
        <ele>261.6</ele>
        <time>2024-08-03T09:23:49Z</time>
      </trkpt>
      <trkpt lat="47.28308" lon="5.88764">
        <ele>261.8</ele>
        <time>2024-08-03T09:23:50Z</time>
      </trkpt>
      <trkpt lat="47.28306" lon="5.88761">
        <ele>261.8</ele>
        <time>2024-08-03T09:23:51Z</time>
      </trkpt>
      <trkpt lat="47.28304" lon="5.88757">
        <ele>261.8</ele>
        <time>2024-08-03T09:23:52Z</time>
      </trkpt>
      <trkpt lat="47.28303" lon="5.88754">
        <ele>262</ele>
        <time>2024-08-03T09:23:53Z</time>
      </trkpt>
      <trkpt lat="47.28301" lon="5.88752">
        <ele>262.4</ele>
        <time>2024-08-03T09:23:54Z</time>
      </trkpt>
      <trkpt lat="47.283" lon="5.88749">
        <ele>262.6</ele>
        <time>2024-08-03T09:23:55Z</time>
      </trkpt>
      <trkpt lat="47.28299" lon="5.88747">
        <ele>262.6</ele>
        <time>2024-08-03T09:23:56Z</time>
      </trkpt>
      <trkpt lat="47.28298" lon="5.88744">
        <ele>262.6</ele>
        <time>2024-08-03T09:23:57Z</time>
      </trkpt>
      <trkpt lat="47.28296" lon="5.88741">
        <ele>262.8</ele>
        <time>2024-08-03T09:23:58Z</time>
      </trkpt>
      <trkpt lat="47.28295" lon="5.88739">
        <ele>262.8</ele>
        <time>2024-08-03T09:23:59Z</time>
      </trkpt>
      <trkpt lat="47.28294" lon="5.88736">
        <ele>263</ele>
        <time>2024-08-03T09:24:00Z</time>
      </trkpt>
      <trkpt lat="47.28293" lon="5.88733">
        <ele>263.2</ele>
        <time>2024-08-03T09:24:01Z</time>
      </trkpt>
      <trkpt lat="47.28291" lon="5.8873">
        <ele>263.4</ele>
        <time>2024-08-03T09:24:02Z</time>
      </trkpt>
      <trkpt lat="47.2829" lon="5.88727">
        <ele>263.4</ele>
        <time>2024-08-03T09:24:03Z</time>
      </trkpt>
      <trkpt lat="47.28288" lon="5.88725">
        <ele>263.6</ele>
        <time>2024-08-03T09:24:04Z</time>
      </trkpt>
      <trkpt lat="47.28285" lon="5.88719">
        <ele>263.8</ele>
        <time>2024-08-03T09:24:05Z</time>
      </trkpt>
      <trkpt lat="47.28284" lon="5.88715">
        <ele>264</ele>
        <time>2024-08-03T09:24:06Z</time>
      </trkpt>
      <trkpt lat="47.28283" lon="5.8871">
        <ele>264</ele>
        <time>2024-08-03T09:24:07Z</time>
      </trkpt>
      <trkpt lat="47.28282" lon="5.88707">
        <ele>264.2</ele>
        <time>2024-08-03T09:24:08Z</time>
      </trkpt>
      <trkpt lat="47.28282" lon="5.88703">
        <ele>264.2</ele>
        <time>2024-08-03T09:24:09Z</time>
      </trkpt>
      <trkpt lat="47.28281" lon="5.88699">
        <ele>264.4</ele>
        <time>2024-08-03T09:24:10Z</time>
      </trkpt>
      <trkpt lat="47.28279" lon="5.88696">
        <ele>264.8</ele>
        <time>2024-08-03T09:24:11Z</time>
      </trkpt>
      <trkpt lat="47.28278" lon="5.88692">
        <ele>264.8</ele>
        <time>2024-08-03T09:24:12Z</time>
      </trkpt>
      <trkpt lat="47.28276" lon="5.88689">
        <ele>265</ele>
        <time>2024-08-03T09:24:13Z</time>
      </trkpt>
      <trkpt lat="47.28274" lon="5.88686">
        <ele>265</ele>
        <time>2024-08-03T09:24:14Z</time>
      </trkpt>
      <trkpt lat="47.28272" lon="5.88683">
        <ele>265.2</ele>
        <time>2024-08-03T09:24:15Z</time>
      </trkpt>
      <trkpt lat="47.28271" lon="5.8868">
        <ele>265.4</ele>
        <time>2024-08-03T09:24:16Z</time>
      </trkpt>
      <trkpt lat="47.28269" lon="5.88676">
        <ele>265.4</ele>
        <time>2024-08-03T09:24:17Z</time>
      </trkpt>
      <trkpt lat="47.28268" lon="5.88673">
        <ele>265.6</ele>
        <time>2024-08-03T09:24:18Z</time>
      </trkpt>
      <trkpt lat="47.28267" lon="5.8867">
        <ele>265.8</ele>
        <time>2024-08-03T09:24:19Z</time>
      </trkpt>
      <trkpt lat="47.28266" lon="5.88667">
        <ele>266</ele>
        <time>2024-08-03T09:24:20Z</time>
      </trkpt>
      <trkpt lat="47.28264" lon="5.88663">
        <ele>266</ele>
        <time>2024-08-03T09:24:21Z</time>
      </trkpt>
      <trkpt lat="47.28262" lon="5.8866">
        <ele>266.2</ele>
        <time>2024-08-03T09:24:22Z</time>
      </trkpt>
      <trkpt lat="47.28261" lon="5.88656">
        <ele>266.4</ele>
        <time>2024-08-03T09:24:23Z</time>
      </trkpt>
      <trkpt lat="47.28259" lon="5.88653">
        <ele>266.6</ele>
        <time>2024-08-03T09:24:24Z</time>
      </trkpt>
      <trkpt lat="47.28257" lon="5.88648">
        <ele>266.6</ele>
        <time>2024-08-03T09:24:25Z</time>
      </trkpt>
      <trkpt lat="47.28255" lon="5.88646">
        <ele>267</ele>
        <time>2024-08-03T09:24:26Z</time>
      </trkpt>
      <trkpt lat="47.28253" lon="5.88644">
        <ele>267.2</ele>
        <time>2024-08-03T09:24:27Z</time>
      </trkpt>
      <trkpt lat="47.28252" lon="5.88641">
        <ele>267.4</ele>
        <time>2024-08-03T09:24:28Z</time>
      </trkpt>
      <trkpt lat="47.2825" lon="5.88638">
        <ele>267.4</ele>
        <time>2024-08-03T09:24:29Z</time>
      </trkpt>
      <trkpt lat="47.28249" lon="5.88633">
        <ele>267.6</ele>
        <time>2024-08-03T09:24:30Z</time>
      </trkpt>
      <trkpt lat="47.28247" lon="5.88629">
        <ele>267.6</ele>
        <time>2024-08-03T09:24:31Z</time>
      </trkpt>
      <trkpt lat="47.28246" lon="5.88625">
        <ele>267.6</ele>
        <time>2024-08-03T09:24:32Z</time>
      </trkpt>
      <trkpt lat="47.28245" lon="5.88621">
        <ele>267.8</ele>
        <time>2024-08-03T09:24:33Z</time>
      </trkpt>
      <trkpt lat="47.28242" lon="5.88617">
        <ele>267.8</ele>
        <time>2024-08-03T09:24:34Z</time>
      </trkpt>
      <trkpt lat="47.28241" lon="5.88614">
        <ele>268.2</ele>
        <time>2024-08-03T09:24:35Z</time>
      </trkpt>
      <trkpt lat="47.28239" lon="5.88611">
        <ele>268.2</ele>
        <time>2024-08-03T09:24:36Z</time>
      </trkpt>
      <trkpt lat="47.28238" lon="5.88608">
        <ele>268.4</ele>
        <time>2024-08-03T09:24:37Z</time>
      </trkpt>
      <trkpt lat="47.28236" lon="5.88605">
        <ele>268.6</ele>
        <time>2024-08-03T09:24:38Z</time>
      </trkpt>
      <trkpt lat="47.28235" lon="5.88602">
        <ele>268.8</ele>
        <time>2024-08-03T09:24:39Z</time>
      </trkpt>
      <trkpt lat="47.28233" lon="5.88599">
        <ele>268.8</ele>
        <time>2024-08-03T09:24:40Z</time>
      </trkpt>
      <trkpt lat="47.28231" lon="5.88597">
        <ele>269</ele>
        <time>2024-08-03T09:24:41Z</time>
      </trkpt>
      <trkpt lat="47.2823" lon="5.88595">
        <ele>269</ele>
        <time>2024-08-03T09:24:42Z</time>
      </trkpt>
      <trkpt lat="47.28227" lon="5.8859">
        <ele>269</ele>
        <time>2024-08-03T09:24:43Z</time>
      </trkpt>
      <trkpt lat="47.28226" lon="5.88587">
        <ele>269</ele>
        <time>2024-08-03T09:24:44Z</time>
      </trkpt>
      <trkpt lat="47.28224" lon="5.88585">
        <ele>269.2</ele>
        <time>2024-08-03T09:24:45Z</time>
      </trkpt>
      <trkpt lat="47.28221" lon="5.8858">
        <ele>269</ele>
        <time>2024-08-03T09:24:46Z</time>
      </trkpt>
      <trkpt lat="47.28219" lon="5.88576">
        <ele>269.2</ele>
        <time>2024-08-03T09:24:47Z</time>
      </trkpt>
      <trkpt lat="47.28217" lon="5.88573">
        <ele>269.6</ele>
        <time>2024-08-03T09:24:48Z</time>
      </trkpt>
      <trkpt lat="47.28216" lon="5.88569">
        <ele>269.6</ele>
        <time>2024-08-03T09:24:49Z</time>
      </trkpt>
      <trkpt lat="47.28214" lon="5.88566">
        <ele>269.6</ele>
        <time>2024-08-03T09:24:50Z</time>
      </trkpt>
      <trkpt lat="47.28213" lon="5.88563">
        <ele>269.6</ele>
        <time>2024-08-03T09:24:51Z</time>
      </trkpt>
      <trkpt lat="47.28212" lon="5.88559">
        <ele>269.8</ele>
        <time>2024-08-03T09:24:52Z</time>
      </trkpt>
      <trkpt lat="47.28209" lon="5.88555">
        <ele>270</ele>
        <time>2024-08-03T09:24:53Z</time>
      </trkpt>
      <trkpt lat="47.28208" lon="5.88552">
        <ele>269.8</ele>
        <time>2024-08-03T09:24:54Z</time>
      </trkpt>
      <trkpt lat="47.28206" lon="5.88548">
        <ele>270</ele>
        <time>2024-08-03T09:24:55Z</time>
      </trkpt>
      <trkpt lat="47.28205" lon="5.88545">
        <ele>270</ele>
        <time>2024-08-03T09:24:56Z</time>
      </trkpt>
      <trkpt lat="47.28203" lon="5.8854">
        <ele>270.2</ele>
        <time>2024-08-03T09:24:57Z</time>
      </trkpt>
      <trkpt lat="47.28201" lon="5.88536">
        <ele>270.2</ele>
        <time>2024-08-03T09:24:58Z</time>
      </trkpt>
      <trkpt lat="47.28199" lon="5.88533">
        <ele>270.2</ele>
        <time>2024-08-03T09:24:59Z</time>
      </trkpt>
      <trkpt lat="47.28197" lon="5.88529">
        <ele>270.2</ele>
        <time>2024-08-03T09:25:00Z</time>
      </trkpt>
      <trkpt lat="47.28195" lon="5.88526">
        <ele>270.4</ele>
        <time>2024-08-03T09:25:01Z</time>
      </trkpt>
      <trkpt lat="47.28193" lon="5.88523">
        <ele>270.6</ele>
        <time>2024-08-03T09:25:02Z</time>
      </trkpt>
      <trkpt lat="47.2819" lon="5.88517">
        <ele>270.6</ele>
        <time>2024-08-03T09:25:03Z</time>
      </trkpt>
      <trkpt lat="47.28188" lon="5.88515">
        <ele>270.8</ele>
        <time>2024-08-03T09:25:04Z</time>
      </trkpt>
      <trkpt lat="47.28185" lon="5.88508">
        <ele>270.8</ele>
        <time>2024-08-03T09:25:05Z</time>
      </trkpt>
      <trkpt lat="47.28183" lon="5.88505">
        <ele>270.8</ele>
        <time>2024-08-03T09:25:06Z</time>
      </trkpt>
      <trkpt lat="47.28179" lon="5.885">
        <ele>271</ele>
        <time>2024-08-03T09:25:07Z</time>
      </trkpt>
      <trkpt lat="47.28176" lon="5.88497">
        <ele>271</ele>
        <time>2024-08-03T09:25:08Z</time>
      </trkpt>
      <trkpt lat="47.28173" lon="5.88491">
        <ele>271.2</ele>
        <time>2024-08-03T09:25:09Z</time>
      </trkpt>
      <trkpt lat="47.28171" lon="5.88488">
        <ele>271.2</ele>
        <time>2024-08-03T09:25:10Z</time>
      </trkpt>
      <trkpt lat="47.28169" lon="5.88485">
        <ele>271.4</ele>
        <time>2024-08-03T09:25:11Z</time>
      </trkpt>
      <trkpt lat="47.28167" lon="5.88482">
        <ele>271.4</ele>
        <time>2024-08-03T09:25:12Z</time>
      </trkpt>
      <trkpt lat="47.28165" lon="5.88479">
        <ele>271.4</ele>
        <time>2024-08-03T09:25:13Z</time>
      </trkpt>
      <trkpt lat="47.28163" lon="5.88476">
        <ele>271.4</ele>
        <time>2024-08-03T09:25:14Z</time>
      </trkpt>
      <trkpt lat="47.28161" lon="5.88473">
        <ele>271.6</ele>
        <time>2024-08-03T09:25:15Z</time>
      </trkpt>
      <trkpt lat="47.28158" lon="5.88469">
        <ele>271.4</ele>
        <time>2024-08-03T09:25:16Z</time>
      </trkpt>
      <trkpt lat="47.28155" lon="5.88465">
        <ele>271.6</ele>
        <time>2024-08-03T09:25:17Z</time>
      </trkpt>
      <trkpt lat="47.28152" lon="5.88461">
        <ele>271.6</ele>
        <time>2024-08-03T09:25:18Z</time>
      </trkpt>
      <trkpt lat="47.28149" lon="5.88458">
        <ele>271.6</ele>
        <time>2024-08-03T09:25:19Z</time>
      </trkpt>
      <trkpt lat="47.28145" lon="5.88454">
        <ele>271.6</ele>
        <time>2024-08-03T09:25:20Z</time>
      </trkpt>
      <trkpt lat="47.28141" lon="5.8845">
        <ele>271.6</ele>
        <time>2024-08-03T09:25:21Z</time>
      </trkpt>
      <trkpt lat="47.28137" lon="5.88446">
        <ele>271.6</ele>
        <time>2024-08-03T09:25:22Z</time>
      </trkpt>
      <trkpt lat="47.28134" lon="5.88443">
        <ele>271.6</ele>
        <time>2024-08-03T09:25:23Z</time>
      </trkpt>
      <trkpt lat="47.2813" lon="5.88439">
        <ele>271.6</ele>
        <time>2024-08-03T09:25:24Z</time>
      </trkpt>
      <trkpt lat="47.28125" lon="5.88432">
        <ele>271.6</ele>
        <time>2024-08-03T09:25:25Z</time>
      </trkpt>
      <trkpt lat="47.28122" lon="5.88427">
        <ele>271.6</ele>
        <time>2024-08-03T09:25:26Z</time>
      </trkpt>
      <trkpt lat="47.2812" lon="5.88423">
        <ele>271.6</ele>
        <time>2024-08-03T09:25:27Z</time>
      </trkpt>
      <trkpt lat="47.28116" lon="5.88418">
        <ele>271.4</ele>
        <time>2024-08-03T09:25:28Z</time>
      </trkpt>
      <trkpt lat="47.28114" lon="5.88414">
        <ele>271.6</ele>
        <time>2024-08-03T09:25:29Z</time>
      </trkpt>
      <trkpt lat="47.28111" lon="5.88411">
        <ele>271.4</ele>
        <time>2024-08-03T09:25:30Z</time>
      </trkpt>
      <trkpt lat="47.28108" lon="5.88406">
        <ele>271.6</ele>
        <time>2024-08-03T09:25:31Z</time>
      </trkpt>
      <trkpt lat="47.28106" lon="5.88402">
        <ele>271.4</ele>
        <time>2024-08-03T09:25:32Z</time>
      </trkpt>
      <trkpt lat="47.28104" lon="5.88398">
        <ele>271.4</ele>
        <time>2024-08-03T09:25:33Z</time>
      </trkpt>
      <trkpt lat="47.28102" lon="5.88394">
        <ele>271.2</ele>
        <time>2024-08-03T09:25:34Z</time>
      </trkpt>
      <trkpt lat="47.281" lon="5.88387">
        <ele>271.2</ele>
        <time>2024-08-03T09:25:35Z</time>
      </trkpt>
      <trkpt lat="47.28099" lon="5.88381">
        <ele>271</ele>
        <time>2024-08-03T09:25:36Z</time>
      </trkpt>
      <trkpt lat="47.28098" lon="5.88377">
        <ele>270.8</ele>
        <time>2024-08-03T09:25:37Z</time>
      </trkpt>
      <trkpt lat="47.28098" lon="5.88371">
        <ele>271</ele>
        <time>2024-08-03T09:25:38Z</time>
      </trkpt>
      <trkpt lat="47.28098" lon="5.88367">
        <ele>270.6</ele>
        <time>2024-08-03T09:25:39Z</time>
      </trkpt>
      <trkpt lat="47.28098" lon="5.88361">
        <ele>270.6</ele>
        <time>2024-08-03T09:25:40Z</time>
      </trkpt>
      <trkpt lat="47.28098" lon="5.88358">
        <ele>270.2</ele>
        <time>2024-08-03T09:25:41Z</time>
      </trkpt>
      <trkpt lat="47.28098" lon="5.88355">
        <ele>270.2</ele>
        <time>2024-08-03T09:25:42Z</time>
      </trkpt>
      <trkpt lat="47.28098" lon="5.88352">
        <ele>270</ele>
        <time>2024-08-03T09:25:43Z</time>
      </trkpt>
      <trkpt lat="47.28097" lon="5.88347">
        <ele>269.8</ele>
        <time>2024-08-03T09:25:44Z</time>
      </trkpt>
      <trkpt lat="47.28096" lon="5.88342">
        <ele>269.6</ele>
        <time>2024-08-03T09:25:45Z</time>
      </trkpt>
      <trkpt lat="47.28095" lon="5.88339">
        <ele>269.6</ele>
        <time>2024-08-03T09:25:46Z</time>
      </trkpt>
      <trkpt lat="47.28093" lon="5.88335">
        <ele>269.8</ele>
        <time>2024-08-03T09:25:47Z</time>
      </trkpt>
      <trkpt lat="47.28092" lon="5.88333">
        <ele>269.6</ele>
        <time>2024-08-03T09:25:48Z</time>
      </trkpt>
      <trkpt lat="47.28091" lon="5.88332">
        <ele>269.6</ele>
        <time>2024-08-03T09:25:49Z</time>
      </trkpt>
      <trkpt lat="47.28091" lon="5.88331">
        <ele>269.6</ele>
        <time>2024-08-03T09:25:50Z</time>
      </trkpt>
      <trkpt lat="47.28092" lon="5.88331">
        <ele>269.6</ele>
        <time>2024-08-03T09:25:51Z</time>
      </trkpt>
      <trkpt lat="47.28092" lon="5.88331">
        <ele>269.4</ele>
        <time>2024-08-03T09:25:52Z</time>
      </trkpt>
      <trkpt lat="47.28092" lon="5.8833">
        <ele>269.4</ele>
        <time>2024-08-03T09:25:53Z</time>
      </trkpt>
      <trkpt lat="47.28092" lon="5.8833">
        <ele>269.2</ele>
        <time>2024-08-03T09:25:54Z</time>
      </trkpt>
      <trkpt lat="47.28092" lon="5.8833">
        <ele>269.2</ele>
        <time>2024-08-03T09:25:55Z</time>
      </trkpt>
      <trkpt lat="47.28092" lon="5.88329">
        <ele>269.2</ele>
        <time>2024-08-03T09:25:56Z</time>
      </trkpt>
      <trkpt lat="47.28092" lon="5.88328">
        <ele>269</ele>
        <time>2024-08-03T09:25:57Z</time>
      </trkpt>
      <trkpt lat="47.28092" lon="5.88328">
        <ele>268.8</ele>
        <time>2024-08-03T09:25:58Z</time>
      </trkpt>
      <trkpt lat="47.28092" lon="5.88328">
        <ele>268.8</ele>
        <time>2024-08-03T09:25:59Z</time>
      </trkpt>
      <trkpt lat="47.28092" lon="5.88328">
        <ele>269</ele>
        <time>2024-08-03T09:26:00Z</time>
      </trkpt>
      <trkpt lat="47.28091" lon="5.88328">
        <ele>268.8</ele>
        <time>2024-08-03T09:26:01Z</time>
      </trkpt>
      <trkpt lat="47.28091" lon="5.88328">
        <ele>268.8</ele>
        <time>2024-08-03T09:26:02Z</time>
      </trkpt>
      <trkpt lat="47.28091" lon="5.88328">
        <ele>268.8</ele>
        <time>2024-08-03T09:26:03Z</time>
      </trkpt>
      <trkpt lat="47.28091" lon="5.88328">
        <ele>268.8</ele>
        <time>2024-08-03T09:26:04Z</time>
      </trkpt>
      <trkpt lat="47.28091" lon="5.88328">
        <ele>268.8</ele>
        <time>2024-08-03T09:26:05Z</time>
      </trkpt>
      <trkpt lat="47.28091" lon="5.88328">
        <ele>268.8</ele>
        <time>2024-08-03T09:26:06Z</time>
      </trkpt>
      <trkpt lat="47.28091" lon="5.88328">
        <ele>268.6</ele>
        <time>2024-08-03T09:26:07Z</time>
      </trkpt>
      <trkpt lat="47.28091" lon="5.88327">
        <ele>268.6</ele>
        <time>2024-08-03T09:26:08Z</time>
      </trkpt>
      <trkpt lat="47.28091" lon="5.88327">
        <ele>268.8</ele>
        <time>2024-08-03T09:26:09Z</time>
      </trkpt>
      <trkpt lat="47.2809" lon="5.88327">
        <ele>268.6</ele>
        <time>2024-08-03T09:26:10Z</time>
      </trkpt>
      <trkpt lat="47.2809" lon="5.88327">
        <ele>268.6</ele>
        <time>2024-08-03T09:26:11Z</time>
      </trkpt>
      <trkpt lat="47.2809" lon="5.88326">
        <ele>268.8</ele>
        <time>2024-08-03T09:26:12Z</time>
      </trkpt>
      <trkpt lat="47.2809" lon="5.88326">
        <ele>268.6</ele>
        <time>2024-08-03T09:26:13Z</time>
      </trkpt>
      <trkpt lat="47.28089" lon="5.88326">
        <ele>268.6</ele>
        <time>2024-08-03T09:26:14Z</time>
      </trkpt>
      <trkpt lat="47.28089" lon="5.88326">
        <ele>268.8</ele>
        <time>2024-08-03T09:26:15Z</time>
      </trkpt>
      <trkpt lat="47.28089" lon="5.88326">
        <ele>268.6</ele>
        <time>2024-08-03T09:26:16Z</time>
      </trkpt>
      <trkpt lat="47.28089" lon="5.88326">
        <ele>268.8</ele>
        <time>2024-08-03T09:26:17Z</time>
      </trkpt>
      <trkpt lat="47.28089" lon="5.88326">
        <ele>268.6</ele>
        <time>2024-08-03T09:26:18Z</time>
      </trkpt>
      <trkpt lat="47.2809" lon="5.88325">
        <ele>268.6</ele>
        <time>2024-08-03T09:26:19Z</time>
      </trkpt>
      <trkpt lat="47.2809" lon="5.88325">
        <ele>268.6</ele>
        <time>2024-08-03T09:26:20Z</time>
      </trkpt>
      <trkpt lat="47.2809" lon="5.88325">
        <ele>268.6</ele>
        <time>2024-08-03T09:26:21Z</time>
      </trkpt>
      <trkpt lat="47.2809" lon="5.88325">
        <ele>268.6</ele>
        <time>2024-08-03T09:26:22Z</time>
      </trkpt>
      <trkpt lat="47.2809" lon="5.88325">
        <ele>268.6</ele>
        <time>2024-08-03T09:26:23Z</time>
      </trkpt>
      <trkpt lat="47.2809" lon="5.88324">
        <ele>268.6</ele>
        <time>2024-08-03T09:26:24Z</time>
      </trkpt>
      <trkpt lat="47.2809" lon="5.88324">
        <ele>268.6</ele>
        <time>2024-08-03T09:26:25Z</time>
      </trkpt>
      <trkpt lat="47.2809" lon="5.88324">
        <ele>268.6</ele>
        <time>2024-08-03T09:26:26Z</time>
      </trkpt>
      <trkpt lat="47.2809" lon="5.88323">
        <ele>268.6</ele>
        <time>2024-08-03T09:26:27Z</time>
      </trkpt>
      <trkpt lat="47.2809" lon="5.88323">
        <ele>268.6</ele>
        <time>2024-08-03T09:26:28Z</time>
      </trkpt>
      <trkpt lat="47.28089" lon="5.88323">
        <ele>268.6</ele>
        <time>2024-08-03T09:26:29Z</time>
      </trkpt>
      <trkpt lat="47.28089" lon="5.88322">
        <ele>268.6</ele>
        <time>2024-08-03T09:26:30Z</time>
      </trkpt>
      <trkpt lat="47.28089" lon="5.88322">
        <ele>268.4</ele>
        <time>2024-08-03T09:26:31Z</time>
      </trkpt>
      <trkpt lat="47.28089" lon="5.88321">
        <ele>268.4</ele>
        <time>2024-08-03T09:26:32Z</time>
      </trkpt>
      <trkpt lat="47.2809" lon="5.88321">
        <ele>268.6</ele>
        <time>2024-08-03T09:26:33Z</time>
      </trkpt>
      <trkpt lat="47.2809" lon="5.88322">
        <ele>268.6</ele>
        <time>2024-08-03T09:26:34Z</time>
      </trkpt>
      <trkpt lat="47.2809" lon="5.88322">
        <ele>268.4</ele>
        <time>2024-08-03T09:26:35Z</time>
      </trkpt>
      <trkpt lat="47.2809" lon="5.88322">
        <ele>268.4</ele>
        <time>2024-08-03T09:26:36Z</time>
      </trkpt>
      <trkpt lat="47.2809" lon="5.88321">
        <ele>268.6</ele>
        <time>2024-08-03T09:26:37Z</time>
      </trkpt>
      <trkpt lat="47.2809" lon="5.88321">
        <ele>268.4</ele>
        <time>2024-08-03T09:26:38Z</time>
      </trkpt>
      <trkpt lat="47.28091" lon="5.88321">
        <ele>268.6</ele>
        <time>2024-08-03T09:26:39Z</time>
      </trkpt>
      <trkpt lat="47.28091" lon="5.88321">
        <ele>268.4</ele>
        <time>2024-08-03T09:26:40Z</time>
      </trkpt>
      <trkpt lat="47.28091" lon="5.88321">
        <ele>268.6</ele>
        <time>2024-08-03T09:26:41Z</time>
      </trkpt>
      <trkpt lat="47.28091" lon="5.88321">
        <ele>268.4</ele>
        <time>2024-08-03T09:26:42Z</time>
      </trkpt>
      <trkpt lat="47.28091" lon="5.8832">
        <ele>268.4</ele>
        <time>2024-08-03T09:26:43Z</time>
      </trkpt>
      <trkpt lat="47.28091" lon="5.8832">
        <ele>268.4</ele>
        <time>2024-08-03T09:26:44Z</time>
      </trkpt>
      <trkpt lat="47.28091" lon="5.88319">
        <ele>268.6</ele>
        <time>2024-08-03T09:26:45Z</time>
      </trkpt>
      <trkpt lat="47.28091" lon="5.88319">
        <ele>268.4</ele>
        <time>2024-08-03T09:26:46Z</time>
      </trkpt>
      <trkpt lat="47.28091" lon="5.88318">
        <ele>268.4</ele>
        <time>2024-08-03T09:26:47Z</time>
      </trkpt>
      <trkpt lat="47.28091" lon="5.88317">
        <ele>268.6</ele>
        <time>2024-08-03T09:26:48Z</time>
      </trkpt>
      <trkpt lat="47.28091" lon="5.88317">
        <ele>268.4</ele>
        <time>2024-08-03T09:26:49Z</time>
      </trkpt>
      <trkpt lat="47.28091" lon="5.88318">
        <ele>268.4</ele>
        <time>2024-08-03T09:26:50Z</time>
      </trkpt>
      <trkpt lat="47.2809" lon="5.88318">
        <ele>268.4</ele>
        <time>2024-08-03T09:26:51Z</time>
      </trkpt>
      <trkpt lat="47.2809" lon="5.88317">
        <ele>268.4</ele>
        <time>2024-08-03T09:26:52Z</time>
      </trkpt>
      <trkpt lat="47.2809" lon="5.88317">
        <ele>268.4</ele>
        <time>2024-08-03T09:26:53Z</time>
      </trkpt>
      <trkpt lat="47.2809" lon="5.88317">
        <ele>268.4</ele>
        <time>2024-08-03T09:26:54Z</time>
      </trkpt>
      <trkpt lat="47.28089" lon="5.88317">
        <ele>268.4</ele>
        <time>2024-08-03T09:26:55Z</time>
      </trkpt>
      <trkpt lat="47.28089" lon="5.88317">
        <ele>268.4</ele>
        <time>2024-08-03T09:26:56Z</time>
      </trkpt>
      <trkpt lat="47.28089" lon="5.88317">
        <ele>268.6</ele>
        <time>2024-08-03T09:26:57Z</time>
      </trkpt>
      <trkpt lat="47.28089" lon="5.88316">
        <ele>268.4</ele>
        <time>2024-08-03T09:26:58Z</time>
      </trkpt>
      <trkpt lat="47.28088" lon="5.88316">
        <ele>268.4</ele>
        <time>2024-08-03T09:26:59Z</time>
      </trkpt>
      <trkpt lat="47.28087" lon="5.88316">
        <ele>268.4</ele>
        <time>2024-08-03T09:27:00Z</time>
      </trkpt>
      <trkpt lat="47.28087" lon="5.88316">
        <ele>268.4</ele>
        <time>2024-08-03T09:27:01Z</time>
      </trkpt>
      <trkpt lat="47.28086" lon="5.88315">
        <ele>268.4</ele>
        <time>2024-08-03T09:27:02Z</time>
      </trkpt>
      <trkpt lat="47.28086" lon="5.88314">
        <ele>268.4</ele>
        <time>2024-08-03T09:27:03Z</time>
      </trkpt>
      <trkpt lat="47.28086" lon="5.88314">
        <ele>268.4</ele>
        <time>2024-08-03T09:27:04Z</time>
      </trkpt>
      <trkpt lat="47.28086" lon="5.88314">
        <ele>268.4</ele>
        <time>2024-08-03T09:27:05Z</time>
      </trkpt>
      <trkpt lat="47.28086" lon="5.88314">
        <ele>268.4</ele>
        <time>2024-08-03T09:27:06Z</time>
      </trkpt>
      <trkpt lat="47.28086" lon="5.88314">
        <ele>268.4</ele>
        <time>2024-08-03T09:27:07Z</time>
      </trkpt>
      <trkpt lat="47.28085" lon="5.88313">
        <ele>268.4</ele>
        <time>2024-08-03T09:27:08Z</time>
      </trkpt>
      <trkpt lat="47.28085" lon="5.88313">
        <ele>268.4</ele>
        <time>2024-08-03T09:27:09Z</time>
      </trkpt>
      <trkpt lat="47.28084" lon="5.88313">
        <ele>268.4</ele>
        <time>2024-08-03T09:27:10Z</time>
      </trkpt>
      <trkpt lat="47.28083" lon="5.88313">
        <ele>268.4</ele>
        <time>2024-08-03T09:27:11Z</time>
      </trkpt>
      <trkpt lat="47.28082" lon="5.88313">
        <ele>268.4</ele>
        <time>2024-08-03T09:27:12Z</time>
      </trkpt>
      <trkpt lat="47.28082" lon="5.88312">
        <ele>268.4</ele>
        <time>2024-08-03T09:27:13Z</time>
      </trkpt>
      <trkpt lat="47.28082" lon="5.88313">
        <ele>268.4</ele>
        <time>2024-08-03T09:27:14Z</time>
      </trkpt>
      <trkpt lat="47.28081" lon="5.88312">
        <ele>268.6</ele>
        <time>2024-08-03T09:27:15Z</time>
      </trkpt>
      <trkpt lat="47.28082" lon="5.88311">
        <ele>268.4</ele>
        <time>2024-08-03T09:27:16Z</time>
      </trkpt>
      <trkpt lat="47.28082" lon="5.8831">
        <ele>268.4</ele>
        <time>2024-08-03T09:27:17Z</time>
      </trkpt>
      <trkpt lat="47.28083" lon="5.88309">
        <ele>268.4</ele>
        <time>2024-08-03T09:27:18Z</time>
      </trkpt>
      <trkpt lat="47.28083" lon="5.88308">
        <ele>268.4</ele>
        <time>2024-08-03T09:27:19Z</time>
      </trkpt>
      <trkpt lat="47.28083" lon="5.88308">
        <ele>268.4</ele>
        <time>2024-08-03T09:27:20Z</time>
      </trkpt>
      <trkpt lat="47.28083" lon="5.88308">
        <ele>268.6</ele>
        <time>2024-08-03T09:27:21Z</time>
      </trkpt>
      <trkpt lat="47.28083" lon="5.88308">
        <ele>268.4</ele>
        <time>2024-08-03T09:27:22Z</time>
      </trkpt>
      <trkpt lat="47.28083" lon="5.88308">
        <ele>268.4</ele>
        <time>2024-08-03T09:27:23Z</time>
      </trkpt>
      <trkpt lat="47.28083" lon="5.88308">
        <ele>268.4</ele>
        <time>2024-08-03T09:27:24Z</time>
      </trkpt>
      <trkpt lat="47.28083" lon="5.88308">
        <ele>268.6</ele>
        <time>2024-08-03T09:27:25Z</time>
      </trkpt>
      <trkpt lat="47.28083" lon="5.88308">
        <ele>268.4</ele>
        <time>2024-08-03T09:27:26Z</time>
      </trkpt>
      <trkpt lat="47.28083" lon="5.88308">
        <ele>268.4</ele>
        <time>2024-08-03T09:27:27Z</time>
      </trkpt>
      <trkpt lat="47.28083" lon="5.88308">
        <ele>268.4</ele>
        <time>2024-08-03T09:27:28Z</time>
      </trkpt>
      <trkpt lat="47.28083" lon="5.88308">
        <ele>268.4</ele>
        <time>2024-08-03T09:27:29Z</time>
      </trkpt>
      <trkpt lat="47.28083" lon="5.88308">
        <ele>268.4</ele>
        <time>2024-08-03T09:27:30Z</time>
      </trkpt>
      <trkpt lat="47.28083" lon="5.88308">
        <ele>268.4</ele>
        <time>2024-08-03T09:27:31Z</time>
      </trkpt>
      <trkpt lat="47.28083" lon="5.88308">
        <ele>268.4</ele>
        <time>2024-08-03T09:27:32Z</time>
      </trkpt>
      <trkpt lat="47.28083" lon="5.88308">
        <ele>268.4</ele>
        <time>2024-08-03T09:27:33Z</time>
      </trkpt>
      <trkpt lat="47.28083" lon="5.88308">
        <ele>268.4</ele>
        <time>2024-08-03T09:27:34Z</time>
      </trkpt>
      <trkpt lat="47.28083" lon="5.88308">
        <ele>268.4</ele>
        <time>2024-08-03T09:27:35Z</time>
      </trkpt>
      <trkpt lat="47.28083" lon="5.88308">
        <ele>268.4</ele>
        <time>2024-08-03T09:27:36Z</time>
      </trkpt>
      <trkpt lat="47.28083" lon="5.88308">
        <ele>268.4</ele>
        <time>2024-08-03T09:27:37Z</time>
      </trkpt>
      <trkpt lat="47.28083" lon="5.88308">
        <ele>268.4</ele>
        <time>2024-08-03T09:27:38Z</time>
      </trkpt>
      <trkpt lat="47.28083" lon="5.88308">
        <ele>268.4</ele>
        <time>2024-08-03T09:27:39Z</time>
      </trkpt>
      <trkpt lat="47.28083" lon="5.88308">
        <ele>268.2</ele>
        <time>2024-08-03T09:27:40Z</time>
      </trkpt>
      <trkpt lat="47.28083" lon="5.88308">
        <ele>268.4</ele>
        <time>2024-08-03T09:27:41Z</time>
      </trkpt>
      <trkpt lat="47.28083" lon="5.88308">
        <ele>268.4</ele>
        <time>2024-08-03T09:27:42Z</time>
      </trkpt>
      <trkpt lat="47.28083" lon="5.88308">
        <ele>268.2</ele>
        <time>2024-08-03T09:27:43Z</time>
      </trkpt>
      <trkpt lat="47.28083" lon="5.88308">
        <ele>268.4</ele>
        <time>2024-08-03T09:27:44Z</time>
      </trkpt>
      <trkpt lat="47.28083" lon="5.88308">
        <ele>268.4</ele>
        <time>2024-08-03T09:27:45Z</time>
      </trkpt>
      <trkpt lat="47.28083" lon="5.88309">
        <ele>268.2</ele>
        <time>2024-08-03T09:27:46Z</time>
      </trkpt>
      <trkpt lat="47.28083" lon="5.88309">
        <ele>268.4</ele>
        <time>2024-08-03T09:27:47Z</time>
      </trkpt>
      <trkpt lat="47.28083" lon="5.88309">
        <ele>268.6</ele>
        <time>2024-08-03T09:27:48Z</time>
      </trkpt>
      <trkpt lat="47.28083" lon="5.88309">
        <ele>268.4</ele>
        <time>2024-08-03T09:27:49Z</time>
      </trkpt>
      <trkpt lat="47.28084" lon="5.88309">
        <ele>268.4</ele>
        <time>2024-08-03T09:27:50Z</time>
      </trkpt>
      <trkpt lat="47.28084" lon="5.88309">
        <ele>268.4</ele>
        <time>2024-08-03T09:27:51Z</time>
      </trkpt>
      <trkpt lat="47.28084" lon="5.88309">
        <ele>268.6</ele>
        <time>2024-08-03T09:27:52Z</time>
      </trkpt>
      <trkpt lat="47.28084" lon="5.88309">
        <ele>268.4</ele>
        <time>2024-08-03T09:27:53Z</time>
      </trkpt>
      <trkpt lat="47.28084" lon="5.88309">
        <ele>268.4</ele>
        <time>2024-08-03T09:27:54Z</time>
      </trkpt>
      <trkpt lat="47.28084" lon="5.88309">
        <ele>268.4</ele>
        <time>2024-08-03T09:27:55Z</time>
      </trkpt>
      <trkpt lat="47.28084" lon="5.88309">
        <ele>268.4</ele>
        <time>2024-08-03T09:27:56Z</time>
      </trkpt>
      <trkpt lat="47.28084" lon="5.8831">
        <ele>268.4</ele>
        <time>2024-08-03T09:27:57Z</time>
      </trkpt>
      <trkpt lat="47.28083" lon="5.8831">
        <ele>268.4</ele>
        <time>2024-08-03T09:27:58Z</time>
      </trkpt>
      <trkpt lat="47.28083" lon="5.8831">
        <ele>268.4</ele>
        <time>2024-08-03T09:27:59Z</time>
      </trkpt>
      <trkpt lat="47.28083" lon="5.8831">
        <ele>268.4</ele>
        <time>2024-08-03T09:28:00Z</time>
      </trkpt>
      <trkpt lat="47.28083" lon="5.8831">
        <ele>268.6</ele>
        <time>2024-08-03T09:28:01Z</time>
      </trkpt>
      <trkpt lat="47.28084" lon="5.8831">
        <ele>268.4</ele>
        <time>2024-08-03T09:28:02Z</time>
      </trkpt>
      <trkpt lat="47.28084" lon="5.8831">
        <ele>268.4</ele>
        <time>2024-08-03T09:28:03Z</time>
      </trkpt>
      <trkpt lat="47.28084" lon="5.8831">
        <ele>268.4</ele>
        <time>2024-08-03T09:28:04Z</time>
      </trkpt>
      <trkpt lat="47.28084" lon="5.8831">
        <ele>268.4</ele>
        <time>2024-08-03T09:28:05Z</time>
      </trkpt>
      <trkpt lat="47.28084" lon="5.8831">
        <ele>268.4</ele>
        <time>2024-08-03T09:28:06Z</time>
      </trkpt>
      <trkpt lat="47.28083" lon="5.8831">
        <ele>268.4</ele>
        <time>2024-08-03T09:28:07Z</time>
      </trkpt>
      <trkpt lat="47.28082" lon="5.88309">
        <ele>268.4</ele>
        <time>2024-08-03T09:28:08Z</time>
      </trkpt>
      <trkpt lat="47.28081" lon="5.88307">
        <ele>268.2</ele>
        <time>2024-08-03T09:28:09Z</time>
      </trkpt>
      <trkpt lat="47.2808" lon="5.88305">
        <ele>268.4</ele>
        <time>2024-08-03T09:28:10Z</time>
      </trkpt>
      <trkpt lat="47.28079" lon="5.88303">
        <ele>268.4</ele>
        <time>2024-08-03T09:28:11Z</time>
      </trkpt>
      <trkpt lat="47.28077" lon="5.88301">
        <ele>268.2</ele>
        <time>2024-08-03T09:28:12Z</time>
      </trkpt>
      <trkpt lat="47.28076" lon="5.88299">
        <ele>268.2</ele>
        <time>2024-08-03T09:28:13Z</time>
      </trkpt>
      <trkpt lat="47.28073" lon="5.88297">
        <ele>268.2</ele>
        <time>2024-08-03T09:28:14Z</time>
      </trkpt>
      <trkpt lat="47.28071" lon="5.88294">
        <ele>268.4</ele>
        <time>2024-08-03T09:28:15Z</time>
      </trkpt>
      <trkpt lat="47.28068" lon="5.88291">
        <ele>268.4</ele>
        <time>2024-08-03T09:28:16Z</time>
      </trkpt>
      <trkpt lat="47.28066" lon="5.88288">
        <ele>268.4</ele>
        <time>2024-08-03T09:28:17Z</time>
      </trkpt>
      <trkpt lat="47.28062" lon="5.88285">
        <ele>268.2</ele>
        <time>2024-08-03T09:28:18Z</time>
      </trkpt>
      <trkpt lat="47.28058" lon="5.88281">
        <ele>268</ele>
        <time>2024-08-03T09:28:19Z</time>
      </trkpt>
      <trkpt lat="47.28055" lon="5.88277">
        <ele>268</ele>
        <time>2024-08-03T09:28:20Z</time>
      </trkpt>
      <trkpt lat="47.28051" lon="5.88274">
        <ele>268</ele>
        <time>2024-08-03T09:28:21Z</time>
      </trkpt>
      <trkpt lat="47.28048" lon="5.8827">
        <ele>267.8</ele>
        <time>2024-08-03T09:28:22Z</time>
      </trkpt>
      <trkpt lat="47.28043" lon="5.88265">
        <ele>267.4</ele>
        <time>2024-08-03T09:28:23Z</time>
      </trkpt>
      <trkpt lat="47.28039" lon="5.8826">
        <ele>267.4</ele>
        <time>2024-08-03T09:28:24Z</time>
      </trkpt>
      <trkpt lat="47.28035" lon="5.88256">
        <ele>267.2</ele>
        <time>2024-08-03T09:28:25Z</time>
      </trkpt>
      <trkpt lat="47.28031" lon="5.88251">
        <ele>267</ele>
        <time>2024-08-03T09:28:26Z</time>
      </trkpt>
      <trkpt lat="47.28027" lon="5.88246">
        <ele>266.6</ele>
        <time>2024-08-03T09:28:27Z</time>
      </trkpt>
      <trkpt lat="47.28023" lon="5.88241">
        <ele>266.2</ele>
        <time>2024-08-03T09:28:28Z</time>
      </trkpt>
      <trkpt lat="47.28019" lon="5.88235">
        <ele>266</ele>
        <time>2024-08-03T09:28:29Z</time>
      </trkpt>
      <trkpt lat="47.28014" lon="5.88231">
        <ele>265.2</ele>
        <time>2024-08-03T09:28:30Z</time>
      </trkpt>
      <trkpt lat="47.2801" lon="5.88227">
        <ele>265</ele>
        <time>2024-08-03T09:28:31Z</time>
      </trkpt>
      <trkpt lat="47.28004" lon="5.88222">
        <ele>264.6</ele>
        <time>2024-08-03T09:28:32Z</time>
      </trkpt>
      <trkpt lat="47.27998" lon="5.88215">
        <ele>264.2</ele>
        <time>2024-08-03T09:28:33Z</time>
      </trkpt>
      <trkpt lat="47.27993" lon="5.88209">
        <ele>263.6</ele>
        <time>2024-08-03T09:28:34Z</time>
      </trkpt>
      <trkpt lat="47.27988" lon="5.88203">
        <ele>263.2</ele>
        <time>2024-08-03T09:28:35Z</time>
      </trkpt>
      <trkpt lat="47.27982" lon="5.88198">
        <ele>262.8</ele>
        <time>2024-08-03T09:28:36Z</time>
      </trkpt>
      <trkpt lat="47.27978" lon="5.88193">
        <ele>262.8</ele>
        <time>2024-08-03T09:28:37Z</time>
      </trkpt>
      <trkpt lat="47.27972" lon="5.88187">
        <ele>262.6</ele>
        <time>2024-08-03T09:28:38Z</time>
      </trkpt>
      <trkpt lat="47.27967" lon="5.8818">
        <ele>262.2</ele>
        <time>2024-08-03T09:28:39Z</time>
      </trkpt>
      <trkpt lat="47.27963" lon="5.88174">
        <ele>261.8</ele>
        <time>2024-08-03T09:28:40Z</time>
      </trkpt>
      <trkpt lat="47.27958" lon="5.88169">
        <ele>261.4</ele>
        <time>2024-08-03T09:28:41Z</time>
      </trkpt>
      <trkpt lat="47.27953" lon="5.88162">
        <ele>261</ele>
        <time>2024-08-03T09:28:42Z</time>
      </trkpt>
      <trkpt lat="47.27949" lon="5.88157">
        <ele>260.6</ele>
        <time>2024-08-03T09:28:43Z</time>
      </trkpt>
      <trkpt lat="47.27945" lon="5.88152">
        <ele>260.2</ele>
        <time>2024-08-03T09:28:44Z</time>
      </trkpt>
      <trkpt lat="47.27939" lon="5.88146">
        <ele>260</ele>
        <time>2024-08-03T09:28:45Z</time>
      </trkpt>
      <trkpt lat="47.27935" lon="5.88142">
        <ele>259.8</ele>
        <time>2024-08-03T09:28:46Z</time>
      </trkpt>
      <trkpt lat="47.2793" lon="5.88135">
        <ele>259.8</ele>
        <time>2024-08-03T09:28:47Z</time>
      </trkpt>
      <trkpt lat="47.27927" lon="5.88131">
        <ele>259.6</ele>
        <time>2024-08-03T09:28:48Z</time>
      </trkpt>
      <trkpt lat="47.27921" lon="5.88124">
        <ele>259.2</ele>
        <time>2024-08-03T09:28:49Z</time>
      </trkpt>
      <trkpt lat="47.27917" lon="5.88118">
        <ele>259.2</ele>
        <time>2024-08-03T09:28:50Z</time>
      </trkpt>
      <trkpt lat="47.27913" lon="5.88112">
        <ele>259</ele>
        <time>2024-08-03T09:28:51Z</time>
      </trkpt>
      <trkpt lat="47.27909" lon="5.88107">
        <ele>259</ele>
        <time>2024-08-03T09:28:52Z</time>
      </trkpt>
      <trkpt lat="47.27905" lon="5.88103">
        <ele>259</ele>
        <time>2024-08-03T09:28:53Z</time>
      </trkpt>
      <trkpt lat="47.27901" lon="5.88098">
        <ele>258.8</ele>
        <time>2024-08-03T09:28:54Z</time>
      </trkpt>
      <trkpt lat="47.27898" lon="5.88093">
        <ele>258.6</ele>
        <time>2024-08-03T09:28:55Z</time>
      </trkpt>
      <trkpt lat="47.27894" lon="5.88089">
        <ele>258.6</ele>
        <time>2024-08-03T09:28:56Z</time>
      </trkpt>
      <trkpt lat="47.27891" lon="5.88084">
        <ele>258.6</ele>
        <time>2024-08-03T09:28:57Z</time>
      </trkpt>
      <trkpt lat="47.27888" lon="5.8808">
        <ele>258.4</ele>
        <time>2024-08-03T09:28:58Z</time>
      </trkpt>
      <trkpt lat="47.27884" lon="5.88075">
        <ele>258.4</ele>
        <time>2024-08-03T09:28:59Z</time>
      </trkpt>
      <trkpt lat="47.2788" lon="5.88069">
        <ele>258.2</ele>
        <time>2024-08-03T09:29:00Z</time>
      </trkpt>
      <trkpt lat="47.27876" lon="5.88063">
        <ele>258.2</ele>
        <time>2024-08-03T09:29:01Z</time>
      </trkpt>
      <trkpt lat="47.27872" lon="5.88057">
        <ele>258</ele>
        <time>2024-08-03T09:29:02Z</time>
      </trkpt>
      <trkpt lat="47.27867" lon="5.88051">
        <ele>257.6</ele>
        <time>2024-08-03T09:29:03Z</time>
      </trkpt>
      <trkpt lat="47.27862" lon="5.88043">
        <ele>257.6</ele>
        <time>2024-08-03T09:29:04Z</time>
      </trkpt>
      <trkpt lat="47.27857" lon="5.88037">
        <ele>257.2</ele>
        <time>2024-08-03T09:29:05Z</time>
      </trkpt>
      <trkpt lat="47.27851" lon="5.8803">
        <ele>257.2</ele>
        <time>2024-08-03T09:29:06Z</time>
      </trkpt>
      <trkpt lat="47.27845" lon="5.88021">
        <ele>257</ele>
        <time>2024-08-03T09:29:07Z</time>
      </trkpt>
      <trkpt lat="47.2784" lon="5.88015">
        <ele>256.8</ele>
        <time>2024-08-03T09:29:08Z</time>
      </trkpt>
      <trkpt lat="47.27836" lon="5.88007">
        <ele>256.2</ele>
        <time>2024-08-03T09:29:09Z</time>
      </trkpt>
      <trkpt lat="47.2783" lon="5.87996">
        <ele>255.8</ele>
        <time>2024-08-03T09:29:10Z</time>
      </trkpt>
      <trkpt lat="47.27826" lon="5.87987">
        <ele>255.6</ele>
        <time>2024-08-03T09:29:11Z</time>
      </trkpt>
      <trkpt lat="47.27823" lon="5.87978">
        <ele>255.2</ele>
        <time>2024-08-03T09:29:12Z</time>
      </trkpt>
      <trkpt lat="47.27819" lon="5.8797">
        <ele>254.8</ele>
        <time>2024-08-03T09:29:13Z</time>
      </trkpt>
      <trkpt lat="47.27816" lon="5.87962">
        <ele>254.4</ele>
        <time>2024-08-03T09:29:14Z</time>
      </trkpt>
      <trkpt lat="47.27813" lon="5.87955">
        <ele>254</ele>
        <time>2024-08-03T09:29:15Z</time>
      </trkpt>
      <trkpt lat="47.27811" lon="5.87948">
        <ele>253.6</ele>
        <time>2024-08-03T09:29:16Z</time>
      </trkpt>
      <trkpt lat="47.2781" lon="5.87942">
        <ele>253.2</ele>
        <time>2024-08-03T09:29:17Z</time>
      </trkpt>
      <trkpt lat="47.2781" lon="5.87935">
        <ele>252.8</ele>
        <time>2024-08-03T09:29:18Z</time>
      </trkpt>
      <trkpt lat="47.27812" lon="5.87928">
        <ele>252.4</ele>
        <time>2024-08-03T09:29:19Z</time>
      </trkpt>
      <trkpt lat="47.27812" lon="5.87925">
        <ele>252</ele>
        <time>2024-08-03T09:29:20Z</time>
      </trkpt>
      <trkpt lat="47.27813" lon="5.87922">
        <ele>252</ele>
        <time>2024-08-03T09:29:21Z</time>
      </trkpt>
      <trkpt lat="47.27814" lon="5.8792">
        <ele>251.6</ele>
        <time>2024-08-03T09:29:22Z</time>
      </trkpt>
      <trkpt lat="47.27815" lon="5.87918">
        <ele>251</ele>
        <time>2024-08-03T09:29:23Z</time>
      </trkpt>
      <trkpt lat="47.27816" lon="5.87916">
        <ele>250.6</ele>
        <time>2024-08-03T09:29:24Z</time>
      </trkpt>
      <trkpt lat="47.27817" lon="5.87914">
        <ele>250</ele>
        <time>2024-08-03T09:29:25Z</time>
      </trkpt>
      <trkpt lat="47.27819" lon="5.87912">
        <ele>249.8</ele>
        <time>2024-08-03T09:29:26Z</time>
      </trkpt>
      <trkpt lat="47.27821" lon="5.87909">
        <ele>249.4</ele>
        <time>2024-08-03T09:29:27Z</time>
      </trkpt>
      <trkpt lat="47.27825" lon="5.87906">
        <ele>249.2</ele>
        <time>2024-08-03T09:29:28Z</time>
      </trkpt>
      <trkpt lat="47.27828" lon="5.87903">
        <ele>249.2</ele>
        <time>2024-08-03T09:29:29Z</time>
      </trkpt>
      <trkpt lat="47.27831" lon="5.879">
        <ele>249</ele>
        <time>2024-08-03T09:29:30Z</time>
      </trkpt>
      <trkpt lat="47.27834" lon="5.87897">
        <ele>249</ele>
        <time>2024-08-03T09:29:31Z</time>
      </trkpt>
      <trkpt lat="47.27837" lon="5.87894">
        <ele>249</ele>
        <time>2024-08-03T09:29:32Z</time>
      </trkpt>
      <trkpt lat="47.2784" lon="5.87891">
        <ele>248.8</ele>
        <time>2024-08-03T09:29:33Z</time>
      </trkpt>
      <trkpt lat="47.27843" lon="5.87889">
        <ele>248.8</ele>
        <time>2024-08-03T09:29:34Z</time>
      </trkpt>
      <trkpt lat="47.27846" lon="5.87888">
        <ele>248.4</ele>
        <time>2024-08-03T09:29:35Z</time>
      </trkpt>
      <trkpt lat="47.27849" lon="5.87887">
        <ele>248</ele>
        <time>2024-08-03T09:29:36Z</time>
      </trkpt>
      <trkpt lat="47.27851" lon="5.87887">
        <ele>247.4</ele>
        <time>2024-08-03T09:29:37Z</time>
      </trkpt>
      <trkpt lat="47.27854" lon="5.87886">
        <ele>247</ele>
        <time>2024-08-03T09:29:38Z</time>
      </trkpt>
      <trkpt lat="47.27856" lon="5.87886">
        <ele>246.6</ele>
        <time>2024-08-03T09:29:39Z</time>
      </trkpt>
      <trkpt lat="47.27859" lon="5.87885">
        <ele>246.4</ele>
        <time>2024-08-03T09:29:40Z</time>
      </trkpt>
      <trkpt lat="47.27861" lon="5.87885">
        <ele>246.4</ele>
        <time>2024-08-03T09:29:41Z</time>
      </trkpt>
      <trkpt lat="47.27864" lon="5.87885">
        <ele>246.2</ele>
        <time>2024-08-03T09:29:42Z</time>
      </trkpt>
      <trkpt lat="47.27867" lon="5.87884">
        <ele>246.2</ele>
        <time>2024-08-03T09:29:43Z</time>
      </trkpt>
      <trkpt lat="47.27871" lon="5.87884">
        <ele>246.2</ele>
        <time>2024-08-03T09:29:44Z</time>
      </trkpt>
      <trkpt lat="47.27874" lon="5.87883">
        <ele>246</ele>
        <time>2024-08-03T09:29:45Z</time>
      </trkpt>
      <trkpt lat="47.27877" lon="5.87884">
        <ele>246</ele>
        <time>2024-08-03T09:29:46Z</time>
      </trkpt>
      <trkpt lat="47.2788" lon="5.87883">
        <ele>246</ele>
        <time>2024-08-03T09:29:47Z</time>
      </trkpt>
      <trkpt lat="47.27883" lon="5.87883">
        <ele>246</ele>
        <time>2024-08-03T09:29:48Z</time>
      </trkpt>
      <trkpt lat="47.27886" lon="5.87884">
        <ele>246</ele>
        <time>2024-08-03T09:29:49Z</time>
      </trkpt>
      <trkpt lat="47.27889" lon="5.87884">
        <ele>246</ele>
        <time>2024-08-03T09:29:50Z</time>
      </trkpt>
      <trkpt lat="47.27891" lon="5.87884">
        <ele>245.8</ele>
        <time>2024-08-03T09:29:51Z</time>
      </trkpt>
      <trkpt lat="47.27893" lon="5.87884">
        <ele>245.8</ele>
        <time>2024-08-03T09:29:52Z</time>
      </trkpt>
      <trkpt lat="47.27896" lon="5.87884">
        <ele>246</ele>
        <time>2024-08-03T09:29:53Z</time>
      </trkpt>
      <trkpt lat="47.27899" lon="5.87883">
        <ele>246</ele>
        <time>2024-08-03T09:29:54Z</time>
      </trkpt>
      <trkpt lat="47.27903" lon="5.87882">
        <ele>245.8</ele>
        <time>2024-08-03T09:29:55Z</time>
      </trkpt>
      <trkpt lat="47.27906" lon="5.87882">
        <ele>245.8</ele>
        <time>2024-08-03T09:29:56Z</time>
      </trkpt>
      <trkpt lat="47.2791" lon="5.87882">
        <ele>246</ele>
        <time>2024-08-03T09:29:57Z</time>
      </trkpt>
      <trkpt lat="47.27914" lon="5.87883">
        <ele>246.2</ele>
        <time>2024-08-03T09:29:58Z</time>
      </trkpt>
      <trkpt lat="47.27917" lon="5.87883">
        <ele>246.4</ele>
        <time>2024-08-03T09:29:59Z</time>
      </trkpt>
      <trkpt lat="47.27922" lon="5.87883">
        <ele>246.2</ele>
        <time>2024-08-03T09:30:00Z</time>
      </trkpt>
      <trkpt lat="47.27924" lon="5.87883">
        <ele>246.4</ele>
        <time>2024-08-03T09:30:01Z</time>
      </trkpt>
      <trkpt lat="47.27927" lon="5.87883">
        <ele>246.4</ele>
        <time>2024-08-03T09:30:02Z</time>
      </trkpt>
      <trkpt lat="47.2793" lon="5.87884">
        <ele>246.4</ele>
        <time>2024-08-03T09:30:03Z</time>
      </trkpt>
      <trkpt lat="47.27932" lon="5.87884">
        <ele>246.4</ele>
        <time>2024-08-03T09:30:04Z</time>
      </trkpt>
      <trkpt lat="47.27938" lon="5.87883">
        <ele>246.4</ele>
        <time>2024-08-03T09:30:05Z</time>
      </trkpt>
      <trkpt lat="47.27941" lon="5.87883">
        <ele>246.4</ele>
        <time>2024-08-03T09:30:06Z</time>
      </trkpt>
      <trkpt lat="47.27944" lon="5.87883">
        <ele>246.4</ele>
        <time>2024-08-03T09:30:07Z</time>
      </trkpt>
      <trkpt lat="47.27947" lon="5.87882">
        <ele>246.4</ele>
        <time>2024-08-03T09:30:08Z</time>
      </trkpt>
      <trkpt lat="47.27949" lon="5.87881">
        <ele>246.4</ele>
        <time>2024-08-03T09:30:09Z</time>
      </trkpt>
      <trkpt lat="47.27952" lon="5.8788">
        <ele>246.4</ele>
        <time>2024-08-03T09:30:10Z</time>
      </trkpt>
      <trkpt lat="47.27954" lon="5.87878">
        <ele>246.4</ele>
        <time>2024-08-03T09:30:11Z</time>
      </trkpt>
      <trkpt lat="47.27956" lon="5.87876">
        <ele>246.2</ele>
        <time>2024-08-03T09:30:12Z</time>
      </trkpt>
      <trkpt lat="47.27958" lon="5.87874">
        <ele>246.2</ele>
        <time>2024-08-03T09:30:13Z</time>
      </trkpt>
      <trkpt lat="47.2796" lon="5.87871">
        <ele>246.2</ele>
        <time>2024-08-03T09:30:14Z</time>
      </trkpt>
      <trkpt lat="47.27962" lon="5.87869">
        <ele>246.2</ele>
        <time>2024-08-03T09:30:15Z</time>
      </trkpt>
      <trkpt lat="47.27965" lon="5.87866">
        <ele>246.2</ele>
        <time>2024-08-03T09:30:16Z</time>
      </trkpt>
      <trkpt lat="47.27968" lon="5.87863">
        <ele>246.4</ele>
        <time>2024-08-03T09:30:17Z</time>
      </trkpt>
      <trkpt lat="47.27971" lon="5.87859">
        <ele>246.2</ele>
        <time>2024-08-03T09:30:18Z</time>
      </trkpt>
      <trkpt lat="47.27974" lon="5.87856">
        <ele>246.2</ele>
        <time>2024-08-03T09:30:19Z</time>
      </trkpt>
      <trkpt lat="47.27977" lon="5.87852">
        <ele>246.2</ele>
        <time>2024-08-03T09:30:20Z</time>
      </trkpt>
      <trkpt lat="47.2798" lon="5.87849">
        <ele>246.2</ele>
        <time>2024-08-03T09:30:21Z</time>
      </trkpt>
      <trkpt lat="47.27985" lon="5.87844">
        <ele>246.2</ele>
        <time>2024-08-03T09:30:22Z</time>
      </trkpt>
      <trkpt lat="47.27987" lon="5.87841">
        <ele>246.2</ele>
        <time>2024-08-03T09:30:23Z</time>
      </trkpt>
      <trkpt lat="47.2799" lon="5.8784">
        <ele>246.2</ele>
        <time>2024-08-03T09:30:24Z</time>
      </trkpt>
      <trkpt lat="47.27993" lon="5.87839">
        <ele>246.4</ele>
        <time>2024-08-03T09:30:25Z</time>
      </trkpt>
      <trkpt lat="47.27996" lon="5.87837">
        <ele>246.6</ele>
        <time>2024-08-03T09:30:26Z</time>
      </trkpt>
      <trkpt lat="47.27998" lon="5.87834">
        <ele>246.6</ele>
        <time>2024-08-03T09:30:27Z</time>
      </trkpt>
      <trkpt lat="47.27999" lon="5.87831">
        <ele>246.8</ele>
        <time>2024-08-03T09:30:28Z</time>
      </trkpt>
      <trkpt lat="47.28001" lon="5.87826">
        <ele>246.8</ele>
        <time>2024-08-03T09:30:29Z</time>
      </trkpt>
      <trkpt lat="47.28002" lon="5.87821">
        <ele>246.8</ele>
        <time>2024-08-03T09:30:30Z</time>
      </trkpt>
      <trkpt lat="47.28002" lon="5.87816">
        <ele>246.8</ele>
        <time>2024-08-03T09:30:31Z</time>
      </trkpt>
      <trkpt lat="47.28003" lon="5.87812">
        <ele>246.6</ele>
        <time>2024-08-03T09:30:32Z</time>
      </trkpt>
      <trkpt lat="47.28005" lon="5.87808">
        <ele>246.8</ele>
        <time>2024-08-03T09:30:33Z</time>
      </trkpt>
      <trkpt lat="47.28007" lon="5.87806">
        <ele>246.8</ele>
        <time>2024-08-03T09:30:34Z</time>
      </trkpt>
      <trkpt lat="47.28009" lon="5.87804">
        <ele>246.8</ele>
        <time>2024-08-03T09:30:35Z</time>
      </trkpt>
      <trkpt lat="47.2801" lon="5.87801">
        <ele>246.8</ele>
        <time>2024-08-03T09:30:36Z</time>
      </trkpt>
      <trkpt lat="47.28012" lon="5.87799">
        <ele>246.6</ele>
        <time>2024-08-03T09:30:37Z</time>
      </trkpt>
      <trkpt lat="47.28013" lon="5.87798">
        <ele>246.6</ele>
        <time>2024-08-03T09:30:38Z</time>
      </trkpt>
      <trkpt lat="47.28014" lon="5.87796">
        <ele>246.4</ele>
        <time>2024-08-03T09:30:39Z</time>
      </trkpt>
      <trkpt lat="47.28015" lon="5.87795">
        <ele>245.8</ele>
        <time>2024-08-03T09:30:40Z</time>
      </trkpt>
      <trkpt lat="47.28017" lon="5.87794">
        <ele>245.6</ele>
        <time>2024-08-03T09:30:41Z</time>
      </trkpt>
      <trkpt lat="47.28017" lon="5.87792">
        <ele>245.4</ele>
        <time>2024-08-03T09:30:42Z</time>
      </trkpt>
      <trkpt lat="47.28018" lon="5.87789">
        <ele>245.4</ele>
        <time>2024-08-03T09:30:43Z</time>
      </trkpt>
      <trkpt lat="47.28018" lon="5.87787">
        <ele>245</ele>
        <time>2024-08-03T09:30:44Z</time>
      </trkpt>
      <trkpt lat="47.28018" lon="5.87784">
        <ele>245</ele>
        <time>2024-08-03T09:30:45Z</time>
      </trkpt>
      <trkpt lat="47.28018" lon="5.87781">
        <ele>245</ele>
        <time>2024-08-03T09:30:46Z</time>
      </trkpt>
      <trkpt lat="47.28018" lon="5.87779">
        <ele>244.8</ele>
        <time>2024-08-03T09:30:47Z</time>
      </trkpt>
      <trkpt lat="47.28017" lon="5.87778">
        <ele>244.8</ele>
        <time>2024-08-03T09:30:48Z</time>
      </trkpt>
      <trkpt lat="47.28017" lon="5.87776">
        <ele>244.8</ele>
        <time>2024-08-03T09:30:49Z</time>
      </trkpt>
      <trkpt lat="47.28015" lon="5.87775">
        <ele>244.6</ele>
        <time>2024-08-03T09:30:50Z</time>
      </trkpt>
      <trkpt lat="47.28014" lon="5.87773">
        <ele>244.6</ele>
        <time>2024-08-03T09:30:51Z</time>
      </trkpt>
      <trkpt lat="47.28013" lon="5.87771">
        <ele>244.6</ele>
        <time>2024-08-03T09:30:52Z</time>
      </trkpt>
      <trkpt lat="47.28013" lon="5.87769">
        <ele>244.6</ele>
        <time>2024-08-03T09:30:53Z</time>
      </trkpt>
      <trkpt lat="47.28012" lon="5.87768">
        <ele>244.4</ele>
        <time>2024-08-03T09:30:54Z</time>
      </trkpt>
      <trkpt lat="47.28012" lon="5.87766">
        <ele>244.6</ele>
        <time>2024-08-03T09:30:55Z</time>
      </trkpt>
      <trkpt lat="47.28011" lon="5.87764">
        <ele>244.4</ele>
        <time>2024-08-03T09:30:56Z</time>
      </trkpt>
      <trkpt lat="47.2801" lon="5.87761">
        <ele>244.4</ele>
        <time>2024-08-03T09:30:57Z</time>
      </trkpt>
      <trkpt lat="47.28008" lon="5.8776">
        <ele>244.4</ele>
        <time>2024-08-03T09:30:58Z</time>
      </trkpt>
      <trkpt lat="47.28006" lon="5.87758">
        <ele>244.2</ele>
        <time>2024-08-03T09:30:59Z</time>
      </trkpt>
      <trkpt lat="47.28005" lon="5.87756">
        <ele>244.4</ele>
        <time>2024-08-03T09:31:00Z</time>
      </trkpt>
      <trkpt lat="47.28003" lon="5.87755">
        <ele>244.2</ele>
        <time>2024-08-03T09:31:01Z</time>
      </trkpt>
      <trkpt lat="47.28002" lon="5.87754">
        <ele>244.2</ele>
        <time>2024-08-03T09:31:02Z</time>
      </trkpt>
      <trkpt lat="47.28" lon="5.87753">
        <ele>244.2</ele>
        <time>2024-08-03T09:31:03Z</time>
      </trkpt>
      <trkpt lat="47.27999" lon="5.87753">
        <ele>244.2</ele>
        <time>2024-08-03T09:31:04Z</time>
      </trkpt>
      <trkpt lat="47.27996" lon="5.87752">
        <ele>244.4</ele>
        <time>2024-08-03T09:31:05Z</time>
      </trkpt>
      <trkpt lat="47.27995" lon="5.87752">
        <ele>244.2</ele>
        <time>2024-08-03T09:31:06Z</time>
      </trkpt>
      <trkpt lat="47.27993" lon="5.8775">
        <ele>244.4</ele>
        <time>2024-08-03T09:31:07Z</time>
      </trkpt>
      <trkpt lat="47.27992" lon="5.8775">
        <ele>244.2</ele>
        <time>2024-08-03T09:31:08Z</time>
      </trkpt>
      <trkpt lat="47.27991" lon="5.87749">
        <ele>244.2</ele>
        <time>2024-08-03T09:31:09Z</time>
      </trkpt>
      <trkpt lat="47.2799" lon="5.87749">
        <ele>244.2</ele>
        <time>2024-08-03T09:31:10Z</time>
      </trkpt>
      <trkpt lat="47.27989" lon="5.8775">
        <ele>244.2</ele>
        <time>2024-08-03T09:31:11Z</time>
      </trkpt>
      <trkpt lat="47.27988" lon="5.87751">
        <ele>244.4</ele>
        <time>2024-08-03T09:31:12Z</time>
      </trkpt>
      <trkpt lat="47.27986" lon="5.87751">
        <ele>244.2</ele>
        <time>2024-08-03T09:31:13Z</time>
      </trkpt>
      <trkpt lat="47.27982" lon="5.87752">
        <ele>244.4</ele>
        <time>2024-08-03T09:31:14Z</time>
      </trkpt>
      <trkpt lat="47.2798" lon="5.87753">
        <ele>244.4</ele>
        <time>2024-08-03T09:31:15Z</time>
      </trkpt>
      <trkpt lat="47.27977" lon="5.87754">
        <ele>244.4</ele>
        <time>2024-08-03T09:31:16Z</time>
      </trkpt>
      <trkpt lat="47.27974" lon="5.87755">
        <ele>244.6</ele>
        <time>2024-08-03T09:31:17Z</time>
      </trkpt>
      <trkpt lat="47.27971" lon="5.87756">
        <ele>244.8</ele>
        <time>2024-08-03T09:31:18Z</time>
      </trkpt>
      <trkpt lat="47.27969" lon="5.87757">
        <ele>244.8</ele>
        <time>2024-08-03T09:31:19Z</time>
      </trkpt>
      <trkpt lat="47.27966" lon="5.87759">
        <ele>245</ele>
        <time>2024-08-03T09:31:20Z</time>
      </trkpt>
      <trkpt lat="47.27963" lon="5.87759">
        <ele>245</ele>
        <time>2024-08-03T09:31:21Z</time>
      </trkpt>
      <trkpt lat="47.2796" lon="5.87761">
        <ele>245.2</ele>
        <time>2024-08-03T09:31:22Z</time>
      </trkpt>
      <trkpt lat="47.27957" lon="5.87762">
        <ele>245.2</ele>
        <time>2024-08-03T09:31:23Z</time>
      </trkpt>
      <trkpt lat="47.27954" lon="5.87763">
        <ele>245.2</ele>
        <time>2024-08-03T09:31:24Z</time>
      </trkpt>
      <trkpt lat="47.2795" lon="5.87765">
        <ele>245.4</ele>
        <time>2024-08-03T09:31:25Z</time>
      </trkpt>
      <trkpt lat="47.27947" lon="5.87767">
        <ele>245.4</ele>
        <time>2024-08-03T09:31:26Z</time>
      </trkpt>
      <trkpt lat="47.27944" lon="5.87769">
        <ele>245.6</ele>
        <time>2024-08-03T09:31:27Z</time>
      </trkpt>
      <trkpt lat="47.2794" lon="5.8777">
        <ele>245.4</ele>
        <time>2024-08-03T09:31:28Z</time>
      </trkpt>
      <trkpt lat="47.27937" lon="5.87771">
        <ele>245.6</ele>
        <time>2024-08-03T09:31:29Z</time>
      </trkpt>
      <trkpt lat="47.27933" lon="5.87772">
        <ele>245.6</ele>
        <time>2024-08-03T09:31:30Z</time>
      </trkpt>
      <trkpt lat="47.2793" lon="5.87772">
        <ele>245.6</ele>
        <time>2024-08-03T09:31:31Z</time>
      </trkpt>
      <trkpt lat="47.27927" lon="5.87772">
        <ele>245.6</ele>
        <time>2024-08-03T09:31:32Z</time>
      </trkpt>
      <trkpt lat="47.27924" lon="5.87771">
        <ele>245.6</ele>
        <time>2024-08-03T09:31:33Z</time>
      </trkpt>
      <trkpt lat="47.27922" lon="5.8777">
        <ele>245.6</ele>
        <time>2024-08-03T09:31:34Z</time>
      </trkpt>
      <trkpt lat="47.2792" lon="5.87769">
        <ele>245.8</ele>
        <time>2024-08-03T09:31:35Z</time>
      </trkpt>
      <trkpt lat="47.27918" lon="5.87767">
        <ele>245.8</ele>
        <time>2024-08-03T09:31:36Z</time>
      </trkpt>
      <trkpt lat="47.27916" lon="5.87766">
        <ele>245.6</ele>
        <time>2024-08-03T09:31:37Z</time>
      </trkpt>
      <trkpt lat="47.27914" lon="5.87765">
        <ele>245.8</ele>
        <time>2024-08-03T09:31:38Z</time>
      </trkpt>
      <trkpt lat="47.27911" lon="5.87765">
        <ele>246</ele>
        <time>2024-08-03T09:31:39Z</time>
      </trkpt>
      <trkpt lat="47.27908" lon="5.87764">
        <ele>246</ele>
        <time>2024-08-03T09:31:40Z</time>
      </trkpt>
      <trkpt lat="47.27905" lon="5.87764">
        <ele>246</ele>
        <time>2024-08-03T09:31:41Z</time>
      </trkpt>
      <trkpt lat="47.27901" lon="5.87764">
        <ele>246</ele>
        <time>2024-08-03T09:31:42Z</time>
      </trkpt>
      <trkpt lat="47.27897" lon="5.87766">
        <ele>245.8</ele>
        <time>2024-08-03T09:31:43Z</time>
      </trkpt>
      <trkpt lat="47.27894" lon="5.87766">
        <ele>245.8</ele>
        <time>2024-08-03T09:31:44Z</time>
      </trkpt>
      <trkpt lat="47.27891" lon="5.87767">
        <ele>245.8</ele>
        <time>2024-08-03T09:31:45Z</time>
      </trkpt>
      <trkpt lat="47.27887" lon="5.87769">
        <ele>245.8</ele>
        <time>2024-08-03T09:31:46Z</time>
      </trkpt>
      <trkpt lat="47.27883" lon="5.8777">
        <ele>245.6</ele>
        <time>2024-08-03T09:31:47Z</time>
      </trkpt>
      <trkpt lat="47.2788" lon="5.8777">
        <ele>245.8</ele>
        <time>2024-08-03T09:31:48Z</time>
      </trkpt>
      <trkpt lat="47.27876" lon="5.87771">
        <ele>245.6</ele>
        <time>2024-08-03T09:31:49Z</time>
      </trkpt>
      <trkpt lat="47.27872" lon="5.87771">
        <ele>245.8</ele>
        <time>2024-08-03T09:31:50Z</time>
      </trkpt>
      <trkpt lat="47.27869" lon="5.87771">
        <ele>245.6</ele>
        <time>2024-08-03T09:31:51Z</time>
      </trkpt>
      <trkpt lat="47.27865" lon="5.87771">
        <ele>245.4</ele>
        <time>2024-08-03T09:31:52Z</time>
      </trkpt>
      <trkpt lat="47.2786" lon="5.87771">
        <ele>245.2</ele>
        <time>2024-08-03T09:31:53Z</time>
      </trkpt>
      <trkpt lat="47.27856" lon="5.8777">
        <ele>245.2</ele>
        <time>2024-08-03T09:31:54Z</time>
      </trkpt>
      <trkpt lat="47.27853" lon="5.8777">
        <ele>244.8</ele>
        <time>2024-08-03T09:31:55Z</time>
      </trkpt>
      <trkpt lat="47.2785" lon="5.87769">
        <ele>244.8</ele>
        <time>2024-08-03T09:31:56Z</time>
      </trkpt>
      <trkpt lat="47.27847" lon="5.87768">
        <ele>244.6</ele>
        <time>2024-08-03T09:31:57Z</time>
      </trkpt>
      <trkpt lat="47.27844" lon="5.87767">
        <ele>244.6</ele>
        <time>2024-08-03T09:31:58Z</time>
      </trkpt>
      <trkpt lat="47.27841" lon="5.87768">
        <ele>244.4</ele>
        <time>2024-08-03T09:31:59Z</time>
      </trkpt>
      <trkpt lat="47.27837" lon="5.87768">
        <ele>244.6</ele>
        <time>2024-08-03T09:32:00Z</time>
      </trkpt>
      <trkpt lat="47.27833" lon="5.87768">
        <ele>244.6</ele>
        <time>2024-08-03T09:32:01Z</time>
      </trkpt>
      <trkpt lat="47.2783" lon="5.87767">
        <ele>244.6</ele>
        <time>2024-08-03T09:32:02Z</time>
      </trkpt>
      <trkpt lat="47.27827" lon="5.87766">
        <ele>244.6</ele>
        <time>2024-08-03T09:32:03Z</time>
      </trkpt>
      <trkpt lat="47.27824" lon="5.87765">
        <ele>244.6</ele>
        <time>2024-08-03T09:32:04Z</time>
      </trkpt>
      <trkpt lat="47.27821" lon="5.87763">
        <ele>244.4</ele>
        <time>2024-08-03T09:32:05Z</time>
      </trkpt>
      <trkpt lat="47.27818" lon="5.87761">
        <ele>244.6</ele>
        <time>2024-08-03T09:32:06Z</time>
      </trkpt>
      <trkpt lat="47.27816" lon="5.87759">
        <ele>244.6</ele>
        <time>2024-08-03T09:32:07Z</time>
      </trkpt>
      <trkpt lat="47.27814" lon="5.87756">
        <ele>244.4</ele>
        <time>2024-08-03T09:32:08Z</time>
      </trkpt>
      <trkpt lat="47.27812" lon="5.87754">
        <ele>244.6</ele>
        <time>2024-08-03T09:32:09Z</time>
      </trkpt>
      <trkpt lat="47.2781" lon="5.87752">
        <ele>244.4</ele>
        <time>2024-08-03T09:32:10Z</time>
      </trkpt>
      <trkpt lat="47.27807" lon="5.87749">
        <ele>244.6</ele>
        <time>2024-08-03T09:32:11Z</time>
      </trkpt>
      <trkpt lat="47.27806" lon="5.87747">
        <ele>244.6</ele>
        <time>2024-08-03T09:32:12Z</time>
      </trkpt>
      <trkpt lat="47.27805" lon="5.87745">
        <ele>244.6</ele>
        <time>2024-08-03T09:32:13Z</time>
      </trkpt>
      <trkpt lat="47.27804" lon="5.87742">
        <ele>244.6</ele>
        <time>2024-08-03T09:32:14Z</time>
      </trkpt>
      <trkpt lat="47.27802" lon="5.8774">
        <ele>244.6</ele>
        <time>2024-08-03T09:32:15Z</time>
      </trkpt>
      <trkpt lat="47.27801" lon="5.87736">
        <ele>244.6</ele>
        <time>2024-08-03T09:32:16Z</time>
      </trkpt>
      <trkpt lat="47.27799" lon="5.87732">
        <ele>244.6</ele>
        <time>2024-08-03T09:32:17Z</time>
      </trkpt>
      <trkpt lat="47.27797" lon="5.87727">
        <ele>244.4</ele>
        <time>2024-08-03T09:32:18Z</time>
      </trkpt>
      <trkpt lat="47.27796" lon="5.87723">
        <ele>244.6</ele>
        <time>2024-08-03T09:32:19Z</time>
      </trkpt>
      <trkpt lat="47.27794" lon="5.8772">
        <ele>244.6</ele>
        <time>2024-08-03T09:32:20Z</time>
      </trkpt>
      <trkpt lat="47.27792" lon="5.87718">
        <ele>244.4</ele>
        <time>2024-08-03T09:32:21Z</time>
      </trkpt>
      <trkpt lat="47.27791" lon="5.87716">
        <ele>244.6</ele>
        <time>2024-08-03T09:32:22Z</time>
      </trkpt>
      <trkpt lat="47.27789" lon="5.87713">
        <ele>244.6</ele>
        <time>2024-08-03T09:32:23Z</time>
      </trkpt>
      <trkpt lat="47.27787" lon="5.87712">
        <ele>244.8</ele>
        <time>2024-08-03T09:32:24Z</time>
      </trkpt>
      <trkpt lat="47.27785" lon="5.8771">
        <ele>244.6</ele>
        <time>2024-08-03T09:32:25Z</time>
      </trkpt>
      <trkpt lat="47.27783" lon="5.87709">
        <ele>244.6</ele>
        <time>2024-08-03T09:32:26Z</time>
      </trkpt>
      <trkpt lat="47.27782" lon="5.87708">
        <ele>244.6</ele>
        <time>2024-08-03T09:32:27Z</time>
      </trkpt>
      <trkpt lat="47.2778" lon="5.87706">
        <ele>244.8</ele>
        <time>2024-08-03T09:32:28Z</time>
      </trkpt>
      <trkpt lat="47.27777" lon="5.87703">
        <ele>244.8</ele>
        <time>2024-08-03T09:32:29Z</time>
      </trkpt>
      <trkpt lat="47.27775" lon="5.877">
        <ele>244.8</ele>
        <time>2024-08-03T09:32:30Z</time>
      </trkpt>
      <trkpt lat="47.27773" lon="5.87697">
        <ele>245</ele>
        <time>2024-08-03T09:32:31Z</time>
      </trkpt>
      <trkpt lat="47.2777" lon="5.87694">
        <ele>245</ele>
        <time>2024-08-03T09:32:32Z</time>
      </trkpt>
      <trkpt lat="47.27767" lon="5.87692">
        <ele>245</ele>
        <time>2024-08-03T09:32:33Z</time>
      </trkpt>
      <trkpt lat="47.27765" lon="5.87689">
        <ele>245.2</ele>
        <time>2024-08-03T09:32:34Z</time>
      </trkpt>
      <trkpt lat="47.27764" lon="5.87687">
        <ele>245.4</ele>
        <time>2024-08-03T09:32:35Z</time>
      </trkpt>
      <trkpt lat="47.27761" lon="5.87684">
        <ele>245.4</ele>
        <time>2024-08-03T09:32:36Z</time>
      </trkpt>
      <trkpt lat="47.27757" lon="5.87681">
        <ele>245.4</ele>
        <time>2024-08-03T09:32:37Z</time>
      </trkpt>
      <trkpt lat="47.27756" lon="5.87679">
        <ele>245.4</ele>
        <time>2024-08-03T09:32:38Z</time>
      </trkpt>
      <trkpt lat="47.27753" lon="5.87675">
        <ele>245.6</ele>
        <time>2024-08-03T09:32:39Z</time>
      </trkpt>
      <trkpt lat="47.27751" lon="5.87671">
        <ele>245.4</ele>
        <time>2024-08-03T09:32:40Z</time>
      </trkpt>
      <trkpt lat="47.27748" lon="5.87668">
        <ele>245.4</ele>
        <time>2024-08-03T09:32:41Z</time>
      </trkpt>
      <trkpt lat="47.27746" lon="5.87666">
        <ele>245.6</ele>
        <time>2024-08-03T09:32:42Z</time>
      </trkpt>
      <trkpt lat="47.27744" lon="5.87663">
        <ele>245.4</ele>
        <time>2024-08-03T09:32:43Z</time>
      </trkpt>
      <trkpt lat="47.2774" lon="5.87661">
        <ele>245.6</ele>
        <time>2024-08-03T09:32:44Z</time>
      </trkpt>
      <trkpt lat="47.27737" lon="5.87658">
        <ele>245.6</ele>
        <time>2024-08-03T09:32:45Z</time>
      </trkpt>
      <trkpt lat="47.27734" lon="5.87655">
        <ele>245.4</ele>
        <time>2024-08-03T09:32:46Z</time>
      </trkpt>
      <trkpt lat="47.27732" lon="5.87652">
        <ele>245.6</ele>
        <time>2024-08-03T09:32:47Z</time>
      </trkpt>
      <trkpt lat="47.27729" lon="5.87647">
        <ele>245.6</ele>
        <time>2024-08-03T09:32:48Z</time>
      </trkpt>
      <trkpt lat="47.27726" lon="5.87644">
        <ele>245.4</ele>
        <time>2024-08-03T09:32:49Z</time>
      </trkpt>
      <trkpt lat="47.27723" lon="5.87641">
        <ele>245.4</ele>
        <time>2024-08-03T09:32:50Z</time>
      </trkpt>
      <trkpt lat="47.2772" lon="5.87637">
        <ele>245.6</ele>
        <time>2024-08-03T09:32:51Z</time>
      </trkpt>
      <trkpt lat="47.27718" lon="5.87634">
        <ele>245.6</ele>
        <time>2024-08-03T09:32:52Z</time>
      </trkpt>
      <trkpt lat="47.27717" lon="5.87631">
        <ele>245.6</ele>
        <time>2024-08-03T09:32:53Z</time>
      </trkpt>
      <trkpt lat="47.27714" lon="5.87627">
        <ele>245.6</ele>
        <time>2024-08-03T09:32:54Z</time>
      </trkpt>
      <trkpt lat="47.27712" lon="5.87624">
        <ele>245.6</ele>
        <time>2024-08-03T09:32:55Z</time>
      </trkpt>
      <trkpt lat="47.27709" lon="5.87621">
        <ele>245.4</ele>
        <time>2024-08-03T09:32:56Z</time>
      </trkpt>
      <trkpt lat="47.27706" lon="5.87617">
        <ele>245.4</ele>
        <time>2024-08-03T09:32:57Z</time>
      </trkpt>
      <trkpt lat="47.27703" lon="5.87613">
        <ele>245.4</ele>
        <time>2024-08-03T09:32:58Z</time>
      </trkpt>
      <trkpt lat="47.27699" lon="5.87609">
        <ele>245.4</ele>
        <time>2024-08-03T09:32:59Z</time>
      </trkpt>
      <trkpt lat="47.27695" lon="5.87605">
        <ele>245.4</ele>
        <time>2024-08-03T09:33:00Z</time>
      </trkpt>
      <trkpt lat="47.27692" lon="5.87601">
        <ele>245.6</ele>
        <time>2024-08-03T09:33:01Z</time>
      </trkpt>
      <trkpt lat="47.27689" lon="5.87597">
        <ele>245.6</ele>
        <time>2024-08-03T09:33:02Z</time>
      </trkpt>
      <trkpt lat="47.27687" lon="5.87593">
        <ele>245.4</ele>
        <time>2024-08-03T09:33:03Z</time>
      </trkpt>
      <trkpt lat="47.27685" lon="5.87586">
        <ele>245.6</ele>
        <time>2024-08-03T09:33:04Z</time>
      </trkpt>
      <trkpt lat="47.27683" lon="5.8758">
        <ele>245.6</ele>
        <time>2024-08-03T09:33:05Z</time>
      </trkpt>
      <trkpt lat="47.27678" lon="5.87572">
        <ele>245.4</ele>
        <time>2024-08-03T09:33:06Z</time>
      </trkpt>
      <trkpt lat="47.27676" lon="5.87567">
        <ele>245.6</ele>
        <time>2024-08-03T09:33:07Z</time>
      </trkpt>
      <trkpt lat="47.27674" lon="5.87562">
        <ele>245.4</ele>
        <time>2024-08-03T09:33:08Z</time>
      </trkpt>
      <trkpt lat="47.27672" lon="5.87558">
        <ele>245.4</ele>
        <time>2024-08-03T09:33:09Z</time>
      </trkpt>
      <trkpt lat="47.27669" lon="5.87553">
        <ele>245.4</ele>
        <time>2024-08-03T09:33:10Z</time>
      </trkpt>
      <trkpt lat="47.27667" lon="5.8755">
        <ele>245.4</ele>
        <time>2024-08-03T09:33:11Z</time>
      </trkpt>
      <trkpt lat="47.27662" lon="5.87549">
        <ele>245.6</ele>
        <time>2024-08-03T09:33:12Z</time>
      </trkpt>
      <trkpt lat="47.27657" lon="5.87547">
        <ele>245.2</ele>
        <time>2024-08-03T09:33:13Z</time>
      </trkpt>
      <trkpt lat="47.27648" lon="5.87543">
        <ele>245.4</ele>
        <time>2024-08-03T09:33:14Z</time>
      </trkpt>
      <trkpt lat="47.27643" lon="5.87542">
        <ele>245.4</ele>
        <time>2024-08-03T09:33:15Z</time>
      </trkpt>
      <trkpt lat="47.27636" lon="5.8754">
        <ele>245.4</ele>
        <time>2024-08-03T09:33:16Z</time>
      </trkpt>
      <trkpt lat="47.27631" lon="5.87538">
        <ele>245.2</ele>
        <time>2024-08-03T09:33:17Z</time>
      </trkpt>
      <trkpt lat="47.27624" lon="5.87535">
        <ele>245.2</ele>
        <time>2024-08-03T09:33:18Z</time>
      </trkpt>
      <trkpt lat="47.2762" lon="5.87533">
        <ele>245.2</ele>
        <time>2024-08-03T09:33:19Z</time>
      </trkpt>
      <trkpt lat="47.27615" lon="5.87532">
        <ele>245.2</ele>
        <time>2024-08-03T09:33:20Z</time>
      </trkpt>
      <trkpt lat="47.27611" lon="5.8753">
        <ele>245.2</ele>
        <time>2024-08-03T09:33:21Z</time>
      </trkpt>
      <trkpt lat="47.27605" lon="5.87528">
        <ele>245.2</ele>
        <time>2024-08-03T09:33:22Z</time>
      </trkpt>
      <trkpt lat="47.27601" lon="5.87525">
        <ele>245.2</ele>
        <time>2024-08-03T09:33:23Z</time>
      </trkpt>
      <trkpt lat="47.27595" lon="5.87521">
        <ele>245.2</ele>
        <time>2024-08-03T09:33:24Z</time>
      </trkpt>
      <trkpt lat="47.2759" lon="5.87518">
        <ele>245.2</ele>
        <time>2024-08-03T09:33:25Z</time>
      </trkpt>
      <trkpt lat="47.27584" lon="5.87514">
        <ele>245.2</ele>
        <time>2024-08-03T09:33:26Z</time>
      </trkpt>
      <trkpt lat="47.27579" lon="5.8751">
        <ele>245</ele>
        <time>2024-08-03T09:33:27Z</time>
      </trkpt>
      <trkpt lat="47.27573" lon="5.87506">
        <ele>245</ele>
        <time>2024-08-03T09:33:28Z</time>
      </trkpt>
      <trkpt lat="47.27568" lon="5.87503">
        <ele>245</ele>
        <time>2024-08-03T09:33:29Z</time>
      </trkpt>
      <trkpt lat="47.27562" lon="5.875">
        <ele>245</ele>
        <time>2024-08-03T09:33:30Z</time>
      </trkpt>
      <trkpt lat="47.27557" lon="5.87498">
        <ele>244.6</ele>
        <time>2024-08-03T09:33:31Z</time>
      </trkpt>
      <trkpt lat="47.27551" lon="5.87495">
        <ele>244.6</ele>
        <time>2024-08-03T09:33:32Z</time>
      </trkpt>
      <trkpt lat="47.27546" lon="5.87492">
        <ele>244.4</ele>
        <time>2024-08-03T09:33:33Z</time>
      </trkpt>
      <trkpt lat="47.2754" lon="5.8749">
        <ele>244.2</ele>
        <time>2024-08-03T09:33:34Z</time>
      </trkpt>
      <trkpt lat="47.27535" lon="5.87488">
        <ele>244.2</ele>
        <time>2024-08-03T09:33:35Z</time>
      </trkpt>
      <trkpt lat="47.27529" lon="5.87486">
        <ele>244.2</ele>
        <time>2024-08-03T09:33:36Z</time>
      </trkpt>
      <trkpt lat="47.27524" lon="5.87483">
        <ele>244</ele>
        <time>2024-08-03T09:33:37Z</time>
      </trkpt>
      <trkpt lat="47.27519" lon="5.8748">
        <ele>244</ele>
        <time>2024-08-03T09:33:38Z</time>
      </trkpt>
      <trkpt lat="47.27513" lon="5.87477">
        <ele>243.8</ele>
        <time>2024-08-03T09:33:39Z</time>
      </trkpt>
      <trkpt lat="47.27508" lon="5.87474">
        <ele>243.8</ele>
        <time>2024-08-03T09:33:40Z</time>
      </trkpt>
      <trkpt lat="47.27502" lon="5.87472">
        <ele>243.8</ele>
        <time>2024-08-03T09:33:41Z</time>
      </trkpt>
      <trkpt lat="47.27496" lon="5.87469">
        <ele>243.8</ele>
        <time>2024-08-03T09:33:42Z</time>
      </trkpt>
      <trkpt lat="47.2749" lon="5.87466">
        <ele>243.6</ele>
        <time>2024-08-03T09:33:43Z</time>
      </trkpt>
      <trkpt lat="47.27484" lon="5.87464">
        <ele>243.4</ele>
        <time>2024-08-03T09:33:44Z</time>
      </trkpt>
      <trkpt lat="47.27478" lon="5.87462">
        <ele>243.4</ele>
        <time>2024-08-03T09:33:45Z</time>
      </trkpt>
      <trkpt lat="47.27473" lon="5.87461">
        <ele>243</ele>
        <time>2024-08-03T09:33:46Z</time>
      </trkpt>
      <trkpt lat="47.27467" lon="5.87461">
        <ele>242.8</ele>
        <time>2024-08-03T09:33:47Z</time>
      </trkpt>
      <trkpt lat="47.27461" lon="5.8746">
        <ele>242.6</ele>
        <time>2024-08-03T09:33:48Z</time>
      </trkpt>
      <trkpt lat="47.27455" lon="5.8746">
        <ele>242.6</ele>
        <time>2024-08-03T09:33:49Z</time>
      </trkpt>
      <trkpt lat="47.27449" lon="5.8746">
        <ele>242.4</ele>
        <time>2024-08-03T09:33:50Z</time>
      </trkpt>
      <trkpt lat="47.27443" lon="5.8746">
        <ele>242.2</ele>
        <time>2024-08-03T09:33:51Z</time>
      </trkpt>
      <trkpt lat="47.27437" lon="5.8746">
        <ele>242.2</ele>
        <time>2024-08-03T09:33:52Z</time>
      </trkpt>
      <trkpt lat="47.27431" lon="5.87461">
        <ele>242</ele>
        <time>2024-08-03T09:33:53Z</time>
      </trkpt>
      <trkpt lat="47.27425" lon="5.87463">
        <ele>241.8</ele>
        <time>2024-08-03T09:33:54Z</time>
      </trkpt>
      <trkpt lat="47.27419" lon="5.87466">
        <ele>241.6</ele>
        <time>2024-08-03T09:33:55Z</time>
      </trkpt>
      <trkpt lat="47.27413" lon="5.87468">
        <ele>241.4</ele>
        <time>2024-08-03T09:33:56Z</time>
      </trkpt>
      <trkpt lat="47.27408" lon="5.87472">
        <ele>241.2</ele>
        <time>2024-08-03T09:33:57Z</time>
      </trkpt>
      <trkpt lat="47.27404" lon="5.87476">
        <ele>241</ele>
        <time>2024-08-03T09:33:58Z</time>
      </trkpt>
      <trkpt lat="47.274" lon="5.8748">
        <ele>240.8</ele>
        <time>2024-08-03T09:33:59Z</time>
      </trkpt>
      <trkpt lat="47.27395" lon="5.87485">
        <ele>240.6</ele>
        <time>2024-08-03T09:34:00Z</time>
      </trkpt>
      <trkpt lat="47.27391" lon="5.8749">
        <ele>240.4</ele>
        <time>2024-08-03T09:34:01Z</time>
      </trkpt>
      <trkpt lat="47.27387" lon="5.87494">
        <ele>240.4</ele>
        <time>2024-08-03T09:34:02Z</time>
      </trkpt>
      <trkpt lat="47.27383" lon="5.87499">
        <ele>240.4</ele>
        <time>2024-08-03T09:34:03Z</time>
      </trkpt>
      <trkpt lat="47.27379" lon="5.87505">
        <ele>240.4</ele>
        <time>2024-08-03T09:34:04Z</time>
      </trkpt>
      <trkpt lat="47.27375" lon="5.8751">
        <ele>240.4</ele>
        <time>2024-08-03T09:34:05Z</time>
      </trkpt>
      <trkpt lat="47.27371" lon="5.87515">
        <ele>240.2</ele>
        <time>2024-08-03T09:34:06Z</time>
      </trkpt>
      <trkpt lat="47.27367" lon="5.8752">
        <ele>240.2</ele>
        <time>2024-08-03T09:34:07Z</time>
      </trkpt>
      <trkpt lat="47.27364" lon="5.87526">
        <ele>240.2</ele>
        <time>2024-08-03T09:34:08Z</time>
      </trkpt>
      <trkpt lat="47.2736" lon="5.87531">
        <ele>240</ele>
        <time>2024-08-03T09:34:09Z</time>
      </trkpt>
      <trkpt lat="47.27356" lon="5.87536">
        <ele>240.2</ele>
        <time>2024-08-03T09:34:10Z</time>
      </trkpt>
      <trkpt lat="47.27352" lon="5.87542">
        <ele>240.2</ele>
        <time>2024-08-03T09:34:11Z</time>
      </trkpt>
      <trkpt lat="47.27348" lon="5.87547">
        <ele>240</ele>
        <time>2024-08-03T09:34:12Z</time>
      </trkpt>
      <trkpt lat="47.27344" lon="5.87553">
        <ele>240</ele>
        <time>2024-08-03T09:34:13Z</time>
      </trkpt>
      <trkpt lat="47.27339" lon="5.87559">
        <ele>240</ele>
        <time>2024-08-03T09:34:14Z</time>
      </trkpt>
      <trkpt lat="47.27334" lon="5.87566">
        <ele>240</ele>
        <time>2024-08-03T09:34:15Z</time>
      </trkpt>
      <trkpt lat="47.2733" lon="5.87574">
        <ele>240</ele>
        <time>2024-08-03T09:34:16Z</time>
      </trkpt>
      <trkpt lat="47.27327" lon="5.87584">
        <ele>240</ele>
        <time>2024-08-03T09:34:17Z</time>
      </trkpt>
      <trkpt lat="47.27324" lon="5.87592">
        <ele>240.2</ele>
        <time>2024-08-03T09:34:18Z</time>
      </trkpt>
      <trkpt lat="47.2732" lon="5.87601">
        <ele>240</ele>
        <time>2024-08-03T09:34:19Z</time>
      </trkpt>
      <trkpt lat="47.27317" lon="5.87608">
        <ele>239.8</ele>
        <time>2024-08-03T09:34:20Z</time>
      </trkpt>
      <trkpt lat="47.27313" lon="5.87615">
        <ele>239.8</ele>
        <time>2024-08-03T09:34:21Z</time>
      </trkpt>
      <trkpt lat="47.2731" lon="5.87623">
        <ele>239.6</ele>
        <time>2024-08-03T09:34:22Z</time>
      </trkpt>
      <trkpt lat="47.27306" lon="5.87632">
        <ele>239.6</ele>
        <time>2024-08-03T09:34:23Z</time>
      </trkpt>
      <trkpt lat="47.27304" lon="5.8764">
        <ele>239.4</ele>
        <time>2024-08-03T09:34:24Z</time>
      </trkpt>
      <trkpt lat="47.273" lon="5.87649">
        <ele>239.2</ele>
        <time>2024-08-03T09:34:25Z</time>
      </trkpt>
      <trkpt lat="47.27297" lon="5.87657">
        <ele>239.2</ele>
        <time>2024-08-03T09:34:26Z</time>
      </trkpt>
      <trkpt lat="47.27293" lon="5.87665">
        <ele>239</ele>
        <time>2024-08-03T09:34:27Z</time>
      </trkpt>
      <trkpt lat="47.27289" lon="5.8767">
        <ele>239</ele>
        <time>2024-08-03T09:34:28Z</time>
      </trkpt>
      <trkpt lat="47.27283" lon="5.87674">
        <ele>239</ele>
        <time>2024-08-03T09:34:29Z</time>
      </trkpt>
      <trkpt lat="47.27278" lon="5.87675">
        <ele>238.8</ele>
        <time>2024-08-03T09:34:30Z</time>
      </trkpt>
      <trkpt lat="47.27273" lon="5.87676">
        <ele>239</ele>
        <time>2024-08-03T09:34:31Z</time>
      </trkpt>
      <trkpt lat="47.27268" lon="5.87676">
        <ele>239</ele>
        <time>2024-08-03T09:34:32Z</time>
      </trkpt>
      <trkpt lat="47.27263" lon="5.87676">
        <ele>238.8</ele>
        <time>2024-08-03T09:34:33Z</time>
      </trkpt>
      <trkpt lat="47.27258" lon="5.87675">
        <ele>238.8</ele>
        <time>2024-08-03T09:34:34Z</time>
      </trkpt>
      <trkpt lat="47.27254" lon="5.87675">
        <ele>239</ele>
        <time>2024-08-03T09:34:35Z</time>
      </trkpt>
      <trkpt lat="47.2725" lon="5.87675">
        <ele>239</ele>
        <time>2024-08-03T09:34:36Z</time>
      </trkpt>
      <trkpt lat="47.27247" lon="5.87675">
        <ele>239</ele>
        <time>2024-08-03T09:34:37Z</time>
      </trkpt>
      <trkpt lat="47.27244" lon="5.87676">
        <ele>239</ele>
        <time>2024-08-03T09:34:38Z</time>
      </trkpt>
      <trkpt lat="47.27242" lon="5.87677">
        <ele>239.2</ele>
        <time>2024-08-03T09:34:39Z</time>
      </trkpt>
      <trkpt lat="47.27239" lon="5.87678">
        <ele>239.2</ele>
        <time>2024-08-03T09:34:40Z</time>
      </trkpt>
      <trkpt lat="47.27237" lon="5.87679">
        <ele>239.6</ele>
        <time>2024-08-03T09:34:41Z</time>
      </trkpt>
      <trkpt lat="47.27236" lon="5.87681">
        <ele>239.8</ele>
        <time>2024-08-03T09:34:42Z</time>
      </trkpt>
      <trkpt lat="47.27235" lon="5.87684">
        <ele>240</ele>
        <time>2024-08-03T09:34:43Z</time>
      </trkpt>
      <trkpt lat="47.27235" lon="5.87688">
        <ele>240.2</ele>
        <time>2024-08-03T09:34:44Z</time>
      </trkpt>
      <trkpt lat="47.27236" lon="5.87692">
        <ele>240.4</ele>
        <time>2024-08-03T09:34:45Z</time>
      </trkpt>
      <trkpt lat="47.27236" lon="5.87695">
        <ele>240.8</ele>
        <time>2024-08-03T09:34:46Z</time>
      </trkpt>
      <trkpt lat="47.27236" lon="5.87697">
        <ele>240.8</ele>
        <time>2024-08-03T09:34:47Z</time>
      </trkpt>
      <trkpt lat="47.27236" lon="5.87699">
        <ele>240.8</ele>
        <time>2024-08-03T09:34:48Z</time>
      </trkpt>
      <trkpt lat="47.27235" lon="5.87701">
        <ele>241.2</ele>
        <time>2024-08-03T09:34:49Z</time>
      </trkpt>
      <trkpt lat="47.27235" lon="5.87702">
        <ele>241.4</ele>
        <time>2024-08-03T09:34:50Z</time>
      </trkpt>
      <trkpt lat="47.27235" lon="5.87702">
        <ele>241.4</ele>
        <time>2024-08-03T09:34:51Z</time>
      </trkpt>
      <trkpt lat="47.27234" lon="5.87703">
        <ele>241.4</ele>
        <time>2024-08-03T09:34:52Z</time>
      </trkpt>
      <trkpt lat="47.27234" lon="5.87703">
        <ele>241.6</ele>
        <time>2024-08-03T09:34:53Z</time>
      </trkpt>
      <trkpt lat="47.27234" lon="5.87703">
        <ele>241.4</ele>
        <time>2024-08-03T09:34:54Z</time>
      </trkpt>
      <trkpt lat="47.27234" lon="5.87703">
        <ele>241.4</ele>
        <time>2024-08-03T09:34:55Z</time>
      </trkpt>
      <trkpt lat="47.27235" lon="5.87703">
        <ele>241.4</ele>
        <time>2024-08-03T09:34:56Z</time>
      </trkpt>
      <trkpt lat="47.27236" lon="5.87702">
        <ele>241.4</ele>
        <time>2024-08-03T09:34:57Z</time>
      </trkpt>
      <trkpt lat="47.27236" lon="5.87703">
        <ele>241.6</ele>
        <time>2024-08-03T09:34:58Z</time>
      </trkpt>
      <trkpt lat="47.27236" lon="5.87703">
        <ele>241.4</ele>
        <time>2024-08-03T09:34:59Z</time>
      </trkpt>
      <trkpt lat="47.27235" lon="5.87704">
        <ele>241.4</ele>
        <time>2024-08-03T09:35:00Z</time>
      </trkpt>
      <trkpt lat="47.27235" lon="5.87704">
        <ele>241.4</ele>
        <time>2024-08-03T09:35:01Z</time>
      </trkpt>
      <trkpt lat="47.27235" lon="5.87703">
        <ele>241.4</ele>
        <time>2024-08-03T09:35:02Z</time>
      </trkpt>
      <trkpt lat="47.27235" lon="5.87703">
        <ele>241.4</ele>
        <time>2024-08-03T09:35:03Z</time>
      </trkpt>
      <trkpt lat="47.27235" lon="5.87703">
        <ele>241.2</ele>
        <time>2024-08-03T09:35:04Z</time>
      </trkpt>
      <trkpt lat="47.27235" lon="5.87701">
        <ele>241.2</ele>
        <time>2024-08-03T09:35:05Z</time>
      </trkpt>
      <trkpt lat="47.27235" lon="5.87701">
        <ele>241.4</ele>
        <time>2024-08-03T09:35:06Z</time>
      </trkpt>
      <trkpt lat="47.27234" lon="5.877">
        <ele>241.2</ele>
        <time>2024-08-03T09:35:07Z</time>
      </trkpt>
      <trkpt lat="47.27234" lon="5.877">
        <ele>241.4</ele>
        <time>2024-08-03T09:35:08Z</time>
      </trkpt>
      <trkpt lat="47.27234" lon="5.877">
        <ele>241.4</ele>
        <time>2024-08-03T09:35:09Z</time>
      </trkpt>
      <trkpt lat="47.27234" lon="5.877">
        <ele>241.4</ele>
        <time>2024-08-03T09:35:10Z</time>
      </trkpt>
      <trkpt lat="47.27234" lon="5.877">
        <ele>241.2</ele>
        <time>2024-08-03T09:35:11Z</time>
      </trkpt>
      <trkpt lat="47.27234" lon="5.877">
        <ele>241.2</ele>
        <time>2024-08-03T09:35:12Z</time>
      </trkpt>
      <trkpt lat="47.27234" lon="5.877">
        <ele>241.2</ele>
        <time>2024-08-03T09:35:13Z</time>
      </trkpt>
      <trkpt lat="47.27234" lon="5.877">
        <ele>241.4</ele>
        <time>2024-08-03T09:35:14Z</time>
      </trkpt>
      <trkpt lat="47.27234" lon="5.877">
        <ele>241.4</ele>
        <time>2024-08-03T09:35:15Z</time>
      </trkpt>
      <trkpt lat="47.27234" lon="5.877">
        <ele>241.2</ele>
        <time>2024-08-03T09:35:16Z</time>
      </trkpt>
      <trkpt lat="47.27234" lon="5.877">
        <ele>241.2</ele>
        <time>2024-08-03T09:35:17Z</time>
      </trkpt>
      <trkpt lat="47.27234" lon="5.877">
        <ele>241.2</ele>
        <time>2024-08-03T09:35:18Z</time>
      </trkpt>
      <trkpt lat="47.27234" lon="5.877">
        <ele>241.4</ele>
        <time>2024-08-03T09:35:19Z</time>
      </trkpt>
      <trkpt lat="47.27234" lon="5.877">
        <ele>241.4</ele>
        <time>2024-08-03T09:35:20Z</time>
      </trkpt>
      <trkpt lat="47.27235" lon="5.877">
        <ele>241.2</ele>
        <time>2024-08-03T09:35:21Z</time>
      </trkpt>
      <trkpt lat="47.27235" lon="5.877">
        <ele>241.2</ele>
        <time>2024-08-03T09:35:22Z</time>
      </trkpt>
      <trkpt lat="47.27236" lon="5.87701">
        <ele>241.2</ele>
        <time>2024-08-03T09:35:23Z</time>
      </trkpt>
      <trkpt lat="47.27236" lon="5.87702">
        <ele>241.2</ele>
        <time>2024-08-03T09:35:24Z</time>
      </trkpt>
      <trkpt lat="47.27237" lon="5.87702">
        <ele>241.2</ele>
        <time>2024-08-03T09:35:25Z</time>
      </trkpt>
      <trkpt lat="47.27237" lon="5.87703">
        <ele>241.4</ele>
        <time>2024-08-03T09:35:26Z</time>
      </trkpt>
      <trkpt lat="47.27237" lon="5.87705">
        <ele>241.2</ele>
        <time>2024-08-03T09:35:27Z</time>
      </trkpt>
      <trkpt lat="47.27237" lon="5.87706">
        <ele>241.2</ele>
        <time>2024-08-03T09:35:28Z</time>
      </trkpt>
      <trkpt lat="47.27237" lon="5.87707">
        <ele>241.2</ele>
        <time>2024-08-03T09:35:29Z</time>
      </trkpt>
      <trkpt lat="47.27237" lon="5.87709">
        <ele>241.2</ele>
        <time>2024-08-03T09:35:30Z</time>
      </trkpt>
      <trkpt lat="47.27236" lon="5.8771">
        <ele>241.2</ele>
        <time>2024-08-03T09:35:31Z</time>
      </trkpt>
      <trkpt lat="47.27235" lon="5.87712">
        <ele>241.2</ele>
        <time>2024-08-03T09:35:32Z</time>
      </trkpt>
      <trkpt lat="47.27234" lon="5.87713">
        <ele>241.2</ele>
        <time>2024-08-03T09:35:33Z</time>
      </trkpt>
      <trkpt lat="47.27233" lon="5.87714">
        <ele>241.2</ele>
        <time>2024-08-03T09:35:34Z</time>
      </trkpt>
      <trkpt lat="47.27232" lon="5.87715">
        <ele>241</ele>
        <time>2024-08-03T09:35:35Z</time>
      </trkpt>
      <trkpt lat="47.2723" lon="5.87716">
        <ele>241</ele>
        <time>2024-08-03T09:35:36Z</time>
      </trkpt>
      <trkpt lat="47.27228" lon="5.87717">
        <ele>241.2</ele>
        <time>2024-08-03T09:35:37Z</time>
      </trkpt>
      <trkpt lat="47.27226" lon="5.87718">
        <ele>241</ele>
        <time>2024-08-03T09:35:38Z</time>
      </trkpt>
      <trkpt lat="47.27225" lon="5.87719">
        <ele>241.2</ele>
        <time>2024-08-03T09:35:39Z</time>
      </trkpt>
      <trkpt lat="47.27223" lon="5.87721">
        <ele>241</ele>
        <time>2024-08-03T09:35:40Z</time>
      </trkpt>
      <trkpt lat="47.27221" lon="5.87722">
        <ele>241</ele>
        <time>2024-08-03T09:35:41Z</time>
      </trkpt>
      <trkpt lat="47.2722" lon="5.87722">
        <ele>241.2</ele>
        <time>2024-08-03T09:35:42Z</time>
      </trkpt>
      <trkpt lat="47.27219" lon="5.87722">
        <ele>241</ele>
        <time>2024-08-03T09:35:43Z</time>
      </trkpt>
      <trkpt lat="47.27217" lon="5.87722">
        <ele>241</ele>
        <time>2024-08-03T09:35:44Z</time>
      </trkpt>
      <trkpt lat="47.27217" lon="5.87722">
        <ele>241</ele>
        <time>2024-08-03T09:35:45Z</time>
      </trkpt>
      <trkpt lat="47.27216" lon="5.87723">
        <ele>241</ele>
        <time>2024-08-03T09:35:46Z</time>
      </trkpt>
      <trkpt lat="47.27216" lon="5.87723">
        <ele>241</ele>
        <time>2024-08-03T09:35:47Z</time>
      </trkpt>
      <trkpt lat="47.27216" lon="5.87722">
        <ele>241.2</ele>
        <time>2024-08-03T09:35:48Z</time>
      </trkpt>
      <trkpt lat="47.27216" lon="5.87722">
        <ele>241.2</ele>
        <time>2024-08-03T09:35:49Z</time>
      </trkpt>
      <trkpt lat="47.27215" lon="5.87722">
        <ele>241.2</ele>
        <time>2024-08-03T09:35:50Z</time>
      </trkpt>
      <trkpt lat="47.27215" lon="5.87722">
        <ele>241</ele>
        <time>2024-08-03T09:35:51Z</time>
      </trkpt>
      <trkpt lat="47.27215" lon="5.87722">
        <ele>241.2</ele>
        <time>2024-08-03T09:35:52Z</time>
      </trkpt>
      <trkpt lat="47.27215" lon="5.87722">
        <ele>241.2</ele>
        <time>2024-08-03T09:35:53Z</time>
      </trkpt>
      <trkpt lat="47.27215" lon="5.87722">
        <ele>241.2</ele>
        <time>2024-08-03T09:35:54Z</time>
      </trkpt>
      <trkpt lat="47.27214" lon="5.87722">
        <ele>241.4</ele>
        <time>2024-08-03T09:35:55Z</time>
      </trkpt>
      <trkpt lat="47.27214" lon="5.87721">
        <ele>241.4</ele>
        <time>2024-08-03T09:35:56Z</time>
      </trkpt>
      <trkpt lat="47.27214" lon="5.87721">
        <ele>241.4</ele>
        <time>2024-08-03T09:35:57Z</time>
      </trkpt>
      <trkpt lat="47.27214" lon="5.87721">
        <ele>241.4</ele>
        <time>2024-08-03T09:35:58Z</time>
      </trkpt>
      <trkpt lat="47.27214" lon="5.87721">
        <ele>241.6</ele>
        <time>2024-08-03T09:35:59Z</time>
      </trkpt>
      <trkpt lat="47.27214" lon="5.87721">
        <ele>241.4</ele>
        <time>2024-08-03T09:36:00Z</time>
      </trkpt>
      <trkpt lat="47.27214" lon="5.87721">
        <ele>241.6</ele>
        <time>2024-08-03T09:36:01Z</time>
      </trkpt>
      <trkpt lat="47.27214" lon="5.87721">
        <ele>241.6</ele>
        <time>2024-08-03T09:36:02Z</time>
      </trkpt>
      <trkpt lat="47.27214" lon="5.87721">
        <ele>241.6</ele>
        <time>2024-08-03T09:36:03Z</time>
      </trkpt>
      <trkpt lat="47.27214" lon="5.87721">
        <ele>241.6</ele>
        <time>2024-08-03T09:36:04Z</time>
      </trkpt>
      <trkpt lat="47.27214" lon="5.87721">
        <ele>241.6</ele>
        <time>2024-08-03T09:36:05Z</time>
      </trkpt>
      <trkpt lat="47.27214" lon="5.87721">
        <ele>241.6</ele>
        <time>2024-08-03T09:36:06Z</time>
      </trkpt>
      <trkpt lat="47.27214" lon="5.8772">
        <ele>241.6</ele>
        <time>2024-08-03T09:36:07Z</time>
      </trkpt>
      <trkpt lat="47.27213" lon="5.8772">
        <ele>241.6</ele>
        <time>2024-08-03T09:36:08Z</time>
      </trkpt>
      <trkpt lat="47.27213" lon="5.8772">
        <ele>241.4</ele>
        <time>2024-08-03T09:36:09Z</time>
      </trkpt>
      <trkpt lat="47.27213" lon="5.8772">
        <ele>241.6</ele>
        <time>2024-08-03T09:36:10Z</time>
      </trkpt>
      <trkpt lat="47.27213" lon="5.8772">
        <ele>241.6</ele>
        <time>2024-08-03T09:36:11Z</time>
      </trkpt>
      <trkpt lat="47.27212" lon="5.8772">
        <ele>241.6</ele>
        <time>2024-08-03T09:36:12Z</time>
      </trkpt>
      <trkpt lat="47.27212" lon="5.8772">
        <ele>241.6</ele>
        <time>2024-08-03T09:36:13Z</time>
      </trkpt>
      <trkpt lat="47.27212" lon="5.8772">
        <ele>241.4</ele>
        <time>2024-08-03T09:36:14Z</time>
      </trkpt>
      <trkpt lat="47.27212" lon="5.8772">
        <ele>241.4</ele>
        <time>2024-08-03T09:36:15Z</time>
      </trkpt>
      <trkpt lat="47.27212" lon="5.8772">
        <ele>241.4</ele>
        <time>2024-08-03T09:36:16Z</time>
      </trkpt>
      <trkpt lat="47.27212" lon="5.8772">
        <ele>241.4</ele>
        <time>2024-08-03T09:36:17Z</time>
      </trkpt>
      <trkpt lat="47.27212" lon="5.8772">
        <ele>241.6</ele>
        <time>2024-08-03T09:36:18Z</time>
      </trkpt>
      <trkpt lat="47.27212" lon="5.8772">
        <ele>241.6</ele>
        <time>2024-08-03T09:36:19Z</time>
      </trkpt>
      <trkpt lat="47.27212" lon="5.8772">
        <ele>241.4</ele>
        <time>2024-08-03T09:36:20Z</time>
      </trkpt>
      <trkpt lat="47.27212" lon="5.8772">
        <ele>241.4</ele>
        <time>2024-08-03T09:36:21Z</time>
      </trkpt>
      <trkpt lat="47.27212" lon="5.8772">
        <ele>241.4</ele>
        <time>2024-08-03T09:36:22Z</time>
      </trkpt>
      <trkpt lat="47.27212" lon="5.8772">
        <ele>241.6</ele>
        <time>2024-08-03T09:36:23Z</time>
      </trkpt>
      <trkpt lat="47.27212" lon="5.8772">
        <ele>241.4</ele>
        <time>2024-08-03T09:36:24Z</time>
      </trkpt>
      <trkpt lat="47.27212" lon="5.8772">
        <ele>241.4</ele>
        <time>2024-08-03T09:36:25Z</time>
      </trkpt>
      <trkpt lat="47.27211" lon="5.8772">
        <ele>241.4</ele>
        <time>2024-08-03T09:36:26Z</time>
      </trkpt>
      <trkpt lat="47.27211" lon="5.8772">
        <ele>241.4</ele>
        <time>2024-08-03T09:36:27Z</time>
      </trkpt>
      <trkpt lat="47.27211" lon="5.87719">
        <ele>241.4</ele>
        <time>2024-08-03T09:36:28Z</time>
      </trkpt>
      <trkpt lat="47.27211" lon="5.87718">
        <ele>241.4</ele>
        <time>2024-08-03T09:36:29Z</time>
      </trkpt>
      <trkpt lat="47.27211" lon="5.87718">
        <ele>241.4</ele>
        <time>2024-08-03T09:36:30Z</time>
      </trkpt>
      <trkpt lat="47.27211" lon="5.87718">
        <ele>241.4</ele>
        <time>2024-08-03T09:36:31Z</time>
      </trkpt>
      <trkpt lat="47.27211" lon="5.87718">
        <ele>241.4</ele>
        <time>2024-08-03T09:36:32Z</time>
      </trkpt>
      <trkpt lat="47.27211" lon="5.87718">
        <ele>241.4</ele>
        <time>2024-08-03T09:36:33Z</time>
      </trkpt>
      <trkpt lat="47.27211" lon="5.87717">
        <ele>241.4</ele>
        <time>2024-08-03T09:36:34Z</time>
      </trkpt>
      <trkpt lat="47.27211" lon="5.87718">
        <ele>241.4</ele>
        <time>2024-08-03T09:36:35Z</time>
      </trkpt>
      <trkpt lat="47.27211" lon="5.87718">
        <ele>241.4</ele>
        <time>2024-08-03T09:36:36Z</time>
      </trkpt>
      <trkpt lat="47.27211" lon="5.87718">
        <ele>241.4</ele>
        <time>2024-08-03T09:36:37Z</time>
      </trkpt>
      <trkpt lat="47.2721" lon="5.87718">
        <ele>241.4</ele>
        <time>2024-08-03T09:36:38Z</time>
      </trkpt>
      <trkpt lat="47.2721" lon="5.87718">
        <ele>241.4</ele>
        <time>2024-08-03T09:36:39Z</time>
      </trkpt>
      <trkpt lat="47.2721" lon="5.87717">
        <ele>241.4</ele>
        <time>2024-08-03T09:36:40Z</time>
      </trkpt>
      <trkpt lat="47.2721" lon="5.87717">
        <ele>241.4</ele>
        <time>2024-08-03T09:36:41Z</time>
      </trkpt>
      <trkpt lat="47.2721" lon="5.87717">
        <ele>241.4</ele>
        <time>2024-08-03T09:36:42Z</time>
      </trkpt>
      <trkpt lat="47.2721" lon="5.87717">
        <ele>241.4</ele>
        <time>2024-08-03T09:36:43Z</time>
      </trkpt>
      <trkpt lat="47.2721" lon="5.87717">
        <ele>241.4</ele>
        <time>2024-08-03T09:36:44Z</time>
      </trkpt>
      <trkpt lat="47.27211" lon="5.87716">
        <ele>241.4</ele>
        <time>2024-08-03T09:36:45Z</time>
      </trkpt>
      <trkpt lat="47.27211" lon="5.87716">
        <ele>241.4</ele>
        <time>2024-08-03T09:36:46Z</time>
      </trkpt>
      <trkpt lat="47.27211" lon="5.87716">
        <ele>241.4</ele>
        <time>2024-08-03T09:36:47Z</time>
      </trkpt>
      <trkpt lat="47.27211" lon="5.87716">
        <ele>241.4</ele>
        <time>2024-08-03T09:36:48Z</time>
      </trkpt>
      <trkpt lat="47.27211" lon="5.87716">
        <ele>241.6</ele>
        <time>2024-08-03T09:36:49Z</time>
      </trkpt>
      <trkpt lat="47.27211" lon="5.87716">
        <ele>241.6</ele>
        <time>2024-08-03T09:36:50Z</time>
      </trkpt>
      <trkpt lat="47.27211" lon="5.87716">
        <ele>241.4</ele>
        <time>2024-08-03T09:36:51Z</time>
      </trkpt>
      <trkpt lat="47.27211" lon="5.87715">
        <ele>241.4</ele>
        <time>2024-08-03T09:36:52Z</time>
      </trkpt>
      <trkpt lat="47.27211" lon="5.87715">
        <ele>241.4</ele>
        <time>2024-08-03T09:36:53Z</time>
      </trkpt>
      <trkpt lat="47.27211" lon="5.87715">
        <ele>241.6</ele>
        <time>2024-08-03T09:36:54Z</time>
      </trkpt>
      <trkpt lat="47.27211" lon="5.87715">
        <ele>241.6</ele>
        <time>2024-08-03T09:36:55Z</time>
      </trkpt>
      <trkpt lat="47.27211" lon="5.87714">
        <ele>241.6</ele>
        <time>2024-08-03T09:36:56Z</time>
      </trkpt>
      <trkpt lat="47.27211" lon="5.87715">
        <ele>241.4</ele>
        <time>2024-08-03T09:36:57Z</time>
      </trkpt>
      <trkpt lat="47.27212" lon="5.87716">
        <ele>241.6</ele>
        <time>2024-08-03T09:36:58Z</time>
      </trkpt>
      <trkpt lat="47.27212" lon="5.87717">
        <ele>241.6</ele>
        <time>2024-08-03T09:36:59Z</time>
      </trkpt>
      <trkpt lat="47.27212" lon="5.87718">
        <ele>241.6</ele>
        <time>2024-08-03T09:37:00Z</time>
      </trkpt>
      <trkpt lat="47.27212" lon="5.87719">
        <ele>241.6</ele>
        <time>2024-08-03T09:37:01Z</time>
      </trkpt>
      <trkpt lat="47.27212" lon="5.8772">
        <ele>241.6</ele>
        <time>2024-08-03T09:37:02Z</time>
      </trkpt>
      <trkpt lat="47.27212" lon="5.8772">
        <ele>241.6</ele>
        <time>2024-08-03T09:37:03Z</time>
      </trkpt>
      <trkpt lat="47.27212" lon="5.87721">
        <ele>241.6</ele>
        <time>2024-08-03T09:37:04Z</time>
      </trkpt>
      <trkpt lat="47.27212" lon="5.87722">
        <ele>241.6</ele>
        <time>2024-08-03T09:37:05Z</time>
      </trkpt>
      <trkpt lat="47.27212" lon="5.87723">
        <ele>241.6</ele>
        <time>2024-08-03T09:37:06Z</time>
      </trkpt>
      <trkpt lat="47.27212" lon="5.87723">
        <ele>241.6</ele>
        <time>2024-08-03T09:37:07Z</time>
      </trkpt>
      <trkpt lat="47.27212" lon="5.87724">
        <ele>241.4</ele>
        <time>2024-08-03T09:37:08Z</time>
      </trkpt>
      <trkpt lat="47.27212" lon="5.87724">
        <ele>241.4</ele>
        <time>2024-08-03T09:37:09Z</time>
      </trkpt>
      <trkpt lat="47.27212" lon="5.87724">
        <ele>241.6</ele>
        <time>2024-08-03T09:37:10Z</time>
      </trkpt>
      <trkpt lat="47.27212" lon="5.87724">
        <ele>241.6</ele>
        <time>2024-08-03T09:37:11Z</time>
      </trkpt>
      <trkpt lat="47.27212" lon="5.87724">
        <ele>241.6</ele>
        <time>2024-08-03T09:37:12Z</time>
      </trkpt>
      <trkpt lat="47.27212" lon="5.87724">
        <ele>241.6</ele>
        <time>2024-08-03T09:37:13Z</time>
      </trkpt>
      <trkpt lat="47.27212" lon="5.87724">
        <ele>241.6</ele>
        <time>2024-08-03T09:37:14Z</time>
      </trkpt>
      <trkpt lat="47.27212" lon="5.87724">
        <ele>241.6</ele>
        <time>2024-08-03T09:37:15Z</time>
      </trkpt>
      <trkpt lat="47.27212" lon="5.87724">
        <ele>241.6</ele>
        <time>2024-08-03T09:37:16Z</time>
      </trkpt>
      <trkpt lat="47.27212" lon="5.87724">
        <ele>241.6</ele>
        <time>2024-08-03T09:37:17Z</time>
      </trkpt>
      <trkpt lat="47.27212" lon="5.87724">
        <ele>241.8</ele>
        <time>2024-08-03T09:37:18Z</time>
      </trkpt>
      <trkpt lat="47.27212" lon="5.87724">
        <ele>241.6</ele>
        <time>2024-08-03T09:37:19Z</time>
      </trkpt>
      <trkpt lat="47.27211" lon="5.87724">
        <ele>241.6</ele>
        <time>2024-08-03T09:37:20Z</time>
      </trkpt>
      <trkpt lat="47.2721" lon="5.87725">
        <ele>241.6</ele>
        <time>2024-08-03T09:37:21Z</time>
      </trkpt>
      <trkpt lat="47.27209" lon="5.87726">
        <ele>241.6</ele>
        <time>2024-08-03T09:37:22Z</time>
      </trkpt>
      <trkpt lat="47.27208" lon="5.87726">
        <ele>241.6</ele>
        <time>2024-08-03T09:37:23Z</time>
      </trkpt>
      <trkpt lat="47.27207" lon="5.87727">
        <ele>241.6</ele>
        <time>2024-08-03T09:37:24Z</time>
      </trkpt>
      <trkpt lat="47.27205" lon="5.87727">
        <ele>241.8</ele>
        <time>2024-08-03T09:37:25Z</time>
      </trkpt>
      <trkpt lat="47.27204" lon="5.87727">
        <ele>241.6</ele>
        <time>2024-08-03T09:37:26Z</time>
      </trkpt>
      <trkpt lat="47.27202" lon="5.87727">
        <ele>241.6</ele>
        <time>2024-08-03T09:37:27Z</time>
      </trkpt>
      <trkpt lat="47.272" lon="5.87726">
        <ele>241.8</ele>
        <time>2024-08-03T09:37:28Z</time>
      </trkpt>
      <trkpt lat="47.27198" lon="5.87725">
        <ele>241.8</ele>
        <time>2024-08-03T09:37:29Z</time>
      </trkpt>
      <trkpt lat="47.27196" lon="5.87723">
        <ele>241.8</ele>
        <time>2024-08-03T09:37:30Z</time>
      </trkpt>
      <trkpt lat="47.27194" lon="5.8772">
        <ele>241.8</ele>
        <time>2024-08-03T09:37:31Z</time>
      </trkpt>
      <trkpt lat="47.27192" lon="5.87717">
        <ele>241.8</ele>
        <time>2024-08-03T09:37:32Z</time>
      </trkpt>
      <trkpt lat="47.2719" lon="5.87714">
        <ele>241.6</ele>
        <time>2024-08-03T09:37:33Z</time>
      </trkpt>
      <trkpt lat="47.27188" lon="5.87711">
        <ele>241.6</ele>
        <time>2024-08-03T09:37:34Z</time>
      </trkpt>
      <trkpt lat="47.27186" lon="5.87707">
        <ele>241.6</ele>
        <time>2024-08-03T09:37:35Z</time>
      </trkpt>
      <trkpt lat="47.27183" lon="5.87703">
        <ele>241.6</ele>
        <time>2024-08-03T09:37:36Z</time>
      </trkpt>
      <trkpt lat="47.27181" lon="5.87699">
        <ele>241.6</ele>
        <time>2024-08-03T09:37:37Z</time>
      </trkpt>
      <trkpt lat="47.27179" lon="5.87694">
        <ele>241.4</ele>
        <time>2024-08-03T09:37:38Z</time>
      </trkpt>
      <trkpt lat="47.27177" lon="5.87689">
        <ele>241.4</ele>
        <time>2024-08-03T09:37:39Z</time>
      </trkpt>
      <trkpt lat="47.27174" lon="5.87684">
        <ele>241.4</ele>
        <time>2024-08-03T09:37:40Z</time>
      </trkpt>
      <trkpt lat="47.27172" lon="5.87678">
        <ele>241.4</ele>
        <time>2024-08-03T09:37:41Z</time>
      </trkpt>
      <trkpt lat="47.27169" lon="5.87672">
        <ele>241.2</ele>
        <time>2024-08-03T09:37:42Z</time>
      </trkpt>
      <trkpt lat="47.27166" lon="5.87665">
        <ele>241.2</ele>
        <time>2024-08-03T09:37:43Z</time>
      </trkpt>
      <trkpt lat="47.27162" lon="5.87657">
        <ele>241.2</ele>
        <time>2024-08-03T09:37:44Z</time>
      </trkpt>
      <trkpt lat="47.27159" lon="5.87649">
        <ele>241.2</ele>
        <time>2024-08-03T09:37:45Z</time>
      </trkpt>
      <trkpt lat="47.27157" lon="5.87642">
        <ele>241.2</ele>
        <time>2024-08-03T09:37:46Z</time>
      </trkpt>
      <trkpt lat="47.27156" lon="5.87637">
        <ele>241.2</ele>
        <time>2024-08-03T09:37:47Z</time>
      </trkpt>
      <trkpt lat="47.27156" lon="5.87632">
        <ele>241.2</ele>
        <time>2024-08-03T09:37:48Z</time>
      </trkpt>
      <trkpt lat="47.27157" lon="5.87628">
        <ele>241.2</ele>
        <time>2024-08-03T09:37:49Z</time>
      </trkpt>
      <trkpt lat="47.27158" lon="5.87625">
        <ele>240.6</ele>
        <time>2024-08-03T09:37:50Z</time>
      </trkpt>
      <trkpt lat="47.2716" lon="5.87623">
        <ele>240.2</ele>
        <time>2024-08-03T09:37:51Z</time>
      </trkpt>
      <trkpt lat="47.27161" lon="5.8762">
        <ele>239.8</ele>
        <time>2024-08-03T09:37:52Z</time>
      </trkpt>
      <trkpt lat="47.27163" lon="5.87618">
        <ele>239.4</ele>
        <time>2024-08-03T09:37:53Z</time>
      </trkpt>
      <trkpt lat="47.27163" lon="5.87614">
        <ele>239.2</ele>
        <time>2024-08-03T09:37:54Z</time>
      </trkpt>
      <trkpt lat="47.27164" lon="5.87611">
        <ele>239</ele>
        <time>2024-08-03T09:37:55Z</time>
      </trkpt>
      <trkpt lat="47.27165" lon="5.87607">
        <ele>239</ele>
        <time>2024-08-03T09:37:56Z</time>
      </trkpt>
      <trkpt lat="47.27165" lon="5.87604">
        <ele>238.8</ele>
        <time>2024-08-03T09:37:57Z</time>
      </trkpt>
      <trkpt lat="47.27164" lon="5.876">
        <ele>238.8</ele>
        <time>2024-08-03T09:37:58Z</time>
      </trkpt>
      <trkpt lat="47.27163" lon="5.87598">
        <ele>238.8</ele>
        <time>2024-08-03T09:37:59Z</time>
      </trkpt>
      <trkpt lat="47.27162" lon="5.87596">
        <ele>238.8</ele>
        <time>2024-08-03T09:38:00Z</time>
      </trkpt>
      <trkpt lat="47.27162" lon="5.87594">
        <ele>238.8</ele>
        <time>2024-08-03T09:38:01Z</time>
      </trkpt>
      <trkpt lat="47.27161" lon="5.87592">
        <ele>238.8</ele>
        <time>2024-08-03T09:38:02Z</time>
      </trkpt>
      <trkpt lat="47.27161" lon="5.87591">
        <ele>238.6</ele>
        <time>2024-08-03T09:38:03Z</time>
      </trkpt>
      <trkpt lat="47.2716" lon="5.8759">
        <ele>238.8</ele>
        <time>2024-08-03T09:38:04Z</time>
      </trkpt>
      <trkpt lat="47.2716" lon="5.87589">
        <ele>238.8</ele>
        <time>2024-08-03T09:38:05Z</time>
      </trkpt>
      <trkpt lat="47.27159" lon="5.87587">
        <ele>238.6</ele>
        <time>2024-08-03T09:38:06Z</time>
      </trkpt>
      <trkpt lat="47.27157" lon="5.87586">
        <ele>238.6</ele>
        <time>2024-08-03T09:38:07Z</time>
      </trkpt>
      <trkpt lat="47.27156" lon="5.87584">
        <ele>238.6</ele>
        <time>2024-08-03T09:38:08Z</time>
      </trkpt>
      <trkpt lat="47.27155" lon="5.87582">
        <ele>238.6</ele>
        <time>2024-08-03T09:38:09Z</time>
      </trkpt>
      <trkpt lat="47.27154" lon="5.87581">
        <ele>238.6</ele>
        <time>2024-08-03T09:38:10Z</time>
      </trkpt>
      <trkpt lat="47.27153" lon="5.87579">
        <ele>238.6</ele>
        <time>2024-08-03T09:38:11Z</time>
      </trkpt>
      <trkpt lat="47.27152" lon="5.87577">
        <ele>238.6</ele>
        <time>2024-08-03T09:38:12Z</time>
      </trkpt>
      <trkpt lat="47.2715" lon="5.87575">
        <ele>238.6</ele>
        <time>2024-08-03T09:38:13Z</time>
      </trkpt>
      <trkpt lat="47.27148" lon="5.87574">
        <ele>238.6</ele>
        <time>2024-08-03T09:38:14Z</time>
      </trkpt>
      <trkpt lat="47.27147" lon="5.87571">
        <ele>238.4</ele>
        <time>2024-08-03T09:38:15Z</time>
      </trkpt>
      <trkpt lat="47.27145" lon="5.87569">
        <ele>238.6</ele>
        <time>2024-08-03T09:38:16Z</time>
      </trkpt>
      <trkpt lat="47.27142" lon="5.87567">
        <ele>238.4</ele>
        <time>2024-08-03T09:38:17Z</time>
      </trkpt>
      <trkpt lat="47.27139" lon="5.87564">
        <ele>238.6</ele>
        <time>2024-08-03T09:38:18Z</time>
      </trkpt>
      <trkpt lat="47.27137" lon="5.87562">
        <ele>238.6</ele>
        <time>2024-08-03T09:38:19Z</time>
      </trkpt>
      <trkpt lat="47.27134" lon="5.8756">
        <ele>238.6</ele>
        <time>2024-08-03T09:38:20Z</time>
      </trkpt>
      <trkpt lat="47.27132" lon="5.87557">
        <ele>238.4</ele>
        <time>2024-08-03T09:38:21Z</time>
      </trkpt>
      <trkpt lat="47.27131" lon="5.87553">
        <ele>238.4</ele>
        <time>2024-08-03T09:38:22Z</time>
      </trkpt>
      <trkpt lat="47.2713" lon="5.87549">
        <ele>238.4</ele>
        <time>2024-08-03T09:38:23Z</time>
      </trkpt>
      <trkpt lat="47.27129" lon="5.87545">
        <ele>238.6</ele>
        <time>2024-08-03T09:38:24Z</time>
      </trkpt>
      <trkpt lat="47.2713" lon="5.8754">
        <ele>238.6</ele>
        <time>2024-08-03T09:38:25Z</time>
      </trkpt>
      <trkpt lat="47.27131" lon="5.87536">
        <ele>238.6</ele>
        <time>2024-08-03T09:38:26Z</time>
      </trkpt>
      <trkpt lat="47.27131" lon="5.87532">
        <ele>238.6</ele>
        <time>2024-08-03T09:38:27Z</time>
      </trkpt>
      <trkpt lat="47.27132" lon="5.87527">
        <ele>238.6</ele>
        <time>2024-08-03T09:38:28Z</time>
      </trkpt>
      <trkpt lat="47.27131" lon="5.87522">
        <ele>238.6</ele>
        <time>2024-08-03T09:38:29Z</time>
      </trkpt>
      <trkpt lat="47.27131" lon="5.87517">
        <ele>238.8</ele>
        <time>2024-08-03T09:38:30Z</time>
      </trkpt>
      <trkpt lat="47.27129" lon="5.87512">
        <ele>238.8</ele>
        <time>2024-08-03T09:38:31Z</time>
      </trkpt>
      <trkpt lat="47.27128" lon="5.87508">
        <ele>238.8</ele>
        <time>2024-08-03T09:38:32Z</time>
      </trkpt>
      <trkpt lat="47.27126" lon="5.87504">
        <ele>238.6</ele>
        <time>2024-08-03T09:38:33Z</time>
      </trkpt>
      <trkpt lat="47.27124" lon="5.87501">
        <ele>238.8</ele>
        <time>2024-08-03T09:38:34Z</time>
      </trkpt>
      <trkpt lat="47.27123" lon="5.87499">
        <ele>239</ele>
        <time>2024-08-03T09:38:35Z</time>
      </trkpt>
      <trkpt lat="47.27121" lon="5.87497">
        <ele>239</ele>
        <time>2024-08-03T09:38:36Z</time>
      </trkpt>
      <trkpt lat="47.27119" lon="5.87496">
        <ele>239</ele>
        <time>2024-08-03T09:38:37Z</time>
      </trkpt>
      <trkpt lat="47.27117" lon="5.87495">
        <ele>239</ele>
        <time>2024-08-03T09:38:38Z</time>
      </trkpt>
      <trkpt lat="47.27115" lon="5.87494">
        <ele>239</ele>
        <time>2024-08-03T09:38:39Z</time>
      </trkpt>
      <trkpt lat="47.27113" lon="5.87493">
        <ele>239.4</ele>
        <time>2024-08-03T09:38:40Z</time>
      </trkpt>
      <trkpt lat="47.27111" lon="5.87491">
        <ele>239.6</ele>
        <time>2024-08-03T09:38:41Z</time>
      </trkpt>
      <trkpt lat="47.27108" lon="5.87489">
        <ele>239.8</ele>
        <time>2024-08-03T09:38:42Z</time>
      </trkpt>
      <trkpt lat="47.27106" lon="5.87486">
        <ele>240</ele>
        <time>2024-08-03T09:38:43Z</time>
      </trkpt>
      <trkpt lat="47.27105" lon="5.87484">
        <ele>240.2</ele>
        <time>2024-08-03T09:38:44Z</time>
      </trkpt>
      <trkpt lat="47.27103" lon="5.87481">
        <ele>240.6</ele>
        <time>2024-08-03T09:38:45Z</time>
      </trkpt>
      <trkpt lat="47.27102" lon="5.87479">
        <ele>240.8</ele>
        <time>2024-08-03T09:38:46Z</time>
      </trkpt>
      <trkpt lat="47.27101" lon="5.87477">
        <ele>241.2</ele>
        <time>2024-08-03T09:38:47Z</time>
      </trkpt>
      <trkpt lat="47.271" lon="5.87474">
        <ele>241.4</ele>
        <time>2024-08-03T09:38:48Z</time>
      </trkpt>
      <trkpt lat="47.27098" lon="5.87471">
        <ele>241.4</ele>
        <time>2024-08-03T09:38:49Z</time>
      </trkpt>
      <trkpt lat="47.27097" lon="5.87468">
        <ele>241.6</ele>
        <time>2024-08-03T09:38:50Z</time>
      </trkpt>
      <trkpt lat="47.27095" lon="5.87465">
        <ele>242</ele>
        <time>2024-08-03T09:38:51Z</time>
      </trkpt>
      <trkpt lat="47.27093" lon="5.87462">
        <ele>242.4</ele>
        <time>2024-08-03T09:38:52Z</time>
      </trkpt>
      <trkpt lat="47.27092" lon="5.87459">
        <ele>242.8</ele>
        <time>2024-08-03T09:38:53Z</time>
      </trkpt>
      <trkpt lat="47.27091" lon="5.87455">
        <ele>243</ele>
        <time>2024-08-03T09:38:54Z</time>
      </trkpt>
      <trkpt lat="47.27089" lon="5.8745">
        <ele>243.4</ele>
        <time>2024-08-03T09:38:55Z</time>
      </trkpt>
      <trkpt lat="47.27088" lon="5.87446">
        <ele>243.6</ele>
        <time>2024-08-03T09:38:56Z</time>
      </trkpt>
      <trkpt lat="47.27087" lon="5.87442">
        <ele>243.6</ele>
        <time>2024-08-03T09:38:57Z</time>
      </trkpt>
      <trkpt lat="47.27086" lon="5.87438">
        <ele>244</ele>
        <time>2024-08-03T09:38:58Z</time>
      </trkpt>
      <trkpt lat="47.27083" lon="5.87436">
        <ele>244</ele>
        <time>2024-08-03T09:38:59Z</time>
      </trkpt>
      <trkpt lat="47.27079" lon="5.87436">
        <ele>244</ele>
        <time>2024-08-03T09:39:00Z</time>
      </trkpt>
      <trkpt lat="47.27076" lon="5.87435">
        <ele>244</ele>
        <time>2024-08-03T09:39:01Z</time>
      </trkpt>
      <trkpt lat="47.27074" lon="5.87433">
        <ele>244.2</ele>
        <time>2024-08-03T09:39:02Z</time>
      </trkpt>
      <trkpt lat="47.27072" lon="5.87431">
        <ele>244.2</ele>
        <time>2024-08-03T09:39:03Z</time>
      </trkpt>
      <trkpt lat="47.27069" lon="5.87428">
        <ele>244.4</ele>
        <time>2024-08-03T09:39:04Z</time>
      </trkpt>
      <trkpt lat="47.27067" lon="5.87426">
        <ele>244.4</ele>
        <time>2024-08-03T09:39:05Z</time>
      </trkpt>
      <trkpt lat="47.27065" lon="5.87424">
        <ele>244.4</ele>
        <time>2024-08-03T09:39:06Z</time>
      </trkpt>
      <trkpt lat="47.27062" lon="5.87422">
        <ele>244.6</ele>
        <time>2024-08-03T09:39:07Z</time>
      </trkpt>
      <trkpt lat="47.27059" lon="5.87421">
        <ele>244.6</ele>
        <time>2024-08-03T09:39:08Z</time>
      </trkpt>
      <trkpt lat="47.27055" lon="5.8742">
        <ele>244.6</ele>
        <time>2024-08-03T09:39:09Z</time>
      </trkpt>
      <trkpt lat="47.27052" lon="5.87419">
        <ele>244.6</ele>
        <time>2024-08-03T09:39:10Z</time>
      </trkpt>
      <trkpt lat="47.27049" lon="5.87419">
        <ele>244.6</ele>
        <time>2024-08-03T09:39:11Z</time>
      </trkpt>
      <trkpt lat="47.27045" lon="5.87419">
        <ele>244.8</ele>
        <time>2024-08-03T09:39:12Z</time>
      </trkpt>
      <trkpt lat="47.27042" lon="5.87419">
        <ele>244.8</ele>
        <time>2024-08-03T09:39:13Z</time>
      </trkpt>
      <trkpt lat="47.27039" lon="5.87418">
        <ele>244.6</ele>
        <time>2024-08-03T09:39:14Z</time>
      </trkpt>
      <trkpt lat="47.27035" lon="5.87418">
        <ele>244.8</ele>
        <time>2024-08-03T09:39:15Z</time>
      </trkpt>
      <trkpt lat="47.27032" lon="5.87418">
        <ele>244.8</ele>
        <time>2024-08-03T09:39:16Z</time>
      </trkpt>
      <trkpt lat="47.27029" lon="5.87417">
        <ele>245</ele>
        <time>2024-08-03T09:39:17Z</time>
      </trkpt>
      <trkpt lat="47.27025" lon="5.87417">
        <ele>245</ele>
        <time>2024-08-03T09:39:18Z</time>
      </trkpt>
      <trkpt lat="47.27022" lon="5.87417">
        <ele>245.2</ele>
        <time>2024-08-03T09:39:19Z</time>
      </trkpt>
      <trkpt lat="47.2702" lon="5.87416">
        <ele>245.2</ele>
        <time>2024-08-03T09:39:20Z</time>
      </trkpt>
      <trkpt lat="47.27017" lon="5.87416">
        <ele>245.4</ele>
        <time>2024-08-03T09:39:21Z</time>
      </trkpt>
      <trkpt lat="47.27013" lon="5.87416">
        <ele>245.6</ele>
        <time>2024-08-03T09:39:22Z</time>
      </trkpt>
      <trkpt lat="47.2701" lon="5.87416">
        <ele>245.8</ele>
        <time>2024-08-03T09:39:23Z</time>
      </trkpt>
      <trkpt lat="47.27007" lon="5.87417">
        <ele>246</ele>
        <time>2024-08-03T09:39:24Z</time>
      </trkpt>
      <trkpt lat="47.27004" lon="5.87417">
        <ele>246</ele>
        <time>2024-08-03T09:39:25Z</time>
      </trkpt>
      <trkpt lat="47.27001" lon="5.87417">
        <ele>246.2</ele>
        <time>2024-08-03T09:39:26Z</time>
      </trkpt>
      <trkpt lat="47.26998" lon="5.87418">
        <ele>246.2</ele>
        <time>2024-08-03T09:39:27Z</time>
      </trkpt>
      <trkpt lat="47.26995" lon="5.87419">
        <ele>246.6</ele>
        <time>2024-08-03T09:39:28Z</time>
      </trkpt>
      <trkpt lat="47.26991" lon="5.8742">
        <ele>246.8</ele>
        <time>2024-08-03T09:39:29Z</time>
      </trkpt>
      <trkpt lat="47.26988" lon="5.87421">
        <ele>247.2</ele>
        <time>2024-08-03T09:39:30Z</time>
      </trkpt>
      <trkpt lat="47.26986" lon="5.87423">
        <ele>247.4</ele>
        <time>2024-08-03T09:39:31Z</time>
      </trkpt>
      <trkpt lat="47.26982" lon="5.87425">
        <ele>247.6</ele>
        <time>2024-08-03T09:39:32Z</time>
      </trkpt>
      <trkpt lat="47.26979" lon="5.87427">
        <ele>247.6</ele>
        <time>2024-08-03T09:39:33Z</time>
      </trkpt>
      <trkpt lat="47.26976" lon="5.87428">
        <ele>247.8</ele>
        <time>2024-08-03T09:39:34Z</time>
      </trkpt>
      <trkpt lat="47.26973" lon="5.87429">
        <ele>248</ele>
        <time>2024-08-03T09:39:35Z</time>
      </trkpt>
      <trkpt lat="47.2697" lon="5.8743">
        <ele>248.2</ele>
        <time>2024-08-03T09:39:36Z</time>
      </trkpt>
      <trkpt lat="47.26968" lon="5.87431">
        <ele>248.6</ele>
        <time>2024-08-03T09:39:37Z</time>
      </trkpt>
      <trkpt lat="47.26965" lon="5.87431">
        <ele>248.6</ele>
        <time>2024-08-03T09:39:38Z</time>
      </trkpt>
      <trkpt lat="47.26962" lon="5.87432">
        <ele>248.8</ele>
        <time>2024-08-03T09:39:39Z</time>
      </trkpt>
      <trkpt lat="47.26958" lon="5.87433">
        <ele>249.2</ele>
        <time>2024-08-03T09:39:40Z</time>
      </trkpt>
      <trkpt lat="47.26955" lon="5.87434">
        <ele>249.2</ele>
        <time>2024-08-03T09:39:41Z</time>
      </trkpt>
      <trkpt lat="47.26952" lon="5.87434">
        <ele>249.6</ele>
        <time>2024-08-03T09:39:42Z</time>
      </trkpt>
      <trkpt lat="47.26949" lon="5.87435">
        <ele>249.6</ele>
        <time>2024-08-03T09:39:43Z</time>
      </trkpt>
      <trkpt lat="47.26946" lon="5.87436">
        <ele>249.8</ele>
        <time>2024-08-03T09:39:44Z</time>
      </trkpt>
      <trkpt lat="47.26943" lon="5.87437">
        <ele>250</ele>
        <time>2024-08-03T09:39:45Z</time>
      </trkpt>
      <trkpt lat="47.26939" lon="5.87438">
        <ele>250.2</ele>
        <time>2024-08-03T09:39:46Z</time>
      </trkpt>
      <trkpt lat="47.26936" lon="5.87439">
        <ele>250.6</ele>
        <time>2024-08-03T09:39:47Z</time>
      </trkpt>
      <trkpt lat="47.26933" lon="5.8744">
        <ele>250.6</ele>
        <time>2024-08-03T09:39:48Z</time>
      </trkpt>
      <trkpt lat="47.2693" lon="5.87442">
        <ele>250.8</ele>
        <time>2024-08-03T09:39:49Z</time>
      </trkpt>
      <trkpt lat="47.26927" lon="5.87443">
        <ele>251</ele>
        <time>2024-08-03T09:39:50Z</time>
      </trkpt>
      <trkpt lat="47.26924" lon="5.87445">
        <ele>251.2</ele>
        <time>2024-08-03T09:39:51Z</time>
      </trkpt>
      <trkpt lat="47.26922" lon="5.87447">
        <ele>251.4</ele>
        <time>2024-08-03T09:39:52Z</time>
      </trkpt>
      <trkpt lat="47.26919" lon="5.87449">
        <ele>251.6</ele>
        <time>2024-08-03T09:39:53Z</time>
      </trkpt>
      <trkpt lat="47.26916" lon="5.8745">
        <ele>251.8</ele>
        <time>2024-08-03T09:39:54Z</time>
      </trkpt>
      <trkpt lat="47.26914" lon="5.87452">
        <ele>251.8</ele>
        <time>2024-08-03T09:39:55Z</time>
      </trkpt>
      <trkpt lat="47.26911" lon="5.87454">
        <ele>252</ele>
        <time>2024-08-03T09:39:56Z</time>
      </trkpt>
      <trkpt lat="47.26908" lon="5.87456">
        <ele>252</ele>
        <time>2024-08-03T09:39:57Z</time>
      </trkpt>
      <trkpt lat="47.26905" lon="5.87458">
        <ele>252.2</ele>
        <time>2024-08-03T09:39:58Z</time>
      </trkpt>
      <trkpt lat="47.26903" lon="5.8746">
        <ele>252.6</ele>
        <time>2024-08-03T09:39:59Z</time>
      </trkpt>
      <trkpt lat="47.269" lon="5.87462">
        <ele>252.8</ele>
        <time>2024-08-03T09:40:00Z</time>
      </trkpt>
      <trkpt lat="47.26897" lon="5.87464">
        <ele>253</ele>
        <time>2024-08-03T09:40:01Z</time>
      </trkpt>
      <trkpt lat="47.26894" lon="5.87466">
        <ele>253.2</ele>
        <time>2024-08-03T09:40:02Z</time>
      </trkpt>
      <trkpt lat="47.26892" lon="5.87469">
        <ele>253.4</ele>
        <time>2024-08-03T09:40:03Z</time>
      </trkpt>
      <trkpt lat="47.26889" lon="5.87471">
        <ele>253.6</ele>
        <time>2024-08-03T09:40:04Z</time>
      </trkpt>
      <trkpt lat="47.26886" lon="5.87472">
        <ele>254.2</ele>
        <time>2024-08-03T09:40:05Z</time>
      </trkpt>
      <trkpt lat="47.26883" lon="5.87474">
        <ele>254.4</ele>
        <time>2024-08-03T09:40:06Z</time>
      </trkpt>
      <trkpt lat="47.2688" lon="5.87476">
        <ele>254.6</ele>
        <time>2024-08-03T09:40:07Z</time>
      </trkpt>
      <trkpt lat="47.26877" lon="5.87477">
        <ele>254.6</ele>
        <time>2024-08-03T09:40:08Z</time>
      </trkpt>
      <trkpt lat="47.26874" lon="5.87479">
        <ele>255.2</ele>
        <time>2024-08-03T09:40:09Z</time>
      </trkpt>
      <trkpt lat="47.26871" lon="5.8748">
        <ele>255.2</ele>
        <time>2024-08-03T09:40:10Z</time>
      </trkpt>
      <trkpt lat="47.26868" lon="5.8748">
        <ele>255.2</ele>
        <time>2024-08-03T09:40:11Z</time>
      </trkpt>
      <trkpt lat="47.26865" lon="5.87481">
        <ele>255.6</ele>
        <time>2024-08-03T09:40:12Z</time>
      </trkpt>
      <trkpt lat="47.26862" lon="5.87481">
        <ele>255.8</ele>
        <time>2024-08-03T09:40:13Z</time>
      </trkpt>
      <trkpt lat="47.26859" lon="5.87481">
        <ele>255.8</ele>
        <time>2024-08-03T09:40:14Z</time>
      </trkpt>
      <trkpt lat="47.26856" lon="5.8748">
        <ele>256</ele>
        <time>2024-08-03T09:40:15Z</time>
      </trkpt>
      <trkpt lat="47.26853" lon="5.87479">
        <ele>256.2</ele>
        <time>2024-08-03T09:40:16Z</time>
      </trkpt>
      <trkpt lat="47.26851" lon="5.87478">
        <ele>256.2</ele>
        <time>2024-08-03T09:40:17Z</time>
      </trkpt>
      <trkpt lat="47.26848" lon="5.87477">
        <ele>256.4</ele>
        <time>2024-08-03T09:40:18Z</time>
      </trkpt>
      <trkpt lat="47.26845" lon="5.87475">
        <ele>256.6</ele>
        <time>2024-08-03T09:40:19Z</time>
      </trkpt>
      <trkpt lat="47.26842" lon="5.87474">
        <ele>256.8</ele>
        <time>2024-08-03T09:40:20Z</time>
      </trkpt>
      <trkpt lat="47.2684" lon="5.87473">
        <ele>257.2</ele>
        <time>2024-08-03T09:40:21Z</time>
      </trkpt>
      <trkpt lat="47.26837" lon="5.87471">
        <ele>257.4</ele>
        <time>2024-08-03T09:40:22Z</time>
      </trkpt>
      <trkpt lat="47.26834" lon="5.8747">
        <ele>257.6</ele>
        <time>2024-08-03T09:40:23Z</time>
      </trkpt>
      <trkpt lat="47.26831" lon="5.87469">
        <ele>258</ele>
        <time>2024-08-03T09:40:24Z</time>
      </trkpt>
      <trkpt lat="47.26828" lon="5.87468">
        <ele>258.2</ele>
        <time>2024-08-03T09:40:25Z</time>
      </trkpt>
      <trkpt lat="47.26826" lon="5.87467">
        <ele>258.4</ele>
        <time>2024-08-03T09:40:26Z</time>
      </trkpt>
      <trkpt lat="47.26823" lon="5.87466">
        <ele>258.6</ele>
        <time>2024-08-03T09:40:27Z</time>
      </trkpt>
      <trkpt lat="47.2682" lon="5.87465">
        <ele>258.8</ele>
        <time>2024-08-03T09:40:28Z</time>
      </trkpt>
      <trkpt lat="47.26818" lon="5.87464">
        <ele>259</ele>
        <time>2024-08-03T09:40:29Z</time>
      </trkpt>
      <trkpt lat="47.26815" lon="5.87462">
        <ele>259.2</ele>
        <time>2024-08-03T09:40:30Z</time>
      </trkpt>
      <trkpt lat="47.26812" lon="5.87461">
        <ele>259.4</ele>
        <time>2024-08-03T09:40:31Z</time>
      </trkpt>
      <trkpt lat="47.2681" lon="5.8746">
        <ele>259.8</ele>
        <time>2024-08-03T09:40:32Z</time>
      </trkpt>
      <trkpt lat="47.26807" lon="5.87459">
        <ele>260</ele>
        <time>2024-08-03T09:40:33Z</time>
      </trkpt>
      <trkpt lat="47.26804" lon="5.87458">
        <ele>260.2</ele>
        <time>2024-08-03T09:40:34Z</time>
      </trkpt>
      <trkpt lat="47.26802" lon="5.87457">
        <ele>260.6</ele>
        <time>2024-08-03T09:40:35Z</time>
      </trkpt>
      <trkpt lat="47.26799" lon="5.87456">
        <ele>260.6</ele>
        <time>2024-08-03T09:40:36Z</time>
      </trkpt>
      <trkpt lat="47.26797" lon="5.87455">
        <ele>261</ele>
        <time>2024-08-03T09:40:37Z</time>
      </trkpt>
      <trkpt lat="47.26794" lon="5.87454">
        <ele>261</ele>
        <time>2024-08-03T09:40:38Z</time>
      </trkpt>
      <trkpt lat="47.26791" lon="5.87454">
        <ele>261</ele>
        <time>2024-08-03T09:40:39Z</time>
      </trkpt>
      <trkpt lat="47.26789" lon="5.87453">
        <ele>261.4</ele>
        <time>2024-08-03T09:40:40Z</time>
      </trkpt>
      <trkpt lat="47.26786" lon="5.87452">
        <ele>261.6</ele>
        <time>2024-08-03T09:40:41Z</time>
      </trkpt>
      <trkpt lat="47.26783" lon="5.87451">
        <ele>262</ele>
        <time>2024-08-03T09:40:42Z</time>
      </trkpt>
      <trkpt lat="47.26781" lon="5.87449">
        <ele>262.2</ele>
        <time>2024-08-03T09:40:43Z</time>
      </trkpt>
      <trkpt lat="47.26778" lon="5.87448">
        <ele>262.4</ele>
        <time>2024-08-03T09:40:44Z</time>
      </trkpt>
      <trkpt lat="47.26775" lon="5.87447">
        <ele>262.8</ele>
        <time>2024-08-03T09:40:45Z</time>
      </trkpt>
      <trkpt lat="47.26772" lon="5.87445">
        <ele>263</ele>
        <time>2024-08-03T09:40:46Z</time>
      </trkpt>
      <trkpt lat="47.2677" lon="5.87444">
        <ele>263.4</ele>
        <time>2024-08-03T09:40:47Z</time>
      </trkpt>
      <trkpt lat="47.26767" lon="5.87442">
        <ele>263.4</ele>
        <time>2024-08-03T09:40:48Z</time>
      </trkpt>
      <trkpt lat="47.26764" lon="5.87441">
        <ele>263.8</ele>
        <time>2024-08-03T09:40:49Z</time>
      </trkpt>
      <trkpt lat="47.26761" lon="5.87439">
        <ele>264</ele>
        <time>2024-08-03T09:40:50Z</time>
      </trkpt>
      <trkpt lat="47.26758" lon="5.87438">
        <ele>264.2</ele>
        <time>2024-08-03T09:40:51Z</time>
      </trkpt>
      <trkpt lat="47.26756" lon="5.87436">
        <ele>264.4</ele>
        <time>2024-08-03T09:40:52Z</time>
      </trkpt>
      <trkpt lat="47.26753" lon="5.87435">
        <ele>264.8</ele>
        <time>2024-08-03T09:40:53Z</time>
      </trkpt>
      <trkpt lat="47.2675" lon="5.87433">
        <ele>265.2</ele>
        <time>2024-08-03T09:40:54Z</time>
      </trkpt>
      <trkpt lat="47.26748" lon="5.87431">
        <ele>265.4</ele>
        <time>2024-08-03T09:40:55Z</time>
      </trkpt>
      <trkpt lat="47.26746" lon="5.87429">
        <ele>265.6</ele>
        <time>2024-08-03T09:40:56Z</time>
      </trkpt>
      <trkpt lat="47.26743" lon="5.87426">
        <ele>266</ele>
        <time>2024-08-03T09:40:57Z</time>
      </trkpt>
      <trkpt lat="47.26741" lon="5.87424">
        <ele>266.2</ele>
        <time>2024-08-03T09:40:58Z</time>
      </trkpt>
      <trkpt lat="47.26739" lon="5.87421">
        <ele>266.4</ele>
        <time>2024-08-03T09:40:59Z</time>
      </trkpt>
      <trkpt lat="47.26737" lon="5.87419">
        <ele>266.6</ele>
        <time>2024-08-03T09:41:00Z</time>
      </trkpt>
      <trkpt lat="47.26734" lon="5.87416">
        <ele>266.6</ele>
        <time>2024-08-03T09:41:01Z</time>
      </trkpt>
      <trkpt lat="47.26732" lon="5.87414">
        <ele>267</ele>
        <time>2024-08-03T09:41:02Z</time>
      </trkpt>
      <trkpt lat="47.26729" lon="5.87411">
        <ele>267</ele>
        <time>2024-08-03T09:41:03Z</time>
      </trkpt>
      <trkpt lat="47.26727" lon="5.87409">
        <ele>267.6</ele>
        <time>2024-08-03T09:41:04Z</time>
      </trkpt>
      <trkpt lat="47.26724" lon="5.87407">
        <ele>268</ele>
        <time>2024-08-03T09:41:05Z</time>
      </trkpt>
      <trkpt lat="47.26722" lon="5.87405">
        <ele>268</ele>
        <time>2024-08-03T09:41:06Z</time>
      </trkpt>
      <trkpt lat="47.26719" lon="5.87402">
        <ele>268.4</ele>
        <time>2024-08-03T09:41:07Z</time>
      </trkpt>
      <trkpt lat="47.26717" lon="5.874">
        <ele>268.6</ele>
        <time>2024-08-03T09:41:08Z</time>
      </trkpt>
      <trkpt lat="47.26714" lon="5.87397">
        <ele>269</ele>
        <time>2024-08-03T09:41:09Z</time>
      </trkpt>
      <trkpt lat="47.26712" lon="5.87395">
        <ele>269.4</ele>
        <time>2024-08-03T09:41:10Z</time>
      </trkpt>
      <trkpt lat="47.26709" lon="5.87393">
        <ele>269.6</ele>
        <time>2024-08-03T09:41:11Z</time>
      </trkpt>
      <trkpt lat="47.26707" lon="5.87391">
        <ele>269.8</ele>
        <time>2024-08-03T09:41:12Z</time>
      </trkpt>
      <trkpt lat="47.26704" lon="5.87389">
        <ele>270</ele>
        <time>2024-08-03T09:41:13Z</time>
      </trkpt>
      <trkpt lat="47.26701" lon="5.87387">
        <ele>270.4</ele>
        <time>2024-08-03T09:41:14Z</time>
      </trkpt>
      <trkpt lat="47.26699" lon="5.87385">
        <ele>270.8</ele>
        <time>2024-08-03T09:41:15Z</time>
      </trkpt>
      <trkpt lat="47.26696" lon="5.87383">
        <ele>270.8</ele>
        <time>2024-08-03T09:41:16Z</time>
      </trkpt>
      <trkpt lat="47.26694" lon="5.87381">
        <ele>271</ele>
        <time>2024-08-03T09:41:17Z</time>
      </trkpt>
      <trkpt lat="47.26691" lon="5.87379">
        <ele>271.4</ele>
        <time>2024-08-03T09:41:18Z</time>
      </trkpt>
      <trkpt lat="47.26689" lon="5.87377">
        <ele>271.4</ele>
        <time>2024-08-03T09:41:19Z</time>
      </trkpt>
      <trkpt lat="47.26686" lon="5.87375">
        <ele>271.6</ele>
        <time>2024-08-03T09:41:20Z</time>
      </trkpt>
      <trkpt lat="47.26684" lon="5.87374">
        <ele>271.8</ele>
        <time>2024-08-03T09:41:21Z</time>
      </trkpt>
      <trkpt lat="47.26681" lon="5.87372">
        <ele>272.2</ele>
        <time>2024-08-03T09:41:22Z</time>
      </trkpt>
      <trkpt lat="47.26678" lon="5.8737">
        <ele>272.2</ele>
        <time>2024-08-03T09:41:23Z</time>
      </trkpt>
      <trkpt lat="47.26676" lon="5.87368">
        <ele>272.4</ele>
        <time>2024-08-03T09:41:24Z</time>
      </trkpt>
      <trkpt lat="47.26673" lon="5.87366">
        <ele>272.6</ele>
        <time>2024-08-03T09:41:25Z</time>
      </trkpt>
      <trkpt lat="47.2667" lon="5.87364">
        <ele>272.8</ele>
        <time>2024-08-03T09:41:26Z</time>
      </trkpt>
      <trkpt lat="47.26667" lon="5.87363">
        <ele>273</ele>
        <time>2024-08-03T09:41:27Z</time>
      </trkpt>
      <trkpt lat="47.26665" lon="5.87361">
        <ele>273.4</ele>
        <time>2024-08-03T09:41:28Z</time>
      </trkpt>
      <trkpt lat="47.26662" lon="5.87359">
        <ele>273.6</ele>
        <time>2024-08-03T09:41:29Z</time>
      </trkpt>
      <trkpt lat="47.26659" lon="5.87357">
        <ele>273.6</ele>
        <time>2024-08-03T09:41:30Z</time>
      </trkpt>
      <trkpt lat="47.26656" lon="5.87356">
        <ele>273.8</ele>
        <time>2024-08-03T09:41:31Z</time>
      </trkpt>
      <trkpt lat="47.26653" lon="5.87354">
        <ele>274</ele>
        <time>2024-08-03T09:41:32Z</time>
      </trkpt>
      <trkpt lat="47.2665" lon="5.87352">
        <ele>274.2</ele>
        <time>2024-08-03T09:41:33Z</time>
      </trkpt>
      <trkpt lat="47.26647" lon="5.87351">
        <ele>274.2</ele>
        <time>2024-08-03T09:41:34Z</time>
      </trkpt>
      <trkpt lat="47.26645" lon="5.87349">
        <ele>274.4</ele>
        <time>2024-08-03T09:41:35Z</time>
      </trkpt>
      <trkpt lat="47.26642" lon="5.87348">
        <ele>274.6</ele>
        <time>2024-08-03T09:41:36Z</time>
      </trkpt>
      <trkpt lat="47.26639" lon="5.87346">
        <ele>274.8</ele>
        <time>2024-08-03T09:41:37Z</time>
      </trkpt>
      <trkpt lat="47.26636" lon="5.87344">
        <ele>275</ele>
        <time>2024-08-03T09:41:38Z</time>
      </trkpt>
      <trkpt lat="47.26633" lon="5.87342">
        <ele>275.2</ele>
        <time>2024-08-03T09:41:39Z</time>
      </trkpt>
      <trkpt lat="47.26631" lon="5.87341">
        <ele>275.4</ele>
        <time>2024-08-03T09:41:40Z</time>
      </trkpt>
      <trkpt lat="47.26628" lon="5.87339">
        <ele>275.6</ele>
        <time>2024-08-03T09:41:41Z</time>
      </trkpt>
      <trkpt lat="47.26625" lon="5.87337">
        <ele>275.8</ele>
        <time>2024-08-03T09:41:42Z</time>
      </trkpt>
      <trkpt lat="47.26622" lon="5.87336">
        <ele>276</ele>
        <time>2024-08-03T09:41:43Z</time>
      </trkpt>
      <trkpt lat="47.2662" lon="5.87334">
        <ele>276</ele>
        <time>2024-08-03T09:41:44Z</time>
      </trkpt>
      <trkpt lat="47.26617" lon="5.87333">
        <ele>276</ele>
        <time>2024-08-03T09:41:45Z</time>
      </trkpt>
      <trkpt lat="47.26614" lon="5.87331">
        <ele>276.4</ele>
        <time>2024-08-03T09:41:46Z</time>
      </trkpt>
      <trkpt lat="47.26612" lon="5.8733">
        <ele>276.8</ele>
        <time>2024-08-03T09:41:47Z</time>
      </trkpt>
      <trkpt lat="47.26609" lon="5.87328">
        <ele>276.8</ele>
        <time>2024-08-03T09:41:48Z</time>
      </trkpt>
      <trkpt lat="47.26606" lon="5.87327">
        <ele>277</ele>
        <time>2024-08-03T09:41:49Z</time>
      </trkpt>
      <trkpt lat="47.26603" lon="5.87327">
        <ele>277.2</ele>
        <time>2024-08-03T09:41:50Z</time>
      </trkpt>
      <trkpt lat="47.26601" lon="5.87326">
        <ele>277.4</ele>
        <time>2024-08-03T09:41:51Z</time>
      </trkpt>
      <trkpt lat="47.26598" lon="5.87325">
        <ele>277.6</ele>
        <time>2024-08-03T09:41:52Z</time>
      </trkpt>
      <trkpt lat="47.26595" lon="5.87324">
        <ele>277.8</ele>
        <time>2024-08-03T09:41:53Z</time>
      </trkpt>
      <trkpt lat="47.26592" lon="5.87324">
        <ele>278.2</ele>
        <time>2024-08-03T09:41:54Z</time>
      </trkpt>
      <trkpt lat="47.26589" lon="5.87324">
        <ele>278.2</ele>
        <time>2024-08-03T09:41:55Z</time>
      </trkpt>
      <trkpt lat="47.26586" lon="5.87324">
        <ele>278.4</ele>
        <time>2024-08-03T09:41:56Z</time>
      </trkpt>
      <trkpt lat="47.26583" lon="5.87325">
        <ele>278.6</ele>
        <time>2024-08-03T09:41:57Z</time>
      </trkpt>
      <trkpt lat="47.2658" lon="5.87325">
        <ele>278.8</ele>
        <time>2024-08-03T09:41:58Z</time>
      </trkpt>
      <trkpt lat="47.26577" lon="5.87326">
        <ele>279.2</ele>
        <time>2024-08-03T09:41:59Z</time>
      </trkpt>
      <trkpt lat="47.26575" lon="5.87327">
        <ele>279.4</ele>
        <time>2024-08-03T09:42:00Z</time>
      </trkpt>
      <trkpt lat="47.26572" lon="5.87328">
        <ele>279.6</ele>
        <time>2024-08-03T09:42:01Z</time>
      </trkpt>
      <trkpt lat="47.26569" lon="5.8733">
        <ele>279.8</ele>
        <time>2024-08-03T09:42:02Z</time>
      </trkpt>
      <trkpt lat="47.26566" lon="5.87332">
        <ele>279.8</ele>
        <time>2024-08-03T09:42:03Z</time>
      </trkpt>
      <trkpt lat="47.26564" lon="5.87333">
        <ele>280</ele>
        <time>2024-08-03T09:42:04Z</time>
      </trkpt>
      <trkpt lat="47.26562" lon="5.87335">
        <ele>280.2</ele>
        <time>2024-08-03T09:42:05Z</time>
      </trkpt>
      <trkpt lat="47.2656" lon="5.87337">
        <ele>280.2</ele>
        <time>2024-08-03T09:42:06Z</time>
      </trkpt>
      <trkpt lat="47.26557" lon="5.8734">
        <ele>280.2</ele>
        <time>2024-08-03T09:42:07Z</time>
      </trkpt>
      <trkpt lat="47.26554" lon="5.87342">
        <ele>280.4</ele>
        <time>2024-08-03T09:42:08Z</time>
      </trkpt>
      <trkpt lat="47.26551" lon="5.87345">
        <ele>280.6</ele>
        <time>2024-08-03T09:42:09Z</time>
      </trkpt>
      <trkpt lat="47.26548" lon="5.87348">
        <ele>280.8</ele>
        <time>2024-08-03T09:42:10Z</time>
      </trkpt>
      <trkpt lat="47.26545" lon="5.87351">
        <ele>281</ele>
        <time>2024-08-03T09:42:11Z</time>
      </trkpt>
      <trkpt lat="47.26542" lon="5.87354">
        <ele>281.2</ele>
        <time>2024-08-03T09:42:12Z</time>
      </trkpt>
      <trkpt lat="47.26537" lon="5.87357">
        <ele>281.2</ele>
        <time>2024-08-03T09:42:13Z</time>
      </trkpt>
      <trkpt lat="47.26532" lon="5.87359">
        <ele>281.2</ele>
        <time>2024-08-03T09:42:14Z</time>
      </trkpt>
      <trkpt lat="47.26527" lon="5.87361">
        <ele>281.2</ele>
        <time>2024-08-03T09:42:15Z</time>
      </trkpt>
      <trkpt lat="47.26521" lon="5.87363">
        <ele>281.4</ele>
        <time>2024-08-03T09:42:16Z</time>
      </trkpt>
      <trkpt lat="47.26516" lon="5.87365">
        <ele>281.2</ele>
        <time>2024-08-03T09:42:17Z</time>
      </trkpt>
      <trkpt lat="47.2651" lon="5.87366">
        <ele>281.4</ele>
        <time>2024-08-03T09:42:18Z</time>
      </trkpt>
      <trkpt lat="47.26503" lon="5.87368">
        <ele>281.2</ele>
        <time>2024-08-03T09:42:19Z</time>
      </trkpt>
      <trkpt lat="47.26497" lon="5.8737">
        <ele>281.2</ele>
        <time>2024-08-03T09:42:20Z</time>
      </trkpt>
      <trkpt lat="47.2649" lon="5.87373">
        <ele>281.2</ele>
        <time>2024-08-03T09:42:21Z</time>
      </trkpt>
      <trkpt lat="47.26483" lon="5.87375">
        <ele>281</ele>
        <time>2024-08-03T09:42:22Z</time>
      </trkpt>
      <trkpt lat="47.26477" lon="5.87378">
        <ele>280.8</ele>
        <time>2024-08-03T09:42:23Z</time>
      </trkpt>
      <trkpt lat="47.26471" lon="5.8738">
        <ele>280.8</ele>
        <time>2024-08-03T09:42:24Z</time>
      </trkpt>
      <trkpt lat="47.26464" lon="5.87383">
        <ele>280.4</ele>
        <time>2024-08-03T09:42:25Z</time>
      </trkpt>
      <trkpt lat="47.26459" lon="5.87385">
        <ele>280.2</ele>
        <time>2024-08-03T09:42:26Z</time>
      </trkpt>
      <trkpt lat="47.26454" lon="5.87387">
        <ele>280</ele>
        <time>2024-08-03T09:42:27Z</time>
      </trkpt>
      <trkpt lat="47.26448" lon="5.87389">
        <ele>280</ele>
        <time>2024-08-03T09:42:28Z</time>
      </trkpt>
      <trkpt lat="47.26443" lon="5.87391">
        <ele>280</ele>
        <time>2024-08-03T09:42:29Z</time>
      </trkpt>
      <trkpt lat="47.26439" lon="5.87393">
        <ele>279.6</ele>
        <time>2024-08-03T09:42:30Z</time>
      </trkpt>
      <trkpt lat="47.26435" lon="5.87393">
        <ele>279.6</ele>
        <time>2024-08-03T09:42:31Z</time>
      </trkpt>
      <trkpt lat="47.26431" lon="5.87394">
        <ele>279.8</ele>
        <time>2024-08-03T09:42:32Z</time>
      </trkpt>
      <trkpt lat="47.26427" lon="5.87393">
        <ele>279.6</ele>
        <time>2024-08-03T09:42:33Z</time>
      </trkpt>
      <trkpt lat="47.26423" lon="5.87392">
        <ele>279.6</ele>
        <time>2024-08-03T09:42:34Z</time>
      </trkpt>
      <trkpt lat="47.26419" lon="5.87391">
        <ele>279.8</ele>
        <time>2024-08-03T09:42:35Z</time>
      </trkpt>
      <trkpt lat="47.26415" lon="5.87389">
        <ele>279.6</ele>
        <time>2024-08-03T09:42:36Z</time>
      </trkpt>
      <trkpt lat="47.26411" lon="5.87388">
        <ele>279.8</ele>
        <time>2024-08-03T09:42:37Z</time>
      </trkpt>
      <trkpt lat="47.26407" lon="5.87386">
        <ele>279.8</ele>
        <time>2024-08-03T09:42:38Z</time>
      </trkpt>
      <trkpt lat="47.26403" lon="5.87383">
        <ele>280</ele>
        <time>2024-08-03T09:42:39Z</time>
      </trkpt>
      <trkpt lat="47.26399" lon="5.87381">
        <ele>280.2</ele>
        <time>2024-08-03T09:42:40Z</time>
      </trkpt>
      <trkpt lat="47.26395" lon="5.87377">
        <ele>280.4</ele>
        <time>2024-08-03T09:42:41Z</time>
      </trkpt>
      <trkpt lat="47.2639" lon="5.87374">
        <ele>280.6</ele>
        <time>2024-08-03T09:42:42Z</time>
      </trkpt>
      <trkpt lat="47.26386" lon="5.87371">
        <ele>280.4</ele>
        <time>2024-08-03T09:42:43Z</time>
      </trkpt>
      <trkpt lat="47.26382" lon="5.87367">
        <ele>280.4</ele>
        <time>2024-08-03T09:42:44Z</time>
      </trkpt>
      <trkpt lat="47.26377" lon="5.87362">
        <ele>280.4</ele>
        <time>2024-08-03T09:42:45Z</time>
      </trkpt>
      <trkpt lat="47.26372" lon="5.87357">
        <ele>280.6</ele>
        <time>2024-08-03T09:42:46Z</time>
      </trkpt>
      <trkpt lat="47.26367" lon="5.87352">
        <ele>280.6</ele>
        <time>2024-08-03T09:42:47Z</time>
      </trkpt>
      <trkpt lat="47.26362" lon="5.87347">
        <ele>280.6</ele>
        <time>2024-08-03T09:42:48Z</time>
      </trkpt>
      <trkpt lat="47.26356" lon="5.8734">
        <ele>280.4</ele>
        <time>2024-08-03T09:42:49Z</time>
      </trkpt>
      <trkpt lat="47.2635" lon="5.87334">
        <ele>280.6</ele>
        <time>2024-08-03T09:42:50Z</time>
      </trkpt>
      <trkpt lat="47.26344" lon="5.87328">
        <ele>280.6</ele>
        <time>2024-08-03T09:42:51Z</time>
      </trkpt>
      <trkpt lat="47.26338" lon="5.87321">
        <ele>280.6</ele>
        <time>2024-08-03T09:42:52Z</time>
      </trkpt>
      <trkpt lat="47.26332" lon="5.87315">
        <ele>280.4</ele>
        <time>2024-08-03T09:42:53Z</time>
      </trkpt>
      <trkpt lat="47.26326" lon="5.87308">
        <ele>280.2</ele>
        <time>2024-08-03T09:42:54Z</time>
      </trkpt>
      <trkpt lat="47.26319" lon="5.87301">
        <ele>280.2</ele>
        <time>2024-08-03T09:42:55Z</time>
      </trkpt>
      <trkpt lat="47.26313" lon="5.87294">
        <ele>279.8</ele>
        <time>2024-08-03T09:42:56Z</time>
      </trkpt>
      <trkpt lat="47.26306" lon="5.87287">
        <ele>279.6</ele>
        <time>2024-08-03T09:42:57Z</time>
      </trkpt>
      <trkpt lat="47.26299" lon="5.87281">
        <ele>279.6</ele>
        <time>2024-08-03T09:42:58Z</time>
      </trkpt>
      <trkpt lat="47.26293" lon="5.87274">
        <ele>279.2</ele>
        <time>2024-08-03T09:42:59Z</time>
      </trkpt>
      <trkpt lat="47.26286" lon="5.87269">
        <ele>278.8</ele>
        <time>2024-08-03T09:43:00Z</time>
      </trkpt>
      <trkpt lat="47.2628" lon="5.87264">
        <ele>278.2</ele>
        <time>2024-08-03T09:43:01Z</time>
      </trkpt>
      <trkpt lat="47.26274" lon="5.87261">
        <ele>277.6</ele>
        <time>2024-08-03T09:43:02Z</time>
      </trkpt>
      <trkpt lat="47.26269" lon="5.87259">
        <ele>277</ele>
        <time>2024-08-03T09:43:03Z</time>
      </trkpt>
      <trkpt lat="47.26264" lon="5.87257">
        <ele>276.4</ele>
        <time>2024-08-03T09:43:04Z</time>
      </trkpt>
      <trkpt lat="47.26261" lon="5.87256">
        <ele>275.6</ele>
        <time>2024-08-03T09:43:05Z</time>
      </trkpt>
      <trkpt lat="47.26258" lon="5.87254">
        <ele>275.2</ele>
        <time>2024-08-03T09:43:06Z</time>
      </trkpt>
      <trkpt lat="47.26256" lon="5.87253">
        <ele>274.4</ele>
        <time>2024-08-03T09:43:07Z</time>
      </trkpt>
      <trkpt lat="47.26253" lon="5.87251">
        <ele>273.6</ele>
        <time>2024-08-03T09:43:08Z</time>
      </trkpt>
      <trkpt lat="47.26251" lon="5.87249">
        <ele>272.8</ele>
        <time>2024-08-03T09:43:09Z</time>
      </trkpt>
      <trkpt lat="47.2625" lon="5.87249">
        <ele>272</ele>
        <time>2024-08-03T09:43:10Z</time>
      </trkpt>
      <trkpt lat="47.26248" lon="5.87248">
        <ele>271.6</ele>
        <time>2024-08-03T09:43:11Z</time>
      </trkpt>
      <trkpt lat="47.26246" lon="5.87248">
        <ele>271.2</ele>
        <time>2024-08-03T09:43:12Z</time>
      </trkpt>
      <trkpt lat="47.26245" lon="5.87246">
        <ele>271.2</ele>
        <time>2024-08-03T09:43:13Z</time>
      </trkpt>
      <trkpt lat="47.26244" lon="5.87243">
        <ele>270.8</ele>
        <time>2024-08-03T09:43:14Z</time>
      </trkpt>
      <trkpt lat="47.26244" lon="5.87239">
        <ele>270.8</ele>
        <time>2024-08-03T09:43:15Z</time>
      </trkpt>
      <trkpt lat="47.26243" lon="5.87235">
        <ele>270.8</ele>
        <time>2024-08-03T09:43:16Z</time>
      </trkpt>
      <trkpt lat="47.26242" lon="5.87231">
        <ele>270.6</ele>
        <time>2024-08-03T09:43:17Z</time>
      </trkpt>
      <trkpt lat="47.2624" lon="5.87226">
        <ele>270.4</ele>
        <time>2024-08-03T09:43:18Z</time>
      </trkpt>
      <trkpt lat="47.26238" lon="5.87221">
        <ele>270.6</ele>
        <time>2024-08-03T09:43:19Z</time>
      </trkpt>
      <trkpt lat="47.26236" lon="5.87217">
        <ele>270.6</ele>
        <time>2024-08-03T09:43:20Z</time>
      </trkpt>
      <trkpt lat="47.26234" lon="5.87213">
        <ele>270.6</ele>
        <time>2024-08-03T09:43:21Z</time>
      </trkpt>
      <trkpt lat="47.26232" lon="5.87209">
        <ele>270.6</ele>
        <time>2024-08-03T09:43:22Z</time>
      </trkpt>
      <trkpt lat="47.26229" lon="5.87205">
        <ele>270.4</ele>
        <time>2024-08-03T09:43:23Z</time>
      </trkpt>
      <trkpt lat="47.26227" lon="5.87201">
        <ele>270.6</ele>
        <time>2024-08-03T09:43:24Z</time>
      </trkpt>
      <trkpt lat="47.26224" lon="5.87197">
        <ele>270.8</ele>
        <time>2024-08-03T09:43:25Z</time>
      </trkpt>
      <trkpt lat="47.26222" lon="5.87193">
        <ele>270.8</ele>
        <time>2024-08-03T09:43:26Z</time>
      </trkpt>
      <trkpt lat="47.2622" lon="5.87188">
        <ele>271</ele>
        <time>2024-08-03T09:43:27Z</time>
      </trkpt>
      <trkpt lat="47.26219" lon="5.87184">
        <ele>271</ele>
        <time>2024-08-03T09:43:28Z</time>
      </trkpt>
      <trkpt lat="47.26217" lon="5.8718">
        <ele>271.2</ele>
        <time>2024-08-03T09:43:29Z</time>
      </trkpt>
      <trkpt lat="47.26215" lon="5.87176">
        <ele>271.4</ele>
        <time>2024-08-03T09:43:30Z</time>
      </trkpt>
      <trkpt lat="47.26213" lon="5.87172">
        <ele>271.4</ele>
        <time>2024-08-03T09:43:31Z</time>
      </trkpt>
      <trkpt lat="47.26211" lon="5.87169">
        <ele>271.8</ele>
        <time>2024-08-03T09:43:32Z</time>
      </trkpt>
      <trkpt lat="47.26209" lon="5.87165">
        <ele>271.8</ele>
        <time>2024-08-03T09:43:33Z</time>
      </trkpt>
      <trkpt lat="47.26207" lon="5.87162">
        <ele>272.2</ele>
        <time>2024-08-03T09:43:34Z</time>
      </trkpt>
      <trkpt lat="47.26206" lon="5.87158">
        <ele>272.2</ele>
        <time>2024-08-03T09:43:35Z</time>
      </trkpt>
      <trkpt lat="47.26205" lon="5.87154">
        <ele>272.6</ele>
        <time>2024-08-03T09:43:36Z</time>
      </trkpt>
      <trkpt lat="47.26203" lon="5.87151">
        <ele>273</ele>
        <time>2024-08-03T09:43:37Z</time>
      </trkpt>
      <trkpt lat="47.26201" lon="5.87147">
        <ele>273.2</ele>
        <time>2024-08-03T09:43:38Z</time>
      </trkpt>
      <trkpt lat="47.262" lon="5.87143">
        <ele>273.6</ele>
        <time>2024-08-03T09:43:39Z</time>
      </trkpt>
      <trkpt lat="47.26198" lon="5.87139">
        <ele>273.6</ele>
        <time>2024-08-03T09:43:40Z</time>
      </trkpt>
      <trkpt lat="47.26197" lon="5.87134">
        <ele>273.8</ele>
        <time>2024-08-03T09:43:41Z</time>
      </trkpt>
      <trkpt lat="47.26195" lon="5.8713">
        <ele>274</ele>
        <time>2024-08-03T09:43:42Z</time>
      </trkpt>
      <trkpt lat="47.26193" lon="5.87126">
        <ele>274.4</ele>
        <time>2024-08-03T09:43:43Z</time>
      </trkpt>
      <trkpt lat="47.26191" lon="5.87122">
        <ele>274.6</ele>
        <time>2024-08-03T09:43:44Z</time>
      </trkpt>
      <trkpt lat="47.2619" lon="5.87118">
        <ele>274.8</ele>
        <time>2024-08-03T09:43:45Z</time>
      </trkpt>
      <trkpt lat="47.26188" lon="5.87115">
        <ele>274.8</ele>
        <time>2024-08-03T09:43:46Z</time>
      </trkpt>
      <trkpt lat="47.26186" lon="5.87111">
        <ele>275.2</ele>
        <time>2024-08-03T09:43:47Z</time>
      </trkpt>
      <trkpt lat="47.26184" lon="5.87107">
        <ele>275.2</ele>
        <time>2024-08-03T09:43:48Z</time>
      </trkpt>
      <trkpt lat="47.26182" lon="5.87103">
        <ele>275.4</ele>
        <time>2024-08-03T09:43:49Z</time>
      </trkpt>
      <trkpt lat="47.2618" lon="5.871">
        <ele>275.6</ele>
        <time>2024-08-03T09:43:50Z</time>
      </trkpt>
      <trkpt lat="47.26178" lon="5.87095">
        <ele>275.8</ele>
        <time>2024-08-03T09:43:51Z</time>
      </trkpt>
      <trkpt lat="47.26177" lon="5.87091">
        <ele>276</ele>
        <time>2024-08-03T09:43:52Z</time>
      </trkpt>
      <trkpt lat="47.26177" lon="5.87086">
        <ele>276.2</ele>
        <time>2024-08-03T09:43:53Z</time>
      </trkpt>
      <trkpt lat="47.26175" lon="5.87082">
        <ele>276.4</ele>
        <time>2024-08-03T09:43:54Z</time>
      </trkpt>
      <trkpt lat="47.26175" lon="5.87078">
        <ele>276.4</ele>
        <time>2024-08-03T09:43:55Z</time>
      </trkpt>
      <trkpt lat="47.26175" lon="5.87074">
        <ele>276.6</ele>
        <time>2024-08-03T09:43:56Z</time>
      </trkpt>
      <trkpt lat="47.26175" lon="5.87068">
        <ele>276.6</ele>
        <time>2024-08-03T09:43:57Z</time>
      </trkpt>
      <trkpt lat="47.26175" lon="5.87063">
        <ele>276.6</ele>
        <time>2024-08-03T09:43:58Z</time>
      </trkpt>
      <trkpt lat="47.26174" lon="5.87058">
        <ele>277</ele>
        <time>2024-08-03T09:43:59Z</time>
      </trkpt>
      <trkpt lat="47.26174" lon="5.87052">
        <ele>276.8</ele>
        <time>2024-08-03T09:44:00Z</time>
      </trkpt>
      <trkpt lat="47.26174" lon="5.87047">
        <ele>277</ele>
        <time>2024-08-03T09:44:01Z</time>
      </trkpt>
      <trkpt lat="47.26174" lon="5.87041">
        <ele>277</ele>
        <time>2024-08-03T09:44:02Z</time>
      </trkpt>
      <trkpt lat="47.26174" lon="5.87035">
        <ele>277.2</ele>
        <time>2024-08-03T09:44:03Z</time>
      </trkpt>
      <trkpt lat="47.26174" lon="5.87029">
        <ele>277.2</ele>
        <time>2024-08-03T09:44:04Z</time>
      </trkpt>
      <trkpt lat="47.26173" lon="5.87023">
        <ele>277.2</ele>
        <time>2024-08-03T09:44:05Z</time>
      </trkpt>
      <trkpt lat="47.26172" lon="5.87018">
        <ele>277.4</ele>
        <time>2024-08-03T09:44:06Z</time>
      </trkpt>
      <trkpt lat="47.26172" lon="5.87012">
        <ele>277.4</ele>
        <time>2024-08-03T09:44:07Z</time>
      </trkpt>
      <trkpt lat="47.26171" lon="5.87007">
        <ele>277.2</ele>
        <time>2024-08-03T09:44:08Z</time>
      </trkpt>
      <trkpt lat="47.26171" lon="5.87003">
        <ele>277.4</ele>
        <time>2024-08-03T09:44:09Z</time>
      </trkpt>
      <trkpt lat="47.2617" lon="5.86998">
        <ele>277.4</ele>
        <time>2024-08-03T09:44:10Z</time>
      </trkpt>
      <trkpt lat="47.26169" lon="5.86995">
        <ele>277.6</ele>
        <time>2024-08-03T09:44:11Z</time>
      </trkpt>
      <trkpt lat="47.26167" lon="5.86992">
        <ele>277.8</ele>
        <time>2024-08-03T09:44:12Z</time>
      </trkpt>
      <trkpt lat="47.26166" lon="5.86988">
        <ele>277.8</ele>
        <time>2024-08-03T09:44:13Z</time>
      </trkpt>
      <trkpt lat="47.26165" lon="5.86985">
        <ele>278.2</ele>
        <time>2024-08-03T09:44:14Z</time>
      </trkpt>
      <trkpt lat="47.26164" lon="5.86982">
        <ele>278.2</ele>
        <time>2024-08-03T09:44:15Z</time>
      </trkpt>
      <trkpt lat="47.26164" lon="5.86979">
        <ele>278.4</ele>
        <time>2024-08-03T09:44:16Z</time>
      </trkpt>
      <trkpt lat="47.26163" lon="5.86977">
        <ele>278.4</ele>
        <time>2024-08-03T09:44:17Z</time>
      </trkpt>
      <trkpt lat="47.26162" lon="5.86975">
        <ele>278.6</ele>
        <time>2024-08-03T09:44:18Z</time>
      </trkpt>
      <trkpt lat="47.26162" lon="5.86972">
        <ele>278.6</ele>
        <time>2024-08-03T09:44:19Z</time>
      </trkpt>
      <trkpt lat="47.26161" lon="5.86969">
        <ele>278.8</ele>
        <time>2024-08-03T09:44:20Z</time>
      </trkpt>
      <trkpt lat="47.26159" lon="5.86967">
        <ele>279</ele>
        <time>2024-08-03T09:44:21Z</time>
      </trkpt>
      <trkpt lat="47.26157" lon="5.86966">
        <ele>279</ele>
        <time>2024-08-03T09:44:22Z</time>
      </trkpt>
      <trkpt lat="47.26156" lon="5.86966">
        <ele>279</ele>
        <time>2024-08-03T09:44:23Z</time>
      </trkpt>
      <trkpt lat="47.26154" lon="5.86966">
        <ele>279</ele>
        <time>2024-08-03T09:44:24Z</time>
      </trkpt>
      <trkpt lat="47.26153" lon="5.86966">
        <ele>279</ele>
        <time>2024-08-03T09:44:25Z</time>
      </trkpt>
      <trkpt lat="47.26152" lon="5.86966">
        <ele>279</ele>
        <time>2024-08-03T09:44:26Z</time>
      </trkpt>
      <trkpt lat="47.26153" lon="5.86966">
        <ele>279.2</ele>
        <time>2024-08-03T09:44:27Z</time>
      </trkpt>
      <trkpt lat="47.26153" lon="5.86966">
        <ele>279</ele>
        <time>2024-08-03T09:44:28Z</time>
      </trkpt>
      <trkpt lat="47.26152" lon="5.86966">
        <ele>279.2</ele>
        <time>2024-08-03T09:44:29Z</time>
      </trkpt>
      <trkpt lat="47.26152" lon="5.86966">
        <ele>279.2</ele>
        <time>2024-08-03T09:44:30Z</time>
      </trkpt>
      <trkpt lat="47.26153" lon="5.86966">
        <ele>279</ele>
        <time>2024-08-03T09:44:31Z</time>
      </trkpt>
      <trkpt lat="47.26152" lon="5.86966">
        <ele>279</ele>
        <time>2024-08-03T09:44:32Z</time>
      </trkpt>
      <trkpt lat="47.26153" lon="5.86966">
        <ele>279</ele>
        <time>2024-08-03T09:44:33Z</time>
      </trkpt>
      <trkpt lat="47.26153" lon="5.86966">
        <ele>279</ele>
        <time>2024-08-03T09:44:34Z</time>
      </trkpt>
      <trkpt lat="47.26152" lon="5.86967">
        <ele>278.8</ele>
        <time>2024-08-03T09:44:35Z</time>
      </trkpt>
      <trkpt lat="47.26152" lon="5.86968">
        <ele>279</ele>
        <time>2024-08-03T09:44:36Z</time>
      </trkpt>
      <trkpt lat="47.26152" lon="5.8697">
        <ele>279</ele>
        <time>2024-08-03T09:44:37Z</time>
      </trkpt>
      <trkpt lat="47.26153" lon="5.86972">
        <ele>279</ele>
        <time>2024-08-03T09:44:38Z</time>
      </trkpt>
      <trkpt lat="47.26153" lon="5.86973">
        <ele>279</ele>
        <time>2024-08-03T09:44:39Z</time>
      </trkpt>
      <trkpt lat="47.26153" lon="5.86974">
        <ele>279</ele>
        <time>2024-08-03T09:44:40Z</time>
      </trkpt>
      <trkpt lat="47.26154" lon="5.86975">
        <ele>279</ele>
        <time>2024-08-03T09:44:41Z</time>
      </trkpt>
      <trkpt lat="47.26154" lon="5.86977">
        <ele>279</ele>
        <time>2024-08-03T09:44:42Z</time>
      </trkpt>
      <trkpt lat="47.26154" lon="5.86977">
        <ele>279</ele>
        <time>2024-08-03T09:44:43Z</time>
      </trkpt>
      <trkpt lat="47.26154" lon="5.86978">
        <ele>279</ele>
        <time>2024-08-03T09:44:44Z</time>
      </trkpt>
      <trkpt lat="47.26154" lon="5.86977">
        <ele>279</ele>
        <time>2024-08-03T09:44:45Z</time>
      </trkpt>
      <trkpt lat="47.26154" lon="5.86977">
        <ele>279</ele>
        <time>2024-08-03T09:44:46Z</time>
      </trkpt>
      <trkpt lat="47.26153" lon="5.86976">
        <ele>279.2</ele>
        <time>2024-08-03T09:44:47Z</time>
      </trkpt>
      <trkpt lat="47.26153" lon="5.86976">
        <ele>279.2</ele>
        <time>2024-08-03T09:44:48Z</time>
      </trkpt>
      <trkpt lat="47.26153" lon="5.86975">
        <ele>279</ele>
        <time>2024-08-03T09:44:49Z</time>
      </trkpt>
      <trkpt lat="47.26153" lon="5.86975">
        <ele>279</ele>
        <time>2024-08-03T09:44:50Z</time>
      </trkpt>
      <trkpt lat="47.26153" lon="5.86974">
        <ele>279</ele>
        <time>2024-08-03T09:44:51Z</time>
      </trkpt>
      <trkpt lat="47.26153" lon="5.86972">
        <ele>279.2</ele>
        <time>2024-08-03T09:44:52Z</time>
      </trkpt>
      <trkpt lat="47.26153" lon="5.86971">
        <ele>279.2</ele>
        <time>2024-08-03T09:44:53Z</time>
      </trkpt>
      <trkpt lat="47.26153" lon="5.8697">
        <ele>279.2</ele>
        <time>2024-08-03T09:44:54Z</time>
      </trkpt>
      <trkpt lat="47.26153" lon="5.86968">
        <ele>279</ele>
        <time>2024-08-03T09:44:55Z</time>
      </trkpt>
      <trkpt lat="47.26152" lon="5.86967">
        <ele>279.2</ele>
        <time>2024-08-03T09:44:56Z</time>
      </trkpt>
      <trkpt lat="47.26151" lon="5.86967">
        <ele>279.2</ele>
        <time>2024-08-03T09:44:57Z</time>
      </trkpt>
      <trkpt lat="47.26149" lon="5.86967">
        <ele>279.2</ele>
        <time>2024-08-03T09:44:58Z</time>
      </trkpt>
      <trkpt lat="47.26147" lon="5.86967">
        <ele>279.2</ele>
        <time>2024-08-03T09:44:59Z</time>
      </trkpt>
      <trkpt lat="47.26145" lon="5.86968">
        <ele>279.2</ele>
        <time>2024-08-03T09:45:00Z</time>
      </trkpt>
      <trkpt lat="47.26143" lon="5.86969">
        <ele>279</ele>
        <time>2024-08-03T09:45:01Z</time>
      </trkpt>
      <trkpt lat="47.2614" lon="5.8697">
        <ele>279</ele>
        <time>2024-08-03T09:45:02Z</time>
      </trkpt>
      <trkpt lat="47.26138" lon="5.86971">
        <ele>279</ele>
        <time>2024-08-03T09:45:03Z</time>
      </trkpt>
      <trkpt lat="47.26135" lon="5.86973">
        <ele>279</ele>
        <time>2024-08-03T09:45:04Z</time>
      </trkpt>
      <trkpt lat="47.26133" lon="5.86975">
        <ele>278.8</ele>
        <time>2024-08-03T09:45:05Z</time>
      </trkpt>
      <trkpt lat="47.26131" lon="5.86975">
        <ele>278.8</ele>
        <time>2024-08-03T09:45:06Z</time>
      </trkpt>
      <trkpt lat="47.26129" lon="5.86975">
        <ele>278.8</ele>
        <time>2024-08-03T09:45:07Z</time>
      </trkpt>
      <trkpt lat="47.26127" lon="5.86974">
        <ele>278.6</ele>
        <time>2024-08-03T09:45:08Z</time>
      </trkpt>
      <trkpt lat="47.26125" lon="5.86972">
        <ele>278.8</ele>
        <time>2024-08-03T09:45:09Z</time>
      </trkpt>
      <trkpt lat="47.26123" lon="5.86969">
        <ele>278.6</ele>
        <time>2024-08-03T09:45:10Z</time>
      </trkpt>
      <trkpt lat="47.26122" lon="5.86966">
        <ele>278.6</ele>
        <time>2024-08-03T09:45:11Z</time>
      </trkpt>
      <trkpt lat="47.2612" lon="5.86963">
        <ele>278.6</ele>
        <time>2024-08-03T09:45:12Z</time>
      </trkpt>
      <trkpt lat="47.26118" lon="5.86959">
        <ele>278.6</ele>
        <time>2024-08-03T09:45:13Z</time>
      </trkpt>
      <trkpt lat="47.26116" lon="5.86955">
        <ele>278.4</ele>
        <time>2024-08-03T09:45:14Z</time>
      </trkpt>
      <trkpt lat="47.26113" lon="5.86951">
        <ele>278.4</ele>
        <time>2024-08-03T09:45:15Z</time>
      </trkpt>
      <trkpt lat="47.2611" lon="5.86947">
        <ele>278.4</ele>
        <time>2024-08-03T09:45:16Z</time>
      </trkpt>
      <trkpt lat="47.26107" lon="5.86943">
        <ele>278.4</ele>
        <time>2024-08-03T09:45:17Z</time>
      </trkpt>
      <trkpt lat="47.26103" lon="5.86939">
        <ele>278.4</ele>
        <time>2024-08-03T09:45:18Z</time>
      </trkpt>
      <trkpt lat="47.261" lon="5.86935">
        <ele>278.4</ele>
        <time>2024-08-03T09:45:19Z</time>
      </trkpt>
      <trkpt lat="47.26096" lon="5.86931">
        <ele>278.2</ele>
        <time>2024-08-03T09:45:20Z</time>
      </trkpt>
      <trkpt lat="47.26093" lon="5.86926">
        <ele>278.4</ele>
        <time>2024-08-03T09:45:21Z</time>
      </trkpt>
      <trkpt lat="47.2609" lon="5.86922">
        <ele>278.2</ele>
        <time>2024-08-03T09:45:22Z</time>
      </trkpt>
      <trkpt lat="47.26087" lon="5.86918">
        <ele>278.4</ele>
        <time>2024-08-03T09:45:23Z</time>
      </trkpt>
      <trkpt lat="47.26083" lon="5.86914">
        <ele>278.2</ele>
        <time>2024-08-03T09:45:24Z</time>
      </trkpt>
      <trkpt lat="47.26079" lon="5.86911">
        <ele>278.2</ele>
        <time>2024-08-03T09:45:25Z</time>
      </trkpt>
      <trkpt lat="47.26076" lon="5.86907">
        <ele>278.2</ele>
        <time>2024-08-03T09:45:26Z</time>
      </trkpt>
      <trkpt lat="47.26072" lon="5.86902">
        <ele>278.4</ele>
        <time>2024-08-03T09:45:27Z</time>
      </trkpt>
      <trkpt lat="47.26069" lon="5.86898">
        <ele>278.2</ele>
        <time>2024-08-03T09:45:28Z</time>
      </trkpt>
      <trkpt lat="47.26066" lon="5.86893">
        <ele>278.2</ele>
        <time>2024-08-03T09:45:29Z</time>
      </trkpt>
      <trkpt lat="47.26063" lon="5.86888">
        <ele>278.2</ele>
        <time>2024-08-03T09:45:30Z</time>
      </trkpt>
      <trkpt lat="47.26061" lon="5.86884">
        <ele>278.2</ele>
        <time>2024-08-03T09:45:31Z</time>
      </trkpt>
      <trkpt lat="47.26058" lon="5.8688">
        <ele>278.2</ele>
        <time>2024-08-03T09:45:32Z</time>
      </trkpt>
      <trkpt lat="47.26055" lon="5.86876">
        <ele>278.2</ele>
        <time>2024-08-03T09:45:33Z</time>
      </trkpt>
      <trkpt lat="47.26053" lon="5.86872">
        <ele>278.2</ele>
        <time>2024-08-03T09:45:34Z</time>
      </trkpt>
      <trkpt lat="47.2605" lon="5.86868">
        <ele>278.2</ele>
        <time>2024-08-03T09:45:35Z</time>
      </trkpt>
      <trkpt lat="47.26048" lon="5.86864">
        <ele>278.2</ele>
        <time>2024-08-03T09:45:36Z</time>
      </trkpt>
      <trkpt lat="47.26045" lon="5.86861">
        <ele>278.2</ele>
        <time>2024-08-03T09:45:37Z</time>
      </trkpt>
      <trkpt lat="47.26042" lon="5.86856">
        <ele>278.2</ele>
        <time>2024-08-03T09:45:38Z</time>
      </trkpt>
      <trkpt lat="47.26039" lon="5.86851">
        <ele>278</ele>
        <time>2024-08-03T09:45:39Z</time>
      </trkpt>
      <trkpt lat="47.26037" lon="5.86846">
        <ele>278</ele>
        <time>2024-08-03T09:45:40Z</time>
      </trkpt>
      <trkpt lat="47.26033" lon="5.86841">
        <ele>278</ele>
        <time>2024-08-03T09:45:41Z</time>
      </trkpt>
      <trkpt lat="47.2603" lon="5.86835">
        <ele>278</ele>
        <time>2024-08-03T09:45:42Z</time>
      </trkpt>
      <trkpt lat="47.26026" lon="5.86829">
        <ele>278</ele>
        <time>2024-08-03T09:45:43Z</time>
      </trkpt>
      <trkpt lat="47.26022" lon="5.86823">
        <ele>277.8</ele>
        <time>2024-08-03T09:45:44Z</time>
      </trkpt>
      <trkpt lat="47.26018" lon="5.86817">
        <ele>277.8</ele>
        <time>2024-08-03T09:45:45Z</time>
      </trkpt>
      <trkpt lat="47.26013" lon="5.8681">
        <ele>277.8</ele>
        <time>2024-08-03T09:45:46Z</time>
      </trkpt>
      <trkpt lat="47.26007" lon="5.86804">
        <ele>277.8</ele>
        <time>2024-08-03T09:45:47Z</time>
      </trkpt>
      <trkpt lat="47.26001" lon="5.86797">
        <ele>277.8</ele>
        <time>2024-08-03T09:45:48Z</time>
      </trkpt>
      <trkpt lat="47.25995" lon="5.86791">
        <ele>277.6</ele>
        <time>2024-08-03T09:45:49Z</time>
      </trkpt>
      <trkpt lat="47.25989" lon="5.86785">
        <ele>277.2</ele>
        <time>2024-08-03T09:45:50Z</time>
      </trkpt>
      <trkpt lat="47.25983" lon="5.86779">
        <ele>277.2</ele>
        <time>2024-08-03T09:45:51Z</time>
      </trkpt>
      <trkpt lat="47.25977" lon="5.86772">
        <ele>276.8</ele>
        <time>2024-08-03T09:45:52Z</time>
      </trkpt>
      <trkpt lat="47.25971" lon="5.86765">
        <ele>276.6</ele>
        <time>2024-08-03T09:45:53Z</time>
      </trkpt>
      <trkpt lat="47.25965" lon="5.86758">
        <ele>276.4</ele>
        <time>2024-08-03T09:45:54Z</time>
      </trkpt>
      <trkpt lat="47.2596" lon="5.8675">
        <ele>275.8</ele>
        <time>2024-08-03T09:45:55Z</time>
      </trkpt>
      <trkpt lat="47.25956" lon="5.86741">
        <ele>275.6</ele>
        <time>2024-08-03T09:45:56Z</time>
      </trkpt>
      <trkpt lat="47.25952" lon="5.86734">
        <ele>275.2</ele>
        <time>2024-08-03T09:45:57Z</time>
      </trkpt>
      <trkpt lat="47.25949" lon="5.86726">
        <ele>274.8</ele>
        <time>2024-08-03T09:45:58Z</time>
      </trkpt>
      <trkpt lat="47.25946" lon="5.8672">
        <ele>274.6</ele>
        <time>2024-08-03T09:45:59Z</time>
      </trkpt>
      <trkpt lat="47.25944" lon="5.86714">
        <ele>274.4</ele>
        <time>2024-08-03T09:46:00Z</time>
      </trkpt>
      <trkpt lat="47.25942" lon="5.86709">
        <ele>274.4</ele>
        <time>2024-08-03T09:46:01Z</time>
      </trkpt>
      <trkpt lat="47.25941" lon="5.86705">
        <ele>274.4</ele>
        <time>2024-08-03T09:46:02Z</time>
      </trkpt>
      <trkpt lat="47.25939" lon="5.86703">
        <ele>274.4</ele>
        <time>2024-08-03T09:46:03Z</time>
      </trkpt>
      <trkpt lat="47.25938" lon="5.86701">
        <ele>274.4</ele>
        <time>2024-08-03T09:46:04Z</time>
      </trkpt>
      <trkpt lat="47.25937" lon="5.86699">
        <ele>274.2</ele>
        <time>2024-08-03T09:46:05Z</time>
      </trkpt>
      <trkpt lat="47.25936" lon="5.86699">
        <ele>274.4</ele>
        <time>2024-08-03T09:46:06Z</time>
      </trkpt>
      <trkpt lat="47.25934" lon="5.86698">
        <ele>274.4</ele>
        <time>2024-08-03T09:46:07Z</time>
      </trkpt>
      <trkpt lat="47.25933" lon="5.86698">
        <ele>274.4</ele>
        <time>2024-08-03T09:46:08Z</time>
      </trkpt>
      <trkpt lat="47.25931" lon="5.86698">
        <ele>274.4</ele>
        <time>2024-08-03T09:46:09Z</time>
      </trkpt>
      <trkpt lat="47.25929" lon="5.86697">
        <ele>274.4</ele>
        <time>2024-08-03T09:46:10Z</time>
      </trkpt>
      <trkpt lat="47.25927" lon="5.86697">
        <ele>274.4</ele>
        <time>2024-08-03T09:46:11Z</time>
      </trkpt>
      <trkpt lat="47.25925" lon="5.86697">
        <ele>274.8</ele>
        <time>2024-08-03T09:46:12Z</time>
      </trkpt>
      <trkpt lat="47.25923" lon="5.86696">
        <ele>274.8</ele>
        <time>2024-08-03T09:46:13Z</time>
      </trkpt>
      <trkpt lat="47.2592" lon="5.86696">
        <ele>275</ele>
        <time>2024-08-03T09:46:14Z</time>
      </trkpt>
      <trkpt lat="47.25918" lon="5.86695">
        <ele>275</ele>
        <time>2024-08-03T09:46:15Z</time>
      </trkpt>
      <trkpt lat="47.25916" lon="5.86694">
        <ele>275</ele>
        <time>2024-08-03T09:46:16Z</time>
      </trkpt>
      <trkpt lat="47.25913" lon="5.86693">
        <ele>275.2</ele>
        <time>2024-08-03T09:46:17Z</time>
      </trkpt>
      <trkpt lat="47.2591" lon="5.86692">
        <ele>275</ele>
        <time>2024-08-03T09:46:18Z</time>
      </trkpt>
      <trkpt lat="47.25907" lon="5.86691">
        <ele>275.2</ele>
        <time>2024-08-03T09:46:19Z</time>
      </trkpt>
      <trkpt lat="47.25905" lon="5.8669">
        <ele>275.4</ele>
        <time>2024-08-03T09:46:20Z</time>
      </trkpt>
      <trkpt lat="47.25902" lon="5.86688">
        <ele>275.4</ele>
        <time>2024-08-03T09:46:21Z</time>
      </trkpt>
      <trkpt lat="47.25898" lon="5.86686">
        <ele>275.6</ele>
        <time>2024-08-03T09:46:22Z</time>
      </trkpt>
      <trkpt lat="47.25894" lon="5.86684">
        <ele>275.6</ele>
        <time>2024-08-03T09:46:23Z</time>
      </trkpt>
      <trkpt lat="47.2589" lon="5.86682">
        <ele>275.8</ele>
        <time>2024-08-03T09:46:24Z</time>
      </trkpt>
      <trkpt lat="47.25886" lon="5.86681">
        <ele>276</ele>
        <time>2024-08-03T09:46:25Z</time>
      </trkpt>
      <trkpt lat="47.25882" lon="5.8668">
        <ele>276.4</ele>
        <time>2024-08-03T09:46:26Z</time>
      </trkpt>
      <trkpt lat="47.25878" lon="5.86679">
        <ele>276.4</ele>
        <time>2024-08-03T09:46:27Z</time>
      </trkpt>
      <trkpt lat="47.25874" lon="5.86678">
        <ele>276.4</ele>
        <time>2024-08-03T09:46:28Z</time>
      </trkpt>
      <trkpt lat="47.25871" lon="5.86677">
        <ele>276.6</ele>
        <time>2024-08-03T09:46:29Z</time>
      </trkpt>
      <trkpt lat="47.25867" lon="5.86676">
        <ele>276.8</ele>
        <time>2024-08-03T09:46:30Z</time>
      </trkpt>
      <trkpt lat="47.25864" lon="5.86675">
        <ele>276.8</ele>
        <time>2024-08-03T09:46:31Z</time>
      </trkpt>
      <trkpt lat="47.2586" lon="5.86674">
        <ele>277</ele>
        <time>2024-08-03T09:46:32Z</time>
      </trkpt>
      <trkpt lat="47.25856" lon="5.86674">
        <ele>277</ele>
        <time>2024-08-03T09:46:33Z</time>
      </trkpt>
      <trkpt lat="47.25853" lon="5.86673">
        <ele>277.4</ele>
        <time>2024-08-03T09:46:34Z</time>
      </trkpt>
      <trkpt lat="47.25849" lon="5.86672">
        <ele>277.4</ele>
        <time>2024-08-03T09:46:35Z</time>
      </trkpt>
      <trkpt lat="47.25846" lon="5.86671">
        <ele>277.4</ele>
        <time>2024-08-03T09:46:36Z</time>
      </trkpt>
      <trkpt lat="47.25842" lon="5.8667">
        <ele>277.8</ele>
        <time>2024-08-03T09:46:37Z</time>
      </trkpt>
      <trkpt lat="47.25839" lon="5.86668">
        <ele>278</ele>
        <time>2024-08-03T09:46:38Z</time>
      </trkpt>
      <trkpt lat="47.25835" lon="5.86667">
        <ele>278.2</ele>
        <time>2024-08-03T09:46:39Z</time>
      </trkpt>
      <trkpt lat="47.25832" lon="5.86665">
        <ele>278.4</ele>
        <time>2024-08-03T09:46:40Z</time>
      </trkpt>
      <trkpt lat="47.25828" lon="5.86662">
        <ele>278.6</ele>
        <time>2024-08-03T09:46:41Z</time>
      </trkpt>
      <trkpt lat="47.25825" lon="5.8666">
        <ele>278.8</ele>
        <time>2024-08-03T09:46:42Z</time>
      </trkpt>
      <trkpt lat="47.25822" lon="5.86657">
        <ele>279</ele>
        <time>2024-08-03T09:46:43Z</time>
      </trkpt>
      <trkpt lat="47.2582" lon="5.86654">
        <ele>279.2</ele>
        <time>2024-08-03T09:46:44Z</time>
      </trkpt>
      <trkpt lat="47.25817" lon="5.86652">
        <ele>279.4</ele>
        <time>2024-08-03T09:46:45Z</time>
      </trkpt>
      <trkpt lat="47.25814" lon="5.86649">
        <ele>279.6</ele>
        <time>2024-08-03T09:46:46Z</time>
      </trkpt>
      <trkpt lat="47.2581" lon="5.86646">
        <ele>279.8</ele>
        <time>2024-08-03T09:46:47Z</time>
      </trkpt>
      <trkpt lat="47.25807" lon="5.86644">
        <ele>280</ele>
        <time>2024-08-03T09:46:48Z</time>
      </trkpt>
      <trkpt lat="47.25803" lon="5.86641">
        <ele>280.2</ele>
        <time>2024-08-03T09:46:49Z</time>
      </trkpt>
      <trkpt lat="47.258" lon="5.86638">
        <ele>280.4</ele>
        <time>2024-08-03T09:46:50Z</time>
      </trkpt>
      <trkpt lat="47.25797" lon="5.86635">
        <ele>280.4</ele>
        <time>2024-08-03T09:46:51Z</time>
      </trkpt>
      <trkpt lat="47.25795" lon="5.86632">
        <ele>280.6</ele>
        <time>2024-08-03T09:46:52Z</time>
      </trkpt>
      <trkpt lat="47.25792" lon="5.86629">
        <ele>280.6</ele>
        <time>2024-08-03T09:46:53Z</time>
      </trkpt>
      <trkpt lat="47.25789" lon="5.86626">
        <ele>280.6</ele>
        <time>2024-08-03T09:46:54Z</time>
      </trkpt>
      <trkpt lat="47.25786" lon="5.86622">
        <ele>280.6</ele>
        <time>2024-08-03T09:46:55Z</time>
      </trkpt>
      <trkpt lat="47.25782" lon="5.86617">
        <ele>280.8</ele>
        <time>2024-08-03T09:46:56Z</time>
      </trkpt>
      <trkpt lat="47.25778" lon="5.86613">
        <ele>280.8</ele>
        <time>2024-08-03T09:46:57Z</time>
      </trkpt>
      <trkpt lat="47.25774" lon="5.86609">
        <ele>281</ele>
        <time>2024-08-03T09:46:58Z</time>
      </trkpt>
      <trkpt lat="47.2577" lon="5.86606">
        <ele>281.2</ele>
        <time>2024-08-03T09:46:59Z</time>
      </trkpt>
      <trkpt lat="47.25767" lon="5.86602">
        <ele>281.2</ele>
        <time>2024-08-03T09:47:00Z</time>
      </trkpt>
      <trkpt lat="47.25763" lon="5.866">
        <ele>281.2</ele>
        <time>2024-08-03T09:47:01Z</time>
      </trkpt>
      <trkpt lat="47.2576" lon="5.86597">
        <ele>281.4</ele>
        <time>2024-08-03T09:47:02Z</time>
      </trkpt>
      <trkpt lat="47.25756" lon="5.86595">
        <ele>281.4</ele>
        <time>2024-08-03T09:47:03Z</time>
      </trkpt>
      <trkpt lat="47.25752" lon="5.86592">
        <ele>281.4</ele>
        <time>2024-08-03T09:47:04Z</time>
      </trkpt>
      <trkpt lat="47.25748" lon="5.86591">
        <ele>281.6</ele>
        <time>2024-08-03T09:47:05Z</time>
      </trkpt>
      <trkpt lat="47.25744" lon="5.86589">
        <ele>281.6</ele>
        <time>2024-08-03T09:47:06Z</time>
      </trkpt>
      <trkpt lat="47.2574" lon="5.86588">
        <ele>281.8</ele>
        <time>2024-08-03T09:47:07Z</time>
      </trkpt>
      <trkpt lat="47.25736" lon="5.86586">
        <ele>282</ele>
        <time>2024-08-03T09:47:08Z</time>
      </trkpt>
      <trkpt lat="47.25732" lon="5.86586">
        <ele>282</ele>
        <time>2024-08-03T09:47:09Z</time>
      </trkpt>
      <trkpt lat="47.25728" lon="5.86585">
        <ele>282</ele>
        <time>2024-08-03T09:47:10Z</time>
      </trkpt>
      <trkpt lat="47.25724" lon="5.86584">
        <ele>282.2</ele>
        <time>2024-08-03T09:47:11Z</time>
      </trkpt>
      <trkpt lat="47.2572" lon="5.86583">
        <ele>282.2</ele>
        <time>2024-08-03T09:47:12Z</time>
      </trkpt>
      <trkpt lat="47.25717" lon="5.86583">
        <ele>282</ele>
        <time>2024-08-03T09:47:13Z</time>
      </trkpt>
      <trkpt lat="47.25713" lon="5.86581">
        <ele>282.4</ele>
        <time>2024-08-03T09:47:14Z</time>
      </trkpt>
      <trkpt lat="47.2571" lon="5.8658">
        <ele>282.2</ele>
        <time>2024-08-03T09:47:15Z</time>
      </trkpt>
      <trkpt lat="47.25707" lon="5.86579">
        <ele>282.2</ele>
        <time>2024-08-03T09:47:16Z</time>
      </trkpt>
      <trkpt lat="47.25704" lon="5.86579">
        <ele>282.6</ele>
        <time>2024-08-03T09:47:17Z</time>
      </trkpt>
      <trkpt lat="47.257" lon="5.86578">
        <ele>282.6</ele>
        <time>2024-08-03T09:47:18Z</time>
      </trkpt>
      <trkpt lat="47.25697" lon="5.86577">
        <ele>283</ele>
        <time>2024-08-03T09:47:19Z</time>
      </trkpt>
      <trkpt lat="47.25694" lon="5.86577">
        <ele>283.2</ele>
        <time>2024-08-03T09:47:20Z</time>
      </trkpt>
      <trkpt lat="47.25692" lon="5.86576">
        <ele>283.4</ele>
        <time>2024-08-03T09:47:21Z</time>
      </trkpt>
      <trkpt lat="47.2569" lon="5.86575">
        <ele>283.4</ele>
        <time>2024-08-03T09:47:22Z</time>
      </trkpt>
      <trkpt lat="47.25687" lon="5.86574">
        <ele>283.6</ele>
        <time>2024-08-03T09:47:23Z</time>
      </trkpt>
      <trkpt lat="47.25685" lon="5.86573">
        <ele>283.8</ele>
        <time>2024-08-03T09:47:24Z</time>
      </trkpt>
      <trkpt lat="47.25684" lon="5.86569">
        <ele>284.2</ele>
        <time>2024-08-03T09:47:25Z</time>
      </trkpt>
      <trkpt lat="47.25683" lon="5.86565">
        <ele>284.4</ele>
        <time>2024-08-03T09:47:26Z</time>
      </trkpt>
      <trkpt lat="47.25683" lon="5.86559">
        <ele>284.6</ele>
        <time>2024-08-03T09:47:27Z</time>
      </trkpt>
      <trkpt lat="47.25684" lon="5.86554">
        <ele>284.6</ele>
        <time>2024-08-03T09:47:28Z</time>
      </trkpt>
      <trkpt lat="47.25685" lon="5.8655">
        <ele>284.8</ele>
        <time>2024-08-03T09:47:29Z</time>
      </trkpt>
      <trkpt lat="47.25687" lon="5.86545">
        <ele>284.8</ele>
        <time>2024-08-03T09:47:30Z</time>
      </trkpt>
      <trkpt lat="47.25689" lon="5.86542">
        <ele>285</ele>
        <time>2024-08-03T09:47:31Z</time>
      </trkpt>
      <trkpt lat="47.25692" lon="5.86538">
        <ele>285.2</ele>
        <time>2024-08-03T09:47:32Z</time>
      </trkpt>
      <trkpt lat="47.25695" lon="5.86534">
        <ele>285.4</ele>
        <time>2024-08-03T09:47:33Z</time>
      </trkpt>
      <trkpt lat="47.25698" lon="5.8653">
        <ele>285.4</ele>
        <time>2024-08-03T09:47:34Z</time>
      </trkpt>
      <trkpt lat="47.25701" lon="5.86526">
        <ele>285.6</ele>
        <time>2024-08-03T09:47:35Z</time>
      </trkpt>
      <trkpt lat="47.25704" lon="5.86522">
        <ele>285.6</ele>
        <time>2024-08-03T09:47:36Z</time>
      </trkpt>
      <trkpt lat="47.25707" lon="5.86519">
        <ele>285.6</ele>
        <time>2024-08-03T09:47:37Z</time>
      </trkpt>
      <trkpt lat="47.2571" lon="5.86516">
        <ele>285.6</ele>
        <time>2024-08-03T09:47:38Z</time>
      </trkpt>
      <trkpt lat="47.25713" lon="5.86513">
        <ele>285.6</ele>
        <time>2024-08-03T09:47:39Z</time>
      </trkpt>
      <trkpt lat="47.25716" lon="5.8651">
        <ele>285.6</ele>
        <time>2024-08-03T09:47:40Z</time>
      </trkpt>
      <trkpt lat="47.25719" lon="5.86506">
        <ele>285.8</ele>
        <time>2024-08-03T09:47:41Z</time>
      </trkpt>
      <trkpt lat="47.25722" lon="5.86503">
        <ele>286</ele>
        <time>2024-08-03T09:47:42Z</time>
      </trkpt>
      <trkpt lat="47.25725" lon="5.865">
        <ele>285.8</ele>
        <time>2024-08-03T09:47:43Z</time>
      </trkpt>
      <trkpt lat="47.25728" lon="5.86496">
        <ele>285.8</ele>
        <time>2024-08-03T09:47:44Z</time>
      </trkpt>
      <trkpt lat="47.25731" lon="5.86493">
        <ele>285.8</ele>
        <time>2024-08-03T09:47:45Z</time>
      </trkpt>
      <trkpt lat="47.25734" lon="5.86489">
        <ele>285.8</ele>
        <time>2024-08-03T09:47:46Z</time>
      </trkpt>
      <trkpt lat="47.25737" lon="5.86486">
        <ele>285.8</ele>
        <time>2024-08-03T09:47:47Z</time>
      </trkpt>
      <trkpt lat="47.2574" lon="5.86482">
        <ele>286</ele>
        <time>2024-08-03T09:47:48Z</time>
      </trkpt>
      <trkpt lat="47.25743" lon="5.86478">
        <ele>286</ele>
        <time>2024-08-03T09:47:49Z</time>
      </trkpt>
      <trkpt lat="47.25747" lon="5.86476">
        <ele>286</ele>
        <time>2024-08-03T09:47:50Z</time>
      </trkpt>
      <trkpt lat="47.25751" lon="5.86474">
        <ele>286</ele>
        <time>2024-08-03T09:47:51Z</time>
      </trkpt>
      <trkpt lat="47.25754" lon="5.8647">
        <ele>286.4</ele>
        <time>2024-08-03T09:47:52Z</time>
      </trkpt>
      <trkpt lat="47.25757" lon="5.86468">
        <ele>286.4</ele>
        <time>2024-08-03T09:47:53Z</time>
      </trkpt>
      <trkpt lat="47.2576" lon="5.86464">
        <ele>286.2</ele>
        <time>2024-08-03T09:47:54Z</time>
      </trkpt>
      <trkpt lat="47.25764" lon="5.8646">
        <ele>286.4</ele>
        <time>2024-08-03T09:47:55Z</time>
      </trkpt>
      <trkpt lat="47.25767" lon="5.86457">
        <ele>286.4</ele>
        <time>2024-08-03T09:47:56Z</time>
      </trkpt>
      <trkpt lat="47.2577" lon="5.86453">
        <ele>286.4</ele>
        <time>2024-08-03T09:47:57Z</time>
      </trkpt>
      <trkpt lat="47.25774" lon="5.8645">
        <ele>286.4</ele>
        <time>2024-08-03T09:47:58Z</time>
      </trkpt>
      <trkpt lat="47.25778" lon="5.86446">
        <ele>286.4</ele>
        <time>2024-08-03T09:47:59Z</time>
      </trkpt>
      <trkpt lat="47.25781" lon="5.86443">
        <ele>286.4</ele>
        <time>2024-08-03T09:48:00Z</time>
      </trkpt>
      <trkpt lat="47.25785" lon="5.8644">
        <ele>286.4</ele>
        <time>2024-08-03T09:48:01Z</time>
      </trkpt>
      <trkpt lat="47.25788" lon="5.86437">
        <ele>286.4</ele>
        <time>2024-08-03T09:48:02Z</time>
      </trkpt>
      <trkpt lat="47.2579" lon="5.86433">
        <ele>286.4</ele>
        <time>2024-08-03T09:48:03Z</time>
      </trkpt>
      <trkpt lat="47.25793" lon="5.86429">
        <ele>286.4</ele>
        <time>2024-08-03T09:48:04Z</time>
      </trkpt>
      <trkpt lat="47.25796" lon="5.86426">
        <ele>286.4</ele>
        <time>2024-08-03T09:48:05Z</time>
      </trkpt>
      <trkpt lat="47.25799" lon="5.86423">
        <ele>286.4</ele>
        <time>2024-08-03T09:48:06Z</time>
      </trkpt>
      <trkpt lat="47.25802" lon="5.8642">
        <ele>286.4</ele>
        <time>2024-08-03T09:48:07Z</time>
      </trkpt>
      <trkpt lat="47.25805" lon="5.86417">
        <ele>286.4</ele>
        <time>2024-08-03T09:48:08Z</time>
      </trkpt>
      <trkpt lat="47.25809" lon="5.86414">
        <ele>286.2</ele>
        <time>2024-08-03T09:48:09Z</time>
      </trkpt>
      <trkpt lat="47.25813" lon="5.86411">
        <ele>286.4</ele>
        <time>2024-08-03T09:48:10Z</time>
      </trkpt>
      <trkpt lat="47.25817" lon="5.86409">
        <ele>286.2</ele>
        <time>2024-08-03T09:48:11Z</time>
      </trkpt>
      <trkpt lat="47.25822" lon="5.86406">
        <ele>286.2</ele>
        <time>2024-08-03T09:48:12Z</time>
      </trkpt>
      <trkpt lat="47.25826" lon="5.86402">
        <ele>286.2</ele>
        <time>2024-08-03T09:48:13Z</time>
      </trkpt>
      <trkpt lat="47.25831" lon="5.86399">
        <ele>286</ele>
        <time>2024-08-03T09:48:14Z</time>
      </trkpt>
      <trkpt lat="47.25836" lon="5.86395">
        <ele>286.2</ele>
        <time>2024-08-03T09:48:15Z</time>
      </trkpt>
      <trkpt lat="47.25839" lon="5.86388">
        <ele>286</ele>
        <time>2024-08-03T09:48:16Z</time>
      </trkpt>
      <trkpt lat="47.25842" lon="5.8638">
        <ele>285.8</ele>
        <time>2024-08-03T09:48:17Z</time>
      </trkpt>
      <trkpt lat="47.25843" lon="5.86371">
        <ele>285.8</ele>
        <time>2024-08-03T09:48:18Z</time>
      </trkpt>
      <trkpt lat="47.25843" lon="5.86361">
        <ele>285.8</ele>
        <time>2024-08-03T09:48:19Z</time>
      </trkpt>
      <trkpt lat="47.25843" lon="5.86352">
        <ele>285.4</ele>
        <time>2024-08-03T09:48:20Z</time>
      </trkpt>
      <trkpt lat="47.25841" lon="5.86342">
        <ele>285.2</ele>
        <time>2024-08-03T09:48:21Z</time>
      </trkpt>
      <trkpt lat="47.25839" lon="5.86334">
        <ele>285.2</ele>
        <time>2024-08-03T09:48:22Z</time>
      </trkpt>
      <trkpt lat="47.25836" lon="5.86325">
        <ele>285</ele>
        <time>2024-08-03T09:48:23Z</time>
      </trkpt>
      <trkpt lat="47.25833" lon="5.86316">
        <ele>284.8</ele>
        <time>2024-08-03T09:48:24Z</time>
      </trkpt>
      <trkpt lat="47.2583" lon="5.86309">
        <ele>284.6</ele>
        <time>2024-08-03T09:48:25Z</time>
      </trkpt>
      <trkpt lat="47.25828" lon="5.86301">
        <ele>284.2</ele>
        <time>2024-08-03T09:48:26Z</time>
      </trkpt>
      <trkpt lat="47.25825" lon="5.86294">
        <ele>283.6</ele>
        <time>2024-08-03T09:48:27Z</time>
      </trkpt>
      <trkpt lat="47.25822" lon="5.86288">
        <ele>283</ele>
        <time>2024-08-03T09:48:28Z</time>
      </trkpt>
      <trkpt lat="47.2582" lon="5.86281">
        <ele>283</ele>
        <time>2024-08-03T09:48:29Z</time>
      </trkpt>
      <trkpt lat="47.25817" lon="5.86275">
        <ele>282.8</ele>
        <time>2024-08-03T09:48:30Z</time>
      </trkpt>
      <trkpt lat="47.25815" lon="5.86269">
        <ele>282.6</ele>
        <time>2024-08-03T09:48:31Z</time>
      </trkpt>
      <trkpt lat="47.25812" lon="5.86263">
        <ele>282.4</ele>
        <time>2024-08-03T09:48:32Z</time>
      </trkpt>
      <trkpt lat="47.2581" lon="5.86257">
        <ele>282.4</ele>
        <time>2024-08-03T09:48:33Z</time>
      </trkpt>
      <trkpt lat="47.25808" lon="5.86252">
        <ele>282.4</ele>
        <time>2024-08-03T09:48:34Z</time>
      </trkpt>
      <trkpt lat="47.25806" lon="5.86246">
        <ele>282.4</ele>
        <time>2024-08-03T09:48:35Z</time>
      </trkpt>
      <trkpt lat="47.25804" lon="5.8624">
        <ele>282.6</ele>
        <time>2024-08-03T09:48:36Z</time>
      </trkpt>
      <trkpt lat="47.25802" lon="5.86234">
        <ele>282.4</ele>
        <time>2024-08-03T09:48:37Z</time>
      </trkpt>
      <trkpt lat="47.258" lon="5.86229">
        <ele>282.6</ele>
        <time>2024-08-03T09:48:38Z</time>
      </trkpt>
      <trkpt lat="47.25798" lon="5.86223">
        <ele>282.4</ele>
        <time>2024-08-03T09:48:39Z</time>
      </trkpt>
      <trkpt lat="47.25796" lon="5.86217">
        <ele>282.6</ele>
        <time>2024-08-03T09:48:40Z</time>
      </trkpt>
      <trkpt lat="47.25794" lon="5.86211">
        <ele>282.6</ele>
        <time>2024-08-03T09:48:41Z</time>
      </trkpt>
      <trkpt lat="47.25792" lon="5.86205">
        <ele>282.6</ele>
        <time>2024-08-03T09:48:42Z</time>
      </trkpt>
      <trkpt lat="47.2579" lon="5.86199">
        <ele>282.4</ele>
        <time>2024-08-03T09:48:43Z</time>
      </trkpt>
      <trkpt lat="47.25788" lon="5.86193">
        <ele>282.4</ele>
        <time>2024-08-03T09:48:44Z</time>
      </trkpt>
      <trkpt lat="47.25786" lon="5.86187">
        <ele>282.6</ele>
        <time>2024-08-03T09:48:45Z</time>
      </trkpt>
      <trkpt lat="47.25783" lon="5.86182">
        <ele>282.6</ele>
        <time>2024-08-03T09:48:46Z</time>
      </trkpt>
      <trkpt lat="47.25782" lon="5.86177">
        <ele>282.6</ele>
        <time>2024-08-03T09:48:47Z</time>
      </trkpt>
      <trkpt lat="47.2578" lon="5.86172">
        <ele>282.6</ele>
        <time>2024-08-03T09:48:48Z</time>
      </trkpt>
      <trkpt lat="47.25778" lon="5.86167">
        <ele>282.6</ele>
        <time>2024-08-03T09:48:49Z</time>
      </trkpt>
      <trkpt lat="47.25777" lon="5.86162">
        <ele>282.8</ele>
        <time>2024-08-03T09:48:50Z</time>
      </trkpt>
      <trkpt lat="47.25776" lon="5.86158">
        <ele>282.8</ele>
        <time>2024-08-03T09:48:51Z</time>
      </trkpt>
      <trkpt lat="47.25774" lon="5.86154">
        <ele>282.8</ele>
        <time>2024-08-03T09:48:52Z</time>
      </trkpt>
      <trkpt lat="47.25772" lon="5.8615">
        <ele>282.8</ele>
        <time>2024-08-03T09:48:53Z</time>
      </trkpt>
      <trkpt lat="47.2577" lon="5.86147">
        <ele>282.6</ele>
        <time>2024-08-03T09:48:54Z</time>
      </trkpt>
      <trkpt lat="47.25767" lon="5.86144">
        <ele>282.6</ele>
        <time>2024-08-03T09:48:55Z</time>
      </trkpt>
      <trkpt lat="47.25765" lon="5.86142">
        <ele>282.6</ele>
        <time>2024-08-03T09:48:56Z</time>
      </trkpt>
      <trkpt lat="47.25762" lon="5.8614">
        <ele>282.6</ele>
        <time>2024-08-03T09:48:57Z</time>
      </trkpt>
      <trkpt lat="47.2576" lon="5.86137">
        <ele>282.6</ele>
        <time>2024-08-03T09:48:58Z</time>
      </trkpt>
      <trkpt lat="47.25758" lon="5.86135">
        <ele>282.4</ele>
        <time>2024-08-03T09:48:59Z</time>
      </trkpt>
      <trkpt lat="47.25757" lon="5.86133">
        <ele>282.4</ele>
        <time>2024-08-03T09:49:00Z</time>
      </trkpt>
      <trkpt lat="47.25757" lon="5.86132">
        <ele>282.4</ele>
        <time>2024-08-03T09:49:01Z</time>
      </trkpt>
      <trkpt lat="47.25756" lon="5.86132">
        <ele>282.4</ele>
        <time>2024-08-03T09:49:02Z</time>
      </trkpt>
      <trkpt lat="47.25756" lon="5.86132">
        <ele>282.4</ele>
        <time>2024-08-03T09:49:03Z</time>
      </trkpt>
      <trkpt lat="47.25755" lon="5.86133">
        <ele>282.2</ele>
        <time>2024-08-03T09:49:04Z</time>
      </trkpt>
      <trkpt lat="47.25755" lon="5.86133">
        <ele>282.2</ele>
        <time>2024-08-03T09:49:05Z</time>
      </trkpt>
      <trkpt lat="47.25755" lon="5.86133">
        <ele>282.2</ele>
        <time>2024-08-03T09:49:06Z</time>
      </trkpt>
      <trkpt lat="47.25755" lon="5.86133">
        <ele>282.4</ele>
        <time>2024-08-03T09:49:07Z</time>
      </trkpt>
      <trkpt lat="47.25755" lon="5.86133">
        <ele>282.4</ele>
        <time>2024-08-03T09:49:08Z</time>
      </trkpt>
      <trkpt lat="47.25755" lon="5.86133">
        <ele>282.2</ele>
        <time>2024-08-03T09:49:09Z</time>
      </trkpt>
      <trkpt lat="47.25755" lon="5.86133">
        <ele>282.2</ele>
        <time>2024-08-03T09:49:10Z</time>
      </trkpt>
      <trkpt lat="47.25755" lon="5.86133">
        <ele>282.2</ele>
        <time>2024-08-03T09:49:11Z</time>
      </trkpt>
      <trkpt lat="47.25755" lon="5.86133">
        <ele>282.2</ele>
        <time>2024-08-03T09:49:12Z</time>
      </trkpt>
      <trkpt lat="47.25755" lon="5.86134">
        <ele>282.4</ele>
        <time>2024-08-03T09:49:13Z</time>
      </trkpt>
      <trkpt lat="47.25755" lon="5.86134">
        <ele>282.2</ele>
        <time>2024-08-03T09:49:14Z</time>
      </trkpt>
      <trkpt lat="47.25755" lon="5.86135">
        <ele>282.4</ele>
        <time>2024-08-03T09:49:15Z</time>
      </trkpt>
      <trkpt lat="47.25755" lon="5.86135">
        <ele>282.4</ele>
        <time>2024-08-03T09:49:16Z</time>
      </trkpt>
      <trkpt lat="47.25755" lon="5.86135">
        <ele>282.4</ele>
        <time>2024-08-03T09:49:17Z</time>
      </trkpt>
      <trkpt lat="47.25755" lon="5.86135">
        <ele>282.4</ele>
        <time>2024-08-03T09:49:18Z</time>
      </trkpt>
      <trkpt lat="47.25755" lon="5.86135">
        <ele>282.2</ele>
        <time>2024-08-03T09:49:19Z</time>
      </trkpt>
      <trkpt lat="47.25755" lon="5.86136">
        <ele>282.2</ele>
        <time>2024-08-03T09:49:20Z</time>
      </trkpt>
      <trkpt lat="47.25755" lon="5.86136">
        <ele>282.2</ele>
        <time>2024-08-03T09:49:21Z</time>
      </trkpt>
      <trkpt lat="47.25755" lon="5.86137">
        <ele>282.2</ele>
        <time>2024-08-03T09:49:22Z</time>
      </trkpt>
      <trkpt lat="47.25755" lon="5.86137">
        <ele>282.2</ele>
        <time>2024-08-03T09:49:23Z</time>
      </trkpt>
      <trkpt lat="47.25755" lon="5.86137">
        <ele>282.2</ele>
        <time>2024-08-03T09:49:24Z</time>
      </trkpt>
      <trkpt lat="47.25755" lon="5.86138">
        <ele>282.4</ele>
        <time>2024-08-03T09:49:25Z</time>
      </trkpt>
      <trkpt lat="47.25755" lon="5.86139">
        <ele>282.2</ele>
        <time>2024-08-03T09:49:26Z</time>
      </trkpt>
      <trkpt lat="47.25754" lon="5.8614">
        <ele>282.2</ele>
        <time>2024-08-03T09:49:27Z</time>
      </trkpt>
      <trkpt lat="47.25754" lon="5.86141">
        <ele>282.2</ele>
        <time>2024-08-03T09:49:28Z</time>
      </trkpt>
      <trkpt lat="47.25754" lon="5.86142">
        <ele>282.2</ele>
        <time>2024-08-03T09:49:29Z</time>
      </trkpt>
      <trkpt lat="47.25754" lon="5.86144">
        <ele>282.2</ele>
        <time>2024-08-03T09:49:30Z</time>
      </trkpt>
      <trkpt lat="47.25754" lon="5.86144">
        <ele>282.2</ele>
        <time>2024-08-03T09:49:31Z</time>
      </trkpt>
      <trkpt lat="47.25754" lon="5.86145">
        <ele>282.2</ele>
        <time>2024-08-03T09:49:32Z</time>
      </trkpt>
      <trkpt lat="47.25754" lon="5.86144">
        <ele>282.2</ele>
        <time>2024-08-03T09:49:33Z</time>
      </trkpt>
      <trkpt lat="47.25755" lon="5.86144">
        <ele>282.4</ele>
        <time>2024-08-03T09:49:34Z</time>
      </trkpt>
      <trkpt lat="47.25754" lon="5.86144">
        <ele>282.2</ele>
        <time>2024-08-03T09:49:35Z</time>
      </trkpt>
      <trkpt lat="47.25754" lon="5.86145">
        <ele>282.4</ele>
        <time>2024-08-03T09:49:36Z</time>
      </trkpt>
      <trkpt lat="47.25754" lon="5.86145">
        <ele>282.2</ele>
        <time>2024-08-03T09:49:37Z</time>
      </trkpt>
      <trkpt lat="47.25754" lon="5.86145">
        <ele>282.4</ele>
        <time>2024-08-03T09:49:38Z</time>
      </trkpt>
      <trkpt lat="47.25754" lon="5.86145">
        <ele>282.2</ele>
        <time>2024-08-03T09:49:39Z</time>
      </trkpt>
      <trkpt lat="47.25754" lon="5.86144">
        <ele>282.4</ele>
        <time>2024-08-03T09:49:40Z</time>
      </trkpt>
      <trkpt lat="47.25754" lon="5.86144">
        <ele>282.2</ele>
        <time>2024-08-03T09:49:41Z</time>
      </trkpt>
      <trkpt lat="47.25754" lon="5.86144">
        <ele>282.2</ele>
        <time>2024-08-03T09:49:42Z</time>
      </trkpt>
      <trkpt lat="47.25753" lon="5.86144">
        <ele>282.2</ele>
        <time>2024-08-03T09:49:43Z</time>
      </trkpt>
      <trkpt lat="47.25753" lon="5.86143">
        <ele>282.2</ele>
        <time>2024-08-03T09:49:44Z</time>
      </trkpt>
      <trkpt lat="47.25753" lon="5.86143">
        <ele>282.4</ele>
        <time>2024-08-03T09:49:45Z</time>
      </trkpt>
      <trkpt lat="47.25753" lon="5.86143">
        <ele>282.4</ele>
        <time>2024-08-03T09:49:46Z</time>
      </trkpt>
      <trkpt lat="47.25753" lon="5.86142">
        <ele>282.4</ele>
        <time>2024-08-03T09:49:47Z</time>
      </trkpt>
      <trkpt lat="47.25753" lon="5.86142">
        <ele>282.2</ele>
        <time>2024-08-03T09:49:48Z</time>
      </trkpt>
      <trkpt lat="47.25752" lon="5.86142">
        <ele>282.4</ele>
        <time>2024-08-03T09:49:49Z</time>
      </trkpt>
      <trkpt lat="47.25752" lon="5.86142">
        <ele>282.4</ele>
        <time>2024-08-03T09:49:50Z</time>
      </trkpt>
      <trkpt lat="47.25752" lon="5.86141">
        <ele>282.2</ele>
        <time>2024-08-03T09:49:51Z</time>
      </trkpt>
      <trkpt lat="47.25752" lon="5.86141">
        <ele>282.2</ele>
        <time>2024-08-03T09:49:52Z</time>
      </trkpt>
      <trkpt lat="47.25752" lon="5.86141">
        <ele>282.2</ele>
        <time>2024-08-03T09:49:53Z</time>
      </trkpt>
      <trkpt lat="47.25752" lon="5.86141">
        <ele>282.2</ele>
        <time>2024-08-03T09:49:54Z</time>
      </trkpt>
      <trkpt lat="47.25752" lon="5.86141">
        <ele>282.2</ele>
        <time>2024-08-03T09:49:55Z</time>
      </trkpt>
      <trkpt lat="47.25752" lon="5.86141">
        <ele>282.2</ele>
        <time>2024-08-03T09:49:56Z</time>
      </trkpt>
      <trkpt lat="47.25752" lon="5.86141">
        <ele>282.2</ele>
        <time>2024-08-03T09:49:57Z</time>
      </trkpt>
      <trkpt lat="47.25752" lon="5.86141">
        <ele>282.2</ele>
        <time>2024-08-03T09:49:58Z</time>
      </trkpt>
      <trkpt lat="47.25752" lon="5.86142">
        <ele>282.2</ele>
        <time>2024-08-03T09:49:59Z</time>
      </trkpt>
      <trkpt lat="47.25752" lon="5.86142">
        <ele>282.2</ele>
        <time>2024-08-03T09:50:00Z</time>
      </trkpt>
      <trkpt lat="47.25752" lon="5.86142">
        <ele>282.2</ele>
        <time>2024-08-03T09:50:01Z</time>
      </trkpt>
      <trkpt lat="47.25752" lon="5.86142">
        <ele>282.2</ele>
        <time>2024-08-03T09:50:02Z</time>
      </trkpt>
      <trkpt lat="47.25752" lon="5.86142">
        <ele>282.2</ele>
        <time>2024-08-03T09:50:03Z</time>
      </trkpt>
      <trkpt lat="47.25752" lon="5.86142">
        <ele>282.2</ele>
        <time>2024-08-03T09:50:04Z</time>
      </trkpt>
      <trkpt lat="47.25752" lon="5.86142">
        <ele>282.2</ele>
        <time>2024-08-03T09:50:05Z</time>
      </trkpt>
      <trkpt lat="47.25752" lon="5.86142">
        <ele>282.2</ele>
        <time>2024-08-03T09:50:06Z</time>
      </trkpt>
      <trkpt lat="47.25752" lon="5.86142">
        <ele>282.2</ele>
        <time>2024-08-03T09:50:07Z</time>
      </trkpt>
      <trkpt lat="47.25752" lon="5.86142">
        <ele>282.2</ele>
        <time>2024-08-03T09:50:08Z</time>
      </trkpt>
      <trkpt lat="47.25752" lon="5.86142">
        <ele>282.2</ele>
        <time>2024-08-03T09:50:09Z</time>
      </trkpt>
      <trkpt lat="47.25752" lon="5.86142">
        <ele>282.2</ele>
        <time>2024-08-03T09:50:10Z</time>
      </trkpt>
      <trkpt lat="47.25752" lon="5.86142">
        <ele>282.2</ele>
        <time>2024-08-03T09:50:11Z</time>
      </trkpt>
      <trkpt lat="47.25752" lon="5.86141">
        <ele>282.2</ele>
        <time>2024-08-03T09:50:12Z</time>
      </trkpt>
      <trkpt lat="47.25752" lon="5.86141">
        <ele>282.2</ele>
        <time>2024-08-03T09:50:13Z</time>
      </trkpt>
      <trkpt lat="47.25752" lon="5.8614">
        <ele>282.2</ele>
        <time>2024-08-03T09:50:14Z</time>
      </trkpt>
      <trkpt lat="47.25753" lon="5.86139">
        <ele>282.2</ele>
        <time>2024-08-03T09:50:15Z</time>
      </trkpt>
      <trkpt lat="47.25753" lon="5.86139">
        <ele>282.2</ele>
        <time>2024-08-03T09:50:16Z</time>
      </trkpt>
      <trkpt lat="47.25753" lon="5.86138">
        <ele>282.2</ele>
        <time>2024-08-03T09:50:17Z</time>
      </trkpt>
      <trkpt lat="47.25753" lon="5.86138">
        <ele>282.2</ele>
        <time>2024-08-03T09:50:18Z</time>
      </trkpt>
      <trkpt lat="47.25753" lon="5.86138">
        <ele>282.2</ele>
        <time>2024-08-03T09:50:19Z</time>
      </trkpt>
      <trkpt lat="47.25753" lon="5.86139">
        <ele>282.2</ele>
        <time>2024-08-03T09:50:20Z</time>
      </trkpt>
      <trkpt lat="47.25753" lon="5.86139">
        <ele>282.2</ele>
        <time>2024-08-03T09:50:21Z</time>
      </trkpt>
      <trkpt lat="47.25753" lon="5.8614">
        <ele>282.2</ele>
        <time>2024-08-03T09:50:22Z</time>
      </trkpt>
      <trkpt lat="47.25753" lon="5.86141">
        <ele>282</ele>
        <time>2024-08-03T09:50:23Z</time>
      </trkpt>
      <trkpt lat="47.25753" lon="5.86141">
        <ele>282.2</ele>
        <time>2024-08-03T09:50:24Z</time>
      </trkpt>
      <trkpt lat="47.25753" lon="5.86141">
        <ele>282.2</ele>
        <time>2024-08-03T09:50:25Z</time>
      </trkpt>
      <trkpt lat="47.25753" lon="5.86141">
        <ele>282.2</ele>
        <time>2024-08-03T09:50:26Z</time>
      </trkpt>
      <trkpt lat="47.25753" lon="5.86141">
        <ele>282.2</ele>
        <time>2024-08-03T09:50:27Z</time>
      </trkpt>
      <trkpt lat="47.25753" lon="5.86141">
        <ele>282.2</ele>
        <time>2024-08-03T09:50:28Z</time>
      </trkpt>
      <trkpt lat="47.25753" lon="5.86141">
        <ele>282.2</ele>
        <time>2024-08-03T09:50:29Z</time>
      </trkpt>
      <trkpt lat="47.25753" lon="5.86141">
        <ele>282.2</ele>
        <time>2024-08-03T09:50:30Z</time>
      </trkpt>
      <trkpt lat="47.25753" lon="5.86141">
        <ele>282.2</ele>
        <time>2024-08-03T09:50:31Z</time>
      </trkpt>
      <trkpt lat="47.25753" lon="5.86141">
        <ele>282</ele>
        <time>2024-08-03T09:50:32Z</time>
      </trkpt>
      <trkpt lat="47.25753" lon="5.8614">
        <ele>282</ele>
        <time>2024-08-03T09:50:33Z</time>
      </trkpt>
      <trkpt lat="47.25753" lon="5.8614">
        <ele>282</ele>
        <time>2024-08-03T09:50:34Z</time>
      </trkpt>
      <trkpt lat="47.25753" lon="5.8614">
        <ele>282</ele>
        <time>2024-08-03T09:50:35Z</time>
      </trkpt>
      <trkpt lat="47.25753" lon="5.8614">
        <ele>282</ele>
        <time>2024-08-03T09:50:36Z</time>
      </trkpt>
      <trkpt lat="47.25753" lon="5.8614">
        <ele>282</ele>
        <time>2024-08-03T09:50:37Z</time>
      </trkpt>
      <trkpt lat="47.25753" lon="5.8614">
        <ele>282</ele>
        <time>2024-08-03T09:50:38Z</time>
      </trkpt>
      <trkpt lat="47.25753" lon="5.86139">
        <ele>282</ele>
        <time>2024-08-03T09:50:39Z</time>
      </trkpt>
      <trkpt lat="47.25753" lon="5.8614">
        <ele>282</ele>
        <time>2024-08-03T09:50:40Z</time>
      </trkpt>
      <trkpt lat="47.25753" lon="5.86139">
        <ele>281.8</ele>
        <time>2024-08-03T09:50:41Z</time>
      </trkpt>
      <trkpt lat="47.25753" lon="5.86139">
        <ele>281.8</ele>
        <time>2024-08-03T09:50:42Z</time>
      </trkpt>
      <trkpt lat="47.25753" lon="5.86139">
        <ele>282</ele>
        <time>2024-08-03T09:50:43Z</time>
      </trkpt>
      <trkpt lat="47.25753" lon="5.86139">
        <ele>282</ele>
        <time>2024-08-03T09:50:44Z</time>
      </trkpt>
      <trkpt lat="47.25753" lon="5.86139">
        <ele>281.8</ele>
        <time>2024-08-03T09:50:45Z</time>
      </trkpt>
      <trkpt lat="47.25753" lon="5.86139">
        <ele>281.8</ele>
        <time>2024-08-03T09:50:46Z</time>
      </trkpt>
      <trkpt lat="47.25753" lon="5.86139">
        <ele>281.8</ele>
        <time>2024-08-03T09:50:47Z</time>
      </trkpt>
      <trkpt lat="47.25753" lon="5.86138">
        <ele>281.8</ele>
        <time>2024-08-03T09:50:48Z</time>
      </trkpt>
      <trkpt lat="47.25753" lon="5.86138">
        <ele>282</ele>
        <time>2024-08-03T09:50:49Z</time>
      </trkpt>
      <trkpt lat="47.25753" lon="5.86139">
        <ele>281.8</ele>
        <time>2024-08-03T09:50:50Z</time>
      </trkpt>
      <trkpt lat="47.25753" lon="5.86139">
        <ele>281.8</ele>
        <time>2024-08-03T09:50:51Z</time>
      </trkpt>
      <trkpt lat="47.25752" lon="5.86139">
        <ele>281.8</ele>
        <time>2024-08-03T09:50:52Z</time>
      </trkpt>
      <trkpt lat="47.25752" lon="5.86139">
        <ele>281.8</ele>
        <time>2024-08-03T09:50:53Z</time>
      </trkpt>
      <trkpt lat="47.25752" lon="5.86139">
        <ele>281.8</ele>
        <time>2024-08-03T09:50:54Z</time>
      </trkpt>
      <trkpt lat="47.25752" lon="5.86138">
        <ele>281.8</ele>
        <time>2024-08-03T09:50:55Z</time>
      </trkpt>
      <trkpt lat="47.25752" lon="5.86139">
        <ele>281.8</ele>
        <time>2024-08-03T09:50:56Z</time>
      </trkpt>
      <trkpt lat="47.25752" lon="5.86139">
        <ele>282</ele>
        <time>2024-08-03T09:50:57Z</time>
      </trkpt>
      <trkpt lat="47.25752" lon="5.86138">
        <ele>282</ele>
        <time>2024-08-03T09:50:58Z</time>
      </trkpt>
      <trkpt lat="47.25752" lon="5.86139">
        <ele>282.2</ele>
        <time>2024-08-03T09:50:59Z</time>
      </trkpt>
      <trkpt lat="47.25752" lon="5.86139">
        <ele>282</ele>
        <time>2024-08-03T09:51:00Z</time>
      </trkpt>
      <trkpt lat="47.25752" lon="5.86139">
        <ele>282.2</ele>
        <time>2024-08-03T09:51:01Z</time>
      </trkpt>
      <trkpt lat="47.25752" lon="5.86139">
        <ele>282.2</ele>
        <time>2024-08-03T09:51:02Z</time>
      </trkpt>
      <trkpt lat="47.25752" lon="5.86139">
        <ele>282</ele>
        <time>2024-08-03T09:51:03Z</time>
      </trkpt>
      <trkpt lat="47.25752" lon="5.86139">
        <ele>282.2</ele>
        <time>2024-08-03T09:51:04Z</time>
      </trkpt>
      <trkpt lat="47.25752" lon="5.86139">
        <ele>282.2</ele>
        <time>2024-08-03T09:51:05Z</time>
      </trkpt>
      <trkpt lat="47.25752" lon="5.86139">
        <ele>282.2</ele>
        <time>2024-08-03T09:51:06Z</time>
      </trkpt>
      <trkpt lat="47.25752" lon="5.86139">
        <ele>282</ele>
        <time>2024-08-03T09:51:07Z</time>
      </trkpt>
      <trkpt lat="47.25752" lon="5.86139">
        <ele>282.2</ele>
        <time>2024-08-03T09:51:08Z</time>
      </trkpt>
      <trkpt lat="47.25752" lon="5.86139">
        <ele>282</ele>
        <time>2024-08-03T09:51:09Z</time>
      </trkpt>
      <trkpt lat="47.25752" lon="5.86139">
        <ele>282</ele>
        <time>2024-08-03T09:51:10Z</time>
      </trkpt>
      <trkpt lat="47.25752" lon="5.86139">
        <ele>282</ele>
        <time>2024-08-03T09:51:11Z</time>
      </trkpt>
      <trkpt lat="47.25752" lon="5.86139">
        <ele>282</ele>
        <time>2024-08-03T09:51:12Z</time>
      </trkpt>
      <trkpt lat="47.25752" lon="5.86139">
        <ele>282</ele>
        <time>2024-08-03T09:51:13Z</time>
      </trkpt>
      <trkpt lat="47.25752" lon="5.86139">
        <ele>282</ele>
        <time>2024-08-03T09:51:14Z</time>
      </trkpt>
      <trkpt lat="47.25752" lon="5.86139">
        <ele>282</ele>
        <time>2024-08-03T09:51:15Z</time>
      </trkpt>
      <trkpt lat="47.25752" lon="5.86139">
        <ele>282</ele>
        <time>2024-08-03T09:51:16Z</time>
      </trkpt>
      <trkpt lat="47.25752" lon="5.86139">
        <ele>282</ele>
        <time>2024-08-03T09:51:17Z</time>
      </trkpt>
      <trkpt lat="47.25752" lon="5.86139">
        <ele>282</ele>
        <time>2024-08-03T09:51:18Z</time>
      </trkpt>
      <trkpt lat="47.25751" lon="5.86139">
        <ele>282</ele>
        <time>2024-08-03T09:51:19Z</time>
      </trkpt>
      <trkpt lat="47.25751" lon="5.86138">
        <ele>282</ele>
        <time>2024-08-03T09:51:20Z</time>
      </trkpt>
      <trkpt lat="47.25751" lon="5.86138">
        <ele>281.8</ele>
        <time>2024-08-03T09:51:21Z</time>
      </trkpt>
      <trkpt lat="47.2575" lon="5.86137">
        <ele>281.8</ele>
        <time>2024-08-03T09:51:22Z</time>
      </trkpt>
      <trkpt lat="47.2575" lon="5.86136">
        <ele>282</ele>
        <time>2024-08-03T09:51:23Z</time>
      </trkpt>
      <trkpt lat="47.2575" lon="5.86136">
        <ele>281.8</ele>
        <time>2024-08-03T09:51:24Z</time>
      </trkpt>
      <trkpt lat="47.2575" lon="5.86135">
        <ele>281.8</ele>
        <time>2024-08-03T09:51:25Z</time>
      </trkpt>
      <trkpt lat="47.2575" lon="5.86135">
        <ele>281.6</ele>
        <time>2024-08-03T09:51:26Z</time>
      </trkpt>
      <trkpt lat="47.2575" lon="5.86135">
        <ele>281.6</ele>
        <time>2024-08-03T09:51:27Z</time>
      </trkpt>
      <trkpt lat="47.2575" lon="5.86134">
        <ele>281.6</ele>
        <time>2024-08-03T09:51:28Z</time>
      </trkpt>
      <trkpt lat="47.2575" lon="5.86134">
        <ele>281.6</ele>
        <time>2024-08-03T09:51:29Z</time>
      </trkpt>
      <trkpt lat="47.2575" lon="5.86134">
        <ele>281.6</ele>
        <time>2024-08-03T09:51:30Z</time>
      </trkpt>
      <trkpt lat="47.2575" lon="5.86134">
        <ele>281.4</ele>
        <time>2024-08-03T09:51:31Z</time>
      </trkpt>
      <trkpt lat="47.2575" lon="5.86134">
        <ele>281.6</ele>
        <time>2024-08-03T09:51:32Z</time>
      </trkpt>
      <trkpt lat="47.25749" lon="5.86134">
        <ele>281.4</ele>
        <time>2024-08-03T09:51:33Z</time>
      </trkpt>
      <trkpt lat="47.25749" lon="5.86134">
        <ele>281.4</ele>
        <time>2024-08-03T09:51:34Z</time>
      </trkpt>
      <trkpt lat="47.25749" lon="5.86134">
        <ele>281.4</ele>
        <time>2024-08-03T09:51:35Z</time>
      </trkpt>
      <trkpt lat="47.25749" lon="5.86134">
        <ele>281.4</ele>
        <time>2024-08-03T09:51:36Z</time>
      </trkpt>
      <trkpt lat="47.25749" lon="5.86135">
        <ele>281.4</ele>
        <time>2024-08-03T09:51:37Z</time>
      </trkpt>
      <trkpt lat="47.25749" lon="5.86136">
        <ele>281.2</ele>
        <time>2024-08-03T09:51:38Z</time>
      </trkpt>
      <trkpt lat="47.25749" lon="5.86137">
        <ele>281.2</ele>
        <time>2024-08-03T09:51:39Z</time>
      </trkpt>
      <trkpt lat="47.25749" lon="5.86137">
        <ele>281.2</ele>
        <time>2024-08-03T09:51:40Z</time>
      </trkpt>
      <trkpt lat="47.25748" lon="5.86137">
        <ele>281.2</ele>
        <time>2024-08-03T09:51:41Z</time>
      </trkpt>
      <trkpt lat="47.25748" lon="5.86137">
        <ele>281</ele>
        <time>2024-08-03T09:51:42Z</time>
      </trkpt>
      <trkpt lat="47.25748" lon="5.86137">
        <ele>281</ele>
        <time>2024-08-03T09:51:43Z</time>
      </trkpt>
      <trkpt lat="47.25748" lon="5.86138">
        <ele>281.2</ele>
        <time>2024-08-03T09:51:44Z</time>
      </trkpt>
      <trkpt lat="47.25748" lon="5.86138">
        <ele>281.2</ele>
        <time>2024-08-03T09:51:45Z</time>
      </trkpt>
      <trkpt lat="47.25748" lon="5.86138">
        <ele>281</ele>
        <time>2024-08-03T09:51:46Z</time>
      </trkpt>
      <trkpt lat="47.25748" lon="5.86137">
        <ele>281.2</ele>
        <time>2024-08-03T09:51:47Z</time>
      </trkpt>
      <trkpt lat="47.25748" lon="5.86138">
        <ele>281.2</ele>
        <time>2024-08-03T09:51:48Z</time>
      </trkpt>
      <trkpt lat="47.25748" lon="5.86137">
        <ele>281</ele>
        <time>2024-08-03T09:51:49Z</time>
      </trkpt>
      <trkpt lat="47.25748" lon="5.86137">
        <ele>281</ele>
        <time>2024-08-03T09:51:50Z</time>
      </trkpt>
      <trkpt lat="47.25748" lon="5.86137">
        <ele>281</ele>
        <time>2024-08-03T09:51:51Z</time>
      </trkpt>
      <trkpt lat="47.25749" lon="5.86137">
        <ele>281</ele>
        <time>2024-08-03T09:51:52Z</time>
      </trkpt>
      <trkpt lat="47.25749" lon="5.86137">
        <ele>281</ele>
        <time>2024-08-03T09:51:53Z</time>
      </trkpt>
      <trkpt lat="47.25749" lon="5.86136">
        <ele>281</ele>
        <time>2024-08-03T09:51:54Z</time>
      </trkpt>
      <trkpt lat="47.25749" lon="5.86136">
        <ele>281</ele>
        <time>2024-08-03T09:51:55Z</time>
      </trkpt>
      <trkpt lat="47.25749" lon="5.86136">
        <ele>281</ele>
        <time>2024-08-03T09:51:56Z</time>
      </trkpt>
      <trkpt lat="47.25749" lon="5.86135">
        <ele>281</ele>
        <time>2024-08-03T09:51:57Z</time>
      </trkpt>
      <trkpt lat="47.25749" lon="5.86135">
        <ele>281</ele>
        <time>2024-08-03T09:51:58Z</time>
      </trkpt>
      <trkpt lat="47.25749" lon="5.86135">
        <ele>281</ele>
        <time>2024-08-03T09:51:59Z</time>
      </trkpt>
      <trkpt lat="47.25749" lon="5.86135">
        <ele>281</ele>
        <time>2024-08-03T09:52:00Z</time>
      </trkpt>
      <trkpt lat="47.25749" lon="5.86136">
        <ele>281</ele>
        <time>2024-08-03T09:52:01Z</time>
      </trkpt>
      <trkpt lat="47.25749" lon="5.86136">
        <ele>281</ele>
        <time>2024-08-03T09:52:02Z</time>
      </trkpt>
      <trkpt lat="47.25749" lon="5.86136">
        <ele>281</ele>
        <time>2024-08-03T09:52:03Z</time>
      </trkpt>
      <trkpt lat="47.25749" lon="5.86137">
        <ele>281</ele>
        <time>2024-08-03T09:52:04Z</time>
      </trkpt>
      <trkpt lat="47.25749" lon="5.86139">
        <ele>281.2</ele>
        <time>2024-08-03T09:52:05Z</time>
      </trkpt>
      <trkpt lat="47.25749" lon="5.86139">
        <ele>281</ele>
        <time>2024-08-03T09:52:06Z</time>
      </trkpt>
      <trkpt lat="47.25749" lon="5.86139">
        <ele>281.2</ele>
        <time>2024-08-03T09:52:07Z</time>
      </trkpt>
      <trkpt lat="47.25749" lon="5.86138">
        <ele>281.2</ele>
        <time>2024-08-03T09:52:08Z</time>
      </trkpt>
      <trkpt lat="47.25749" lon="5.86138">
        <ele>281</ele>
        <time>2024-08-03T09:52:09Z</time>
      </trkpt>
      <trkpt lat="47.25749" lon="5.86138">
        <ele>281</ele>
        <time>2024-08-03T09:52:10Z</time>
      </trkpt>
      <trkpt lat="47.25749" lon="5.86138">
        <ele>281</ele>
        <time>2024-08-03T09:52:11Z</time>
      </trkpt>
      <trkpt lat="47.25749" lon="5.86138">
        <ele>281.2</ele>
        <time>2024-08-03T09:52:12Z</time>
      </trkpt>
      <trkpt lat="47.25749" lon="5.86138">
        <ele>281.2</ele>
        <time>2024-08-03T09:52:13Z</time>
      </trkpt>
      <trkpt lat="47.25749" lon="5.86138">
        <ele>281</ele>
        <time>2024-08-03T09:52:14Z</time>
      </trkpt>
      <trkpt lat="47.2575" lon="5.86137">
        <ele>281.2</ele>
        <time>2024-08-03T09:52:15Z</time>
      </trkpt>
      <trkpt lat="47.2575" lon="5.86136">
        <ele>281.2</ele>
        <time>2024-08-03T09:52:16Z</time>
      </trkpt>
      <trkpt lat="47.2575" lon="5.86136">
        <ele>281.2</ele>
        <time>2024-08-03T09:52:17Z</time>
      </trkpt>
      <trkpt lat="47.2575" lon="5.86136">
        <ele>281.2</ele>
        <time>2024-08-03T09:52:18Z</time>
      </trkpt>
      <trkpt lat="47.2575" lon="5.86136">
        <ele>281.2</ele>
        <time>2024-08-03T09:52:19Z</time>
      </trkpt>
      <trkpt lat="47.2575" lon="5.86134">
        <ele>281.4</ele>
        <time>2024-08-03T09:52:20Z</time>
      </trkpt>
      <trkpt lat="47.25749" lon="5.86134">
        <ele>281.2</ele>
        <time>2024-08-03T09:52:21Z</time>
      </trkpt>
      <trkpt lat="47.25749" lon="5.86134">
        <ele>281.2</ele>
        <time>2024-08-03T09:52:22Z</time>
      </trkpt>
      <trkpt lat="47.25749" lon="5.86134">
        <ele>281.2</ele>
        <time>2024-08-03T09:52:23Z</time>
      </trkpt>
      <trkpt lat="47.25749" lon="5.86134">
        <ele>281.2</ele>
        <time>2024-08-03T09:52:24Z</time>
      </trkpt>
      <trkpt lat="47.25749" lon="5.86134">
        <ele>281.2</ele>
        <time>2024-08-03T09:52:25Z</time>
      </trkpt>
      <trkpt lat="47.25749" lon="5.86134">
        <ele>281.2</ele>
        <time>2024-08-03T09:52:26Z</time>
      </trkpt>
      <trkpt lat="47.25749" lon="5.86134">
        <ele>281.2</ele>
        <time>2024-08-03T09:52:27Z</time>
      </trkpt>
      <trkpt lat="47.25749" lon="5.86134">
        <ele>281.4</ele>
        <time>2024-08-03T09:52:28Z</time>
      </trkpt>
      <trkpt lat="47.25749" lon="5.86134">
        <ele>281.4</ele>
        <time>2024-08-03T09:52:29Z</time>
      </trkpt>
      <trkpt lat="47.25749" lon="5.86134">
        <ele>281.2</ele>
        <time>2024-08-03T09:52:30Z</time>
      </trkpt>
      <trkpt lat="47.25749" lon="5.86134">
        <ele>281.2</ele>
        <time>2024-08-03T09:52:31Z</time>
      </trkpt>
      <trkpt lat="47.25749" lon="5.86134">
        <ele>281.4</ele>
        <time>2024-08-03T09:52:32Z</time>
      </trkpt>
      <trkpt lat="47.25749" lon="5.86134">
        <ele>281.2</ele>
        <time>2024-08-03T09:52:33Z</time>
      </trkpt>
      <trkpt lat="47.25749" lon="5.86134">
        <ele>281.2</ele>
        <time>2024-08-03T09:52:34Z</time>
      </trkpt>
      <trkpt lat="47.25749" lon="5.86135">
        <ele>281.4</ele>
        <time>2024-08-03T09:52:35Z</time>
      </trkpt>
      <trkpt lat="47.25749" lon="5.86135">
        <ele>281.2</ele>
        <time>2024-08-03T09:52:36Z</time>
      </trkpt>
      <trkpt lat="47.25749" lon="5.86136">
        <ele>281.2</ele>
        <time>2024-08-03T09:52:37Z</time>
      </trkpt>
      <trkpt lat="47.25748" lon="5.86139">
        <ele>281.2</ele>
        <time>2024-08-03T09:52:38Z</time>
      </trkpt>
      <trkpt lat="47.25748" lon="5.86139">
        <ele>281.2</ele>
        <time>2024-08-03T09:52:39Z</time>
      </trkpt>
      <trkpt lat="47.25749" lon="5.8614">
        <ele>281.2</ele>
        <time>2024-08-03T09:52:40Z</time>
      </trkpt>
      <trkpt lat="47.25749" lon="5.8614">
        <ele>281</ele>
        <time>2024-08-03T09:52:41Z</time>
      </trkpt>
      <trkpt lat="47.25749" lon="5.86141">
        <ele>281</ele>
        <time>2024-08-03T09:52:42Z</time>
      </trkpt>
      <trkpt lat="47.25749" lon="5.86141">
        <ele>281.2</ele>
        <time>2024-08-03T09:52:43Z</time>
      </trkpt>
      <trkpt lat="47.25749" lon="5.86141">
        <ele>281</ele>
        <time>2024-08-03T09:52:44Z</time>
      </trkpt>
      <trkpt lat="47.25749" lon="5.86142">
        <ele>281</ele>
        <time>2024-08-03T09:52:45Z</time>
      </trkpt>
      <trkpt lat="47.25749" lon="5.86142">
        <ele>281</ele>
        <time>2024-08-03T09:52:46Z</time>
      </trkpt>
      <trkpt lat="47.25749" lon="5.86141">
        <ele>281</ele>
        <time>2024-08-03T09:52:47Z</time>
      </trkpt>
      <trkpt lat="47.25749" lon="5.86141">
        <ele>281</ele>
        <time>2024-08-03T09:52:48Z</time>
      </trkpt>
      <trkpt lat="47.25748" lon="5.86141">
        <ele>281</ele>
        <time>2024-08-03T09:52:49Z</time>
      </trkpt>
      <trkpt lat="47.25748" lon="5.86141">
        <ele>281.2</ele>
        <time>2024-08-03T09:52:50Z</time>
      </trkpt>
      <trkpt lat="47.25748" lon="5.86141">
        <ele>281</ele>
        <time>2024-08-03T09:52:51Z</time>
      </trkpt>
      <trkpt lat="47.25747" lon="5.8614">
        <ele>281</ele>
        <time>2024-08-03T09:52:52Z</time>
      </trkpt>
      <trkpt lat="47.25747" lon="5.8614">
        <ele>281</ele>
        <time>2024-08-03T09:52:53Z</time>
      </trkpt>
      <trkpt lat="47.25747" lon="5.8614">
        <ele>281</ele>
        <time>2024-08-03T09:52:54Z</time>
      </trkpt>
      <trkpt lat="47.25747" lon="5.8614">
        <ele>281</ele>
        <time>2024-08-03T09:52:55Z</time>
      </trkpt>
      <trkpt lat="47.25747" lon="5.8614">
        <ele>281</ele>
        <time>2024-08-03T09:52:56Z</time>
      </trkpt>
      <trkpt lat="47.25747" lon="5.8614">
        <ele>281</ele>
        <time>2024-08-03T09:52:57Z</time>
      </trkpt>
      <trkpt lat="47.25747" lon="5.8614">
        <ele>281</ele>
        <time>2024-08-03T09:52:58Z</time>
      </trkpt>
      <trkpt lat="47.25747" lon="5.8614">
        <ele>281</ele>
        <time>2024-08-03T09:52:59Z</time>
      </trkpt>
      <trkpt lat="47.25748" lon="5.8614">
        <ele>281.2</ele>
        <time>2024-08-03T09:53:00Z</time>
      </trkpt>
      <trkpt lat="47.25748" lon="5.8614">
        <ele>281</ele>
        <time>2024-08-03T09:53:01Z</time>
      </trkpt>
      <trkpt lat="47.25748" lon="5.8614">
        <ele>281</ele>
        <time>2024-08-03T09:53:02Z</time>
      </trkpt>
      <trkpt lat="47.25748" lon="5.8614">
        <ele>281</ele>
        <time>2024-08-03T09:53:03Z</time>
      </trkpt>
      <trkpt lat="47.25748" lon="5.8614">
        <ele>281</ele>
        <time>2024-08-03T09:53:04Z</time>
      </trkpt>
      <trkpt lat="47.25748" lon="5.8614">
        <ele>281.2</ele>
        <time>2024-08-03T09:53:05Z</time>
      </trkpt>
      <trkpt lat="47.25748" lon="5.8614">
        <ele>281</ele>
        <time>2024-08-03T09:53:06Z</time>
      </trkpt>
      <trkpt lat="47.25748" lon="5.8614">
        <ele>281</ele>
        <time>2024-08-03T09:53:07Z</time>
      </trkpt>
      <trkpt lat="47.25748" lon="5.8614">
        <ele>281</ele>
        <time>2024-08-03T09:53:08Z</time>
      </trkpt>
      <trkpt lat="47.25748" lon="5.8614">
        <ele>281</ele>
        <time>2024-08-03T09:53:09Z</time>
      </trkpt>
      <trkpt lat="47.25748" lon="5.8614">
        <ele>281.2</ele>
        <time>2024-08-03T09:53:10Z</time>
      </trkpt>
      <trkpt lat="47.25748" lon="5.8614">
        <ele>281</ele>
        <time>2024-08-03T09:53:11Z</time>
      </trkpt>
      <trkpt lat="47.25748" lon="5.8614">
        <ele>281</ele>
        <time>2024-08-03T09:53:12Z</time>
      </trkpt>
      <trkpt lat="47.25748" lon="5.8614">
        <ele>281</ele>
        <time>2024-08-03T09:53:13Z</time>
      </trkpt>
      <trkpt lat="47.25748" lon="5.8614">
        <ele>281</ele>
        <time>2024-08-03T09:53:14Z</time>
      </trkpt>
      <trkpt lat="47.25748" lon="5.8614">
        <ele>281.2</ele>
        <time>2024-08-03T09:53:15Z</time>
      </trkpt>
      <trkpt lat="47.25748" lon="5.8614">
        <ele>281</ele>
        <time>2024-08-03T09:53:16Z</time>
      </trkpt>
      <trkpt lat="47.25748" lon="5.8614">
        <ele>281</ele>
        <time>2024-08-03T09:53:17Z</time>
      </trkpt>
      <trkpt lat="47.25748" lon="5.8614">
        <ele>281.2</ele>
        <time>2024-08-03T09:53:18Z</time>
      </trkpt>
      <trkpt lat="47.25748" lon="5.8614">
        <ele>281.2</ele>
        <time>2024-08-03T09:53:19Z</time>
      </trkpt>
      <trkpt lat="47.25748" lon="5.8614">
        <ele>281.2</ele>
        <time>2024-08-03T09:53:20Z</time>
      </trkpt>
      <trkpt lat="47.25748" lon="5.8614">
        <ele>281.2</ele>
        <time>2024-08-03T09:53:21Z</time>
      </trkpt>
      <trkpt lat="47.25748" lon="5.8614">
        <ele>281</ele>
        <time>2024-08-03T09:53:22Z</time>
      </trkpt>
      <trkpt lat="47.25748" lon="5.8614">
        <ele>281</ele>
        <time>2024-08-03T09:53:23Z</time>
      </trkpt>
      <trkpt lat="47.25748" lon="5.8614">
        <ele>281</ele>
        <time>2024-08-03T09:53:24Z</time>
      </trkpt>
      <trkpt lat="47.25748" lon="5.8614">
        <ele>281</ele>
        <time>2024-08-03T09:53:25Z</time>
      </trkpt>
      <trkpt lat="47.25748" lon="5.8614">
        <ele>281</ele>
        <time>2024-08-03T09:53:26Z</time>
      </trkpt>
      <trkpt lat="47.25748" lon="5.8614">
        <ele>281</ele>
        <time>2024-08-03T09:53:27Z</time>
      </trkpt>
      <trkpt lat="47.25748" lon="5.8614">
        <ele>281</ele>
        <time>2024-08-03T09:53:28Z</time>
      </trkpt>
      <trkpt lat="47.25748" lon="5.8614">
        <ele>281</ele>
        <time>2024-08-03T09:53:29Z</time>
      </trkpt>
      <trkpt lat="47.25748" lon="5.8614">
        <ele>281</ele>
        <time>2024-08-03T09:53:30Z</time>
      </trkpt>
      <trkpt lat="47.25748" lon="5.8614">
        <ele>281</ele>
        <time>2024-08-03T09:53:31Z</time>
      </trkpt>
      <trkpt lat="47.25748" lon="5.8614">
        <ele>281</ele>
        <time>2024-08-03T09:53:32Z</time>
      </trkpt>
      <trkpt lat="47.25748" lon="5.8614">
        <ele>280.8</ele>
        <time>2024-08-03T09:53:33Z</time>
      </trkpt>
      <trkpt lat="47.25748" lon="5.8614">
        <ele>281</ele>
        <time>2024-08-03T09:53:34Z</time>
      </trkpt>
      <trkpt lat="47.25748" lon="5.8614">
        <ele>280.8</ele>
        <time>2024-08-03T09:53:35Z</time>
      </trkpt>
      <trkpt lat="47.25748" lon="5.8614">
        <ele>280.8</ele>
        <time>2024-08-03T09:53:36Z</time>
      </trkpt>
      <trkpt lat="47.25748" lon="5.8614">
        <ele>280.8</ele>
        <time>2024-08-03T09:53:37Z</time>
      </trkpt>
      <trkpt lat="47.25748" lon="5.8614">
        <ele>280.8</ele>
        <time>2024-08-03T09:53:38Z</time>
      </trkpt>
      <trkpt lat="47.25748" lon="5.8614">
        <ele>280.8</ele>
        <time>2024-08-03T09:53:39Z</time>
      </trkpt>
      <trkpt lat="47.25748" lon="5.8614">
        <ele>280.8</ele>
        <time>2024-08-03T09:53:40Z</time>
      </trkpt>
      <trkpt lat="47.25748" lon="5.8614">
        <ele>280.8</ele>
        <time>2024-08-03T09:53:41Z</time>
      </trkpt>
      <trkpt lat="47.25748" lon="5.8614">
        <ele>280.8</ele>
        <time>2024-08-03T09:53:42Z</time>
      </trkpt>
      <trkpt lat="47.25748" lon="5.8614">
        <ele>280.8</ele>
        <time>2024-08-03T09:53:43Z</time>
      </trkpt>
      <trkpt lat="47.25748" lon="5.8614">
        <ele>280.8</ele>
        <time>2024-08-03T09:53:44Z</time>
      </trkpt>
      <trkpt lat="47.25748" lon="5.8614">
        <ele>280.8</ele>
        <time>2024-08-03T09:53:45Z</time>
      </trkpt>
      <trkpt lat="47.25748" lon="5.8614">
        <ele>280.8</ele>
        <time>2024-08-03T09:53:46Z</time>
      </trkpt>
      <trkpt lat="47.25748" lon="5.8614">
        <ele>280.8</ele>
        <time>2024-08-03T09:53:47Z</time>
      </trkpt>
      <trkpt lat="47.25748" lon="5.8614">
        <ele>280.8</ele>
        <time>2024-08-03T09:53:48Z</time>
      </trkpt>
      <trkpt lat="47.25748" lon="5.8614">
        <ele>280.8</ele>
        <time>2024-08-03T09:53:49Z</time>
      </trkpt>
      <trkpt lat="47.25748" lon="5.8614">
        <ele>280.8</ele>
        <time>2024-08-03T09:53:50Z</time>
      </trkpt>
      <trkpt lat="47.25748" lon="5.8614">
        <ele>280.8</ele>
        <time>2024-08-03T09:53:51Z</time>
      </trkpt>
      <trkpt lat="47.25748" lon="5.8614">
        <ele>281</ele>
        <time>2024-08-03T09:53:52Z</time>
      </trkpt>
      <trkpt lat="47.25748" lon="5.8614">
        <ele>281</ele>
        <time>2024-08-03T09:53:53Z</time>
      </trkpt>
      <trkpt lat="47.25748" lon="5.8614">
        <ele>281</ele>
        <time>2024-08-03T09:53:54Z</time>
      </trkpt>
      <trkpt lat="47.25748" lon="5.8614">
        <ele>280.8</ele>
        <time>2024-08-03T09:53:55Z</time>
      </trkpt>
      <trkpt lat="47.25748" lon="5.8614">
        <ele>281</ele>
        <time>2024-08-03T09:53:56Z</time>
      </trkpt>
      <trkpt lat="47.25748" lon="5.8614">
        <ele>281</ele>
        <time>2024-08-03T09:53:57Z</time>
      </trkpt>
      <trkpt lat="47.25748" lon="5.8614">
        <ele>280.8</ele>
        <time>2024-08-03T09:53:58Z</time>
      </trkpt>
      <trkpt lat="47.25748" lon="5.8614">
        <ele>281</ele>
        <time>2024-08-03T09:53:59Z</time>
      </trkpt>
      <trkpt lat="47.25748" lon="5.8614">
        <ele>281</ele>
        <time>2024-08-03T09:54:00Z</time>
      </trkpt>
      <trkpt lat="47.25748" lon="5.8614">
        <ele>281</ele>
        <time>2024-08-03T09:54:01Z</time>
      </trkpt>
      <trkpt lat="47.25748" lon="5.8614">
        <ele>281</ele>
        <time>2024-08-03T09:54:02Z</time>
      </trkpt>
      <trkpt lat="47.25748" lon="5.8614">
        <ele>281.2</ele>
        <time>2024-08-03T09:54:03Z</time>
      </trkpt>
      <trkpt lat="47.25748" lon="5.8614">
        <ele>281</ele>
        <time>2024-08-03T09:54:04Z</time>
      </trkpt>
      <trkpt lat="47.25748" lon="5.8614">
        <ele>281</ele>
        <time>2024-08-03T09:54:05Z</time>
      </trkpt>
      <trkpt lat="47.25748" lon="5.8614">
        <ele>281</ele>
        <time>2024-08-03T09:54:06Z</time>
      </trkpt>
      <trkpt lat="47.25748" lon="5.8614">
        <ele>281</ele>
        <time>2024-08-03T09:54:07Z</time>
      </trkpt>
      <trkpt lat="47.25748" lon="5.8614">
        <ele>281.2</ele>
        <time>2024-08-03T09:54:08Z</time>
      </trkpt>
      <trkpt lat="47.25748" lon="5.8614">
        <ele>281.2</ele>
        <time>2024-08-03T09:54:09Z</time>
      </trkpt>
      <trkpt lat="47.25748" lon="5.8614">
        <ele>281.2</ele>
        <time>2024-08-03T09:54:10Z</time>
      </trkpt>
      <trkpt lat="47.25748" lon="5.8614">
        <ele>281</ele>
        <time>2024-08-03T09:54:11Z</time>
      </trkpt>
      <trkpt lat="47.25748" lon="5.8614">
        <ele>281</ele>
        <time>2024-08-03T09:54:12Z</time>
      </trkpt>
      <trkpt lat="47.25748" lon="5.8614">
        <ele>281</ele>
        <time>2024-08-03T09:54:13Z</time>
      </trkpt>
      <trkpt lat="47.25748" lon="5.8614">
        <ele>281.2</ele>
        <time>2024-08-03T09:54:14Z</time>
      </trkpt>
      <trkpt lat="47.25748" lon="5.8614">
        <ele>281.2</ele>
        <time>2024-08-03T09:54:15Z</time>
      </trkpt>
      <trkpt lat="47.25748" lon="5.8614">
        <ele>281</ele>
        <time>2024-08-03T09:54:16Z</time>
      </trkpt>
      <trkpt lat="47.25748" lon="5.8614">
        <ele>281</ele>
        <time>2024-08-03T09:54:17Z</time>
      </trkpt>
      <trkpt lat="47.25748" lon="5.8614">
        <ele>281</ele>
        <time>2024-08-03T09:54:18Z</time>
      </trkpt>
      <trkpt lat="47.25748" lon="5.8614">
        <ele>281</ele>
        <time>2024-08-03T09:54:19Z</time>
      </trkpt>
      <trkpt lat="47.25748" lon="5.8614">
        <ele>281</ele>
        <time>2024-08-03T09:54:20Z</time>
      </trkpt>
      <trkpt lat="47.25748" lon="5.8614">
        <ele>281</ele>
        <time>2024-08-03T09:54:21Z</time>
      </trkpt>
      <trkpt lat="47.25748" lon="5.8614">
        <ele>281</ele>
        <time>2024-08-03T09:54:22Z</time>
      </trkpt>
      <trkpt lat="47.25748" lon="5.8614">
        <ele>281</ele>
        <time>2024-08-03T09:54:23Z</time>
      </trkpt>
      <trkpt lat="47.25748" lon="5.8614">
        <ele>280.8</ele>
        <time>2024-08-03T09:54:24Z</time>
      </trkpt>
      <trkpt lat="47.25748" lon="5.8614">
        <ele>281</ele>
        <time>2024-08-03T09:54:25Z</time>
      </trkpt>
      <trkpt lat="47.25748" lon="5.8614">
        <ele>280.8</ele>
        <time>2024-08-03T09:54:26Z</time>
      </trkpt>
      <trkpt lat="47.25748" lon="5.8614">
        <ele>280.8</ele>
        <time>2024-08-03T09:54:27Z</time>
      </trkpt>
      <trkpt lat="47.25748" lon="5.8614">
        <ele>280.8</ele>
        <time>2024-08-03T09:54:28Z</time>
      </trkpt>
      <trkpt lat="47.25748" lon="5.8614">
        <ele>280.8</ele>
        <time>2024-08-03T09:54:29Z</time>
      </trkpt>
      <trkpt lat="47.25748" lon="5.8614">
        <ele>280.8</ele>
        <time>2024-08-03T09:54:30Z</time>
      </trkpt>
      <trkpt lat="47.25748" lon="5.8614">
        <ele>280.8</ele>
        <time>2024-08-03T09:54:31Z</time>
      </trkpt>
      <trkpt lat="47.25748" lon="5.8614">
        <ele>280.8</ele>
        <time>2024-08-03T09:54:32Z</time>
      </trkpt>
      <trkpt lat="47.25748" lon="5.86139">
        <ele>280.8</ele>
        <time>2024-08-03T09:54:33Z</time>
      </trkpt>
      <trkpt lat="47.25748" lon="5.86139">
        <ele>280.6</ele>
        <time>2024-08-03T09:54:34Z</time>
      </trkpt>
      <trkpt lat="47.25748" lon="5.86139">
        <ele>280.6</ele>
        <time>2024-08-03T09:54:35Z</time>
      </trkpt>
      <trkpt lat="47.25748" lon="5.86139">
        <ele>280.8</ele>
        <time>2024-08-03T09:54:36Z</time>
      </trkpt>
      <trkpt lat="47.25748" lon="5.86139">
        <ele>280.8</ele>
        <time>2024-08-03T09:54:37Z</time>
      </trkpt>
      <trkpt lat="47.25748" lon="5.86139">
        <ele>280.6</ele>
        <time>2024-08-03T09:54:38Z</time>
      </trkpt>
      <trkpt lat="47.25748" lon="5.86139">
        <ele>280.8</ele>
        <time>2024-08-03T09:54:39Z</time>
      </trkpt>
      <trkpt lat="47.25748" lon="5.86139">
        <ele>280.6</ele>
        <time>2024-08-03T09:54:40Z</time>
      </trkpt>
      <trkpt lat="47.25748" lon="5.86139">
        <ele>280.8</ele>
        <time>2024-08-03T09:54:41Z</time>
      </trkpt>
      <trkpt lat="47.25748" lon="5.86139">
        <ele>280.6</ele>
        <time>2024-08-03T09:54:42Z</time>
      </trkpt>
      <trkpt lat="47.25748" lon="5.86139">
        <ele>280.8</ele>
        <time>2024-08-03T09:54:43Z</time>
      </trkpt>
      <trkpt lat="47.25748" lon="5.86139">
        <ele>280.6</ele>
        <time>2024-08-03T09:54:44Z</time>
      </trkpt>
      <trkpt lat="47.25748" lon="5.86139">
        <ele>280.8</ele>
        <time>2024-08-03T09:54:45Z</time>
      </trkpt>
      <trkpt lat="47.25748" lon="5.86139">
        <ele>280.8</ele>
        <time>2024-08-03T09:54:46Z</time>
      </trkpt>
      <trkpt lat="47.25748" lon="5.86139">
        <ele>280.8</ele>
        <time>2024-08-03T09:54:47Z</time>
      </trkpt>
      <trkpt lat="47.25748" lon="5.86139">
        <ele>280.8</ele>
        <time>2024-08-03T09:54:48Z</time>
      </trkpt>
      <trkpt lat="47.25748" lon="5.86139">
        <ele>280.8</ele>
        <time>2024-08-03T09:54:49Z</time>
      </trkpt>
      <trkpt lat="47.25748" lon="5.86139">
        <ele>280.8</ele>
        <time>2024-08-03T09:54:50Z</time>
      </trkpt>
      <trkpt lat="47.25748" lon="5.86139">
        <ele>280.8</ele>
        <time>2024-08-03T09:54:51Z</time>
      </trkpt>
      <trkpt lat="47.25748" lon="5.86139">
        <ele>280.8</ele>
        <time>2024-08-03T09:54:52Z</time>
      </trkpt>
      <trkpt lat="47.25748" lon="5.86139">
        <ele>280.6</ele>
        <time>2024-08-03T09:54:53Z</time>
      </trkpt>
      <trkpt lat="47.25748" lon="5.86139">
        <ele>280.8</ele>
        <time>2024-08-03T09:54:54Z</time>
      </trkpt>
      <trkpt lat="47.25748" lon="5.86139">
        <ele>280.8</ele>
        <time>2024-08-03T09:54:55Z</time>
      </trkpt>
      <trkpt lat="47.25748" lon="5.86139">
        <ele>280.8</ele>
        <time>2024-08-03T09:54:56Z</time>
      </trkpt>
      <trkpt lat="47.25748" lon="5.86139">
        <ele>280.6</ele>
        <time>2024-08-03T09:54:57Z</time>
      </trkpt>
      <trkpt lat="47.25748" lon="5.86139">
        <ele>280.8</ele>
        <time>2024-08-03T09:54:58Z</time>
      </trkpt>
      <trkpt lat="47.25748" lon="5.86139">
        <ele>280.8</ele>
        <time>2024-08-03T09:54:59Z</time>
      </trkpt>
      <trkpt lat="47.25748" lon="5.86139">
        <ele>280.8</ele>
        <time>2024-08-03T09:55:00Z</time>
      </trkpt>
      <trkpt lat="47.25748" lon="5.8614">
        <ele>280.8</ele>
        <time>2024-08-03T09:55:01Z</time>
      </trkpt>
      <trkpt lat="47.25748" lon="5.8614">
        <ele>280.8</ele>
        <time>2024-08-03T09:55:02Z</time>
      </trkpt>
      <trkpt lat="47.25749" lon="5.86139">
        <ele>280.8</ele>
        <time>2024-08-03T09:55:03Z</time>
      </trkpt>
      <trkpt lat="47.25749" lon="5.86139">
        <ele>280.8</ele>
        <time>2024-08-03T09:55:04Z</time>
      </trkpt>
      <trkpt lat="47.25749" lon="5.86139">
        <ele>280.8</ele>
        <time>2024-08-03T09:55:05Z</time>
      </trkpt>
      <trkpt lat="47.25749" lon="5.86139">
        <ele>280.8</ele>
        <time>2024-08-03T09:55:06Z</time>
      </trkpt>
      <trkpt lat="47.25749" lon="5.86139">
        <ele>280.8</ele>
        <time>2024-08-03T09:55:07Z</time>
      </trkpt>
      <trkpt lat="47.25749" lon="5.86139">
        <ele>280.6</ele>
        <time>2024-08-03T09:55:08Z</time>
      </trkpt>
      <trkpt lat="47.25749" lon="5.86139">
        <ele>280.8</ele>
        <time>2024-08-03T09:55:09Z</time>
      </trkpt>
      <trkpt lat="47.25749" lon="5.86139">
        <ele>280.8</ele>
        <time>2024-08-03T09:55:10Z</time>
      </trkpt>
      <trkpt lat="47.25749" lon="5.86139">
        <ele>281</ele>
        <time>2024-08-03T09:55:11Z</time>
      </trkpt>
      <trkpt lat="47.25749" lon="5.86139">
        <ele>281</ele>
        <time>2024-08-03T09:55:12Z</time>
      </trkpt>
      <trkpt lat="47.25749" lon="5.86139">
        <ele>281</ele>
        <time>2024-08-03T09:55:13Z</time>
      </trkpt>
      <trkpt lat="47.25749" lon="5.86139">
        <ele>280.8</ele>
        <time>2024-08-03T09:55:14Z</time>
      </trkpt>
      <trkpt lat="47.25749" lon="5.86139">
        <ele>281</ele>
        <time>2024-08-03T09:55:15Z</time>
      </trkpt>
      <trkpt lat="47.25749" lon="5.86139">
        <ele>281</ele>
        <time>2024-08-03T09:55:16Z</time>
      </trkpt>
      <trkpt lat="47.25749" lon="5.86139">
        <ele>281</ele>
        <time>2024-08-03T09:55:17Z</time>
      </trkpt>
      <trkpt lat="47.25749" lon="5.86139">
        <ele>281</ele>
        <time>2024-08-03T09:55:18Z</time>
      </trkpt>
      <trkpt lat="47.25749" lon="5.86139">
        <ele>281</ele>
        <time>2024-08-03T09:55:19Z</time>
      </trkpt>
      <trkpt lat="47.25749" lon="5.86139">
        <ele>281</ele>
        <time>2024-08-03T09:55:20Z</time>
      </trkpt>
      <trkpt lat="47.25749" lon="5.86139">
        <ele>281</ele>
        <time>2024-08-03T09:55:21Z</time>
      </trkpt>
      <trkpt lat="47.25749" lon="5.86139">
        <ele>281</ele>
        <time>2024-08-03T09:55:22Z</time>
      </trkpt>
      <trkpt lat="47.25749" lon="5.86139">
        <ele>281.2</ele>
        <time>2024-08-03T09:55:23Z</time>
      </trkpt>
      <trkpt lat="47.25749" lon="5.86139">
        <ele>281</ele>
        <time>2024-08-03T09:55:24Z</time>
      </trkpt>
      <trkpt lat="47.25749" lon="5.86139">
        <ele>281</ele>
        <time>2024-08-03T09:55:25Z</time>
      </trkpt>
      <trkpt lat="47.25749" lon="5.86139">
        <ele>281.2</ele>
        <time>2024-08-03T09:55:26Z</time>
      </trkpt>
      <trkpt lat="47.25749" lon="5.86138">
        <ele>281</ele>
        <time>2024-08-03T09:55:27Z</time>
      </trkpt>
      <trkpt lat="47.25749" lon="5.86138">
        <ele>281.2</ele>
        <time>2024-08-03T09:55:28Z</time>
      </trkpt>
      <trkpt lat="47.25749" lon="5.86138">
        <ele>281</ele>
        <time>2024-08-03T09:55:29Z</time>
      </trkpt>
      <trkpt lat="47.25749" lon="5.86138">
        <ele>281</ele>
        <time>2024-08-03T09:55:30Z</time>
      </trkpt>
      <trkpt lat="47.25749" lon="5.86138">
        <ele>281</ele>
        <time>2024-08-03T09:55:31Z</time>
      </trkpt>
      <trkpt lat="47.25749" lon="5.86138">
        <ele>281</ele>
        <time>2024-08-03T09:55:32Z</time>
      </trkpt>
      <trkpt lat="47.25749" lon="5.86138">
        <ele>281</ele>
        <time>2024-08-03T09:55:33Z</time>
      </trkpt>
      <trkpt lat="47.25748" lon="5.86138">
        <ele>281</ele>
        <time>2024-08-03T09:55:34Z</time>
      </trkpt>
      <trkpt lat="47.25748" lon="5.86138">
        <ele>281</ele>
        <time>2024-08-03T09:55:35Z</time>
      </trkpt>
      <trkpt lat="47.25748" lon="5.86138">
        <ele>281</ele>
        <time>2024-08-03T09:55:36Z</time>
      </trkpt>
      <trkpt lat="47.25748" lon="5.86138">
        <ele>281</ele>
        <time>2024-08-03T09:55:37Z</time>
      </trkpt>
      <trkpt lat="47.25748" lon="5.86138">
        <ele>280.8</ele>
        <time>2024-08-03T09:55:38Z</time>
      </trkpt>
      <trkpt lat="47.25748" lon="5.86138">
        <ele>281</ele>
        <time>2024-08-03T09:55:39Z</time>
      </trkpt>
      <trkpt lat="47.25748" lon="5.86138">
        <ele>281</ele>
        <time>2024-08-03T09:55:40Z</time>
      </trkpt>
      <trkpt lat="47.25748" lon="5.86139">
        <ele>281</ele>
        <time>2024-08-03T09:55:41Z</time>
      </trkpt>
      <trkpt lat="47.25748" lon="5.86139">
        <ele>280.8</ele>
        <time>2024-08-03T09:55:42Z</time>
      </trkpt>
      <trkpt lat="47.25749" lon="5.8614">
        <ele>280.8</ele>
        <time>2024-08-03T09:55:43Z</time>
      </trkpt>
      <trkpt lat="47.25749" lon="5.8614">
        <ele>281</ele>
        <time>2024-08-03T09:55:44Z</time>
      </trkpt>
      <trkpt lat="47.25749" lon="5.86141">
        <ele>281</ele>
        <time>2024-08-03T09:55:45Z</time>
      </trkpt>
      <trkpt lat="47.2575" lon="5.86142">
        <ele>281</ele>
        <time>2024-08-03T09:55:46Z</time>
      </trkpt>
      <trkpt lat="47.2575" lon="5.86142">
        <ele>281</ele>
        <time>2024-08-03T09:55:47Z</time>
      </trkpt>
      <trkpt lat="47.2575" lon="5.86142">
        <ele>281</ele>
        <time>2024-08-03T09:55:48Z</time>
      </trkpt>
      <trkpt lat="47.2575" lon="5.86143">
        <ele>281.2</ele>
        <time>2024-08-03T09:55:49Z</time>
      </trkpt>
      <trkpt lat="47.2575" lon="5.86143">
        <ele>281.2</ele>
        <time>2024-08-03T09:55:50Z</time>
      </trkpt>
      <trkpt lat="47.2575" lon="5.86144">
        <ele>281.4</ele>
        <time>2024-08-03T09:55:51Z</time>
      </trkpt>
      <trkpt lat="47.2575" lon="5.86144">
        <ele>281.2</ele>
        <time>2024-08-03T09:55:52Z</time>
      </trkpt>
      <trkpt lat="47.2575" lon="5.86145">
        <ele>281.4</ele>
        <time>2024-08-03T09:55:53Z</time>
      </trkpt>
      <trkpt lat="47.2575" lon="5.86145">
        <ele>281.2</ele>
        <time>2024-08-03T09:55:54Z</time>
      </trkpt>
      <trkpt lat="47.25748" lon="5.86149">
        <ele>281.2</ele>
        <time>2024-08-03T09:55:55Z</time>
      </trkpt>
      <trkpt lat="47.25747" lon="5.86151">
        <ele>281.4</ele>
        <time>2024-08-03T09:55:56Z</time>
      </trkpt>
      <trkpt lat="47.25747" lon="5.86153">
        <ele>281.4</ele>
        <time>2024-08-03T09:55:57Z</time>
      </trkpt>
      <trkpt lat="47.25747" lon="5.86154">
        <ele>281.4</ele>
        <time>2024-08-03T09:55:58Z</time>
      </trkpt>
      <trkpt lat="47.25747" lon="5.86155">
        <ele>281.6</ele>
        <time>2024-08-03T09:55:59Z</time>
      </trkpt>
      <trkpt lat="47.25748" lon="5.86154">
        <ele>281.6</ele>
        <time>2024-08-03T09:56:00Z</time>
      </trkpt>
      <trkpt lat="47.25748" lon="5.86152">
        <ele>281.4</ele>
        <time>2024-08-03T09:56:01Z</time>
      </trkpt>
      <trkpt lat="47.25749" lon="5.8615">
        <ele>281.4</ele>
        <time>2024-08-03T09:56:02Z</time>
      </trkpt>
      <trkpt lat="47.25749" lon="5.86149">
        <ele>281.4</ele>
        <time>2024-08-03T09:56:03Z</time>
      </trkpt>
      <trkpt lat="47.2575" lon="5.86147">
        <ele>281.4</ele>
        <time>2024-08-03T09:56:04Z</time>
      </trkpt>
      <trkpt lat="47.2575" lon="5.86145">
        <ele>281.4</ele>
        <time>2024-08-03T09:56:05Z</time>
      </trkpt>
      <trkpt lat="47.25751" lon="5.86144">
        <ele>281.4</ele>
        <time>2024-08-03T09:56:06Z</time>
      </trkpt>
      <trkpt lat="47.25751" lon="5.86143">
        <ele>281.4</ele>
        <time>2024-08-03T09:56:07Z</time>
      </trkpt>
      <trkpt lat="47.25751" lon="5.86143">
        <ele>281.4</ele>
        <time>2024-08-03T09:56:08Z</time>
      </trkpt>
      <trkpt lat="47.25751" lon="5.86143">
        <ele>281.4</ele>
        <time>2024-08-03T09:56:09Z</time>
      </trkpt>
      <trkpt lat="47.25751" lon="5.86143">
        <ele>281.4</ele>
        <time>2024-08-03T09:56:10Z</time>
      </trkpt>
      <trkpt lat="47.25751" lon="5.86143">
        <ele>281.6</ele>
        <time>2024-08-03T09:56:11Z</time>
      </trkpt>
      <trkpt lat="47.25751" lon="5.86143">
        <ele>281.4</ele>
        <time>2024-08-03T09:56:12Z</time>
      </trkpt>
      <trkpt lat="47.25751" lon="5.86143">
        <ele>281.4</ele>
        <time>2024-08-03T09:56:13Z</time>
      </trkpt>
      <trkpt lat="47.25751" lon="5.86143">
        <ele>281.4</ele>
        <time>2024-08-03T09:56:14Z</time>
      </trkpt>
      <trkpt lat="47.25751" lon="5.86143">
        <ele>281.4</ele>
        <time>2024-08-03T09:56:15Z</time>
      </trkpt>
      <trkpt lat="47.25751" lon="5.86143">
        <ele>281.6</ele>
        <time>2024-08-03T09:56:16Z</time>
      </trkpt>
      <trkpt lat="47.25751" lon="5.86143">
        <ele>281.4</ele>
        <time>2024-08-03T09:56:17Z</time>
      </trkpt>
      <trkpt lat="47.25751" lon="5.86143">
        <ele>281.4</ele>
        <time>2024-08-03T09:56:18Z</time>
      </trkpt>
      <trkpt lat="47.25751" lon="5.86143">
        <ele>281.4</ele>
        <time>2024-08-03T09:56:19Z</time>
      </trkpt>
      <trkpt lat="47.25751" lon="5.86143">
        <ele>281.8</ele>
        <time>2024-08-03T09:56:20Z</time>
      </trkpt>
      <trkpt lat="47.25751" lon="5.86143">
        <ele>281.8</ele>
        <time>2024-08-03T09:56:21Z</time>
      </trkpt>
      <trkpt lat="47.25751" lon="5.86143">
        <ele>281.6</ele>
        <time>2024-08-03T09:56:22Z</time>
      </trkpt>
      <trkpt lat="47.25751" lon="5.86143">
        <ele>281.6</ele>
        <time>2024-08-03T09:56:23Z</time>
      </trkpt>
      <trkpt lat="47.25751" lon="5.86143">
        <ele>281.8</ele>
        <time>2024-08-03T09:56:24Z</time>
      </trkpt>
      <trkpt lat="47.25751" lon="5.86143">
        <ele>281.8</ele>
        <time>2024-08-03T09:56:25Z</time>
      </trkpt>
      <trkpt lat="47.25751" lon="5.86144">
        <ele>281.8</ele>
        <time>2024-08-03T09:56:26Z</time>
      </trkpt>
      <trkpt lat="47.25751" lon="5.86144">
        <ele>281.8</ele>
        <time>2024-08-03T09:56:27Z</time>
      </trkpt>
      <trkpt lat="47.25751" lon="5.86145">
        <ele>281.8</ele>
        <time>2024-08-03T09:56:28Z</time>
      </trkpt>
      <trkpt lat="47.25751" lon="5.86146">
        <ele>281.8</ele>
        <time>2024-08-03T09:56:29Z</time>
      </trkpt>
      <trkpt lat="47.25751" lon="5.86148">
        <ele>281.8</ele>
        <time>2024-08-03T09:56:30Z</time>
      </trkpt>
      <trkpt lat="47.25751" lon="5.86149">
        <ele>281.8</ele>
        <time>2024-08-03T09:56:31Z</time>
      </trkpt>
      <trkpt lat="47.25751" lon="5.8615">
        <ele>281.8</ele>
        <time>2024-08-03T09:56:32Z</time>
      </trkpt>
      <trkpt lat="47.25751" lon="5.8615">
        <ele>281.8</ele>
        <time>2024-08-03T09:56:33Z</time>
      </trkpt>
      <trkpt lat="47.2575" lon="5.86152">
        <ele>281.8</ele>
        <time>2024-08-03T09:56:34Z</time>
      </trkpt>
      <trkpt lat="47.2575" lon="5.86152">
        <ele>281.8</ele>
        <time>2024-08-03T09:56:35Z</time>
      </trkpt>
      <trkpt lat="47.25751" lon="5.86152">
        <ele>281.8</ele>
        <time>2024-08-03T09:56:36Z</time>
      </trkpt>
      <trkpt lat="47.25751" lon="5.86152">
        <ele>282</ele>
        <time>2024-08-03T09:56:37Z</time>
      </trkpt>
      <trkpt lat="47.25751" lon="5.86152">
        <ele>282</ele>
        <time>2024-08-03T09:56:38Z</time>
      </trkpt>
      <trkpt lat="47.25751" lon="5.86151">
        <ele>282</ele>
        <time>2024-08-03T09:56:39Z</time>
      </trkpt>
      <trkpt lat="47.25751" lon="5.86151">
        <ele>282</ele>
        <time>2024-08-03T09:56:40Z</time>
      </trkpt>
      <trkpt lat="47.25751" lon="5.8615">
        <ele>282</ele>
        <time>2024-08-03T09:56:41Z</time>
      </trkpt>
      <trkpt lat="47.25751" lon="5.86149">
        <ele>282</ele>
        <time>2024-08-03T09:56:42Z</time>
      </trkpt>
      <trkpt lat="47.25751" lon="5.86149">
        <ele>282</ele>
        <time>2024-08-03T09:56:43Z</time>
      </trkpt>
      <trkpt lat="47.25751" lon="5.86149">
        <ele>282</ele>
        <time>2024-08-03T09:56:44Z</time>
      </trkpt>
      <trkpt lat="47.25751" lon="5.86149">
        <ele>282</ele>
        <time>2024-08-03T09:56:45Z</time>
      </trkpt>
      <trkpt lat="47.25751" lon="5.86149">
        <ele>282</ele>
        <time>2024-08-03T09:56:46Z</time>
      </trkpt>
      <trkpt lat="47.25751" lon="5.86149">
        <ele>282.2</ele>
        <time>2024-08-03T09:56:47Z</time>
      </trkpt>
      <trkpt lat="47.25751" lon="5.86148">
        <ele>282.2</ele>
        <time>2024-08-03T09:56:48Z</time>
      </trkpt>
      <trkpt lat="47.25751" lon="5.86148">
        <ele>282.2</ele>
        <time>2024-08-03T09:56:49Z</time>
      </trkpt>
      <trkpt lat="47.25751" lon="5.86147">
        <ele>282.2</ele>
        <time>2024-08-03T09:56:50Z</time>
      </trkpt>
      <trkpt lat="47.25751" lon="5.86146">
        <ele>282.2</ele>
        <time>2024-08-03T09:56:51Z</time>
      </trkpt>
      <trkpt lat="47.2575" lon="5.86145">
        <ele>282</ele>
        <time>2024-08-03T09:56:52Z</time>
      </trkpt>
      <trkpt lat="47.25749" lon="5.86143">
        <ele>282.2</ele>
        <time>2024-08-03T09:56:53Z</time>
      </trkpt>
      <trkpt lat="47.25749" lon="5.8614">
        <ele>282</ele>
        <time>2024-08-03T09:56:54Z</time>
      </trkpt>
      <trkpt lat="47.25749" lon="5.86136">
        <ele>282</ele>
        <time>2024-08-03T09:56:55Z</time>
      </trkpt>
      <trkpt lat="47.25749" lon="5.86133">
        <ele>282</ele>
        <time>2024-08-03T09:56:56Z</time>
      </trkpt>
      <trkpt lat="47.2575" lon="5.86128">
        <ele>282.2</ele>
        <time>2024-08-03T09:56:57Z</time>
      </trkpt>
      <trkpt lat="47.25752" lon="5.86123">
        <ele>282.2</ele>
        <time>2024-08-03T09:56:58Z</time>
      </trkpt>
      <trkpt lat="47.25754" lon="5.86118">
        <ele>282</ele>
        <time>2024-08-03T09:56:59Z</time>
      </trkpt>
      <trkpt lat="47.25756" lon="5.86114">
        <ele>282.2</ele>
        <time>2024-08-03T09:57:00Z</time>
      </trkpt>
      <trkpt lat="47.25758" lon="5.8611">
        <ele>282</ele>
        <time>2024-08-03T09:57:01Z</time>
      </trkpt>
      <trkpt lat="47.2576" lon="5.86105">
        <ele>282</ele>
        <time>2024-08-03T09:57:02Z</time>
      </trkpt>
      <trkpt lat="47.25762" lon="5.86101">
        <ele>282</ele>
        <time>2024-08-03T09:57:03Z</time>
      </trkpt>
      <trkpt lat="47.25762" lon="5.86096">
        <ele>282</ele>
        <time>2024-08-03T09:57:04Z</time>
      </trkpt>
      <trkpt lat="47.25762" lon="5.86092">
        <ele>282</ele>
        <time>2024-08-03T09:57:05Z</time>
      </trkpt>
      <trkpt lat="47.25762" lon="5.86087">
        <ele>282</ele>
        <time>2024-08-03T09:57:06Z</time>
      </trkpt>
      <trkpt lat="47.25762" lon="5.86081">
        <ele>282</ele>
        <time>2024-08-03T09:57:07Z</time>
      </trkpt>
      <trkpt lat="47.25762" lon="5.86075">
        <ele>282</ele>
        <time>2024-08-03T09:57:08Z</time>
      </trkpt>
      <trkpt lat="47.25762" lon="5.86069">
        <ele>282</ele>
        <time>2024-08-03T09:57:09Z</time>
      </trkpt>
      <trkpt lat="47.25762" lon="5.86063">
        <ele>282</ele>
        <time>2024-08-03T09:57:10Z</time>
      </trkpt>
      <trkpt lat="47.25761" lon="5.86057">
        <ele>282</ele>
        <time>2024-08-03T09:57:11Z</time>
      </trkpt>
      <trkpt lat="47.25761" lon="5.8605">
        <ele>282</ele>
        <time>2024-08-03T09:57:12Z</time>
      </trkpt>
      <trkpt lat="47.25761" lon="5.86044">
        <ele>282</ele>
        <time>2024-08-03T09:57:13Z</time>
      </trkpt>
      <trkpt lat="47.25761" lon="5.86037">
        <ele>282</ele>
        <time>2024-08-03T09:57:14Z</time>
      </trkpt>
      <trkpt lat="47.2576" lon="5.8603">
        <ele>281.8</ele>
        <time>2024-08-03T09:57:15Z</time>
      </trkpt>
      <trkpt lat="47.2576" lon="5.86023">
        <ele>282</ele>
        <time>2024-08-03T09:57:16Z</time>
      </trkpt>
      <trkpt lat="47.2576" lon="5.86015">
        <ele>281.8</ele>
        <time>2024-08-03T09:57:17Z</time>
      </trkpt>
      <trkpt lat="47.2576" lon="5.86007">
        <ele>282</ele>
        <time>2024-08-03T09:57:18Z</time>
      </trkpt>
      <trkpt lat="47.2576" lon="5.86">
        <ele>281.8</ele>
        <time>2024-08-03T09:57:19Z</time>
      </trkpt>
      <trkpt lat="47.25761" lon="5.85992">
        <ele>281.8</ele>
        <time>2024-08-03T09:57:20Z</time>
      </trkpt>
      <trkpt lat="47.25761" lon="5.85984">
        <ele>281.8</ele>
        <time>2024-08-03T09:57:21Z</time>
      </trkpt>
      <trkpt lat="47.25762" lon="5.85976">
        <ele>281.8</ele>
        <time>2024-08-03T09:57:22Z</time>
      </trkpt>
      <trkpt lat="47.25762" lon="5.85969">
        <ele>281.6</ele>
        <time>2024-08-03T09:57:23Z</time>
      </trkpt>
      <trkpt lat="47.25762" lon="5.85961">
        <ele>281.6</ele>
        <time>2024-08-03T09:57:24Z</time>
      </trkpt>
      <trkpt lat="47.2576" lon="5.85954">
        <ele>281.6</ele>
        <time>2024-08-03T09:57:25Z</time>
      </trkpt>
      <trkpt lat="47.25759" lon="5.85947">
        <ele>281.6</ele>
        <time>2024-08-03T09:57:26Z</time>
      </trkpt>
      <trkpt lat="47.25757" lon="5.8594">
        <ele>281.4</ele>
        <time>2024-08-03T09:57:27Z</time>
      </trkpt>
      <trkpt lat="47.25756" lon="5.85933">
        <ele>281.4</ele>
        <time>2024-08-03T09:57:28Z</time>
      </trkpt>
      <trkpt lat="47.25753" lon="5.85927">
        <ele>281.6</ele>
        <time>2024-08-03T09:57:29Z</time>
      </trkpt>
      <trkpt lat="47.2575" lon="5.85922">
        <ele>281.4</ele>
        <time>2024-08-03T09:57:30Z</time>
      </trkpt>
      <trkpt lat="47.25747" lon="5.85917">
        <ele>281.4</ele>
        <time>2024-08-03T09:57:31Z</time>
      </trkpt>
      <trkpt lat="47.25743" lon="5.85912">
        <ele>281.4</ele>
        <time>2024-08-03T09:57:32Z</time>
      </trkpt>
      <trkpt lat="47.2574" lon="5.85908">
        <ele>281.4</ele>
        <time>2024-08-03T09:57:33Z</time>
      </trkpt>
      <trkpt lat="47.25736" lon="5.85903">
        <ele>281.4</ele>
        <time>2024-08-03T09:57:34Z</time>
      </trkpt>
      <trkpt lat="47.25733" lon="5.85899">
        <ele>281.4</ele>
        <time>2024-08-03T09:57:35Z</time>
      </trkpt>
      <trkpt lat="47.25729" lon="5.85895">
        <ele>281.4</ele>
        <time>2024-08-03T09:57:36Z</time>
      </trkpt>
      <trkpt lat="47.25724" lon="5.8589">
        <ele>281.4</ele>
        <time>2024-08-03T09:57:37Z</time>
      </trkpt>
      <trkpt lat="47.2572" lon="5.85884">
        <ele>281.4</ele>
        <time>2024-08-03T09:57:38Z</time>
      </trkpt>
      <trkpt lat="47.25715" lon="5.85879">
        <ele>281.2</ele>
        <time>2024-08-03T09:57:39Z</time>
      </trkpt>
      <trkpt lat="47.25711" lon="5.85874">
        <ele>281.2</ele>
        <time>2024-08-03T09:57:40Z</time>
      </trkpt>
      <trkpt lat="47.25706" lon="5.85869">
        <ele>281</ele>
        <time>2024-08-03T09:57:41Z</time>
      </trkpt>
      <trkpt lat="47.25701" lon="5.85863">
        <ele>280.8</ele>
        <time>2024-08-03T09:57:42Z</time>
      </trkpt>
      <trkpt lat="47.25697" lon="5.85858">
        <ele>280.8</ele>
        <time>2024-08-03T09:57:43Z</time>
      </trkpt>
      <trkpt lat="47.25692" lon="5.85853">
        <ele>280.8</ele>
        <time>2024-08-03T09:57:44Z</time>
      </trkpt>
      <trkpt lat="47.25688" lon="5.85847">
        <ele>280.6</ele>
        <time>2024-08-03T09:57:45Z</time>
      </trkpt>
      <trkpt lat="47.25684" lon="5.85842">
        <ele>280.6</ele>
        <time>2024-08-03T09:57:46Z</time>
      </trkpt>
      <trkpt lat="47.2568" lon="5.85838">
        <ele>280.6</ele>
        <time>2024-08-03T09:57:47Z</time>
      </trkpt>
      <trkpt lat="47.25676" lon="5.85834">
        <ele>280.6</ele>
        <time>2024-08-03T09:57:48Z</time>
      </trkpt>
      <trkpt lat="47.25672" lon="5.8583">
        <ele>280.6</ele>
        <time>2024-08-03T09:57:49Z</time>
      </trkpt>
      <trkpt lat="47.25668" lon="5.85827">
        <ele>280.8</ele>
        <time>2024-08-03T09:57:50Z</time>
      </trkpt>
      <trkpt lat="47.25664" lon="5.85824">
        <ele>280.6</ele>
        <time>2024-08-03T09:57:51Z</time>
      </trkpt>
      <trkpt lat="47.2566" lon="5.85823">
        <ele>280.8</ele>
        <time>2024-08-03T09:57:52Z</time>
      </trkpt>
      <trkpt lat="47.25655" lon="5.85822">
        <ele>280.6</ele>
        <time>2024-08-03T09:57:53Z</time>
      </trkpt>
      <trkpt lat="47.25651" lon="5.85819">
        <ele>280.8</ele>
        <time>2024-08-03T09:57:54Z</time>
      </trkpt>
      <trkpt lat="47.25648" lon="5.85816">
        <ele>280.8</ele>
        <time>2024-08-03T09:57:55Z</time>
      </trkpt>
      <trkpt lat="47.25644" lon="5.8581">
        <ele>280.8</ele>
        <time>2024-08-03T09:57:56Z</time>
      </trkpt>
      <trkpt lat="47.2564" lon="5.85804">
        <ele>281</ele>
        <time>2024-08-03T09:57:57Z</time>
      </trkpt>
      <trkpt lat="47.25636" lon="5.85798">
        <ele>281.2</ele>
        <time>2024-08-03T09:57:58Z</time>
      </trkpt>
      <trkpt lat="47.25635" lon="5.85782">
        <ele>281.6</ele>
        <time>2024-08-03T09:57:59Z</time>
      </trkpt>
      <trkpt lat="47.25634" lon="5.85768">
        <ele>281.8</ele>
        <time>2024-08-03T09:58:00Z</time>
      </trkpt>
      <trkpt lat="47.25631" lon="5.85758">
        <ele>282</ele>
        <time>2024-08-03T09:58:01Z</time>
      </trkpt>
      <trkpt lat="47.2563" lon="5.85747">
        <ele>282</ele>
        <time>2024-08-03T09:58:02Z</time>
      </trkpt>
      <trkpt lat="47.25627" lon="5.8574">
        <ele>282.4</ele>
        <time>2024-08-03T09:58:03Z</time>
      </trkpt>
      <trkpt lat="47.25623" lon="5.85733">
        <ele>282.4</ele>
        <time>2024-08-03T09:58:04Z</time>
      </trkpt>
      <trkpt lat="47.25619" lon="5.85727">
        <ele>282.4</ele>
        <time>2024-08-03T09:58:05Z</time>
      </trkpt>
      <trkpt lat="47.25615" lon="5.8572">
        <ele>282.6</ele>
        <time>2024-08-03T09:58:06Z</time>
      </trkpt>
      <trkpt lat="47.2561" lon="5.85714">
        <ele>282.6</ele>
        <time>2024-08-03T09:58:07Z</time>
      </trkpt>
      <trkpt lat="47.25605" lon="5.85708">
        <ele>282.6</ele>
        <time>2024-08-03T09:58:08Z</time>
      </trkpt>
      <trkpt lat="47.25601" lon="5.85702">
        <ele>282.4</ele>
        <time>2024-08-03T09:58:09Z</time>
      </trkpt>
      <trkpt lat="47.25596" lon="5.85696">
        <ele>282.4</ele>
        <time>2024-08-03T09:58:10Z</time>
      </trkpt>
      <trkpt lat="47.25591" lon="5.8569">
        <ele>282.4</ele>
        <time>2024-08-03T09:58:11Z</time>
      </trkpt>
      <trkpt lat="47.25587" lon="5.85684">
        <ele>282.4</ele>
        <time>2024-08-03T09:58:12Z</time>
      </trkpt>
      <trkpt lat="47.25582" lon="5.85677">
        <ele>282.4</ele>
        <time>2024-08-03T09:58:13Z</time>
      </trkpt>
      <trkpt lat="47.25577" lon="5.8567">
        <ele>282.6</ele>
        <time>2024-08-03T09:58:14Z</time>
      </trkpt>
      <trkpt lat="47.25572" lon="5.85664">
        <ele>282.4</ele>
        <time>2024-08-03T09:58:15Z</time>
      </trkpt>
      <trkpt lat="47.25567" lon="5.85657">
        <ele>282</ele>
        <time>2024-08-03T09:58:16Z</time>
      </trkpt>
      <trkpt lat="47.25563" lon="5.85651">
        <ele>281.8</ele>
        <time>2024-08-03T09:58:17Z</time>
      </trkpt>
      <trkpt lat="47.25558" lon="5.85644">
        <ele>281.8</ele>
        <time>2024-08-03T09:58:18Z</time>
      </trkpt>
      <trkpt lat="47.25554" lon="5.85638">
        <ele>281.8</ele>
        <time>2024-08-03T09:58:19Z</time>
      </trkpt>
      <trkpt lat="47.25549" lon="5.85631">
        <ele>281.6</ele>
        <time>2024-08-03T09:58:20Z</time>
      </trkpt>
      <trkpt lat="47.25544" lon="5.85625">
        <ele>281.6</ele>
        <time>2024-08-03T09:58:21Z</time>
      </trkpt>
      <trkpt lat="47.2554" lon="5.85618">
        <ele>281.6</ele>
        <time>2024-08-03T09:58:22Z</time>
      </trkpt>
      <trkpt lat="47.25535" lon="5.85612">
        <ele>281.4</ele>
        <time>2024-08-03T09:58:23Z</time>
      </trkpt>
      <trkpt lat="47.2553" lon="5.85605">
        <ele>281.2</ele>
        <time>2024-08-03T09:58:24Z</time>
      </trkpt>
      <trkpt lat="47.25526" lon="5.85599">
        <ele>281</ele>
        <time>2024-08-03T09:58:25Z</time>
      </trkpt>
      <trkpt lat="47.25521" lon="5.85593">
        <ele>280.8</ele>
        <time>2024-08-03T09:58:26Z</time>
      </trkpt>
      <trkpt lat="47.25516" lon="5.85587">
        <ele>281</ele>
        <time>2024-08-03T09:58:27Z</time>
      </trkpt>
      <trkpt lat="47.25512" lon="5.85582">
        <ele>280.8</ele>
        <time>2024-08-03T09:58:28Z</time>
      </trkpt>
      <trkpt lat="47.25507" lon="5.85577">
        <ele>280.6</ele>
        <time>2024-08-03T09:58:29Z</time>
      </trkpt>
      <trkpt lat="47.25503" lon="5.85572">
        <ele>280.4</ele>
        <time>2024-08-03T09:58:30Z</time>
      </trkpt>
      <trkpt lat="47.25498" lon="5.85567">
        <ele>280.4</ele>
        <time>2024-08-03T09:58:31Z</time>
      </trkpt>
      <trkpt lat="47.25493" lon="5.85563">
        <ele>280</ele>
        <time>2024-08-03T09:58:32Z</time>
      </trkpt>
      <trkpt lat="47.25488" lon="5.85559">
        <ele>279.8</ele>
        <time>2024-08-03T09:58:33Z</time>
      </trkpt>
      <trkpt lat="47.25483" lon="5.85555">
        <ele>279.6</ele>
        <time>2024-08-03T09:58:34Z</time>
      </trkpt>
      <trkpt lat="47.25478" lon="5.85551">
        <ele>279.4</ele>
        <time>2024-08-03T09:58:35Z</time>
      </trkpt>
      <trkpt lat="47.25474" lon="5.85546">
        <ele>279.4</ele>
        <time>2024-08-03T09:58:36Z</time>
      </trkpt>
      <trkpt lat="47.25469" lon="5.85542">
        <ele>279.2</ele>
        <time>2024-08-03T09:58:37Z</time>
      </trkpt>
      <trkpt lat="47.25465" lon="5.85537">
        <ele>279.2</ele>
        <time>2024-08-03T09:58:38Z</time>
      </trkpt>
      <trkpt lat="47.25461" lon="5.85533">
        <ele>279.2</ele>
        <time>2024-08-03T09:58:39Z</time>
      </trkpt>
      <trkpt lat="47.25457" lon="5.85529">
        <ele>279.2</ele>
        <time>2024-08-03T09:58:40Z</time>
      </trkpt>
      <trkpt lat="47.25453" lon="5.85524">
        <ele>279.2</ele>
        <time>2024-08-03T09:58:41Z</time>
      </trkpt>
      <trkpt lat="47.2545" lon="5.85519">
        <ele>279.2</ele>
        <time>2024-08-03T09:58:42Z</time>
      </trkpt>
      <trkpt lat="47.25447" lon="5.85514">
        <ele>279.2</ele>
        <time>2024-08-03T09:58:43Z</time>
      </trkpt>
      <trkpt lat="47.25444" lon="5.85509">
        <ele>279.2</ele>
        <time>2024-08-03T09:58:44Z</time>
      </trkpt>
      <trkpt lat="47.25441" lon="5.85505">
        <ele>279.2</ele>
        <time>2024-08-03T09:58:45Z</time>
      </trkpt>
      <trkpt lat="47.25439" lon="5.855">
        <ele>279.2</ele>
        <time>2024-08-03T09:58:46Z</time>
      </trkpt>
      <trkpt lat="47.25436" lon="5.85496">
        <ele>279.2</ele>
        <time>2024-08-03T09:58:47Z</time>
      </trkpt>
      <trkpt lat="47.25434" lon="5.85491">
        <ele>279.2</ele>
        <time>2024-08-03T09:58:48Z</time>
      </trkpt>
      <trkpt lat="47.25431" lon="5.85486">
        <ele>279.4</ele>
        <time>2024-08-03T09:58:49Z</time>
      </trkpt>
      <trkpt lat="47.25428" lon="5.85482">
        <ele>279.8</ele>
        <time>2024-08-03T09:58:50Z</time>
      </trkpt>
      <trkpt lat="47.25425" lon="5.85477">
        <ele>280</ele>
        <time>2024-08-03T09:58:51Z</time>
      </trkpt>
      <trkpt lat="47.25422" lon="5.85472">
        <ele>280.4</ele>
        <time>2024-08-03T09:58:52Z</time>
      </trkpt>
      <trkpt lat="47.25419" lon="5.85467">
        <ele>280.4</ele>
        <time>2024-08-03T09:58:53Z</time>
      </trkpt>
      <trkpt lat="47.25417" lon="5.85462">
        <ele>280.6</ele>
        <time>2024-08-03T09:58:54Z</time>
      </trkpt>
      <trkpt lat="47.25414" lon="5.85457">
        <ele>280.8</ele>
        <time>2024-08-03T09:58:55Z</time>
      </trkpt>
      <trkpt lat="47.25411" lon="5.85452">
        <ele>280.8</ele>
        <time>2024-08-03T09:58:56Z</time>
      </trkpt>
      <trkpt lat="47.25409" lon="5.85447">
        <ele>281</ele>
        <time>2024-08-03T09:58:57Z</time>
      </trkpt>
      <trkpt lat="47.25406" lon="5.85442">
        <ele>281.4</ele>
        <time>2024-08-03T09:58:58Z</time>
      </trkpt>
      <trkpt lat="47.25403" lon="5.85437">
        <ele>281.6</ele>
        <time>2024-08-03T09:58:59Z</time>
      </trkpt>
      <trkpt lat="47.254" lon="5.85432">
        <ele>282</ele>
        <time>2024-08-03T09:59:00Z</time>
      </trkpt>
      <trkpt lat="47.25397" lon="5.85427">
        <ele>282</ele>
        <time>2024-08-03T09:59:01Z</time>
      </trkpt>
      <trkpt lat="47.25395" lon="5.85423">
        <ele>282</ele>
        <time>2024-08-03T09:59:02Z</time>
      </trkpt>
      <trkpt lat="47.25392" lon="5.85419">
        <ele>282.2</ele>
        <time>2024-08-03T09:59:03Z</time>
      </trkpt>
      <trkpt lat="47.25389" lon="5.85414">
        <ele>282</ele>
        <time>2024-08-03T09:59:04Z</time>
      </trkpt>
      <trkpt lat="47.25386" lon="5.85409">
        <ele>282.2</ele>
        <time>2024-08-03T09:59:05Z</time>
      </trkpt>
      <trkpt lat="47.25384" lon="5.85404">
        <ele>282.4</ele>
        <time>2024-08-03T09:59:06Z</time>
      </trkpt>
      <trkpt lat="47.2538" lon="5.85399">
        <ele>282.4</ele>
        <time>2024-08-03T09:59:07Z</time>
      </trkpt>
      <trkpt lat="47.25377" lon="5.85394">
        <ele>282.4</ele>
        <time>2024-08-03T09:59:08Z</time>
      </trkpt>
      <trkpt lat="47.25374" lon="5.8539">
        <ele>282.6</ele>
        <time>2024-08-03T09:59:09Z</time>
      </trkpt>
      <trkpt lat="47.25371" lon="5.85384">
        <ele>282.6</ele>
        <time>2024-08-03T09:59:10Z</time>
      </trkpt>
      <trkpt lat="47.25368" lon="5.85379">
        <ele>282.8</ele>
        <time>2024-08-03T09:59:11Z</time>
      </trkpt>
      <trkpt lat="47.25365" lon="5.85373">
        <ele>283</ele>
        <time>2024-08-03T09:59:12Z</time>
      </trkpt>
      <trkpt lat="47.25361" lon="5.85368">
        <ele>282.8</ele>
        <time>2024-08-03T09:59:13Z</time>
      </trkpt>
      <trkpt lat="47.25357" lon="5.85362">
        <ele>282.8</ele>
        <time>2024-08-03T09:59:14Z</time>
      </trkpt>
      <trkpt lat="47.25353" lon="5.85357">
        <ele>283</ele>
        <time>2024-08-03T09:59:15Z</time>
      </trkpt>
      <trkpt lat="47.25348" lon="5.85351">
        <ele>283</ele>
        <time>2024-08-03T09:59:16Z</time>
      </trkpt>
      <trkpt lat="47.25344" lon="5.85345">
        <ele>282.8</ele>
        <time>2024-08-03T09:59:17Z</time>
      </trkpt>
      <trkpt lat="47.2534" lon="5.8534">
        <ele>282.8</ele>
        <time>2024-08-03T09:59:18Z</time>
      </trkpt>
      <trkpt lat="47.25336" lon="5.85335">
        <ele>283</ele>
        <time>2024-08-03T09:59:19Z</time>
      </trkpt>
      <trkpt lat="47.25332" lon="5.85329">
        <ele>283</ele>
        <time>2024-08-03T09:59:20Z</time>
      </trkpt>
      <trkpt lat="47.25327" lon="5.85323">
        <ele>283</ele>
        <time>2024-08-03T09:59:21Z</time>
      </trkpt>
      <trkpt lat="47.25323" lon="5.85317">
        <ele>282.8</ele>
        <time>2024-08-03T09:59:22Z</time>
      </trkpt>
      <trkpt lat="47.25319" lon="5.85311">
        <ele>282.8</ele>
        <time>2024-08-03T09:59:23Z</time>
      </trkpt>
      <trkpt lat="47.25314" lon="5.85305">
        <ele>282.8</ele>
        <time>2024-08-03T09:59:24Z</time>
      </trkpt>
      <trkpt lat="47.25309" lon="5.85299">
        <ele>282.6</ele>
        <time>2024-08-03T09:59:25Z</time>
      </trkpt>
      <trkpt lat="47.25305" lon="5.85292">
        <ele>282.6</ele>
        <time>2024-08-03T09:59:26Z</time>
      </trkpt>
      <trkpt lat="47.25301" lon="5.85283">
        <ele>282.4</ele>
        <time>2024-08-03T09:59:27Z</time>
      </trkpt>
      <trkpt lat="47.25297" lon="5.85275">
        <ele>282.2</ele>
        <time>2024-08-03T09:59:28Z</time>
      </trkpt>
      <trkpt lat="47.25294" lon="5.85266">
        <ele>282</ele>
        <time>2024-08-03T09:59:29Z</time>
      </trkpt>
      <trkpt lat="47.25292" lon="5.85257">
        <ele>281.8</ele>
        <time>2024-08-03T09:59:30Z</time>
      </trkpt>
      <trkpt lat="47.25291" lon="5.85248">
        <ele>281.4</ele>
        <time>2024-08-03T09:59:31Z</time>
      </trkpt>
      <trkpt lat="47.25292" lon="5.85238">
        <ele>281</ele>
        <time>2024-08-03T09:59:32Z</time>
      </trkpt>
      <trkpt lat="47.25295" lon="5.85231">
        <ele>280.8</ele>
        <time>2024-08-03T09:59:33Z</time>
      </trkpt>
      <trkpt lat="47.25298" lon="5.85228">
        <ele>280.6</ele>
        <time>2024-08-03T09:59:34Z</time>
      </trkpt>
      <trkpt lat="47.25301" lon="5.85225">
        <ele>280.2</ele>
        <time>2024-08-03T09:59:35Z</time>
      </trkpt>
      <trkpt lat="47.25304" lon="5.85224">
        <ele>280.2</ele>
        <time>2024-08-03T09:59:36Z</time>
      </trkpt>
      <trkpt lat="47.25305" lon="5.85222">
        <ele>280</ele>
        <time>2024-08-03T09:59:37Z</time>
      </trkpt>
      <trkpt lat="47.25305" lon="5.85222">
        <ele>280.2</ele>
        <time>2024-08-03T09:59:38Z</time>
      </trkpt>
      <trkpt lat="47.25305" lon="5.85224">
        <ele>280</ele>
        <time>2024-08-03T09:59:39Z</time>
      </trkpt>
      <trkpt lat="47.25305" lon="5.85226">
        <ele>279.8</ele>
        <time>2024-08-03T09:59:40Z</time>
      </trkpt>
      <trkpt lat="47.25304" lon="5.85229">
        <ele>279.6</ele>
        <time>2024-08-03T09:59:41Z</time>
      </trkpt>
      <trkpt lat="47.25303" lon="5.8523">
        <ele>279.6</ele>
        <time>2024-08-03T09:59:42Z</time>
      </trkpt>
      <trkpt lat="47.25302" lon="5.85233">
        <ele>279.4</ele>
        <time>2024-08-03T09:59:43Z</time>
      </trkpt>
      <trkpt lat="47.253" lon="5.85235">
        <ele>279.4</ele>
        <time>2024-08-03T09:59:44Z</time>
      </trkpt>
      <trkpt lat="47.25298" lon="5.85237">
        <ele>279.6</ele>
        <time>2024-08-03T09:59:45Z</time>
      </trkpt>
      <trkpt lat="47.25296" lon="5.85238">
        <ele>279.6</ele>
        <time>2024-08-03T09:59:46Z</time>
      </trkpt>
      <trkpt lat="47.25293" lon="5.85239">
        <ele>279.4</ele>
        <time>2024-08-03T09:59:47Z</time>
      </trkpt>
      <trkpt lat="47.25291" lon="5.85241">
        <ele>279.2</ele>
        <time>2024-08-03T09:59:48Z</time>
      </trkpt>
      <trkpt lat="47.25289" lon="5.85244">
        <ele>279.2</ele>
        <time>2024-08-03T09:59:49Z</time>
      </trkpt>
      <trkpt lat="47.25287" lon="5.85247">
        <ele>279.4</ele>
        <time>2024-08-03T09:59:50Z</time>
      </trkpt>
      <trkpt lat="47.25283" lon="5.85251">
        <ele>279.4</ele>
        <time>2024-08-03T09:59:51Z</time>
      </trkpt>
      <trkpt lat="47.2528" lon="5.85256">
        <ele>279.4</ele>
        <time>2024-08-03T09:59:52Z</time>
      </trkpt>
      <trkpt lat="47.25276" lon="5.85261">
        <ele>279.2</ele>
        <time>2024-08-03T09:59:53Z</time>
      </trkpt>
      <trkpt lat="47.25272" lon="5.85266">
        <ele>279</ele>
        <time>2024-08-03T09:59:54Z</time>
      </trkpt>
      <trkpt lat="47.25268" lon="5.85273">
        <ele>279</ele>
        <time>2024-08-03T09:59:55Z</time>
      </trkpt>
      <trkpt lat="47.25264" lon="5.8528">
        <ele>278.8</ele>
        <time>2024-08-03T09:59:56Z</time>
      </trkpt>
      <trkpt lat="47.25259" lon="5.85286">
        <ele>278.8</ele>
        <time>2024-08-03T09:59:57Z</time>
      </trkpt>
      <trkpt lat="47.25254" lon="5.85294">
        <ele>278.6</ele>
        <time>2024-08-03T09:59:58Z</time>
      </trkpt>
      <trkpt lat="47.25249" lon="5.85303">
        <ele>278.2</ele>
        <time>2024-08-03T09:59:59Z</time>
      </trkpt>
      <trkpt lat="47.25244" lon="5.85311">
        <ele>278.2</ele>
        <time>2024-08-03T10:00:00Z</time>
      </trkpt>
      <trkpt lat="47.2524" lon="5.8532">
        <ele>277.8</ele>
        <time>2024-08-03T10:00:01Z</time>
      </trkpt>
      <trkpt lat="47.25235" lon="5.85328">
        <ele>277.4</ele>
        <time>2024-08-03T10:00:02Z</time>
      </trkpt>
      <trkpt lat="47.25229" lon="5.85336">
        <ele>276.8</ele>
        <time>2024-08-03T10:00:03Z</time>
      </trkpt>
      <trkpt lat="47.25224" lon="5.85345">
        <ele>276.4</ele>
        <time>2024-08-03T10:00:04Z</time>
      </trkpt>
      <trkpt lat="47.25219" lon="5.85353">
        <ele>276.2</ele>
        <time>2024-08-03T10:00:05Z</time>
      </trkpt>
      <trkpt lat="47.25214" lon="5.85362">
        <ele>275.8</ele>
        <time>2024-08-03T10:00:06Z</time>
      </trkpt>
      <trkpt lat="47.25209" lon="5.85371">
        <ele>275.2</ele>
        <time>2024-08-03T10:00:07Z</time>
      </trkpt>
      <trkpt lat="47.25203" lon="5.8538">
        <ele>275.2</ele>
        <time>2024-08-03T10:00:08Z</time>
      </trkpt>
      <trkpt lat="47.25197" lon="5.85388">
        <ele>274.8</ele>
        <time>2024-08-03T10:00:09Z</time>
      </trkpt>
      <trkpt lat="47.2519" lon="5.85396">
        <ele>274.2</ele>
        <time>2024-08-03T10:00:10Z</time>
      </trkpt>
      <trkpt lat="47.25182" lon="5.85405">
        <ele>273.4</ele>
        <time>2024-08-03T10:00:11Z</time>
      </trkpt>
      <trkpt lat="47.25174" lon="5.85414">
        <ele>272.8</ele>
        <time>2024-08-03T10:00:12Z</time>
      </trkpt>
      <trkpt lat="47.25167" lon="5.85422">
        <ele>272</ele>
        <time>2024-08-03T10:00:13Z</time>
      </trkpt>
      <trkpt lat="47.25159" lon="5.85428">
        <ele>271</ele>
        <time>2024-08-03T10:00:14Z</time>
      </trkpt>
      <trkpt lat="47.25151" lon="5.85435">
        <ele>270.2</ele>
        <time>2024-08-03T10:00:15Z</time>
      </trkpt>
      <trkpt lat="47.25144" lon="5.85441">
        <ele>269.6</ele>
        <time>2024-08-03T10:00:16Z</time>
      </trkpt>
      <trkpt lat="47.25137" lon="5.85447">
        <ele>269</ele>
        <time>2024-08-03T10:00:17Z</time>
      </trkpt>
      <trkpt lat="47.25131" lon="5.85451">
        <ele>268.4</ele>
        <time>2024-08-03T10:00:18Z</time>
      </trkpt>
      <trkpt lat="47.25125" lon="5.85454">
        <ele>267.6</ele>
        <time>2024-08-03T10:00:19Z</time>
      </trkpt>
      <trkpt lat="47.2512" lon="5.85457">
        <ele>266.8</ele>
        <time>2024-08-03T10:00:20Z</time>
      </trkpt>
      <trkpt lat="47.25116" lon="5.8546">
        <ele>266.4</ele>
        <time>2024-08-03T10:00:21Z</time>
      </trkpt>
      <trkpt lat="47.25112" lon="5.85463">
        <ele>266</ele>
        <time>2024-08-03T10:00:22Z</time>
      </trkpt>
      <trkpt lat="47.25109" lon="5.85466">
        <ele>266</ele>
        <time>2024-08-03T10:00:23Z</time>
      </trkpt>
      <trkpt lat="47.25106" lon="5.85468">
        <ele>266</ele>
        <time>2024-08-03T10:00:24Z</time>
      </trkpt>
      <trkpt lat="47.25103" lon="5.8547">
        <ele>266</ele>
        <time>2024-08-03T10:00:25Z</time>
      </trkpt>
      <trkpt lat="47.25101" lon="5.85472">
        <ele>266.2</ele>
        <time>2024-08-03T10:00:26Z</time>
      </trkpt>
      <trkpt lat="47.25098" lon="5.85474">
        <ele>266</ele>
        <time>2024-08-03T10:00:27Z</time>
      </trkpt>
      <trkpt lat="47.25096" lon="5.85475">
        <ele>266.2</ele>
        <time>2024-08-03T10:00:28Z</time>
      </trkpt>
      <trkpt lat="47.25093" lon="5.85476">
        <ele>266</ele>
        <time>2024-08-03T10:00:29Z</time>
      </trkpt>
      <trkpt lat="47.25091" lon="5.85478">
        <ele>266</ele>
        <time>2024-08-03T10:00:30Z</time>
      </trkpt>
      <trkpt lat="47.25088" lon="5.8548">
        <ele>266.2</ele>
        <time>2024-08-03T10:00:31Z</time>
      </trkpt>
      <trkpt lat="47.25086" lon="5.85482">
        <ele>266.4</ele>
        <time>2024-08-03T10:00:32Z</time>
      </trkpt>
      <trkpt lat="47.25084" lon="5.85484">
        <ele>266.8</ele>
        <time>2024-08-03T10:00:33Z</time>
      </trkpt>
      <trkpt lat="47.25081" lon="5.85485">
        <ele>267</ele>
        <time>2024-08-03T10:00:34Z</time>
      </trkpt>
      <trkpt lat="47.25079" lon="5.85486">
        <ele>267</ele>
        <time>2024-08-03T10:00:35Z</time>
      </trkpt>
      <trkpt lat="47.25076" lon="5.85487">
        <ele>267.4</ele>
        <time>2024-08-03T10:00:36Z</time>
      </trkpt>
      <trkpt lat="47.25074" lon="5.85488">
        <ele>267.6</ele>
        <time>2024-08-03T10:00:37Z</time>
      </trkpt>
      <trkpt lat="47.25072" lon="5.8549">
        <ele>268</ele>
        <time>2024-08-03T10:00:38Z</time>
      </trkpt>
      <trkpt lat="47.25069" lon="5.8549">
        <ele>268.4</ele>
        <time>2024-08-03T10:00:39Z</time>
      </trkpt>
      <trkpt lat="47.25067" lon="5.85491">
        <ele>268.4</ele>
        <time>2024-08-03T10:00:40Z</time>
      </trkpt>
      <trkpt lat="47.25065" lon="5.85491">
        <ele>269</ele>
        <time>2024-08-03T10:00:41Z</time>
      </trkpt>
      <trkpt lat="47.25062" lon="5.8549">
        <ele>269</ele>
        <time>2024-08-03T10:00:42Z</time>
      </trkpt>
      <trkpt lat="47.2506" lon="5.85489">
        <ele>269.4</ele>
        <time>2024-08-03T10:00:43Z</time>
      </trkpt>
      <trkpt lat="47.25057" lon="5.85488">
        <ele>269.8</ele>
        <time>2024-08-03T10:00:44Z</time>
      </trkpt>
      <trkpt lat="47.25055" lon="5.85487">
        <ele>270.2</ele>
        <time>2024-08-03T10:00:45Z</time>
      </trkpt>
      <trkpt lat="47.25052" lon="5.85487">
        <ele>270.6</ele>
        <time>2024-08-03T10:00:46Z</time>
      </trkpt>
      <trkpt lat="47.25049" lon="5.85486">
        <ele>270.8</ele>
        <time>2024-08-03T10:00:47Z</time>
      </trkpt>
      <trkpt lat="47.25047" lon="5.85486">
        <ele>271</ele>
        <time>2024-08-03T10:00:48Z</time>
      </trkpt>
      <trkpt lat="47.25044" lon="5.85486">
        <ele>271.2</ele>
        <time>2024-08-03T10:00:49Z</time>
      </trkpt>
      <trkpt lat="47.25042" lon="5.85487">
        <ele>271.4</ele>
        <time>2024-08-03T10:00:50Z</time>
      </trkpt>
      <trkpt lat="47.2504" lon="5.85487">
        <ele>271.4</ele>
        <time>2024-08-03T10:00:51Z</time>
      </trkpt>
      <trkpt lat="47.25038" lon="5.85488">
        <ele>271.6</ele>
        <time>2024-08-03T10:00:52Z</time>
      </trkpt>
      <trkpt lat="47.25036" lon="5.85489">
        <ele>271.6</ele>
        <time>2024-08-03T10:00:53Z</time>
      </trkpt>
      <trkpt lat="47.25034" lon="5.85489">
        <ele>271.6</ele>
        <time>2024-08-03T10:00:54Z</time>
      </trkpt>
      <trkpt lat="47.25032" lon="5.8549">
        <ele>271.8</ele>
        <time>2024-08-03T10:00:55Z</time>
      </trkpt>
      <trkpt lat="47.25031" lon="5.85491">
        <ele>272.2</ele>
        <time>2024-08-03T10:00:56Z</time>
      </trkpt>
      <trkpt lat="47.25029" lon="5.85491">
        <ele>272.4</ele>
        <time>2024-08-03T10:00:57Z</time>
      </trkpt>
      <trkpt lat="47.25027" lon="5.85493">
        <ele>272.8</ele>
        <time>2024-08-03T10:00:58Z</time>
      </trkpt>
      <trkpt lat="47.25026" lon="5.85493">
        <ele>272.8</ele>
        <time>2024-08-03T10:00:59Z</time>
      </trkpt>
      <trkpt lat="47.25024" lon="5.85494">
        <ele>273.2</ele>
        <time>2024-08-03T10:01:00Z</time>
      </trkpt>
      <trkpt lat="47.25023" lon="5.85495">
        <ele>273.4</ele>
        <time>2024-08-03T10:01:01Z</time>
      </trkpt>
      <trkpt lat="47.25022" lon="5.85496">
        <ele>273.6</ele>
        <time>2024-08-03T10:01:02Z</time>
      </trkpt>
      <trkpt lat="47.2502" lon="5.85496">
        <ele>274</ele>
        <time>2024-08-03T10:01:03Z</time>
      </trkpt>
      <trkpt lat="47.25019" lon="5.85498">
        <ele>274</ele>
        <time>2024-08-03T10:01:04Z</time>
      </trkpt>
      <trkpt lat="47.25017" lon="5.85499">
        <ele>274.2</ele>
        <time>2024-08-03T10:01:05Z</time>
      </trkpt>
      <trkpt lat="47.25016" lon="5.85501">
        <ele>274.4</ele>
        <time>2024-08-03T10:01:06Z</time>
      </trkpt>
      <trkpt lat="47.25015" lon="5.85503">
        <ele>274.8</ele>
        <time>2024-08-03T10:01:07Z</time>
      </trkpt>
      <trkpt lat="47.25013" lon="5.85504">
        <ele>275</ele>
        <time>2024-08-03T10:01:08Z</time>
      </trkpt>
      <trkpt lat="47.25012" lon="5.85505">
        <ele>275.2</ele>
        <time>2024-08-03T10:01:09Z</time>
      </trkpt>
      <trkpt lat="47.25011" lon="5.85506">
        <ele>275.2</ele>
        <time>2024-08-03T10:01:10Z</time>
      </trkpt>
      <trkpt lat="47.25009" lon="5.85506">
        <ele>275.4</ele>
        <time>2024-08-03T10:01:11Z</time>
      </trkpt>
      <trkpt lat="47.25008" lon="5.85507">
        <ele>275.8</ele>
        <time>2024-08-03T10:01:12Z</time>
      </trkpt>
      <trkpt lat="47.25006" lon="5.85508">
        <ele>276</ele>
        <time>2024-08-03T10:01:13Z</time>
      </trkpt>
      <trkpt lat="47.25005" lon="5.85508">
        <ele>276.2</ele>
        <time>2024-08-03T10:01:14Z</time>
      </trkpt>
      <trkpt lat="47.25004" lon="5.85509">
        <ele>276.2</ele>
        <time>2024-08-03T10:01:15Z</time>
      </trkpt>
      <trkpt lat="47.25002" lon="5.85509">
        <ele>276.4</ele>
        <time>2024-08-03T10:01:16Z</time>
      </trkpt>
      <trkpt lat="47.25" lon="5.85509">
        <ele>276.6</ele>
        <time>2024-08-03T10:01:17Z</time>
      </trkpt>
      <trkpt lat="47.24999" lon="5.85509">
        <ele>277</ele>
        <time>2024-08-03T10:01:18Z</time>
      </trkpt>
      <trkpt lat="47.24997" lon="5.8551">
        <ele>277.2</ele>
        <time>2024-08-03T10:01:19Z</time>
      </trkpt>
      <trkpt lat="47.24996" lon="5.8551">
        <ele>277.4</ele>
        <time>2024-08-03T10:01:20Z</time>
      </trkpt>
      <trkpt lat="47.24995" lon="5.85511">
        <ele>277.6</ele>
        <time>2024-08-03T10:01:21Z</time>
      </trkpt>
      <trkpt lat="47.24993" lon="5.85512">
        <ele>277.8</ele>
        <time>2024-08-03T10:01:22Z</time>
      </trkpt>
      <trkpt lat="47.24992" lon="5.85514">
        <ele>278</ele>
        <time>2024-08-03T10:01:23Z</time>
      </trkpt>
      <trkpt lat="47.24991" lon="5.85515">
        <ele>278.2</ele>
        <time>2024-08-03T10:01:24Z</time>
      </trkpt>
      <trkpt lat="47.2499" lon="5.85516">
        <ele>278.4</ele>
        <time>2024-08-03T10:01:25Z</time>
      </trkpt>
      <trkpt lat="47.24988" lon="5.85517">
        <ele>278.8</ele>
        <time>2024-08-03T10:01:26Z</time>
      </trkpt>
      <trkpt lat="47.24987" lon="5.85518">
        <ele>279.2</ele>
        <time>2024-08-03T10:01:27Z</time>
      </trkpt>
      <trkpt lat="47.24986" lon="5.85519">
        <ele>279.6</ele>
        <time>2024-08-03T10:01:28Z</time>
      </trkpt>
      <trkpt lat="47.24985" lon="5.8552">
        <ele>280</ele>
        <time>2024-08-03T10:01:29Z</time>
      </trkpt>
      <trkpt lat="47.24983" lon="5.85522">
        <ele>280.2</ele>
        <time>2024-08-03T10:01:30Z</time>
      </trkpt>
      <trkpt lat="47.24982" lon="5.85524">
        <ele>280.2</ele>
        <time>2024-08-03T10:01:31Z</time>
      </trkpt>
      <trkpt lat="47.24981" lon="5.85525">
        <ele>280.6</ele>
        <time>2024-08-03T10:01:32Z</time>
      </trkpt>
      <trkpt lat="47.2498" lon="5.85526">
        <ele>280.6</ele>
        <time>2024-08-03T10:01:33Z</time>
      </trkpt>
      <trkpt lat="47.24978" lon="5.85527">
        <ele>280.8</ele>
        <time>2024-08-03T10:01:34Z</time>
      </trkpt>
      <trkpt lat="47.24977" lon="5.85528">
        <ele>281</ele>
        <time>2024-08-03T10:01:35Z</time>
      </trkpt>
      <trkpt lat="47.24976" lon="5.85529">
        <ele>281.2</ele>
        <time>2024-08-03T10:01:36Z</time>
      </trkpt>
      <trkpt lat="47.24974" lon="5.8553">
        <ele>281.2</ele>
        <time>2024-08-03T10:01:37Z</time>
      </trkpt>
      <trkpt lat="47.24973" lon="5.85531">
        <ele>281.2</ele>
        <time>2024-08-03T10:01:38Z</time>
      </trkpt>
      <trkpt lat="47.24972" lon="5.85532">
        <ele>281.4</ele>
        <time>2024-08-03T10:01:39Z</time>
      </trkpt>
      <trkpt lat="47.24971" lon="5.85534">
        <ele>281.6</ele>
        <time>2024-08-03T10:01:40Z</time>
      </trkpt>
      <trkpt lat="47.2497" lon="5.85535">
        <ele>281.6</ele>
        <time>2024-08-03T10:01:41Z</time>
      </trkpt>
      <trkpt lat="47.24969" lon="5.85536">
        <ele>282</ele>
        <time>2024-08-03T10:01:42Z</time>
      </trkpt>
      <trkpt lat="47.24968" lon="5.85537">
        <ele>282</ele>
        <time>2024-08-03T10:01:43Z</time>
      </trkpt>
      <trkpt lat="47.24967" lon="5.85539">
        <ele>282.2</ele>
        <time>2024-08-03T10:01:44Z</time>
      </trkpt>
      <trkpt lat="47.24966" lon="5.8554">
        <ele>282.4</ele>
        <time>2024-08-03T10:01:45Z</time>
      </trkpt>
      <trkpt lat="47.24965" lon="5.85542">
        <ele>282.6</ele>
        <time>2024-08-03T10:01:46Z</time>
      </trkpt>
      <trkpt lat="47.24964" lon="5.85545">
        <ele>282.6</ele>
        <time>2024-08-03T10:01:47Z</time>
      </trkpt>
      <trkpt lat="47.24963" lon="5.85547">
        <ele>283</ele>
        <time>2024-08-03T10:01:48Z</time>
      </trkpt>
      <trkpt lat="47.24961" lon="5.85548">
        <ele>283</ele>
        <time>2024-08-03T10:01:49Z</time>
      </trkpt>
      <trkpt lat="47.2496" lon="5.85549">
        <ele>283.2</ele>
        <time>2024-08-03T10:01:50Z</time>
      </trkpt>
      <trkpt lat="47.24959" lon="5.85551">
        <ele>283.4</ele>
        <time>2024-08-03T10:01:51Z</time>
      </trkpt>
      <trkpt lat="47.24959" lon="5.85553">
        <ele>283.8</ele>
        <time>2024-08-03T10:01:52Z</time>
      </trkpt>
      <trkpt lat="47.24958" lon="5.85555">
        <ele>284</ele>
        <time>2024-08-03T10:01:53Z</time>
      </trkpt>
      <trkpt lat="47.24957" lon="5.85557">
        <ele>284.2</ele>
        <time>2024-08-03T10:01:54Z</time>
      </trkpt>
      <trkpt lat="47.24957" lon="5.85559">
        <ele>284.4</ele>
        <time>2024-08-03T10:01:55Z</time>
      </trkpt>
      <trkpt lat="47.24956" lon="5.85561">
        <ele>284.4</ele>
        <time>2024-08-03T10:01:56Z</time>
      </trkpt>
      <trkpt lat="47.24955" lon="5.85562">
        <ele>284.8</ele>
        <time>2024-08-03T10:01:57Z</time>
      </trkpt>
      <trkpt lat="47.24953" lon="5.85564">
        <ele>285</ele>
        <time>2024-08-03T10:01:58Z</time>
      </trkpt>
      <trkpt lat="47.24952" lon="5.85566">
        <ele>285</ele>
        <time>2024-08-03T10:01:59Z</time>
      </trkpt>
      <trkpt lat="47.24951" lon="5.85568">
        <ele>285.2</ele>
        <time>2024-08-03T10:02:00Z</time>
      </trkpt>
      <trkpt lat="47.2495" lon="5.8557">
        <ele>285.6</ele>
        <time>2024-08-03T10:02:01Z</time>
      </trkpt>
      <trkpt lat="47.24949" lon="5.85572">
        <ele>285.8</ele>
        <time>2024-08-03T10:02:02Z</time>
      </trkpt>
      <trkpt lat="47.24948" lon="5.85574">
        <ele>286</ele>
        <time>2024-08-03T10:02:03Z</time>
      </trkpt>
      <trkpt lat="47.24947" lon="5.85575">
        <ele>286</ele>
        <time>2024-08-03T10:02:04Z</time>
      </trkpt>
      <trkpt lat="47.24946" lon="5.85577">
        <ele>286.4</ele>
        <time>2024-08-03T10:02:05Z</time>
      </trkpt>
      <trkpt lat="47.24945" lon="5.85579">
        <ele>286.6</ele>
        <time>2024-08-03T10:02:06Z</time>
      </trkpt>
      <trkpt lat="47.24944" lon="5.85581">
        <ele>286.8</ele>
        <time>2024-08-03T10:02:07Z</time>
      </trkpt>
      <trkpt lat="47.24944" lon="5.85583">
        <ele>287</ele>
        <time>2024-08-03T10:02:08Z</time>
      </trkpt>
      <trkpt lat="47.24943" lon="5.85585">
        <ele>287.2</ele>
        <time>2024-08-03T10:02:09Z</time>
      </trkpt>
      <trkpt lat="47.24942" lon="5.85587">
        <ele>287.6</ele>
        <time>2024-08-03T10:02:10Z</time>
      </trkpt>
      <trkpt lat="47.24941" lon="5.85589">
        <ele>287.6</ele>
        <time>2024-08-03T10:02:11Z</time>
      </trkpt>
      <trkpt lat="47.2494" lon="5.8559">
        <ele>287.8</ele>
        <time>2024-08-03T10:02:12Z</time>
      </trkpt>
      <trkpt lat="47.2494" lon="5.85592">
        <ele>287.8</ele>
        <time>2024-08-03T10:02:13Z</time>
      </trkpt>
      <trkpt lat="47.24939" lon="5.85594">
        <ele>288</ele>
        <time>2024-08-03T10:02:14Z</time>
      </trkpt>
      <trkpt lat="47.24938" lon="5.85596">
        <ele>288.2</ele>
        <time>2024-08-03T10:02:15Z</time>
      </trkpt>
      <trkpt lat="47.24937" lon="5.85598">
        <ele>288.4</ele>
        <time>2024-08-03T10:02:16Z</time>
      </trkpt>
      <trkpt lat="47.24937" lon="5.856">
        <ele>288.6</ele>
        <time>2024-08-03T10:02:17Z</time>
      </trkpt>
      <trkpt lat="47.24936" lon="5.85601">
        <ele>288.8</ele>
        <time>2024-08-03T10:02:18Z</time>
      </trkpt>
      <trkpt lat="47.24935" lon="5.85602">
        <ele>289.2</ele>
        <time>2024-08-03T10:02:19Z</time>
      </trkpt>
      <trkpt lat="47.24934" lon="5.85604">
        <ele>289.2</ele>
        <time>2024-08-03T10:02:20Z</time>
      </trkpt>
      <trkpt lat="47.24933" lon="5.85605">
        <ele>289.2</ele>
        <time>2024-08-03T10:02:21Z</time>
      </trkpt>
      <trkpt lat="47.24932" lon="5.85606">
        <ele>289.6</ele>
        <time>2024-08-03T10:02:22Z</time>
      </trkpt>
      <trkpt lat="47.2493" lon="5.85607">
        <ele>289.8</ele>
        <time>2024-08-03T10:02:23Z</time>
      </trkpt>
      <trkpt lat="47.24929" lon="5.85608">
        <ele>290</ele>
        <time>2024-08-03T10:02:24Z</time>
      </trkpt>
      <trkpt lat="47.24927" lon="5.85609">
        <ele>290.2</ele>
        <time>2024-08-03T10:02:25Z</time>
      </trkpt>
      <trkpt lat="47.24926" lon="5.8561">
        <ele>290.4</ele>
        <time>2024-08-03T10:02:26Z</time>
      </trkpt>
      <trkpt lat="47.24925" lon="5.85611">
        <ele>290.6</ele>
        <time>2024-08-03T10:02:27Z</time>
      </trkpt>
      <trkpt lat="47.24924" lon="5.85612">
        <ele>290.8</ele>
        <time>2024-08-03T10:02:28Z</time>
      </trkpt>
      <trkpt lat="47.24923" lon="5.85614">
        <ele>290.8</ele>
        <time>2024-08-03T10:02:29Z</time>
      </trkpt>
      <trkpt lat="47.24922" lon="5.85616">
        <ele>291</ele>
        <time>2024-08-03T10:02:30Z</time>
      </trkpt>
      <trkpt lat="47.24921" lon="5.85618">
        <ele>291.2</ele>
        <time>2024-08-03T10:02:31Z</time>
      </trkpt>
      <trkpt lat="47.2492" lon="5.8562">
        <ele>291.4</ele>
        <time>2024-08-03T10:02:32Z</time>
      </trkpt>
      <trkpt lat="47.24919" lon="5.85622">
        <ele>291.6</ele>
        <time>2024-08-03T10:02:33Z</time>
      </trkpt>
      <trkpt lat="47.24918" lon="5.85624">
        <ele>291.8</ele>
        <time>2024-08-03T10:02:34Z</time>
      </trkpt>
      <trkpt lat="47.24917" lon="5.85626">
        <ele>291.8</ele>
        <time>2024-08-03T10:02:35Z</time>
      </trkpt>
      <trkpt lat="47.24917" lon="5.85628">
        <ele>292</ele>
        <time>2024-08-03T10:02:36Z</time>
      </trkpt>
      <trkpt lat="47.24916" lon="5.85631">
        <ele>292.2</ele>
        <time>2024-08-03T10:02:37Z</time>
      </trkpt>
      <trkpt lat="47.24916" lon="5.85633">
        <ele>292.4</ele>
        <time>2024-08-03T10:02:38Z</time>
      </trkpt>
      <trkpt lat="47.24915" lon="5.85636">
        <ele>292.4</ele>
        <time>2024-08-03T10:02:39Z</time>
      </trkpt>
      <trkpt lat="47.24914" lon="5.85638">
        <ele>292.8</ele>
        <time>2024-08-03T10:02:40Z</time>
      </trkpt>
      <trkpt lat="47.24914" lon="5.8564">
        <ele>292.8</ele>
        <time>2024-08-03T10:02:41Z</time>
      </trkpt>
      <trkpt lat="47.24913" lon="5.85642">
        <ele>293.2</ele>
        <time>2024-08-03T10:02:42Z</time>
      </trkpt>
      <trkpt lat="47.24913" lon="5.85644">
        <ele>293.2</ele>
        <time>2024-08-03T10:02:43Z</time>
      </trkpt>
      <trkpt lat="47.24912" lon="5.85646">
        <ele>293.4</ele>
        <time>2024-08-03T10:02:44Z</time>
      </trkpt>
      <trkpt lat="47.24911" lon="5.85649">
        <ele>293.6</ele>
        <time>2024-08-03T10:02:45Z</time>
      </trkpt>
      <trkpt lat="47.24911" lon="5.85651">
        <ele>293.8</ele>
        <time>2024-08-03T10:02:46Z</time>
      </trkpt>
      <trkpt lat="47.24911" lon="5.85654">
        <ele>294</ele>
        <time>2024-08-03T10:02:47Z</time>
      </trkpt>
      <trkpt lat="47.24911" lon="5.85657">
        <ele>294.2</ele>
        <time>2024-08-03T10:02:48Z</time>
      </trkpt>
      <trkpt lat="47.24911" lon="5.85659">
        <ele>294.4</ele>
        <time>2024-08-03T10:02:49Z</time>
      </trkpt>
      <trkpt lat="47.2491" lon="5.85662">
        <ele>294.8</ele>
        <time>2024-08-03T10:02:50Z</time>
      </trkpt>
      <trkpt lat="47.24909" lon="5.85665">
        <ele>294.8</ele>
        <time>2024-08-03T10:02:51Z</time>
      </trkpt>
      <trkpt lat="47.24909" lon="5.85668">
        <ele>295</ele>
        <time>2024-08-03T10:02:52Z</time>
      </trkpt>
      <trkpt lat="47.24908" lon="5.85671">
        <ele>295</ele>
        <time>2024-08-03T10:02:53Z</time>
      </trkpt>
      <trkpt lat="47.24908" lon="5.85674">
        <ele>295.4</ele>
        <time>2024-08-03T10:02:54Z</time>
      </trkpt>
      <trkpt lat="47.24907" lon="5.85678">
        <ele>295.6</ele>
        <time>2024-08-03T10:02:55Z</time>
      </trkpt>
      <trkpt lat="47.24907" lon="5.85681">
        <ele>295.8</ele>
        <time>2024-08-03T10:02:56Z</time>
      </trkpt>
      <trkpt lat="47.24906" lon="5.85685">
        <ele>296</ele>
        <time>2024-08-03T10:02:57Z</time>
      </trkpt>
      <trkpt lat="47.24905" lon="5.85689">
        <ele>295.8</ele>
        <time>2024-08-03T10:02:58Z</time>
      </trkpt>
      <trkpt lat="47.24905" lon="5.85693">
        <ele>296.2</ele>
        <time>2024-08-03T10:02:59Z</time>
      </trkpt>
      <trkpt lat="47.24905" lon="5.85697">
        <ele>296.2</ele>
        <time>2024-08-03T10:03:00Z</time>
      </trkpt>
      <trkpt lat="47.24905" lon="5.857">
        <ele>296.4</ele>
        <time>2024-08-03T10:03:01Z</time>
      </trkpt>
      <trkpt lat="47.24904" lon="5.85704">
        <ele>296.4</ele>
        <time>2024-08-03T10:03:02Z</time>
      </trkpt>
      <trkpt lat="47.24904" lon="5.85707">
        <ele>296.8</ele>
        <time>2024-08-03T10:03:03Z</time>
      </trkpt>
      <trkpt lat="47.24904" lon="5.8571">
        <ele>296.8</ele>
        <time>2024-08-03T10:03:04Z</time>
      </trkpt>
      <trkpt lat="47.24903" lon="5.85713">
        <ele>296.8</ele>
        <time>2024-08-03T10:03:05Z</time>
      </trkpt>
      <trkpt lat="47.24902" lon="5.85716">
        <ele>297</ele>
        <time>2024-08-03T10:03:06Z</time>
      </trkpt>
      <trkpt lat="47.24901" lon="5.8572">
        <ele>297</ele>
        <time>2024-08-03T10:03:07Z</time>
      </trkpt>
      <trkpt lat="47.24901" lon="5.85723">
        <ele>297</ele>
        <time>2024-08-03T10:03:08Z</time>
      </trkpt>
      <trkpt lat="47.249" lon="5.85726">
        <ele>297</ele>
        <time>2024-08-03T10:03:09Z</time>
      </trkpt>
      <trkpt lat="47.249" lon="5.8573">
        <ele>297.2</ele>
        <time>2024-08-03T10:03:10Z</time>
      </trkpt>
      <trkpt lat="47.24899" lon="5.85734">
        <ele>297.2</ele>
        <time>2024-08-03T10:03:11Z</time>
      </trkpt>
      <trkpt lat="47.24899" lon="5.85738">
        <ele>297.2</ele>
        <time>2024-08-03T10:03:12Z</time>
      </trkpt>
      <trkpt lat="47.24898" lon="5.85742">
        <ele>297.2</ele>
        <time>2024-08-03T10:03:13Z</time>
      </trkpt>
      <trkpt lat="47.24897" lon="5.85746">
        <ele>297.4</ele>
        <time>2024-08-03T10:03:14Z</time>
      </trkpt>
      <trkpt lat="47.24897" lon="5.8575">
        <ele>297.4</ele>
        <time>2024-08-03T10:03:15Z</time>
      </trkpt>
      <trkpt lat="47.24896" lon="5.85754">
        <ele>297.4</ele>
        <time>2024-08-03T10:03:16Z</time>
      </trkpt>
      <trkpt lat="47.24895" lon="5.85758">
        <ele>297.4</ele>
        <time>2024-08-03T10:03:17Z</time>
      </trkpt>
      <trkpt lat="47.24894" lon="5.85761">
        <ele>297.6</ele>
        <time>2024-08-03T10:03:18Z</time>
      </trkpt>
      <trkpt lat="47.24894" lon="5.85765">
        <ele>297.6</ele>
        <time>2024-08-03T10:03:19Z</time>
      </trkpt>
      <trkpt lat="47.24893" lon="5.85768">
        <ele>297.6</ele>
        <time>2024-08-03T10:03:20Z</time>
      </trkpt>
      <trkpt lat="47.24893" lon="5.85772">
        <ele>297.6</ele>
        <time>2024-08-03T10:03:21Z</time>
      </trkpt>
      <trkpt lat="47.24892" lon="5.85776">
        <ele>297.8</ele>
        <time>2024-08-03T10:03:22Z</time>
      </trkpt>
      <trkpt lat="47.24892" lon="5.8578">
        <ele>297.8</ele>
        <time>2024-08-03T10:03:23Z</time>
      </trkpt>
      <trkpt lat="47.24891" lon="5.85784">
        <ele>297.8</ele>
        <time>2024-08-03T10:03:24Z</time>
      </trkpt>
      <trkpt lat="47.2489" lon="5.85788">
        <ele>297.8</ele>
        <time>2024-08-03T10:03:25Z</time>
      </trkpt>
      <trkpt lat="47.2489" lon="5.85792">
        <ele>297.8</ele>
        <time>2024-08-03T10:03:26Z</time>
      </trkpt>
      <trkpt lat="47.24889" lon="5.85797">
        <ele>297.8</ele>
        <time>2024-08-03T10:03:27Z</time>
      </trkpt>
      <trkpt lat="47.24889" lon="5.85801">
        <ele>297.8</ele>
        <time>2024-08-03T10:03:28Z</time>
      </trkpt>
      <trkpt lat="47.24888" lon="5.85805">
        <ele>298</ele>
        <time>2024-08-03T10:03:29Z</time>
      </trkpt>
      <trkpt lat="47.24888" lon="5.85809">
        <ele>298</ele>
        <time>2024-08-03T10:03:30Z</time>
      </trkpt>
      <trkpt lat="47.24887" lon="5.85814">
        <ele>298</ele>
        <time>2024-08-03T10:03:31Z</time>
      </trkpt>
      <trkpt lat="47.24887" lon="5.85818">
        <ele>298.2</ele>
        <time>2024-08-03T10:03:32Z</time>
      </trkpt>
      <trkpt lat="47.24886" lon="5.85822">
        <ele>298.2</ele>
        <time>2024-08-03T10:03:33Z</time>
      </trkpt>
      <trkpt lat="47.24886" lon="5.85826">
        <ele>298.4</ele>
        <time>2024-08-03T10:03:34Z</time>
      </trkpt>
      <trkpt lat="47.24886" lon="5.8583">
        <ele>298.2</ele>
        <time>2024-08-03T10:03:35Z</time>
      </trkpt>
      <trkpt lat="47.24886" lon="5.85833">
        <ele>298.4</ele>
        <time>2024-08-03T10:03:36Z</time>
      </trkpt>
      <trkpt lat="47.24886" lon="5.85837">
        <ele>298.4</ele>
        <time>2024-08-03T10:03:37Z</time>
      </trkpt>
      <trkpt lat="47.24885" lon="5.85841">
        <ele>298.6</ele>
        <time>2024-08-03T10:03:38Z</time>
      </trkpt>
      <trkpt lat="47.24885" lon="5.85844">
        <ele>298.6</ele>
        <time>2024-08-03T10:03:39Z</time>
      </trkpt>
      <trkpt lat="47.24885" lon="5.85848">
        <ele>298.6</ele>
        <time>2024-08-03T10:03:40Z</time>
      </trkpt>
      <trkpt lat="47.24884" lon="5.85852">
        <ele>298.8</ele>
        <time>2024-08-03T10:03:41Z</time>
      </trkpt>
      <trkpt lat="47.24884" lon="5.85856">
        <ele>299</ele>
        <time>2024-08-03T10:03:42Z</time>
      </trkpt>
      <trkpt lat="47.24883" lon="5.85859">
        <ele>299</ele>
        <time>2024-08-03T10:03:43Z</time>
      </trkpt>
      <trkpt lat="47.24882" lon="5.85863">
        <ele>299</ele>
        <time>2024-08-03T10:03:44Z</time>
      </trkpt>
      <trkpt lat="47.24881" lon="5.85867">
        <ele>299</ele>
        <time>2024-08-03T10:03:45Z</time>
      </trkpt>
      <trkpt lat="47.24881" lon="5.8587">
        <ele>299.2</ele>
        <time>2024-08-03T10:03:46Z</time>
      </trkpt>
      <trkpt lat="47.2488" lon="5.85873">
        <ele>299</ele>
        <time>2024-08-03T10:03:47Z</time>
      </trkpt>
      <trkpt lat="47.24879" lon="5.85877">
        <ele>299.4</ele>
        <time>2024-08-03T10:03:48Z</time>
      </trkpt>
      <trkpt lat="47.24877" lon="5.8588">
        <ele>299.4</ele>
        <time>2024-08-03T10:03:49Z</time>
      </trkpt>
      <trkpt lat="47.24876" lon="5.85883">
        <ele>299.2</ele>
        <time>2024-08-03T10:03:50Z</time>
      </trkpt>
      <trkpt lat="47.24875" lon="5.85887">
        <ele>299.2</ele>
        <time>2024-08-03T10:03:51Z</time>
      </trkpt>
      <trkpt lat="47.24874" lon="5.8589">
        <ele>299.4</ele>
        <time>2024-08-03T10:03:52Z</time>
      </trkpt>
      <trkpt lat="47.24872" lon="5.85895">
        <ele>299.4</ele>
        <time>2024-08-03T10:03:53Z</time>
      </trkpt>
      <trkpt lat="47.24871" lon="5.85899">
        <ele>299.6</ele>
        <time>2024-08-03T10:03:54Z</time>
      </trkpt>
      <trkpt lat="47.2487" lon="5.85904">
        <ele>299.6</ele>
        <time>2024-08-03T10:03:55Z</time>
      </trkpt>
      <trkpt lat="47.24868" lon="5.85908">
        <ele>299.6</ele>
        <time>2024-08-03T10:03:56Z</time>
      </trkpt>
      <trkpt lat="47.24867" lon="5.85912">
        <ele>299.6</ele>
        <time>2024-08-03T10:03:57Z</time>
      </trkpt>
      <trkpt lat="47.24866" lon="5.85916">
        <ele>299.8</ele>
        <time>2024-08-03T10:03:58Z</time>
      </trkpt>
      <trkpt lat="47.24865" lon="5.8592">
        <ele>299.6</ele>
        <time>2024-08-03T10:03:59Z</time>
      </trkpt>
      <trkpt lat="47.24863" lon="5.85923">
        <ele>299.6</ele>
        <time>2024-08-03T10:04:00Z</time>
      </trkpt>
      <trkpt lat="47.24862" lon="5.85926">
        <ele>299.6</ele>
        <time>2024-08-03T10:04:01Z</time>
      </trkpt>
      <trkpt lat="47.2486" lon="5.85929">
        <ele>299.6</ele>
        <time>2024-08-03T10:04:02Z</time>
      </trkpt>
      <trkpt lat="47.24858" lon="5.85932">
        <ele>299.6</ele>
        <time>2024-08-03T10:04:03Z</time>
      </trkpt>
      <trkpt lat="47.24856" lon="5.85935">
        <ele>299.8</ele>
        <time>2024-08-03T10:04:04Z</time>
      </trkpt>
      <trkpt lat="47.24853" lon="5.85938">
        <ele>299.8</ele>
        <time>2024-08-03T10:04:05Z</time>
      </trkpt>
      <trkpt lat="47.2485" lon="5.8594">
        <ele>299.6</ele>
        <time>2024-08-03T10:04:06Z</time>
      </trkpt>
      <trkpt lat="47.24847" lon="5.85942">
        <ele>299.6</ele>
        <time>2024-08-03T10:04:07Z</time>
      </trkpt>
      <trkpt lat="47.24844" lon="5.85945">
        <ele>299.6</ele>
        <time>2024-08-03T10:04:08Z</time>
      </trkpt>
      <trkpt lat="47.24841" lon="5.85948">
        <ele>299.6</ele>
        <time>2024-08-03T10:04:09Z</time>
      </trkpt>
      <trkpt lat="47.24837" lon="5.85951">
        <ele>299.4</ele>
        <time>2024-08-03T10:04:10Z</time>
      </trkpt>
      <trkpt lat="47.24834" lon="5.85955">
        <ele>299.4</ele>
        <time>2024-08-03T10:04:11Z</time>
      </trkpt>
      <trkpt lat="47.24831" lon="5.85958">
        <ele>299.6</ele>
        <time>2024-08-03T10:04:12Z</time>
      </trkpt>
      <trkpt lat="47.24828" lon="5.85962">
        <ele>299.4</ele>
        <time>2024-08-03T10:04:13Z</time>
      </trkpt>
      <trkpt lat="47.24825" lon="5.85964">
        <ele>299.6</ele>
        <time>2024-08-03T10:04:14Z</time>
      </trkpt>
      <trkpt lat="47.24822" lon="5.85967">
        <ele>299.6</ele>
        <time>2024-08-03T10:04:15Z</time>
      </trkpt>
      <trkpt lat="47.24819" lon="5.8597">
        <ele>299.6</ele>
        <time>2024-08-03T10:04:16Z</time>
      </trkpt>
      <trkpt lat="47.24817" lon="5.85973">
        <ele>299.6</ele>
        <time>2024-08-03T10:04:17Z</time>
      </trkpt>
      <trkpt lat="47.24814" lon="5.85976">
        <ele>299.6</ele>
        <time>2024-08-03T10:04:18Z</time>
      </trkpt>
      <trkpt lat="47.24812" lon="5.85979">
        <ele>299.6</ele>
        <time>2024-08-03T10:04:19Z</time>
      </trkpt>
      <trkpt lat="47.24809" lon="5.85981">
        <ele>299.6</ele>
        <time>2024-08-03T10:04:20Z</time>
      </trkpt>
      <trkpt lat="47.24807" lon="5.85983">
        <ele>299.6</ele>
        <time>2024-08-03T10:04:21Z</time>
      </trkpt>
      <trkpt lat="47.24805" lon="5.85986">
        <ele>299.6</ele>
        <time>2024-08-03T10:04:22Z</time>
      </trkpt>
      <trkpt lat="47.24803" lon="5.85988">
        <ele>299.8</ele>
        <time>2024-08-03T10:04:23Z</time>
      </trkpt>
      <trkpt lat="47.248" lon="5.85991">
        <ele>299.8</ele>
        <time>2024-08-03T10:04:24Z</time>
      </trkpt>
      <trkpt lat="47.24798" lon="5.85994">
        <ele>299.8</ele>
        <time>2024-08-03T10:04:25Z</time>
      </trkpt>
      <trkpt lat="47.24796" lon="5.85997">
        <ele>300</ele>
        <time>2024-08-03T10:04:26Z</time>
      </trkpt>
      <trkpt lat="47.24794" lon="5.86">
        <ele>300</ele>
        <time>2024-08-03T10:04:27Z</time>
      </trkpt>
      <trkpt lat="47.24791" lon="5.86004">
        <ele>300</ele>
        <time>2024-08-03T10:04:28Z</time>
      </trkpt>
      <trkpt lat="47.24789" lon="5.86007">
        <ele>300.4</ele>
        <time>2024-08-03T10:04:29Z</time>
      </trkpt>
      <trkpt lat="47.24787" lon="5.8601">
        <ele>300.6</ele>
        <time>2024-08-03T10:04:30Z</time>
      </trkpt>
      <trkpt lat="47.24784" lon="5.86012">
        <ele>301</ele>
        <time>2024-08-03T10:04:31Z</time>
      </trkpt>
      <trkpt lat="47.24782" lon="5.86015">
        <ele>301.2</ele>
        <time>2024-08-03T10:04:32Z</time>
      </trkpt>
      <trkpt lat="47.2478" lon="5.86018">
        <ele>301.2</ele>
        <time>2024-08-03T10:04:33Z</time>
      </trkpt>
      <trkpt lat="47.24777" lon="5.86022">
        <ele>301</ele>
        <time>2024-08-03T10:04:34Z</time>
      </trkpt>
      <trkpt lat="47.24774" lon="5.86025">
        <ele>301.2</ele>
        <time>2024-08-03T10:04:35Z</time>
      </trkpt>
      <trkpt lat="47.24771" lon="5.8603">
        <ele>301.2</ele>
        <time>2024-08-03T10:04:36Z</time>
      </trkpt>
      <trkpt lat="47.24767" lon="5.86033">
        <ele>301.4</ele>
        <time>2024-08-03T10:04:37Z</time>
      </trkpt>
      <trkpt lat="47.24764" lon="5.86037">
        <ele>301.4</ele>
        <time>2024-08-03T10:04:38Z</time>
      </trkpt>
      <trkpt lat="47.2476" lon="5.8604">
        <ele>301.4</ele>
        <time>2024-08-03T10:04:39Z</time>
      </trkpt>
      <trkpt lat="47.24757" lon="5.86044">
        <ele>301.4</ele>
        <time>2024-08-03T10:04:40Z</time>
      </trkpt>
      <trkpt lat="47.24752" lon="5.86051">
        <ele>301.4</ele>
        <time>2024-08-03T10:04:41Z</time>
      </trkpt>
      <trkpt lat="47.24747" lon="5.86055">
        <ele>301.4</ele>
        <time>2024-08-03T10:04:42Z</time>
      </trkpt>
      <trkpt lat="47.24743" lon="5.8606">
        <ele>301.4</ele>
        <time>2024-08-03T10:04:43Z</time>
      </trkpt>
      <trkpt lat="47.24738" lon="5.86065">
        <ele>301.4</ele>
        <time>2024-08-03T10:04:44Z</time>
      </trkpt>
      <trkpt lat="47.24734" lon="5.8607">
        <ele>301.6</ele>
        <time>2024-08-03T10:04:45Z</time>
      </trkpt>
      <trkpt lat="47.2473" lon="5.86076">
        <ele>301.2</ele>
        <time>2024-08-03T10:04:46Z</time>
      </trkpt>
      <trkpt lat="47.24725" lon="5.86081">
        <ele>301.2</ele>
        <time>2024-08-03T10:04:47Z</time>
      </trkpt>
      <trkpt lat="47.2472" lon="5.86086">
        <ele>301</ele>
        <time>2024-08-03T10:04:48Z</time>
      </trkpt>
      <trkpt lat="47.24714" lon="5.8609">
        <ele>300.8</ele>
        <time>2024-08-03T10:04:49Z</time>
      </trkpt>
      <trkpt lat="47.24709" lon="5.86096">
        <ele>300.8</ele>
        <time>2024-08-03T10:04:50Z</time>
      </trkpt>
      <trkpt lat="47.24703" lon="5.86103">
        <ele>300.4</ele>
        <time>2024-08-03T10:04:51Z</time>
      </trkpt>
      <trkpt lat="47.24697" lon="5.86109">
        <ele>300</ele>
        <time>2024-08-03T10:04:52Z</time>
      </trkpt>
      <trkpt lat="47.2469" lon="5.86115">
        <ele>299.6</ele>
        <time>2024-08-03T10:04:53Z</time>
      </trkpt>
      <trkpt lat="47.24684" lon="5.86121">
        <ele>299.4</ele>
        <time>2024-08-03T10:04:54Z</time>
      </trkpt>
      <trkpt lat="47.24677" lon="5.86127">
        <ele>299.4</ele>
        <time>2024-08-03T10:04:55Z</time>
      </trkpt>
      <trkpt lat="47.24669" lon="5.86133">
        <ele>298.8</ele>
        <time>2024-08-03T10:04:56Z</time>
      </trkpt>
      <trkpt lat="47.24661" lon="5.8614">
        <ele>298.4</ele>
        <time>2024-08-03T10:04:57Z</time>
      </trkpt>
      <trkpt lat="47.24653" lon="5.86148">
        <ele>298</ele>
        <time>2024-08-03T10:04:58Z</time>
      </trkpt>
      <trkpt lat="47.24646" lon="5.86157">
        <ele>297.4</ele>
        <time>2024-08-03T10:04:59Z</time>
      </trkpt>
      <trkpt lat="47.24638" lon="5.86168">
        <ele>296.8</ele>
        <time>2024-08-03T10:05:00Z</time>
      </trkpt>
      <trkpt lat="47.2463" lon="5.8618">
        <ele>296.4</ele>
        <time>2024-08-03T10:05:01Z</time>
      </trkpt>
      <trkpt lat="47.24624" lon="5.86193">
        <ele>296</ele>
        <time>2024-08-03T10:05:02Z</time>
      </trkpt>
      <trkpt lat="47.24617" lon="5.86206">
        <ele>295.4</ele>
        <time>2024-08-03T10:05:03Z</time>
      </trkpt>
      <trkpt lat="47.24608" lon="5.8622">
        <ele>294.8</ele>
        <time>2024-08-03T10:05:04Z</time>
      </trkpt>
      <trkpt lat="47.24601" lon="5.86234">
        <ele>294.4</ele>
        <time>2024-08-03T10:05:05Z</time>
      </trkpt>
      <trkpt lat="47.24593" lon="5.86249">
        <ele>293.4</ele>
        <time>2024-08-03T10:05:06Z</time>
      </trkpt>
      <trkpt lat="47.24585" lon="5.86265">
        <ele>292.8</ele>
        <time>2024-08-03T10:05:07Z</time>
      </trkpt>
      <trkpt lat="47.24576" lon="5.8628">
        <ele>292.2</ele>
        <time>2024-08-03T10:05:08Z</time>
      </trkpt>
      <trkpt lat="47.24567" lon="5.86295">
        <ele>291.6</ele>
        <time>2024-08-03T10:05:09Z</time>
      </trkpt>
      <trkpt lat="47.24559" lon="5.86309">
        <ele>291</ele>
        <time>2024-08-03T10:05:10Z</time>
      </trkpt>
      <trkpt lat="47.24551" lon="5.86324">
        <ele>290</ele>
        <time>2024-08-03T10:05:11Z</time>
      </trkpt>
      <trkpt lat="47.24544" lon="5.86337">
        <ele>289</ele>
        <time>2024-08-03T10:05:12Z</time>
      </trkpt>
      <trkpt lat="47.24536" lon="5.8635">
        <ele>288</ele>
        <time>2024-08-03T10:05:13Z</time>
      </trkpt>
      <trkpt lat="47.24529" lon="5.86363">
        <ele>287.4</ele>
        <time>2024-08-03T10:05:14Z</time>
      </trkpt>
      <trkpt lat="47.24522" lon="5.86375">
        <ele>286.8</ele>
        <time>2024-08-03T10:05:15Z</time>
      </trkpt>
      <trkpt lat="47.24517" lon="5.86386">
        <ele>285.8</ele>
        <time>2024-08-03T10:05:16Z</time>
      </trkpt>
      <trkpt lat="47.2451" lon="5.86396">
        <ele>285.8</ele>
        <time>2024-08-03T10:05:17Z</time>
      </trkpt>
      <trkpt lat="47.24503" lon="5.86404">
        <ele>284.4</ele>
        <time>2024-08-03T10:05:18Z</time>
      </trkpt>
      <trkpt lat="47.24496" lon="5.86409">
        <ele>283.2</ele>
        <time>2024-08-03T10:05:19Z</time>
      </trkpt>
      <trkpt lat="47.24489" lon="5.86414">
        <ele>282.2</ele>
        <time>2024-08-03T10:05:20Z</time>
      </trkpt>
      <trkpt lat="47.24482" lon="5.86414">
        <ele>280.8</ele>
        <time>2024-08-03T10:05:21Z</time>
      </trkpt>
      <trkpt lat="47.24474" lon="5.86413">
        <ele>279.4</ele>
        <time>2024-08-03T10:05:22Z</time>
      </trkpt>
      <trkpt lat="47.24467" lon="5.8641">
        <ele>278.4</ele>
        <time>2024-08-03T10:05:23Z</time>
      </trkpt>
      <trkpt lat="47.2446" lon="5.86404">
        <ele>276.8</ele>
        <time>2024-08-03T10:05:24Z</time>
      </trkpt>
      <trkpt lat="47.24453" lon="5.86398">
        <ele>275.6</ele>
        <time>2024-08-03T10:05:25Z</time>
      </trkpt>
      <trkpt lat="47.24446" lon="5.86391">
        <ele>274.6</ele>
        <time>2024-08-03T10:05:26Z</time>
      </trkpt>
      <trkpt lat="47.24438" lon="5.86385">
        <ele>273.6</ele>
        <time>2024-08-03T10:05:27Z</time>
      </trkpt>
      <trkpt lat="47.24431" lon="5.86382">
        <ele>272.6</ele>
        <time>2024-08-03T10:05:28Z</time>
      </trkpt>
      <trkpt lat="47.24424" lon="5.86381">
        <ele>271.8</ele>
        <time>2024-08-03T10:05:29Z</time>
      </trkpt>
      <trkpt lat="47.24417" lon="5.86383">
        <ele>270.8</ele>
        <time>2024-08-03T10:05:30Z</time>
      </trkpt>
      <trkpt lat="47.24411" lon="5.86387">
        <ele>269.8</ele>
        <time>2024-08-03T10:05:31Z</time>
      </trkpt>
      <trkpt lat="47.24405" lon="5.86393">
        <ele>269</ele>
        <time>2024-08-03T10:05:32Z</time>
      </trkpt>
      <trkpt lat="47.24398" lon="5.864">
        <ele>268.2</ele>
        <time>2024-08-03T10:05:33Z</time>
      </trkpt>
      <trkpt lat="47.24392" lon="5.86408">
        <ele>267.4</ele>
        <time>2024-08-03T10:05:34Z</time>
      </trkpt>
      <trkpt lat="47.24386" lon="5.86418">
        <ele>266.6</ele>
        <time>2024-08-03T10:05:35Z</time>
      </trkpt>
      <trkpt lat="47.2438" lon="5.86427">
        <ele>265.8</ele>
        <time>2024-08-03T10:05:36Z</time>
      </trkpt>
      <trkpt lat="47.24373" lon="5.86437">
        <ele>265.4</ele>
        <time>2024-08-03T10:05:37Z</time>
      </trkpt>
      <trkpt lat="47.24367" lon="5.86448">
        <ele>265</ele>
        <time>2024-08-03T10:05:38Z</time>
      </trkpt>
      <trkpt lat="47.2436" lon="5.86459">
        <ele>265</ele>
        <time>2024-08-03T10:05:39Z</time>
      </trkpt>
      <trkpt lat="47.24353" lon="5.86469">
        <ele>264.8</ele>
        <time>2024-08-03T10:05:40Z</time>
      </trkpt>
      <trkpt lat="47.24346" lon="5.86479">
        <ele>264.2</ele>
        <time>2024-08-03T10:05:41Z</time>
      </trkpt>
      <trkpt lat="47.24339" lon="5.86488">
        <ele>263.6</ele>
        <time>2024-08-03T10:05:42Z</time>
      </trkpt>
      <trkpt lat="47.24332" lon="5.86498">
        <ele>263</ele>
        <time>2024-08-03T10:05:43Z</time>
      </trkpt>
      <trkpt lat="47.24326" lon="5.86507">
        <ele>261.8</ele>
        <time>2024-08-03T10:05:44Z</time>
      </trkpt>
      <trkpt lat="47.24319" lon="5.86516">
        <ele>261.2</ele>
        <time>2024-08-03T10:05:45Z</time>
      </trkpt>
      <trkpt lat="47.24313" lon="5.86526">
        <ele>260.4</ele>
        <time>2024-08-03T10:05:46Z</time>
      </trkpt>
      <trkpt lat="47.24306" lon="5.86534">
        <ele>259.8</ele>
        <time>2024-08-03T10:05:47Z</time>
      </trkpt>
      <trkpt lat="47.243" lon="5.86543">
        <ele>259.2</ele>
        <time>2024-08-03T10:05:48Z</time>
      </trkpt>
      <trkpt lat="47.24294" lon="5.86551">
        <ele>258.8</ele>
        <time>2024-08-03T10:05:49Z</time>
      </trkpt>
      <trkpt lat="47.24288" lon="5.86559">
        <ele>258.2</ele>
        <time>2024-08-03T10:05:50Z</time>
      </trkpt>
      <trkpt lat="47.24281" lon="5.86566">
        <ele>257.8</ele>
        <time>2024-08-03T10:05:51Z</time>
      </trkpt>
      <trkpt lat="47.24275" lon="5.86573">
        <ele>257.6</ele>
        <time>2024-08-03T10:05:52Z</time>
      </trkpt>
      <trkpt lat="47.24269" lon="5.86579">
        <ele>257.2</ele>
        <time>2024-08-03T10:05:53Z</time>
      </trkpt>
      <trkpt lat="47.24262" lon="5.86584">
        <ele>257</ele>
        <time>2024-08-03T10:05:54Z</time>
      </trkpt>
      <trkpt lat="47.24257" lon="5.86588">
        <ele>256.8</ele>
        <time>2024-08-03T10:05:55Z</time>
      </trkpt>
      <trkpt lat="47.24251" lon="5.86593">
        <ele>256.6</ele>
        <time>2024-08-03T10:05:56Z</time>
      </trkpt>
      <trkpt lat="47.24246" lon="5.86597">
        <ele>256.6</ele>
        <time>2024-08-03T10:05:57Z</time>
      </trkpt>
      <trkpt lat="47.24242" lon="5.866">
        <ele>256.6</ele>
        <time>2024-08-03T10:05:58Z</time>
      </trkpt>
      <trkpt lat="47.24238" lon="5.86604">
        <ele>256.6</ele>
        <time>2024-08-03T10:05:59Z</time>
      </trkpt>
      <trkpt lat="47.24234" lon="5.86607">
        <ele>256.6</ele>
        <time>2024-08-03T10:06:00Z</time>
      </trkpt>
      <trkpt lat="47.24231" lon="5.86611">
        <ele>256.6</ele>
        <time>2024-08-03T10:06:01Z</time>
      </trkpt>
      <trkpt lat="47.24228" lon="5.86614">
        <ele>256.6</ele>
        <time>2024-08-03T10:06:02Z</time>
      </trkpt>
      <trkpt lat="47.24225" lon="5.86618">
        <ele>256.8</ele>
        <time>2024-08-03T10:06:03Z</time>
      </trkpt>
      <trkpt lat="47.24222" lon="5.8662">
        <ele>256.6</ele>
        <time>2024-08-03T10:06:04Z</time>
      </trkpt>
      <trkpt lat="47.24219" lon="5.86622">
        <ele>256.6</ele>
        <time>2024-08-03T10:06:05Z</time>
      </trkpt>
      <trkpt lat="47.24216" lon="5.86624">
        <ele>256.8</ele>
        <time>2024-08-03T10:06:06Z</time>
      </trkpt>
      <trkpt lat="47.24212" lon="5.86626">
        <ele>257</ele>
        <time>2024-08-03T10:06:07Z</time>
      </trkpt>
      <trkpt lat="47.24209" lon="5.86628">
        <ele>257</ele>
        <time>2024-08-03T10:06:08Z</time>
      </trkpt>
      <trkpt lat="47.24206" lon="5.8663">
        <ele>257.4</ele>
        <time>2024-08-03T10:06:09Z</time>
      </trkpt>
      <trkpt lat="47.24203" lon="5.86633">
        <ele>257.6</ele>
        <time>2024-08-03T10:06:10Z</time>
      </trkpt>
      <trkpt lat="47.242" lon="5.86636">
        <ele>258</ele>
        <time>2024-08-03T10:06:11Z</time>
      </trkpt>
      <trkpt lat="47.24198" lon="5.86639">
        <ele>258.2</ele>
        <time>2024-08-03T10:06:12Z</time>
      </trkpt>
      <trkpt lat="47.24195" lon="5.86642">
        <ele>258.6</ele>
        <time>2024-08-03T10:06:13Z</time>
      </trkpt>
      <trkpt lat="47.24193" lon="5.86646">
        <ele>259</ele>
        <time>2024-08-03T10:06:14Z</time>
      </trkpt>
      <trkpt lat="47.2419" lon="5.8665">
        <ele>259.2</ele>
        <time>2024-08-03T10:06:15Z</time>
      </trkpt>
      <trkpt lat="47.24188" lon="5.86653">
        <ele>259.6</ele>
        <time>2024-08-03T10:06:16Z</time>
      </trkpt>
      <trkpt lat="47.24187" lon="5.86657">
        <ele>260</ele>
        <time>2024-08-03T10:06:17Z</time>
      </trkpt>
      <trkpt lat="47.24185" lon="5.8666">
        <ele>260.2</ele>
        <time>2024-08-03T10:06:18Z</time>
      </trkpt>
      <trkpt lat="47.24183" lon="5.86664">
        <ele>260.6</ele>
        <time>2024-08-03T10:06:19Z</time>
      </trkpt>
      <trkpt lat="47.24182" lon="5.86667">
        <ele>261</ele>
        <time>2024-08-03T10:06:20Z</time>
      </trkpt>
      <trkpt lat="47.2418" lon="5.86671">
        <ele>261.4</ele>
        <time>2024-08-03T10:06:21Z</time>
      </trkpt>
      <trkpt lat="47.24179" lon="5.86675">
        <ele>261.8</ele>
        <time>2024-08-03T10:06:22Z</time>
      </trkpt>
      <trkpt lat="47.24177" lon="5.86679">
        <ele>261.8</ele>
        <time>2024-08-03T10:06:23Z</time>
      </trkpt>
      <trkpt lat="47.24175" lon="5.86682">
        <ele>262</ele>
        <time>2024-08-03T10:06:24Z</time>
      </trkpt>
      <trkpt lat="47.24174" lon="5.86685">
        <ele>262.4</ele>
        <time>2024-08-03T10:06:25Z</time>
      </trkpt>
      <trkpt lat="47.24172" lon="5.86688">
        <ele>262.8</ele>
        <time>2024-08-03T10:06:26Z</time>
      </trkpt>
      <trkpt lat="47.24171" lon="5.86692">
        <ele>262.8</ele>
        <time>2024-08-03T10:06:27Z</time>
      </trkpt>
      <trkpt lat="47.2417" lon="5.86695">
        <ele>263.4</ele>
        <time>2024-08-03T10:06:28Z</time>
      </trkpt>
      <trkpt lat="47.2417" lon="5.86699">
        <ele>263.6</ele>
        <time>2024-08-03T10:06:29Z</time>
      </trkpt>
      <trkpt lat="47.24169" lon="5.86703">
        <ele>263.8</ele>
        <time>2024-08-03T10:06:30Z</time>
      </trkpt>
      <trkpt lat="47.24168" lon="5.86706">
        <ele>264.2</ele>
        <time>2024-08-03T10:06:31Z</time>
      </trkpt>
      <trkpt lat="47.24167" lon="5.8671">
        <ele>264.6</ele>
        <time>2024-08-03T10:06:32Z</time>
      </trkpt>
      <trkpt lat="47.24165" lon="5.86713">
        <ele>264.8</ele>
        <time>2024-08-03T10:06:33Z</time>
      </trkpt>
      <trkpt lat="47.24164" lon="5.86717">
        <ele>265.2</ele>
        <time>2024-08-03T10:06:34Z</time>
      </trkpt>
      <trkpt lat="47.24164" lon="5.8672">
        <ele>265.4</ele>
        <time>2024-08-03T10:06:35Z</time>
      </trkpt>
      <trkpt lat="47.24163" lon="5.86724">
        <ele>265.8</ele>
        <time>2024-08-03T10:06:36Z</time>
      </trkpt>
      <trkpt lat="47.24162" lon="5.86729">
        <ele>266.2</ele>
        <time>2024-08-03T10:06:37Z</time>
      </trkpt>
      <trkpt lat="47.24161" lon="5.86733">
        <ele>266.4</ele>
        <time>2024-08-03T10:06:38Z</time>
      </trkpt>
      <trkpt lat="47.24159" lon="5.86738">
        <ele>266.8</ele>
        <time>2024-08-03T10:06:39Z</time>
      </trkpt>
      <trkpt lat="47.24158" lon="5.86742">
        <ele>267.2</ele>
        <time>2024-08-03T10:06:40Z</time>
      </trkpt>
      <trkpt lat="47.24157" lon="5.86745">
        <ele>267.4</ele>
        <time>2024-08-03T10:06:41Z</time>
      </trkpt>
      <trkpt lat="47.24155" lon="5.86749">
        <ele>267.6</ele>
        <time>2024-08-03T10:06:42Z</time>
      </trkpt>
      <trkpt lat="47.24154" lon="5.86753">
        <ele>267.8</ele>
        <time>2024-08-03T10:06:43Z</time>
      </trkpt>
      <trkpt lat="47.24154" lon="5.86756">
        <ele>268.2</ele>
        <time>2024-08-03T10:06:44Z</time>
      </trkpt>
      <trkpt lat="47.24154" lon="5.86759">
        <ele>268.2</ele>
        <time>2024-08-03T10:06:45Z</time>
      </trkpt>
      <trkpt lat="47.24154" lon="5.86762">
        <ele>268.6</ele>
        <time>2024-08-03T10:06:46Z</time>
      </trkpt>
      <trkpt lat="47.24153" lon="5.86767">
        <ele>268.8</ele>
        <time>2024-08-03T10:06:47Z</time>
      </trkpt>
      <trkpt lat="47.24153" lon="5.86771">
        <ele>269.4</ele>
        <time>2024-08-03T10:06:48Z</time>
      </trkpt>
      <trkpt lat="47.24152" lon="5.86775">
        <ele>269.6</ele>
        <time>2024-08-03T10:06:49Z</time>
      </trkpt>
      <trkpt lat="47.24151" lon="5.86778">
        <ele>270</ele>
        <time>2024-08-03T10:06:50Z</time>
      </trkpt>
      <trkpt lat="47.2415" lon="5.86783">
        <ele>270.4</ele>
        <time>2024-08-03T10:06:51Z</time>
      </trkpt>
      <trkpt lat="47.2415" lon="5.86787">
        <ele>270.6</ele>
        <time>2024-08-03T10:06:52Z</time>
      </trkpt>
      <trkpt lat="47.2415" lon="5.86791">
        <ele>270.8</ele>
        <time>2024-08-03T10:06:53Z</time>
      </trkpt>
      <trkpt lat="47.24149" lon="5.86795">
        <ele>271.2</ele>
        <time>2024-08-03T10:06:54Z</time>
      </trkpt>
      <trkpt lat="47.24148" lon="5.868">
        <ele>271.4</ele>
        <time>2024-08-03T10:06:55Z</time>
      </trkpt>
      <trkpt lat="47.24148" lon="5.86804">
        <ele>271.8</ele>
        <time>2024-08-03T10:06:56Z</time>
      </trkpt>
      <trkpt lat="47.24148" lon="5.86808">
        <ele>272.2</ele>
        <time>2024-08-03T10:06:57Z</time>
      </trkpt>
      <trkpt lat="47.24148" lon="5.86813">
        <ele>272.6</ele>
        <time>2024-08-03T10:06:58Z</time>
      </trkpt>
      <trkpt lat="47.24148" lon="5.86817">
        <ele>272.8</ele>
        <time>2024-08-03T10:06:59Z</time>
      </trkpt>
      <trkpt lat="47.24148" lon="5.86821">
        <ele>273.2</ele>
        <time>2024-08-03T10:07:00Z</time>
      </trkpt>
      <trkpt lat="47.24147" lon="5.86825">
        <ele>273.4</ele>
        <time>2024-08-03T10:07:01Z</time>
      </trkpt>
      <trkpt lat="47.24147" lon="5.86829">
        <ele>273.8</ele>
        <time>2024-08-03T10:07:02Z</time>
      </trkpt>
      <trkpt lat="47.24146" lon="5.86832">
        <ele>274</ele>
        <time>2024-08-03T10:07:03Z</time>
      </trkpt>
      <trkpt lat="47.24145" lon="5.86836">
        <ele>274.4</ele>
        <time>2024-08-03T10:07:04Z</time>
      </trkpt>
      <trkpt lat="47.24144" lon="5.86841">
        <ele>274.6</ele>
        <time>2024-08-03T10:07:05Z</time>
      </trkpt>
      <trkpt lat="47.24144" lon="5.86846">
        <ele>274.8</ele>
        <time>2024-08-03T10:07:06Z</time>
      </trkpt>
      <trkpt lat="47.24144" lon="5.86849">
        <ele>274.8</ele>
        <time>2024-08-03T10:07:07Z</time>
      </trkpt>
      <trkpt lat="47.24143" lon="5.86852">
        <ele>275</ele>
        <time>2024-08-03T10:07:08Z</time>
      </trkpt>
      <trkpt lat="47.24142" lon="5.86854">
        <ele>275.6</ele>
        <time>2024-08-03T10:07:09Z</time>
      </trkpt>
      <trkpt lat="47.2414" lon="5.86857">
        <ele>275.6</ele>
        <time>2024-08-03T10:07:10Z</time>
      </trkpt>
      <trkpt lat="47.24139" lon="5.8686">
        <ele>275.8</ele>
        <time>2024-08-03T10:07:11Z</time>
      </trkpt>
      <trkpt lat="47.24138" lon="5.86863">
        <ele>276</ele>
        <time>2024-08-03T10:07:12Z</time>
      </trkpt>
      <trkpt lat="47.24137" lon="5.86866">
        <ele>276.2</ele>
        <time>2024-08-03T10:07:13Z</time>
      </trkpt>
      <trkpt lat="47.24136" lon="5.86869">
        <ele>276.4</ele>
        <time>2024-08-03T10:07:14Z</time>
      </trkpt>
      <trkpt lat="47.24139" lon="5.86876">
        <ele>276.8</ele>
        <time>2024-08-03T10:07:15Z</time>
      </trkpt>
      <trkpt lat="47.2414" lon="5.86881">
        <ele>277.2</ele>
        <time>2024-08-03T10:07:16Z</time>
      </trkpt>
      <trkpt lat="47.24138" lon="5.86886">
        <ele>277.4</ele>
        <time>2024-08-03T10:07:17Z</time>
      </trkpt>
      <trkpt lat="47.24137" lon="5.8689">
        <ele>278</ele>
        <time>2024-08-03T10:07:18Z</time>
      </trkpt>
      <trkpt lat="47.24134" lon="5.86893">
        <ele>278.2</ele>
        <time>2024-08-03T10:07:19Z</time>
      </trkpt>
      <trkpt lat="47.24132" lon="5.86896">
        <ele>278.6</ele>
        <time>2024-08-03T10:07:20Z</time>
      </trkpt>
      <trkpt lat="47.24127" lon="5.86901">
        <ele>278.8</ele>
        <time>2024-08-03T10:07:21Z</time>
      </trkpt>
      <trkpt lat="47.24124" lon="5.86906">
        <ele>279.2</ele>
        <time>2024-08-03T10:07:22Z</time>
      </trkpt>
      <trkpt lat="47.2412" lon="5.86911">
        <ele>279.4</ele>
        <time>2024-08-03T10:07:23Z</time>
      </trkpt>
      <trkpt lat="47.24118" lon="5.86914">
        <ele>279.6</ele>
        <time>2024-08-03T10:07:24Z</time>
      </trkpt>
      <trkpt lat="47.24115" lon="5.86917">
        <ele>280</ele>
        <time>2024-08-03T10:07:25Z</time>
      </trkpt>
      <trkpt lat="47.24113" lon="5.86919">
        <ele>280.4</ele>
        <time>2024-08-03T10:07:26Z</time>
      </trkpt>
      <trkpt lat="47.24112" lon="5.86921">
        <ele>280.6</ele>
        <time>2024-08-03T10:07:27Z</time>
      </trkpt>
      <trkpt lat="47.24111" lon="5.86923">
        <ele>280.6</ele>
        <time>2024-08-03T10:07:28Z</time>
      </trkpt>
      <trkpt lat="47.24109" lon="5.86923">
        <ele>280.6</ele>
        <time>2024-08-03T10:07:29Z</time>
      </trkpt>
      <trkpt lat="47.24109" lon="5.86926">
        <ele>280.8</ele>
        <time>2024-08-03T10:07:30Z</time>
      </trkpt>
      <trkpt lat="47.24108" lon="5.86928">
        <ele>280.8</ele>
        <time>2024-08-03T10:07:31Z</time>
      </trkpt>
      <trkpt lat="47.24108" lon="5.8693">
        <ele>280.8</ele>
        <time>2024-08-03T10:07:32Z</time>
      </trkpt>
      <trkpt lat="47.24108" lon="5.86932">
        <ele>280.8</ele>
        <time>2024-08-03T10:07:33Z</time>
      </trkpt>
      <trkpt lat="47.24108" lon="5.86933">
        <ele>281</ele>
        <time>2024-08-03T10:07:34Z</time>
      </trkpt>
      <trkpt lat="47.24108" lon="5.86934">
        <ele>281</ele>
        <time>2024-08-03T10:07:35Z</time>
      </trkpt>
      <trkpt lat="47.24108" lon="5.86936">
        <ele>281</ele>
        <time>2024-08-03T10:07:36Z</time>
      </trkpt>
      <trkpt lat="47.24108" lon="5.86938">
        <ele>281</ele>
        <time>2024-08-03T10:07:37Z</time>
      </trkpt>
      <trkpt lat="47.24109" lon="5.86941">
        <ele>281</ele>
        <time>2024-08-03T10:07:38Z</time>
      </trkpt>
      <trkpt lat="47.2411" lon="5.86945">
        <ele>281</ele>
        <time>2024-08-03T10:07:39Z</time>
      </trkpt>
      <trkpt lat="47.24112" lon="5.86949">
        <ele>281</ele>
        <time>2024-08-03T10:07:40Z</time>
      </trkpt>
      <trkpt lat="47.24113" lon="5.86952">
        <ele>281</ele>
        <time>2024-08-03T10:07:41Z</time>
      </trkpt>
      <trkpt lat="47.24114" lon="5.86955">
        <ele>281</ele>
        <time>2024-08-03T10:07:42Z</time>
      </trkpt>
      <trkpt lat="47.24114" lon="5.86959">
        <ele>281</ele>
        <time>2024-08-03T10:07:43Z</time>
      </trkpt>
      <trkpt lat="47.24114" lon="5.86961">
        <ele>281</ele>
        <time>2024-08-03T10:07:44Z</time>
      </trkpt>
      <trkpt lat="47.24114" lon="5.86964">
        <ele>280.8</ele>
        <time>2024-08-03T10:07:45Z</time>
      </trkpt>
      <trkpt lat="47.24113" lon="5.86966">
        <ele>280.8</ele>
        <time>2024-08-03T10:07:46Z</time>
      </trkpt>
      <trkpt lat="47.24113" lon="5.86968">
        <ele>280.6</ele>
        <time>2024-08-03T10:07:47Z</time>
      </trkpt>
      <trkpt lat="47.24113" lon="5.86971">
        <ele>280.4</ele>
        <time>2024-08-03T10:07:48Z</time>
      </trkpt>
      <trkpt lat="47.24112" lon="5.86974">
        <ele>280</ele>
        <time>2024-08-03T10:07:49Z</time>
      </trkpt>
      <trkpt lat="47.24112" lon="5.86977">
        <ele>279.8</ele>
        <time>2024-08-03T10:07:50Z</time>
      </trkpt>
      <trkpt lat="47.24112" lon="5.8698">
        <ele>279.6</ele>
        <time>2024-08-03T10:07:51Z</time>
      </trkpt>
      <trkpt lat="47.24112" lon="5.8698">
        <ele>279.6</ele>
        <time>2024-08-03T10:07:52Z</time>
      </trkpt>
      <trkpt lat="47.24112" lon="5.86982">
        <ele>279.4</ele>
        <time>2024-08-03T10:07:53Z</time>
      </trkpt>
      <trkpt lat="47.24112" lon="5.86982">
        <ele>279.4</ele>
        <time>2024-08-03T10:07:54Z</time>
      </trkpt>
      <trkpt lat="47.24112" lon="5.86983">
        <ele>279.4</ele>
        <time>2024-08-03T10:07:55Z</time>
      </trkpt>
      <trkpt lat="47.24111" lon="5.86983">
        <ele>279.4</ele>
        <time>2024-08-03T10:07:56Z</time>
      </trkpt>
      <trkpt lat="47.24111" lon="5.86982">
        <ele>279.2</ele>
        <time>2024-08-03T10:07:57Z</time>
      </trkpt>
      <trkpt lat="47.24111" lon="5.86981">
        <ele>279.2</ele>
        <time>2024-08-03T10:07:58Z</time>
      </trkpt>
      <trkpt lat="47.24111" lon="5.86981">
        <ele>279.2</ele>
        <time>2024-08-03T10:07:59Z</time>
      </trkpt>
      <trkpt lat="47.24111" lon="5.86981">
        <ele>279</ele>
        <time>2024-08-03T10:08:00Z</time>
      </trkpt>
      <trkpt lat="47.24111" lon="5.86981">
        <ele>279</ele>
        <time>2024-08-03T10:08:01Z</time>
      </trkpt>
      <trkpt lat="47.24111" lon="5.86981">
        <ele>279</ele>
        <time>2024-08-03T10:08:02Z</time>
      </trkpt>
      <trkpt lat="47.24111" lon="5.86982">
        <ele>278.8</ele>
        <time>2024-08-03T10:08:03Z</time>
      </trkpt>
      <trkpt lat="47.24111" lon="5.86982">
        <ele>279</ele>
        <time>2024-08-03T10:08:04Z</time>
      </trkpt>
      <trkpt lat="47.24111" lon="5.86982">
        <ele>278.8</ele>
        <time>2024-08-03T10:08:05Z</time>
      </trkpt>
      <trkpt lat="47.24111" lon="5.86982">
        <ele>278.8</ele>
        <time>2024-08-03T10:08:06Z</time>
      </trkpt>
      <trkpt lat="47.24111" lon="5.86982">
        <ele>278.8</ele>
        <time>2024-08-03T10:08:07Z</time>
      </trkpt>
      <trkpt lat="47.24111" lon="5.86982">
        <ele>278.8</ele>
        <time>2024-08-03T10:08:08Z</time>
      </trkpt>
      <trkpt lat="47.24111" lon="5.86982">
        <ele>278.8</ele>
        <time>2024-08-03T10:08:09Z</time>
      </trkpt>
      <trkpt lat="47.24111" lon="5.86982">
        <ele>278.8</ele>
        <time>2024-08-03T10:08:10Z</time>
      </trkpt>
      <trkpt lat="47.24111" lon="5.86982">
        <ele>279</ele>
        <time>2024-08-03T10:08:11Z</time>
      </trkpt>
      <trkpt lat="47.24111" lon="5.86982">
        <ele>278.8</ele>
        <time>2024-08-03T10:08:12Z</time>
      </trkpt>
      <trkpt lat="47.24111" lon="5.86982">
        <ele>278.8</ele>
        <time>2024-08-03T10:08:13Z</time>
      </trkpt>
      <trkpt lat="47.24111" lon="5.86982">
        <ele>278.8</ele>
        <time>2024-08-03T10:08:14Z</time>
      </trkpt>
      <trkpt lat="47.24111" lon="5.86982">
        <ele>278.8</ele>
        <time>2024-08-03T10:08:15Z</time>
      </trkpt>
      <trkpt lat="47.24111" lon="5.86982">
        <ele>279</ele>
        <time>2024-08-03T10:08:16Z</time>
      </trkpt>
      <trkpt lat="47.24111" lon="5.86982">
        <ele>278.8</ele>
        <time>2024-08-03T10:08:17Z</time>
      </trkpt>
      <trkpt lat="47.2411" lon="5.86981">
        <ele>278.8</ele>
        <time>2024-08-03T10:08:18Z</time>
      </trkpt>
      <trkpt lat="47.2411" lon="5.86981">
        <ele>278.8</ele>
        <time>2024-08-03T10:08:19Z</time>
      </trkpt>
      <trkpt lat="47.2411" lon="5.86981">
        <ele>278.8</ele>
        <time>2024-08-03T10:08:20Z</time>
      </trkpt>
      <trkpt lat="47.24109" lon="5.86981">
        <ele>278.8</ele>
        <time>2024-08-03T10:08:21Z</time>
      </trkpt>
      <trkpt lat="47.24109" lon="5.86981">
        <ele>278.8</ele>
        <time>2024-08-03T10:08:22Z</time>
      </trkpt>
      <trkpt lat="47.24109" lon="5.86981">
        <ele>279</ele>
        <time>2024-08-03T10:08:23Z</time>
      </trkpt>
      <trkpt lat="47.24109" lon="5.86981">
        <ele>278.8</ele>
        <time>2024-08-03T10:08:24Z</time>
      </trkpt>
      <trkpt lat="47.24109" lon="5.86981">
        <ele>278.8</ele>
        <time>2024-08-03T10:08:25Z</time>
      </trkpt>
      <trkpt lat="47.24109" lon="5.86981">
        <ele>279</ele>
        <time>2024-08-03T10:08:26Z</time>
      </trkpt>
      <trkpt lat="47.24108" lon="5.86981">
        <ele>278.8</ele>
        <time>2024-08-03T10:08:27Z</time>
      </trkpt>
      <trkpt lat="47.24107" lon="5.86982">
        <ele>279</ele>
        <time>2024-08-03T10:08:28Z</time>
      </trkpt>
      <trkpt lat="47.24106" lon="5.86983">
        <ele>278.8</ele>
        <time>2024-08-03T10:08:29Z</time>
      </trkpt>
      <trkpt lat="47.24105" lon="5.86984">
        <ele>278.8</ele>
        <time>2024-08-03T10:08:30Z</time>
      </trkpt>
      <trkpt lat="47.24104" lon="5.86986">
        <ele>278.8</ele>
        <time>2024-08-03T10:08:31Z</time>
      </trkpt>
      <trkpt lat="47.24103" lon="5.86988">
        <ele>278.8</ele>
        <time>2024-08-03T10:08:32Z</time>
      </trkpt>
      <trkpt lat="47.24103" lon="5.8699">
        <ele>278.6</ele>
        <time>2024-08-03T10:08:33Z</time>
      </trkpt>
      <trkpt lat="47.24103" lon="5.86993">
        <ele>278.8</ele>
        <time>2024-08-03T10:08:34Z</time>
      </trkpt>
      <trkpt lat="47.24102" lon="5.86996">
        <ele>278.8</ele>
        <time>2024-08-03T10:08:35Z</time>
      </trkpt>
      <trkpt lat="47.24101" lon="5.87">
        <ele>278.8</ele>
        <time>2024-08-03T10:08:36Z</time>
      </trkpt>
      <trkpt lat="47.24099" lon="5.87003">
        <ele>278.4</ele>
        <time>2024-08-03T10:08:37Z</time>
      </trkpt>
      <trkpt lat="47.24097" lon="5.87007">
        <ele>278.6</ele>
        <time>2024-08-03T10:08:38Z</time>
      </trkpt>
      <trkpt lat="47.24096" lon="5.87011">
        <ele>278.2</ele>
        <time>2024-08-03T10:08:39Z</time>
      </trkpt>
      <trkpt lat="47.24095" lon="5.87014">
        <ele>278.2</ele>
        <time>2024-08-03T10:08:40Z</time>
      </trkpt>
      <trkpt lat="47.24093" lon="5.87016">
        <ele>278</ele>
        <time>2024-08-03T10:08:41Z</time>
      </trkpt>
      <trkpt lat="47.24092" lon="5.87019">
        <ele>277.8</ele>
        <time>2024-08-03T10:08:42Z</time>
      </trkpt>
      <trkpt lat="47.2409" lon="5.87021">
        <ele>277.4</ele>
        <time>2024-08-03T10:08:43Z</time>
      </trkpt>
      <trkpt lat="47.24088" lon="5.87023">
        <ele>277.2</ele>
        <time>2024-08-03T10:08:44Z</time>
      </trkpt>
      <trkpt lat="47.24086" lon="5.87026">
        <ele>277</ele>
        <time>2024-08-03T10:08:45Z</time>
      </trkpt>
      <trkpt lat="47.24084" lon="5.87028">
        <ele>276.4</ele>
        <time>2024-08-03T10:08:46Z</time>
      </trkpt>
      <trkpt lat="47.24078" lon="5.87032">
        <ele>276.4</ele>
        <time>2024-08-03T10:08:47Z</time>
      </trkpt>
      <trkpt lat="47.24074" lon="5.87036">
        <ele>276</ele>
        <time>2024-08-03T10:08:48Z</time>
      </trkpt>
      <trkpt lat="47.2407" lon="5.87041">
        <ele>275.4</ele>
        <time>2024-08-03T10:08:49Z</time>
      </trkpt>
      <trkpt lat="47.24065" lon="5.87046">
        <ele>275.2</ele>
        <time>2024-08-03T10:08:50Z</time>
      </trkpt>
      <trkpt lat="47.24062" lon="5.87052">
        <ele>274.8</ele>
        <time>2024-08-03T10:08:51Z</time>
      </trkpt>
      <trkpt lat="47.24057" lon="5.87058">
        <ele>274.6</ele>
        <time>2024-08-03T10:08:52Z</time>
      </trkpt>
      <trkpt lat="47.24054" lon="5.87062">
        <ele>274.2</ele>
        <time>2024-08-03T10:08:53Z</time>
      </trkpt>
      <trkpt lat="47.24051" lon="5.87067">
        <ele>274</ele>
        <time>2024-08-03T10:08:54Z</time>
      </trkpt>
      <trkpt lat="47.24049" lon="5.87071">
        <ele>273.6</ele>
        <time>2024-08-03T10:08:55Z</time>
      </trkpt>
      <trkpt lat="47.24046" lon="5.87075">
        <ele>273.2</ele>
        <time>2024-08-03T10:08:56Z</time>
      </trkpt>
      <trkpt lat="47.24044" lon="5.87079">
        <ele>272.8</ele>
        <time>2024-08-03T10:08:57Z</time>
      </trkpt>
      <trkpt lat="47.2404" lon="5.87084">
        <ele>272.8</ele>
        <time>2024-08-03T10:08:58Z</time>
      </trkpt>
      <trkpt lat="47.24037" lon="5.87088">
        <ele>272.4</ele>
        <time>2024-08-03T10:08:59Z</time>
      </trkpt>
      <trkpt lat="47.24034" lon="5.87092">
        <ele>271.8</ele>
        <time>2024-08-03T10:09:00Z</time>
      </trkpt>
      <trkpt lat="47.2403" lon="5.87098">
        <ele>271.6</ele>
        <time>2024-08-03T10:09:01Z</time>
      </trkpt>
      <trkpt lat="47.24026" lon="5.87104">
        <ele>271.2</ele>
        <time>2024-08-03T10:09:02Z</time>
      </trkpt>
      <trkpt lat="47.24022" lon="5.8711">
        <ele>270.8</ele>
        <time>2024-08-03T10:09:03Z</time>
      </trkpt>
      <trkpt lat="47.24018" lon="5.87115">
        <ele>270.4</ele>
        <time>2024-08-03T10:09:04Z</time>
      </trkpt>
      <trkpt lat="47.24014" lon="5.87121">
        <ele>270.2</ele>
        <time>2024-08-03T10:09:05Z</time>
      </trkpt>
      <trkpt lat="47.2401" lon="5.87127">
        <ele>270</ele>
        <time>2024-08-03T10:09:06Z</time>
      </trkpt>
      <trkpt lat="47.24005" lon="5.87133">
        <ele>269.8</ele>
        <time>2024-08-03T10:09:07Z</time>
      </trkpt>
      <trkpt lat="47.24001" lon="5.87139">
        <ele>269.6</ele>
        <time>2024-08-03T10:09:08Z</time>
      </trkpt>
      <trkpt lat="47.23997" lon="5.87145">
        <ele>269.4</ele>
        <time>2024-08-03T10:09:09Z</time>
      </trkpt>
      <trkpt lat="47.23994" lon="5.87152">
        <ele>269.2</ele>
        <time>2024-08-03T10:09:10Z</time>
      </trkpt>
      <trkpt lat="47.23991" lon="5.87158">
        <ele>268.8</ele>
        <time>2024-08-03T10:09:11Z</time>
      </trkpt>
      <trkpt lat="47.23989" lon="5.87164">
        <ele>268.8</ele>
        <time>2024-08-03T10:09:12Z</time>
      </trkpt>
      <trkpt lat="47.23987" lon="5.8717">
        <ele>268.4</ele>
        <time>2024-08-03T10:09:13Z</time>
      </trkpt>
      <trkpt lat="47.23985" lon="5.87176">
        <ele>268</ele>
        <time>2024-08-03T10:09:14Z</time>
      </trkpt>
      <trkpt lat="47.23983" lon="5.87182">
        <ele>267.6</ele>
        <time>2024-08-03T10:09:15Z</time>
      </trkpt>
      <trkpt lat="47.23981" lon="5.87188">
        <ele>267.4</ele>
        <time>2024-08-03T10:09:16Z</time>
      </trkpt>
      <trkpt lat="47.23978" lon="5.87193">
        <ele>267.2</ele>
        <time>2024-08-03T10:09:17Z</time>
      </trkpt>
      <trkpt lat="47.23975" lon="5.872">
        <ele>266.6</ele>
        <time>2024-08-03T10:09:18Z</time>
      </trkpt>
      <trkpt lat="47.23972" lon="5.87207">
        <ele>266.4</ele>
        <time>2024-08-03T10:09:19Z</time>
      </trkpt>
      <trkpt lat="47.23968" lon="5.87215">
        <ele>266.4</ele>
        <time>2024-08-03T10:09:20Z</time>
      </trkpt>
      <trkpt lat="47.23965" lon="5.87224">
        <ele>265.8</ele>
        <time>2024-08-03T10:09:21Z</time>
      </trkpt>
      <trkpt lat="47.23962" lon="5.87233">
        <ele>265.8</ele>
        <time>2024-08-03T10:09:22Z</time>
      </trkpt>
      <trkpt lat="47.2396" lon="5.87242">
        <ele>265.2</ele>
        <time>2024-08-03T10:09:23Z</time>
      </trkpt>
      <trkpt lat="47.23958" lon="5.87254">
        <ele>265.2</ele>
        <time>2024-08-03T10:09:24Z</time>
      </trkpt>
      <trkpt lat="47.23956" lon="5.87265">
        <ele>264.8</ele>
        <time>2024-08-03T10:09:25Z</time>
      </trkpt>
      <trkpt lat="47.23956" lon="5.87276">
        <ele>264.2</ele>
        <time>2024-08-03T10:09:26Z</time>
      </trkpt>
      <trkpt lat="47.23954" lon="5.87287">
        <ele>263.6</ele>
        <time>2024-08-03T10:09:27Z</time>
      </trkpt>
      <trkpt lat="47.23953" lon="5.87297">
        <ele>263.2</ele>
        <time>2024-08-03T10:09:28Z</time>
      </trkpt>
      <trkpt lat="47.23952" lon="5.87309">
        <ele>262.8</ele>
        <time>2024-08-03T10:09:29Z</time>
      </trkpt>
      <trkpt lat="47.23951" lon="5.8732">
        <ele>262</ele>
        <time>2024-08-03T10:09:30Z</time>
      </trkpt>
      <trkpt lat="47.2395" lon="5.87331">
        <ele>261.2</ele>
        <time>2024-08-03T10:09:31Z</time>
      </trkpt>
      <trkpt lat="47.23949" lon="5.87343">
        <ele>260.6</ele>
        <time>2024-08-03T10:09:32Z</time>
      </trkpt>
      <trkpt lat="47.23948" lon="5.87356">
        <ele>260</ele>
        <time>2024-08-03T10:09:33Z</time>
      </trkpt>
      <trkpt lat="47.23947" lon="5.87367">
        <ele>259.8</ele>
        <time>2024-08-03T10:09:34Z</time>
      </trkpt>
      <trkpt lat="47.23944" lon="5.87378">
        <ele>259.6</ele>
        <time>2024-08-03T10:09:35Z</time>
      </trkpt>
      <trkpt lat="47.23941" lon="5.87389">
        <ele>259.4</ele>
        <time>2024-08-03T10:09:36Z</time>
      </trkpt>
      <trkpt lat="47.23938" lon="5.87397">
        <ele>259</ele>
        <time>2024-08-03T10:09:37Z</time>
      </trkpt>
      <trkpt lat="47.23934" lon="5.87406">
        <ele>259</ele>
        <time>2024-08-03T10:09:38Z</time>
      </trkpt>
      <trkpt lat="47.23931" lon="5.87414">
        <ele>258.6</ele>
        <time>2024-08-03T10:09:39Z</time>
      </trkpt>
      <trkpt lat="47.23927" lon="5.87422">
        <ele>258</ele>
        <time>2024-08-03T10:09:40Z</time>
      </trkpt>
      <trkpt lat="47.23923" lon="5.87429">
        <ele>257.4</ele>
        <time>2024-08-03T10:09:41Z</time>
      </trkpt>
      <trkpt lat="47.23919" lon="5.87435">
        <ele>257.4</ele>
        <time>2024-08-03T10:09:42Z</time>
      </trkpt>
      <trkpt lat="47.23916" lon="5.87442">
        <ele>257</ele>
        <time>2024-08-03T10:09:43Z</time>
      </trkpt>
      <trkpt lat="47.23912" lon="5.87447">
        <ele>257</ele>
        <time>2024-08-03T10:09:44Z</time>
      </trkpt>
      <trkpt lat="47.23909" lon="5.87452">
        <ele>257</ele>
        <time>2024-08-03T10:09:45Z</time>
      </trkpt>
      <trkpt lat="47.23906" lon="5.87456">
        <ele>256.6</ele>
        <time>2024-08-03T10:09:46Z</time>
      </trkpt>
      <trkpt lat="47.23903" lon="5.8746">
        <ele>256.6</ele>
        <time>2024-08-03T10:09:47Z</time>
      </trkpt>
      <trkpt lat="47.239" lon="5.87463">
        <ele>256.6</ele>
        <time>2024-08-03T10:09:48Z</time>
      </trkpt>
      <trkpt lat="47.23897" lon="5.87466">
        <ele>256.2</ele>
        <time>2024-08-03T10:09:49Z</time>
      </trkpt>
      <trkpt lat="47.23894" lon="5.87469">
        <ele>256.2</ele>
        <time>2024-08-03T10:09:50Z</time>
      </trkpt>
      <trkpt lat="47.23891" lon="5.87472">
        <ele>256.2</ele>
        <time>2024-08-03T10:09:51Z</time>
      </trkpt>
      <trkpt lat="47.23889" lon="5.87475">
        <ele>256.2</ele>
        <time>2024-08-03T10:09:52Z</time>
      </trkpt>
      <trkpt lat="47.23886" lon="5.87477">
        <ele>256.2</ele>
        <time>2024-08-03T10:09:53Z</time>
      </trkpt>
      <trkpt lat="47.23884" lon="5.8748">
        <ele>256</ele>
        <time>2024-08-03T10:09:54Z</time>
      </trkpt>
      <trkpt lat="47.23881" lon="5.87483">
        <ele>256.2</ele>
        <time>2024-08-03T10:09:55Z</time>
      </trkpt>
      <trkpt lat="47.23879" lon="5.87487">
        <ele>256</ele>
        <time>2024-08-03T10:09:56Z</time>
      </trkpt>
      <trkpt lat="47.23877" lon="5.8749">
        <ele>256</ele>
        <time>2024-08-03T10:09:57Z</time>
      </trkpt>
      <trkpt lat="47.23874" lon="5.87493">
        <ele>256</ele>
        <time>2024-08-03T10:09:58Z</time>
      </trkpt>
      <trkpt lat="47.23872" lon="5.87496">
        <ele>256</ele>
        <time>2024-08-03T10:09:59Z</time>
      </trkpt>
      <trkpt lat="47.2387" lon="5.87499">
        <ele>256</ele>
        <time>2024-08-03T10:10:00Z</time>
      </trkpt>
      <trkpt lat="47.23868" lon="5.87503">
        <ele>256</ele>
        <time>2024-08-03T10:10:01Z</time>
      </trkpt>
      <trkpt lat="47.23865" lon="5.87506">
        <ele>256</ele>
        <time>2024-08-03T10:10:02Z</time>
      </trkpt>
      <trkpt lat="47.23863" lon="5.8751">
        <ele>256.2</ele>
        <time>2024-08-03T10:10:03Z</time>
      </trkpt>
      <trkpt lat="47.23861" lon="5.87514">
        <ele>256.2</ele>
        <time>2024-08-03T10:10:04Z</time>
      </trkpt>
      <trkpt lat="47.23859" lon="5.87518">
        <ele>256.4</ele>
        <time>2024-08-03T10:10:05Z</time>
      </trkpt>
      <trkpt lat="47.23857" lon="5.87521">
        <ele>256.2</ele>
        <time>2024-08-03T10:10:06Z</time>
      </trkpt>
      <trkpt lat="47.23855" lon="5.87525">
        <ele>256.4</ele>
        <time>2024-08-03T10:10:07Z</time>
      </trkpt>
      <trkpt lat="47.23854" lon="5.87529">
        <ele>256.4</ele>
        <time>2024-08-03T10:10:08Z</time>
      </trkpt>
      <trkpt lat="47.23852" lon="5.87532">
        <ele>256.6</ele>
        <time>2024-08-03T10:10:09Z</time>
      </trkpt>
      <trkpt lat="47.23851" lon="5.87536">
        <ele>256.8</ele>
        <time>2024-08-03T10:10:10Z</time>
      </trkpt>
      <trkpt lat="47.23849" lon="5.87539">
        <ele>257</ele>
        <time>2024-08-03T10:10:11Z</time>
      </trkpt>
      <trkpt lat="47.23848" lon="5.87542">
        <ele>257</ele>
        <time>2024-08-03T10:10:12Z</time>
      </trkpt>
      <trkpt lat="47.23847" lon="5.87545">
        <ele>257.2</ele>
        <time>2024-08-03T10:10:13Z</time>
      </trkpt>
      <trkpt lat="47.23846" lon="5.87548">
        <ele>257.2</ele>
        <time>2024-08-03T10:10:14Z</time>
      </trkpt>
      <trkpt lat="47.23845" lon="5.87552">
        <ele>257.4</ele>
        <time>2024-08-03T10:10:15Z</time>
      </trkpt>
      <trkpt lat="47.23844" lon="5.87555">
        <ele>257.8</ele>
        <time>2024-08-03T10:10:16Z</time>
      </trkpt>
      <trkpt lat="47.23843" lon="5.87558">
        <ele>258</ele>
        <time>2024-08-03T10:10:17Z</time>
      </trkpt>
      <trkpt lat="47.23842" lon="5.87561">
        <ele>258.4</ele>
        <time>2024-08-03T10:10:18Z</time>
      </trkpt>
      <trkpt lat="47.23841" lon="5.87564">
        <ele>258.8</ele>
        <time>2024-08-03T10:10:19Z</time>
      </trkpt>
      <trkpt lat="47.2384" lon="5.87567">
        <ele>259</ele>
        <time>2024-08-03T10:10:20Z</time>
      </trkpt>
      <trkpt lat="47.23839" lon="5.87571">
        <ele>259.2</ele>
        <time>2024-08-03T10:10:21Z</time>
      </trkpt>
      <trkpt lat="47.23838" lon="5.87574">
        <ele>259.4</ele>
        <time>2024-08-03T10:10:22Z</time>
      </trkpt>
      <trkpt lat="47.23837" lon="5.87577">
        <ele>259.8</ele>
        <time>2024-08-03T10:10:23Z</time>
      </trkpt>
      <trkpt lat="47.23837" lon="5.8758">
        <ele>260.2</ele>
        <time>2024-08-03T10:10:24Z</time>
      </trkpt>
      <trkpt lat="47.23836" lon="5.87583">
        <ele>260.8</ele>
        <time>2024-08-03T10:10:25Z</time>
      </trkpt>
      <trkpt lat="47.23835" lon="5.87586">
        <ele>260.8</ele>
        <time>2024-08-03T10:10:26Z</time>
      </trkpt>
      <trkpt lat="47.23834" lon="5.87589">
        <ele>261.2</ele>
        <time>2024-08-03T10:10:27Z</time>
      </trkpt>
      <trkpt lat="47.23833" lon="5.87592">
        <ele>261.4</ele>
        <time>2024-08-03T10:10:28Z</time>
      </trkpt>
      <trkpt lat="47.23832" lon="5.87595">
        <ele>261.6</ele>
        <time>2024-08-03T10:10:29Z</time>
      </trkpt>
      <trkpt lat="47.23831" lon="5.87598">
        <ele>261.8</ele>
        <time>2024-08-03T10:10:30Z</time>
      </trkpt>
      <trkpt lat="47.2383" lon="5.876">
        <ele>262.2</ele>
        <time>2024-08-03T10:10:31Z</time>
      </trkpt>
      <trkpt lat="47.23828" lon="5.87602">
        <ele>262.2</ele>
        <time>2024-08-03T10:10:32Z</time>
      </trkpt>
      <trkpt lat="47.23827" lon="5.87604">
        <ele>262.4</ele>
        <time>2024-08-03T10:10:33Z</time>
      </trkpt>
      <trkpt lat="47.23826" lon="5.87607">
        <ele>262.6</ele>
        <time>2024-08-03T10:10:34Z</time>
      </trkpt>
      <trkpt lat="47.23825" lon="5.87609">
        <ele>262.8</ele>
        <time>2024-08-03T10:10:35Z</time>
      </trkpt>
      <trkpt lat="47.23824" lon="5.87612">
        <ele>263.2</ele>
        <time>2024-08-03T10:10:36Z</time>
      </trkpt>
      <trkpt lat="47.23823" lon="5.87614">
        <ele>263.2</ele>
        <time>2024-08-03T10:10:37Z</time>
      </trkpt>
      <trkpt lat="47.23822" lon="5.87617">
        <ele>263.6</ele>
        <time>2024-08-03T10:10:38Z</time>
      </trkpt>
      <trkpt lat="47.23822" lon="5.8762">
        <ele>263.8</ele>
        <time>2024-08-03T10:10:39Z</time>
      </trkpt>
      <trkpt lat="47.23821" lon="5.87623">
        <ele>264</ele>
        <time>2024-08-03T10:10:40Z</time>
      </trkpt>
      <trkpt lat="47.23821" lon="5.87627">
        <ele>264.4</ele>
        <time>2024-08-03T10:10:41Z</time>
      </trkpt>
      <trkpt lat="47.23819" lon="5.87629">
        <ele>264.4</ele>
        <time>2024-08-03T10:10:42Z</time>
      </trkpt>
      <trkpt lat="47.23819" lon="5.87633">
        <ele>264.6</ele>
        <time>2024-08-03T10:10:43Z</time>
      </trkpt>
      <trkpt lat="47.23817" lon="5.87636">
        <ele>265</ele>
        <time>2024-08-03T10:10:44Z</time>
      </trkpt>
      <trkpt lat="47.23817" lon="5.87639">
        <ele>265.4</ele>
        <time>2024-08-03T10:10:45Z</time>
      </trkpt>
      <trkpt lat="47.23816" lon="5.87643">
        <ele>265.2</ele>
        <time>2024-08-03T10:10:46Z</time>
      </trkpt>
      <trkpt lat="47.23815" lon="5.87646">
        <ele>265.6</ele>
        <time>2024-08-03T10:10:47Z</time>
      </trkpt>
      <trkpt lat="47.23814" lon="5.8765">
        <ele>265.6</ele>
        <time>2024-08-03T10:10:48Z</time>
      </trkpt>
      <trkpt lat="47.23813" lon="5.87654">
        <ele>265.8</ele>
        <time>2024-08-03T10:10:49Z</time>
      </trkpt>
      <trkpt lat="47.23812" lon="5.87657">
        <ele>266</ele>
        <time>2024-08-03T10:10:50Z</time>
      </trkpt>
      <trkpt lat="47.23812" lon="5.87661">
        <ele>266</ele>
        <time>2024-08-03T10:10:51Z</time>
      </trkpt>
      <trkpt lat="47.23811" lon="5.87665">
        <ele>266.2</ele>
        <time>2024-08-03T10:10:52Z</time>
      </trkpt>
      <trkpt lat="47.2381" lon="5.8767">
        <ele>266.2</ele>
        <time>2024-08-03T10:10:53Z</time>
      </trkpt>
      <trkpt lat="47.23809" lon="5.87674">
        <ele>266.2</ele>
        <time>2024-08-03T10:10:54Z</time>
      </trkpt>
      <trkpt lat="47.23808" lon="5.87679">
        <ele>266.4</ele>
        <time>2024-08-03T10:10:55Z</time>
      </trkpt>
      <trkpt lat="47.23807" lon="5.87684">
        <ele>266.4</ele>
        <time>2024-08-03T10:10:56Z</time>
      </trkpt>
      <trkpt lat="47.23806" lon="5.87689">
        <ele>266.4</ele>
        <time>2024-08-03T10:10:57Z</time>
      </trkpt>
      <trkpt lat="47.23805" lon="5.87693">
        <ele>266.4</ele>
        <time>2024-08-03T10:10:58Z</time>
      </trkpt>
      <trkpt lat="47.23803" lon="5.87697">
        <ele>266.6</ele>
        <time>2024-08-03T10:10:59Z</time>
      </trkpt>
      <trkpt lat="47.23802" lon="5.87702">
        <ele>266.6</ele>
        <time>2024-08-03T10:11:00Z</time>
      </trkpt>
      <trkpt lat="47.23801" lon="5.87706">
        <ele>266.6</ele>
        <time>2024-08-03T10:11:01Z</time>
      </trkpt>
      <trkpt lat="47.238" lon="5.87711">
        <ele>266.4</ele>
        <time>2024-08-03T10:11:02Z</time>
      </trkpt>
      <trkpt lat="47.23798" lon="5.87716">
        <ele>266.4</ele>
        <time>2024-08-03T10:11:03Z</time>
      </trkpt>
      <trkpt lat="47.23797" lon="5.87721">
        <ele>266.6</ele>
        <time>2024-08-03T10:11:04Z</time>
      </trkpt>
      <trkpt lat="47.23796" lon="5.87726">
        <ele>266.4</ele>
        <time>2024-08-03T10:11:05Z</time>
      </trkpt>
      <trkpt lat="47.23794" lon="5.87731">
        <ele>266.4</ele>
        <time>2024-08-03T10:11:06Z</time>
      </trkpt>
      <trkpt lat="47.23793" lon="5.87736">
        <ele>266.4</ele>
        <time>2024-08-03T10:11:07Z</time>
      </trkpt>
      <trkpt lat="47.23791" lon="5.87742">
        <ele>266.4</ele>
        <time>2024-08-03T10:11:08Z</time>
      </trkpt>
      <trkpt lat="47.23789" lon="5.87747">
        <ele>266.2</ele>
        <time>2024-08-03T10:11:09Z</time>
      </trkpt>
      <trkpt lat="47.23788" lon="5.87752">
        <ele>266.2</ele>
        <time>2024-08-03T10:11:10Z</time>
      </trkpt>
      <trkpt lat="47.23786" lon="5.87757">
        <ele>266</ele>
        <time>2024-08-03T10:11:11Z</time>
      </trkpt>
      <trkpt lat="47.23784" lon="5.87763">
        <ele>265.8</ele>
        <time>2024-08-03T10:11:12Z</time>
      </trkpt>
      <trkpt lat="47.23782" lon="5.87769">
        <ele>265.8</ele>
        <time>2024-08-03T10:11:13Z</time>
      </trkpt>
      <trkpt lat="47.2378" lon="5.87775">
        <ele>265.4</ele>
        <time>2024-08-03T10:11:14Z</time>
      </trkpt>
      <trkpt lat="47.23779" lon="5.87782">
        <ele>265.4</ele>
        <time>2024-08-03T10:11:15Z</time>
      </trkpt>
      <trkpt lat="47.23776" lon="5.87788">
        <ele>265.2</ele>
        <time>2024-08-03T10:11:16Z</time>
      </trkpt>
      <trkpt lat="47.23774" lon="5.87794">
        <ele>265</ele>
        <time>2024-08-03T10:11:17Z</time>
      </trkpt>
      <trkpt lat="47.23771" lon="5.87799">
        <ele>264.8</ele>
        <time>2024-08-03T10:11:18Z</time>
      </trkpt>
      <trkpt lat="47.23769" lon="5.87804">
        <ele>264.8</ele>
        <time>2024-08-03T10:11:19Z</time>
      </trkpt>
      <trkpt lat="47.23767" lon="5.87809">
        <ele>264.4</ele>
        <time>2024-08-03T10:11:20Z</time>
      </trkpt>
      <trkpt lat="47.23764" lon="5.87814">
        <ele>264</ele>
        <time>2024-08-03T10:11:21Z</time>
      </trkpt>
      <trkpt lat="47.23762" lon="5.87819">
        <ele>263.8</ele>
        <time>2024-08-03T10:11:22Z</time>
      </trkpt>
      <trkpt lat="47.23759" lon="5.87825">
        <ele>263.6</ele>
        <time>2024-08-03T10:11:23Z</time>
      </trkpt>
      <trkpt lat="47.23757" lon="5.8783">
        <ele>263.4</ele>
        <time>2024-08-03T10:11:24Z</time>
      </trkpt>
      <trkpt lat="47.23754" lon="5.87836">
        <ele>262.8</ele>
        <time>2024-08-03T10:11:25Z</time>
      </trkpt>
      <trkpt lat="47.23752" lon="5.87842">
        <ele>262.4</ele>
        <time>2024-08-03T10:11:26Z</time>
      </trkpt>
      <trkpt lat="47.23749" lon="5.87847">
        <ele>262.4</ele>
        <time>2024-08-03T10:11:27Z</time>
      </trkpt>
      <trkpt lat="47.23746" lon="5.87853">
        <ele>262</ele>
        <time>2024-08-03T10:11:28Z</time>
      </trkpt>
      <trkpt lat="47.23743" lon="5.87858">
        <ele>261.4</ele>
        <time>2024-08-03T10:11:29Z</time>
      </trkpt>
      <trkpt lat="47.2374" lon="5.87864">
        <ele>260.8</ele>
        <time>2024-08-03T10:11:30Z</time>
      </trkpt>
      <trkpt lat="47.23737" lon="5.87871">
        <ele>260.8</ele>
        <time>2024-08-03T10:11:31Z</time>
      </trkpt>
      <trkpt lat="47.23733" lon="5.87877">
        <ele>260.6</ele>
        <time>2024-08-03T10:11:32Z</time>
      </trkpt>
      <trkpt lat="47.2373" lon="5.87883">
        <ele>260.2</ele>
        <time>2024-08-03T10:11:33Z</time>
      </trkpt>
      <trkpt lat="47.23727" lon="5.8789">
        <ele>259.8</ele>
        <time>2024-08-03T10:11:34Z</time>
      </trkpt>
      <trkpt lat="47.23723" lon="5.87895">
        <ele>259.4</ele>
        <time>2024-08-03T10:11:35Z</time>
      </trkpt>
      <trkpt lat="47.23721" lon="5.87901">
        <ele>258.6</ele>
        <time>2024-08-03T10:11:36Z</time>
      </trkpt>
      <trkpt lat="47.2372" lon="5.87907">
        <ele>258.2</ele>
        <time>2024-08-03T10:11:37Z</time>
      </trkpt>
      <trkpt lat="47.2372" lon="5.87913">
        <ele>257.4</ele>
        <time>2024-08-03T10:11:38Z</time>
      </trkpt>
      <trkpt lat="47.23719" lon="5.87919">
        <ele>256.8</ele>
        <time>2024-08-03T10:11:39Z</time>
      </trkpt>
      <trkpt lat="47.23719" lon="5.87925">
        <ele>256.2</ele>
        <time>2024-08-03T10:11:40Z</time>
      </trkpt>
      <trkpt lat="47.2372" lon="5.87932">
        <ele>255.6</ele>
        <time>2024-08-03T10:11:41Z</time>
      </trkpt>
      <trkpt lat="47.2372" lon="5.8794">
        <ele>255.2</ele>
        <time>2024-08-03T10:11:42Z</time>
      </trkpt>
      <trkpt lat="47.23721" lon="5.87948">
        <ele>254.4</ele>
        <time>2024-08-03T10:11:43Z</time>
      </trkpt>
      <trkpt lat="47.23721" lon="5.87957">
        <ele>253.6</ele>
        <time>2024-08-03T10:11:44Z</time>
      </trkpt>
      <trkpt lat="47.23721" lon="5.87965">
        <ele>253.2</ele>
        <time>2024-08-03T10:11:45Z</time>
      </trkpt>
      <trkpt lat="47.23721" lon="5.87973">
        <ele>253</ele>
        <time>2024-08-03T10:11:46Z</time>
      </trkpt>
      <trkpt lat="47.23721" lon="5.87982">
        <ele>252.6</ele>
        <time>2024-08-03T10:11:47Z</time>
      </trkpt>
      <trkpt lat="47.23721" lon="5.8799">
        <ele>252.4</ele>
        <time>2024-08-03T10:11:48Z</time>
      </trkpt>
      <trkpt lat="47.23721" lon="5.87999">
        <ele>252</ele>
        <time>2024-08-03T10:11:49Z</time>
      </trkpt>
      <trkpt lat="47.23721" lon="5.88008">
        <ele>252</ele>
        <time>2024-08-03T10:11:50Z</time>
      </trkpt>
      <trkpt lat="47.23721" lon="5.88016">
        <ele>251.6</ele>
        <time>2024-08-03T10:11:51Z</time>
      </trkpt>
      <trkpt lat="47.2372" lon="5.88026">
        <ele>251.4</ele>
        <time>2024-08-03T10:11:52Z</time>
      </trkpt>
      <trkpt lat="47.2372" lon="5.88034">
        <ele>251.2</ele>
        <time>2024-08-03T10:11:53Z</time>
      </trkpt>
      <trkpt lat="47.2372" lon="5.88043">
        <ele>251.2</ele>
        <time>2024-08-03T10:11:54Z</time>
      </trkpt>
      <trkpt lat="47.2372" lon="5.88051">
        <ele>251</ele>
        <time>2024-08-03T10:11:55Z</time>
      </trkpt>
      <trkpt lat="47.23719" lon="5.88059">
        <ele>250.6</ele>
        <time>2024-08-03T10:11:56Z</time>
      </trkpt>
      <trkpt lat="47.23719" lon="5.88067">
        <ele>250.6</ele>
        <time>2024-08-03T10:11:57Z</time>
      </trkpt>
      <trkpt lat="47.23719" lon="5.88074">
        <ele>250.6</ele>
        <time>2024-08-03T10:11:58Z</time>
      </trkpt>
      <trkpt lat="47.23718" lon="5.88082">
        <ele>250.6</ele>
        <time>2024-08-03T10:11:59Z</time>
      </trkpt>
      <trkpt lat="47.23718" lon="5.8809">
        <ele>250.4</ele>
        <time>2024-08-03T10:12:00Z</time>
      </trkpt>
      <trkpt lat="47.23718" lon="5.88096">
        <ele>250.4</ele>
        <time>2024-08-03T10:12:01Z</time>
      </trkpt>
      <trkpt lat="47.23718" lon="5.88103">
        <ele>250.2</ele>
        <time>2024-08-03T10:12:02Z</time>
      </trkpt>
      <trkpt lat="47.23718" lon="5.88109">
        <ele>250</ele>
        <time>2024-08-03T10:12:03Z</time>
      </trkpt>
      <trkpt lat="47.23717" lon="5.88115">
        <ele>250</ele>
        <time>2024-08-03T10:12:04Z</time>
      </trkpt>
      <trkpt lat="47.23717" lon="5.88121">
        <ele>250</ele>
        <time>2024-08-03T10:12:05Z</time>
      </trkpt>
      <trkpt lat="47.23718" lon="5.88128">
        <ele>250</ele>
        <time>2024-08-03T10:12:06Z</time>
      </trkpt>
      <trkpt lat="47.23717" lon="5.88133">
        <ele>250</ele>
        <time>2024-08-03T10:12:07Z</time>
      </trkpt>
      <trkpt lat="47.23717" lon="5.88139">
        <ele>250</ele>
        <time>2024-08-03T10:12:08Z</time>
      </trkpt>
      <trkpt lat="47.23716" lon="5.88144">
        <ele>249.8</ele>
        <time>2024-08-03T10:12:09Z</time>
      </trkpt>
      <trkpt lat="47.23716" lon="5.88149">
        <ele>249.8</ele>
        <time>2024-08-03T10:12:10Z</time>
      </trkpt>
      <trkpt lat="47.23716" lon="5.88153">
        <ele>249.6</ele>
        <time>2024-08-03T10:12:11Z</time>
      </trkpt>
      <trkpt lat="47.23716" lon="5.88159">
        <ele>249.8</ele>
        <time>2024-08-03T10:12:12Z</time>
      </trkpt>
      <trkpt lat="47.23715" lon="5.88164">
        <ele>249.8</ele>
        <time>2024-08-03T10:12:13Z</time>
      </trkpt>
      <trkpt lat="47.23714" lon="5.88168">
        <ele>249.6</ele>
        <time>2024-08-03T10:12:14Z</time>
      </trkpt>
      <trkpt lat="47.23713" lon="5.88172">
        <ele>249.6</ele>
        <time>2024-08-03T10:12:15Z</time>
      </trkpt>
      <trkpt lat="47.23712" lon="5.88176">
        <ele>249.6</ele>
        <time>2024-08-03T10:12:16Z</time>
      </trkpt>
      <trkpt lat="47.23711" lon="5.88181">
        <ele>249.8</ele>
        <time>2024-08-03T10:12:17Z</time>
      </trkpt>
      <trkpt lat="47.23711" lon="5.88185">
        <ele>249.6</ele>
        <time>2024-08-03T10:12:18Z</time>
      </trkpt>
      <trkpt lat="47.23711" lon="5.88189">
        <ele>249.8</ele>
        <time>2024-08-03T10:12:19Z</time>
      </trkpt>
      <trkpt lat="47.23711" lon="5.88194">
        <ele>249.8</ele>
        <time>2024-08-03T10:12:20Z</time>
      </trkpt>
      <trkpt lat="47.23711" lon="5.88199">
        <ele>249.8</ele>
        <time>2024-08-03T10:12:21Z</time>
      </trkpt>
      <trkpt lat="47.2371" lon="5.88204">
        <ele>250</ele>
        <time>2024-08-03T10:12:22Z</time>
      </trkpt>
      <trkpt lat="47.2371" lon="5.88209">
        <ele>250</ele>
        <time>2024-08-03T10:12:23Z</time>
      </trkpt>
      <trkpt lat="47.2371" lon="5.88214">
        <ele>250.2</ele>
        <time>2024-08-03T10:12:24Z</time>
      </trkpt>
      <trkpt lat="47.23709" lon="5.88218">
        <ele>250.4</ele>
        <time>2024-08-03T10:12:25Z</time>
      </trkpt>
      <trkpt lat="47.23709" lon="5.88221">
        <ele>250.4</ele>
        <time>2024-08-03T10:12:26Z</time>
      </trkpt>
      <trkpt lat="47.23709" lon="5.88225">
        <ele>250.6</ele>
        <time>2024-08-03T10:12:27Z</time>
      </trkpt>
      <trkpt lat="47.23708" lon="5.8823">
        <ele>250.8</ele>
        <time>2024-08-03T10:12:28Z</time>
      </trkpt>
      <trkpt lat="47.23708" lon="5.88234">
        <ele>251</ele>
        <time>2024-08-03T10:12:29Z</time>
      </trkpt>
      <trkpt lat="47.23707" lon="5.88237">
        <ele>251.2</ele>
        <time>2024-08-03T10:12:30Z</time>
      </trkpt>
      <trkpt lat="47.23706" lon="5.8824">
        <ele>251.4</ele>
        <time>2024-08-03T10:12:31Z</time>
      </trkpt>
      <trkpt lat="47.23706" lon="5.88243">
        <ele>251.6</ele>
        <time>2024-08-03T10:12:32Z</time>
      </trkpt>
      <trkpt lat="47.23705" lon="5.88245">
        <ele>252</ele>
        <time>2024-08-03T10:12:33Z</time>
      </trkpt>
      <trkpt lat="47.23704" lon="5.88247">
        <ele>252.2</ele>
        <time>2024-08-03T10:12:34Z</time>
      </trkpt>
      <trkpt lat="47.23703" lon="5.8825">
        <ele>252.2</ele>
        <time>2024-08-03T10:12:35Z</time>
      </trkpt>
      <trkpt lat="47.23702" lon="5.88253">
        <ele>252.4</ele>
        <time>2024-08-03T10:12:36Z</time>
      </trkpt>
      <trkpt lat="47.23701" lon="5.88256">
        <ele>252.6</ele>
        <time>2024-08-03T10:12:37Z</time>
      </trkpt>
      <trkpt lat="47.237" lon="5.88259">
        <ele>252.6</ele>
        <time>2024-08-03T10:12:38Z</time>
      </trkpt>
      <trkpt lat="47.23699" lon="5.88262">
        <ele>252.8</ele>
        <time>2024-08-03T10:12:39Z</time>
      </trkpt>
      <trkpt lat="47.23699" lon="5.88265">
        <ele>252.8</ele>
        <time>2024-08-03T10:12:40Z</time>
      </trkpt>
      <trkpt lat="47.237" lon="5.88268">
        <ele>253</ele>
        <time>2024-08-03T10:12:41Z</time>
      </trkpt>
      <trkpt lat="47.23701" lon="5.88271">
        <ele>253</ele>
        <time>2024-08-03T10:12:42Z</time>
      </trkpt>
      <trkpt lat="47.23701" lon="5.88273">
        <ele>253.2</ele>
        <time>2024-08-03T10:12:43Z</time>
      </trkpt>
      <trkpt lat="47.23702" lon="5.88276">
        <ele>253.4</ele>
        <time>2024-08-03T10:12:44Z</time>
      </trkpt>
      <trkpt lat="47.23702" lon="5.88279">
        <ele>253.6</ele>
        <time>2024-08-03T10:12:45Z</time>
      </trkpt>
      <trkpt lat="47.23703" lon="5.88282">
        <ele>253.8</ele>
        <time>2024-08-03T10:12:46Z</time>
      </trkpt>
      <trkpt lat="47.23704" lon="5.88285">
        <ele>253.8</ele>
        <time>2024-08-03T10:12:47Z</time>
      </trkpt>
      <trkpt lat="47.23704" lon="5.88287">
        <ele>254.2</ele>
        <time>2024-08-03T10:12:48Z</time>
      </trkpt>
      <trkpt lat="47.23705" lon="5.8829">
        <ele>254.2</ele>
        <time>2024-08-03T10:12:49Z</time>
      </trkpt>
      <trkpt lat="47.23705" lon="5.88292">
        <ele>254.6</ele>
        <time>2024-08-03T10:12:50Z</time>
      </trkpt>
      <trkpt lat="47.23705" lon="5.88294">
        <ele>254.8</ele>
        <time>2024-08-03T10:12:51Z</time>
      </trkpt>
      <trkpt lat="47.23705" lon="5.88295">
        <ele>255.2</ele>
        <time>2024-08-03T10:12:52Z</time>
      </trkpt>
      <trkpt lat="47.23706" lon="5.88296">
        <ele>255.4</ele>
        <time>2024-08-03T10:12:53Z</time>
      </trkpt>
      <trkpt lat="47.23706" lon="5.88297">
        <ele>255.8</ele>
        <time>2024-08-03T10:12:54Z</time>
      </trkpt>
      <trkpt lat="47.23706" lon="5.88298">
        <ele>256</ele>
        <time>2024-08-03T10:12:55Z</time>
      </trkpt>
      <trkpt lat="47.23707" lon="5.883">
        <ele>256.2</ele>
        <time>2024-08-03T10:12:56Z</time>
      </trkpt>
      <trkpt lat="47.23707" lon="5.88302">
        <ele>256.6</ele>
        <time>2024-08-03T10:12:57Z</time>
      </trkpt>
      <trkpt lat="47.23708" lon="5.88304">
        <ele>256.6</ele>
        <time>2024-08-03T10:12:58Z</time>
      </trkpt>
      <trkpt lat="47.23708" lon="5.88307">
        <ele>257.2</ele>
        <time>2024-08-03T10:12:59Z</time>
      </trkpt>
      <trkpt lat="47.23708" lon="5.88309">
        <ele>257.2</ele>
        <time>2024-08-03T10:13:00Z</time>
      </trkpt>
      <trkpt lat="47.23707" lon="5.88312">
        <ele>257.2</ele>
        <time>2024-08-03T10:13:01Z</time>
      </trkpt>
      <trkpt lat="47.23706" lon="5.88314">
        <ele>257.2</ele>
        <time>2024-08-03T10:13:02Z</time>
      </trkpt>
      <trkpt lat="47.23706" lon="5.88317">
        <ele>257.2</ele>
        <time>2024-08-03T10:13:03Z</time>
      </trkpt>
      <trkpt lat="47.23706" lon="5.88318">
        <ele>257.4</ele>
        <time>2024-08-03T10:13:04Z</time>
      </trkpt>
      <trkpt lat="47.23705" lon="5.88318">
        <ele>257.4</ele>
        <time>2024-08-03T10:13:05Z</time>
      </trkpt>
      <trkpt lat="47.23705" lon="5.88319">
        <ele>257.6</ele>
        <time>2024-08-03T10:13:06Z</time>
      </trkpt>
      <trkpt lat="47.23706" lon="5.88321">
        <ele>257.8</ele>
        <time>2024-08-03T10:13:07Z</time>
      </trkpt>
      <trkpt lat="47.23706" lon="5.88322">
        <ele>258</ele>
        <time>2024-08-03T10:13:08Z</time>
      </trkpt>
      <trkpt lat="47.23707" lon="5.88324">
        <ele>258.2</ele>
        <time>2024-08-03T10:13:09Z</time>
      </trkpt>
      <trkpt lat="47.23708" lon="5.88326">
        <ele>258.4</ele>
        <time>2024-08-03T10:13:10Z</time>
      </trkpt>
      <trkpt lat="47.23709" lon="5.88328">
        <ele>258.4</ele>
        <time>2024-08-03T10:13:11Z</time>
      </trkpt>
      <trkpt lat="47.23709" lon="5.88329">
        <ele>258.6</ele>
        <time>2024-08-03T10:13:12Z</time>
      </trkpt>
      <trkpt lat="47.23708" lon="5.88331">
        <ele>258.8</ele>
        <time>2024-08-03T10:13:13Z</time>
      </trkpt>
      <trkpt lat="47.23708" lon="5.88332">
        <ele>258.8</ele>
        <time>2024-08-03T10:13:14Z</time>
      </trkpt>
      <trkpt lat="47.23706" lon="5.88334">
        <ele>259.2</ele>
        <time>2024-08-03T10:13:15Z</time>
      </trkpt>
      <trkpt lat="47.23705" lon="5.88335">
        <ele>259.2</ele>
        <time>2024-08-03T10:13:16Z</time>
      </trkpt>
      <trkpt lat="47.23703" lon="5.88337">
        <ele>259.6</ele>
        <time>2024-08-03T10:13:17Z</time>
      </trkpt>
      <trkpt lat="47.23702" lon="5.88338">
        <ele>259.8</ele>
        <time>2024-08-03T10:13:18Z</time>
      </trkpt>
      <trkpt lat="47.237" lon="5.8834">
        <ele>259.8</ele>
        <time>2024-08-03T10:13:19Z</time>
      </trkpt>
      <trkpt lat="47.23699" lon="5.88342">
        <ele>259.8</ele>
        <time>2024-08-03T10:13:20Z</time>
      </trkpt>
      <trkpt lat="47.23698" lon="5.88344">
        <ele>260.2</ele>
        <time>2024-08-03T10:13:21Z</time>
      </trkpt>
      <trkpt lat="47.23696" lon="5.88345">
        <ele>260.2</ele>
        <time>2024-08-03T10:13:22Z</time>
      </trkpt>
      <trkpt lat="47.23695" lon="5.88347">
        <ele>260.2</ele>
        <time>2024-08-03T10:13:23Z</time>
      </trkpt>
      <trkpt lat="47.23694" lon="5.88349">
        <ele>260.4</ele>
        <time>2024-08-03T10:13:24Z</time>
      </trkpt>
      <trkpt lat="47.23692" lon="5.8835">
        <ele>260.4</ele>
        <time>2024-08-03T10:13:25Z</time>
      </trkpt>
      <trkpt lat="47.23691" lon="5.88353">
        <ele>260.6</ele>
        <time>2024-08-03T10:13:26Z</time>
      </trkpt>
      <trkpt lat="47.2369" lon="5.88354">
        <ele>260.8</ele>
        <time>2024-08-03T10:13:27Z</time>
      </trkpt>
      <trkpt lat="47.23688" lon="5.88356">
        <ele>260.8</ele>
        <time>2024-08-03T10:13:28Z</time>
      </trkpt>
      <trkpt lat="47.23687" lon="5.88358">
        <ele>261</ele>
        <time>2024-08-03T10:13:29Z</time>
      </trkpt>
      <trkpt lat="47.23685" lon="5.88361">
        <ele>261.2</ele>
        <time>2024-08-03T10:13:30Z</time>
      </trkpt>
      <trkpt lat="47.23684" lon="5.88364">
        <ele>261.4</ele>
        <time>2024-08-03T10:13:31Z</time>
      </trkpt>
      <trkpt lat="47.23682" lon="5.88367">
        <ele>261.6</ele>
        <time>2024-08-03T10:13:32Z</time>
      </trkpt>
      <trkpt lat="47.23681" lon="5.8837">
        <ele>261.8</ele>
        <time>2024-08-03T10:13:33Z</time>
      </trkpt>
      <trkpt lat="47.23679" lon="5.88373">
        <ele>262</ele>
        <time>2024-08-03T10:13:34Z</time>
      </trkpt>
      <trkpt lat="47.23678" lon="5.88376">
        <ele>262.4</ele>
        <time>2024-08-03T10:13:35Z</time>
      </trkpt>
      <trkpt lat="47.23676" lon="5.88378">
        <ele>262.6</ele>
        <time>2024-08-03T10:13:36Z</time>
      </trkpt>
      <trkpt lat="47.23674" lon="5.88381">
        <ele>262.6</ele>
        <time>2024-08-03T10:13:37Z</time>
      </trkpt>
      <trkpt lat="47.23673" lon="5.88383">
        <ele>263</ele>
        <time>2024-08-03T10:13:38Z</time>
      </trkpt>
      <trkpt lat="47.23671" lon="5.88385">
        <ele>263.2</ele>
        <time>2024-08-03T10:13:39Z</time>
      </trkpt>
      <trkpt lat="47.23669" lon="5.88388">
        <ele>263.4</ele>
        <time>2024-08-03T10:13:40Z</time>
      </trkpt>
      <trkpt lat="47.23667" lon="5.88389">
        <ele>263.6</ele>
        <time>2024-08-03T10:13:41Z</time>
      </trkpt>
      <trkpt lat="47.23666" lon="5.88391">
        <ele>263.8</ele>
        <time>2024-08-03T10:13:42Z</time>
      </trkpt>
      <trkpt lat="47.23664" lon="5.88393">
        <ele>263.8</ele>
        <time>2024-08-03T10:13:43Z</time>
      </trkpt>
      <trkpt lat="47.23662" lon="5.88395">
        <ele>263.8</ele>
        <time>2024-08-03T10:13:44Z</time>
      </trkpt>
      <trkpt lat="47.2366" lon="5.88399">
        <ele>264</ele>
        <time>2024-08-03T10:13:45Z</time>
      </trkpt>
      <trkpt lat="47.23658" lon="5.88402">
        <ele>264</ele>
        <time>2024-08-03T10:13:46Z</time>
      </trkpt>
      <trkpt lat="47.23656" lon="5.88406">
        <ele>264.2</ele>
        <time>2024-08-03T10:13:47Z</time>
      </trkpt>
      <trkpt lat="47.23654" lon="5.88409">
        <ele>264.4</ele>
        <time>2024-08-03T10:13:48Z</time>
      </trkpt>
      <trkpt lat="47.23651" lon="5.88412">
        <ele>264.4</ele>
        <time>2024-08-03T10:13:49Z</time>
      </trkpt>
      <trkpt lat="47.23649" lon="5.88415">
        <ele>264.4</ele>
        <time>2024-08-03T10:13:50Z</time>
      </trkpt>
      <trkpt lat="47.23647" lon="5.88417">
        <ele>264.6</ele>
        <time>2024-08-03T10:13:51Z</time>
      </trkpt>
      <trkpt lat="47.23645" lon="5.8842">
        <ele>264.4</ele>
        <time>2024-08-03T10:13:52Z</time>
      </trkpt>
      <trkpt lat="47.23643" lon="5.88423">
        <ele>264.4</ele>
        <time>2024-08-03T10:13:53Z</time>
      </trkpt>
      <trkpt lat="47.23641" lon="5.88426">
        <ele>264.4</ele>
        <time>2024-08-03T10:13:54Z</time>
      </trkpt>
      <trkpt lat="47.23639" lon="5.88428">
        <ele>264.6</ele>
        <time>2024-08-03T10:13:55Z</time>
      </trkpt>
      <trkpt lat="47.23637" lon="5.8843">
        <ele>264.6</ele>
        <time>2024-08-03T10:13:56Z</time>
      </trkpt>
      <trkpt lat="47.23635" lon="5.88432">
        <ele>264.6</ele>
        <time>2024-08-03T10:13:57Z</time>
      </trkpt>
      <trkpt lat="47.23634" lon="5.88434">
        <ele>264.8</ele>
        <time>2024-08-03T10:13:58Z</time>
      </trkpt>
      <trkpt lat="47.23633" lon="5.88436">
        <ele>264.8</ele>
        <time>2024-08-03T10:13:59Z</time>
      </trkpt>
      <trkpt lat="47.23631" lon="5.88439">
        <ele>264.8</ele>
        <time>2024-08-03T10:14:00Z</time>
      </trkpt>
      <trkpt lat="47.2363" lon="5.88441">
        <ele>265</ele>
        <time>2024-08-03T10:14:01Z</time>
      </trkpt>
      <trkpt lat="47.23628" lon="5.88444">
        <ele>265.2</ele>
        <time>2024-08-03T10:14:02Z</time>
      </trkpt>
      <trkpt lat="47.23626" lon="5.88446">
        <ele>265.4</ele>
        <time>2024-08-03T10:14:03Z</time>
      </trkpt>
      <trkpt lat="47.23624" lon="5.88447">
        <ele>265.8</ele>
        <time>2024-08-03T10:14:04Z</time>
      </trkpt>
      <trkpt lat="47.23622" lon="5.88448">
        <ele>266</ele>
        <time>2024-08-03T10:14:05Z</time>
      </trkpt>
      <trkpt lat="47.2362" lon="5.88448">
        <ele>266.2</ele>
        <time>2024-08-03T10:14:06Z</time>
      </trkpt>
      <trkpt lat="47.23618" lon="5.88448">
        <ele>266.2</ele>
        <time>2024-08-03T10:14:07Z</time>
      </trkpt>
      <trkpt lat="47.23615" lon="5.88448">
        <ele>266.6</ele>
        <time>2024-08-03T10:14:08Z</time>
      </trkpt>
      <trkpt lat="47.23613" lon="5.88447">
        <ele>267</ele>
        <time>2024-08-03T10:14:09Z</time>
      </trkpt>
      <trkpt lat="47.2361" lon="5.88447">
        <ele>267.2</ele>
        <time>2024-08-03T10:14:10Z</time>
      </trkpt>
      <trkpt lat="47.23608" lon="5.88447">
        <ele>267.4</ele>
        <time>2024-08-03T10:14:11Z</time>
      </trkpt>
      <trkpt lat="47.23606" lon="5.88446">
        <ele>267.8</ele>
        <time>2024-08-03T10:14:12Z</time>
      </trkpt>
      <trkpt lat="47.23604" lon="5.88446">
        <ele>268.2</ele>
        <time>2024-08-03T10:14:13Z</time>
      </trkpt>
      <trkpt lat="47.23602" lon="5.88447">
        <ele>268.6</ele>
        <time>2024-08-03T10:14:14Z</time>
      </trkpt>
      <trkpt lat="47.23601" lon="5.88447">
        <ele>269</ele>
        <time>2024-08-03T10:14:15Z</time>
      </trkpt>
      <trkpt lat="47.236" lon="5.88448">
        <ele>269</ele>
        <time>2024-08-03T10:14:16Z</time>
      </trkpt>
      <trkpt lat="47.23598" lon="5.88449">
        <ele>269.4</ele>
        <time>2024-08-03T10:14:17Z</time>
      </trkpt>
      <trkpt lat="47.23597" lon="5.88449">
        <ele>269.6</ele>
        <time>2024-08-03T10:14:18Z</time>
      </trkpt>
      <trkpt lat="47.23596" lon="5.88449">
        <ele>269.6</ele>
        <time>2024-08-03T10:14:19Z</time>
      </trkpt>
      <trkpt lat="47.23593" lon="5.88447">
        <ele>269.8</ele>
        <time>2024-08-03T10:14:20Z</time>
      </trkpt>
      <trkpt lat="47.23591" lon="5.88446">
        <ele>270</ele>
        <time>2024-08-03T10:14:21Z</time>
      </trkpt>
      <trkpt lat="47.23588" lon="5.88446">
        <ele>270.4</ele>
        <time>2024-08-03T10:14:22Z</time>
      </trkpt>
      <trkpt lat="47.23585" lon="5.88445">
        <ele>270.4</ele>
        <time>2024-08-03T10:14:23Z</time>
      </trkpt>
      <trkpt lat="47.23582" lon="5.88444">
        <ele>270.4</ele>
        <time>2024-08-03T10:14:24Z</time>
      </trkpt>
      <trkpt lat="47.2358" lon="5.88443">
        <ele>270.6</ele>
        <time>2024-08-03T10:14:25Z</time>
      </trkpt>
      <trkpt lat="47.23577" lon="5.88441">
        <ele>270.6</ele>
        <time>2024-08-03T10:14:26Z</time>
      </trkpt>
      <trkpt lat="47.23575" lon="5.8844">
        <ele>270.8</ele>
        <time>2024-08-03T10:14:27Z</time>
      </trkpt>
      <trkpt lat="47.23573" lon="5.88439">
        <ele>271</ele>
        <time>2024-08-03T10:14:28Z</time>
      </trkpt>
      <trkpt lat="47.23571" lon="5.88437">
        <ele>271</ele>
        <time>2024-08-03T10:14:29Z</time>
      </trkpt>
      <trkpt lat="47.23569" lon="5.88436">
        <ele>271</ele>
        <time>2024-08-03T10:14:30Z</time>
      </trkpt>
      <trkpt lat="47.23568" lon="5.88434">
        <ele>271.2</ele>
        <time>2024-08-03T10:14:31Z</time>
      </trkpt>
      <trkpt lat="47.23566" lon="5.88432">
        <ele>271.2</ele>
        <time>2024-08-03T10:14:32Z</time>
      </trkpt>
      <trkpt lat="47.23564" lon="5.88429">
        <ele>271.4</ele>
        <time>2024-08-03T10:14:33Z</time>
      </trkpt>
      <trkpt lat="47.23562" lon="5.88428">
        <ele>271.6</ele>
        <time>2024-08-03T10:14:34Z</time>
      </trkpt>
      <trkpt lat="47.2356" lon="5.88428">
        <ele>271.6</ele>
        <time>2024-08-03T10:14:35Z</time>
      </trkpt>
      <trkpt lat="47.23557" lon="5.88428">
        <ele>271.8</ele>
        <time>2024-08-03T10:14:36Z</time>
      </trkpt>
      <trkpt lat="47.23555" lon="5.88428">
        <ele>272</ele>
        <time>2024-08-03T10:14:37Z</time>
      </trkpt>
      <trkpt lat="47.23553" lon="5.88428">
        <ele>272.2</ele>
        <time>2024-08-03T10:14:38Z</time>
      </trkpt>
      <trkpt lat="47.23551" lon="5.88429">
        <ele>272.6</ele>
        <time>2024-08-03T10:14:39Z</time>
      </trkpt>
      <trkpt lat="47.23549" lon="5.88429">
        <ele>272.8</ele>
        <time>2024-08-03T10:14:40Z</time>
      </trkpt>
      <trkpt lat="47.23547" lon="5.8843">
        <ele>273</ele>
        <time>2024-08-03T10:14:41Z</time>
      </trkpt>
      <trkpt lat="47.23545" lon="5.88431">
        <ele>273.2</ele>
        <time>2024-08-03T10:14:42Z</time>
      </trkpt>
      <trkpt lat="47.23544" lon="5.8843">
        <ele>273.6</ele>
        <time>2024-08-03T10:14:43Z</time>
      </trkpt>
      <trkpt lat="47.23542" lon="5.88429">
        <ele>273.8</ele>
        <time>2024-08-03T10:14:44Z</time>
      </trkpt>
      <trkpt lat="47.23541" lon="5.88427">
        <ele>274</ele>
        <time>2024-08-03T10:14:45Z</time>
      </trkpt>
      <trkpt lat="47.23539" lon="5.88427">
        <ele>274.2</ele>
        <time>2024-08-03T10:14:46Z</time>
      </trkpt>
      <trkpt lat="47.23537" lon="5.88426">
        <ele>274.6</ele>
        <time>2024-08-03T10:14:47Z</time>
      </trkpt>
      <trkpt lat="47.23535" lon="5.88426">
        <ele>275</ele>
        <time>2024-08-03T10:14:48Z</time>
      </trkpt>
      <trkpt lat="47.23533" lon="5.88427">
        <ele>275.4</ele>
        <time>2024-08-03T10:14:49Z</time>
      </trkpt>
      <trkpt lat="47.23531" lon="5.88428">
        <ele>275.8</ele>
        <time>2024-08-03T10:14:50Z</time>
      </trkpt>
      <trkpt lat="47.2353" lon="5.88429">
        <ele>275.8</ele>
        <time>2024-08-03T10:14:51Z</time>
      </trkpt>
      <trkpt lat="47.23528" lon="5.88429">
        <ele>276.2</ele>
        <time>2024-08-03T10:14:52Z</time>
      </trkpt>
      <trkpt lat="47.23527" lon="5.88429">
        <ele>276.6</ele>
        <time>2024-08-03T10:14:53Z</time>
      </trkpt>
      <trkpt lat="47.23526" lon="5.88429">
        <ele>277</ele>
        <time>2024-08-03T10:14:54Z</time>
      </trkpt>
      <trkpt lat="47.23526" lon="5.88428">
        <ele>277.4</ele>
        <time>2024-08-03T10:14:55Z</time>
      </trkpt>
      <trkpt lat="47.23525" lon="5.88427">
        <ele>277.6</ele>
        <time>2024-08-03T10:14:56Z</time>
      </trkpt>
      <trkpt lat="47.23524" lon="5.88425">
        <ele>278</ele>
        <time>2024-08-03T10:14:57Z</time>
      </trkpt>
      <trkpt lat="47.23525" lon="5.88421">
        <ele>278.4</ele>
        <time>2024-08-03T10:14:58Z</time>
      </trkpt>
      <trkpt lat="47.23524" lon="5.88417">
        <ele>278.8</ele>
        <time>2024-08-03T10:14:59Z</time>
      </trkpt>
      <trkpt lat="47.23523" lon="5.88415">
        <ele>279.2</ele>
        <time>2024-08-03T10:15:00Z</time>
      </trkpt>
      <trkpt lat="47.23522" lon="5.88412">
        <ele>279.4</ele>
        <time>2024-08-03T10:15:01Z</time>
      </trkpt>
      <trkpt lat="47.23521" lon="5.88411">
        <ele>279.6</ele>
        <time>2024-08-03T10:15:02Z</time>
      </trkpt>
      <trkpt lat="47.23519" lon="5.88409">
        <ele>280</ele>
        <time>2024-08-03T10:15:03Z</time>
      </trkpt>
      <trkpt lat="47.23518" lon="5.88408">
        <ele>280.4</ele>
        <time>2024-08-03T10:15:04Z</time>
      </trkpt>
      <trkpt lat="47.23516" lon="5.88407">
        <ele>280.4</ele>
        <time>2024-08-03T10:15:05Z</time>
      </trkpt>
      <trkpt lat="47.23514" lon="5.88405">
        <ele>280.6</ele>
        <time>2024-08-03T10:15:06Z</time>
      </trkpt>
      <trkpt lat="47.23512" lon="5.88404">
        <ele>281</ele>
        <time>2024-08-03T10:15:07Z</time>
      </trkpt>
      <trkpt lat="47.23511" lon="5.88402">
        <ele>281.2</ele>
        <time>2024-08-03T10:15:08Z</time>
      </trkpt>
      <trkpt lat="47.2351" lon="5.88401">
        <ele>281.4</ele>
        <time>2024-08-03T10:15:09Z</time>
      </trkpt>
      <trkpt lat="47.2351" lon="5.88399">
        <ele>282</ele>
        <time>2024-08-03T10:15:10Z</time>
      </trkpt>
      <trkpt lat="47.23507" lon="5.88399">
        <ele>282</ele>
        <time>2024-08-03T10:15:11Z</time>
      </trkpt>
      <trkpt lat="47.23507" lon="5.88398">
        <ele>282.2</ele>
        <time>2024-08-03T10:15:12Z</time>
      </trkpt>
      <trkpt lat="47.23507" lon="5.88397">
        <ele>282.2</ele>
        <time>2024-08-03T10:15:13Z</time>
      </trkpt>
      <trkpt lat="47.23506" lon="5.88397">
        <ele>282.2</ele>
        <time>2024-08-03T10:15:14Z</time>
      </trkpt>
      <trkpt lat="47.23506" lon="5.88397">
        <ele>282.4</ele>
        <time>2024-08-03T10:15:15Z</time>
      </trkpt>
      <trkpt lat="47.23506" lon="5.88398">
        <ele>282.4</ele>
        <time>2024-08-03T10:15:16Z</time>
      </trkpt>
      <trkpt lat="47.23506" lon="5.88398">
        <ele>282.6</ele>
        <time>2024-08-03T10:15:17Z</time>
      </trkpt>
      <trkpt lat="47.23506" lon="5.88398">
        <ele>283</ele>
        <time>2024-08-03T10:15:18Z</time>
      </trkpt>
      <trkpt lat="47.23505" lon="5.88398">
        <ele>282.8</ele>
        <time>2024-08-03T10:15:19Z</time>
      </trkpt>
      <trkpt lat="47.23505" lon="5.88398">
        <ele>283</ele>
        <time>2024-08-03T10:15:20Z</time>
      </trkpt>
      <trkpt lat="47.23505" lon="5.88398">
        <ele>283</ele>
        <time>2024-08-03T10:15:21Z</time>
      </trkpt>
      <trkpt lat="47.23506" lon="5.88397">
        <ele>283</ele>
        <time>2024-08-03T10:15:22Z</time>
      </trkpt>
      <trkpt lat="47.23506" lon="5.88397">
        <ele>283</ele>
        <time>2024-08-03T10:15:23Z</time>
      </trkpt>
      <trkpt lat="47.23506" lon="5.88396">
        <ele>283</ele>
        <time>2024-08-03T10:15:24Z</time>
      </trkpt>
      <trkpt lat="47.23506" lon="5.88396">
        <ele>283</ele>
        <time>2024-08-03T10:15:25Z</time>
      </trkpt>
      <trkpt lat="47.23506" lon="5.88396">
        <ele>283</ele>
        <time>2024-08-03T10:15:26Z</time>
      </trkpt>
      <trkpt lat="47.23506" lon="5.88396">
        <ele>283</ele>
        <time>2024-08-03T10:15:27Z</time>
      </trkpt>
      <trkpt lat="47.23506" lon="5.88396">
        <ele>283.2</ele>
        <time>2024-08-03T10:15:28Z</time>
      </trkpt>
      <trkpt lat="47.23506" lon="5.88396">
        <ele>283.2</ele>
        <time>2024-08-03T10:15:29Z</time>
      </trkpt>
      <trkpt lat="47.23507" lon="5.88396">
        <ele>283</ele>
        <time>2024-08-03T10:15:30Z</time>
      </trkpt>
      <trkpt lat="47.23507" lon="5.88396">
        <ele>283.2</ele>
        <time>2024-08-03T10:15:31Z</time>
      </trkpt>
      <trkpt lat="47.23507" lon="5.88397">
        <ele>283</ele>
        <time>2024-08-03T10:15:32Z</time>
      </trkpt>
      <trkpt lat="47.23507" lon="5.88397">
        <ele>283.2</ele>
        <time>2024-08-03T10:15:33Z</time>
      </trkpt>
      <trkpt lat="47.23507" lon="5.88397">
        <ele>283</ele>
        <time>2024-08-03T10:15:34Z</time>
      </trkpt>
      <trkpt lat="47.23507" lon="5.88397">
        <ele>283</ele>
        <time>2024-08-03T10:15:35Z</time>
      </trkpt>
      <trkpt lat="47.23507" lon="5.88397">
        <ele>283</ele>
        <time>2024-08-03T10:15:36Z</time>
      </trkpt>
      <trkpt lat="47.23507" lon="5.88397">
        <ele>283.2</ele>
        <time>2024-08-03T10:15:37Z</time>
      </trkpt>
      <trkpt lat="47.23507" lon="5.88396">
        <ele>283</ele>
        <time>2024-08-03T10:15:38Z</time>
      </trkpt>
      <trkpt lat="47.23507" lon="5.88396">
        <ele>283</ele>
        <time>2024-08-03T10:15:39Z</time>
      </trkpt>
      <trkpt lat="47.23507" lon="5.88396">
        <ele>283.2</ele>
        <time>2024-08-03T10:15:40Z</time>
      </trkpt>
      <trkpt lat="47.23508" lon="5.88395">
        <ele>283</ele>
        <time>2024-08-03T10:15:41Z</time>
      </trkpt>
      <trkpt lat="47.23508" lon="5.88395">
        <ele>283</ele>
        <time>2024-08-03T10:15:42Z</time>
      </trkpt>
      <trkpt lat="47.23508" lon="5.88395">
        <ele>283</ele>
        <time>2024-08-03T10:15:43Z</time>
      </trkpt>
      <trkpt lat="47.23508" lon="5.88395">
        <ele>283</ele>
        <time>2024-08-03T10:15:44Z</time>
      </trkpt>
      <trkpt lat="47.23508" lon="5.88395">
        <ele>283</ele>
        <time>2024-08-03T10:15:45Z</time>
      </trkpt>
      <trkpt lat="47.23508" lon="5.88395">
        <ele>283</ele>
        <time>2024-08-03T10:15:46Z</time>
      </trkpt>
      <trkpt lat="47.23508" lon="5.88395">
        <ele>283</ele>
        <time>2024-08-03T10:15:47Z</time>
      </trkpt>
      <trkpt lat="47.23508" lon="5.88395">
        <ele>283.2</ele>
        <time>2024-08-03T10:15:48Z</time>
      </trkpt>
      <trkpt lat="47.23508" lon="5.88395">
        <ele>283</ele>
        <time>2024-08-03T10:15:49Z</time>
      </trkpt>
      <trkpt lat="47.23508" lon="5.88395">
        <ele>283</ele>
        <time>2024-08-03T10:15:50Z</time>
      </trkpt>
      <trkpt lat="47.23508" lon="5.88395">
        <ele>283</ele>
        <time>2024-08-03T10:15:51Z</time>
      </trkpt>
      <trkpt lat="47.23508" lon="5.88395">
        <ele>283</ele>
        <time>2024-08-03T10:15:52Z</time>
      </trkpt>
      <trkpt lat="47.23508" lon="5.88395">
        <ele>283</ele>
        <time>2024-08-03T10:15:53Z</time>
      </trkpt>
      <trkpt lat="47.23508" lon="5.88395">
        <ele>283</ele>
        <time>2024-08-03T10:15:54Z</time>
      </trkpt>
      <trkpt lat="47.23508" lon="5.88395">
        <ele>283</ele>
        <time>2024-08-03T10:15:55Z</time>
      </trkpt>
      <trkpt lat="47.23508" lon="5.88395">
        <ele>283</ele>
        <time>2024-08-03T10:15:56Z</time>
      </trkpt>
      <trkpt lat="47.23508" lon="5.88395">
        <ele>283</ele>
        <time>2024-08-03T10:15:57Z</time>
      </trkpt>
      <trkpt lat="47.23508" lon="5.88395">
        <ele>283</ele>
        <time>2024-08-03T10:15:58Z</time>
      </trkpt>
      <trkpt lat="47.23508" lon="5.88395">
        <ele>283</ele>
        <time>2024-08-03T10:15:59Z</time>
      </trkpt>
      <trkpt lat="47.23508" lon="5.88395">
        <ele>283</ele>
        <time>2024-08-03T10:16:00Z</time>
      </trkpt>
      <trkpt lat="47.23508" lon="5.88396">
        <ele>283</ele>
        <time>2024-08-03T10:16:01Z</time>
      </trkpt>
      <trkpt lat="47.23508" lon="5.88396">
        <ele>283</ele>
        <time>2024-08-03T10:16:02Z</time>
      </trkpt>
      <trkpt lat="47.23508" lon="5.88396">
        <ele>283</ele>
        <time>2024-08-03T10:16:03Z</time>
      </trkpt>
      <trkpt lat="47.23508" lon="5.88396">
        <ele>283</ele>
        <time>2024-08-03T10:16:04Z</time>
      </trkpt>
      <trkpt lat="47.23508" lon="5.88396">
        <ele>283</ele>
        <time>2024-08-03T10:16:05Z</time>
      </trkpt>
      <trkpt lat="47.23508" lon="5.88396">
        <ele>283</ele>
        <time>2024-08-03T10:16:06Z</time>
      </trkpt>
      <trkpt lat="47.23508" lon="5.88396">
        <ele>283</ele>
        <time>2024-08-03T10:16:07Z</time>
      </trkpt>
      <trkpt lat="47.23508" lon="5.88396">
        <ele>283</ele>
        <time>2024-08-03T10:16:08Z</time>
      </trkpt>
      <trkpt lat="47.23508" lon="5.88396">
        <ele>283</ele>
        <time>2024-08-03T10:16:09Z</time>
      </trkpt>
      <trkpt lat="47.23508" lon="5.88396">
        <ele>283</ele>
        <time>2024-08-03T10:16:10Z</time>
      </trkpt>
      <trkpt lat="47.23508" lon="5.88396">
        <ele>283</ele>
        <time>2024-08-03T10:16:11Z</time>
      </trkpt>
      <trkpt lat="47.23508" lon="5.88396">
        <ele>283</ele>
        <time>2024-08-03T10:16:12Z</time>
      </trkpt>
      <trkpt lat="47.23508" lon="5.88395">
        <ele>283.2</ele>
        <time>2024-08-03T10:16:13Z</time>
      </trkpt>
      <trkpt lat="47.23508" lon="5.88395">
        <ele>283.2</ele>
        <time>2024-08-03T10:16:14Z</time>
      </trkpt>
      <trkpt lat="47.23508" lon="5.88395">
        <ele>283.2</ele>
        <time>2024-08-03T10:16:15Z</time>
      </trkpt>
      <trkpt lat="47.23508" lon="5.88395">
        <ele>283</ele>
        <time>2024-08-03T10:16:16Z</time>
      </trkpt>
      <trkpt lat="47.23508" lon="5.88395">
        <ele>283.2</ele>
        <time>2024-08-03T10:16:17Z</time>
      </trkpt>
      <trkpt lat="47.23508" lon="5.88395">
        <ele>283.2</ele>
        <time>2024-08-03T10:16:18Z</time>
      </trkpt>
      <trkpt lat="47.23508" lon="5.88395">
        <ele>283.2</ele>
        <time>2024-08-03T10:16:19Z</time>
      </trkpt>
      <trkpt lat="47.23508" lon="5.88395">
        <ele>283.2</ele>
        <time>2024-08-03T10:16:20Z</time>
      </trkpt>
      <trkpt lat="47.23508" lon="5.88395">
        <ele>283.2</ele>
        <time>2024-08-03T10:16:21Z</time>
      </trkpt>
      <trkpt lat="47.23509" lon="5.88395">
        <ele>283.2</ele>
        <time>2024-08-03T10:16:22Z</time>
      </trkpt>
      <trkpt lat="47.23509" lon="5.88396">
        <ele>283.2</ele>
        <time>2024-08-03T10:16:23Z</time>
      </trkpt>
      <trkpt lat="47.2351" lon="5.88396">
        <ele>283.2</ele>
        <time>2024-08-03T10:16:24Z</time>
      </trkpt>
      <trkpt lat="47.23511" lon="5.88397">
        <ele>283.2</ele>
        <time>2024-08-03T10:16:25Z</time>
      </trkpt>
      <trkpt lat="47.23512" lon="5.88397">
        <ele>283.2</ele>
        <time>2024-08-03T10:16:26Z</time>
      </trkpt>
      <trkpt lat="47.23513" lon="5.88398">
        <ele>283.4</ele>
        <time>2024-08-03T10:16:27Z</time>
      </trkpt>
      <trkpt lat="47.23514" lon="5.884">
        <ele>283.2</ele>
        <time>2024-08-03T10:16:28Z</time>
      </trkpt>
      <trkpt lat="47.23516" lon="5.88401">
        <ele>283.2</ele>
        <time>2024-08-03T10:16:29Z</time>
      </trkpt>
      <trkpt lat="47.23518" lon="5.88403">
        <ele>283.2</ele>
        <time>2024-08-03T10:16:30Z</time>
      </trkpt>
      <trkpt lat="47.2352" lon="5.88405">
        <ele>283.4</ele>
        <time>2024-08-03T10:16:31Z</time>
      </trkpt>
      <trkpt lat="47.23521" lon="5.88407">
        <ele>283.2</ele>
        <time>2024-08-03T10:16:32Z</time>
      </trkpt>
      <trkpt lat="47.23523" lon="5.88408">
        <ele>283.2</ele>
        <time>2024-08-03T10:16:33Z</time>
      </trkpt>
      <trkpt lat="47.23525" lon="5.88409">
        <ele>283.2</ele>
        <time>2024-08-03T10:16:34Z</time>
      </trkpt>
      <trkpt lat="47.23527" lon="5.8841">
        <ele>283.2</ele>
        <time>2024-08-03T10:16:35Z</time>
      </trkpt>
      <trkpt lat="47.23528" lon="5.8841">
        <ele>283</ele>
        <time>2024-08-03T10:16:36Z</time>
      </trkpt>
      <trkpt lat="47.23529" lon="5.8841">
        <ele>283</ele>
        <time>2024-08-03T10:16:37Z</time>
      </trkpt>
      <trkpt lat="47.23531" lon="5.88411">
        <ele>283</ele>
        <time>2024-08-03T10:16:38Z</time>
      </trkpt>
      <trkpt lat="47.23533" lon="5.8841">
        <ele>282.6</ele>
        <time>2024-08-03T10:16:39Z</time>
      </trkpt>
      <trkpt lat="47.23535" lon="5.88409">
        <ele>282.6</ele>
        <time>2024-08-03T10:16:40Z</time>
      </trkpt>
      <trkpt lat="47.23538" lon="5.88409">
        <ele>282.6</ele>
        <time>2024-08-03T10:16:41Z</time>
      </trkpt>
      <trkpt lat="47.23541" lon="5.88409">
        <ele>282.4</ele>
        <time>2024-08-03T10:16:42Z</time>
      </trkpt>
      <trkpt lat="47.23544" lon="5.88409">
        <ele>282</ele>
        <time>2024-08-03T10:16:43Z</time>
      </trkpt>
      <trkpt lat="47.23547" lon="5.88409">
        <ele>281.8</ele>
        <time>2024-08-03T10:16:44Z</time>
      </trkpt>
      <trkpt lat="47.23549" lon="5.8841">
        <ele>281.6</ele>
        <time>2024-08-03T10:16:45Z</time>
      </trkpt>
      <trkpt lat="47.23552" lon="5.88411">
        <ele>281.2</ele>
        <time>2024-08-03T10:16:46Z</time>
      </trkpt>
      <trkpt lat="47.23556" lon="5.88413">
        <ele>281</ele>
        <time>2024-08-03T10:16:47Z</time>
      </trkpt>
      <trkpt lat="47.2356" lon="5.88416">
        <ele>280.6</ele>
        <time>2024-08-03T10:16:48Z</time>
      </trkpt>
      <trkpt lat="47.23564" lon="5.8842">
        <ele>280.2</ele>
        <time>2024-08-03T10:16:49Z</time>
      </trkpt>
      <trkpt lat="47.23569" lon="5.88425">
        <ele>279.6</ele>
        <time>2024-08-03T10:16:50Z</time>
      </trkpt>
      <trkpt lat="47.23574" lon="5.8843">
        <ele>278.8</ele>
        <time>2024-08-03T10:16:51Z</time>
      </trkpt>
      <trkpt lat="47.2358" lon="5.88437">
        <ele>278.4</ele>
        <time>2024-08-03T10:16:52Z</time>
      </trkpt>
      <trkpt lat="47.23587" lon="5.88445">
        <ele>277.8</ele>
        <time>2024-08-03T10:16:53Z</time>
      </trkpt>
      <trkpt lat="47.23592" lon="5.88452">
        <ele>277.2</ele>
        <time>2024-08-03T10:16:54Z</time>
      </trkpt>
      <trkpt lat="47.23597" lon="5.88458">
        <ele>276.6</ele>
        <time>2024-08-03T10:16:55Z</time>
      </trkpt>
      <trkpt lat="47.23601" lon="5.88465">
        <ele>275.6</ele>
        <time>2024-08-03T10:16:56Z</time>
      </trkpt>
      <trkpt lat="47.23604" lon="5.88469">
        <ele>274.8</ele>
        <time>2024-08-03T10:16:57Z</time>
      </trkpt>
      <trkpt lat="47.23606" lon="5.88471">
        <ele>274.2</ele>
        <time>2024-08-03T10:16:58Z</time>
      </trkpt>
      <trkpt lat="47.23607" lon="5.88473">
        <ele>274.2</ele>
        <time>2024-08-03T10:16:59Z</time>
      </trkpt>
      <trkpt lat="47.23609" lon="5.88474">
        <ele>274.2</ele>
        <time>2024-08-03T10:17:00Z</time>
      </trkpt>
      <trkpt lat="47.23609" lon="5.88475">
        <ele>274</ele>
        <time>2024-08-03T10:17:01Z</time>
      </trkpt>
      <trkpt lat="47.2361" lon="5.88477">
        <ele>274</ele>
        <time>2024-08-03T10:17:02Z</time>
      </trkpt>
      <trkpt lat="47.2361" lon="5.88479">
        <ele>274</ele>
        <time>2024-08-03T10:17:03Z</time>
      </trkpt>
      <trkpt lat="47.23611" lon="5.88481">
        <ele>274</ele>
        <time>2024-08-03T10:17:04Z</time>
      </trkpt>
      <trkpt lat="47.23612" lon="5.88483">
        <ele>273.8</ele>
        <time>2024-08-03T10:17:05Z</time>
      </trkpt>
      <trkpt lat="47.23613" lon="5.88485">
        <ele>274</ele>
        <time>2024-08-03T10:17:06Z</time>
      </trkpt>
      <trkpt lat="47.23614" lon="5.88486">
        <ele>274</ele>
        <time>2024-08-03T10:17:07Z</time>
      </trkpt>
      <trkpt lat="47.23614" lon="5.88488">
        <ele>273.8</ele>
        <time>2024-08-03T10:17:08Z</time>
      </trkpt>
      <trkpt lat="47.23615" lon="5.8849">
        <ele>274</ele>
        <time>2024-08-03T10:17:09Z</time>
      </trkpt>
      <trkpt lat="47.23615" lon="5.88493">
        <ele>274.2</ele>
        <time>2024-08-03T10:17:10Z</time>
      </trkpt>
      <trkpt lat="47.23615" lon="5.88495">
        <ele>274.2</ele>
        <time>2024-08-03T10:17:11Z</time>
      </trkpt>
      <trkpt lat="47.23615" lon="5.88497">
        <ele>274.4</ele>
        <time>2024-08-03T10:17:12Z</time>
      </trkpt>
      <trkpt lat="47.23616" lon="5.885">
        <ele>275</ele>
        <time>2024-08-03T10:17:13Z</time>
      </trkpt>
      <trkpt lat="47.23617" lon="5.88502">
        <ele>275.2</ele>
        <time>2024-08-03T10:17:14Z</time>
      </trkpt>
      <trkpt lat="47.23618" lon="5.88503">
        <ele>275.4</ele>
        <time>2024-08-03T10:17:15Z</time>
      </trkpt>
      <trkpt lat="47.23619" lon="5.88505">
        <ele>275.6</ele>
        <time>2024-08-03T10:17:16Z</time>
      </trkpt>
      <trkpt lat="47.23619" lon="5.88507">
        <ele>275.8</ele>
        <time>2024-08-03T10:17:17Z</time>
      </trkpt>
      <trkpt lat="47.2362" lon="5.88508">
        <ele>276.2</ele>
        <time>2024-08-03T10:17:18Z</time>
      </trkpt>
      <trkpt lat="47.23621" lon="5.8851">
        <ele>276.4</ele>
        <time>2024-08-03T10:17:19Z</time>
      </trkpt>
      <trkpt lat="47.23622" lon="5.88511">
        <ele>276.8</ele>
        <time>2024-08-03T10:17:20Z</time>
      </trkpt>
      <trkpt lat="47.23623" lon="5.88512">
        <ele>277</ele>
        <time>2024-08-03T10:17:21Z</time>
      </trkpt>
      <trkpt lat="47.23623" lon="5.88514">
        <ele>277.4</ele>
        <time>2024-08-03T10:17:22Z</time>
      </trkpt>
      <trkpt lat="47.23624" lon="5.88515">
        <ele>277.6</ele>
        <time>2024-08-03T10:17:23Z</time>
      </trkpt>
      <trkpt lat="47.23626" lon="5.88516">
        <ele>277.8</ele>
        <time>2024-08-03T10:17:24Z</time>
      </trkpt>
      <trkpt lat="47.23627" lon="5.88517">
        <ele>277.8</ele>
        <time>2024-08-03T10:17:25Z</time>
      </trkpt>
      <trkpt lat="47.23628" lon="5.88518">
        <ele>277.8</ele>
        <time>2024-08-03T10:17:26Z</time>
      </trkpt>
      <trkpt lat="47.23629" lon="5.8852">
        <ele>278.2</ele>
        <time>2024-08-03T10:17:27Z</time>
      </trkpt>
      <trkpt lat="47.2363" lon="5.88521">
        <ele>278.6</ele>
        <time>2024-08-03T10:17:28Z</time>
      </trkpt>
      <trkpt lat="47.23632" lon="5.88523">
        <ele>278.6</ele>
        <time>2024-08-03T10:17:29Z</time>
      </trkpt>
      <trkpt lat="47.23633" lon="5.88524">
        <ele>278.8</ele>
        <time>2024-08-03T10:17:30Z</time>
      </trkpt>
      <trkpt lat="47.23634" lon="5.88525">
        <ele>279</ele>
        <time>2024-08-03T10:17:31Z</time>
      </trkpt>
      <trkpt lat="47.23635" lon="5.88527">
        <ele>279.4</ele>
        <time>2024-08-03T10:17:32Z</time>
      </trkpt>
      <trkpt lat="47.23636" lon="5.88529">
        <ele>279.6</ele>
        <time>2024-08-03T10:17:33Z</time>
      </trkpt>
      <trkpt lat="47.23637" lon="5.8853">
        <ele>279.8</ele>
        <time>2024-08-03T10:17:34Z</time>
      </trkpt>
      <trkpt lat="47.23638" lon="5.88532">
        <ele>280.2</ele>
        <time>2024-08-03T10:17:35Z</time>
      </trkpt>
      <trkpt lat="47.23639" lon="5.88533">
        <ele>280.6</ele>
        <time>2024-08-03T10:17:36Z</time>
      </trkpt>
      <trkpt lat="47.2364" lon="5.88534">
        <ele>280.8</ele>
        <time>2024-08-03T10:17:37Z</time>
      </trkpt>
      <trkpt lat="47.23641" lon="5.88535">
        <ele>281.2</ele>
        <time>2024-08-03T10:17:38Z</time>
      </trkpt>
      <trkpt lat="47.23642" lon="5.88536">
        <ele>281.4</ele>
        <time>2024-08-03T10:17:39Z</time>
      </trkpt>
      <trkpt lat="47.23643" lon="5.88537">
        <ele>281.4</ele>
        <time>2024-08-03T10:17:40Z</time>
      </trkpt>
      <trkpt lat="47.23644" lon="5.88538">
        <ele>281.8</ele>
        <time>2024-08-03T10:17:41Z</time>
      </trkpt>
      <trkpt lat="47.23645" lon="5.88539">
        <ele>282</ele>
        <time>2024-08-03T10:17:42Z</time>
      </trkpt>
      <trkpt lat="47.23647" lon="5.88539">
        <ele>282.2</ele>
        <time>2024-08-03T10:17:43Z</time>
      </trkpt>
      <trkpt lat="47.23648" lon="5.88539">
        <ele>282.6</ele>
        <time>2024-08-03T10:17:44Z</time>
      </trkpt>
      <trkpt lat="47.23649" lon="5.88539">
        <ele>282.6</ele>
        <time>2024-08-03T10:17:45Z</time>
      </trkpt>
      <trkpt lat="47.23651" lon="5.8854">
        <ele>283</ele>
        <time>2024-08-03T10:17:46Z</time>
      </trkpt>
      <trkpt lat="47.23652" lon="5.88541">
        <ele>283.2</ele>
        <time>2024-08-03T10:17:47Z</time>
      </trkpt>
      <trkpt lat="47.23654" lon="5.88541">
        <ele>283.2</ele>
        <time>2024-08-03T10:17:48Z</time>
      </trkpt>
      <trkpt lat="47.23655" lon="5.88543">
        <ele>283.6</ele>
        <time>2024-08-03T10:17:49Z</time>
      </trkpt>
      <trkpt lat="47.23656" lon="5.88544">
        <ele>283.8</ele>
        <time>2024-08-03T10:17:50Z</time>
      </trkpt>
      <trkpt lat="47.23657" lon="5.88546">
        <ele>283.8</ele>
        <time>2024-08-03T10:17:51Z</time>
      </trkpt>
      <trkpt lat="47.23658" lon="5.88547">
        <ele>284.2</ele>
        <time>2024-08-03T10:17:52Z</time>
      </trkpt>
      <trkpt lat="47.23659" lon="5.88549">
        <ele>284.4</ele>
        <time>2024-08-03T10:17:53Z</time>
      </trkpt>
      <trkpt lat="47.23661" lon="5.8855">
        <ele>284.4</ele>
        <time>2024-08-03T10:17:54Z</time>
      </trkpt>
      <trkpt lat="47.23662" lon="5.88551">
        <ele>284.8</ele>
        <time>2024-08-03T10:17:55Z</time>
      </trkpt>
      <trkpt lat="47.23664" lon="5.88552">
        <ele>285</ele>
        <time>2024-08-03T10:17:56Z</time>
      </trkpt>
      <trkpt lat="47.23666" lon="5.88552">
        <ele>285.2</ele>
        <time>2024-08-03T10:17:57Z</time>
      </trkpt>
      <trkpt lat="47.23667" lon="5.88552">
        <ele>285.6</ele>
        <time>2024-08-03T10:17:58Z</time>
      </trkpt>
      <trkpt lat="47.23668" lon="5.88553">
        <ele>285.8</ele>
        <time>2024-08-03T10:17:59Z</time>
      </trkpt>
      <trkpt lat="47.23669" lon="5.88554">
        <ele>286</ele>
        <time>2024-08-03T10:18:00Z</time>
      </trkpt>
      <trkpt lat="47.2367" lon="5.88555">
        <ele>286.2</ele>
        <time>2024-08-03T10:18:01Z</time>
      </trkpt>
      <trkpt lat="47.23671" lon="5.88556">
        <ele>286.2</ele>
        <time>2024-08-03T10:18:02Z</time>
      </trkpt>
      <trkpt lat="47.23672" lon="5.88558">
        <ele>286.4</ele>
        <time>2024-08-03T10:18:03Z</time>
      </trkpt>
      <trkpt lat="47.23674" lon="5.8856">
        <ele>286.6</ele>
        <time>2024-08-03T10:18:04Z</time>
      </trkpt>
      <trkpt lat="47.23675" lon="5.88561">
        <ele>286.8</ele>
        <time>2024-08-03T10:18:05Z</time>
      </trkpt>
      <trkpt lat="47.23676" lon="5.88563">
        <ele>286.8</ele>
        <time>2024-08-03T10:18:06Z</time>
      </trkpt>
      <trkpt lat="47.23677" lon="5.88564">
        <ele>287</ele>
        <time>2024-08-03T10:18:07Z</time>
      </trkpt>
      <trkpt lat="47.23678" lon="5.88566">
        <ele>287.2</ele>
        <time>2024-08-03T10:18:08Z</time>
      </trkpt>
      <trkpt lat="47.23679" lon="5.88568">
        <ele>287.2</ele>
        <time>2024-08-03T10:18:09Z</time>
      </trkpt>
      <trkpt lat="47.2368" lon="5.8857">
        <ele>287.2</ele>
        <time>2024-08-03T10:18:10Z</time>
      </trkpt>
      <trkpt lat="47.2368" lon="5.88572">
        <ele>287.4</ele>
        <time>2024-08-03T10:18:11Z</time>
      </trkpt>
      <trkpt lat="47.23681" lon="5.88574">
        <ele>287.6</ele>
        <time>2024-08-03T10:18:12Z</time>
      </trkpt>
      <trkpt lat="47.23682" lon="5.88576">
        <ele>287.6</ele>
        <time>2024-08-03T10:18:13Z</time>
      </trkpt>
      <trkpt lat="47.23683" lon="5.88578">
        <ele>288</ele>
        <time>2024-08-03T10:18:14Z</time>
      </trkpt>
      <trkpt lat="47.23683" lon="5.8858">
        <ele>288</ele>
        <time>2024-08-03T10:18:15Z</time>
      </trkpt>
      <trkpt lat="47.23684" lon="5.88583">
        <ele>288.4</ele>
        <time>2024-08-03T10:18:16Z</time>
      </trkpt>
      <trkpt lat="47.23685" lon="5.88586">
        <ele>288.6</ele>
        <time>2024-08-03T10:18:17Z</time>
      </trkpt>
      <trkpt lat="47.23686" lon="5.88588">
        <ele>288.8</ele>
        <time>2024-08-03T10:18:18Z</time>
      </trkpt>
      <trkpt lat="47.23687" lon="5.88591">
        <ele>289</ele>
        <time>2024-08-03T10:18:19Z</time>
      </trkpt>
      <trkpt lat="47.23688" lon="5.88593">
        <ele>289.4</ele>
        <time>2024-08-03T10:18:20Z</time>
      </trkpt>
      <trkpt lat="47.23688" lon="5.88596">
        <ele>289.6</ele>
        <time>2024-08-03T10:18:21Z</time>
      </trkpt>
      <trkpt lat="47.23689" lon="5.88598">
        <ele>289.8</ele>
        <time>2024-08-03T10:18:22Z</time>
      </trkpt>
      <trkpt lat="47.23689" lon="5.88601">
        <ele>290</ele>
        <time>2024-08-03T10:18:23Z</time>
      </trkpt>
      <trkpt lat="47.23689" lon="5.88603">
        <ele>290.2</ele>
        <time>2024-08-03T10:18:24Z</time>
      </trkpt>
      <trkpt lat="47.23689" lon="5.88605">
        <ele>290.4</ele>
        <time>2024-08-03T10:18:25Z</time>
      </trkpt>
      <trkpt lat="47.23689" lon="5.88608">
        <ele>290.6</ele>
        <time>2024-08-03T10:18:26Z</time>
      </trkpt>
      <trkpt lat="47.23689" lon="5.8861">
        <ele>290.8</ele>
        <time>2024-08-03T10:18:27Z</time>
      </trkpt>
      <trkpt lat="47.2369" lon="5.88613">
        <ele>291</ele>
        <time>2024-08-03T10:18:28Z</time>
      </trkpt>
      <trkpt lat="47.2369" lon="5.88615">
        <ele>291.2</ele>
        <time>2024-08-03T10:18:29Z</time>
      </trkpt>
      <trkpt lat="47.2369" lon="5.88618">
        <ele>291.2</ele>
        <time>2024-08-03T10:18:30Z</time>
      </trkpt>
      <trkpt lat="47.2369" lon="5.88621">
        <ele>291.6</ele>
        <time>2024-08-03T10:18:31Z</time>
      </trkpt>
      <trkpt lat="47.2369" lon="5.88623">
        <ele>291.6</ele>
        <time>2024-08-03T10:18:32Z</time>
      </trkpt>
      <trkpt lat="47.2369" lon="5.88627">
        <ele>291.6</ele>
        <time>2024-08-03T10:18:33Z</time>
      </trkpt>
      <trkpt lat="47.2369" lon="5.8863">
        <ele>291.8</ele>
        <time>2024-08-03T10:18:34Z</time>
      </trkpt>
      <trkpt lat="47.23689" lon="5.88632">
        <ele>292.2</ele>
        <time>2024-08-03T10:18:35Z</time>
      </trkpt>
      <trkpt lat="47.23688" lon="5.88635">
        <ele>292.4</ele>
        <time>2024-08-03T10:18:36Z</time>
      </trkpt>
      <trkpt lat="47.23687" lon="5.88638">
        <ele>292.6</ele>
        <time>2024-08-03T10:18:37Z</time>
      </trkpt>
      <trkpt lat="47.23686" lon="5.8864">
        <ele>292.8</ele>
        <time>2024-08-03T10:18:38Z</time>
      </trkpt>
      <trkpt lat="47.23685" lon="5.88643">
        <ele>293</ele>
        <time>2024-08-03T10:18:39Z</time>
      </trkpt>
      <trkpt lat="47.23684" lon="5.88644">
        <ele>293.4</ele>
        <time>2024-08-03T10:18:40Z</time>
      </trkpt>
      <trkpt lat="47.23683" lon="5.88646">
        <ele>293.6</ele>
        <time>2024-08-03T10:18:41Z</time>
      </trkpt>
      <trkpt lat="47.23682" lon="5.88649">
        <ele>293.8</ele>
        <time>2024-08-03T10:18:42Z</time>
      </trkpt>
      <trkpt lat="47.23681" lon="5.88651">
        <ele>294.2</ele>
        <time>2024-08-03T10:18:43Z</time>
      </trkpt>
      <trkpt lat="47.2368" lon="5.88653">
        <ele>294.2</ele>
        <time>2024-08-03T10:18:44Z</time>
      </trkpt>
      <trkpt lat="47.23679" lon="5.88655">
        <ele>294.6</ele>
        <time>2024-08-03T10:18:45Z</time>
      </trkpt>
      <trkpt lat="47.23678" lon="5.88657">
        <ele>294.8</ele>
        <time>2024-08-03T10:18:46Z</time>
      </trkpt>
      <trkpt lat="47.23677" lon="5.88659">
        <ele>295</ele>
        <time>2024-08-03T10:18:47Z</time>
      </trkpt>
      <trkpt lat="47.23675" lon="5.8866">
        <ele>295</ele>
        <time>2024-08-03T10:18:48Z</time>
      </trkpt>
      <trkpt lat="47.23674" lon="5.88662">
        <ele>295.4</ele>
        <time>2024-08-03T10:18:49Z</time>
      </trkpt>
      <trkpt lat="47.23672" lon="5.88663">
        <ele>295.6</ele>
        <time>2024-08-03T10:18:50Z</time>
      </trkpt>
      <trkpt lat="47.23671" lon="5.88664">
        <ele>295.8</ele>
        <time>2024-08-03T10:18:51Z</time>
      </trkpt>
      <trkpt lat="47.23669" lon="5.88666">
        <ele>296</ele>
        <time>2024-08-03T10:18:52Z</time>
      </trkpt>
      <trkpt lat="47.23667" lon="5.88666">
        <ele>296.2</ele>
        <time>2024-08-03T10:18:53Z</time>
      </trkpt>
      <trkpt lat="47.23666" lon="5.88668">
        <ele>296.2</ele>
        <time>2024-08-03T10:18:54Z</time>
      </trkpt>
      <trkpt lat="47.23664" lon="5.88669">
        <ele>296.6</ele>
        <time>2024-08-03T10:18:55Z</time>
      </trkpt>
      <trkpt lat="47.23663" lon="5.88671">
        <ele>296.8</ele>
        <time>2024-08-03T10:18:56Z</time>
      </trkpt>
      <trkpt lat="47.23661" lon="5.88673">
        <ele>297</ele>
        <time>2024-08-03T10:18:57Z</time>
      </trkpt>
      <trkpt lat="47.2366" lon="5.88674">
        <ele>297.2</ele>
        <time>2024-08-03T10:18:58Z</time>
      </trkpt>
      <trkpt lat="47.23658" lon="5.88676">
        <ele>297.4</ele>
        <time>2024-08-03T10:18:59Z</time>
      </trkpt>
      <trkpt lat="47.23657" lon="5.88678">
        <ele>297.6</ele>
        <time>2024-08-03T10:19:00Z</time>
      </trkpt>
      <trkpt lat="47.23656" lon="5.8868">
        <ele>297.8</ele>
        <time>2024-08-03T10:19:01Z</time>
      </trkpt>
      <trkpt lat="47.23655" lon="5.88682">
        <ele>298</ele>
        <time>2024-08-03T10:19:02Z</time>
      </trkpt>
      <trkpt lat="47.23654" lon="5.88685">
        <ele>298.2</ele>
        <time>2024-08-03T10:19:03Z</time>
      </trkpt>
      <trkpt lat="47.23654" lon="5.88687">
        <ele>298.2</ele>
        <time>2024-08-03T10:19:04Z</time>
      </trkpt>
      <trkpt lat="47.23653" lon="5.88689">
        <ele>298.4</ele>
        <time>2024-08-03T10:19:05Z</time>
      </trkpt>
      <trkpt lat="47.23652" lon="5.88692">
        <ele>298.4</ele>
        <time>2024-08-03T10:19:06Z</time>
      </trkpt>
      <trkpt lat="47.23651" lon="5.88693">
        <ele>298.6</ele>
        <time>2024-08-03T10:19:07Z</time>
      </trkpt>
      <trkpt lat="47.23651" lon="5.88695">
        <ele>298.8</ele>
        <time>2024-08-03T10:19:08Z</time>
      </trkpt>
      <trkpt lat="47.2365" lon="5.88697">
        <ele>298.8</ele>
        <time>2024-08-03T10:19:09Z</time>
      </trkpt>
      <trkpt lat="47.23648" lon="5.88699">
        <ele>299</ele>
        <time>2024-08-03T10:19:10Z</time>
      </trkpt>
      <trkpt lat="47.23647" lon="5.887">
        <ele>299.2</ele>
        <time>2024-08-03T10:19:11Z</time>
      </trkpt>
      <trkpt lat="47.23645" lon="5.887">
        <ele>299.4</ele>
        <time>2024-08-03T10:19:12Z</time>
      </trkpt>
      <trkpt lat="47.23643" lon="5.887">
        <ele>299.4</ele>
        <time>2024-08-03T10:19:13Z</time>
      </trkpt>
      <trkpt lat="47.23641" lon="5.887">
        <ele>299.6</ele>
        <time>2024-08-03T10:19:14Z</time>
      </trkpt>
      <trkpt lat="47.23639" lon="5.88698">
        <ele>299.8</ele>
        <time>2024-08-03T10:19:15Z</time>
      </trkpt>
      <trkpt lat="47.23638" lon="5.88697">
        <ele>299.8</ele>
        <time>2024-08-03T10:19:16Z</time>
      </trkpt>
      <trkpt lat="47.23637" lon="5.88695">
        <ele>300</ele>
        <time>2024-08-03T10:19:17Z</time>
      </trkpt>
      <trkpt lat="47.23635" lon="5.88692">
        <ele>300</ele>
        <time>2024-08-03T10:19:18Z</time>
      </trkpt>
      <trkpt lat="47.23633" lon="5.8869">
        <ele>300.4</ele>
        <time>2024-08-03T10:19:19Z</time>
      </trkpt>
      <trkpt lat="47.23632" lon="5.88688">
        <ele>300.6</ele>
        <time>2024-08-03T10:19:20Z</time>
      </trkpt>
      <trkpt lat="47.2363" lon="5.88686">
        <ele>300.6</ele>
        <time>2024-08-03T10:19:21Z</time>
      </trkpt>
      <trkpt lat="47.23628" lon="5.88683">
        <ele>300.6</ele>
        <time>2024-08-03T10:19:22Z</time>
      </trkpt>
      <trkpt lat="47.23626" lon="5.8868">
        <ele>300.6</ele>
        <time>2024-08-03T10:19:23Z</time>
      </trkpt>
      <trkpt lat="47.23625" lon="5.88677">
        <ele>300.6</ele>
        <time>2024-08-03T10:19:24Z</time>
      </trkpt>
      <trkpt lat="47.23623" lon="5.88674">
        <ele>300.8</ele>
        <time>2024-08-03T10:19:25Z</time>
      </trkpt>
      <trkpt lat="47.23622" lon="5.88672">
        <ele>300.6</ele>
        <time>2024-08-03T10:19:26Z</time>
      </trkpt>
      <trkpt lat="47.2362" lon="5.88669">
        <ele>300.6</ele>
        <time>2024-08-03T10:19:27Z</time>
      </trkpt>
      <trkpt lat="47.23619" lon="5.88667">
        <ele>300.6</ele>
        <time>2024-08-03T10:19:28Z</time>
      </trkpt>
      <trkpt lat="47.23617" lon="5.88665">
        <ele>300.6</ele>
        <time>2024-08-03T10:19:29Z</time>
      </trkpt>
      <trkpt lat="47.23616" lon="5.88664">
        <ele>300.6</ele>
        <time>2024-08-03T10:19:30Z</time>
      </trkpt>
      <trkpt lat="47.23614" lon="5.88662">
        <ele>300.8</ele>
        <time>2024-08-03T10:19:31Z</time>
      </trkpt>
      <trkpt lat="47.23613" lon="5.8866">
        <ele>300.6</ele>
        <time>2024-08-03T10:19:32Z</time>
      </trkpt>
      <trkpt lat="47.23612" lon="5.88658">
        <ele>300.6</ele>
        <time>2024-08-03T10:19:33Z</time>
      </trkpt>
      <trkpt lat="47.2361" lon="5.88656">
        <ele>300.4</ele>
        <time>2024-08-03T10:19:34Z</time>
      </trkpt>
      <trkpt lat="47.23609" lon="5.88653">
        <ele>300.4</ele>
        <time>2024-08-03T10:19:35Z</time>
      </trkpt>
      <trkpt lat="47.23607" lon="5.8865">
        <ele>300.4</ele>
        <time>2024-08-03T10:19:36Z</time>
      </trkpt>
      <trkpt lat="47.23606" lon="5.88648">
        <ele>300.2</ele>
        <time>2024-08-03T10:19:37Z</time>
      </trkpt>
      <trkpt lat="47.23604" lon="5.88644">
        <ele>300.2</ele>
        <time>2024-08-03T10:19:38Z</time>
      </trkpt>
      <trkpt lat="47.23602" lon="5.88641">
        <ele>300.4</ele>
        <time>2024-08-03T10:19:39Z</time>
      </trkpt>
      <trkpt lat="47.23599" lon="5.88636">
        <ele>300.2</ele>
        <time>2024-08-03T10:19:40Z</time>
      </trkpt>
      <trkpt lat="47.23598" lon="5.88632">
        <ele>300</ele>
        <time>2024-08-03T10:19:41Z</time>
      </trkpt>
      <trkpt lat="47.23596" lon="5.88628">
        <ele>299.8</ele>
        <time>2024-08-03T10:19:42Z</time>
      </trkpt>
      <trkpt lat="47.23593" lon="5.88625">
        <ele>299.6</ele>
        <time>2024-08-03T10:19:43Z</time>
      </trkpt>
      <trkpt lat="47.23591" lon="5.88621">
        <ele>299.6</ele>
        <time>2024-08-03T10:19:44Z</time>
      </trkpt>
      <trkpt lat="47.23588" lon="5.88617">
        <ele>299.6</ele>
        <time>2024-08-03T10:19:45Z</time>
      </trkpt>
      <trkpt lat="47.23584" lon="5.88614">
        <ele>299.4</ele>
        <time>2024-08-03T10:19:46Z</time>
      </trkpt>
      <trkpt lat="47.23581" lon="5.88613">
        <ele>299.2</ele>
        <time>2024-08-03T10:19:47Z</time>
      </trkpt>
      <trkpt lat="47.23578" lon="5.88613">
        <ele>299</ele>
        <time>2024-08-03T10:19:48Z</time>
      </trkpt>
      <trkpt lat="47.23575" lon="5.88613">
        <ele>299</ele>
        <time>2024-08-03T10:19:49Z</time>
      </trkpt>
      <trkpt lat="47.23572" lon="5.88613">
        <ele>298.8</ele>
        <time>2024-08-03T10:19:50Z</time>
      </trkpt>
      <trkpt lat="47.2357" lon="5.88613">
        <ele>298.8</ele>
        <time>2024-08-03T10:19:51Z</time>
      </trkpt>
      <trkpt lat="47.23567" lon="5.88614">
        <ele>298.8</ele>
        <time>2024-08-03T10:19:52Z</time>
      </trkpt>
      <trkpt lat="47.23564" lon="5.88615">
        <ele>298.8</ele>
        <time>2024-08-03T10:19:53Z</time>
      </trkpt>
      <trkpt lat="47.23562" lon="5.88615">
        <ele>298.8</ele>
        <time>2024-08-03T10:19:54Z</time>
      </trkpt>
      <trkpt lat="47.23559" lon="5.88615">
        <ele>298.8</ele>
        <time>2024-08-03T10:19:55Z</time>
      </trkpt>
      <trkpt lat="47.23556" lon="5.88616">
        <ele>298.6</ele>
        <time>2024-08-03T10:19:56Z</time>
      </trkpt>
      <trkpt lat="47.23553" lon="5.88617">
        <ele>298.8</ele>
        <time>2024-08-03T10:19:57Z</time>
      </trkpt>
      <trkpt lat="47.2355" lon="5.88617">
        <ele>298.8</ele>
        <time>2024-08-03T10:19:58Z</time>
      </trkpt>
      <trkpt lat="47.23547" lon="5.88617">
        <ele>298.8</ele>
        <time>2024-08-03T10:19:59Z</time>
      </trkpt>
      <trkpt lat="47.23543" lon="5.88616">
        <ele>298.8</ele>
        <time>2024-08-03T10:20:00Z</time>
      </trkpt>
      <trkpt lat="47.23539" lon="5.88616">
        <ele>298.8</ele>
        <time>2024-08-03T10:20:01Z</time>
      </trkpt>
      <trkpt lat="47.23535" lon="5.88616">
        <ele>299</ele>
        <time>2024-08-03T10:20:02Z</time>
      </trkpt>
      <trkpt lat="47.23531" lon="5.88615">
        <ele>299</ele>
        <time>2024-08-03T10:20:03Z</time>
      </trkpt>
      <trkpt lat="47.23528" lon="5.88615">
        <ele>299.2</ele>
        <time>2024-08-03T10:20:04Z</time>
      </trkpt>
      <trkpt lat="47.23524" lon="5.88615">
        <ele>299.4</ele>
        <time>2024-08-03T10:20:05Z</time>
      </trkpt>
      <trkpt lat="47.2352" lon="5.88615">
        <ele>299.4</ele>
        <time>2024-08-03T10:20:06Z</time>
      </trkpt>
      <trkpt lat="47.23516" lon="5.88616">
        <ele>299.4</ele>
        <time>2024-08-03T10:20:07Z</time>
      </trkpt>
      <trkpt lat="47.23513" lon="5.88616">
        <ele>299.6</ele>
        <time>2024-08-03T10:20:08Z</time>
      </trkpt>
      <trkpt lat="47.23509" lon="5.88616">
        <ele>299.8</ele>
        <time>2024-08-03T10:20:09Z</time>
      </trkpt>
      <trkpt lat="47.23505" lon="5.88617">
        <ele>299.8</ele>
        <time>2024-08-03T10:20:10Z</time>
      </trkpt>
      <trkpt lat="47.23502" lon="5.88617">
        <ele>300</ele>
        <time>2024-08-03T10:20:11Z</time>
      </trkpt>
      <trkpt lat="47.23499" lon="5.88617">
        <ele>300.2</ele>
        <time>2024-08-03T10:20:12Z</time>
      </trkpt>
      <trkpt lat="47.23495" lon="5.88617">
        <ele>300.2</ele>
        <time>2024-08-03T10:20:13Z</time>
      </trkpt>
      <trkpt lat="47.23491" lon="5.88618">
        <ele>300.6</ele>
        <time>2024-08-03T10:20:14Z</time>
      </trkpt>
      <trkpt lat="47.23487" lon="5.88618">
        <ele>300.6</ele>
        <time>2024-08-03T10:20:15Z</time>
      </trkpt>
      <trkpt lat="47.23483" lon="5.88617">
        <ele>300.8</ele>
        <time>2024-08-03T10:20:16Z</time>
      </trkpt>
      <trkpt lat="47.2348" lon="5.88618">
        <ele>301</ele>
        <time>2024-08-03T10:20:17Z</time>
      </trkpt>
      <trkpt lat="47.23475" lon="5.88617">
        <ele>301</ele>
        <time>2024-08-03T10:20:18Z</time>
      </trkpt>
      <trkpt lat="47.23471" lon="5.88618">
        <ele>301.4</ele>
        <time>2024-08-03T10:20:19Z</time>
      </trkpt>
      <trkpt lat="47.23467" lon="5.88618">
        <ele>301.4</ele>
        <time>2024-08-03T10:20:20Z</time>
      </trkpt>
      <trkpt lat="47.23463" lon="5.88618">
        <ele>301.6</ele>
        <time>2024-08-03T10:20:21Z</time>
      </trkpt>
      <trkpt lat="47.23459" lon="5.88618">
        <ele>301.6</ele>
        <time>2024-08-03T10:20:22Z</time>
      </trkpt>
      <trkpt lat="47.23455" lon="5.88619">
        <ele>301.8</ele>
        <time>2024-08-03T10:20:23Z</time>
      </trkpt>
      <trkpt lat="47.23451" lon="5.88619">
        <ele>302</ele>
        <time>2024-08-03T10:20:24Z</time>
      </trkpt>
      <trkpt lat="47.23447" lon="5.88619">
        <ele>302</ele>
        <time>2024-08-03T10:20:25Z</time>
      </trkpt>
      <trkpt lat="47.23443" lon="5.8862">
        <ele>302.2</ele>
        <time>2024-08-03T10:20:26Z</time>
      </trkpt>
      <trkpt lat="47.23439" lon="5.8862">
        <ele>302.4</ele>
        <time>2024-08-03T10:20:27Z</time>
      </trkpt>
      <trkpt lat="47.23435" lon="5.88621">
        <ele>302.4</ele>
        <time>2024-08-03T10:20:28Z</time>
      </trkpt>
      <trkpt lat="47.23431" lon="5.88621">
        <ele>302.8</ele>
        <time>2024-08-03T10:20:29Z</time>
      </trkpt>
      <trkpt lat="47.23426" lon="5.88621">
        <ele>303</ele>
        <time>2024-08-03T10:20:30Z</time>
      </trkpt>
      <trkpt lat="47.23422" lon="5.88622">
        <ele>303.4</ele>
        <time>2024-08-03T10:20:31Z</time>
      </trkpt>
      <trkpt lat="47.23418" lon="5.88622">
        <ele>303.4</ele>
        <time>2024-08-03T10:20:32Z</time>
      </trkpt>
      <trkpt lat="47.23414" lon="5.88622">
        <ele>303.6</ele>
        <time>2024-08-03T10:20:33Z</time>
      </trkpt>
      <trkpt lat="47.2341" lon="5.88623">
        <ele>303.6</ele>
        <time>2024-08-03T10:20:34Z</time>
      </trkpt>
      <trkpt lat="47.23406" lon="5.88623">
        <ele>303.8</ele>
        <time>2024-08-03T10:20:35Z</time>
      </trkpt>
      <trkpt lat="47.23402" lon="5.88623">
        <ele>303.8</ele>
        <time>2024-08-03T10:20:36Z</time>
      </trkpt>
      <trkpt lat="47.23398" lon="5.88623">
        <ele>304</ele>
        <time>2024-08-03T10:20:37Z</time>
      </trkpt>
      <trkpt lat="47.23393" lon="5.88623">
        <ele>304.2</ele>
        <time>2024-08-03T10:20:38Z</time>
      </trkpt>
      <trkpt lat="47.23389" lon="5.88623">
        <ele>304.4</ele>
        <time>2024-08-03T10:20:39Z</time>
      </trkpt>
      <trkpt lat="47.23385" lon="5.88623">
        <ele>304.8</ele>
        <time>2024-08-03T10:20:40Z</time>
      </trkpt>
      <trkpt lat="47.23381" lon="5.88624">
        <ele>304.8</ele>
        <time>2024-08-03T10:20:41Z</time>
      </trkpt>
      <trkpt lat="47.23376" lon="5.88623">
        <ele>305</ele>
        <time>2024-08-03T10:20:42Z</time>
      </trkpt>
      <trkpt lat="47.23372" lon="5.88623">
        <ele>305.2</ele>
        <time>2024-08-03T10:20:43Z</time>
      </trkpt>
      <trkpt lat="47.23367" lon="5.88623">
        <ele>305.6</ele>
        <time>2024-08-03T10:20:44Z</time>
      </trkpt>
      <trkpt lat="47.23363" lon="5.88623">
        <ele>305.6</ele>
        <time>2024-08-03T10:20:45Z</time>
      </trkpt>
      <trkpt lat="47.23359" lon="5.88623">
        <ele>305.6</ele>
        <time>2024-08-03T10:20:46Z</time>
      </trkpt>
      <trkpt lat="47.23354" lon="5.88623">
        <ele>305.6</ele>
        <time>2024-08-03T10:20:47Z</time>
      </trkpt>
      <trkpt lat="47.2335" lon="5.88623">
        <ele>306</ele>
        <time>2024-08-03T10:20:48Z</time>
      </trkpt>
      <trkpt lat="47.23345" lon="5.88623">
        <ele>306</ele>
        <time>2024-08-03T10:20:49Z</time>
      </trkpt>
      <trkpt lat="47.23341" lon="5.88623">
        <ele>306.2</ele>
        <time>2024-08-03T10:20:50Z</time>
      </trkpt>
      <trkpt lat="47.23336" lon="5.88623">
        <ele>306.2</ele>
        <time>2024-08-03T10:20:51Z</time>
      </trkpt>
      <trkpt lat="47.23332" lon="5.88622">
        <ele>306.4</ele>
        <time>2024-08-03T10:20:52Z</time>
      </trkpt>
      <trkpt lat="47.23328" lon="5.88621">
        <ele>306.6</ele>
        <time>2024-08-03T10:20:53Z</time>
      </trkpt>
      <trkpt lat="47.23324" lon="5.88621">
        <ele>306.6</ele>
        <time>2024-08-03T10:20:54Z</time>
      </trkpt>
      <trkpt lat="47.2332" lon="5.8862">
        <ele>306.8</ele>
        <time>2024-08-03T10:20:55Z</time>
      </trkpt>
      <trkpt lat="47.23316" lon="5.88618">
        <ele>306.6</ele>
        <time>2024-08-03T10:20:56Z</time>
      </trkpt>
      <trkpt lat="47.23312" lon="5.88617">
        <ele>307</ele>
        <time>2024-08-03T10:20:57Z</time>
      </trkpt>
      <trkpt lat="47.23308" lon="5.88616">
        <ele>307</ele>
        <time>2024-08-03T10:20:58Z</time>
      </trkpt>
      <trkpt lat="47.23305" lon="5.88615">
        <ele>307.2</ele>
        <time>2024-08-03T10:20:59Z</time>
      </trkpt>
      <trkpt lat="47.23301" lon="5.88613">
        <ele>307.2</ele>
        <time>2024-08-03T10:21:00Z</time>
      </trkpt>
      <trkpt lat="47.23298" lon="5.88612">
        <ele>307.6</ele>
        <time>2024-08-03T10:21:01Z</time>
      </trkpt>
      <trkpt lat="47.23295" lon="5.88608">
        <ele>307.8</ele>
        <time>2024-08-03T10:21:02Z</time>
      </trkpt>
      <trkpt lat="47.23292" lon="5.88606">
        <ele>308</ele>
        <time>2024-08-03T10:21:03Z</time>
      </trkpt>
      <trkpt lat="47.23289" lon="5.88603">
        <ele>308</ele>
        <time>2024-08-03T10:21:04Z</time>
      </trkpt>
      <trkpt lat="47.23285" lon="5.886">
        <ele>308.4</ele>
        <time>2024-08-03T10:21:05Z</time>
      </trkpt>
      <trkpt lat="47.23282" lon="5.88597">
        <ele>308.6</ele>
        <time>2024-08-03T10:21:06Z</time>
      </trkpt>
      <trkpt lat="47.23278" lon="5.88593">
        <ele>308.6</ele>
        <time>2024-08-03T10:21:07Z</time>
      </trkpt>
      <trkpt lat="47.23275" lon="5.88588">
        <ele>308.8</ele>
        <time>2024-08-03T10:21:08Z</time>
      </trkpt>
      <trkpt lat="47.23271" lon="5.88584">
        <ele>308.8</ele>
        <time>2024-08-03T10:21:09Z</time>
      </trkpt>
      <trkpt lat="47.23268" lon="5.88578">
        <ele>308.8</ele>
        <time>2024-08-03T10:21:10Z</time>
      </trkpt>
      <trkpt lat="47.23265" lon="5.88572">
        <ele>309</ele>
        <time>2024-08-03T10:21:11Z</time>
      </trkpt>
      <trkpt lat="47.23261" lon="5.88566">
        <ele>308.8</ele>
        <time>2024-08-03T10:21:12Z</time>
      </trkpt>
      <trkpt lat="47.23258" lon="5.8856">
        <ele>309</ele>
        <time>2024-08-03T10:21:13Z</time>
      </trkpt>
      <trkpt lat="47.23254" lon="5.88554">
        <ele>309</ele>
        <time>2024-08-03T10:21:14Z</time>
      </trkpt>
      <trkpt lat="47.2325" lon="5.88548">
        <ele>309</ele>
        <time>2024-08-03T10:21:15Z</time>
      </trkpt>
      <trkpt lat="47.23247" lon="5.88542">
        <ele>309</ele>
        <time>2024-08-03T10:21:16Z</time>
      </trkpt>
      <trkpt lat="47.23242" lon="5.88536">
        <ele>309</ele>
        <time>2024-08-03T10:21:17Z</time>
      </trkpt>
      <trkpt lat="47.23237" lon="5.8853">
        <ele>309</ele>
        <time>2024-08-03T10:21:18Z</time>
      </trkpt>
      <trkpt lat="47.23232" lon="5.88523">
        <ele>308.8</ele>
        <time>2024-08-03T10:21:19Z</time>
      </trkpt>
      <trkpt lat="47.23227" lon="5.88516">
        <ele>308.8</ele>
        <time>2024-08-03T10:21:20Z</time>
      </trkpt>
      <trkpt lat="47.23223" lon="5.88509">
        <ele>308.8</ele>
        <time>2024-08-03T10:21:21Z</time>
      </trkpt>
      <trkpt lat="47.23218" lon="5.88502">
        <ele>308.6</ele>
        <time>2024-08-03T10:21:22Z</time>
      </trkpt>
      <trkpt lat="47.23213" lon="5.88494">
        <ele>308.4</ele>
        <time>2024-08-03T10:21:23Z</time>
      </trkpt>
      <trkpt lat="47.23208" lon="5.88486">
        <ele>308.2</ele>
        <time>2024-08-03T10:21:24Z</time>
      </trkpt>
      <trkpt lat="47.23204" lon="5.88479">
        <ele>308</ele>
        <time>2024-08-03T10:21:25Z</time>
      </trkpt>
      <trkpt lat="47.232" lon="5.88471">
        <ele>307.6</ele>
        <time>2024-08-03T10:21:26Z</time>
      </trkpt>
      <trkpt lat="47.23195" lon="5.88465">
        <ele>307.4</ele>
        <time>2024-08-03T10:21:27Z</time>
      </trkpt>
      <trkpt lat="47.23189" lon="5.88459">
        <ele>307.2</ele>
        <time>2024-08-03T10:21:28Z</time>
      </trkpt>
      <trkpt lat="47.23182" lon="5.88455">
        <ele>307.2</ele>
        <time>2024-08-03T10:21:29Z</time>
      </trkpt>
      <trkpt lat="47.23174" lon="5.88453">
        <ele>306.8</ele>
        <time>2024-08-03T10:21:30Z</time>
      </trkpt>
      <trkpt lat="47.23166" lon="5.88452">
        <ele>306.4</ele>
        <time>2024-08-03T10:21:31Z</time>
      </trkpt>
      <trkpt lat="47.23158" lon="5.88454">
        <ele>306.4</ele>
        <time>2024-08-03T10:21:32Z</time>
      </trkpt>
      <trkpt lat="47.2315" lon="5.88457">
        <ele>305.8</ele>
        <time>2024-08-03T10:21:33Z</time>
      </trkpt>
      <trkpt lat="47.23144" lon="5.88462">
        <ele>305.4</ele>
        <time>2024-08-03T10:21:34Z</time>
      </trkpt>
      <trkpt lat="47.23138" lon="5.88467">
        <ele>305.2</ele>
        <time>2024-08-03T10:21:35Z</time>
      </trkpt>
      <trkpt lat="47.23132" lon="5.88473">
        <ele>305</ele>
        <time>2024-08-03T10:21:36Z</time>
      </trkpt>
      <trkpt lat="47.23126" lon="5.88479">
        <ele>304.4</ele>
        <time>2024-08-03T10:21:37Z</time>
      </trkpt>
      <trkpt lat="47.23121" lon="5.88486">
        <ele>304</ele>
        <time>2024-08-03T10:21:38Z</time>
      </trkpt>
      <trkpt lat="47.23117" lon="5.88492">
        <ele>303.8</ele>
        <time>2024-08-03T10:21:39Z</time>
      </trkpt>
      <trkpt lat="47.23112" lon="5.88498">
        <ele>303.6</ele>
        <time>2024-08-03T10:21:40Z</time>
      </trkpt>
      <trkpt lat="47.23108" lon="5.88503">
        <ele>303.2</ele>
        <time>2024-08-03T10:21:41Z</time>
      </trkpt>
      <trkpt lat="47.23103" lon="5.88508">
        <ele>303.2</ele>
        <time>2024-08-03T10:21:42Z</time>
      </trkpt>
      <trkpt lat="47.23098" lon="5.88513">
        <ele>303.2</ele>
        <time>2024-08-03T10:21:43Z</time>
      </trkpt>
      <trkpt lat="47.23093" lon="5.88518">
        <ele>303</ele>
        <time>2024-08-03T10:21:44Z</time>
      </trkpt>
      <trkpt lat="47.23088" lon="5.88523">
        <ele>303</ele>
        <time>2024-08-03T10:21:45Z</time>
      </trkpt>
      <trkpt lat="47.23083" lon="5.88527">
        <ele>303.2</ele>
        <time>2024-08-03T10:21:46Z</time>
      </trkpt>
      <trkpt lat="47.23078" lon="5.88531">
        <ele>303</ele>
        <time>2024-08-03T10:21:47Z</time>
      </trkpt>
      <trkpt lat="47.23072" lon="5.88534">
        <ele>303</ele>
        <time>2024-08-03T10:21:48Z</time>
      </trkpt>
      <trkpt lat="47.23067" lon="5.88538">
        <ele>303</ele>
        <time>2024-08-03T10:21:49Z</time>
      </trkpt>
      <trkpt lat="47.23061" lon="5.8854">
        <ele>303</ele>
        <time>2024-08-03T10:21:50Z</time>
      </trkpt>
      <trkpt lat="47.23055" lon="5.88544">
        <ele>303</ele>
        <time>2024-08-03T10:21:51Z</time>
      </trkpt>
      <trkpt lat="47.23049" lon="5.88547">
        <ele>303</ele>
        <time>2024-08-03T10:21:52Z</time>
      </trkpt>
      <trkpt lat="47.23043" lon="5.88551">
        <ele>303</ele>
        <time>2024-08-03T10:21:53Z</time>
      </trkpt>
      <trkpt lat="47.23037" lon="5.88554">
        <ele>303</ele>
        <time>2024-08-03T10:21:54Z</time>
      </trkpt>
      <trkpt lat="47.23031" lon="5.88557">
        <ele>303</ele>
        <time>2024-08-03T10:21:55Z</time>
      </trkpt>
      <trkpt lat="47.23025" lon="5.88559">
        <ele>302.8</ele>
        <time>2024-08-03T10:21:56Z</time>
      </trkpt>
      <trkpt lat="47.23019" lon="5.88562">
        <ele>302.8</ele>
        <time>2024-08-03T10:21:57Z</time>
      </trkpt>
      <trkpt lat="47.23013" lon="5.88565">
        <ele>302.6</ele>
        <time>2024-08-03T10:21:58Z</time>
      </trkpt>
      <trkpt lat="47.23007" lon="5.88568">
        <ele>302.6</ele>
        <time>2024-08-03T10:21:59Z</time>
      </trkpt>
      <trkpt lat="47.23002" lon="5.88571">
        <ele>302.6</ele>
        <time>2024-08-03T10:22:00Z</time>
      </trkpt>
      <trkpt lat="47.22996" lon="5.88574">
        <ele>302.6</ele>
        <time>2024-08-03T10:22:01Z</time>
      </trkpt>
      <trkpt lat="47.22991" lon="5.88577">
        <ele>302.2</ele>
        <time>2024-08-03T10:22:02Z</time>
      </trkpt>
      <trkpt lat="47.22985" lon="5.88579">
        <ele>301.8</ele>
        <time>2024-08-03T10:22:03Z</time>
      </trkpt>
      <trkpt lat="47.2298" lon="5.88583">
        <ele>301.6</ele>
        <time>2024-08-03T10:22:04Z</time>
      </trkpt>
      <trkpt lat="47.22975" lon="5.88586">
        <ele>301.2</ele>
        <time>2024-08-03T10:22:05Z</time>
      </trkpt>
      <trkpt lat="47.22969" lon="5.88589">
        <ele>301.2</ele>
        <time>2024-08-03T10:22:06Z</time>
      </trkpt>
      <trkpt lat="47.22964" lon="5.88592">
        <ele>301</ele>
        <time>2024-08-03T10:22:07Z</time>
      </trkpt>
      <trkpt lat="47.22959" lon="5.88595">
        <ele>301</ele>
        <time>2024-08-03T10:22:08Z</time>
      </trkpt>
      <trkpt lat="47.22953" lon="5.88599">
        <ele>301</ele>
        <time>2024-08-03T10:22:09Z</time>
      </trkpt>
      <trkpt lat="47.22948" lon="5.88602">
        <ele>300.8</ele>
        <time>2024-08-03T10:22:10Z</time>
      </trkpt>
      <trkpt lat="47.22943" lon="5.88606">
        <ele>300.8</ele>
        <time>2024-08-03T10:22:11Z</time>
      </trkpt>
      <trkpt lat="47.22938" lon="5.8861">
        <ele>300.8</ele>
        <time>2024-08-03T10:22:12Z</time>
      </trkpt>
      <trkpt lat="47.22933" lon="5.88614">
        <ele>300.8</ele>
        <time>2024-08-03T10:22:13Z</time>
      </trkpt>
      <trkpt lat="47.22928" lon="5.88618">
        <ele>300.8</ele>
        <time>2024-08-03T10:22:14Z</time>
      </trkpt>
      <trkpt lat="47.22922" lon="5.88623">
        <ele>300.6</ele>
        <time>2024-08-03T10:22:15Z</time>
      </trkpt>
      <trkpt lat="47.22917" lon="5.88627">
        <ele>300.6</ele>
        <time>2024-08-03T10:22:16Z</time>
      </trkpt>
      <trkpt lat="47.22911" lon="5.88632">
        <ele>300.6</ele>
        <time>2024-08-03T10:22:17Z</time>
      </trkpt>
      <trkpt lat="47.22906" lon="5.88637">
        <ele>300.6</ele>
        <time>2024-08-03T10:22:18Z</time>
      </trkpt>
      <trkpt lat="47.22901" lon="5.88642">
        <ele>300.4</ele>
        <time>2024-08-03T10:22:19Z</time>
      </trkpt>
      <trkpt lat="47.22895" lon="5.88646">
        <ele>300.4</ele>
        <time>2024-08-03T10:22:20Z</time>
      </trkpt>
      <trkpt lat="47.2289" lon="5.88651">
        <ele>300.2</ele>
        <time>2024-08-03T10:22:21Z</time>
      </trkpt>
      <trkpt lat="47.22884" lon="5.88656">
        <ele>300.2</ele>
        <time>2024-08-03T10:22:22Z</time>
      </trkpt>
      <trkpt lat="47.22879" lon="5.8866">
        <ele>300</ele>
        <time>2024-08-03T10:22:23Z</time>
      </trkpt>
      <trkpt lat="47.22873" lon="5.88665">
        <ele>300</ele>
        <time>2024-08-03T10:22:24Z</time>
      </trkpt>
      <trkpt lat="47.22867" lon="5.8867">
        <ele>299.8</ele>
        <time>2024-08-03T10:22:25Z</time>
      </trkpt>
      <trkpt lat="47.22861" lon="5.88675">
        <ele>299.8</ele>
        <time>2024-08-03T10:22:26Z</time>
      </trkpt>
      <trkpt lat="47.22855" lon="5.88679">
        <ele>299.8</ele>
        <time>2024-08-03T10:22:27Z</time>
      </trkpt>
      <trkpt lat="47.22849" lon="5.88684">
        <ele>299.8</ele>
        <time>2024-08-03T10:22:28Z</time>
      </trkpt>
      <trkpt lat="47.22843" lon="5.88689">
        <ele>299.8</ele>
        <time>2024-08-03T10:22:29Z</time>
      </trkpt>
      <trkpt lat="47.22837" lon="5.88694">
        <ele>299.6</ele>
        <time>2024-08-03T10:22:30Z</time>
      </trkpt>
      <trkpt lat="47.22831" lon="5.887">
        <ele>299.2</ele>
        <time>2024-08-03T10:22:31Z</time>
      </trkpt>
      <trkpt lat="47.22825" lon="5.88704">
        <ele>299.2</ele>
        <time>2024-08-03T10:22:32Z</time>
      </trkpt>
      <trkpt lat="47.22819" lon="5.88709">
        <ele>299</ele>
        <time>2024-08-03T10:22:33Z</time>
      </trkpt>
      <trkpt lat="47.22813" lon="5.88714">
        <ele>298.8</ele>
        <time>2024-08-03T10:22:34Z</time>
      </trkpt>
      <trkpt lat="47.22807" lon="5.88719">
        <ele>298.8</ele>
        <time>2024-08-03T10:22:35Z</time>
      </trkpt>
      <trkpt lat="47.22801" lon="5.88724">
        <ele>298.6</ele>
        <time>2024-08-03T10:22:36Z</time>
      </trkpt>
      <trkpt lat="47.22796" lon="5.88728">
        <ele>298.4</ele>
        <time>2024-08-03T10:22:37Z</time>
      </trkpt>
      <trkpt lat="47.22791" lon="5.88733">
        <ele>298.2</ele>
        <time>2024-08-03T10:22:38Z</time>
      </trkpt>
      <trkpt lat="47.22785" lon="5.88737">
        <ele>297.8</ele>
        <time>2024-08-03T10:22:39Z</time>
      </trkpt>
      <trkpt lat="47.2278" lon="5.88741">
        <ele>297.4</ele>
        <time>2024-08-03T10:22:40Z</time>
      </trkpt>
      <trkpt lat="47.22776" lon="5.88745">
        <ele>297.4</ele>
        <time>2024-08-03T10:22:41Z</time>
      </trkpt>
      <trkpt lat="47.22771" lon="5.88749">
        <ele>297.2</ele>
        <time>2024-08-03T10:22:42Z</time>
      </trkpt>
      <trkpt lat="47.22766" lon="5.88753">
        <ele>297.2</ele>
        <time>2024-08-03T10:22:43Z</time>
      </trkpt>
      <trkpt lat="47.2276" lon="5.88757">
        <ele>297.2</ele>
        <time>2024-08-03T10:22:44Z</time>
      </trkpt>
      <trkpt lat="47.22755" lon="5.88761">
        <ele>297</ele>
        <time>2024-08-03T10:22:45Z</time>
      </trkpt>
      <trkpt lat="47.22751" lon="5.88765">
        <ele>297</ele>
        <time>2024-08-03T10:22:46Z</time>
      </trkpt>
      <trkpt lat="47.22746" lon="5.8877">
        <ele>297.2</ele>
        <time>2024-08-03T10:22:47Z</time>
      </trkpt>
      <trkpt lat="47.22742" lon="5.88774">
        <ele>297</ele>
        <time>2024-08-03T10:22:48Z</time>
      </trkpt>
      <trkpt lat="47.22737" lon="5.88779">
        <ele>297.2</ele>
        <time>2024-08-03T10:22:49Z</time>
      </trkpt>
      <trkpt lat="47.22733" lon="5.88784">
        <ele>297</ele>
        <time>2024-08-03T10:22:50Z</time>
      </trkpt>
      <trkpt lat="47.22729" lon="5.88788">
        <ele>297.2</ele>
        <time>2024-08-03T10:22:51Z</time>
      </trkpt>
      <trkpt lat="47.22726" lon="5.88792">
        <ele>297.2</ele>
        <time>2024-08-03T10:22:52Z</time>
      </trkpt>
      <trkpt lat="47.22722" lon="5.88796">
        <ele>297.2</ele>
        <time>2024-08-03T10:22:53Z</time>
      </trkpt>
      <trkpt lat="47.22718" lon="5.888">
        <ele>297.2</ele>
        <time>2024-08-03T10:22:54Z</time>
      </trkpt>
      <trkpt lat="47.22715" lon="5.88804">
        <ele>297.4</ele>
        <time>2024-08-03T10:22:55Z</time>
      </trkpt>
      <trkpt lat="47.22711" lon="5.88809">
        <ele>297.4</ele>
        <time>2024-08-03T10:22:56Z</time>
      </trkpt>
      <trkpt lat="47.22708" lon="5.88813">
        <ele>297.4</ele>
        <time>2024-08-03T10:22:57Z</time>
      </trkpt>
      <trkpt lat="47.22704" lon="5.88818">
        <ele>297.6</ele>
        <time>2024-08-03T10:22:58Z</time>
      </trkpt>
      <trkpt lat="47.227" lon="5.88822">
        <ele>297.8</ele>
        <time>2024-08-03T10:22:59Z</time>
      </trkpt>
      <trkpt lat="47.22696" lon="5.88827">
        <ele>298</ele>
        <time>2024-08-03T10:23:00Z</time>
      </trkpt>
      <trkpt lat="47.22693" lon="5.88832">
        <ele>298.4</ele>
        <time>2024-08-03T10:23:01Z</time>
      </trkpt>
      <trkpt lat="47.22689" lon="5.88836">
        <ele>298.8</ele>
        <time>2024-08-03T10:23:02Z</time>
      </trkpt>
      <trkpt lat="47.22685" lon="5.8884">
        <ele>298.8</ele>
        <time>2024-08-03T10:23:03Z</time>
      </trkpt>
      <trkpt lat="47.22681" lon="5.88844">
        <ele>299.2</ele>
        <time>2024-08-03T10:23:04Z</time>
      </trkpt>
      <trkpt lat="47.22677" lon="5.88848">
        <ele>299.4</ele>
        <time>2024-08-03T10:23:05Z</time>
      </trkpt>
      <trkpt lat="47.22672" lon="5.88851">
        <ele>299.4</ele>
        <time>2024-08-03T10:23:06Z</time>
      </trkpt>
      <trkpt lat="47.22667" lon="5.88854">
        <ele>299.8</ele>
        <time>2024-08-03T10:23:07Z</time>
      </trkpt>
      <trkpt lat="47.22662" lon="5.88855">
        <ele>300</ele>
        <time>2024-08-03T10:23:08Z</time>
      </trkpt>
      <trkpt lat="47.22657" lon="5.88856">
        <ele>300</ele>
        <time>2024-08-03T10:23:09Z</time>
      </trkpt>
      <trkpt lat="47.22652" lon="5.88858">
        <ele>300</ele>
        <time>2024-08-03T10:23:10Z</time>
      </trkpt>
      <trkpt lat="47.22647" lon="5.88858">
        <ele>300.2</ele>
        <time>2024-08-03T10:23:11Z</time>
      </trkpt>
      <trkpt lat="47.22642" lon="5.88858">
        <ele>300.2</ele>
        <time>2024-08-03T10:23:12Z</time>
      </trkpt>
      <trkpt lat="47.22637" lon="5.88858">
        <ele>300.4</ele>
        <time>2024-08-03T10:23:13Z</time>
      </trkpt>
      <trkpt lat="47.22633" lon="5.88859">
        <ele>300.4</ele>
        <time>2024-08-03T10:23:14Z</time>
      </trkpt>
      <trkpt lat="47.22628" lon="5.8886">
        <ele>300.4</ele>
        <time>2024-08-03T10:23:15Z</time>
      </trkpt>
      <trkpt lat="47.22625" lon="5.88864">
        <ele>300.4</ele>
        <time>2024-08-03T10:23:16Z</time>
      </trkpt>
      <trkpt lat="47.22623" lon="5.88868">
        <ele>300.4</ele>
        <time>2024-08-03T10:23:17Z</time>
      </trkpt>
      <trkpt lat="47.22621" lon="5.88872">
        <ele>300.4</ele>
        <time>2024-08-03T10:23:18Z</time>
      </trkpt>
      <trkpt lat="47.22619" lon="5.88877">
        <ele>300.4</ele>
        <time>2024-08-03T10:23:19Z</time>
      </trkpt>
      <trkpt lat="47.22618" lon="5.88882">
        <ele>300.4</ele>
        <time>2024-08-03T10:23:20Z</time>
      </trkpt>
      <trkpt lat="47.22617" lon="5.88888">
        <ele>300.4</ele>
        <time>2024-08-03T10:23:21Z</time>
      </trkpt>
      <trkpt lat="47.22616" lon="5.88894">
        <ele>300.4</ele>
        <time>2024-08-03T10:23:22Z</time>
      </trkpt>
      <trkpt lat="47.22615" lon="5.88901">
        <ele>300.6</ele>
        <time>2024-08-03T10:23:23Z</time>
      </trkpt>
      <trkpt lat="47.22615" lon="5.88908">
        <ele>300.4</ele>
        <time>2024-08-03T10:23:24Z</time>
      </trkpt>
      <trkpt lat="47.22615" lon="5.88915">
        <ele>300.6</ele>
        <time>2024-08-03T10:23:25Z</time>
      </trkpt>
      <trkpt lat="47.22614" lon="5.88923">
        <ele>300.6</ele>
        <time>2024-08-03T10:23:26Z</time>
      </trkpt>
      <trkpt lat="47.22614" lon="5.88931">
        <ele>300.4</ele>
        <time>2024-08-03T10:23:27Z</time>
      </trkpt>
      <trkpt lat="47.22615" lon="5.88939">
        <ele>300.4</ele>
        <time>2024-08-03T10:23:28Z</time>
      </trkpt>
      <trkpt lat="47.22615" lon="5.88947">
        <ele>300.4</ele>
        <time>2024-08-03T10:23:29Z</time>
      </trkpt>
      <trkpt lat="47.22616" lon="5.88954">
        <ele>300.4</ele>
        <time>2024-08-03T10:23:30Z</time>
      </trkpt>
      <trkpt lat="47.22617" lon="5.88962">
        <ele>300.6</ele>
        <time>2024-08-03T10:23:31Z</time>
      </trkpt>
      <trkpt lat="47.22618" lon="5.88969">
        <ele>300.6</ele>
        <time>2024-08-03T10:23:32Z</time>
      </trkpt>
      <trkpt lat="47.22619" lon="5.88977">
        <ele>300.4</ele>
        <time>2024-08-03T10:23:33Z</time>
      </trkpt>
      <trkpt lat="47.22619" lon="5.88985">
        <ele>300.4</ele>
        <time>2024-08-03T10:23:34Z</time>
      </trkpt>
      <trkpt lat="47.2262" lon="5.88993">
        <ele>300.4</ele>
        <time>2024-08-03T10:23:35Z</time>
      </trkpt>
      <trkpt lat="47.2262" lon="5.89001">
        <ele>300.4</ele>
        <time>2024-08-03T10:23:36Z</time>
      </trkpt>
      <trkpt lat="47.22621" lon="5.89009">
        <ele>300.4</ele>
        <time>2024-08-03T10:23:37Z</time>
      </trkpt>
      <trkpt lat="47.22623" lon="5.89018">
        <ele>300.6</ele>
        <time>2024-08-03T10:23:38Z</time>
      </trkpt>
      <trkpt lat="47.22625" lon="5.89026">
        <ele>300.6</ele>
        <time>2024-08-03T10:23:39Z</time>
      </trkpt>
      <trkpt lat="47.22627" lon="5.89034">
        <ele>300.4</ele>
        <time>2024-08-03T10:23:40Z</time>
      </trkpt>
      <trkpt lat="47.22629" lon="5.89041">
        <ele>300.4</ele>
        <time>2024-08-03T10:23:41Z</time>
      </trkpt>
      <trkpt lat="47.22631" lon="5.89049">
        <ele>300.4</ele>
        <time>2024-08-03T10:23:42Z</time>
      </trkpt>
      <trkpt lat="47.22632" lon="5.89057">
        <ele>300.4</ele>
        <time>2024-08-03T10:23:43Z</time>
      </trkpt>
      <trkpt lat="47.22635" lon="5.89064">
        <ele>300.6</ele>
        <time>2024-08-03T10:23:44Z</time>
      </trkpt>
      <trkpt lat="47.22636" lon="5.89071">
        <ele>300.6</ele>
        <time>2024-08-03T10:23:45Z</time>
      </trkpt>
      <trkpt lat="47.22638" lon="5.89079">
        <ele>300.8</ele>
        <time>2024-08-03T10:23:46Z</time>
      </trkpt>
      <trkpt lat="47.22639" lon="5.89087">
        <ele>300.8</ele>
        <time>2024-08-03T10:23:47Z</time>
      </trkpt>
      <trkpt lat="47.22641" lon="5.89094">
        <ele>300.8</ele>
        <time>2024-08-03T10:23:48Z</time>
      </trkpt>
      <trkpt lat="47.22643" lon="5.89101">
        <ele>300.8</ele>
        <time>2024-08-03T10:23:49Z</time>
      </trkpt>
      <trkpt lat="47.22644" lon="5.89108">
        <ele>301</ele>
        <time>2024-08-03T10:23:50Z</time>
      </trkpt>
      <trkpt lat="47.22646" lon="5.89115">
        <ele>301.2</ele>
        <time>2024-08-03T10:23:51Z</time>
      </trkpt>
      <trkpt lat="47.22648" lon="5.89122">
        <ele>301.4</ele>
        <time>2024-08-03T10:23:52Z</time>
      </trkpt>
      <trkpt lat="47.22649" lon="5.89129">
        <ele>301.6</ele>
        <time>2024-08-03T10:23:53Z</time>
      </trkpt>
      <trkpt lat="47.2265" lon="5.89135">
        <ele>301.6</ele>
        <time>2024-08-03T10:23:54Z</time>
      </trkpt>
      <trkpt lat="47.22652" lon="5.89142">
        <ele>301.6</ele>
        <time>2024-08-03T10:23:55Z</time>
      </trkpt>
      <trkpt lat="47.22653" lon="5.89149">
        <ele>301.8</ele>
        <time>2024-08-03T10:23:56Z</time>
      </trkpt>
      <trkpt lat="47.22655" lon="5.89156">
        <ele>301.8</ele>
        <time>2024-08-03T10:23:57Z</time>
      </trkpt>
      <trkpt lat="47.22656" lon="5.89162">
        <ele>302</ele>
        <time>2024-08-03T10:23:58Z</time>
      </trkpt>
      <trkpt lat="47.22658" lon="5.8917">
        <ele>302</ele>
        <time>2024-08-03T10:23:59Z</time>
      </trkpt>
      <trkpt lat="47.22659" lon="5.89176">
        <ele>302.4</ele>
        <time>2024-08-03T10:24:00Z</time>
      </trkpt>
      <trkpt lat="47.2266" lon="5.89183">
        <ele>302.4</ele>
        <time>2024-08-03T10:24:01Z</time>
      </trkpt>
      <trkpt lat="47.22661" lon="5.89189">
        <ele>302.6</ele>
        <time>2024-08-03T10:24:02Z</time>
      </trkpt>
      <trkpt lat="47.22662" lon="5.89196">
        <ele>302.6</ele>
        <time>2024-08-03T10:24:03Z</time>
      </trkpt>
      <trkpt lat="47.22664" lon="5.89203">
        <ele>303</ele>
        <time>2024-08-03T10:24:04Z</time>
      </trkpt>
      <trkpt lat="47.22666" lon="5.8921">
        <ele>303.2</ele>
        <time>2024-08-03T10:24:05Z</time>
      </trkpt>
      <trkpt lat="47.22667" lon="5.89216">
        <ele>303.4</ele>
        <time>2024-08-03T10:24:06Z</time>
      </trkpt>
      <trkpt lat="47.22668" lon="5.89223">
        <ele>303.6</ele>
        <time>2024-08-03T10:24:07Z</time>
      </trkpt>
      <trkpt lat="47.22669" lon="5.8923">
        <ele>303.8</ele>
        <time>2024-08-03T10:24:08Z</time>
      </trkpt>
      <trkpt lat="47.2267" lon="5.89237">
        <ele>304.2</ele>
        <time>2024-08-03T10:24:09Z</time>
      </trkpt>
      <trkpt lat="47.2267" lon="5.89244">
        <ele>304.4</ele>
        <time>2024-08-03T10:24:10Z</time>
      </trkpt>
      <trkpt lat="47.22671" lon="5.89251">
        <ele>304.6</ele>
        <time>2024-08-03T10:24:11Z</time>
      </trkpt>
      <trkpt lat="47.22671" lon="5.89258">
        <ele>304.8</ele>
        <time>2024-08-03T10:24:12Z</time>
      </trkpt>
      <trkpt lat="47.22672" lon="5.89264">
        <ele>305</ele>
        <time>2024-08-03T10:24:13Z</time>
      </trkpt>
      <trkpt lat="47.22672" lon="5.8927">
        <ele>305.4</ele>
        <time>2024-08-03T10:24:14Z</time>
      </trkpt>
      <trkpt lat="47.22673" lon="5.89277">
        <ele>305.6</ele>
        <time>2024-08-03T10:24:15Z</time>
      </trkpt>
      <trkpt lat="47.22675" lon="5.89283">
        <ele>305.8</ele>
        <time>2024-08-03T10:24:16Z</time>
      </trkpt>
      <trkpt lat="47.22677" lon="5.89289">
        <ele>306.2</ele>
        <time>2024-08-03T10:24:17Z</time>
      </trkpt>
      <trkpt lat="47.22679" lon="5.89295">
        <ele>306.4</ele>
        <time>2024-08-03T10:24:18Z</time>
      </trkpt>
      <trkpt lat="47.2268" lon="5.89302">
        <ele>306.6</ele>
        <time>2024-08-03T10:24:19Z</time>
      </trkpt>
      <trkpt lat="47.22682" lon="5.89308">
        <ele>306.8</ele>
        <time>2024-08-03T10:24:20Z</time>
      </trkpt>
      <trkpt lat="47.22684" lon="5.89314">
        <ele>307</ele>
        <time>2024-08-03T10:24:21Z</time>
      </trkpt>
      <trkpt lat="47.22686" lon="5.8932">
        <ele>307</ele>
        <time>2024-08-03T10:24:22Z</time>
      </trkpt>
      <trkpt lat="47.22687" lon="5.89326">
        <ele>307</ele>
        <time>2024-08-03T10:24:23Z</time>
      </trkpt>
      <trkpt lat="47.22689" lon="5.89332">
        <ele>307</ele>
        <time>2024-08-03T10:24:24Z</time>
      </trkpt>
      <trkpt lat="47.2269" lon="5.89338">
        <ele>307</ele>
        <time>2024-08-03T10:24:25Z</time>
      </trkpt>
      <trkpt lat="47.22691" lon="5.89344">
        <ele>307.2</ele>
        <time>2024-08-03T10:24:26Z</time>
      </trkpt>
      <trkpt lat="47.22691" lon="5.8935">
        <ele>307.2</ele>
        <time>2024-08-03T10:24:27Z</time>
      </trkpt>
      <trkpt lat="47.22691" lon="5.89355">
        <ele>307.6</ele>
        <time>2024-08-03T10:24:28Z</time>
      </trkpt>
      <trkpt lat="47.2269" lon="5.89361">
        <ele>307.6</ele>
        <time>2024-08-03T10:24:29Z</time>
      </trkpt>
      <trkpt lat="47.2269" lon="5.89367">
        <ele>308</ele>
        <time>2024-08-03T10:24:30Z</time>
      </trkpt>
      <trkpt lat="47.22688" lon="5.89373">
        <ele>308</ele>
        <time>2024-08-03T10:24:31Z</time>
      </trkpt>
      <trkpt lat="47.22687" lon="5.8938">
        <ele>308.2</ele>
        <time>2024-08-03T10:24:32Z</time>
      </trkpt>
      <trkpt lat="47.22686" lon="5.89386">
        <ele>308.4</ele>
        <time>2024-08-03T10:24:33Z</time>
      </trkpt>
      <trkpt lat="47.22684" lon="5.89393">
        <ele>308.6</ele>
        <time>2024-08-03T10:24:34Z</time>
      </trkpt>
      <trkpt lat="47.22683" lon="5.89401">
        <ele>308.6</ele>
        <time>2024-08-03T10:24:35Z</time>
      </trkpt>
      <trkpt lat="47.22682" lon="5.89409">
        <ele>308.6</ele>
        <time>2024-08-03T10:24:36Z</time>
      </trkpt>
      <trkpt lat="47.22682" lon="5.89417">
        <ele>308.6</ele>
        <time>2024-08-03T10:24:37Z</time>
      </trkpt>
      <trkpt lat="47.22681" lon="5.89425">
        <ele>308.6</ele>
        <time>2024-08-03T10:24:38Z</time>
      </trkpt>
      <trkpt lat="47.2268" lon="5.89434">
        <ele>308.6</ele>
        <time>2024-08-03T10:24:39Z</time>
      </trkpt>
      <trkpt lat="47.22678" lon="5.89443">
        <ele>308.8</ele>
        <time>2024-08-03T10:24:40Z</time>
      </trkpt>
      <trkpt lat="47.22677" lon="5.89452">
        <ele>308.8</ele>
        <time>2024-08-03T10:24:41Z</time>
      </trkpt>
      <trkpt lat="47.22675" lon="5.89462">
        <ele>308.6</ele>
        <time>2024-08-03T10:24:42Z</time>
      </trkpt>
      <trkpt lat="47.22673" lon="5.89473">
        <ele>308.6</ele>
        <time>2024-08-03T10:24:43Z</time>
      </trkpt>
      <trkpt lat="47.22671" lon="5.89483">
        <ele>308.6</ele>
        <time>2024-08-03T10:24:44Z</time>
      </trkpt>
      <trkpt lat="47.22669" lon="5.89493">
        <ele>308.2</ele>
        <time>2024-08-03T10:24:45Z</time>
      </trkpt>
      <trkpt lat="47.22666" lon="5.89502">
        <ele>308.2</ele>
        <time>2024-08-03T10:24:46Z</time>
      </trkpt>
      <trkpt lat="47.22663" lon="5.89511">
        <ele>308.2</ele>
        <time>2024-08-03T10:24:47Z</time>
      </trkpt>
      <trkpt lat="47.22662" lon="5.89521">
        <ele>307.8</ele>
        <time>2024-08-03T10:24:48Z</time>
      </trkpt>
      <trkpt lat="47.2266" lon="5.89531">
        <ele>307.8</ele>
        <time>2024-08-03T10:24:49Z</time>
      </trkpt>
      <trkpt lat="47.22659" lon="5.89541">
        <ele>307.6</ele>
        <time>2024-08-03T10:24:50Z</time>
      </trkpt>
      <trkpt lat="47.22658" lon="5.89551">
        <ele>307.4</ele>
        <time>2024-08-03T10:24:51Z</time>
      </trkpt>
      <trkpt lat="47.22657" lon="5.89561">
        <ele>307.2</ele>
        <time>2024-08-03T10:24:52Z</time>
      </trkpt>
      <trkpt lat="47.22656" lon="5.89571">
        <ele>306.8</ele>
        <time>2024-08-03T10:24:53Z</time>
      </trkpt>
      <trkpt lat="47.22655" lon="5.8958">
        <ele>306.6</ele>
        <time>2024-08-03T10:24:54Z</time>
      </trkpt>
      <trkpt lat="47.22654" lon="5.89589">
        <ele>306.6</ele>
        <time>2024-08-03T10:24:55Z</time>
      </trkpt>
      <trkpt lat="47.22653" lon="5.89599">
        <ele>306.6</ele>
        <time>2024-08-03T10:24:56Z</time>
      </trkpt>
      <trkpt lat="47.22652" lon="5.89609">
        <ele>306.4</ele>
        <time>2024-08-03T10:24:57Z</time>
      </trkpt>
      <trkpt lat="47.22652" lon="5.89619">
        <ele>306.2</ele>
        <time>2024-08-03T10:24:58Z</time>
      </trkpt>
      <trkpt lat="47.22651" lon="5.89628">
        <ele>306</ele>
        <time>2024-08-03T10:24:59Z</time>
      </trkpt>
      <trkpt lat="47.2265" lon="5.89638">
        <ele>305.8</ele>
        <time>2024-08-03T10:25:00Z</time>
      </trkpt>
      <trkpt lat="47.22649" lon="5.89648">
        <ele>305.8</ele>
        <time>2024-08-03T10:25:01Z</time>
      </trkpt>
      <trkpt lat="47.22649" lon="5.89658">
        <ele>305.6</ele>
        <time>2024-08-03T10:25:02Z</time>
      </trkpt>
      <trkpt lat="47.22648" lon="5.89669">
        <ele>305.4</ele>
        <time>2024-08-03T10:25:03Z</time>
      </trkpt>
      <trkpt lat="47.22647" lon="5.89679">
        <ele>305.4</ele>
        <time>2024-08-03T10:25:04Z</time>
      </trkpt>
      <trkpt lat="47.22646" lon="5.89691">
        <ele>305.2</ele>
        <time>2024-08-03T10:25:05Z</time>
      </trkpt>
      <trkpt lat="47.22645" lon="5.89703">
        <ele>305</ele>
        <time>2024-08-03T10:25:06Z</time>
      </trkpt>
      <trkpt lat="47.22644" lon="5.89715">
        <ele>305.2</ele>
        <time>2024-08-03T10:25:07Z</time>
      </trkpt>
      <trkpt lat="47.22643" lon="5.89727">
        <ele>305.2</ele>
        <time>2024-08-03T10:25:08Z</time>
      </trkpt>
      <trkpt lat="47.22642" lon="5.8974">
        <ele>305.2</ele>
        <time>2024-08-03T10:25:09Z</time>
      </trkpt>
      <trkpt lat="47.22642" lon="5.89753">
        <ele>305</ele>
        <time>2024-08-03T10:25:10Z</time>
      </trkpt>
      <trkpt lat="47.22641" lon="5.89765">
        <ele>304.6</ele>
        <time>2024-08-03T10:25:11Z</time>
      </trkpt>
      <trkpt lat="47.22641" lon="5.89778">
        <ele>304.4</ele>
        <time>2024-08-03T10:25:12Z</time>
      </trkpt>
      <trkpt lat="47.2264" lon="5.89791">
        <ele>304.2</ele>
        <time>2024-08-03T10:25:13Z</time>
      </trkpt>
      <trkpt lat="47.22639" lon="5.89804">
        <ele>303.8</ele>
        <time>2024-08-03T10:25:14Z</time>
      </trkpt>
      <trkpt lat="47.22639" lon="5.89817">
        <ele>303.6</ele>
        <time>2024-08-03T10:25:15Z</time>
      </trkpt>
      <trkpt lat="47.22638" lon="5.89831">
        <ele>303.2</ele>
        <time>2024-08-03T10:25:16Z</time>
      </trkpt>
      <trkpt lat="47.22637" lon="5.89844">
        <ele>302.8</ele>
        <time>2024-08-03T10:25:17Z</time>
      </trkpt>
      <trkpt lat="47.22636" lon="5.89858">
        <ele>302.2</ele>
        <time>2024-08-03T10:25:18Z</time>
      </trkpt>
      <trkpt lat="47.22636" lon="5.89871">
        <ele>302.2</ele>
        <time>2024-08-03T10:25:19Z</time>
      </trkpt>
      <trkpt lat="47.22635" lon="5.89885">
        <ele>301.6</ele>
        <time>2024-08-03T10:25:20Z</time>
      </trkpt>
      <trkpt lat="47.22634" lon="5.89899">
        <ele>301.4</ele>
        <time>2024-08-03T10:25:21Z</time>
      </trkpt>
      <trkpt lat="47.22633" lon="5.89912">
        <ele>301</ele>
        <time>2024-08-03T10:25:22Z</time>
      </trkpt>
      <trkpt lat="47.22633" lon="5.89925">
        <ele>300.6</ele>
        <time>2024-08-03T10:25:23Z</time>
      </trkpt>
      <trkpt lat="47.22632" lon="5.89938">
        <ele>300</ele>
        <time>2024-08-03T10:25:24Z</time>
      </trkpt>
      <trkpt lat="47.22631" lon="5.8995">
        <ele>299.6</ele>
        <time>2024-08-03T10:25:25Z</time>
      </trkpt>
      <trkpt lat="47.2263" lon="5.89962">
        <ele>299</ele>
        <time>2024-08-03T10:25:26Z</time>
      </trkpt>
      <trkpt lat="47.22629" lon="5.89973">
        <ele>298.6</ele>
        <time>2024-08-03T10:25:27Z</time>
      </trkpt>
      <trkpt lat="47.22628" lon="5.89985">
        <ele>298.4</ele>
        <time>2024-08-03T10:25:28Z</time>
      </trkpt>
      <trkpt lat="47.22627" lon="5.89996">
        <ele>297.8</ele>
        <time>2024-08-03T10:25:29Z</time>
      </trkpt>
      <trkpt lat="47.22627" lon="5.90007">
        <ele>297.6</ele>
        <time>2024-08-03T10:25:30Z</time>
      </trkpt>
      <trkpt lat="47.22625" lon="5.90016">
        <ele>297.6</ele>
        <time>2024-08-03T10:25:31Z</time>
      </trkpt>
      <trkpt lat="47.22624" lon="5.90027">
        <ele>297.4</ele>
        <time>2024-08-03T10:25:32Z</time>
      </trkpt>
      <trkpt lat="47.22623" lon="5.90037">
        <ele>297.4</ele>
        <time>2024-08-03T10:25:33Z</time>
      </trkpt>
      <trkpt lat="47.22622" lon="5.90046">
        <ele>297.4</ele>
        <time>2024-08-03T10:25:34Z</time>
      </trkpt>
      <trkpt lat="47.22622" lon="5.90056">
        <ele>297.2</ele>
        <time>2024-08-03T10:25:35Z</time>
      </trkpt>
      <trkpt lat="47.22622" lon="5.90066">
        <ele>297.2</ele>
        <time>2024-08-03T10:25:36Z</time>
      </trkpt>
      <trkpt lat="47.22622" lon="5.90076">
        <ele>297</ele>
        <time>2024-08-03T10:25:37Z</time>
      </trkpt>
      <trkpt lat="47.22622" lon="5.90085">
        <ele>297</ele>
        <time>2024-08-03T10:25:38Z</time>
      </trkpt>
      <trkpt lat="47.22622" lon="5.90094">
        <ele>297</ele>
        <time>2024-08-03T10:25:39Z</time>
      </trkpt>
      <trkpt lat="47.22621" lon="5.90103">
        <ele>297</ele>
        <time>2024-08-03T10:25:40Z</time>
      </trkpt>
      <trkpt lat="47.22621" lon="5.90112">
        <ele>297</ele>
        <time>2024-08-03T10:25:41Z</time>
      </trkpt>
      <trkpt lat="47.2262" lon="5.90121">
        <ele>297</ele>
        <time>2024-08-03T10:25:42Z</time>
      </trkpt>
      <trkpt lat="47.2262" lon="5.9013">
        <ele>297</ele>
        <time>2024-08-03T10:25:43Z</time>
      </trkpt>
      <trkpt lat="47.22619" lon="5.90138">
        <ele>297</ele>
        <time>2024-08-03T10:25:44Z</time>
      </trkpt>
      <trkpt lat="47.22619" lon="5.90147">
        <ele>297</ele>
        <time>2024-08-03T10:25:45Z</time>
      </trkpt>
      <trkpt lat="47.22618" lon="5.90155">
        <ele>297</ele>
        <time>2024-08-03T10:25:46Z</time>
      </trkpt>
      <trkpt lat="47.22618" lon="5.90164">
        <ele>297</ele>
        <time>2024-08-03T10:25:47Z</time>
      </trkpt>
      <trkpt lat="47.22618" lon="5.90171">
        <ele>297</ele>
        <time>2024-08-03T10:25:48Z</time>
      </trkpt>
      <trkpt lat="47.22617" lon="5.9018">
        <ele>297.2</ele>
        <time>2024-08-03T10:25:49Z</time>
      </trkpt>
      <trkpt lat="47.22617" lon="5.90188">
        <ele>297.4</ele>
        <time>2024-08-03T10:25:50Z</time>
      </trkpt>
      <trkpt lat="47.22616" lon="5.90195">
        <ele>297.6</ele>
        <time>2024-08-03T10:25:51Z</time>
      </trkpt>
      <trkpt lat="47.22616" lon="5.90203">
        <ele>297.6</ele>
        <time>2024-08-03T10:25:52Z</time>
      </trkpt>
      <trkpt lat="47.22615" lon="5.90211">
        <ele>297.6</ele>
        <time>2024-08-03T10:25:53Z</time>
      </trkpt>
      <trkpt lat="47.22615" lon="5.90218">
        <ele>298</ele>
        <time>2024-08-03T10:25:54Z</time>
      </trkpt>
      <trkpt lat="47.22615" lon="5.90226">
        <ele>298</ele>
        <time>2024-08-03T10:25:55Z</time>
      </trkpt>
      <trkpt lat="47.22615" lon="5.90235">
        <ele>298.2</ele>
        <time>2024-08-03T10:25:56Z</time>
      </trkpt>
      <trkpt lat="47.22614" lon="5.90243">
        <ele>298.2</ele>
        <time>2024-08-03T10:25:57Z</time>
      </trkpt>
      <trkpt lat="47.22614" lon="5.90251">
        <ele>298.6</ele>
        <time>2024-08-03T10:25:58Z</time>
      </trkpt>
      <trkpt lat="47.22614" lon="5.90259">
        <ele>298.6</ele>
        <time>2024-08-03T10:25:59Z</time>
      </trkpt>
      <trkpt lat="47.22613" lon="5.90267">
        <ele>298.8</ele>
        <time>2024-08-03T10:26:00Z</time>
      </trkpt>
      <trkpt lat="47.22613" lon="5.90275">
        <ele>299</ele>
        <time>2024-08-03T10:26:01Z</time>
      </trkpt>
      <trkpt lat="47.22613" lon="5.90283">
        <ele>299.2</ele>
        <time>2024-08-03T10:26:02Z</time>
      </trkpt>
      <trkpt lat="47.22612" lon="5.90291">
        <ele>299.4</ele>
        <time>2024-08-03T10:26:03Z</time>
      </trkpt>
      <trkpt lat="47.22612" lon="5.903">
        <ele>299.2</ele>
        <time>2024-08-03T10:26:04Z</time>
      </trkpt>
      <trkpt lat="47.22612" lon="5.90308">
        <ele>299.4</ele>
        <time>2024-08-03T10:26:05Z</time>
      </trkpt>
      <trkpt lat="47.22612" lon="5.90316">
        <ele>299.4</ele>
        <time>2024-08-03T10:26:06Z</time>
      </trkpt>
      <trkpt lat="47.22611" lon="5.90324">
        <ele>299.6</ele>
        <time>2024-08-03T10:26:07Z</time>
      </trkpt>
      <trkpt lat="47.2261" lon="5.90333">
        <ele>299.6</ele>
        <time>2024-08-03T10:26:08Z</time>
      </trkpt>
      <trkpt lat="47.22609" lon="5.90342">
        <ele>299.8</ele>
        <time>2024-08-03T10:26:09Z</time>
      </trkpt>
      <trkpt lat="47.22608" lon="5.90351">
        <ele>299.8</ele>
        <time>2024-08-03T10:26:10Z</time>
      </trkpt>
      <trkpt lat="47.22607" lon="5.9036">
        <ele>299.8</ele>
        <time>2024-08-03T10:26:11Z</time>
      </trkpt>
      <trkpt lat="47.22606" lon="5.90369">
        <ele>299.6</ele>
        <time>2024-08-03T10:26:12Z</time>
      </trkpt>
      <trkpt lat="47.22605" lon="5.90379">
        <ele>299.6</ele>
        <time>2024-08-03T10:26:13Z</time>
      </trkpt>
      <trkpt lat="47.22604" lon="5.90389">
        <ele>299.8</ele>
        <time>2024-08-03T10:26:14Z</time>
      </trkpt>
      <trkpt lat="47.22603" lon="5.90398">
        <ele>299.8</ele>
        <time>2024-08-03T10:26:15Z</time>
      </trkpt>
      <trkpt lat="47.22602" lon="5.90408">
        <ele>299.6</ele>
        <time>2024-08-03T10:26:16Z</time>
      </trkpt>
      <trkpt lat="47.22602" lon="5.90418">
        <ele>299.8</ele>
        <time>2024-08-03T10:26:17Z</time>
      </trkpt>
      <trkpt lat="47.22601" lon="5.90427">
        <ele>299.6</ele>
        <time>2024-08-03T10:26:18Z</time>
      </trkpt>
      <trkpt lat="47.226" lon="5.90436">
        <ele>299.8</ele>
        <time>2024-08-03T10:26:19Z</time>
      </trkpt>
      <trkpt lat="47.226" lon="5.90445">
        <ele>299.4</ele>
        <time>2024-08-03T10:26:20Z</time>
      </trkpt>
      <trkpt lat="47.22599" lon="5.90455">
        <ele>299.4</ele>
        <time>2024-08-03T10:26:21Z</time>
      </trkpt>
      <trkpt lat="47.22599" lon="5.90464">
        <ele>299.4</ele>
        <time>2024-08-03T10:26:22Z</time>
      </trkpt>
      <trkpt lat="47.22598" lon="5.90473">
        <ele>299.4</ele>
        <time>2024-08-03T10:26:23Z</time>
      </trkpt>
      <trkpt lat="47.22597" lon="5.90481">
        <ele>299.2</ele>
        <time>2024-08-03T10:26:24Z</time>
      </trkpt>
      <trkpt lat="47.22597" lon="5.9049">
        <ele>299.2</ele>
        <time>2024-08-03T10:26:25Z</time>
      </trkpt>
      <trkpt lat="47.22597" lon="5.90499">
        <ele>299.2</ele>
        <time>2024-08-03T10:26:26Z</time>
      </trkpt>
      <trkpt lat="47.22597" lon="5.90508">
        <ele>299.4</ele>
        <time>2024-08-03T10:26:27Z</time>
      </trkpt>
      <trkpt lat="47.22597" lon="5.90517">
        <ele>299.4</ele>
        <time>2024-08-03T10:26:28Z</time>
      </trkpt>
      <trkpt lat="47.22596" lon="5.90525">
        <ele>299.4</ele>
        <time>2024-08-03T10:26:29Z</time>
      </trkpt>
      <trkpt lat="47.22596" lon="5.90534">
        <ele>299.4</ele>
        <time>2024-08-03T10:26:30Z</time>
      </trkpt>
      <trkpt lat="47.22596" lon="5.90542">
        <ele>299.4</ele>
        <time>2024-08-03T10:26:31Z</time>
      </trkpt>
      <trkpt lat="47.22595" lon="5.9055">
        <ele>299.2</ele>
        <time>2024-08-03T10:26:32Z</time>
      </trkpt>
      <trkpt lat="47.22594" lon="5.90558">
        <ele>299.4</ele>
        <time>2024-08-03T10:26:33Z</time>
      </trkpt>
      <trkpt lat="47.22593" lon="5.90565">
        <ele>299.4</ele>
        <time>2024-08-03T10:26:34Z</time>
      </trkpt>
      <trkpt lat="47.22593" lon="5.90573">
        <ele>299.2</ele>
        <time>2024-08-03T10:26:35Z</time>
      </trkpt>
      <trkpt lat="47.22592" lon="5.90581">
        <ele>299.2</ele>
        <time>2024-08-03T10:26:36Z</time>
      </trkpt>
      <trkpt lat="47.22592" lon="5.90589">
        <ele>299.2</ele>
        <time>2024-08-03T10:26:37Z</time>
      </trkpt>
      <trkpt lat="47.22592" lon="5.90597">
        <ele>299.4</ele>
        <time>2024-08-03T10:26:38Z</time>
      </trkpt>
      <trkpt lat="47.22591" lon="5.90605">
        <ele>299.4</ele>
        <time>2024-08-03T10:26:39Z</time>
      </trkpt>
      <trkpt lat="47.22591" lon="5.90613">
        <ele>299.4</ele>
        <time>2024-08-03T10:26:40Z</time>
      </trkpt>
      <trkpt lat="47.22591" lon="5.90622">
        <ele>299.4</ele>
        <time>2024-08-03T10:26:41Z</time>
      </trkpt>
      <trkpt lat="47.22591" lon="5.90631">
        <ele>299.6</ele>
        <time>2024-08-03T10:26:42Z</time>
      </trkpt>
      <trkpt lat="47.22591" lon="5.9064">
        <ele>299.6</ele>
        <time>2024-08-03T10:26:43Z</time>
      </trkpt>
      <trkpt lat="47.22592" lon="5.9065">
        <ele>299.6</ele>
        <time>2024-08-03T10:26:44Z</time>
      </trkpt>
      <trkpt lat="47.22592" lon="5.90659">
        <ele>299.8</ele>
        <time>2024-08-03T10:26:45Z</time>
      </trkpt>
      <trkpt lat="47.22592" lon="5.90669">
        <ele>300</ele>
        <time>2024-08-03T10:26:46Z</time>
      </trkpt>
      <trkpt lat="47.22593" lon="5.90678">
        <ele>300.2</ele>
        <time>2024-08-03T10:26:47Z</time>
      </trkpt>
      <trkpt lat="47.22593" lon="5.90688">
        <ele>300.4</ele>
        <time>2024-08-03T10:26:48Z</time>
      </trkpt>
      <trkpt lat="47.22593" lon="5.90698">
        <ele>300.4</ele>
        <time>2024-08-03T10:26:49Z</time>
      </trkpt>
      <trkpt lat="47.22592" lon="5.90707">
        <ele>300.6</ele>
        <time>2024-08-03T10:26:50Z</time>
      </trkpt>
      <trkpt lat="47.22592" lon="5.90716">
        <ele>300.8</ele>
        <time>2024-08-03T10:26:51Z</time>
      </trkpt>
      <trkpt lat="47.22591" lon="5.90725">
        <ele>300.8</ele>
        <time>2024-08-03T10:26:52Z</time>
      </trkpt>
      <trkpt lat="47.22591" lon="5.90734">
        <ele>301</ele>
        <time>2024-08-03T10:26:53Z</time>
      </trkpt>
      <trkpt lat="47.2259" lon="5.90743">
        <ele>301</ele>
        <time>2024-08-03T10:26:54Z</time>
      </trkpt>
      <trkpt lat="47.22589" lon="5.90752">
        <ele>300.8</ele>
        <time>2024-08-03T10:26:55Z</time>
      </trkpt>
      <trkpt lat="47.22589" lon="5.90761">
        <ele>301</ele>
        <time>2024-08-03T10:26:56Z</time>
      </trkpt>
      <trkpt lat="47.22588" lon="5.9077">
        <ele>301</ele>
        <time>2024-08-03T10:26:57Z</time>
      </trkpt>
      <trkpt lat="47.22587" lon="5.90778">
        <ele>300.8</ele>
        <time>2024-08-03T10:26:58Z</time>
      </trkpt>
      <trkpt lat="47.22586" lon="5.90787">
        <ele>300.8</ele>
        <time>2024-08-03T10:26:59Z</time>
      </trkpt>
      <trkpt lat="47.22585" lon="5.90796">
        <ele>301</ele>
        <time>2024-08-03T10:27:00Z</time>
      </trkpt>
      <trkpt lat="47.22584" lon="5.90806">
        <ele>300.8</ele>
        <time>2024-08-03T10:27:01Z</time>
      </trkpt>
      <trkpt lat="47.22583" lon="5.90815">
        <ele>301</ele>
        <time>2024-08-03T10:27:02Z</time>
      </trkpt>
      <trkpt lat="47.22583" lon="5.90824">
        <ele>301</ele>
        <time>2024-08-03T10:27:03Z</time>
      </trkpt>
      <trkpt lat="47.22583" lon="5.90833">
        <ele>301</ele>
        <time>2024-08-03T10:27:04Z</time>
      </trkpt>
      <trkpt lat="47.22582" lon="5.90843">
        <ele>301</ele>
        <time>2024-08-03T10:27:05Z</time>
      </trkpt>
      <trkpt lat="47.22582" lon="5.90852">
        <ele>300.8</ele>
        <time>2024-08-03T10:27:06Z</time>
      </trkpt>
      <trkpt lat="47.22582" lon="5.90861">
        <ele>300.8</ele>
        <time>2024-08-03T10:27:07Z</time>
      </trkpt>
      <trkpt lat="47.22581" lon="5.9087">
        <ele>300.6</ele>
        <time>2024-08-03T10:27:08Z</time>
      </trkpt>
      <trkpt lat="47.2258" lon="5.90878">
        <ele>300.4</ele>
        <time>2024-08-03T10:27:09Z</time>
      </trkpt>
      <trkpt lat="47.2258" lon="5.90887">
        <ele>300.2</ele>
        <time>2024-08-03T10:27:10Z</time>
      </trkpt>
      <trkpt lat="47.2258" lon="5.90895">
        <ele>299.8</ele>
        <time>2024-08-03T10:27:11Z</time>
      </trkpt>
      <trkpt lat="47.2258" lon="5.90903">
        <ele>299.8</ele>
        <time>2024-08-03T10:27:12Z</time>
      </trkpt>
      <trkpt lat="47.22581" lon="5.9091">
        <ele>299.8</ele>
        <time>2024-08-03T10:27:13Z</time>
      </trkpt>
      <trkpt lat="47.22583" lon="5.90917">
        <ele>299.6</ele>
        <time>2024-08-03T10:27:14Z</time>
      </trkpt>
      <trkpt lat="47.22584" lon="5.90925">
        <ele>299.6</ele>
        <time>2024-08-03T10:27:15Z</time>
      </trkpt>
      <trkpt lat="47.22585" lon="5.90932">
        <ele>299.4</ele>
        <time>2024-08-03T10:27:16Z</time>
      </trkpt>
      <trkpt lat="47.22586" lon="5.9094">
        <ele>299.4</ele>
        <time>2024-08-03T10:27:17Z</time>
      </trkpt>
      <trkpt lat="47.22587" lon="5.90948">
        <ele>299.2</ele>
        <time>2024-08-03T10:27:18Z</time>
      </trkpt>
      <trkpt lat="47.22588" lon="5.90956">
        <ele>299</ele>
        <time>2024-08-03T10:27:19Z</time>
      </trkpt>
      <trkpt lat="47.2259" lon="5.90964">
        <ele>299</ele>
        <time>2024-08-03T10:27:20Z</time>
      </trkpt>
      <trkpt lat="47.22591" lon="5.90972">
        <ele>299</ele>
        <time>2024-08-03T10:27:21Z</time>
      </trkpt>
      <trkpt lat="47.22592" lon="5.9098">
        <ele>298.8</ele>
        <time>2024-08-03T10:27:22Z</time>
      </trkpt>
      <trkpt lat="47.22593" lon="5.90989">
        <ele>298.6</ele>
        <time>2024-08-03T10:27:23Z</time>
      </trkpt>
      <trkpt lat="47.22594" lon="5.90998">
        <ele>298.6</ele>
        <time>2024-08-03T10:27:24Z</time>
      </trkpt>
      <trkpt lat="47.22594" lon="5.91007">
        <ele>298.4</ele>
        <time>2024-08-03T10:27:25Z</time>
      </trkpt>
      <trkpt lat="47.22594" lon="5.91016">
        <ele>298.4</ele>
        <time>2024-08-03T10:27:26Z</time>
      </trkpt>
      <trkpt lat="47.22595" lon="5.91025">
        <ele>298.2</ele>
        <time>2024-08-03T10:27:27Z</time>
      </trkpt>
      <trkpt lat="47.22596" lon="5.91034">
        <ele>298.2</ele>
        <time>2024-08-03T10:27:28Z</time>
      </trkpt>
      <trkpt lat="47.22597" lon="5.91043">
        <ele>298.2</ele>
        <time>2024-08-03T10:27:29Z</time>
      </trkpt>
      <trkpt lat="47.22598" lon="5.91053">
        <ele>297.8</ele>
        <time>2024-08-03T10:27:30Z</time>
      </trkpt>
      <trkpt lat="47.226" lon="5.91062">
        <ele>297.8</ele>
        <time>2024-08-03T10:27:31Z</time>
      </trkpt>
      <trkpt lat="47.22601" lon="5.91072">
        <ele>297.6</ele>
        <time>2024-08-03T10:27:32Z</time>
      </trkpt>
      <trkpt lat="47.22602" lon="5.91081">
        <ele>297.4</ele>
        <time>2024-08-03T10:27:33Z</time>
      </trkpt>
      <trkpt lat="47.22604" lon="5.91091">
        <ele>297.4</ele>
        <time>2024-08-03T10:27:34Z</time>
      </trkpt>
      <trkpt lat="47.22605" lon="5.91101">
        <ele>297.2</ele>
        <time>2024-08-03T10:27:35Z</time>
      </trkpt>
      <trkpt lat="47.22606" lon="5.9111">
        <ele>297.2</ele>
        <time>2024-08-03T10:27:36Z</time>
      </trkpt>
      <trkpt lat="47.22607" lon="5.91119">
        <ele>297</ele>
        <time>2024-08-03T10:27:37Z</time>
      </trkpt>
      <trkpt lat="47.22608" lon="5.91128">
        <ele>296.8</ele>
        <time>2024-08-03T10:27:38Z</time>
      </trkpt>
      <trkpt lat="47.22609" lon="5.91137">
        <ele>296.8</ele>
        <time>2024-08-03T10:27:39Z</time>
      </trkpt>
      <trkpt lat="47.22611" lon="5.91146">
        <ele>296.6</ele>
        <time>2024-08-03T10:27:40Z</time>
      </trkpt>
      <trkpt lat="47.22612" lon="5.91154">
        <ele>296.2</ele>
        <time>2024-08-03T10:27:41Z</time>
      </trkpt>
      <trkpt lat="47.22613" lon="5.91163">
        <ele>296.2</ele>
        <time>2024-08-03T10:27:42Z</time>
      </trkpt>
      <trkpt lat="47.22615" lon="5.91172">
        <ele>296.2</ele>
        <time>2024-08-03T10:27:43Z</time>
      </trkpt>
      <trkpt lat="47.22616" lon="5.91181">
        <ele>296</ele>
        <time>2024-08-03T10:27:44Z</time>
      </trkpt>
      <trkpt lat="47.22617" lon="5.9119">
        <ele>295.6</ele>
        <time>2024-08-03T10:27:45Z</time>
      </trkpt>
      <trkpt lat="47.22618" lon="5.912">
        <ele>295.4</ele>
        <time>2024-08-03T10:27:46Z</time>
      </trkpt>
      <trkpt lat="47.22619" lon="5.91209">
        <ele>295.4</ele>
        <time>2024-08-03T10:27:47Z</time>
      </trkpt>
      <trkpt lat="47.2262" lon="5.91219">
        <ele>295.2</ele>
        <time>2024-08-03T10:27:48Z</time>
      </trkpt>
      <trkpt lat="47.22622" lon="5.91229">
        <ele>295</ele>
        <time>2024-08-03T10:27:49Z</time>
      </trkpt>
      <trkpt lat="47.22623" lon="5.91238">
        <ele>295.2</ele>
        <time>2024-08-03T10:27:50Z</time>
      </trkpt>
      <trkpt lat="47.22624" lon="5.91248">
        <ele>295.2</ele>
        <time>2024-08-03T10:27:51Z</time>
      </trkpt>
      <trkpt lat="47.22625" lon="5.91258">
        <ele>295</ele>
        <time>2024-08-03T10:27:52Z</time>
      </trkpt>
      <trkpt lat="47.22625" lon="5.91267">
        <ele>294.8</ele>
        <time>2024-08-03T10:27:53Z</time>
      </trkpt>
      <trkpt lat="47.22623" lon="5.91277">
        <ele>294.6</ele>
        <time>2024-08-03T10:27:54Z</time>
      </trkpt>
      <trkpt lat="47.22621" lon="5.91285">
        <ele>294.4</ele>
        <time>2024-08-03T10:27:55Z</time>
      </trkpt>
      <trkpt lat="47.22617" lon="5.91293">
        <ele>294.4</ele>
        <time>2024-08-03T10:27:56Z</time>
      </trkpt>
      <trkpt lat="47.22612" lon="5.91299">
        <ele>294.4</ele>
        <time>2024-08-03T10:27:57Z</time>
      </trkpt>
      <trkpt lat="47.22608" lon="5.91306">
        <ele>294.2</ele>
        <time>2024-08-03T10:27:58Z</time>
      </trkpt>
      <trkpt lat="47.22602" lon="5.91311">
        <ele>294</ele>
        <time>2024-08-03T10:27:59Z</time>
      </trkpt>
      <trkpt lat="47.22597" lon="5.91318">
        <ele>293.8</ele>
        <time>2024-08-03T10:28:00Z</time>
      </trkpt>
      <trkpt lat="47.22591" lon="5.91323">
        <ele>293.6</ele>
        <time>2024-08-03T10:28:01Z</time>
      </trkpt>
      <trkpt lat="47.22585" lon="5.9133">
        <ele>293.6</ele>
        <time>2024-08-03T10:28:02Z</time>
      </trkpt>
      <trkpt lat="47.22579" lon="5.91338">
        <ele>293.4</ele>
        <time>2024-08-03T10:28:03Z</time>
      </trkpt>
      <trkpt lat="47.22574" lon="5.91345">
        <ele>293.2</ele>
        <time>2024-08-03T10:28:04Z</time>
      </trkpt>
      <trkpt lat="47.22568" lon="5.91354">
        <ele>293.2</ele>
        <time>2024-08-03T10:28:05Z</time>
      </trkpt>
      <trkpt lat="47.22562" lon="5.91363">
        <ele>293.4</ele>
        <time>2024-08-03T10:28:06Z</time>
      </trkpt>
      <trkpt lat="47.22555" lon="5.91372">
        <ele>293.2</ele>
        <time>2024-08-03T10:28:07Z</time>
      </trkpt>
      <trkpt lat="47.22549" lon="5.91382">
        <ele>293</ele>
        <time>2024-08-03T10:28:08Z</time>
      </trkpt>
      <trkpt lat="47.22543" lon="5.91393">
        <ele>292.4</ele>
        <time>2024-08-03T10:28:09Z</time>
      </trkpt>
      <trkpt lat="47.22537" lon="5.91403">
        <ele>292</ele>
        <time>2024-08-03T10:28:10Z</time>
      </trkpt>
      <trkpt lat="47.2253" lon="5.91412">
        <ele>291.6</ele>
        <time>2024-08-03T10:28:11Z</time>
      </trkpt>
      <trkpt lat="47.22524" lon="5.91419">
        <ele>291.2</ele>
        <time>2024-08-03T10:28:12Z</time>
      </trkpt>
      <trkpt lat="47.22517" lon="5.91425">
        <ele>290.8</ele>
        <time>2024-08-03T10:28:13Z</time>
      </trkpt>
      <trkpt lat="47.22511" lon="5.9143">
        <ele>290.2</ele>
        <time>2024-08-03T10:28:14Z</time>
      </trkpt>
      <trkpt lat="47.22505" lon="5.91434">
        <ele>290</ele>
        <time>2024-08-03T10:28:15Z</time>
      </trkpt>
      <trkpt lat="47.22499" lon="5.91437">
        <ele>289.6</ele>
        <time>2024-08-03T10:28:16Z</time>
      </trkpt>
      <trkpt lat="47.22493" lon="5.91441">
        <ele>289.8</ele>
        <time>2024-08-03T10:28:17Z</time>
      </trkpt>
      <trkpt lat="47.22489" lon="5.91446">
        <ele>289.6</ele>
        <time>2024-08-03T10:28:18Z</time>
      </trkpt>
      <trkpt lat="47.22485" lon="5.91451">
        <ele>289.6</ele>
        <time>2024-08-03T10:28:19Z</time>
      </trkpt>
      <trkpt lat="47.22482" lon="5.91455">
        <ele>289.6</ele>
        <time>2024-08-03T10:28:20Z</time>
      </trkpt>
      <trkpt lat="47.22479" lon="5.9146">
        <ele>289.6</ele>
        <time>2024-08-03T10:28:21Z</time>
      </trkpt>
      <trkpt lat="47.22476" lon="5.91466">
        <ele>289.6</ele>
        <time>2024-08-03T10:28:22Z</time>
      </trkpt>
      <trkpt lat="47.22474" lon="5.91471">
        <ele>289.6</ele>
        <time>2024-08-03T10:28:23Z</time>
      </trkpt>
      <trkpt lat="47.22471" lon="5.91475">
        <ele>289.6</ele>
        <time>2024-08-03T10:28:24Z</time>
      </trkpt>
      <trkpt lat="47.22469" lon="5.9148">
        <ele>290</ele>
        <time>2024-08-03T10:28:25Z</time>
      </trkpt>
      <trkpt lat="47.22466" lon="5.91485">
        <ele>290.2</ele>
        <time>2024-08-03T10:28:26Z</time>
      </trkpt>
      <trkpt lat="47.22464" lon="5.9149">
        <ele>290.6</ele>
        <time>2024-08-03T10:28:27Z</time>
      </trkpt>
      <trkpt lat="47.22461" lon="5.91495">
        <ele>290.6</ele>
        <time>2024-08-03T10:28:28Z</time>
      </trkpt>
      <trkpt lat="47.22459" lon="5.915">
        <ele>291</ele>
        <time>2024-08-03T10:28:29Z</time>
      </trkpt>
      <trkpt lat="47.22457" lon="5.91505">
        <ele>291.2</ele>
        <time>2024-08-03T10:28:30Z</time>
      </trkpt>
      <trkpt lat="47.22455" lon="5.9151">
        <ele>291.4</ele>
        <time>2024-08-03T10:28:31Z</time>
      </trkpt>
      <trkpt lat="47.22452" lon="5.91515">
        <ele>292</ele>
        <time>2024-08-03T10:28:32Z</time>
      </trkpt>
      <trkpt lat="47.2245" lon="5.9152">
        <ele>292.4</ele>
        <time>2024-08-03T10:28:33Z</time>
      </trkpt>
      <trkpt lat="47.22447" lon="5.91525">
        <ele>292.4</ele>
        <time>2024-08-03T10:28:34Z</time>
      </trkpt>
      <trkpt lat="47.22444" lon="5.91531">
        <ele>292.8</ele>
        <time>2024-08-03T10:28:35Z</time>
      </trkpt>
      <trkpt lat="47.22442" lon="5.91537">
        <ele>293</ele>
        <time>2024-08-03T10:28:36Z</time>
      </trkpt>
      <trkpt lat="47.2244" lon="5.91543">
        <ele>293.4</ele>
        <time>2024-08-03T10:28:37Z</time>
      </trkpt>
      <trkpt lat="47.22438" lon="5.91549">
        <ele>293.6</ele>
        <time>2024-08-03T10:28:38Z</time>
      </trkpt>
      <trkpt lat="47.22437" lon="5.91556">
        <ele>293.8</ele>
        <time>2024-08-03T10:28:39Z</time>
      </trkpt>
      <trkpt lat="47.22438" lon="5.91563">
        <ele>293.6</ele>
        <time>2024-08-03T10:28:40Z</time>
      </trkpt>
      <trkpt lat="47.22438" lon="5.91572">
        <ele>293.8</ele>
        <time>2024-08-03T10:28:41Z</time>
      </trkpt>
      <trkpt lat="47.2244" lon="5.91581">
        <ele>293.8</ele>
        <time>2024-08-03T10:28:42Z</time>
      </trkpt>
      <trkpt lat="47.22441" lon="5.91591">
        <ele>293.8</ele>
        <time>2024-08-03T10:28:43Z</time>
      </trkpt>
      <trkpt lat="47.22441" lon="5.91602">
        <ele>293.8</ele>
        <time>2024-08-03T10:28:44Z</time>
      </trkpt>
      <trkpt lat="47.22441" lon="5.91614">
        <ele>293.8</ele>
        <time>2024-08-03T10:28:45Z</time>
      </trkpt>
      <trkpt lat="47.22441" lon="5.91625">
        <ele>293.8</ele>
        <time>2024-08-03T10:28:46Z</time>
      </trkpt>
      <trkpt lat="47.2244" lon="5.91637">
        <ele>293.8</ele>
        <time>2024-08-03T10:28:47Z</time>
      </trkpt>
      <trkpt lat="47.2244" lon="5.91648">
        <ele>293.6</ele>
        <time>2024-08-03T10:28:48Z</time>
      </trkpt>
      <trkpt lat="47.22439" lon="5.91659">
        <ele>293.4</ele>
        <time>2024-08-03T10:28:49Z</time>
      </trkpt>
      <trkpt lat="47.22438" lon="5.91669">
        <ele>293.4</ele>
        <time>2024-08-03T10:28:50Z</time>
      </trkpt>
      <trkpt lat="47.22438" lon="5.91679">
        <ele>292.8</ele>
        <time>2024-08-03T10:28:51Z</time>
      </trkpt>
      <trkpt lat="47.22439" lon="5.9169">
        <ele>292</ele>
        <time>2024-08-03T10:28:52Z</time>
      </trkpt>
      <trkpt lat="47.22441" lon="5.91701">
        <ele>291.2</ele>
        <time>2024-08-03T10:28:53Z</time>
      </trkpt>
      <trkpt lat="47.22442" lon="5.91712">
        <ele>290.2</ele>
        <time>2024-08-03T10:28:54Z</time>
      </trkpt>
      <trkpt lat="47.22442" lon="5.91723">
        <ele>289.4</ele>
        <time>2024-08-03T10:28:55Z</time>
      </trkpt>
      <trkpt lat="47.2244" lon="5.91734">
        <ele>288.8</ele>
        <time>2024-08-03T10:28:56Z</time>
      </trkpt>
      <trkpt lat="47.22438" lon="5.91745">
        <ele>288</ele>
        <time>2024-08-03T10:28:57Z</time>
      </trkpt>
      <trkpt lat="47.22434" lon="5.91755">
        <ele>287.4</ele>
        <time>2024-08-03T10:28:58Z</time>
      </trkpt>
      <trkpt lat="47.22431" lon="5.91763">
        <ele>286.8</ele>
        <time>2024-08-03T10:28:59Z</time>
      </trkpt>
      <trkpt lat="47.22428" lon="5.9177">
        <ele>286.4</ele>
        <time>2024-08-03T10:29:00Z</time>
      </trkpt>
      <trkpt lat="47.22424" lon="5.91776">
        <ele>286.2</ele>
        <time>2024-08-03T10:29:01Z</time>
      </trkpt>
      <trkpt lat="47.22423" lon="5.91782">
        <ele>286.2</ele>
        <time>2024-08-03T10:29:02Z</time>
      </trkpt>
      <trkpt lat="47.22421" lon="5.91788">
        <ele>286.2</ele>
        <time>2024-08-03T10:29:03Z</time>
      </trkpt>
      <trkpt lat="47.22419" lon="5.91792">
        <ele>286.2</ele>
        <time>2024-08-03T10:29:04Z</time>
      </trkpt>
      <trkpt lat="47.22417" lon="5.91796">
        <ele>286.2</ele>
        <time>2024-08-03T10:29:05Z</time>
      </trkpt>
      <trkpt lat="47.22415" lon="5.918">
        <ele>286.2</ele>
        <time>2024-08-03T10:29:06Z</time>
      </trkpt>
      <trkpt lat="47.22413" lon="5.91804">
        <ele>286</ele>
        <time>2024-08-03T10:29:07Z</time>
      </trkpt>
      <trkpt lat="47.22412" lon="5.91807">
        <ele>286.2</ele>
        <time>2024-08-03T10:29:08Z</time>
      </trkpt>
      <trkpt lat="47.22412" lon="5.9181">
        <ele>286.2</ele>
        <time>2024-08-03T10:29:09Z</time>
      </trkpt>
      <trkpt lat="47.22412" lon="5.91813">
        <ele>286.2</ele>
        <time>2024-08-03T10:29:10Z</time>
      </trkpt>
      <trkpt lat="47.22413" lon="5.91817">
        <ele>286.6</ele>
        <time>2024-08-03T10:29:11Z</time>
      </trkpt>
      <trkpt lat="47.22415" lon="5.9182">
        <ele>286.6</ele>
        <time>2024-08-03T10:29:12Z</time>
      </trkpt>
      <trkpt lat="47.22417" lon="5.91823">
        <ele>287</ele>
        <time>2024-08-03T10:29:13Z</time>
      </trkpt>
      <trkpt lat="47.22419" lon="5.91827">
        <ele>287.4</ele>
        <time>2024-08-03T10:29:14Z</time>
      </trkpt>
      <trkpt lat="47.22422" lon="5.9183">
        <ele>288</ele>
        <time>2024-08-03T10:29:15Z</time>
      </trkpt>
      <trkpt lat="47.22425" lon="5.91834">
        <ele>288.4</ele>
        <time>2024-08-03T10:29:16Z</time>
      </trkpt>
      <trkpt lat="47.22428" lon="5.91837">
        <ele>288.8</ele>
        <time>2024-08-03T10:29:17Z</time>
      </trkpt>
      <trkpt lat="47.22432" lon="5.91841">
        <ele>289.2</ele>
        <time>2024-08-03T10:29:18Z</time>
      </trkpt>
      <trkpt lat="47.22436" lon="5.91844">
        <ele>289.4</ele>
        <time>2024-08-03T10:29:19Z</time>
      </trkpt>
      <trkpt lat="47.22441" lon="5.91846">
        <ele>289.6</ele>
        <time>2024-08-03T10:29:20Z</time>
      </trkpt>
      <trkpt lat="47.22444" lon="5.91849">
        <ele>289.8</ele>
        <time>2024-08-03T10:29:21Z</time>
      </trkpt>
      <trkpt lat="47.22448" lon="5.91851">
        <ele>289.8</ele>
        <time>2024-08-03T10:29:22Z</time>
      </trkpt>
      <trkpt lat="47.22451" lon="5.91854">
        <ele>290.2</ele>
        <time>2024-08-03T10:29:23Z</time>
      </trkpt>
      <trkpt lat="47.22455" lon="5.91856">
        <ele>290.2</ele>
        <time>2024-08-03T10:29:24Z</time>
      </trkpt>
      <trkpt lat="47.22458" lon="5.91858">
        <ele>290.4</ele>
        <time>2024-08-03T10:29:25Z</time>
      </trkpt>
      <trkpt lat="47.22462" lon="5.91861">
        <ele>290.6</ele>
        <time>2024-08-03T10:29:26Z</time>
      </trkpt>
      <trkpt lat="47.22467" lon="5.91862">
        <ele>290.8</ele>
        <time>2024-08-03T10:29:27Z</time>
      </trkpt>
      <trkpt lat="47.22472" lon="5.91864">
        <ele>291</ele>
        <time>2024-08-03T10:29:28Z</time>
      </trkpt>
      <trkpt lat="47.22476" lon="5.91865">
        <ele>291.2</ele>
        <time>2024-08-03T10:29:29Z</time>
      </trkpt>
      <trkpt lat="47.22481" lon="5.91866">
        <ele>291.2</ele>
        <time>2024-08-03T10:29:30Z</time>
      </trkpt>
      <trkpt lat="47.22485" lon="5.91866">
        <ele>291.2</ele>
        <time>2024-08-03T10:29:31Z</time>
      </trkpt>
      <trkpt lat="47.2249" lon="5.91866">
        <ele>291.4</ele>
        <time>2024-08-03T10:29:32Z</time>
      </trkpt>
      <trkpt lat="47.22495" lon="5.91866">
        <ele>291.4</ele>
        <time>2024-08-03T10:29:33Z</time>
      </trkpt>
      <trkpt lat="47.22499" lon="5.91866">
        <ele>291.2</ele>
        <time>2024-08-03T10:29:34Z</time>
      </trkpt>
      <trkpt lat="47.22503" lon="5.91867">
        <ele>291.4</ele>
        <time>2024-08-03T10:29:35Z</time>
      </trkpt>
      <trkpt lat="47.22505" lon="5.91869">
        <ele>291.4</ele>
        <time>2024-08-03T10:29:36Z</time>
      </trkpt>
      <trkpt lat="47.22507" lon="5.91871">
        <ele>291.6</ele>
        <time>2024-08-03T10:29:37Z</time>
      </trkpt>
      <trkpt lat="47.22508" lon="5.91874">
        <ele>291.4</ele>
        <time>2024-08-03T10:29:38Z</time>
      </trkpt>
      <trkpt lat="47.22508" lon="5.91877">
        <ele>291.6</ele>
        <time>2024-08-03T10:29:39Z</time>
      </trkpt>
      <trkpt lat="47.22509" lon="5.9188">
        <ele>291.6</ele>
        <time>2024-08-03T10:29:40Z</time>
      </trkpt>
      <trkpt lat="47.2251" lon="5.91883">
        <ele>291.4</ele>
        <time>2024-08-03T10:29:41Z</time>
      </trkpt>
      <trkpt lat="47.2251" lon="5.91886">
        <ele>291.6</ele>
        <time>2024-08-03T10:29:42Z</time>
      </trkpt>
      <trkpt lat="47.2251" lon="5.9189">
        <ele>291.4</ele>
        <time>2024-08-03T10:29:43Z</time>
      </trkpt>
      <trkpt lat="47.2251" lon="5.91894">
        <ele>291.6</ele>
        <time>2024-08-03T10:29:44Z</time>
      </trkpt>
      <trkpt lat="47.2251" lon="5.91899">
        <ele>291.6</ele>
        <time>2024-08-03T10:29:45Z</time>
      </trkpt>
      <trkpt lat="47.2251" lon="5.91904">
        <ele>291.4</ele>
        <time>2024-08-03T10:29:46Z</time>
      </trkpt>
      <trkpt lat="47.22509" lon="5.91911">
        <ele>291.4</ele>
        <time>2024-08-03T10:29:47Z</time>
      </trkpt>
      <trkpt lat="47.22509" lon="5.91918">
        <ele>291</ele>
        <time>2024-08-03T10:29:48Z</time>
      </trkpt>
      <trkpt lat="47.22509" lon="5.91925">
        <ele>290.8</ele>
        <time>2024-08-03T10:29:49Z</time>
      </trkpt>
      <trkpt lat="47.22508" lon="5.91933">
        <ele>290.8</ele>
        <time>2024-08-03T10:29:50Z</time>
      </trkpt>
      <trkpt lat="47.22508" lon="5.91941">
        <ele>290.8</ele>
        <time>2024-08-03T10:29:51Z</time>
      </trkpt>
      <trkpt lat="47.22508" lon="5.9195">
        <ele>290.4</ele>
        <time>2024-08-03T10:29:52Z</time>
      </trkpt>
      <trkpt lat="47.22508" lon="5.91959">
        <ele>290.4</ele>
        <time>2024-08-03T10:29:53Z</time>
      </trkpt>
      <trkpt lat="47.22508" lon="5.91969">
        <ele>290.2</ele>
        <time>2024-08-03T10:29:54Z</time>
      </trkpt>
      <trkpt lat="47.22508" lon="5.91978">
        <ele>290</ele>
        <time>2024-08-03T10:29:55Z</time>
      </trkpt>
      <trkpt lat="47.22508" lon="5.91985">
        <ele>290</ele>
        <time>2024-08-03T10:29:56Z</time>
      </trkpt>
      <trkpt lat="47.22507" lon="5.91992">
        <ele>289.8</ele>
        <time>2024-08-03T10:29:57Z</time>
      </trkpt>
      <trkpt lat="47.22507" lon="5.91999">
        <ele>289.4</ele>
        <time>2024-08-03T10:29:58Z</time>
      </trkpt>
      <trkpt lat="47.22507" lon="5.92006">
        <ele>289.2</ele>
        <time>2024-08-03T10:29:59Z</time>
      </trkpt>
      <trkpt lat="47.22508" lon="5.92012">
        <ele>288.8</ele>
        <time>2024-08-03T10:30:00Z</time>
      </trkpt>
      <trkpt lat="47.22508" lon="5.92017">
        <ele>288.6</ele>
        <time>2024-08-03T10:30:01Z</time>
      </trkpt>
      <trkpt lat="47.22508" lon="5.92023">
        <ele>288.2</ele>
        <time>2024-08-03T10:30:02Z</time>
      </trkpt>
      <trkpt lat="47.22508" lon="5.92027">
        <ele>287.8</ele>
        <time>2024-08-03T10:30:03Z</time>
      </trkpt>
      <trkpt lat="47.22507" lon="5.9203">
        <ele>287.4</ele>
        <time>2024-08-03T10:30:04Z</time>
      </trkpt>
      <trkpt lat="47.22507" lon="5.92034">
        <ele>287.2</ele>
        <time>2024-08-03T10:30:05Z</time>
      </trkpt>
      <trkpt lat="47.22508" lon="5.92037">
        <ele>286.6</ele>
        <time>2024-08-03T10:30:06Z</time>
      </trkpt>
      <trkpt lat="47.22508" lon="5.9204">
        <ele>286.4</ele>
        <time>2024-08-03T10:30:07Z</time>
      </trkpt>
      <trkpt lat="47.22507" lon="5.92044">
        <ele>286</ele>
        <time>2024-08-03T10:30:08Z</time>
      </trkpt>
      <trkpt lat="47.22507" lon="5.92048">
        <ele>285.8</ele>
        <time>2024-08-03T10:30:09Z</time>
      </trkpt>
      <trkpt lat="47.22506" lon="5.92052">
        <ele>285.4</ele>
        <time>2024-08-03T10:30:10Z</time>
      </trkpt>
      <trkpt lat="47.22505" lon="5.92057">
        <ele>285.2</ele>
        <time>2024-08-03T10:30:11Z</time>
      </trkpt>
      <trkpt lat="47.22504" lon="5.92062">
        <ele>285.2</ele>
        <time>2024-08-03T10:30:12Z</time>
      </trkpt>
      <trkpt lat="47.22503" lon="5.92068">
        <ele>285.2</ele>
        <time>2024-08-03T10:30:13Z</time>
      </trkpt>
      <trkpt lat="47.22502" lon="5.92073">
        <ele>285</ele>
        <time>2024-08-03T10:30:14Z</time>
      </trkpt>
      <trkpt lat="47.22502" lon="5.92079">
        <ele>285</ele>
        <time>2024-08-03T10:30:15Z</time>
      </trkpt>
      <trkpt lat="47.22502" lon="5.92085">
        <ele>285</ele>
        <time>2024-08-03T10:30:16Z</time>
      </trkpt>
      <trkpt lat="47.22501" lon="5.92091">
        <ele>285</ele>
        <time>2024-08-03T10:30:17Z</time>
      </trkpt>
      <trkpt lat="47.22499" lon="5.92097">
        <ele>285</ele>
        <time>2024-08-03T10:30:18Z</time>
      </trkpt>
      <trkpt lat="47.22498" lon="5.92103">
        <ele>285</ele>
        <time>2024-08-03T10:30:19Z</time>
      </trkpt>
      <trkpt lat="47.22495" lon="5.92109">
        <ele>285</ele>
        <time>2024-08-03T10:30:20Z</time>
      </trkpt>
      <trkpt lat="47.22492" lon="5.92115">
        <ele>285</ele>
        <time>2024-08-03T10:30:21Z</time>
      </trkpt>
      <trkpt lat="47.22489" lon="5.92121">
        <ele>285.2</ele>
        <time>2024-08-03T10:30:22Z</time>
      </trkpt>
      <trkpt lat="47.22487" lon="5.92127">
        <ele>285</ele>
        <time>2024-08-03T10:30:23Z</time>
      </trkpt>
      <trkpt lat="47.22485" lon="5.92133">
        <ele>285</ele>
        <time>2024-08-03T10:30:24Z</time>
      </trkpt>
      <trkpt lat="47.22483" lon="5.92139">
        <ele>285</ele>
        <time>2024-08-03T10:30:25Z</time>
      </trkpt>
      <trkpt lat="47.2248" lon="5.92146">
        <ele>285.2</ele>
        <time>2024-08-03T10:30:26Z</time>
      </trkpt>
      <trkpt lat="47.22478" lon="5.92152">
        <ele>285.2</ele>
        <time>2024-08-03T10:30:27Z</time>
      </trkpt>
      <trkpt lat="47.22475" lon="5.92159">
        <ele>285.4</ele>
        <time>2024-08-03T10:30:28Z</time>
      </trkpt>
      <trkpt lat="47.22473" lon="5.92164">
        <ele>285.2</ele>
        <time>2024-08-03T10:30:29Z</time>
      </trkpt>
      <trkpt lat="47.22471" lon="5.92169">
        <ele>285.2</ele>
        <time>2024-08-03T10:30:30Z</time>
      </trkpt>
      <trkpt lat="47.2247" lon="5.92174">
        <ele>285.2</ele>
        <time>2024-08-03T10:30:31Z</time>
      </trkpt>
      <trkpt lat="47.22469" lon="5.92179">
        <ele>285.2</ele>
        <time>2024-08-03T10:30:32Z</time>
      </trkpt>
      <trkpt lat="47.22468" lon="5.92185">
        <ele>285.4</ele>
        <time>2024-08-03T10:30:33Z</time>
      </trkpt>
      <trkpt lat="47.22467" lon="5.9219">
        <ele>285.4</ele>
        <time>2024-08-03T10:30:34Z</time>
      </trkpt>
      <trkpt lat="47.22466" lon="5.92195">
        <ele>285.4</ele>
        <time>2024-08-03T10:30:35Z</time>
      </trkpt>
      <trkpt lat="47.22465" lon="5.922">
        <ele>285.4</ele>
        <time>2024-08-03T10:30:36Z</time>
      </trkpt>
      <trkpt lat="47.22464" lon="5.92205">
        <ele>285.6</ele>
        <time>2024-08-03T10:30:37Z</time>
      </trkpt>
      <trkpt lat="47.22463" lon="5.9221">
        <ele>285.8</ele>
        <time>2024-08-03T10:30:38Z</time>
      </trkpt>
      <trkpt lat="47.22463" lon="5.92215">
        <ele>285.8</ele>
        <time>2024-08-03T10:30:39Z</time>
      </trkpt>
      <trkpt lat="47.22462" lon="5.9222">
        <ele>285.8</ele>
        <time>2024-08-03T10:30:40Z</time>
      </trkpt>
      <trkpt lat="47.22461" lon="5.92224">
        <ele>286.2</ele>
        <time>2024-08-03T10:30:41Z</time>
      </trkpt>
      <trkpt lat="47.22458" lon="5.92228">
        <ele>286.4</ele>
        <time>2024-08-03T10:30:42Z</time>
      </trkpt>
      <trkpt lat="47.22455" lon="5.92233">
        <ele>286.8</ele>
        <time>2024-08-03T10:30:43Z</time>
      </trkpt>
      <trkpt lat="47.22454" lon="5.92238">
        <ele>287</ele>
        <time>2024-08-03T10:30:44Z</time>
      </trkpt>
      <trkpt lat="47.22451" lon="5.92242">
        <ele>287.2</ele>
        <time>2024-08-03T10:30:45Z</time>
      </trkpt>
      <trkpt lat="47.2245" lon="5.92246">
        <ele>287.4</ele>
        <time>2024-08-03T10:30:46Z</time>
      </trkpt>
      <trkpt lat="47.22448" lon="5.9225">
        <ele>288</ele>
        <time>2024-08-03T10:30:47Z</time>
      </trkpt>
      <trkpt lat="47.22444" lon="5.92255">
        <ele>288.2</ele>
        <time>2024-08-03T10:30:48Z</time>
      </trkpt>
      <trkpt lat="47.22441" lon="5.92257">
        <ele>288.4</ele>
        <time>2024-08-03T10:30:49Z</time>
      </trkpt>
      <trkpt lat="47.2244" lon="5.92262">
        <ele>288.6</ele>
        <time>2024-08-03T10:30:50Z</time>
      </trkpt>
      <trkpt lat="47.22439" lon="5.92267">
        <ele>288.8</ele>
        <time>2024-08-03T10:30:51Z</time>
      </trkpt>
      <trkpt lat="47.22438" lon="5.92272">
        <ele>289.2</ele>
        <time>2024-08-03T10:30:52Z</time>
      </trkpt>
      <trkpt lat="47.22438" lon="5.92276">
        <ele>289.6</ele>
        <time>2024-08-03T10:30:53Z</time>
      </trkpt>
      <trkpt lat="47.22436" lon="5.92279">
        <ele>289.8</ele>
        <time>2024-08-03T10:30:54Z</time>
      </trkpt>
      <trkpt lat="47.22435" lon="5.92281">
        <ele>290</ele>
        <time>2024-08-03T10:30:55Z</time>
      </trkpt>
      <trkpt lat="47.22432" lon="5.9228">
        <ele>290.4</ele>
        <time>2024-08-03T10:30:56Z</time>
      </trkpt>
      <trkpt lat="47.22429" lon="5.9228">
        <ele>290.4</ele>
        <time>2024-08-03T10:30:57Z</time>
      </trkpt>
      <trkpt lat="47.22424" lon="5.92278">
        <ele>290.6</ele>
        <time>2024-08-03T10:30:58Z</time>
      </trkpt>
      <trkpt lat="47.2242" lon="5.92276">
        <ele>290.8</ele>
        <time>2024-08-03T10:30:59Z</time>
      </trkpt>
      <trkpt lat="47.22418" lon="5.92275">
        <ele>291</ele>
        <time>2024-08-03T10:31:00Z</time>
      </trkpt>
      <trkpt lat="47.22416" lon="5.92274">
        <ele>291</ele>
        <time>2024-08-03T10:31:01Z</time>
      </trkpt>
      <trkpt lat="47.22416" lon="5.92274">
        <ele>291.2</ele>
        <time>2024-08-03T10:31:02Z</time>
      </trkpt>
      <trkpt lat="47.22416" lon="5.92274">
        <ele>291.2</ele>
        <time>2024-08-03T10:31:03Z</time>
      </trkpt>
      <trkpt lat="47.22416" lon="5.92273">
        <ele>291.4</ele>
        <time>2024-08-03T10:31:04Z</time>
      </trkpt>
      <trkpt lat="47.22416" lon="5.92273">
        <ele>291.2</ele>
        <time>2024-08-03T10:31:05Z</time>
      </trkpt>
      <trkpt lat="47.22416" lon="5.92273">
        <ele>291.4</ele>
        <time>2024-08-03T10:31:06Z</time>
      </trkpt>
      <trkpt lat="47.22416" lon="5.92273">
        <ele>291.2</ele>
        <time>2024-08-03T10:31:07Z</time>
      </trkpt>
      <trkpt lat="47.22416" lon="5.92272">
        <ele>291.4</ele>
        <time>2024-08-03T10:31:08Z</time>
      </trkpt>
      <trkpt lat="47.22415" lon="5.92273">
        <ele>291.2</ele>
        <time>2024-08-03T10:31:09Z</time>
      </trkpt>
      <trkpt lat="47.22415" lon="5.92272">
        <ele>291.2</ele>
        <time>2024-08-03T10:31:10Z</time>
      </trkpt>
      <trkpt lat="47.22415" lon="5.92272">
        <ele>291.2</ele>
        <time>2024-08-03T10:31:11Z</time>
      </trkpt>
      <trkpt lat="47.22415" lon="5.92272">
        <ele>291.2</ele>
        <time>2024-08-03T10:31:12Z</time>
      </trkpt>
      <trkpt lat="47.22415" lon="5.92272">
        <ele>291.4</ele>
        <time>2024-08-03T10:31:13Z</time>
      </trkpt>
      <trkpt lat="47.22415" lon="5.92272">
        <ele>291.4</ele>
        <time>2024-08-03T10:31:14Z</time>
      </trkpt>
      <trkpt lat="47.22414" lon="5.92273">
        <ele>291.4</ele>
        <time>2024-08-03T10:31:15Z</time>
      </trkpt>
      <trkpt lat="47.22414" lon="5.92272">
        <ele>291.4</ele>
        <time>2024-08-03T10:31:16Z</time>
      </trkpt>
      <trkpt lat="47.22414" lon="5.92272">
        <ele>291.2</ele>
        <time>2024-08-03T10:31:17Z</time>
      </trkpt>
      <trkpt lat="47.22414" lon="5.92272">
        <ele>291.4</ele>
        <time>2024-08-03T10:31:18Z</time>
      </trkpt>
      <trkpt lat="47.22414" lon="5.92272">
        <ele>291.4</ele>
        <time>2024-08-03T10:31:19Z</time>
      </trkpt>
      <trkpt lat="47.22414" lon="5.92272">
        <ele>291.4</ele>
        <time>2024-08-03T10:31:20Z</time>
      </trkpt>
      <trkpt lat="47.22414" lon="5.92272">
        <ele>291.4</ele>
        <time>2024-08-03T10:31:21Z</time>
      </trkpt>
      <trkpt lat="47.22414" lon="5.92272">
        <ele>291.2</ele>
        <time>2024-08-03T10:31:22Z</time>
      </trkpt>
      <trkpt lat="47.22414" lon="5.92272">
        <ele>291.2</ele>
        <time>2024-08-03T10:31:23Z</time>
      </trkpt>
      <trkpt lat="47.22414" lon="5.92272">
        <ele>291.4</ele>
        <time>2024-08-03T10:31:24Z</time>
      </trkpt>
      <trkpt lat="47.22414" lon="5.92272">
        <ele>291.2</ele>
        <time>2024-08-03T10:31:25Z</time>
      </trkpt>
      <trkpt lat="47.22414" lon="5.92272">
        <ele>291.4</ele>
        <time>2024-08-03T10:31:26Z</time>
      </trkpt>
      <trkpt lat="47.22414" lon="5.92272">
        <ele>291.4</ele>
        <time>2024-08-03T10:31:27Z</time>
      </trkpt>
      <trkpt lat="47.22414" lon="5.92272">
        <ele>291.4</ele>
        <time>2024-08-03T10:31:28Z</time>
      </trkpt>
      <trkpt lat="47.22414" lon="5.92272">
        <ele>291.4</ele>
        <time>2024-08-03T10:31:29Z</time>
      </trkpt>
      <trkpt lat="47.22414" lon="5.92272">
        <ele>291.2</ele>
        <time>2024-08-03T10:31:30Z</time>
      </trkpt>
      <trkpt lat="47.22414" lon="5.92272">
        <ele>291.4</ele>
        <time>2024-08-03T10:31:31Z</time>
      </trkpt>
      <trkpt lat="47.22414" lon="5.92272">
        <ele>291.4</ele>
        <time>2024-08-03T10:31:32Z</time>
      </trkpt>
      <trkpt lat="47.22414" lon="5.92272">
        <ele>291.4</ele>
        <time>2024-08-03T10:31:33Z</time>
      </trkpt>
      <trkpt lat="47.22414" lon="5.92272">
        <ele>291.4</ele>
        <time>2024-08-03T10:31:34Z</time>
      </trkpt>
      <trkpt lat="47.22414" lon="5.92272">
        <ele>291.4</ele>
        <time>2024-08-03T10:31:35Z</time>
      </trkpt>
      <trkpt lat="47.22414" lon="5.92272">
        <ele>291.2</ele>
        <time>2024-08-03T10:31:36Z</time>
      </trkpt>
      <trkpt lat="47.22414" lon="5.92272">
        <ele>291.4</ele>
        <time>2024-08-03T10:31:37Z</time>
      </trkpt>
      <trkpt lat="47.22414" lon="5.92272">
        <ele>291.2</ele>
        <time>2024-08-03T10:31:38Z</time>
      </trkpt>
      <trkpt lat="47.22414" lon="5.92272">
        <ele>291.4</ele>
        <time>2024-08-03T10:31:39Z</time>
      </trkpt>
      <trkpt lat="47.22414" lon="5.92272">
        <ele>291.2</ele>
        <time>2024-08-03T10:31:40Z</time>
      </trkpt>
      <trkpt lat="47.22414" lon="5.92272">
        <ele>291.4</ele>
        <time>2024-08-03T10:31:41Z</time>
      </trkpt>
      <trkpt lat="47.22414" lon="5.92272">
        <ele>291.2</ele>
        <time>2024-08-03T10:31:42Z</time>
      </trkpt>
      <trkpt lat="47.22414" lon="5.92272">
        <ele>291.2</ele>
        <time>2024-08-03T10:31:43Z</time>
      </trkpt>
      <trkpt lat="47.22414" lon="5.92272">
        <ele>291.4</ele>
        <time>2024-08-03T10:31:44Z</time>
      </trkpt>
      <trkpt lat="47.22414" lon="5.92272">
        <ele>291.4</ele>
        <time>2024-08-03T10:31:45Z</time>
      </trkpt>
      <trkpt lat="47.22414" lon="5.92272">
        <ele>291.2</ele>
        <time>2024-08-03T10:31:46Z</time>
      </trkpt>
      <trkpt lat="47.22414" lon="5.92272">
        <ele>291.2</ele>
        <time>2024-08-03T10:31:47Z</time>
      </trkpt>
      <trkpt lat="47.22414" lon="5.92272">
        <ele>291.2</ele>
        <time>2024-08-03T10:31:48Z</time>
      </trkpt>
      <trkpt lat="47.22414" lon="5.92272">
        <ele>291.4</ele>
        <time>2024-08-03T10:31:49Z</time>
      </trkpt>
      <trkpt lat="47.22414" lon="5.92272">
        <ele>291.2</ele>
        <time>2024-08-03T10:31:50Z</time>
      </trkpt>
      <trkpt lat="47.22414" lon="5.92272">
        <ele>291.2</ele>
        <time>2024-08-03T10:31:51Z</time>
      </trkpt>
      <trkpt lat="47.22414" lon="5.92272">
        <ele>291.2</ele>
        <time>2024-08-03T10:31:52Z</time>
      </trkpt>
      <trkpt lat="47.22414" lon="5.92272">
        <ele>291.2</ele>
        <time>2024-08-03T10:31:53Z</time>
      </trkpt>
      <trkpt lat="47.22414" lon="5.92272">
        <ele>291.2</ele>
        <time>2024-08-03T10:31:54Z</time>
      </trkpt>
      <trkpt lat="47.22414" lon="5.92272">
        <ele>291.2</ele>
        <time>2024-08-03T10:31:55Z</time>
      </trkpt>
      <trkpt lat="47.22414" lon="5.92272">
        <ele>291.2</ele>
        <time>2024-08-03T10:31:56Z</time>
      </trkpt>
      <trkpt lat="47.22414" lon="5.92272">
        <ele>291.2</ele>
        <time>2024-08-03T10:31:57Z</time>
      </trkpt>
      <trkpt lat="47.22414" lon="5.92272">
        <ele>291.4</ele>
        <time>2024-08-03T10:31:58Z</time>
      </trkpt>
      <trkpt lat="47.22414" lon="5.92272">
        <ele>291.2</ele>
        <time>2024-08-03T10:31:59Z</time>
      </trkpt>
      <trkpt lat="47.22414" lon="5.92272">
        <ele>291.2</ele>
        <time>2024-08-03T10:32:00Z</time>
      </trkpt>
      <trkpt lat="47.22414" lon="5.92272">
        <ele>291.2</ele>
        <time>2024-08-03T10:32:01Z</time>
      </trkpt>
      <trkpt lat="47.22414" lon="5.92272">
        <ele>291.2</ele>
        <time>2024-08-03T10:32:02Z</time>
      </trkpt>
      <trkpt lat="47.22414" lon="5.92272">
        <ele>291.4</ele>
        <time>2024-08-03T10:32:03Z</time>
      </trkpt>
      <trkpt lat="47.22414" lon="5.92272">
        <ele>291.2</ele>
        <time>2024-08-03T10:32:04Z</time>
      </trkpt>
      <trkpt lat="47.22414" lon="5.92272">
        <ele>291.2</ele>
        <time>2024-08-03T10:32:05Z</time>
      </trkpt>
      <trkpt lat="47.22414" lon="5.92272">
        <ele>291.2</ele>
        <time>2024-08-03T10:32:06Z</time>
      </trkpt>
      <trkpt lat="47.22414" lon="5.92272">
        <ele>291.2</ele>
        <time>2024-08-03T10:32:07Z</time>
      </trkpt>
      <trkpt lat="47.22414" lon="5.92272">
        <ele>291.2</ele>
        <time>2024-08-03T10:32:08Z</time>
      </trkpt>
      <trkpt lat="47.22414" lon="5.92272">
        <ele>291.2</ele>
        <time>2024-08-03T10:32:09Z</time>
      </trkpt>
      <trkpt lat="47.22414" lon="5.92272">
        <ele>291.2</ele>
        <time>2024-08-03T10:32:10Z</time>
      </trkpt>
      <trkpt lat="47.22414" lon="5.92272">
        <ele>291.2</ele>
        <time>2024-08-03T10:32:11Z</time>
      </trkpt>
      <trkpt lat="47.22414" lon="5.92272">
        <ele>291.2</ele>
        <time>2024-08-03T10:32:12Z</time>
      </trkpt>
      <trkpt lat="47.22414" lon="5.92271">
        <ele>291.2</ele>
        <time>2024-08-03T10:32:13Z</time>
      </trkpt>
      <trkpt lat="47.22414" lon="5.92271">
        <ele>291.2</ele>
        <time>2024-08-03T10:32:14Z</time>
      </trkpt>
      <trkpt lat="47.22414" lon="5.92271">
        <ele>291.2</ele>
        <time>2024-08-03T10:32:15Z</time>
      </trkpt>
      <trkpt lat="47.22414" lon="5.92271">
        <ele>291.2</ele>
        <time>2024-08-03T10:32:16Z</time>
      </trkpt>
      <trkpt lat="47.22414" lon="5.92271">
        <ele>291</ele>
        <time>2024-08-03T10:32:17Z</time>
      </trkpt>
      <trkpt lat="47.22415" lon="5.92271">
        <ele>291</ele>
        <time>2024-08-03T10:32:18Z</time>
      </trkpt>
      <trkpt lat="47.22415" lon="5.92271">
        <ele>291.2</ele>
        <time>2024-08-03T10:32:19Z</time>
      </trkpt>
      <trkpt lat="47.22415" lon="5.92271">
        <ele>291</ele>
        <time>2024-08-03T10:32:20Z</time>
      </trkpt>
      <trkpt lat="47.22415" lon="5.92271">
        <ele>291</ele>
        <time>2024-08-03T10:32:21Z</time>
      </trkpt>
      <trkpt lat="47.22415" lon="5.92271">
        <ele>291</ele>
        <time>2024-08-03T10:32:22Z</time>
      </trkpt>
      <trkpt lat="47.22415" lon="5.92271">
        <ele>291</ele>
        <time>2024-08-03T10:32:23Z</time>
      </trkpt>
      <trkpt lat="47.22415" lon="5.92271">
        <ele>291</ele>
        <time>2024-08-03T10:32:24Z</time>
      </trkpt>
      <trkpt lat="47.22415" lon="5.92271">
        <ele>291</ele>
        <time>2024-08-03T10:32:25Z</time>
      </trkpt>
      <trkpt lat="47.22415" lon="5.92271">
        <ele>290.8</ele>
        <time>2024-08-03T10:32:26Z</time>
      </trkpt>
      <trkpt lat="47.22415" lon="5.92271">
        <ele>291</ele>
        <time>2024-08-03T10:32:27Z</time>
      </trkpt>
      <trkpt lat="47.22415" lon="5.92271">
        <ele>291</ele>
        <time>2024-08-03T10:32:28Z</time>
      </trkpt>
      <trkpt lat="47.22415" lon="5.92271">
        <ele>291</ele>
        <time>2024-08-03T10:32:29Z</time>
      </trkpt>
      <trkpt lat="47.22415" lon="5.92271">
        <ele>291</ele>
        <time>2024-08-03T10:32:30Z</time>
      </trkpt>
      <trkpt lat="47.22415" lon="5.92271">
        <ele>291</ele>
        <time>2024-08-03T10:32:31Z</time>
      </trkpt>
      <trkpt lat="47.22415" lon="5.92271">
        <ele>291</ele>
        <time>2024-08-03T10:32:32Z</time>
      </trkpt>
      <trkpt lat="47.22415" lon="5.92271">
        <ele>291</ele>
        <time>2024-08-03T10:32:33Z</time>
      </trkpt>
      <trkpt lat="47.22415" lon="5.92271">
        <ele>290.8</ele>
        <time>2024-08-03T10:32:34Z</time>
      </trkpt>
      <trkpt lat="47.22415" lon="5.92271">
        <ele>291</ele>
        <time>2024-08-03T10:32:35Z</time>
      </trkpt>
      <trkpt lat="47.22415" lon="5.92271">
        <ele>290.8</ele>
        <time>2024-08-03T10:32:36Z</time>
      </trkpt>
      <trkpt lat="47.22415" lon="5.92271">
        <ele>291</ele>
        <time>2024-08-03T10:32:37Z</time>
      </trkpt>
      <trkpt lat="47.22415" lon="5.92271">
        <ele>291</ele>
        <time>2024-08-03T10:32:38Z</time>
      </trkpt>
      <trkpt lat="47.22415" lon="5.92271">
        <ele>290.8</ele>
        <time>2024-08-03T10:32:39Z</time>
      </trkpt>
      <trkpt lat="47.22415" lon="5.92271">
        <ele>290.8</ele>
        <time>2024-08-03T10:32:40Z</time>
      </trkpt>
      <trkpt lat="47.22415" lon="5.92271">
        <ele>291</ele>
        <time>2024-08-03T10:32:41Z</time>
      </trkpt>
      <trkpt lat="47.22415" lon="5.92271">
        <ele>290.8</ele>
        <time>2024-08-03T10:32:42Z</time>
      </trkpt>
      <trkpt lat="47.22415" lon="5.92271">
        <ele>290.8</ele>
        <time>2024-08-03T10:32:43Z</time>
      </trkpt>
      <trkpt lat="47.22415" lon="5.92271">
        <ele>290.8</ele>
        <time>2024-08-03T10:32:44Z</time>
      </trkpt>
      <trkpt lat="47.22415" lon="5.92271">
        <ele>291</ele>
        <time>2024-08-03T10:32:45Z</time>
      </trkpt>
      <trkpt lat="47.22415" lon="5.92271">
        <ele>291</ele>
        <time>2024-08-03T10:32:46Z</time>
      </trkpt>
      <trkpt lat="47.22415" lon="5.92271">
        <ele>290.8</ele>
        <time>2024-08-03T10:32:47Z</time>
      </trkpt>
      <trkpt lat="47.22415" lon="5.92271">
        <ele>291</ele>
        <time>2024-08-03T10:32:48Z</time>
      </trkpt>
      <trkpt lat="47.22415" lon="5.92271">
        <ele>291</ele>
        <time>2024-08-03T10:32:49Z</time>
      </trkpt>
      <trkpt lat="47.22415" lon="5.92271">
        <ele>291</ele>
        <time>2024-08-03T10:32:50Z</time>
      </trkpt>
      <trkpt lat="47.22415" lon="5.92271">
        <ele>291</ele>
        <time>2024-08-03T10:32:51Z</time>
      </trkpt>
      <trkpt lat="47.22415" lon="5.92271">
        <ele>291</ele>
        <time>2024-08-03T10:32:52Z</time>
      </trkpt>
      <trkpt lat="47.22415" lon="5.92271">
        <ele>291</ele>
        <time>2024-08-03T10:32:53Z</time>
      </trkpt>
      <trkpt lat="47.22415" lon="5.92271">
        <ele>291</ele>
        <time>2024-08-03T10:32:54Z</time>
      </trkpt>
      <trkpt lat="47.22415" lon="5.92271">
        <ele>291</ele>
        <time>2024-08-03T10:32:55Z</time>
      </trkpt>
      <trkpt lat="47.22415" lon="5.92271">
        <ele>291</ele>
        <time>2024-08-03T10:32:56Z</time>
      </trkpt>
      <trkpt lat="47.22415" lon="5.92271">
        <ele>291</ele>
        <time>2024-08-03T10:32:57Z</time>
      </trkpt>
      <trkpt lat="47.22415" lon="5.92271">
        <ele>291</ele>
        <time>2024-08-03T10:32:58Z</time>
      </trkpt>
      <trkpt lat="47.22415" lon="5.92271">
        <ele>291</ele>
        <time>2024-08-03T10:32:59Z</time>
      </trkpt>
      <trkpt lat="47.22415" lon="5.92271">
        <ele>291</ele>
        <time>2024-08-03T10:33:00Z</time>
      </trkpt>
      <trkpt lat="47.22415" lon="5.92271">
        <ele>291</ele>
        <time>2024-08-03T10:33:01Z</time>
      </trkpt>
      <trkpt lat="47.22415" lon="5.92271">
        <ele>291</ele>
        <time>2024-08-03T10:33:02Z</time>
      </trkpt>
      <trkpt lat="47.22415" lon="5.92271">
        <ele>291</ele>
        <time>2024-08-03T10:33:03Z</time>
      </trkpt>
      <trkpt lat="47.22415" lon="5.92271">
        <ele>291</ele>
        <time>2024-08-03T10:33:04Z</time>
      </trkpt>
      <trkpt lat="47.22415" lon="5.92271">
        <ele>291</ele>
        <time>2024-08-03T10:33:05Z</time>
      </trkpt>
      <trkpt lat="47.22415" lon="5.92271">
        <ele>291</ele>
        <time>2024-08-03T10:33:06Z</time>
      </trkpt>
      <trkpt lat="47.22415" lon="5.92271">
        <ele>291</ele>
        <time>2024-08-03T10:33:07Z</time>
      </trkpt>
      <trkpt lat="47.22415" lon="5.92271">
        <ele>291</ele>
        <time>2024-08-03T10:33:08Z</time>
      </trkpt>
      <trkpt lat="47.22416" lon="5.92271">
        <ele>290.8</ele>
        <time>2024-08-03T10:33:09Z</time>
      </trkpt>
      <trkpt lat="47.22416" lon="5.92271">
        <ele>291</ele>
        <time>2024-08-03T10:33:10Z</time>
      </trkpt>
      <trkpt lat="47.22416" lon="5.92271">
        <ele>291</ele>
        <time>2024-08-03T10:33:11Z</time>
      </trkpt>
      <trkpt lat="47.22416" lon="5.92271">
        <ele>291</ele>
        <time>2024-08-03T10:33:12Z</time>
      </trkpt>
      <trkpt lat="47.22416" lon="5.92271">
        <ele>291</ele>
        <time>2024-08-03T10:33:13Z</time>
      </trkpt>
      <trkpt lat="47.22416" lon="5.92271">
        <ele>290.8</ele>
        <time>2024-08-03T10:33:14Z</time>
      </trkpt>
      <trkpt lat="47.22416" lon="5.92271">
        <ele>291</ele>
        <time>2024-08-03T10:33:15Z</time>
      </trkpt>
      <trkpt lat="47.22416" lon="5.92271">
        <ele>290.8</ele>
        <time>2024-08-03T10:33:16Z</time>
      </trkpt>
      <trkpt lat="47.22416" lon="5.92272">
        <ele>291</ele>
        <time>2024-08-03T10:33:17Z</time>
      </trkpt>
      <trkpt lat="47.22416" lon="5.92272">
        <ele>291</ele>
        <time>2024-08-03T10:33:18Z</time>
      </trkpt>
      <trkpt lat="47.22416" lon="5.92272">
        <ele>291</ele>
        <time>2024-08-03T10:33:19Z</time>
      </trkpt>
      <trkpt lat="47.22416" lon="5.92272">
        <ele>290.8</ele>
        <time>2024-08-03T10:33:20Z</time>
      </trkpt>
      <trkpt lat="47.22416" lon="5.92272">
        <ele>291</ele>
        <time>2024-08-03T10:33:21Z</time>
      </trkpt>
      <trkpt lat="47.22416" lon="5.92272">
        <ele>291</ele>
        <time>2024-08-03T10:33:22Z</time>
      </trkpt>
      <trkpt lat="47.22416" lon="5.92272">
        <ele>291</ele>
        <time>2024-08-03T10:33:23Z</time>
      </trkpt>
      <trkpt lat="47.22416" lon="5.92272">
        <ele>291</ele>
        <time>2024-08-03T10:33:24Z</time>
      </trkpt>
      <trkpt lat="47.22416" lon="5.92272">
        <ele>291</ele>
        <time>2024-08-03T10:33:25Z</time>
      </trkpt>
      <trkpt lat="47.22416" lon="5.92272">
        <ele>291</ele>
        <time>2024-08-03T10:33:26Z</time>
      </trkpt>
      <trkpt lat="47.22416" lon="5.92272">
        <ele>291</ele>
        <time>2024-08-03T10:33:27Z</time>
      </trkpt>
      <trkpt lat="47.22416" lon="5.92272">
        <ele>291</ele>
        <time>2024-08-03T10:33:28Z</time>
      </trkpt>
      <trkpt lat="47.22416" lon="5.92272">
        <ele>291</ele>
        <time>2024-08-03T10:33:29Z</time>
      </trkpt>
      <trkpt lat="47.22416" lon="5.92272">
        <ele>291</ele>
        <time>2024-08-03T10:33:30Z</time>
      </trkpt>
      <trkpt lat="47.22416" lon="5.92272">
        <ele>291</ele>
        <time>2024-08-03T10:33:31Z</time>
      </trkpt>
      <trkpt lat="47.22416" lon="5.92272">
        <ele>290.8</ele>
        <time>2024-08-03T10:33:32Z</time>
      </trkpt>
      <trkpt lat="47.22416" lon="5.92272">
        <ele>291</ele>
        <time>2024-08-03T10:33:33Z</time>
      </trkpt>
      <trkpt lat="47.22416" lon="5.92272">
        <ele>291</ele>
        <time>2024-08-03T10:33:34Z</time>
      </trkpt>
      <trkpt lat="47.22416" lon="5.92272">
        <ele>291</ele>
        <time>2024-08-03T10:33:35Z</time>
      </trkpt>
      <trkpt lat="47.22416" lon="5.92272">
        <ele>291</ele>
        <time>2024-08-03T10:33:36Z</time>
      </trkpt>
      <trkpt lat="47.22416" lon="5.92273">
        <ele>291</ele>
        <time>2024-08-03T10:33:37Z</time>
      </trkpt>
      <trkpt lat="47.22416" lon="5.92273">
        <ele>290.8</ele>
        <time>2024-08-03T10:33:38Z</time>
      </trkpt>
      <trkpt lat="47.22416" lon="5.92273">
        <ele>290.8</ele>
        <time>2024-08-03T10:33:39Z</time>
      </trkpt>
      <trkpt lat="47.22416" lon="5.92273">
        <ele>290.8</ele>
        <time>2024-08-03T10:33:40Z</time>
      </trkpt>
      <trkpt lat="47.22416" lon="5.92273">
        <ele>290.8</ele>
        <time>2024-08-03T10:33:41Z</time>
      </trkpt>
      <trkpt lat="47.22416" lon="5.92273">
        <ele>290.8</ele>
        <time>2024-08-03T10:33:42Z</time>
      </trkpt>
      <trkpt lat="47.22416" lon="5.92273">
        <ele>290.8</ele>
        <time>2024-08-03T10:33:43Z</time>
      </trkpt>
      <trkpt lat="47.22416" lon="5.92273">
        <ele>290.8</ele>
        <time>2024-08-03T10:33:44Z</time>
      </trkpt>
      <trkpt lat="47.22416" lon="5.92273">
        <ele>290.8</ele>
        <time>2024-08-03T10:33:45Z</time>
      </trkpt>
      <trkpt lat="47.22416" lon="5.92273">
        <ele>290.8</ele>
        <time>2024-08-03T10:33:46Z</time>
      </trkpt>
      <trkpt lat="47.22416" lon="5.92273">
        <ele>290.8</ele>
        <time>2024-08-03T10:33:47Z</time>
      </trkpt>
      <trkpt lat="47.22416" lon="5.92273">
        <ele>290.8</ele>
        <time>2024-08-03T10:33:48Z</time>
      </trkpt>
      <trkpt lat="47.22416" lon="5.92273">
        <ele>290.8</ele>
        <time>2024-08-03T10:33:49Z</time>
      </trkpt>
      <trkpt lat="47.22416" lon="5.92273">
        <ele>290.8</ele>
        <time>2024-08-03T10:33:50Z</time>
      </trkpt>
      <trkpt lat="47.22416" lon="5.92273">
        <ele>290.8</ele>
        <time>2024-08-03T10:33:51Z</time>
      </trkpt>
      <trkpt lat="47.22416" lon="5.92273">
        <ele>290.8</ele>
        <time>2024-08-03T10:33:52Z</time>
      </trkpt>
      <trkpt lat="47.22416" lon="5.92273">
        <ele>291</ele>
        <time>2024-08-03T10:33:53Z</time>
      </trkpt>
      <trkpt lat="47.22416" lon="5.92273">
        <ele>291</ele>
        <time>2024-08-03T10:33:54Z</time>
      </trkpt>
      <trkpt lat="47.22416" lon="5.92273">
        <ele>291</ele>
        <time>2024-08-03T10:33:55Z</time>
      </trkpt>
      <trkpt lat="47.22416" lon="5.92273">
        <ele>291</ele>
        <time>2024-08-03T10:33:56Z</time>
      </trkpt>
      <trkpt lat="47.22416" lon="5.92273">
        <ele>291</ele>
        <time>2024-08-03T10:33:57Z</time>
      </trkpt>
      <trkpt lat="47.22416" lon="5.92273">
        <ele>291</ele>
        <time>2024-08-03T10:33:58Z</time>
      </trkpt>
      <trkpt lat="47.22416" lon="5.92273">
        <ele>291</ele>
        <time>2024-08-03T10:33:59Z</time>
      </trkpt>
      <trkpt lat="47.22416" lon="5.92273">
        <ele>291</ele>
        <time>2024-08-03T10:34:00Z</time>
      </trkpt>
      <trkpt lat="47.22416" lon="5.92273">
        <ele>291.2</ele>
        <time>2024-08-03T10:34:01Z</time>
      </trkpt>
      <trkpt lat="47.22416" lon="5.92272">
        <ele>291.2</ele>
        <time>2024-08-03T10:34:02Z</time>
      </trkpt>
      <trkpt lat="47.22416" lon="5.92272">
        <ele>291</ele>
        <time>2024-08-03T10:34:03Z</time>
      </trkpt>
      <trkpt lat="47.22416" lon="5.92272">
        <ele>291</ele>
        <time>2024-08-03T10:34:04Z</time>
      </trkpt>
      <trkpt lat="47.22416" lon="5.92272">
        <ele>291.2</ele>
        <time>2024-08-03T10:34:05Z</time>
      </trkpt>
      <trkpt lat="47.22416" lon="5.92272">
        <ele>291</ele>
        <time>2024-08-03T10:34:06Z</time>
      </trkpt>
      <trkpt lat="47.22416" lon="5.92272">
        <ele>291.2</ele>
        <time>2024-08-03T10:34:07Z</time>
      </trkpt>
      <trkpt lat="47.22416" lon="5.92272">
        <ele>291</ele>
        <time>2024-08-03T10:34:08Z</time>
      </trkpt>
      <trkpt lat="47.22416" lon="5.92272">
        <ele>291</ele>
        <time>2024-08-03T10:34:09Z</time>
      </trkpt>
      <trkpt lat="47.22416" lon="5.92272">
        <ele>291.2</ele>
        <time>2024-08-03T10:34:10Z</time>
      </trkpt>
      <trkpt lat="47.22416" lon="5.92272">
        <ele>291.2</ele>
        <time>2024-08-03T10:34:11Z</time>
      </trkpt>
      <trkpt lat="47.22416" lon="5.92272">
        <ele>291</ele>
        <time>2024-08-03T10:34:12Z</time>
      </trkpt>
      <trkpt lat="47.22416" lon="5.92272">
        <ele>291.2</ele>
        <time>2024-08-03T10:34:13Z</time>
      </trkpt>
      <trkpt lat="47.22416" lon="5.92272">
        <ele>291</ele>
        <time>2024-08-03T10:34:14Z</time>
      </trkpt>
      <trkpt lat="47.22416" lon="5.92272">
        <ele>291</ele>
        <time>2024-08-03T10:34:15Z</time>
      </trkpt>
      <trkpt lat="47.22416" lon="5.92272">
        <ele>291.2</ele>
        <time>2024-08-03T10:34:16Z</time>
      </trkpt>
      <trkpt lat="47.22416" lon="5.92272">
        <ele>291.2</ele>
        <time>2024-08-03T10:34:17Z</time>
      </trkpt>
      <trkpt lat="47.22416" lon="5.92272">
        <ele>291.2</ele>
        <time>2024-08-03T10:34:18Z</time>
      </trkpt>
      <trkpt lat="47.22416" lon="5.92272">
        <ele>291.2</ele>
        <time>2024-08-03T10:34:19Z</time>
      </trkpt>
      <trkpt lat="47.22416" lon="5.92272">
        <ele>291.2</ele>
        <time>2024-08-03T10:34:20Z</time>
      </trkpt>
      <trkpt lat="47.22416" lon="5.92272">
        <ele>291.2</ele>
        <time>2024-08-03T10:34:21Z</time>
      </trkpt>
      <trkpt lat="47.22416" lon="5.92272">
        <ele>291.2</ele>
        <time>2024-08-03T10:34:22Z</time>
      </trkpt>
      <trkpt lat="47.22416" lon="5.92272">
        <ele>291.2</ele>
        <time>2024-08-03T10:34:23Z</time>
      </trkpt>
      <trkpt lat="47.22416" lon="5.92272">
        <ele>291</ele>
        <time>2024-08-03T10:34:24Z</time>
      </trkpt>
      <trkpt lat="47.22416" lon="5.92272">
        <ele>291.2</ele>
        <time>2024-08-03T10:34:25Z</time>
      </trkpt>
      <trkpt lat="47.22416" lon="5.92272">
        <ele>291</ele>
        <time>2024-08-03T10:34:26Z</time>
      </trkpt>
      <trkpt lat="47.22416" lon="5.92272">
        <ele>291</ele>
        <time>2024-08-03T10:34:27Z</time>
      </trkpt>
      <trkpt lat="47.22416" lon="5.92272">
        <ele>291.2</ele>
        <time>2024-08-03T10:34:28Z</time>
      </trkpt>
      <trkpt lat="47.22416" lon="5.92272">
        <ele>291.2</ele>
        <time>2024-08-03T10:34:29Z</time>
      </trkpt>
      <trkpt lat="47.22416" lon="5.92272">
        <ele>291</ele>
        <time>2024-08-03T10:34:30Z</time>
      </trkpt>
      <trkpt lat="47.22416" lon="5.92272">
        <ele>291</ele>
        <time>2024-08-03T10:34:31Z</time>
      </trkpt>
      <trkpt lat="47.22416" lon="5.92272">
        <ele>291</ele>
        <time>2024-08-03T10:34:32Z</time>
      </trkpt>
      <trkpt lat="47.22416" lon="5.92272">
        <ele>291</ele>
        <time>2024-08-03T10:34:33Z</time>
      </trkpt>
      <trkpt lat="47.22416" lon="5.92272">
        <ele>291</ele>
        <time>2024-08-03T10:34:34Z</time>
      </trkpt>
      <trkpt lat="47.22415" lon="5.92272">
        <ele>291</ele>
        <time>2024-08-03T10:34:35Z</time>
      </trkpt>
      <trkpt lat="47.22415" lon="5.92272">
        <ele>291</ele>
        <time>2024-08-03T10:34:36Z</time>
      </trkpt>
      <trkpt lat="47.22415" lon="5.92272">
        <ele>291.2</ele>
        <time>2024-08-03T10:34:37Z</time>
      </trkpt>
      <trkpt lat="47.22415" lon="5.92272">
        <ele>291</ele>
        <time>2024-08-03T10:34:38Z</time>
      </trkpt>
      <trkpt lat="47.22415" lon="5.92272">
        <ele>291</ele>
        <time>2024-08-03T10:34:39Z</time>
      </trkpt>
      <trkpt lat="47.22415" lon="5.92272">
        <ele>291</ele>
        <time>2024-08-03T10:34:40Z</time>
      </trkpt>
      <trkpt lat="47.22414" lon="5.92272">
        <ele>291</ele>
        <time>2024-08-03T10:34:41Z</time>
      </trkpt>
      <trkpt lat="47.22414" lon="5.92272">
        <ele>291</ele>
        <time>2024-08-03T10:34:42Z</time>
      </trkpt>
      <trkpt lat="47.22414" lon="5.92271">
        <ele>291</ele>
        <time>2024-08-03T10:34:43Z</time>
      </trkpt>
      <trkpt lat="47.22414" lon="5.92271">
        <ele>291</ele>
        <time>2024-08-03T10:34:44Z</time>
      </trkpt>
      <trkpt lat="47.22414" lon="5.92271">
        <ele>291</ele>
        <time>2024-08-03T10:34:45Z</time>
      </trkpt>
      <trkpt lat="47.22414" lon="5.92271">
        <ele>291</ele>
        <time>2024-08-03T10:34:46Z</time>
      </trkpt>
      <trkpt lat="47.22414" lon="5.92271">
        <ele>291</ele>
        <time>2024-08-03T10:34:47Z</time>
      </trkpt>
      <trkpt lat="47.22413" lon="5.92271">
        <ele>290.8</ele>
        <time>2024-08-03T10:34:48Z</time>
      </trkpt>
      <trkpt lat="47.22413" lon="5.92271">
        <ele>291</ele>
        <time>2024-08-03T10:34:49Z</time>
      </trkpt>
      <trkpt lat="47.22413" lon="5.92271">
        <ele>291</ele>
        <time>2024-08-03T10:34:50Z</time>
      </trkpt>
      <trkpt lat="47.22413" lon="5.92271">
        <ele>291</ele>
        <time>2024-08-03T10:34:51Z</time>
      </trkpt>
      <trkpt lat="47.22413" lon="5.92271">
        <ele>291</ele>
        <time>2024-08-03T10:34:52Z</time>
      </trkpt>
      <trkpt lat="47.22413" lon="5.92271">
        <ele>291</ele>
        <time>2024-08-03T10:34:53Z</time>
      </trkpt>
      <trkpt lat="47.22413" lon="5.92271">
        <ele>291</ele>
        <time>2024-08-03T10:34:54Z</time>
      </trkpt>
      <trkpt lat="47.22413" lon="5.92271">
        <ele>291</ele>
        <time>2024-08-03T10:34:55Z</time>
      </trkpt>
      <trkpt lat="47.22413" lon="5.92271">
        <ele>291</ele>
        <time>2024-08-03T10:34:56Z</time>
      </trkpt>
      <trkpt lat="47.22413" lon="5.92271">
        <ele>291</ele>
        <time>2024-08-03T10:34:57Z</time>
      </trkpt>
      <trkpt lat="47.22413" lon="5.92271">
        <ele>291</ele>
        <time>2024-08-03T10:34:58Z</time>
      </trkpt>
      <trkpt lat="47.22413" lon="5.92271">
        <ele>291</ele>
        <time>2024-08-03T10:34:59Z</time>
      </trkpt>
      <trkpt lat="47.22413" lon="5.92271">
        <ele>290.8</ele>
        <time>2024-08-03T10:35:00Z</time>
      </trkpt>
      <trkpt lat="47.22413" lon="5.92271">
        <ele>291</ele>
        <time>2024-08-03T10:35:01Z</time>
      </trkpt>
      <trkpt lat="47.22413" lon="5.92271">
        <ele>291</ele>
        <time>2024-08-03T10:35:02Z</time>
      </trkpt>
      <trkpt lat="47.22413" lon="5.92271">
        <ele>291</ele>
        <time>2024-08-03T10:35:03Z</time>
      </trkpt>
      <trkpt lat="47.22413" lon="5.92271">
        <ele>291</ele>
        <time>2024-08-03T10:35:04Z</time>
      </trkpt>
      <trkpt lat="47.22413" lon="5.92271">
        <ele>291</ele>
        <time>2024-08-03T10:35:05Z</time>
      </trkpt>
      <trkpt lat="47.22414" lon="5.92271">
        <ele>291</ele>
        <time>2024-08-03T10:35:06Z</time>
      </trkpt>
      <trkpt lat="47.22414" lon="5.92271">
        <ele>291</ele>
        <time>2024-08-03T10:35:07Z</time>
      </trkpt>
      <trkpt lat="47.22414" lon="5.92271">
        <ele>291</ele>
        <time>2024-08-03T10:35:08Z</time>
      </trkpt>
      <trkpt lat="47.22414" lon="5.92271">
        <ele>291</ele>
        <time>2024-08-03T10:35:09Z</time>
      </trkpt>
      <trkpt lat="47.22414" lon="5.92271">
        <ele>291</ele>
        <time>2024-08-03T10:35:10Z</time>
      </trkpt>
      <trkpt lat="47.22414" lon="5.92271">
        <ele>291</ele>
        <time>2024-08-03T10:35:11Z</time>
      </trkpt>
      <trkpt lat="47.22414" lon="5.92271">
        <ele>290.8</ele>
        <time>2024-08-03T10:35:12Z</time>
      </trkpt>
      <trkpt lat="47.22414" lon="5.92271">
        <ele>291</ele>
        <time>2024-08-03T10:35:13Z</time>
      </trkpt>
      <trkpt lat="47.22414" lon="5.92271">
        <ele>291</ele>
        <time>2024-08-03T10:35:14Z</time>
      </trkpt>
      <trkpt lat="47.22414" lon="5.92271">
        <ele>291</ele>
        <time>2024-08-03T10:35:15Z</time>
      </trkpt>
      <trkpt lat="47.22414" lon="5.92271">
        <ele>291</ele>
        <time>2024-08-03T10:35:16Z</time>
      </trkpt>
      <trkpt lat="47.22414" lon="5.92271">
        <ele>291</ele>
        <time>2024-08-03T10:35:17Z</time>
      </trkpt>
      <trkpt lat="47.22414" lon="5.92271">
        <ele>291</ele>
        <time>2024-08-03T10:35:18Z</time>
      </trkpt>
      <trkpt lat="47.22414" lon="5.92271">
        <ele>291</ele>
        <time>2024-08-03T10:35:19Z</time>
      </trkpt>
      <trkpt lat="47.22414" lon="5.92271">
        <ele>291</ele>
        <time>2024-08-03T10:35:20Z</time>
      </trkpt>
      <trkpt lat="47.22414" lon="5.92271">
        <ele>291</ele>
        <time>2024-08-03T10:35:21Z</time>
      </trkpt>
      <trkpt lat="47.22414" lon="5.92271">
        <ele>291</ele>
        <time>2024-08-03T10:35:22Z</time>
      </trkpt>
      <trkpt lat="47.22414" lon="5.92271">
        <ele>291</ele>
        <time>2024-08-03T10:35:23Z</time>
      </trkpt>
      <trkpt lat="47.22414" lon="5.92271">
        <ele>291</ele>
        <time>2024-08-03T10:35:24Z</time>
      </trkpt>
      <trkpt lat="47.22414" lon="5.92271">
        <ele>291</ele>
        <time>2024-08-03T10:35:25Z</time>
      </trkpt>
      <trkpt lat="47.22414" lon="5.92271">
        <ele>291</ele>
        <time>2024-08-03T10:35:26Z</time>
      </trkpt>
      <trkpt lat="47.22414" lon="5.92271">
        <ele>291</ele>
        <time>2024-08-03T10:35:27Z</time>
      </trkpt>
      <trkpt lat="47.22414" lon="5.92271">
        <ele>291</ele>
        <time>2024-08-03T10:35:28Z</time>
      </trkpt>
      <trkpt lat="47.22414" lon="5.92271">
        <ele>291</ele>
        <time>2024-08-03T10:35:29Z</time>
      </trkpt>
      <trkpt lat="47.22414" lon="5.92271">
        <ele>291</ele>
        <time>2024-08-03T10:35:30Z</time>
      </trkpt>
      <trkpt lat="47.22414" lon="5.92271">
        <ele>291</ele>
        <time>2024-08-03T10:35:31Z</time>
      </trkpt>
      <trkpt lat="47.22414" lon="5.92271">
        <ele>291</ele>
        <time>2024-08-03T10:35:32Z</time>
      </trkpt>
      <trkpt lat="47.22414" lon="5.92272">
        <ele>291</ele>
        <time>2024-08-03T10:35:33Z</time>
      </trkpt>
      <trkpt lat="47.22414" lon="5.92272">
        <ele>291</ele>
        <time>2024-08-03T10:35:34Z</time>
      </trkpt>
      <trkpt lat="47.22414" lon="5.92273">
        <ele>291</ele>
        <time>2024-08-03T10:35:35Z</time>
      </trkpt>
      <trkpt lat="47.22415" lon="5.92273">
        <ele>290.8</ele>
        <time>2024-08-03T10:35:36Z</time>
      </trkpt>
      <trkpt lat="47.22415" lon="5.92274">
        <ele>290.8</ele>
        <time>2024-08-03T10:35:37Z</time>
      </trkpt>
      <trkpt lat="47.22415" lon="5.92275">
        <ele>291</ele>
        <time>2024-08-03T10:35:38Z</time>
      </trkpt>
      <trkpt lat="47.22416" lon="5.92276">
        <ele>291</ele>
        <time>2024-08-03T10:35:39Z</time>
      </trkpt>
      <trkpt lat="47.22416" lon="5.92278">
        <ele>291</ele>
        <time>2024-08-03T10:35:40Z</time>
      </trkpt>
      <trkpt lat="47.22416" lon="5.9228">
        <ele>291</ele>
        <time>2024-08-03T10:35:41Z</time>
      </trkpt>
      <trkpt lat="47.22416" lon="5.92282">
        <ele>291</ele>
        <time>2024-08-03T10:35:42Z</time>
      </trkpt>
      <trkpt lat="47.22416" lon="5.92285">
        <ele>291</ele>
        <time>2024-08-03T10:35:43Z</time>
      </trkpt>
      <trkpt lat="47.22417" lon="5.92288">
        <ele>291</ele>
        <time>2024-08-03T10:35:44Z</time>
      </trkpt>
      <trkpt lat="47.22417" lon="5.92292">
        <ele>291</ele>
        <time>2024-08-03T10:35:45Z</time>
      </trkpt>
      <trkpt lat="47.22417" lon="5.92298">
        <ele>291</ele>
        <time>2024-08-03T10:35:46Z</time>
      </trkpt>
      <trkpt lat="47.22417" lon="5.92302">
        <ele>290.8</ele>
        <time>2024-08-03T10:35:47Z</time>
      </trkpt>
      <trkpt lat="47.22416" lon="5.92309">
        <ele>291</ele>
        <time>2024-08-03T10:35:48Z</time>
      </trkpt>
      <trkpt lat="47.22416" lon="5.92314">
        <ele>291</ele>
        <time>2024-08-03T10:35:49Z</time>
      </trkpt>
      <trkpt lat="47.22416" lon="5.9232">
        <ele>291</ele>
        <time>2024-08-03T10:35:50Z</time>
      </trkpt>
      <trkpt lat="47.22416" lon="5.92326">
        <ele>291</ele>
        <time>2024-08-03T10:35:51Z</time>
      </trkpt>
      <trkpt lat="47.22416" lon="5.92333">
        <ele>291</ele>
        <time>2024-08-03T10:35:52Z</time>
      </trkpt>
      <trkpt lat="47.22416" lon="5.9234">
        <ele>290.8</ele>
        <time>2024-08-03T10:35:53Z</time>
      </trkpt>
      <trkpt lat="47.22416" lon="5.92347">
        <ele>291</ele>
        <time>2024-08-03T10:35:54Z</time>
      </trkpt>
      <trkpt lat="47.22416" lon="5.92353">
        <ele>291</ele>
        <time>2024-08-03T10:35:55Z</time>
      </trkpt>
      <trkpt lat="47.22416" lon="5.9236">
        <ele>291</ele>
        <time>2024-08-03T10:35:56Z</time>
      </trkpt>
      <trkpt lat="47.22416" lon="5.92366">
        <ele>290.8</ele>
        <time>2024-08-03T10:35:57Z</time>
      </trkpt>
      <trkpt lat="47.22417" lon="5.92372">
        <ele>290.8</ele>
        <time>2024-08-03T10:35:58Z</time>
      </trkpt>
      <trkpt lat="47.22417" lon="5.92378">
        <ele>290.6</ele>
        <time>2024-08-03T10:35:59Z</time>
      </trkpt>
      <trkpt lat="47.22418" lon="5.92384">
        <ele>290.4</ele>
        <time>2024-08-03T10:36:00Z</time>
      </trkpt>
      <trkpt lat="47.22419" lon="5.92391">
        <ele>290.2</ele>
        <time>2024-08-03T10:36:01Z</time>
      </trkpt>
      <trkpt lat="47.22419" lon="5.92398">
        <ele>290.2</ele>
        <time>2024-08-03T10:36:02Z</time>
      </trkpt>
      <trkpt lat="47.22419" lon="5.92406">
        <ele>290</ele>
        <time>2024-08-03T10:36:03Z</time>
      </trkpt>
      <trkpt lat="47.22418" lon="5.92414">
        <ele>289.8</ele>
        <time>2024-08-03T10:36:04Z</time>
      </trkpt>
      <trkpt lat="47.22418" lon="5.92423">
        <ele>289.6</ele>
        <time>2024-08-03T10:36:05Z</time>
      </trkpt>
      <trkpt lat="47.22415" lon="5.92431">
        <ele>289.4</ele>
        <time>2024-08-03T10:36:06Z</time>
      </trkpt>
      <trkpt lat="47.22411" lon="5.92434">
        <ele>289</ele>
        <time>2024-08-03T10:36:07Z</time>
      </trkpt>
      <trkpt lat="47.22408" lon="5.92439">
        <ele>289</ele>
        <time>2024-08-03T10:36:08Z</time>
      </trkpt>
      <trkpt lat="47.22404" lon="5.92441">
        <ele>288.8</ele>
        <time>2024-08-03T10:36:09Z</time>
      </trkpt>
      <trkpt lat="47.22399" lon="5.92443">
        <ele>288.8</ele>
        <time>2024-08-03T10:36:10Z</time>
      </trkpt>
      <trkpt lat="47.22395" lon="5.92443">
        <ele>288.2</ele>
        <time>2024-08-03T10:36:11Z</time>
      </trkpt>
      <trkpt lat="47.22391" lon="5.92443">
        <ele>288</ele>
        <time>2024-08-03T10:36:12Z</time>
      </trkpt>
      <trkpt lat="47.22387" lon="5.92443">
        <ele>287.6</ele>
        <time>2024-08-03T10:36:13Z</time>
      </trkpt>
      <trkpt lat="47.22384" lon="5.92443">
        <ele>287.4</ele>
        <time>2024-08-03T10:36:14Z</time>
      </trkpt>
      <trkpt lat="47.22381" lon="5.92443">
        <ele>287</ele>
        <time>2024-08-03T10:36:15Z</time>
      </trkpt>
      <trkpt lat="47.22378" lon="5.92442">
        <ele>286.8</ele>
        <time>2024-08-03T10:36:16Z</time>
      </trkpt>
      <trkpt lat="47.22375" lon="5.92442">
        <ele>286.8</ele>
        <time>2024-08-03T10:36:17Z</time>
      </trkpt>
      <trkpt lat="47.22372" lon="5.92442">
        <ele>286.8</ele>
        <time>2024-08-03T10:36:18Z</time>
      </trkpt>
      <trkpt lat="47.2237" lon="5.92442">
        <ele>286.8</ele>
        <time>2024-08-03T10:36:19Z</time>
      </trkpt>
      <trkpt lat="47.22367" lon="5.92442">
        <ele>286.8</ele>
        <time>2024-08-03T10:36:20Z</time>
      </trkpt>
      <trkpt lat="47.22365" lon="5.92442">
        <ele>286.8</ele>
        <time>2024-08-03T10:36:21Z</time>
      </trkpt>
      <trkpt lat="47.22362" lon="5.92441">
        <ele>286.6</ele>
        <time>2024-08-03T10:36:22Z</time>
      </trkpt>
      <trkpt lat="47.2236" lon="5.9244">
        <ele>286.6</ele>
        <time>2024-08-03T10:36:23Z</time>
      </trkpt>
      <trkpt lat="47.22358" lon="5.92439">
        <ele>286.8</ele>
        <time>2024-08-03T10:36:24Z</time>
      </trkpt>
      <trkpt lat="47.22355" lon="5.92438">
        <ele>286.6</ele>
        <time>2024-08-03T10:36:25Z</time>
      </trkpt>
      <trkpt lat="47.22352" lon="5.92436">
        <ele>286.6</ele>
        <time>2024-08-03T10:36:26Z</time>
      </trkpt>
      <trkpt lat="47.22349" lon="5.92435">
        <ele>286.8</ele>
        <time>2024-08-03T10:36:27Z</time>
      </trkpt>
      <trkpt lat="47.22345" lon="5.92434">
        <ele>286.8</ele>
        <time>2024-08-03T10:36:28Z</time>
      </trkpt>
      <trkpt lat="47.22342" lon="5.92432">
        <ele>287</ele>
        <time>2024-08-03T10:36:29Z</time>
      </trkpt>
      <trkpt lat="47.22339" lon="5.92431">
        <ele>287</ele>
        <time>2024-08-03T10:36:30Z</time>
      </trkpt>
      <trkpt lat="47.22336" lon="5.92429">
        <ele>287</ele>
        <time>2024-08-03T10:36:31Z</time>
      </trkpt>
      <trkpt lat="47.22333" lon="5.92428">
        <ele>287.2</ele>
        <time>2024-08-03T10:36:32Z</time>
      </trkpt>
      <trkpt lat="47.2233" lon="5.92427">
        <ele>287.2</ele>
        <time>2024-08-03T10:36:33Z</time>
      </trkpt>
      <trkpt lat="47.22327" lon="5.92426">
        <ele>287.6</ele>
        <time>2024-08-03T10:36:34Z</time>
      </trkpt>
      <trkpt lat="47.22324" lon="5.92426">
        <ele>287.8</ele>
        <time>2024-08-03T10:36:35Z</time>
      </trkpt>
      <trkpt lat="47.22321" lon="5.92425">
        <ele>287.8</ele>
        <time>2024-08-03T10:36:36Z</time>
      </trkpt>
      <trkpt lat="47.22318" lon="5.92425">
        <ele>288.2</ele>
        <time>2024-08-03T10:36:37Z</time>
      </trkpt>
      <trkpt lat="47.22315" lon="5.92426">
        <ele>288.2</ele>
        <time>2024-08-03T10:36:38Z</time>
      </trkpt>
      <trkpt lat="47.22312" lon="5.92427">
        <ele>288.4</ele>
        <time>2024-08-03T10:36:39Z</time>
      </trkpt>
      <trkpt lat="47.22309" lon="5.92428">
        <ele>288.6</ele>
        <time>2024-08-03T10:36:40Z</time>
      </trkpt>
      <trkpt lat="47.22307" lon="5.9243">
        <ele>288.6</ele>
        <time>2024-08-03T10:36:41Z</time>
      </trkpt>
      <trkpt lat="47.22304" lon="5.92432">
        <ele>289</ele>
        <time>2024-08-03T10:36:42Z</time>
      </trkpt>
      <trkpt lat="47.22301" lon="5.92435">
        <ele>289</ele>
        <time>2024-08-03T10:36:43Z</time>
      </trkpt>
      <trkpt lat="47.22298" lon="5.92437">
        <ele>289.2</ele>
        <time>2024-08-03T10:36:44Z</time>
      </trkpt>
      <trkpt lat="47.22294" lon="5.9244">
        <ele>289.4</ele>
        <time>2024-08-03T10:36:45Z</time>
      </trkpt>
      <trkpt lat="47.2229" lon="5.92443">
        <ele>289.6</ele>
        <time>2024-08-03T10:36:46Z</time>
      </trkpt>
      <trkpt lat="47.22287" lon="5.92446">
        <ele>289.8</ele>
        <time>2024-08-03T10:36:47Z</time>
      </trkpt>
      <trkpt lat="47.22283" lon="5.92449">
        <ele>289.8</ele>
        <time>2024-08-03T10:36:48Z</time>
      </trkpt>
      <trkpt lat="47.2228" lon="5.92452">
        <ele>290</ele>
        <time>2024-08-03T10:36:49Z</time>
      </trkpt>
      <trkpt lat="47.22277" lon="5.92454">
        <ele>290.2</ele>
        <time>2024-08-03T10:36:50Z</time>
      </trkpt>
      <trkpt lat="47.22275" lon="5.92456">
        <ele>290.2</ele>
        <time>2024-08-03T10:36:51Z</time>
      </trkpt>
      <trkpt lat="47.22272" lon="5.92458">
        <ele>290.2</ele>
        <time>2024-08-03T10:36:52Z</time>
      </trkpt>
      <trkpt lat="47.22269" lon="5.92459">
        <ele>290.2</ele>
        <time>2024-08-03T10:36:53Z</time>
      </trkpt>
      <trkpt lat="47.22267" lon="5.92458">
        <ele>290.2</ele>
        <time>2024-08-03T10:36:54Z</time>
      </trkpt>
      <trkpt lat="47.22266" lon="5.92457">
        <ele>290.2</ele>
        <time>2024-08-03T10:36:55Z</time>
      </trkpt>
      <trkpt lat="47.22264" lon="5.92455">
        <ele>290.2</ele>
        <time>2024-08-03T10:36:56Z</time>
      </trkpt>
      <trkpt lat="47.22263" lon="5.92453">
        <ele>290.4</ele>
        <time>2024-08-03T10:36:57Z</time>
      </trkpt>
      <trkpt lat="47.22261" lon="5.92451">
        <ele>290.2</ele>
        <time>2024-08-03T10:36:58Z</time>
      </trkpt>
      <trkpt lat="47.2226" lon="5.92448">
        <ele>290.4</ele>
        <time>2024-08-03T10:36:59Z</time>
      </trkpt>
      <trkpt lat="47.22258" lon="5.92445">
        <ele>290.4</ele>
        <time>2024-08-03T10:37:00Z</time>
      </trkpt>
      <trkpt lat="47.22256" lon="5.92442">
        <ele>290.2</ele>
        <time>2024-08-03T10:37:01Z</time>
      </trkpt>
      <trkpt lat="47.22254" lon="5.92439">
        <ele>290.2</ele>
        <time>2024-08-03T10:37:02Z</time>
      </trkpt>
      <trkpt lat="47.22252" lon="5.92437">
        <ele>290.2</ele>
        <time>2024-08-03T10:37:03Z</time>
      </trkpt>
      <trkpt lat="47.2225" lon="5.92435">
        <ele>290.2</ele>
        <time>2024-08-03T10:37:04Z</time>
      </trkpt>
      <trkpt lat="47.22247" lon="5.92431">
        <ele>290.4</ele>
        <time>2024-08-03T10:37:05Z</time>
      </trkpt>
      <trkpt lat="47.22245" lon="5.92429">
        <ele>290.2</ele>
        <time>2024-08-03T10:37:06Z</time>
      </trkpt>
      <trkpt lat="47.22243" lon="5.92425">
        <ele>290.2</ele>
        <time>2024-08-03T10:37:07Z</time>
      </trkpt>
      <trkpt lat="47.22239" lon="5.9242">
        <ele>290</ele>
        <time>2024-08-03T10:37:08Z</time>
      </trkpt>
      <trkpt lat="47.22236" lon="5.92416">
        <ele>290</ele>
        <time>2024-08-03T10:37:09Z</time>
      </trkpt>
      <trkpt lat="47.22232" lon="5.92411">
        <ele>290</ele>
        <time>2024-08-03T10:37:10Z</time>
      </trkpt>
      <trkpt lat="47.22227" lon="5.92405">
        <ele>290</ele>
        <time>2024-08-03T10:37:11Z</time>
      </trkpt>
      <trkpt lat="47.22223" lon="5.924">
        <ele>290</ele>
        <time>2024-08-03T10:37:12Z</time>
      </trkpt>
      <trkpt lat="47.22221" lon="5.92395">
        <ele>289.8</ele>
        <time>2024-08-03T10:37:13Z</time>
      </trkpt>
      <trkpt lat="47.22217" lon="5.9239">
        <ele>289.8</ele>
        <time>2024-08-03T10:37:14Z</time>
      </trkpt>
      <trkpt lat="47.22215" lon="5.92386">
        <ele>289.8</ele>
        <time>2024-08-03T10:37:15Z</time>
      </trkpt>
      <trkpt lat="47.22212" lon="5.92382">
        <ele>289.6</ele>
        <time>2024-08-03T10:37:16Z</time>
      </trkpt>
      <trkpt lat="47.2221" lon="5.92378">
        <ele>289.4</ele>
        <time>2024-08-03T10:37:17Z</time>
      </trkpt>
      <trkpt lat="47.22207" lon="5.92374">
        <ele>289.2</ele>
        <time>2024-08-03T10:37:18Z</time>
      </trkpt>
      <trkpt lat="47.22205" lon="5.9237">
        <ele>289.4</ele>
        <time>2024-08-03T10:37:19Z</time>
      </trkpt>
      <trkpt lat="47.22203" lon="5.92366">
        <ele>289.2</ele>
        <time>2024-08-03T10:37:20Z</time>
      </trkpt>
      <trkpt lat="47.22199" lon="5.92363">
        <ele>289.2</ele>
        <time>2024-08-03T10:37:21Z</time>
      </trkpt>
      <trkpt lat="47.22196" lon="5.92359">
        <ele>289.2</ele>
        <time>2024-08-03T10:37:22Z</time>
      </trkpt>
      <trkpt lat="47.22193" lon="5.92357">
        <ele>289.2</ele>
        <time>2024-08-03T10:37:23Z</time>
      </trkpt>
      <trkpt lat="47.2219" lon="5.92355">
        <ele>289.2</ele>
        <time>2024-08-03T10:37:24Z</time>
      </trkpt>
      <trkpt lat="47.22188" lon="5.92353">
        <ele>289.2</ele>
        <time>2024-08-03T10:37:25Z</time>
      </trkpt>
      <trkpt lat="47.22184" lon="5.9235">
        <ele>289.2</ele>
        <time>2024-08-03T10:37:26Z</time>
      </trkpt>
      <trkpt lat="47.22182" lon="5.92349">
        <ele>289.2</ele>
        <time>2024-08-03T10:37:27Z</time>
      </trkpt>
      <trkpt lat="47.22178" lon="5.92347">
        <ele>289.4</ele>
        <time>2024-08-03T10:37:28Z</time>
      </trkpt>
      <trkpt lat="47.22175" lon="5.92347">
        <ele>289.4</ele>
        <time>2024-08-03T10:37:29Z</time>
      </trkpt>
      <trkpt lat="47.22172" lon="5.92345">
        <ele>289.4</ele>
        <time>2024-08-03T10:37:30Z</time>
      </trkpt>
      <trkpt lat="47.22168" lon="5.92344">
        <ele>289.6</ele>
        <time>2024-08-03T10:37:31Z</time>
      </trkpt>
      <trkpt lat="47.22165" lon="5.92343">
        <ele>289.6</ele>
        <time>2024-08-03T10:37:32Z</time>
      </trkpt>
      <trkpt lat="47.2216" lon="5.92341">
        <ele>289.8</ele>
        <time>2024-08-03T10:37:33Z</time>
      </trkpt>
      <trkpt lat="47.22156" lon="5.9234">
        <ele>289.8</ele>
        <time>2024-08-03T10:37:34Z</time>
      </trkpt>
      <trkpt lat="47.2215" lon="5.92338">
        <ele>289.8</ele>
        <time>2024-08-03T10:37:35Z</time>
      </trkpt>
      <trkpt lat="47.22143" lon="5.92336">
        <ele>290.2</ele>
        <time>2024-08-03T10:37:36Z</time>
      </trkpt>
      <trkpt lat="47.2214" lon="5.92335">
        <ele>290.2</ele>
        <time>2024-08-03T10:37:37Z</time>
      </trkpt>
      <trkpt lat="47.22136" lon="5.92333">
        <ele>290.4</ele>
        <time>2024-08-03T10:37:38Z</time>
      </trkpt>
      <trkpt lat="47.22131" lon="5.92331">
        <ele>290.8</ele>
        <time>2024-08-03T10:37:39Z</time>
      </trkpt>
      <trkpt lat="47.22128" lon="5.9233">
        <ele>291.2</ele>
        <time>2024-08-03T10:37:40Z</time>
      </trkpt>
      <trkpt lat="47.22124" lon="5.92328">
        <ele>291.4</ele>
        <time>2024-08-03T10:37:41Z</time>
      </trkpt>
      <trkpt lat="47.2212" lon="5.92326">
        <ele>291.6</ele>
        <time>2024-08-03T10:37:42Z</time>
      </trkpt>
      <trkpt lat="47.22117" lon="5.92325">
        <ele>292</ele>
        <time>2024-08-03T10:37:43Z</time>
      </trkpt>
      <trkpt lat="47.22113" lon="5.92323">
        <ele>292.2</ele>
        <time>2024-08-03T10:37:44Z</time>
      </trkpt>
      <trkpt lat="47.2211" lon="5.92321">
        <ele>292.4</ele>
        <time>2024-08-03T10:37:45Z</time>
      </trkpt>
      <trkpt lat="47.22107" lon="5.92319">
        <ele>292.8</ele>
        <time>2024-08-03T10:37:46Z</time>
      </trkpt>
      <trkpt lat="47.22104" lon="5.92317">
        <ele>293</ele>
        <time>2024-08-03T10:37:47Z</time>
      </trkpt>
      <trkpt lat="47.22101" lon="5.92316">
        <ele>293.2</ele>
        <time>2024-08-03T10:37:48Z</time>
      </trkpt>
      <trkpt lat="47.22098" lon="5.92315">
        <ele>293.6</ele>
        <time>2024-08-03T10:37:49Z</time>
      </trkpt>
      <trkpt lat="47.22096" lon="5.92314">
        <ele>294</ele>
        <time>2024-08-03T10:37:50Z</time>
      </trkpt>
      <trkpt lat="47.22093" lon="5.92312">
        <ele>294.2</ele>
        <time>2024-08-03T10:37:51Z</time>
      </trkpt>
      <trkpt lat="47.2209" lon="5.92311">
        <ele>294.4</ele>
        <time>2024-08-03T10:37:52Z</time>
      </trkpt>
      <trkpt lat="47.22086" lon="5.92309">
        <ele>294.8</ele>
        <time>2024-08-03T10:37:53Z</time>
      </trkpt>
      <trkpt lat="47.22084" lon="5.92308">
        <ele>295</ele>
        <time>2024-08-03T10:37:54Z</time>
      </trkpt>
      <trkpt lat="47.22082" lon="5.92307">
        <ele>295.4</ele>
        <time>2024-08-03T10:37:55Z</time>
      </trkpt>
      <trkpt lat="47.22077" lon="5.92305">
        <ele>295.6</ele>
        <time>2024-08-03T10:37:56Z</time>
      </trkpt>
      <trkpt lat="47.22075" lon="5.92305">
        <ele>295.8</ele>
        <time>2024-08-03T10:37:57Z</time>
      </trkpt>
      <trkpt lat="47.22071" lon="5.92304">
        <ele>295.8</ele>
        <time>2024-08-03T10:37:58Z</time>
      </trkpt>
      <trkpt lat="47.22067" lon="5.92304">
        <ele>296.2</ele>
        <time>2024-08-03T10:37:59Z</time>
      </trkpt>
      <trkpt lat="47.22065" lon="5.92303">
        <ele>296.4</ele>
        <time>2024-08-03T10:38:00Z</time>
      </trkpt>
      <trkpt lat="47.22062" lon="5.92303">
        <ele>296.8</ele>
        <time>2024-08-03T10:38:01Z</time>
      </trkpt>
      <trkpt lat="47.2206" lon="5.92302">
        <ele>297</ele>
        <time>2024-08-03T10:38:02Z</time>
      </trkpt>
      <trkpt lat="47.22057" lon="5.92301">
        <ele>297.2</ele>
        <time>2024-08-03T10:38:03Z</time>
      </trkpt>
      <trkpt lat="47.22055" lon="5.923">
        <ele>297.4</ele>
        <time>2024-08-03T10:38:04Z</time>
      </trkpt>
      <trkpt lat="47.22051" lon="5.92298">
        <ele>297.8</ele>
        <time>2024-08-03T10:38:05Z</time>
      </trkpt>
      <trkpt lat="47.22048" lon="5.92297">
        <ele>298</ele>
        <time>2024-08-03T10:38:06Z</time>
      </trkpt>
      <trkpt lat="47.22046" lon="5.92296">
        <ele>298.4</ele>
        <time>2024-08-03T10:38:07Z</time>
      </trkpt>
      <trkpt lat="47.22043" lon="5.92295">
        <ele>298.6</ele>
        <time>2024-08-03T10:38:08Z</time>
      </trkpt>
      <trkpt lat="47.22041" lon="5.92295">
        <ele>298.8</ele>
        <time>2024-08-03T10:38:09Z</time>
      </trkpt>
      <trkpt lat="47.22038" lon="5.92294">
        <ele>299.2</ele>
        <time>2024-08-03T10:38:10Z</time>
      </trkpt>
      <trkpt lat="47.22036" lon="5.92294">
        <ele>299.4</ele>
        <time>2024-08-03T10:38:11Z</time>
      </trkpt>
      <trkpt lat="47.22034" lon="5.92293">
        <ele>299.6</ele>
        <time>2024-08-03T10:38:12Z</time>
      </trkpt>
      <trkpt lat="47.22032" lon="5.92293">
        <ele>299.8</ele>
        <time>2024-08-03T10:38:13Z</time>
      </trkpt>
      <trkpt lat="47.2203" lon="5.92293">
        <ele>300.2</ele>
        <time>2024-08-03T10:38:14Z</time>
      </trkpt>
      <trkpt lat="47.22028" lon="5.92293">
        <ele>300.4</ele>
        <time>2024-08-03T10:38:15Z</time>
      </trkpt>
      <trkpt lat="47.22026" lon="5.92292">
        <ele>300.6</ele>
        <time>2024-08-03T10:38:16Z</time>
      </trkpt>
      <trkpt lat="47.22024" lon="5.92291">
        <ele>300.8</ele>
        <time>2024-08-03T10:38:17Z</time>
      </trkpt>
      <trkpt lat="47.22022" lon="5.92289">
        <ele>301.2</ele>
        <time>2024-08-03T10:38:18Z</time>
      </trkpt>
      <trkpt lat="47.2202" lon="5.92288">
        <ele>301.2</ele>
        <time>2024-08-03T10:38:19Z</time>
      </trkpt>
      <trkpt lat="47.22018" lon="5.92286">
        <ele>301.2</ele>
        <time>2024-08-03T10:38:20Z</time>
      </trkpt>
      <trkpt lat="47.22015" lon="5.92284">
        <ele>301.4</ele>
        <time>2024-08-03T10:38:21Z</time>
      </trkpt>
      <trkpt lat="47.22013" lon="5.92284">
        <ele>301.6</ele>
        <time>2024-08-03T10:38:22Z</time>
      </trkpt>
      <trkpt lat="47.22011" lon="5.92284">
        <ele>301.8</ele>
        <time>2024-08-03T10:38:23Z</time>
      </trkpt>
      <trkpt lat="47.22008" lon="5.92284">
        <ele>302</ele>
        <time>2024-08-03T10:38:24Z</time>
      </trkpt>
      <trkpt lat="47.22005" lon="5.92284">
        <ele>302.4</ele>
        <time>2024-08-03T10:38:25Z</time>
      </trkpt>
      <trkpt lat="47.22002" lon="5.92283">
        <ele>302.6</ele>
        <time>2024-08-03T10:38:26Z</time>
      </trkpt>
      <trkpt lat="47.22" lon="5.92284">
        <ele>302.6</ele>
        <time>2024-08-03T10:38:27Z</time>
      </trkpt>
      <trkpt lat="47.21998" lon="5.92283">
        <ele>302.6</ele>
        <time>2024-08-03T10:38:28Z</time>
      </trkpt>
      <trkpt lat="47.21994" lon="5.92283">
        <ele>303</ele>
        <time>2024-08-03T10:38:29Z</time>
      </trkpt>
      <trkpt lat="47.21989" lon="5.92283">
        <ele>303.2</ele>
        <time>2024-08-03T10:38:30Z</time>
      </trkpt>
      <trkpt lat="47.21984" lon="5.92282">
        <ele>303.2</ele>
        <time>2024-08-03T10:38:31Z</time>
      </trkpt>
      <trkpt lat="47.2198" lon="5.92282">
        <ele>303.4</ele>
        <time>2024-08-03T10:38:32Z</time>
      </trkpt>
      <trkpt lat="47.21976" lon="5.92283">
        <ele>303.4</ele>
        <time>2024-08-03T10:38:33Z</time>
      </trkpt>
      <trkpt lat="47.21973" lon="5.92284">
        <ele>303.6</ele>
        <time>2024-08-03T10:38:34Z</time>
      </trkpt>
      <trkpt lat="47.21971" lon="5.92286">
        <ele>303.8</ele>
        <time>2024-08-03T10:38:35Z</time>
      </trkpt>
      <trkpt lat="47.21969" lon="5.92288">
        <ele>303.8</ele>
        <time>2024-08-03T10:38:36Z</time>
      </trkpt>
      <trkpt lat="47.21969" lon="5.92291">
        <ele>304</ele>
        <time>2024-08-03T10:38:37Z</time>
      </trkpt>
      <trkpt lat="47.2197" lon="5.92295">
        <ele>304.2</ele>
        <time>2024-08-03T10:38:38Z</time>
      </trkpt>
      <trkpt lat="47.21972" lon="5.92299">
        <ele>304.2</ele>
        <time>2024-08-03T10:38:39Z</time>
      </trkpt>
      <trkpt lat="47.21974" lon="5.92303">
        <ele>304</ele>
        <time>2024-08-03T10:38:40Z</time>
      </trkpt>
      <trkpt lat="47.21977" lon="5.92306">
        <ele>304</ele>
        <time>2024-08-03T10:38:41Z</time>
      </trkpt>
      <trkpt lat="47.21979" lon="5.9231">
        <ele>304.2</ele>
        <time>2024-08-03T10:38:42Z</time>
      </trkpt>
      <trkpt lat="47.21981" lon="5.92314">
        <ele>304.2</ele>
        <time>2024-08-03T10:38:43Z</time>
      </trkpt>
      <trkpt lat="47.21983" lon="5.92318">
        <ele>304.2</ele>
        <time>2024-08-03T10:38:44Z</time>
      </trkpt>
      <trkpt lat="47.21986" lon="5.92321">
        <ele>304.2</ele>
        <time>2024-08-03T10:38:45Z</time>
      </trkpt>
      <trkpt lat="47.21988" lon="5.92323">
        <ele>304.2</ele>
        <time>2024-08-03T10:38:46Z</time>
      </trkpt>
      <trkpt lat="47.2199" lon="5.92326">
        <ele>304.2</ele>
        <time>2024-08-03T10:38:47Z</time>
      </trkpt>
      <trkpt lat="47.21993" lon="5.9233">
        <ele>304.2</ele>
        <time>2024-08-03T10:38:48Z</time>
      </trkpt>
      <trkpt lat="47.21995" lon="5.92333">
        <ele>304.2</ele>
        <time>2024-08-03T10:38:49Z</time>
      </trkpt>
      <trkpt lat="47.21997" lon="5.92337">
        <ele>304.2</ele>
        <time>2024-08-03T10:38:50Z</time>
      </trkpt>
      <trkpt lat="47.21998" lon="5.92341">
        <ele>304.2</ele>
        <time>2024-08-03T10:38:51Z</time>
      </trkpt>
      <trkpt lat="47.21998" lon="5.92344">
        <ele>304.2</ele>
        <time>2024-08-03T10:38:52Z</time>
      </trkpt>
      <trkpt lat="47.21998" lon="5.92347">
        <ele>304.2</ele>
        <time>2024-08-03T10:38:53Z</time>
      </trkpt>
      <trkpt lat="47.21998" lon="5.92349">
        <ele>304</ele>
        <time>2024-08-03T10:38:54Z</time>
      </trkpt>
      <trkpt lat="47.21998" lon="5.9235">
        <ele>304.2</ele>
        <time>2024-08-03T10:38:55Z</time>
      </trkpt>
      <trkpt lat="47.21999" lon="5.92351">
        <ele>304.2</ele>
        <time>2024-08-03T10:38:56Z</time>
      </trkpt>
      <trkpt lat="47.21999" lon="5.9235">
        <ele>304.2</ele>
        <time>2024-08-03T10:38:57Z</time>
      </trkpt>
      <trkpt lat="47.22" lon="5.92349">
        <ele>304.2</ele>
        <time>2024-08-03T10:38:58Z</time>
      </trkpt>
      <trkpt lat="47.22001" lon="5.92348">
        <ele>304.2</ele>
        <time>2024-08-03T10:38:59Z</time>
      </trkpt>
      <trkpt lat="47.22" lon="5.92345">
        <ele>304</ele>
        <time>2024-08-03T10:39:00Z</time>
      </trkpt>
      <trkpt lat="47.22" lon="5.92343">
        <ele>304.2</ele>
        <time>2024-08-03T10:39:01Z</time>
      </trkpt>
      <trkpt lat="47.22" lon="5.9234">
        <ele>304.2</ele>
        <time>2024-08-03T10:39:02Z</time>
      </trkpt>
      <trkpt lat="47.21999" lon="5.92337">
        <ele>304.2</ele>
        <time>2024-08-03T10:39:03Z</time>
      </trkpt>
      <trkpt lat="47.21997" lon="5.92333">
        <ele>304.2</ele>
        <time>2024-08-03T10:39:04Z</time>
      </trkpt>
      <trkpt lat="47.21995" lon="5.92329">
        <ele>304.2</ele>
        <time>2024-08-03T10:39:05Z</time>
      </trkpt>
      <trkpt lat="47.21993" lon="5.92325">
        <ele>304.2</ele>
        <time>2024-08-03T10:39:06Z</time>
      </trkpt>
      <trkpt lat="47.21991" lon="5.92322">
        <ele>304.2</ele>
        <time>2024-08-03T10:39:07Z</time>
      </trkpt>
      <trkpt lat="47.21988" lon="5.92319">
        <ele>304.2</ele>
        <time>2024-08-03T10:39:08Z</time>
      </trkpt>
      <trkpt lat="47.21986" lon="5.92317">
        <ele>304.2</ele>
        <time>2024-08-03T10:39:09Z</time>
      </trkpt>
      <trkpt lat="47.21983" lon="5.92315">
        <ele>304.4</ele>
        <time>2024-08-03T10:39:10Z</time>
      </trkpt>
      <trkpt lat="47.2198" lon="5.92312">
        <ele>304.2</ele>
        <time>2024-08-03T10:39:11Z</time>
      </trkpt>
      <trkpt lat="47.21978" lon="5.9231">
        <ele>304.4</ele>
        <time>2024-08-03T10:39:12Z</time>
      </trkpt>
      <trkpt lat="47.21976" lon="5.92308">
        <ele>304.4</ele>
        <time>2024-08-03T10:39:13Z</time>
      </trkpt>
      <trkpt lat="47.21973" lon="5.92306">
        <ele>304.4</ele>
        <time>2024-08-03T10:39:14Z</time>
      </trkpt>
      <trkpt lat="47.21971" lon="5.92305">
        <ele>304.2</ele>
        <time>2024-08-03T10:39:15Z</time>
      </trkpt>
      <trkpt lat="47.21968" lon="5.92301">
        <ele>304.4</ele>
        <time>2024-08-03T10:39:16Z</time>
      </trkpt>
      <trkpt lat="47.21965" lon="5.92297">
        <ele>304.4</ele>
        <time>2024-08-03T10:39:17Z</time>
      </trkpt>
      <trkpt lat="47.21965" lon="5.92294">
        <ele>304.4</ele>
        <time>2024-08-03T10:39:18Z</time>
      </trkpt>
      <trkpt lat="47.21964" lon="5.92291">
        <ele>304.4</ele>
        <time>2024-08-03T10:39:19Z</time>
      </trkpt>
      <trkpt lat="47.21965" lon="5.92289">
        <ele>304.4</ele>
        <time>2024-08-03T10:39:20Z</time>
      </trkpt>
      <trkpt lat="47.21966" lon="5.92287">
        <ele>304.4</ele>
        <time>2024-08-03T10:39:21Z</time>
      </trkpt>
      <trkpt lat="47.21967" lon="5.92286">
        <ele>304.4</ele>
        <time>2024-08-03T10:39:22Z</time>
      </trkpt>
      <trkpt lat="47.21969" lon="5.92286">
        <ele>304.2</ele>
        <time>2024-08-03T10:39:23Z</time>
      </trkpt>
      <trkpt lat="47.21971" lon="5.92286">
        <ele>304.2</ele>
        <time>2024-08-03T10:39:24Z</time>
      </trkpt>
      <trkpt lat="47.21973" lon="5.92285">
        <ele>304.4</ele>
        <time>2024-08-03T10:39:25Z</time>
      </trkpt>
      <trkpt lat="47.21975" lon="5.92285">
        <ele>304.4</ele>
        <time>2024-08-03T10:39:26Z</time>
      </trkpt>
      <trkpt lat="47.21978" lon="5.92285">
        <ele>304.4</ele>
        <time>2024-08-03T10:39:27Z</time>
      </trkpt>
      <trkpt lat="47.2198" lon="5.92285">
        <ele>304.4</ele>
        <time>2024-08-03T10:39:28Z</time>
      </trkpt>
      <trkpt lat="47.21983" lon="5.92282">
        <ele>304.4</ele>
        <time>2024-08-03T10:39:29Z</time>
      </trkpt>
      <trkpt lat="47.21985" lon="5.92278">
        <ele>304.4</ele>
        <time>2024-08-03T10:39:30Z</time>
      </trkpt>
      <trkpt lat="47.21986" lon="5.92274">
        <ele>304.4</ele>
        <time>2024-08-03T10:39:31Z</time>
      </trkpt>
      <trkpt lat="47.21987" lon="5.92271">
        <ele>304.2</ele>
        <time>2024-08-03T10:39:32Z</time>
      </trkpt>
      <trkpt lat="47.21987" lon="5.92268">
        <ele>304.2</ele>
        <time>2024-08-03T10:39:33Z</time>
      </trkpt>
      <trkpt lat="47.21987" lon="5.92266">
        <ele>304.2</ele>
        <time>2024-08-03T10:39:34Z</time>
      </trkpt>
      <trkpt lat="47.21986" lon="5.92264">
        <ele>304.2</ele>
        <time>2024-08-03T10:39:35Z</time>
      </trkpt>
      <trkpt lat="47.21985" lon="5.92262">
        <ele>304.2</ele>
        <time>2024-08-03T10:39:36Z</time>
      </trkpt>
      <trkpt lat="47.21984" lon="5.9226">
        <ele>304.2</ele>
        <time>2024-08-03T10:39:37Z</time>
      </trkpt>
      <trkpt lat="47.21984" lon="5.92257">
        <ele>304.4</ele>
        <time>2024-08-03T10:39:38Z</time>
      </trkpt>
      <trkpt lat="47.21983" lon="5.92253">
        <ele>304.4</ele>
        <time>2024-08-03T10:39:39Z</time>
      </trkpt>
      <trkpt lat="47.21982" lon="5.92249">
        <ele>304.2</ele>
        <time>2024-08-03T10:39:40Z</time>
      </trkpt>
      <trkpt lat="47.21982" lon="5.92245">
        <ele>304.2</ele>
        <time>2024-08-03T10:39:41Z</time>
      </trkpt>
      <trkpt lat="47.21981" lon="5.92241">
        <ele>304.4</ele>
        <time>2024-08-03T10:39:42Z</time>
      </trkpt>
      <trkpt lat="47.21981" lon="5.92238">
        <ele>304.4</ele>
        <time>2024-08-03T10:39:43Z</time>
      </trkpt>
      <trkpt lat="47.21981" lon="5.92234">
        <ele>304.4</ele>
        <time>2024-08-03T10:39:44Z</time>
      </trkpt>
      <trkpt lat="47.2198" lon="5.92231">
        <ele>304.2</ele>
        <time>2024-08-03T10:39:45Z</time>
      </trkpt>
      <trkpt lat="47.21979" lon="5.92228">
        <ele>304.4</ele>
        <time>2024-08-03T10:39:46Z</time>
      </trkpt>
      <trkpt lat="47.21977" lon="5.92225">
        <ele>304.4</ele>
        <time>2024-08-03T10:39:47Z</time>
      </trkpt>
      <trkpt lat="47.21976" lon="5.92222">
        <ele>304.4</ele>
        <time>2024-08-03T10:39:48Z</time>
      </trkpt>
      <trkpt lat="47.21973" lon="5.92219">
        <ele>304.8</ele>
        <time>2024-08-03T10:39:49Z</time>
      </trkpt>
      <trkpt lat="47.2197" lon="5.92217">
        <ele>304.8</ele>
        <time>2024-08-03T10:39:50Z</time>
      </trkpt>
      <trkpt lat="47.21965" lon="5.92214">
        <ele>305</ele>
        <time>2024-08-03T10:39:51Z</time>
      </trkpt>
      <trkpt lat="47.2196" lon="5.92212">
        <ele>305.2</ele>
        <time>2024-08-03T10:39:52Z</time>
      </trkpt>
      <trkpt lat="47.21954" lon="5.92209">
        <ele>305.2</ele>
        <time>2024-08-03T10:39:53Z</time>
      </trkpt>
      <trkpt lat="47.21949" lon="5.92208">
        <ele>305.2</ele>
        <time>2024-08-03T10:39:54Z</time>
      </trkpt>
      <trkpt lat="47.21945" lon="5.92207">
        <ele>305.4</ele>
        <time>2024-08-03T10:39:55Z</time>
      </trkpt>
      <trkpt lat="47.21939" lon="5.92206">
        <ele>305.4</ele>
        <time>2024-08-03T10:39:56Z</time>
      </trkpt>
      <trkpt lat="47.21932" lon="5.92204">
        <ele>305.4</ele>
        <time>2024-08-03T10:39:57Z</time>
      </trkpt>
      <trkpt lat="47.21927" lon="5.92202">
        <ele>305.4</ele>
        <time>2024-08-03T10:39:58Z</time>
      </trkpt>
      <trkpt lat="47.21922" lon="5.92201">
        <ele>305.4</ele>
        <time>2024-08-03T10:39:59Z</time>
      </trkpt>
      <trkpt lat="47.21917" lon="5.92201">
        <ele>305.4</ele>
        <time>2024-08-03T10:40:00Z</time>
      </trkpt>
      <trkpt lat="47.21912" lon="5.92201">
        <ele>305.4</ele>
        <time>2024-08-03T10:40:01Z</time>
      </trkpt>
      <trkpt lat="47.21906" lon="5.92201">
        <ele>305.4</ele>
        <time>2024-08-03T10:40:02Z</time>
      </trkpt>
      <trkpt lat="47.219" lon="5.92201">
        <ele>305.4</ele>
        <time>2024-08-03T10:40:03Z</time>
      </trkpt>
      <trkpt lat="47.21894" lon="5.92202">
        <ele>305.2</ele>
        <time>2024-08-03T10:40:04Z</time>
      </trkpt>
      <trkpt lat="47.21887" lon="5.92202">
        <ele>305.2</ele>
        <time>2024-08-03T10:40:05Z</time>
      </trkpt>
      <trkpt lat="47.21881" lon="5.92203">
        <ele>305.2</ele>
        <time>2024-08-03T10:40:06Z</time>
      </trkpt>
      <trkpt lat="47.21875" lon="5.92206">
        <ele>305.2</ele>
        <time>2024-08-03T10:40:07Z</time>
      </trkpt>
      <trkpt lat="47.21868" lon="5.92209">
        <ele>305</ele>
        <time>2024-08-03T10:40:08Z</time>
      </trkpt>
      <trkpt lat="47.21861" lon="5.92214">
        <ele>305</ele>
        <time>2024-08-03T10:40:09Z</time>
      </trkpt>
      <trkpt lat="47.21855" lon="5.92219">
        <ele>304.6</ele>
        <time>2024-08-03T10:40:10Z</time>
      </trkpt>
      <trkpt lat="47.21849" lon="5.92226">
        <ele>304.4</ele>
        <time>2024-08-03T10:40:11Z</time>
      </trkpt>
      <trkpt lat="47.21843" lon="5.92233">
        <ele>304</ele>
        <time>2024-08-03T10:40:12Z</time>
      </trkpt>
      <trkpt lat="47.21836" lon="5.92238">
        <ele>303.6</ele>
        <time>2024-08-03T10:40:13Z</time>
      </trkpt>
      <trkpt lat="47.21829" lon="5.92242">
        <ele>303.2</ele>
        <time>2024-08-03T10:40:14Z</time>
      </trkpt>
      <trkpt lat="47.21821" lon="5.92245">
        <ele>302.6</ele>
        <time>2024-08-03T10:40:15Z</time>
      </trkpt>
      <trkpt lat="47.21814" lon="5.92246">
        <ele>302</ele>
        <time>2024-08-03T10:40:16Z</time>
      </trkpt>
      <trkpt lat="47.21807" lon="5.92246">
        <ele>301.8</ele>
        <time>2024-08-03T10:40:17Z</time>
      </trkpt>
      <trkpt lat="47.218" lon="5.92245">
        <ele>301.4</ele>
        <time>2024-08-03T10:40:18Z</time>
      </trkpt>
      <trkpt lat="47.21794" lon="5.92244">
        <ele>300.6</ele>
        <time>2024-08-03T10:40:19Z</time>
      </trkpt>
      <trkpt lat="47.21787" lon="5.92243">
        <ele>300.2</ele>
        <time>2024-08-03T10:40:20Z</time>
      </trkpt>
      <trkpt lat="47.2178" lon="5.92241">
        <ele>299.6</ele>
        <time>2024-08-03T10:40:21Z</time>
      </trkpt>
      <trkpt lat="47.21773" lon="5.9224">
        <ele>299.4</ele>
        <time>2024-08-03T10:40:22Z</time>
      </trkpt>
      <trkpt lat="47.21767" lon="5.92238">
        <ele>299.2</ele>
        <time>2024-08-03T10:40:23Z</time>
      </trkpt>
      <trkpt lat="47.21759" lon="5.92237">
        <ele>298.8</ele>
        <time>2024-08-03T10:40:24Z</time>
      </trkpt>
      <trkpt lat="47.21752" lon="5.92235">
        <ele>298.2</ele>
        <time>2024-08-03T10:40:25Z</time>
      </trkpt>
      <trkpt lat="47.21745" lon="5.92235">
        <ele>297.8</ele>
        <time>2024-08-03T10:40:26Z</time>
      </trkpt>
      <trkpt lat="47.21739" lon="5.92235">
        <ele>297.6</ele>
        <time>2024-08-03T10:40:27Z</time>
      </trkpt>
      <trkpt lat="47.21733" lon="5.92233">
        <ele>297.2</ele>
        <time>2024-08-03T10:40:28Z</time>
      </trkpt>
      <trkpt lat="47.21727" lon="5.92231">
        <ele>297.2</ele>
        <time>2024-08-03T10:40:29Z</time>
      </trkpt>
      <trkpt lat="47.2172" lon="5.9223">
        <ele>296.8</ele>
        <time>2024-08-03T10:40:30Z</time>
      </trkpt>
      <trkpt lat="47.21712" lon="5.9223">
        <ele>296.8</ele>
        <time>2024-08-03T10:40:31Z</time>
      </trkpt>
      <trkpt lat="47.21705" lon="5.92229">
        <ele>296.6</ele>
        <time>2024-08-03T10:40:32Z</time>
      </trkpt>
      <trkpt lat="47.21697" lon="5.92228">
        <ele>296</ele>
        <time>2024-08-03T10:40:33Z</time>
      </trkpt>
      <trkpt lat="47.21688" lon="5.92226">
        <ele>295.8</ele>
        <time>2024-08-03T10:40:34Z</time>
      </trkpt>
      <trkpt lat="47.21679" lon="5.92226">
        <ele>295.2</ele>
        <time>2024-08-03T10:40:35Z</time>
      </trkpt>
      <trkpt lat="47.21671" lon="5.92224">
        <ele>295.2</ele>
        <time>2024-08-03T10:40:36Z</time>
      </trkpt>
      <trkpt lat="47.21663" lon="5.92222">
        <ele>294.6</ele>
        <time>2024-08-03T10:40:37Z</time>
      </trkpt>
      <trkpt lat="47.21656" lon="5.9222">
        <ele>294.2</ele>
        <time>2024-08-03T10:40:38Z</time>
      </trkpt>
      <trkpt lat="47.2165" lon="5.92218">
        <ele>293.8</ele>
        <time>2024-08-03T10:40:39Z</time>
      </trkpt>
      <trkpt lat="47.21644" lon="5.92216">
        <ele>293.4</ele>
        <time>2024-08-03T10:40:40Z</time>
      </trkpt>
      <trkpt lat="47.21638" lon="5.92212">
        <ele>293</ele>
        <time>2024-08-03T10:40:41Z</time>
      </trkpt>
      <trkpt lat="47.21633" lon="5.92205">
        <ele>292.6</ele>
        <time>2024-08-03T10:40:42Z</time>
      </trkpt>
      <trkpt lat="47.21631" lon="5.92196">
        <ele>292.4</ele>
        <time>2024-08-03T10:40:43Z</time>
      </trkpt>
      <trkpt lat="47.21629" lon="5.92188">
        <ele>292.4</ele>
        <time>2024-08-03T10:40:44Z</time>
      </trkpt>
      <trkpt lat="47.21627" lon="5.9218">
        <ele>292.4</ele>
        <time>2024-08-03T10:40:45Z</time>
      </trkpt>
      <trkpt lat="47.21626" lon="5.92173">
        <ele>292.4</ele>
        <time>2024-08-03T10:40:46Z</time>
      </trkpt>
      <trkpt lat="47.21624" lon="5.92164">
        <ele>292.2</ele>
        <time>2024-08-03T10:40:47Z</time>
      </trkpt>
      <trkpt lat="47.2162" lon="5.92153">
        <ele>292.2</ele>
        <time>2024-08-03T10:40:48Z</time>
      </trkpt>
      <trkpt lat="47.21616" lon="5.92143">
        <ele>292.2</ele>
        <time>2024-08-03T10:40:49Z</time>
      </trkpt>
      <trkpt lat="47.21612" lon="5.92134">
        <ele>292</ele>
        <time>2024-08-03T10:40:50Z</time>
      </trkpt>
      <trkpt lat="47.21607" lon="5.92124">
        <ele>292</ele>
        <time>2024-08-03T10:40:51Z</time>
      </trkpt>
      <trkpt lat="47.216" lon="5.92114">
        <ele>292</ele>
        <time>2024-08-03T10:40:52Z</time>
      </trkpt>
      <trkpt lat="47.21594" lon="5.92106">
        <ele>292</ele>
        <time>2024-08-03T10:40:53Z</time>
      </trkpt>
      <trkpt lat="47.21586" lon="5.92101">
        <ele>292</ele>
        <time>2024-08-03T10:40:54Z</time>
      </trkpt>
      <trkpt lat="47.2158" lon="5.92096">
        <ele>291.8</ele>
        <time>2024-08-03T10:40:55Z</time>
      </trkpt>
      <trkpt lat="47.21576" lon="5.92093">
        <ele>291.6</ele>
        <time>2024-08-03T10:40:56Z</time>
      </trkpt>
      <trkpt lat="47.21569" lon="5.92089">
        <ele>291</ele>
        <time>2024-08-03T10:40:57Z</time>
      </trkpt>
      <trkpt lat="47.21562" lon="5.92084">
        <ele>290.2</ele>
        <time>2024-08-03T10:40:58Z</time>
      </trkpt>
      <trkpt lat="47.21558" lon="5.92079">
        <ele>289.8</ele>
        <time>2024-08-03T10:40:59Z</time>
      </trkpt>
      <trkpt lat="47.21553" lon="5.92074">
        <ele>289.4</ele>
        <time>2024-08-03T10:41:00Z</time>
      </trkpt>
      <trkpt lat="47.2155" lon="5.92068">
        <ele>289</ele>
        <time>2024-08-03T10:41:01Z</time>
      </trkpt>
      <trkpt lat="47.21546" lon="5.92062">
        <ele>288.4</ele>
        <time>2024-08-03T10:41:02Z</time>
      </trkpt>
      <trkpt lat="47.21542" lon="5.92058">
        <ele>288.2</ele>
        <time>2024-08-03T10:41:03Z</time>
      </trkpt>
      <trkpt lat="47.21539" lon="5.92054">
        <ele>288.2</ele>
        <time>2024-08-03T10:41:04Z</time>
      </trkpt>
      <trkpt lat="47.21536" lon="5.92049">
        <ele>288</ele>
        <time>2024-08-03T10:41:05Z</time>
      </trkpt>
      <trkpt lat="47.21533" lon="5.92044">
        <ele>288</ele>
        <time>2024-08-03T10:41:06Z</time>
      </trkpt>
      <trkpt lat="47.2153" lon="5.9204">
        <ele>288</ele>
        <time>2024-08-03T10:41:07Z</time>
      </trkpt>
      <trkpt lat="47.21527" lon="5.92037">
        <ele>288</ele>
        <time>2024-08-03T10:41:08Z</time>
      </trkpt>
      <trkpt lat="47.21524" lon="5.92033">
        <ele>288</ele>
        <time>2024-08-03T10:41:09Z</time>
      </trkpt>
      <trkpt lat="47.21522" lon="5.9203">
        <ele>288</ele>
        <time>2024-08-03T10:41:10Z</time>
      </trkpt>
      <trkpt lat="47.21518" lon="5.92025">
        <ele>288</ele>
        <time>2024-08-03T10:41:11Z</time>
      </trkpt>
      <trkpt lat="47.21515" lon="5.92019">
        <ele>288.2</ele>
        <time>2024-08-03T10:41:12Z</time>
      </trkpt>
      <trkpt lat="47.21512" lon="5.92016">
        <ele>288.8</ele>
        <time>2024-08-03T10:41:13Z</time>
      </trkpt>
      <trkpt lat="47.2151" lon="5.92012">
        <ele>289.2</ele>
        <time>2024-08-03T10:41:14Z</time>
      </trkpt>
      <trkpt lat="47.21508" lon="5.92008">
        <ele>289.2</ele>
        <time>2024-08-03T10:41:15Z</time>
      </trkpt>
      <trkpt lat="47.21505" lon="5.92003">
        <ele>289.6</ele>
        <time>2024-08-03T10:41:16Z</time>
      </trkpt>
      <trkpt lat="47.21503" lon="5.91999">
        <ele>290.2</ele>
        <time>2024-08-03T10:41:17Z</time>
      </trkpt>
      <trkpt lat="47.21502" lon="5.91995">
        <ele>290.4</ele>
        <time>2024-08-03T10:41:18Z</time>
      </trkpt>
      <trkpt lat="47.21499" lon="5.91992">
        <ele>291</ele>
        <time>2024-08-03T10:41:19Z</time>
      </trkpt>
      <trkpt lat="47.21497" lon="5.91988">
        <ele>291.2</ele>
        <time>2024-08-03T10:41:20Z</time>
      </trkpt>
      <trkpt lat="47.21494" lon="5.91985">
        <ele>291.4</ele>
        <time>2024-08-03T10:41:21Z</time>
      </trkpt>
      <trkpt lat="47.21491" lon="5.91982">
        <ele>291.8</ele>
        <time>2024-08-03T10:41:22Z</time>
      </trkpt>
      <trkpt lat="47.21488" lon="5.91978">
        <ele>292</ele>
        <time>2024-08-03T10:41:23Z</time>
      </trkpt>
      <trkpt lat="47.21486" lon="5.91975">
        <ele>292.6</ele>
        <time>2024-08-03T10:41:24Z</time>
      </trkpt>
      <trkpt lat="47.21482" lon="5.91972">
        <ele>292.8</ele>
        <time>2024-08-03T10:41:25Z</time>
      </trkpt>
      <trkpt lat="47.21479" lon="5.91968">
        <ele>293</ele>
        <time>2024-08-03T10:41:26Z</time>
      </trkpt>
      <trkpt lat="47.21476" lon="5.91966">
        <ele>293.2</ele>
        <time>2024-08-03T10:41:27Z</time>
      </trkpt>
      <trkpt lat="47.21473" lon="5.91962">
        <ele>293.4</ele>
        <time>2024-08-03T10:41:28Z</time>
      </trkpt>
      <trkpt lat="47.21469" lon="5.91958">
        <ele>293.8</ele>
        <time>2024-08-03T10:41:29Z</time>
      </trkpt>
      <trkpt lat="47.21466" lon="5.91954">
        <ele>294</ele>
        <time>2024-08-03T10:41:30Z</time>
      </trkpt>
      <trkpt lat="47.21462" lon="5.91949">
        <ele>294.2</ele>
        <time>2024-08-03T10:41:31Z</time>
      </trkpt>
      <trkpt lat="47.21459" lon="5.91945">
        <ele>294.2</ele>
        <time>2024-08-03T10:41:32Z</time>
      </trkpt>
      <trkpt lat="47.21456" lon="5.91941">
        <ele>294.4</ele>
        <time>2024-08-03T10:41:33Z</time>
      </trkpt>
      <trkpt lat="47.21453" lon="5.91937">
        <ele>294.6</ele>
        <time>2024-08-03T10:41:34Z</time>
      </trkpt>
      <trkpt lat="47.2145" lon="5.91933">
        <ele>294.8</ele>
        <time>2024-08-03T10:41:35Z</time>
      </trkpt>
      <trkpt lat="47.21446" lon="5.91928">
        <ele>294.8</ele>
        <time>2024-08-03T10:41:36Z</time>
      </trkpt>
      <trkpt lat="47.21443" lon="5.91925">
        <ele>295</ele>
        <time>2024-08-03T10:41:37Z</time>
      </trkpt>
      <trkpt lat="47.21438" lon="5.9192">
        <ele>295.2</ele>
        <time>2024-08-03T10:41:38Z</time>
      </trkpt>
      <trkpt lat="47.21435" lon="5.91916">
        <ele>295</ele>
        <time>2024-08-03T10:41:39Z</time>
      </trkpt>
      <trkpt lat="47.2143" lon="5.91912">
        <ele>295.2</ele>
        <time>2024-08-03T10:41:40Z</time>
      </trkpt>
      <trkpt lat="47.21425" lon="5.91909">
        <ele>295.2</ele>
        <time>2024-08-03T10:41:41Z</time>
      </trkpt>
      <trkpt lat="47.21421" lon="5.91905">
        <ele>295.2</ele>
        <time>2024-08-03T10:41:42Z</time>
      </trkpt>
      <trkpt lat="47.21416" lon="5.91902">
        <ele>295.2</ele>
        <time>2024-08-03T10:41:43Z</time>
      </trkpt>
      <trkpt lat="47.21411" lon="5.91899">
        <ele>295.2</ele>
        <time>2024-08-03T10:41:44Z</time>
      </trkpt>
      <trkpt lat="47.21407" lon="5.91896">
        <ele>295.2</ele>
        <time>2024-08-03T10:41:45Z</time>
      </trkpt>
      <trkpt lat="47.21402" lon="5.91892">
        <ele>295</ele>
        <time>2024-08-03T10:41:46Z</time>
      </trkpt>
      <trkpt lat="47.21397" lon="5.91889">
        <ele>295.2</ele>
        <time>2024-08-03T10:41:47Z</time>
      </trkpt>
      <trkpt lat="47.21393" lon="5.91886">
        <ele>295.2</ele>
        <time>2024-08-03T10:41:48Z</time>
      </trkpt>
      <trkpt lat="47.21389" lon="5.91884">
        <ele>295.2</ele>
        <time>2024-08-03T10:41:49Z</time>
      </trkpt>
      <trkpt lat="47.21384" lon="5.91881">
        <ele>295</ele>
        <time>2024-08-03T10:41:50Z</time>
      </trkpt>
      <trkpt lat="47.2138" lon="5.91877">
        <ele>295</ele>
        <time>2024-08-03T10:41:51Z</time>
      </trkpt>
      <trkpt lat="47.21375" lon="5.91873">
        <ele>295</ele>
        <time>2024-08-03T10:41:52Z</time>
      </trkpt>
      <trkpt lat="47.2137" lon="5.91869">
        <ele>295</ele>
        <time>2024-08-03T10:41:53Z</time>
      </trkpt>
      <trkpt lat="47.21365" lon="5.91865">
        <ele>295</ele>
        <time>2024-08-03T10:41:54Z</time>
      </trkpt>
      <trkpt lat="47.2136" lon="5.91861">
        <ele>295</ele>
        <time>2024-08-03T10:41:55Z</time>
      </trkpt>
      <trkpt lat="47.21355" lon="5.91857">
        <ele>294.8</ele>
        <time>2024-08-03T10:41:56Z</time>
      </trkpt>
      <trkpt lat="47.2135" lon="5.91852">
        <ele>294.6</ele>
        <time>2024-08-03T10:41:57Z</time>
      </trkpt>
      <trkpt lat="47.21345" lon="5.91847">
        <ele>294.6</ele>
        <time>2024-08-03T10:41:58Z</time>
      </trkpt>
      <trkpt lat="47.2134" lon="5.91841">
        <ele>294.6</ele>
        <time>2024-08-03T10:41:59Z</time>
      </trkpt>
      <trkpt lat="47.21335" lon="5.91834">
        <ele>294.6</ele>
        <time>2024-08-03T10:42:00Z</time>
      </trkpt>
      <trkpt lat="47.2133" lon="5.91828">
        <ele>294.2</ele>
        <time>2024-08-03T10:42:01Z</time>
      </trkpt>
      <trkpt lat="47.21326" lon="5.91823">
        <ele>293.8</ele>
        <time>2024-08-03T10:42:02Z</time>
      </trkpt>
      <trkpt lat="47.21321" lon="5.91817">
        <ele>293.8</ele>
        <time>2024-08-03T10:42:03Z</time>
      </trkpt>
      <trkpt lat="47.21317" lon="5.91812">
        <ele>293.4</ele>
        <time>2024-08-03T10:42:04Z</time>
      </trkpt>
      <trkpt lat="47.21312" lon="5.91808">
        <ele>293</ele>
        <time>2024-08-03T10:42:05Z</time>
      </trkpt>
      <trkpt lat="47.21307" lon="5.91804">
        <ele>292.6</ele>
        <time>2024-08-03T10:42:06Z</time>
      </trkpt>
      <trkpt lat="47.21303" lon="5.91802">
        <ele>292.2</ele>
        <time>2024-08-03T10:42:07Z</time>
      </trkpt>
      <trkpt lat="47.21299" lon="5.91802">
        <ele>291.8</ele>
        <time>2024-08-03T10:42:08Z</time>
      </trkpt>
      <trkpt lat="47.21296" lon="5.91803">
        <ele>291</ele>
        <time>2024-08-03T10:42:09Z</time>
      </trkpt>
      <trkpt lat="47.21286" lon="5.91815">
        <ele>288.8</ele>
        <time>2024-08-03T10:42:13Z</time>
      </trkpt>
      <trkpt lat="47.21283" lon="5.91819">
        <ele>288.6</ele>
        <time>2024-08-03T10:42:14Z</time>
      </trkpt>
      <trkpt lat="47.21279" lon="5.91821">
        <ele>288.2</ele>
        <time>2024-08-03T10:42:15Z</time>
      </trkpt>
      <trkpt lat="47.21275" lon="5.91826">
        <ele>288.2</ele>
        <time>2024-08-03T10:42:16Z</time>
      </trkpt>
      <trkpt lat="47.21271" lon="5.9183">
        <ele>288</ele>
        <time>2024-08-03T10:42:17Z</time>
      </trkpt>
      <trkpt lat="47.21268" lon="5.91833">
        <ele>287.8</ele>
        <time>2024-08-03T10:42:18Z</time>
      </trkpt>
      <trkpt lat="47.21266" lon="5.91837">
        <ele>287.8</ele>
        <time>2024-08-03T10:42:19Z</time>
      </trkpt>
      <trkpt lat="47.21263" lon="5.91839">
        <ele>287.8</ele>
        <time>2024-08-03T10:42:20Z</time>
      </trkpt>
      <trkpt lat="47.21261" lon="5.91842">
        <ele>287.8</ele>
        <time>2024-08-03T10:42:21Z</time>
      </trkpt>
      <trkpt lat="47.21258" lon="5.91844">
        <ele>287.8</ele>
        <time>2024-08-03T10:42:22Z</time>
      </trkpt>
      <trkpt lat="47.21255" lon="5.91845">
        <ele>287.8</ele>
        <time>2024-08-03T10:42:23Z</time>
      </trkpt>
      <trkpt lat="47.21251" lon="5.91846">
        <ele>287.8</ele>
        <time>2024-08-03T10:42:24Z</time>
      </trkpt>
      <trkpt lat="47.21248" lon="5.91847">
        <ele>287.6</ele>
        <time>2024-08-03T10:42:25Z</time>
      </trkpt>
      <trkpt lat="47.21245" lon="5.91848">
        <ele>287.6</ele>
        <time>2024-08-03T10:42:26Z</time>
      </trkpt>
      <trkpt lat="47.21242" lon="5.91851">
        <ele>287.8</ele>
        <time>2024-08-03T10:42:27Z</time>
      </trkpt>
      <trkpt lat="47.21241" lon="5.91854">
        <ele>287.8</ele>
        <time>2024-08-03T10:42:28Z</time>
      </trkpt>
      <trkpt lat="47.21239" lon="5.91856">
        <ele>287.8</ele>
        <time>2024-08-03T10:42:29Z</time>
      </trkpt>
      <trkpt lat="47.21237" lon="5.91858">
        <ele>288.2</ele>
        <time>2024-08-03T10:42:30Z</time>
      </trkpt>
      <trkpt lat="47.21236" lon="5.91861">
        <ele>288.6</ele>
        <time>2024-08-03T10:42:31Z</time>
      </trkpt>
      <trkpt lat="47.21234" lon="5.91865">
        <ele>289</ele>
        <time>2024-08-03T10:42:32Z</time>
      </trkpt>
      <trkpt lat="47.21232" lon="5.91868">
        <ele>289.6</ele>
        <time>2024-08-03T10:42:33Z</time>
      </trkpt>
      <trkpt lat="47.21229" lon="5.91873">
        <ele>290.2</ele>
        <time>2024-08-03T10:42:34Z</time>
      </trkpt>
      <trkpt lat="47.21226" lon="5.91878">
        <ele>290.6</ele>
        <time>2024-08-03T10:42:35Z</time>
      </trkpt>
      <trkpt lat="47.21223" lon="5.91883">
        <ele>290.8</ele>
        <time>2024-08-03T10:42:36Z</time>
      </trkpt>
      <trkpt lat="47.2122" lon="5.91888">
        <ele>290.8</ele>
        <time>2024-08-03T10:42:37Z</time>
      </trkpt>
      <trkpt lat="47.21217" lon="5.91893">
        <ele>291</ele>
        <time>2024-08-03T10:42:38Z</time>
      </trkpt>
      <trkpt lat="47.21213" lon="5.91898">
        <ele>291</ele>
        <time>2024-08-03T10:42:39Z</time>
      </trkpt>
      <trkpt lat="47.21209" lon="5.91903">
        <ele>291</ele>
        <time>2024-08-03T10:42:40Z</time>
      </trkpt>
      <trkpt lat="47.21205" lon="5.91907">
        <ele>291</ele>
        <time>2024-08-03T10:42:41Z</time>
      </trkpt>
      <trkpt lat="47.21202" lon="5.91911">
        <ele>291</ele>
        <time>2024-08-03T10:42:42Z</time>
      </trkpt>
      <trkpt lat="47.21198" lon="5.91914">
        <ele>291.2</ele>
        <time>2024-08-03T10:42:43Z</time>
      </trkpt>
      <trkpt lat="47.21195" lon="5.91917">
        <ele>291.2</ele>
        <time>2024-08-03T10:42:44Z</time>
      </trkpt>
      <trkpt lat="47.21191" lon="5.9192">
        <ele>291.2</ele>
        <time>2024-08-03T10:42:45Z</time>
      </trkpt>
      <trkpt lat="47.21189" lon="5.91923">
        <ele>291.2</ele>
        <time>2024-08-03T10:42:46Z</time>
      </trkpt>
      <trkpt lat="47.21186" lon="5.91925">
        <ele>291.2</ele>
        <time>2024-08-03T10:42:47Z</time>
      </trkpt>
      <trkpt lat="47.21183" lon="5.91926">
        <ele>291.6</ele>
        <time>2024-08-03T10:42:48Z</time>
      </trkpt>
      <trkpt lat="47.21181" lon="5.91927">
        <ele>291.6</ele>
        <time>2024-08-03T10:42:49Z</time>
      </trkpt>
      <trkpt lat="47.21179" lon="5.91926">
        <ele>291.6</ele>
        <time>2024-08-03T10:42:50Z</time>
      </trkpt>
      <trkpt lat="47.21178" lon="5.91923">
        <ele>291.8</ele>
        <time>2024-08-03T10:42:51Z</time>
      </trkpt>
      <trkpt lat="47.21177" lon="5.9192">
        <ele>292</ele>
        <time>2024-08-03T10:42:52Z</time>
      </trkpt>
      <trkpt lat="47.21176" lon="5.91917">
        <ele>292.6</ele>
        <time>2024-08-03T10:42:53Z</time>
      </trkpt>
      <trkpt lat="47.21175" lon="5.91914">
        <ele>293</ele>
        <time>2024-08-03T10:42:54Z</time>
      </trkpt>
      <trkpt lat="47.21173" lon="5.9191">
        <ele>293</ele>
        <time>2024-08-03T10:42:55Z</time>
      </trkpt>
      <trkpt lat="47.21172" lon="5.91907">
        <ele>293.4</ele>
        <time>2024-08-03T10:42:56Z</time>
      </trkpt>
      <trkpt lat="47.2117" lon="5.91903">
        <ele>293.6</ele>
        <time>2024-08-03T10:42:57Z</time>
      </trkpt>
      <trkpt lat="47.21168" lon="5.91899">
        <ele>293.8</ele>
        <time>2024-08-03T10:42:58Z</time>
      </trkpt>
      <trkpt lat="47.21166" lon="5.91896">
        <ele>293.8</ele>
        <time>2024-08-03T10:42:59Z</time>
      </trkpt>
      <trkpt lat="47.21164" lon="5.91893">
        <ele>294</ele>
        <time>2024-08-03T10:43:00Z</time>
      </trkpt>
      <trkpt lat="47.2116" lon="5.91892">
        <ele>294</ele>
        <time>2024-08-03T10:43:01Z</time>
      </trkpt>
      <trkpt lat="47.21157" lon="5.91893">
        <ele>294</ele>
        <time>2024-08-03T10:43:02Z</time>
      </trkpt>
      <trkpt lat="47.21153" lon="5.91895">
        <ele>294</ele>
        <time>2024-08-03T10:43:03Z</time>
      </trkpt>
      <trkpt lat="47.21149" lon="5.91897">
        <ele>294</ele>
        <time>2024-08-03T10:43:04Z</time>
      </trkpt>
      <trkpt lat="47.21144" lon="5.919">
        <ele>293.8</ele>
        <time>2024-08-03T10:43:05Z</time>
      </trkpt>
      <trkpt lat="47.2114" lon="5.91902">
        <ele>294</ele>
        <time>2024-08-03T10:43:06Z</time>
      </trkpt>
      <trkpt lat="47.21136" lon="5.91904">
        <ele>293.8</ele>
        <time>2024-08-03T10:43:07Z</time>
      </trkpt>
      <trkpt lat="47.21132" lon="5.91907">
        <ele>294</ele>
        <time>2024-08-03T10:43:08Z</time>
      </trkpt>
      <trkpt lat="47.21128" lon="5.9191">
        <ele>294</ele>
        <time>2024-08-03T10:43:09Z</time>
      </trkpt>
      <trkpt lat="47.21123" lon="5.91912">
        <ele>293.8</ele>
        <time>2024-08-03T10:43:10Z</time>
      </trkpt>
      <trkpt lat="47.21119" lon="5.91915">
        <ele>293.6</ele>
        <time>2024-08-03T10:43:11Z</time>
      </trkpt>
      <trkpt lat="47.21114" lon="5.91917">
        <ele>293.6</ele>
        <time>2024-08-03T10:43:12Z</time>
      </trkpt>
      <trkpt lat="47.2111" lon="5.91919">
        <ele>293.4</ele>
        <time>2024-08-03T10:43:13Z</time>
      </trkpt>
      <trkpt lat="47.21106" lon="5.91921">
        <ele>293.2</ele>
        <time>2024-08-03T10:43:14Z</time>
      </trkpt>
      <trkpt lat="47.21102" lon="5.91923">
        <ele>293.2</ele>
        <time>2024-08-03T10:43:15Z</time>
      </trkpt>
      <trkpt lat="47.21099" lon="5.91925">
        <ele>293</ele>
        <time>2024-08-03T10:43:16Z</time>
      </trkpt>
      <trkpt lat="47.21095" lon="5.91926">
        <ele>293</ele>
        <time>2024-08-03T10:43:17Z</time>
      </trkpt>
      <trkpt lat="47.21091" lon="5.91927">
        <ele>293</ele>
        <time>2024-08-03T10:43:18Z</time>
      </trkpt>
      <trkpt lat="47.21087" lon="5.91928">
        <ele>293</ele>
        <time>2024-08-03T10:43:19Z</time>
      </trkpt>
      <trkpt lat="47.21083" lon="5.91929">
        <ele>292.8</ele>
        <time>2024-08-03T10:43:20Z</time>
      </trkpt>
      <trkpt lat="47.21079" lon="5.9193">
        <ele>292.8</ele>
        <time>2024-08-03T10:43:21Z</time>
      </trkpt>
      <trkpt lat="47.21075" lon="5.9193">
        <ele>292.8</ele>
        <time>2024-08-03T10:43:22Z</time>
      </trkpt>
      <trkpt lat="47.21072" lon="5.9193">
        <ele>292.8</ele>
        <time>2024-08-03T10:43:23Z</time>
      </trkpt>
      <trkpt lat="47.21069" lon="5.9193">
        <ele>292.8</ele>
        <time>2024-08-03T10:43:24Z</time>
      </trkpt>
      <trkpt lat="47.21065" lon="5.91931">
        <ele>293</ele>
        <time>2024-08-03T10:43:25Z</time>
      </trkpt>
      <trkpt lat="47.21062" lon="5.91931">
        <ele>293</ele>
        <time>2024-08-03T10:43:26Z</time>
      </trkpt>
      <trkpt lat="47.21059" lon="5.91931">
        <ele>293</ele>
        <time>2024-08-03T10:43:27Z</time>
      </trkpt>
      <trkpt lat="47.21056" lon="5.91932">
        <ele>293</ele>
        <time>2024-08-03T10:43:28Z</time>
      </trkpt>
      <trkpt lat="47.21053" lon="5.91933">
        <ele>292.8</ele>
        <time>2024-08-03T10:43:29Z</time>
      </trkpt>
      <trkpt lat="47.2105" lon="5.91935">
        <ele>293</ele>
        <time>2024-08-03T10:43:30Z</time>
      </trkpt>
      <trkpt lat="47.21046" lon="5.91935">
        <ele>293.2</ele>
        <time>2024-08-03T10:43:31Z</time>
      </trkpt>
      <trkpt lat="47.21043" lon="5.91935">
        <ele>293.2</ele>
        <time>2024-08-03T10:43:32Z</time>
      </trkpt>
      <trkpt lat="47.2104" lon="5.91935">
        <ele>293</ele>
        <time>2024-08-03T10:43:33Z</time>
      </trkpt>
      <trkpt lat="47.21036" lon="5.91934">
        <ele>293.2</ele>
        <time>2024-08-03T10:43:34Z</time>
      </trkpt>
      <trkpt lat="47.21032" lon="5.91933">
        <ele>293.2</ele>
        <time>2024-08-03T10:43:35Z</time>
      </trkpt>
      <trkpt lat="47.21028" lon="5.91933">
        <ele>293.2</ele>
        <time>2024-08-03T10:43:36Z</time>
      </trkpt>
      <trkpt lat="47.21024" lon="5.91933">
        <ele>293.4</ele>
        <time>2024-08-03T10:43:37Z</time>
      </trkpt>
      <trkpt lat="47.21019" lon="5.91933">
        <ele>293.4</ele>
        <time>2024-08-03T10:43:38Z</time>
      </trkpt>
      <trkpt lat="47.21016" lon="5.91933">
        <ele>293.4</ele>
        <time>2024-08-03T10:43:39Z</time>
      </trkpt>
      <trkpt lat="47.21012" lon="5.91932">
        <ele>293.2</ele>
        <time>2024-08-03T10:43:40Z</time>
      </trkpt>
      <trkpt lat="47.21009" lon="5.91931">
        <ele>293.2</ele>
        <time>2024-08-03T10:43:41Z</time>
      </trkpt>
      <trkpt lat="47.21005" lon="5.91929">
        <ele>293.4</ele>
        <time>2024-08-03T10:43:42Z</time>
      </trkpt>
      <trkpt lat="47.21001" lon="5.91927">
        <ele>293.4</ele>
        <time>2024-08-03T10:43:43Z</time>
      </trkpt>
      <trkpt lat="47.20997" lon="5.91925">
        <ele>293.2</ele>
        <time>2024-08-03T10:43:44Z</time>
      </trkpt>
      <trkpt lat="47.20994" lon="5.91924">
        <ele>293.4</ele>
        <time>2024-08-03T10:43:45Z</time>
      </trkpt>
      <trkpt lat="47.2099" lon="5.91923">
        <ele>293.4</ele>
        <time>2024-08-03T10:43:46Z</time>
      </trkpt>
      <trkpt lat="47.20987" lon="5.91922">
        <ele>293.4</ele>
        <time>2024-08-03T10:43:47Z</time>
      </trkpt>
      <trkpt lat="47.20984" lon="5.91921">
        <ele>293.4</ele>
        <time>2024-08-03T10:43:48Z</time>
      </trkpt>
      <trkpt lat="47.20981" lon="5.91921">
        <ele>293.6</ele>
        <time>2024-08-03T10:43:49Z</time>
      </trkpt>
      <trkpt lat="47.20978" lon="5.91921">
        <ele>293.4</ele>
        <time>2024-08-03T10:43:50Z</time>
      </trkpt>
      <trkpt lat="47.20975" lon="5.91921">
        <ele>293.4</ele>
        <time>2024-08-03T10:43:51Z</time>
      </trkpt>
      <trkpt lat="47.20972" lon="5.91922">
        <ele>293.4</ele>
        <time>2024-08-03T10:43:52Z</time>
      </trkpt>
      <trkpt lat="47.20969" lon="5.91924">
        <ele>293.4</ele>
        <time>2024-08-03T10:43:53Z</time>
      </trkpt>
      <trkpt lat="47.20966" lon="5.91926">
        <ele>293.6</ele>
        <time>2024-08-03T10:43:54Z</time>
      </trkpt>
      <trkpt lat="47.20963" lon="5.91928">
        <ele>293.6</ele>
        <time>2024-08-03T10:43:55Z</time>
      </trkpt>
      <trkpt lat="47.2096" lon="5.91931">
        <ele>293.4</ele>
        <time>2024-08-03T10:43:56Z</time>
      </trkpt>
      <trkpt lat="47.20957" lon="5.91933">
        <ele>293.4</ele>
        <time>2024-08-03T10:43:57Z</time>
      </trkpt>
      <trkpt lat="47.20954" lon="5.91934">
        <ele>293.6</ele>
        <time>2024-08-03T10:43:58Z</time>
      </trkpt>
      <trkpt lat="47.20951" lon="5.91935">
        <ele>293.6</ele>
        <time>2024-08-03T10:43:59Z</time>
      </trkpt>
      <trkpt lat="47.20947" lon="5.91937">
        <ele>293.6</ele>
        <time>2024-08-03T10:44:00Z</time>
      </trkpt>
      <trkpt lat="47.20943" lon="5.91937">
        <ele>293.6</ele>
        <time>2024-08-03T10:44:01Z</time>
      </trkpt>
      <trkpt lat="47.2094" lon="5.91938">
        <ele>293.6</ele>
        <time>2024-08-03T10:44:02Z</time>
      </trkpt>
      <trkpt lat="47.20936" lon="5.9194">
        <ele>293.8</ele>
        <time>2024-08-03T10:44:03Z</time>
      </trkpt>
      <trkpt lat="47.20932" lon="5.91941">
        <ele>293.8</ele>
        <time>2024-08-03T10:44:04Z</time>
      </trkpt>
      <trkpt lat="47.20928" lon="5.91941">
        <ele>293.8</ele>
        <time>2024-08-03T10:44:05Z</time>
      </trkpt>
      <trkpt lat="47.20924" lon="5.91942">
        <ele>294</ele>
        <time>2024-08-03T10:44:06Z</time>
      </trkpt>
      <trkpt lat="47.2092" lon="5.91942">
        <ele>294</ele>
        <time>2024-08-03T10:44:07Z</time>
      </trkpt>
      <trkpt lat="47.20915" lon="5.91942">
        <ele>294</ele>
        <time>2024-08-03T10:44:08Z</time>
      </trkpt>
      <trkpt lat="47.20911" lon="5.91941">
        <ele>294</ele>
        <time>2024-08-03T10:44:09Z</time>
      </trkpt>
      <trkpt lat="47.20907" lon="5.9194">
        <ele>294</ele>
        <time>2024-08-03T10:44:10Z</time>
      </trkpt>
      <trkpt lat="47.20903" lon="5.91939">
        <ele>294</ele>
        <time>2024-08-03T10:44:11Z</time>
      </trkpt>
      <trkpt lat="47.20898" lon="5.91937">
        <ele>294.2</ele>
        <time>2024-08-03T10:44:12Z</time>
      </trkpt>
      <trkpt lat="47.20893" lon="5.91935">
        <ele>294</ele>
        <time>2024-08-03T10:44:13Z</time>
      </trkpt>
      <trkpt lat="47.20888" lon="5.91934">
        <ele>294</ele>
        <time>2024-08-03T10:44:14Z</time>
      </trkpt>
      <trkpt lat="47.20884" lon="5.91933">
        <ele>294</ele>
        <time>2024-08-03T10:44:15Z</time>
      </trkpt>
      <trkpt lat="47.2088" lon="5.91933">
        <ele>294</ele>
        <time>2024-08-03T10:44:16Z</time>
      </trkpt>
      <trkpt lat="47.20875" lon="5.91935">
        <ele>294</ele>
        <time>2024-08-03T10:44:17Z</time>
      </trkpt>
      <trkpt lat="47.2087" lon="5.91938">
        <ele>294</ele>
        <time>2024-08-03T10:44:18Z</time>
      </trkpt>
      <trkpt lat="47.20865" lon="5.9194">
        <ele>294</ele>
        <time>2024-08-03T10:44:19Z</time>
      </trkpt>
      <trkpt lat="47.20861" lon="5.91943">
        <ele>294</ele>
        <time>2024-08-03T10:44:20Z</time>
      </trkpt>
      <trkpt lat="47.20856" lon="5.91946">
        <ele>293.8</ele>
        <time>2024-08-03T10:44:21Z</time>
      </trkpt>
      <trkpt lat="47.20853" lon="5.9195">
        <ele>293.6</ele>
        <time>2024-08-03T10:44:22Z</time>
      </trkpt>
      <trkpt lat="47.20848" lon="5.91953">
        <ele>293.6</ele>
        <time>2024-08-03T10:44:23Z</time>
      </trkpt>
      <trkpt lat="47.20844" lon="5.91955">
        <ele>293.6</ele>
        <time>2024-08-03T10:44:24Z</time>
      </trkpt>
      <trkpt lat="47.2084" lon="5.91957">
        <ele>293.2</ele>
        <time>2024-08-03T10:44:25Z</time>
      </trkpt>
      <trkpt lat="47.20835" lon="5.91958">
        <ele>293</ele>
        <time>2024-08-03T10:44:26Z</time>
      </trkpt>
      <trkpt lat="47.20831" lon="5.91959">
        <ele>292.8</ele>
        <time>2024-08-03T10:44:27Z</time>
      </trkpt>
      <trkpt lat="47.20826" lon="5.91959">
        <ele>292.8</ele>
        <time>2024-08-03T10:44:28Z</time>
      </trkpt>
      <trkpt lat="47.20821" lon="5.9196">
        <ele>292.6</ele>
        <time>2024-08-03T10:44:29Z</time>
      </trkpt>
      <trkpt lat="47.20816" lon="5.91961">
        <ele>292.6</ele>
        <time>2024-08-03T10:44:30Z</time>
      </trkpt>
      <trkpt lat="47.20811" lon="5.91962">
        <ele>292.6</ele>
        <time>2024-08-03T10:44:31Z</time>
      </trkpt>
      <trkpt lat="47.20806" lon="5.91962">
        <ele>292.6</ele>
        <time>2024-08-03T10:44:32Z</time>
      </trkpt>
      <trkpt lat="47.20802" lon="5.91962">
        <ele>292.6</ele>
        <time>2024-08-03T10:44:33Z</time>
      </trkpt>
      <trkpt lat="47.20798" lon="5.91962">
        <ele>292.6</ele>
        <time>2024-08-03T10:44:34Z</time>
      </trkpt>
      <trkpt lat="47.20794" lon="5.91962">
        <ele>292.6</ele>
        <time>2024-08-03T10:44:35Z</time>
      </trkpt>
      <trkpt lat="47.2079" lon="5.91961">
        <ele>292.6</ele>
        <time>2024-08-03T10:44:36Z</time>
      </trkpt>
      <trkpt lat="47.20786" lon="5.9196">
        <ele>292.6</ele>
        <time>2024-08-03T10:44:37Z</time>
      </trkpt>
      <trkpt lat="47.20782" lon="5.9196">
        <ele>292.8</ele>
        <time>2024-08-03T10:44:38Z</time>
      </trkpt>
      <trkpt lat="47.20777" lon="5.9196">
        <ele>292.8</ele>
        <time>2024-08-03T10:44:39Z</time>
      </trkpt>
      <trkpt lat="47.20773" lon="5.9196">
        <ele>293.2</ele>
        <time>2024-08-03T10:44:40Z</time>
      </trkpt>
      <trkpt lat="47.20769" lon="5.9196">
        <ele>293.4</ele>
        <time>2024-08-03T10:44:41Z</time>
      </trkpt>
      <trkpt lat="47.20765" lon="5.91961">
        <ele>293.8</ele>
        <time>2024-08-03T10:44:42Z</time>
      </trkpt>
      <trkpt lat="47.2076" lon="5.91961">
        <ele>294</ele>
        <time>2024-08-03T10:44:43Z</time>
      </trkpt>
      <trkpt lat="47.20755" lon="5.9196">
        <ele>294.2</ele>
        <time>2024-08-03T10:44:44Z</time>
      </trkpt>
      <trkpt lat="47.2075" lon="5.9196">
        <ele>294.6</ele>
        <time>2024-08-03T10:44:45Z</time>
      </trkpt>
      <trkpt lat="47.20745" lon="5.91959">
        <ele>295</ele>
        <time>2024-08-03T10:44:46Z</time>
      </trkpt>
      <trkpt lat="47.20741" lon="5.91958">
        <ele>295.2</ele>
        <time>2024-08-03T10:44:47Z</time>
      </trkpt>
      <trkpt lat="47.20735" lon="5.91956">
        <ele>295.4</ele>
        <time>2024-08-03T10:44:48Z</time>
      </trkpt>
      <trkpt lat="47.2073" lon="5.91955">
        <ele>295.4</ele>
        <time>2024-08-03T10:44:49Z</time>
      </trkpt>
      <trkpt lat="47.20725" lon="5.91954">
        <ele>295.4</ele>
        <time>2024-08-03T10:44:50Z</time>
      </trkpt>
      <trkpt lat="47.2072" lon="5.91953">
        <ele>295.4</ele>
        <time>2024-08-03T10:44:51Z</time>
      </trkpt>
      <trkpt lat="47.20715" lon="5.91952">
        <ele>295.4</ele>
        <time>2024-08-03T10:44:52Z</time>
      </trkpt>
      <trkpt lat="47.2071" lon="5.91952">
        <ele>295.4</ele>
        <time>2024-08-03T10:44:53Z</time>
      </trkpt>
      <trkpt lat="47.20705" lon="5.91951">
        <ele>295.4</ele>
        <time>2024-08-03T10:44:54Z</time>
      </trkpt>
      <trkpt lat="47.207" lon="5.91952">
        <ele>295.4</ele>
        <time>2024-08-03T10:44:55Z</time>
      </trkpt>
      <trkpt lat="47.20695" lon="5.91951">
        <ele>295.4</ele>
        <time>2024-08-03T10:44:56Z</time>
      </trkpt>
      <trkpt lat="47.2069" lon="5.9195">
        <ele>295.4</ele>
        <time>2024-08-03T10:44:57Z</time>
      </trkpt>
      <trkpt lat="47.20685" lon="5.9195">
        <ele>295.4</ele>
        <time>2024-08-03T10:44:58Z</time>
      </trkpt>
      <trkpt lat="47.2068" lon="5.91949">
        <ele>295.4</ele>
        <time>2024-08-03T10:44:59Z</time>
      </trkpt>
      <trkpt lat="47.20675" lon="5.91948">
        <ele>295.4</ele>
        <time>2024-08-03T10:45:00Z</time>
      </trkpt>
      <trkpt lat="47.2067" lon="5.91947">
        <ele>295.2</ele>
        <time>2024-08-03T10:45:01Z</time>
      </trkpt>
      <trkpt lat="47.20667" lon="5.91947">
        <ele>295.2</ele>
        <time>2024-08-03T10:45:02Z</time>
      </trkpt>
      <trkpt lat="47.20663" lon="5.91947">
        <ele>295.2</ele>
        <time>2024-08-03T10:45:03Z</time>
      </trkpt>
      <trkpt lat="47.20659" lon="5.91947">
        <ele>295</ele>
        <time>2024-08-03T10:45:04Z</time>
      </trkpt>
      <trkpt lat="47.20654" lon="5.91948">
        <ele>295</ele>
        <time>2024-08-03T10:45:05Z</time>
      </trkpt>
      <trkpt lat="47.2065" lon="5.91948">
        <ele>295</ele>
        <time>2024-08-03T10:45:06Z</time>
      </trkpt>
      <trkpt lat="47.20645" lon="5.91949">
        <ele>295.2</ele>
        <time>2024-08-03T10:45:07Z</time>
      </trkpt>
      <trkpt lat="47.2064" lon="5.9195">
        <ele>295</ele>
        <time>2024-08-03T10:45:08Z</time>
      </trkpt>
      <trkpt lat="47.20635" lon="5.91949">
        <ele>295.2</ele>
        <time>2024-08-03T10:45:09Z</time>
      </trkpt>
      <trkpt lat="47.20631" lon="5.9195">
        <ele>295.2</ele>
        <time>2024-08-03T10:45:10Z</time>
      </trkpt>
      <trkpt lat="47.20627" lon="5.91952">
        <ele>295</ele>
        <time>2024-08-03T10:45:11Z</time>
      </trkpt>
      <trkpt lat="47.20624" lon="5.91955">
        <ele>295.2</ele>
        <time>2024-08-03T10:45:12Z</time>
      </trkpt>
      <trkpt lat="47.20622" lon="5.91959">
        <ele>295.4</ele>
        <time>2024-08-03T10:45:13Z</time>
      </trkpt>
      <trkpt lat="47.20621" lon="5.91964">
        <ele>295.8</ele>
        <time>2024-08-03T10:45:14Z</time>
      </trkpt>
      <trkpt lat="47.2062" lon="5.91969">
        <ele>295.8</ele>
        <time>2024-08-03T10:45:15Z</time>
      </trkpt>
      <trkpt lat="47.20621" lon="5.91973">
        <ele>295.8</ele>
        <time>2024-08-03T10:45:16Z</time>
      </trkpt>
      <trkpt lat="47.20622" lon="5.91976">
        <ele>296.2</ele>
        <time>2024-08-03T10:45:17Z</time>
      </trkpt>
      <trkpt lat="47.20623" lon="5.91979">
        <ele>296.2</ele>
        <time>2024-08-03T10:45:18Z</time>
      </trkpt>
      <trkpt lat="47.20625" lon="5.91983">
        <ele>296.2</ele>
        <time>2024-08-03T10:45:19Z</time>
      </trkpt>
      <trkpt lat="47.20627" lon="5.91987">
        <ele>296.2</ele>
        <time>2024-08-03T10:45:20Z</time>
      </trkpt>
      <trkpt lat="47.20629" lon="5.91991">
        <ele>296.2</ele>
        <time>2024-08-03T10:45:21Z</time>
      </trkpt>
      <trkpt lat="47.20631" lon="5.91995">
        <ele>296.4</ele>
        <time>2024-08-03T10:45:22Z</time>
      </trkpt>
      <trkpt lat="47.20633" lon="5.91999">
        <ele>296.4</ele>
        <time>2024-08-03T10:45:23Z</time>
      </trkpt>
      <trkpt lat="47.20635" lon="5.92003">
        <ele>296.4</ele>
        <time>2024-08-03T10:45:24Z</time>
      </trkpt>
      <trkpt lat="47.20636" lon="5.92008">
        <ele>296.6</ele>
        <time>2024-08-03T10:45:25Z</time>
      </trkpt>
      <trkpt lat="47.20638" lon="5.92013">
        <ele>296.6</ele>
        <time>2024-08-03T10:45:26Z</time>
      </trkpt>
      <trkpt lat="47.2064" lon="5.92018">
        <ele>296.6</ele>
        <time>2024-08-03T10:45:27Z</time>
      </trkpt>
      <trkpt lat="47.20641" lon="5.92023">
        <ele>296.6</ele>
        <time>2024-08-03T10:45:28Z</time>
      </trkpt>
      <trkpt lat="47.20643" lon="5.92029">
        <ele>297</ele>
        <time>2024-08-03T10:45:29Z</time>
      </trkpt>
      <trkpt lat="47.20644" lon="5.92036">
        <ele>297</ele>
        <time>2024-08-03T10:45:30Z</time>
      </trkpt>
      <trkpt lat="47.20646" lon="5.92042">
        <ele>297</ele>
        <time>2024-08-03T10:45:31Z</time>
      </trkpt>
      <trkpt lat="47.20647" lon="5.9205">
        <ele>297</ele>
        <time>2024-08-03T10:45:32Z</time>
      </trkpt>
      <trkpt lat="47.20649" lon="5.92057">
        <ele>297.2</ele>
        <time>2024-08-03T10:45:33Z</time>
      </trkpt>
      <trkpt lat="47.2065" lon="5.92064">
        <ele>297.4</ele>
        <time>2024-08-03T10:45:34Z</time>
      </trkpt>
      <trkpt lat="47.2065" lon="5.92072">
        <ele>297.4</ele>
        <time>2024-08-03T10:45:35Z</time>
      </trkpt>
      <trkpt lat="47.20651" lon="5.92078">
        <ele>297.4</ele>
        <time>2024-08-03T10:45:36Z</time>
      </trkpt>
      <trkpt lat="47.20652" lon="5.92084">
        <ele>297.4</ele>
        <time>2024-08-03T10:45:37Z</time>
      </trkpt>
      <trkpt lat="47.20653" lon="5.9209">
        <ele>297.4</ele>
        <time>2024-08-03T10:45:38Z</time>
      </trkpt>
      <trkpt lat="47.20654" lon="5.92096">
        <ele>297.4</ele>
        <time>2024-08-03T10:45:39Z</time>
      </trkpt>
      <trkpt lat="47.20655" lon="5.92101">
        <ele>297.4</ele>
        <time>2024-08-03T10:45:40Z</time>
      </trkpt>
      <trkpt lat="47.20656" lon="5.92107">
        <ele>297.4</ele>
        <time>2024-08-03T10:45:41Z</time>
      </trkpt>
      <trkpt lat="47.20657" lon="5.92114">
        <ele>297.6</ele>
        <time>2024-08-03T10:45:42Z</time>
      </trkpt>
      <trkpt lat="47.20659" lon="5.9212">
        <ele>297.6</ele>
        <time>2024-08-03T10:45:43Z</time>
      </trkpt>
      <trkpt lat="47.2066" lon="5.92127">
        <ele>297.6</ele>
        <time>2024-08-03T10:45:44Z</time>
      </trkpt>
      <trkpt lat="47.20662" lon="5.92134">
        <ele>297.6</ele>
        <time>2024-08-03T10:45:45Z</time>
      </trkpt>
      <trkpt lat="47.20664" lon="5.9214">
        <ele>297.6</ele>
        <time>2024-08-03T10:45:46Z</time>
      </trkpt>
      <trkpt lat="47.20666" lon="5.92146">
        <ele>297.6</ele>
        <time>2024-08-03T10:45:47Z</time>
      </trkpt>
      <trkpt lat="47.20668" lon="5.92153">
        <ele>297.6</ele>
        <time>2024-08-03T10:45:48Z</time>
      </trkpt>
      <trkpt lat="47.2067" lon="5.92159">
        <ele>297.8</ele>
        <time>2024-08-03T10:45:49Z</time>
      </trkpt>
      <trkpt lat="47.20672" lon="5.92167">
        <ele>297.8</ele>
        <time>2024-08-03T10:45:50Z</time>
      </trkpt>
      <trkpt lat="47.20674" lon="5.92173">
        <ele>297.8</ele>
        <time>2024-08-03T10:45:51Z</time>
      </trkpt>
      <trkpt lat="47.20675" lon="5.9218">
        <ele>298</ele>
        <time>2024-08-03T10:45:52Z</time>
      </trkpt>
      <trkpt lat="47.20678" lon="5.92187">
        <ele>298</ele>
        <time>2024-08-03T10:45:53Z</time>
      </trkpt>
      <trkpt lat="47.2068" lon="5.92194">
        <ele>298</ele>
        <time>2024-08-03T10:45:54Z</time>
      </trkpt>
      <trkpt lat="47.20682" lon="5.922">
        <ele>298</ele>
        <time>2024-08-03T10:45:55Z</time>
      </trkpt>
      <trkpt lat="47.20683" lon="5.92206">
        <ele>298.2</ele>
        <time>2024-08-03T10:45:56Z</time>
      </trkpt>
      <trkpt lat="47.20685" lon="5.92213">
        <ele>298.2</ele>
        <time>2024-08-03T10:45:57Z</time>
      </trkpt>
      <trkpt lat="47.20687" lon="5.92221">
        <ele>298.4</ele>
        <time>2024-08-03T10:45:58Z</time>
      </trkpt>
      <trkpt lat="47.20689" lon="5.92228">
        <ele>298.4</ele>
        <time>2024-08-03T10:45:59Z</time>
      </trkpt>
      <trkpt lat="47.20691" lon="5.92236">
        <ele>298.4</ele>
        <time>2024-08-03T10:46:00Z</time>
      </trkpt>
      <trkpt lat="47.20695" lon="5.92245">
        <ele>298.4</ele>
        <time>2024-08-03T10:46:01Z</time>
      </trkpt>
      <trkpt lat="47.20697" lon="5.92253">
        <ele>298.4</ele>
        <time>2024-08-03T10:46:02Z</time>
      </trkpt>
      <trkpt lat="47.207" lon="5.92261">
        <ele>298.4</ele>
        <time>2024-08-03T10:46:03Z</time>
      </trkpt>
      <trkpt lat="47.20703" lon="5.9227">
        <ele>298.4</ele>
        <time>2024-08-03T10:46:04Z</time>
      </trkpt>
      <trkpt lat="47.20706" lon="5.92279">
        <ele>298.4</ele>
        <time>2024-08-03T10:46:05Z</time>
      </trkpt>
      <trkpt lat="47.20709" lon="5.92287">
        <ele>298.4</ele>
        <time>2024-08-03T10:46:06Z</time>
      </trkpt>
      <trkpt lat="47.20713" lon="5.92297">
        <ele>298.4</ele>
        <time>2024-08-03T10:46:07Z</time>
      </trkpt>
      <trkpt lat="47.20716" lon="5.92306">
        <ele>298.4</ele>
        <time>2024-08-03T10:46:08Z</time>
      </trkpt>
      <trkpt lat="47.20719" lon="5.92314">
        <ele>298.4</ele>
        <time>2024-08-03T10:46:09Z</time>
      </trkpt>
      <trkpt lat="47.20724" lon="5.92324">
        <ele>298.4</ele>
        <time>2024-08-03T10:46:10Z</time>
      </trkpt>
      <trkpt lat="47.20727" lon="5.92333">
        <ele>298.2</ele>
        <time>2024-08-03T10:46:11Z</time>
      </trkpt>
      <trkpt lat="47.20732" lon="5.92342">
        <ele>298.2</ele>
        <time>2024-08-03T10:46:12Z</time>
      </trkpt>
      <trkpt lat="47.20737" lon="5.92351">
        <ele>298.4</ele>
        <time>2024-08-03T10:46:13Z</time>
      </trkpt>
      <trkpt lat="47.20742" lon="5.9236">
        <ele>298.2</ele>
        <time>2024-08-03T10:46:14Z</time>
      </trkpt>
      <trkpt lat="47.20746" lon="5.92368">
        <ele>298</ele>
        <time>2024-08-03T10:46:15Z</time>
      </trkpt>
      <trkpt lat="47.2075" lon="5.92376">
        <ele>298</ele>
        <time>2024-08-03T10:46:16Z</time>
      </trkpt>
      <trkpt lat="47.20754" lon="5.92384">
        <ele>298</ele>
        <time>2024-08-03T10:46:17Z</time>
      </trkpt>
      <trkpt lat="47.20758" lon="5.92393">
        <ele>297.8</ele>
        <time>2024-08-03T10:46:18Z</time>
      </trkpt>
      <trkpt lat="47.20762" lon="5.92401">
        <ele>297.8</ele>
        <time>2024-08-03T10:46:19Z</time>
      </trkpt>
      <trkpt lat="47.20766" lon="5.92409">
        <ele>297.8</ele>
        <time>2024-08-03T10:46:20Z</time>
      </trkpt>
      <trkpt lat="47.20769" lon="5.92417">
        <ele>297.8</ele>
        <time>2024-08-03T10:46:21Z</time>
      </trkpt>
      <trkpt lat="47.20774" lon="5.92425">
        <ele>297.6</ele>
        <time>2024-08-03T10:46:22Z</time>
      </trkpt>
      <trkpt lat="47.20778" lon="5.92433">
        <ele>297.6</ele>
        <time>2024-08-03T10:46:23Z</time>
      </trkpt>
      <trkpt lat="47.20783" lon="5.92441">
        <ele>297.4</ele>
        <time>2024-08-03T10:46:24Z</time>
      </trkpt>
      <trkpt lat="47.20788" lon="5.92448">
        <ele>297.4</ele>
        <time>2024-08-03T10:46:25Z</time>
      </trkpt>
      <trkpt lat="47.20792" lon="5.92455">
        <ele>297.2</ele>
        <time>2024-08-03T10:46:26Z</time>
      </trkpt>
      <trkpt lat="47.20797" lon="5.92461">
        <ele>297.2</ele>
        <time>2024-08-03T10:46:27Z</time>
      </trkpt>
      <trkpt lat="47.20801" lon="5.92468">
        <ele>296.8</ele>
        <time>2024-08-03T10:46:28Z</time>
      </trkpt>
      <trkpt lat="47.20805" lon="5.92475">
        <ele>296.8</ele>
        <time>2024-08-03T10:46:29Z</time>
      </trkpt>
      <trkpt lat="47.20808" lon="5.92482">
        <ele>296.8</ele>
        <time>2024-08-03T10:46:30Z</time>
      </trkpt>
      <trkpt lat="47.20812" lon="5.9249">
        <ele>296.6</ele>
        <time>2024-08-03T10:46:31Z</time>
      </trkpt>
      <trkpt lat="47.20816" lon="5.92497">
        <ele>296.8</ele>
        <time>2024-08-03T10:46:32Z</time>
      </trkpt>
      <trkpt lat="47.2082" lon="5.92505">
        <ele>296.6</ele>
        <time>2024-08-03T10:46:33Z</time>
      </trkpt>
      <trkpt lat="47.20823" lon="5.92512">
        <ele>296.8</ele>
        <time>2024-08-03T10:46:34Z</time>
      </trkpt>
      <trkpt lat="47.20827" lon="5.9252">
        <ele>296.6</ele>
        <time>2024-08-03T10:46:35Z</time>
      </trkpt>
      <trkpt lat="47.20831" lon="5.92528">
        <ele>296.8</ele>
        <time>2024-08-03T10:46:36Z</time>
      </trkpt>
      <trkpt lat="47.20836" lon="5.92536">
        <ele>296.6</ele>
        <time>2024-08-03T10:46:37Z</time>
      </trkpt>
      <trkpt lat="47.2084" lon="5.92543">
        <ele>296.6</ele>
        <time>2024-08-03T10:46:38Z</time>
      </trkpt>
      <trkpt lat="47.20844" lon="5.92551">
        <ele>296.6</ele>
        <time>2024-08-03T10:46:39Z</time>
      </trkpt>
      <trkpt lat="47.20848" lon="5.92559">
        <ele>296.6</ele>
        <time>2024-08-03T10:46:40Z</time>
      </trkpt>
      <trkpt lat="47.20852" lon="5.92567">
        <ele>296.6</ele>
        <time>2024-08-03T10:46:41Z</time>
      </trkpt>
      <trkpt lat="47.20855" lon="5.92575">
        <ele>296.6</ele>
        <time>2024-08-03T10:46:42Z</time>
      </trkpt>
      <trkpt lat="47.20859" lon="5.92583">
        <ele>296.4</ele>
        <time>2024-08-03T10:46:43Z</time>
      </trkpt>
      <trkpt lat="47.20862" lon="5.92591">
        <ele>296.4</ele>
        <time>2024-08-03T10:46:44Z</time>
      </trkpt>
      <trkpt lat="47.20864" lon="5.92598">
        <ele>296.4</ele>
        <time>2024-08-03T10:46:45Z</time>
      </trkpt>
      <trkpt lat="47.20866" lon="5.92606">
        <ele>296.4</ele>
        <time>2024-08-03T10:46:46Z</time>
      </trkpt>
      <trkpt lat="47.20869" lon="5.92613">
        <ele>296.4</ele>
        <time>2024-08-03T10:46:47Z</time>
      </trkpt>
      <trkpt lat="47.20871" lon="5.92621">
        <ele>296.4</ele>
        <time>2024-08-03T10:46:48Z</time>
      </trkpt>
      <trkpt lat="47.20873" lon="5.92629">
        <ele>296.4</ele>
        <time>2024-08-03T10:46:49Z</time>
      </trkpt>
      <trkpt lat="47.20875" lon="5.92637">
        <ele>296.2</ele>
        <time>2024-08-03T10:46:50Z</time>
      </trkpt>
      <trkpt lat="47.20876" lon="5.92644">
        <ele>296.2</ele>
        <time>2024-08-03T10:46:51Z</time>
      </trkpt>
      <trkpt lat="47.20878" lon="5.92652">
        <ele>296.2</ele>
        <time>2024-08-03T10:46:52Z</time>
      </trkpt>
      <trkpt lat="47.2088" lon="5.9266">
        <ele>296.2</ele>
        <time>2024-08-03T10:46:53Z</time>
      </trkpt>
      <trkpt lat="47.20882" lon="5.92668">
        <ele>296.2</ele>
        <time>2024-08-03T10:46:54Z</time>
      </trkpt>
      <trkpt lat="47.20883" lon="5.92677">
        <ele>296.2</ele>
        <time>2024-08-03T10:46:55Z</time>
      </trkpt>
      <trkpt lat="47.20885" lon="5.92685">
        <ele>296.2</ele>
        <time>2024-08-03T10:46:56Z</time>
      </trkpt>
      <trkpt lat="47.20887" lon="5.92693">
        <ele>296.2</ele>
        <time>2024-08-03T10:46:57Z</time>
      </trkpt>
      <trkpt lat="47.2089" lon="5.92701">
        <ele>296.2</ele>
        <time>2024-08-03T10:46:58Z</time>
      </trkpt>
      <trkpt lat="47.20892" lon="5.92709">
        <ele>296.2</ele>
        <time>2024-08-03T10:46:59Z</time>
      </trkpt>
      <trkpt lat="47.20894" lon="5.92717">
        <ele>296</ele>
        <time>2024-08-03T10:47:00Z</time>
      </trkpt>
      <trkpt lat="47.20898" lon="5.92725">
        <ele>296</ele>
        <time>2024-08-03T10:47:01Z</time>
      </trkpt>
      <trkpt lat="47.20901" lon="5.92734">
        <ele>296</ele>
        <time>2024-08-03T10:47:02Z</time>
      </trkpt>
      <trkpt lat="47.20903" lon="5.92741">
        <ele>296</ele>
        <time>2024-08-03T10:47:03Z</time>
      </trkpt>
      <trkpt lat="47.20906" lon="5.92749">
        <ele>296</ele>
        <time>2024-08-03T10:47:04Z</time>
      </trkpt>
      <trkpt lat="47.20907" lon="5.92757">
        <ele>295.8</ele>
        <time>2024-08-03T10:47:05Z</time>
      </trkpt>
      <trkpt lat="47.20909" lon="5.92765">
        <ele>295.8</ele>
        <time>2024-08-03T10:47:06Z</time>
      </trkpt>
      <trkpt lat="47.20911" lon="5.92772">
        <ele>295.8</ele>
        <time>2024-08-03T10:47:07Z</time>
      </trkpt>
      <trkpt lat="47.20912" lon="5.9278">
        <ele>295.8</ele>
        <time>2024-08-03T10:47:08Z</time>
      </trkpt>
      <trkpt lat="47.20913" lon="5.92787">
        <ele>295.8</ele>
        <time>2024-08-03T10:47:09Z</time>
      </trkpt>
      <trkpt lat="47.20915" lon="5.92795">
        <ele>295.8</ele>
        <time>2024-08-03T10:47:10Z</time>
      </trkpt>
      <trkpt lat="47.20916" lon="5.92803">
        <ele>295.6</ele>
        <time>2024-08-03T10:47:11Z</time>
      </trkpt>
      <trkpt lat="47.20918" lon="5.92811">
        <ele>295.6</ele>
        <time>2024-08-03T10:47:12Z</time>
      </trkpt>
      <trkpt lat="47.2092" lon="5.92819">
        <ele>295.6</ele>
        <time>2024-08-03T10:47:13Z</time>
      </trkpt>
      <trkpt lat="47.20922" lon="5.92828">
        <ele>295.6</ele>
        <time>2024-08-03T10:47:14Z</time>
      </trkpt>
      <trkpt lat="47.20924" lon="5.92836">
        <ele>295.4</ele>
        <time>2024-08-03T10:47:15Z</time>
      </trkpt>
      <trkpt lat="47.20926" lon="5.92845">
        <ele>295.4</ele>
        <time>2024-08-03T10:47:16Z</time>
      </trkpt>
      <trkpt lat="47.20929" lon="5.92854">
        <ele>295.4</ele>
        <time>2024-08-03T10:47:17Z</time>
      </trkpt>
      <trkpt lat="47.20932" lon="5.92862">
        <ele>295.2</ele>
        <time>2024-08-03T10:47:18Z</time>
      </trkpt>
      <trkpt lat="47.20934" lon="5.9287">
        <ele>295.4</ele>
        <time>2024-08-03T10:47:19Z</time>
      </trkpt>
      <trkpt lat="47.20936" lon="5.92877">
        <ele>295.2</ele>
        <time>2024-08-03T10:47:20Z</time>
      </trkpt>
      <trkpt lat="47.20939" lon="5.92884">
        <ele>295.2</ele>
        <time>2024-08-03T10:47:21Z</time>
      </trkpt>
      <trkpt lat="47.20942" lon="5.9289">
        <ele>295</ele>
        <time>2024-08-03T10:47:22Z</time>
      </trkpt>
      <trkpt lat="47.20945" lon="5.92896">
        <ele>295</ele>
        <time>2024-08-03T10:47:23Z</time>
      </trkpt>
      <trkpt lat="47.20947" lon="5.92901">
        <ele>295.2</ele>
        <time>2024-08-03T10:47:24Z</time>
      </trkpt>
      <trkpt lat="47.2095" lon="5.92906">
        <ele>295</ele>
        <time>2024-08-03T10:47:25Z</time>
      </trkpt>
      <trkpt lat="47.20952" lon="5.92911">
        <ele>295</ele>
        <time>2024-08-03T10:47:26Z</time>
      </trkpt>
      <trkpt lat="47.20955" lon="5.92915">
        <ele>295</ele>
        <time>2024-08-03T10:47:27Z</time>
      </trkpt>
      <trkpt lat="47.20957" lon="5.92919">
        <ele>295</ele>
        <time>2024-08-03T10:47:28Z</time>
      </trkpt>
      <trkpt lat="47.20959" lon="5.92924">
        <ele>295.2</ele>
        <time>2024-08-03T10:47:29Z</time>
      </trkpt>
      <trkpt lat="47.2096" lon="5.92929">
        <ele>295</ele>
        <time>2024-08-03T10:47:30Z</time>
      </trkpt>
      <trkpt lat="47.20961" lon="5.92934">
        <ele>295.2</ele>
        <time>2024-08-03T10:47:31Z</time>
      </trkpt>
      <trkpt lat="47.20962" lon="5.92939">
        <ele>295.4</ele>
        <time>2024-08-03T10:47:32Z</time>
      </trkpt>
      <trkpt lat="47.20962" lon="5.92944">
        <ele>295.4</ele>
        <time>2024-08-03T10:47:33Z</time>
      </trkpt>
      <trkpt lat="47.20963" lon="5.92949">
        <ele>295.6</ele>
        <time>2024-08-03T10:47:34Z</time>
      </trkpt>
      <trkpt lat="47.20964" lon="5.92956">
        <ele>295.6</ele>
        <time>2024-08-03T10:47:35Z</time>
      </trkpt>
      <trkpt lat="47.20967" lon="5.92963">
        <ele>295.8</ele>
        <time>2024-08-03T10:47:36Z</time>
      </trkpt>
      <trkpt lat="47.2097" lon="5.9297">
        <ele>296</ele>
        <time>2024-08-03T10:47:37Z</time>
      </trkpt>
      <trkpt lat="47.20973" lon="5.92977">
        <ele>296</ele>
        <time>2024-08-03T10:47:38Z</time>
      </trkpt>
      <trkpt lat="47.20975" lon="5.92982">
        <ele>296.4</ele>
        <time>2024-08-03T10:47:39Z</time>
      </trkpt>
      <trkpt lat="47.20976" lon="5.92988">
        <ele>296.4</ele>
        <time>2024-08-03T10:47:40Z</time>
      </trkpt>
      <trkpt lat="47.20978" lon="5.92994">
        <ele>296.6</ele>
        <time>2024-08-03T10:47:41Z</time>
      </trkpt>
      <trkpt lat="47.20979" lon="5.93">
        <ele>296.8</ele>
        <time>2024-08-03T10:47:42Z</time>
      </trkpt>
      <trkpt lat="47.2098" lon="5.93006">
        <ele>296.8</ele>
        <time>2024-08-03T10:47:43Z</time>
      </trkpt>
      <trkpt lat="47.20981" lon="5.93012">
        <ele>296.8</ele>
        <time>2024-08-03T10:47:44Z</time>
      </trkpt>
      <trkpt lat="47.20981" lon="5.93019">
        <ele>297</ele>
        <time>2024-08-03T10:47:45Z</time>
      </trkpt>
      <trkpt lat="47.20981" lon="5.93025">
        <ele>297.2</ele>
        <time>2024-08-03T10:47:46Z</time>
      </trkpt>
      <trkpt lat="47.20982" lon="5.93031">
        <ele>297.2</ele>
        <time>2024-08-03T10:47:47Z</time>
      </trkpt>
      <trkpt lat="47.20981" lon="5.93038">
        <ele>297.2</ele>
        <time>2024-08-03T10:47:48Z</time>
      </trkpt>
      <trkpt lat="47.20982" lon="5.93045">
        <ele>297.4</ele>
        <time>2024-08-03T10:47:49Z</time>
      </trkpt>
      <trkpt lat="47.20982" lon="5.93052">
        <ele>297.4</ele>
        <time>2024-08-03T10:47:50Z</time>
      </trkpt>
      <trkpt lat="47.20982" lon="5.93059">
        <ele>297.8</ele>
        <time>2024-08-03T10:47:51Z</time>
      </trkpt>
      <trkpt lat="47.20982" lon="5.93066">
        <ele>298</ele>
        <time>2024-08-03T10:47:52Z</time>
      </trkpt>
      <trkpt lat="47.20983" lon="5.93073">
        <ele>298.2</ele>
        <time>2024-08-03T10:47:53Z</time>
      </trkpt>
      <trkpt lat="47.20983" lon="5.9308">
        <ele>298.4</ele>
        <time>2024-08-03T10:47:54Z</time>
      </trkpt>
      <trkpt lat="47.20983" lon="5.93087">
        <ele>298.4</ele>
        <time>2024-08-03T10:47:55Z</time>
      </trkpt>
      <trkpt lat="47.20983" lon="5.93094">
        <ele>298.4</ele>
        <time>2024-08-03T10:47:56Z</time>
      </trkpt>
      <trkpt lat="47.20984" lon="5.93101">
        <ele>298.4</ele>
        <time>2024-08-03T10:47:57Z</time>
      </trkpt>
      <trkpt lat="47.20985" lon="5.93109">
        <ele>298.4</ele>
        <time>2024-08-03T10:47:58Z</time>
      </trkpt>
      <trkpt lat="47.20985" lon="5.93116">
        <ele>298.4</ele>
        <time>2024-08-03T10:47:59Z</time>
      </trkpt>
      <trkpt lat="47.20985" lon="5.93123">
        <ele>298.6</ele>
        <time>2024-08-03T10:48:00Z</time>
      </trkpt>
      <trkpt lat="47.20986" lon="5.93131">
        <ele>298.6</ele>
        <time>2024-08-03T10:48:01Z</time>
      </trkpt>
      <trkpt lat="47.20986" lon="5.93138">
        <ele>298.6</ele>
        <time>2024-08-03T10:48:02Z</time>
      </trkpt>
      <trkpt lat="47.20987" lon="5.93145">
        <ele>299</ele>
        <time>2024-08-03T10:48:03Z</time>
      </trkpt>
      <trkpt lat="47.20986" lon="5.93153">
        <ele>299</ele>
        <time>2024-08-03T10:48:04Z</time>
      </trkpt>
      <trkpt lat="47.20984" lon="5.9316">
        <ele>299.2</ele>
        <time>2024-08-03T10:48:05Z</time>
      </trkpt>
      <trkpt lat="47.20983" lon="5.93167">
        <ele>299.4</ele>
        <time>2024-08-03T10:48:06Z</time>
      </trkpt>
      <trkpt lat="47.20981" lon="5.93173">
        <ele>299.6</ele>
        <time>2024-08-03T10:48:07Z</time>
      </trkpt>
      <trkpt lat="47.20981" lon="5.9318">
        <ele>299.8</ele>
        <time>2024-08-03T10:48:08Z</time>
      </trkpt>
      <trkpt lat="47.2098" lon="5.93186">
        <ele>300</ele>
        <time>2024-08-03T10:48:09Z</time>
      </trkpt>
      <trkpt lat="47.20979" lon="5.93192">
        <ele>300</ele>
        <time>2024-08-03T10:48:10Z</time>
      </trkpt>
      <trkpt lat="47.20978" lon="5.93198">
        <ele>300.2</ele>
        <time>2024-08-03T10:48:11Z</time>
      </trkpt>
      <trkpt lat="47.20977" lon="5.93203">
        <ele>300.2</ele>
        <time>2024-08-03T10:48:12Z</time>
      </trkpt>
      <trkpt lat="47.20976" lon="5.93209">
        <ele>300.2</ele>
        <time>2024-08-03T10:48:13Z</time>
      </trkpt>
      <trkpt lat="47.20976" lon="5.93214">
        <ele>300.6</ele>
        <time>2024-08-03T10:48:14Z</time>
      </trkpt>
      <trkpt lat="47.20976" lon="5.93219">
        <ele>300.8</ele>
        <time>2024-08-03T10:48:15Z</time>
      </trkpt>
      <trkpt lat="47.20976" lon="5.93223">
        <ele>301</ele>
        <time>2024-08-03T10:48:16Z</time>
      </trkpt>
      <trkpt lat="47.20976" lon="5.93228">
        <ele>301.2</ele>
        <time>2024-08-03T10:48:17Z</time>
      </trkpt>
      <trkpt lat="47.20977" lon="5.93232">
        <ele>301.4</ele>
        <time>2024-08-03T10:48:18Z</time>
      </trkpt>
      <trkpt lat="47.20978" lon="5.93237">
        <ele>301.8</ele>
        <time>2024-08-03T10:48:19Z</time>
      </trkpt>
      <trkpt lat="47.20979" lon="5.93242">
        <ele>302.2</ele>
        <time>2024-08-03T10:48:20Z</time>
      </trkpt>
      <trkpt lat="47.2098" lon="5.93245">
        <ele>302.4</ele>
        <time>2024-08-03T10:48:21Z</time>
      </trkpt>
      <trkpt lat="47.2098" lon="5.93248">
        <ele>302.8</ele>
        <time>2024-08-03T10:48:22Z</time>
      </trkpt>
      <trkpt lat="47.20979" lon="5.9325">
        <ele>302.8</ele>
        <time>2024-08-03T10:48:23Z</time>
      </trkpt>
      <trkpt lat="47.20979" lon="5.93253">
        <ele>303</ele>
        <time>2024-08-03T10:48:24Z</time>
      </trkpt>
      <trkpt lat="47.20978" lon="5.93256">
        <ele>303.2</ele>
        <time>2024-08-03T10:48:25Z</time>
      </trkpt>
      <trkpt lat="47.20977" lon="5.9326">
        <ele>303.4</ele>
        <time>2024-08-03T10:48:26Z</time>
      </trkpt>
      <trkpt lat="47.20976" lon="5.93264">
        <ele>303.4</ele>
        <time>2024-08-03T10:48:27Z</time>
      </trkpt>
      <trkpt lat="47.20975" lon="5.93269">
        <ele>303.4</ele>
        <time>2024-08-03T10:48:28Z</time>
      </trkpt>
      <trkpt lat="47.20973" lon="5.93272">
        <ele>303.4</ele>
        <time>2024-08-03T10:48:29Z</time>
      </trkpt>
      <trkpt lat="47.20972" lon="5.93276">
        <ele>303.6</ele>
        <time>2024-08-03T10:48:30Z</time>
      </trkpt>
      <trkpt lat="47.20971" lon="5.9328">
        <ele>303.6</ele>
        <time>2024-08-03T10:48:31Z</time>
      </trkpt>
      <trkpt lat="47.20971" lon="5.93284">
        <ele>303.6</ele>
        <time>2024-08-03T10:48:32Z</time>
      </trkpt>
      <trkpt lat="47.2097" lon="5.93289">
        <ele>303.6</ele>
        <time>2024-08-03T10:48:33Z</time>
      </trkpt>
      <trkpt lat="47.2097" lon="5.93294">
        <ele>303.6</ele>
        <time>2024-08-03T10:48:34Z</time>
      </trkpt>
      <trkpt lat="47.20969" lon="5.933">
        <ele>303.6</ele>
        <time>2024-08-03T10:48:35Z</time>
      </trkpt>
      <trkpt lat="47.20969" lon="5.93306">
        <ele>303.6</ele>
        <time>2024-08-03T10:48:36Z</time>
      </trkpt>
      <trkpt lat="47.20969" lon="5.93312">
        <ele>303.6</ele>
        <time>2024-08-03T10:48:37Z</time>
      </trkpt>
      <trkpt lat="47.20968" lon="5.93319">
        <ele>303.6</ele>
        <time>2024-08-03T10:48:38Z</time>
      </trkpt>
      <trkpt lat="47.20968" lon="5.93326">
        <ele>303.6</ele>
        <time>2024-08-03T10:48:39Z</time>
      </trkpt>
      <trkpt lat="47.20968" lon="5.93334">
        <ele>303.6</ele>
        <time>2024-08-03T10:48:40Z</time>
      </trkpt>
      <trkpt lat="47.20968" lon="5.93341">
        <ele>303.6</ele>
        <time>2024-08-03T10:48:41Z</time>
      </trkpt>
      <trkpt lat="47.20968" lon="5.93348">
        <ele>303.4</ele>
        <time>2024-08-03T10:48:42Z</time>
      </trkpt>
      <trkpt lat="47.20966" lon="5.93355">
        <ele>303.6</ele>
        <time>2024-08-03T10:48:43Z</time>
      </trkpt>
      <trkpt lat="47.20964" lon="5.93361">
        <ele>303.4</ele>
        <time>2024-08-03T10:48:44Z</time>
      </trkpt>
      <trkpt lat="47.20961" lon="5.93367">
        <ele>303.2</ele>
        <time>2024-08-03T10:48:45Z</time>
      </trkpt>
      <trkpt lat="47.20959" lon="5.93373">
        <ele>303</ele>
        <time>2024-08-03T10:48:46Z</time>
      </trkpt>
      <trkpt lat="47.20957" lon="5.93378">
        <ele>302.8</ele>
        <time>2024-08-03T10:48:47Z</time>
      </trkpt>
      <trkpt lat="47.20955" lon="5.93383">
        <ele>302.6</ele>
        <time>2024-08-03T10:48:48Z</time>
      </trkpt>
      <trkpt lat="47.20953" lon="5.93387">
        <ele>302</ele>
        <time>2024-08-03T10:48:49Z</time>
      </trkpt>
      <trkpt lat="47.20952" lon="5.93392">
        <ele>301.8</ele>
        <time>2024-08-03T10:48:50Z</time>
      </trkpt>
      <trkpt lat="47.2095" lon="5.93396">
        <ele>301.6</ele>
        <time>2024-08-03T10:48:51Z</time>
      </trkpt>
      <trkpt lat="47.20949" lon="5.93399">
        <ele>301.2</ele>
        <time>2024-08-03T10:48:52Z</time>
      </trkpt>
      <trkpt lat="47.20948" lon="5.93401">
        <ele>300.8</ele>
        <time>2024-08-03T10:48:53Z</time>
      </trkpt>
      <trkpt lat="47.20948" lon="5.93403">
        <ele>300.8</ele>
        <time>2024-08-03T10:48:54Z</time>
      </trkpt>
      <trkpt lat="47.20946" lon="5.93405">
        <ele>300.6</ele>
        <time>2024-08-03T10:48:55Z</time>
      </trkpt>
      <trkpt lat="47.20946" lon="5.93406">
        <ele>300</ele>
        <time>2024-08-03T10:48:56Z</time>
      </trkpt>
      <trkpt lat="47.20946" lon="5.93406">
        <ele>299.8</ele>
        <time>2024-08-03T10:48:57Z</time>
      </trkpt>
      <trkpt lat="47.20946" lon="5.93407">
        <ele>299.8</ele>
        <time>2024-08-03T10:48:58Z</time>
      </trkpt>
      <trkpt lat="47.20946" lon="5.93408">
        <ele>299.6</ele>
        <time>2024-08-03T10:48:59Z</time>
      </trkpt>
      <trkpt lat="47.20945" lon="5.93409">
        <ele>299.4</ele>
        <time>2024-08-03T10:49:00Z</time>
      </trkpt>
      <trkpt lat="47.20945" lon="5.93411">
        <ele>299.2</ele>
        <time>2024-08-03T10:49:01Z</time>
      </trkpt>
      <trkpt lat="47.20945" lon="5.93413">
        <ele>299.2</ele>
        <time>2024-08-03T10:49:02Z</time>
      </trkpt>
      <trkpt lat="47.20944" lon="5.93417">
        <ele>299.2</ele>
        <time>2024-08-03T10:49:03Z</time>
      </trkpt>
      <trkpt lat="47.20943" lon="5.9342">
        <ele>299</ele>
        <time>2024-08-03T10:49:04Z</time>
      </trkpt>
      <trkpt lat="47.20942" lon="5.93423">
        <ele>299</ele>
        <time>2024-08-03T10:49:05Z</time>
      </trkpt>
      <trkpt lat="47.20941" lon="5.93426">
        <ele>299</ele>
        <time>2024-08-03T10:49:06Z</time>
      </trkpt>
      <trkpt lat="47.20939" lon="5.9343">
        <ele>298.6</ele>
        <time>2024-08-03T10:49:07Z</time>
      </trkpt>
      <trkpt lat="47.20937" lon="5.93433">
        <ele>298.6</ele>
        <time>2024-08-03T10:49:08Z</time>
      </trkpt>
      <trkpt lat="47.20934" lon="5.93436">
        <ele>298.6</ele>
        <time>2024-08-03T10:49:09Z</time>
      </trkpt>
      <trkpt lat="47.20932" lon="5.9344">
        <ele>298.6</ele>
        <time>2024-08-03T10:49:10Z</time>
      </trkpt>
      <trkpt lat="47.2093" lon="5.93442">
        <ele>298.6</ele>
        <time>2024-08-03T10:49:11Z</time>
      </trkpt>
      <trkpt lat="47.20929" lon="5.93445">
        <ele>298.4</ele>
        <time>2024-08-03T10:49:12Z</time>
      </trkpt>
      <trkpt lat="47.20929" lon="5.93447">
        <ele>298.4</ele>
        <time>2024-08-03T10:49:13Z</time>
      </trkpt>
      <trkpt lat="47.2093" lon="5.9345">
        <ele>298</ele>
        <time>2024-08-03T10:49:14Z</time>
      </trkpt>
      <trkpt lat="47.20931" lon="5.93453">
        <ele>298</ele>
        <time>2024-08-03T10:49:15Z</time>
      </trkpt>
      <trkpt lat="47.20931" lon="5.93458">
        <ele>298</ele>
        <time>2024-08-03T10:49:16Z</time>
      </trkpt>
      <trkpt lat="47.20931" lon="5.93464">
        <ele>297.8</ele>
        <time>2024-08-03T10:49:17Z</time>
      </trkpt>
      <trkpt lat="47.20932" lon="5.9347">
        <ele>297.6</ele>
        <time>2024-08-03T10:49:18Z</time>
      </trkpt>
      <trkpt lat="47.20932" lon="5.93476">
        <ele>297.2</ele>
        <time>2024-08-03T10:49:19Z</time>
      </trkpt>
      <trkpt lat="47.20933" lon="5.93481">
        <ele>297</ele>
        <time>2024-08-03T10:49:20Z</time>
      </trkpt>
      <trkpt lat="47.20934" lon="5.93485">
        <ele>296.8</ele>
        <time>2024-08-03T10:49:21Z</time>
      </trkpt>
      <trkpt lat="47.20934" lon="5.93491">
        <ele>296.6</ele>
        <time>2024-08-03T10:49:22Z</time>
      </trkpt>
      <trkpt lat="47.20934" lon="5.93497">
        <ele>296.6</ele>
        <time>2024-08-03T10:49:23Z</time>
      </trkpt>
      <trkpt lat="47.20935" lon="5.93502">
        <ele>296.6</ele>
        <time>2024-08-03T10:49:24Z</time>
      </trkpt>
      <trkpt lat="47.20934" lon="5.93507">
        <ele>296.2</ele>
        <time>2024-08-03T10:49:25Z</time>
      </trkpt>
      <trkpt lat="47.20935" lon="5.93514">
        <ele>296.2</ele>
        <time>2024-08-03T10:49:26Z</time>
      </trkpt>
      <trkpt lat="47.20935" lon="5.93521">
        <ele>296</ele>
        <time>2024-08-03T10:49:27Z</time>
      </trkpt>
      <trkpt lat="47.20935" lon="5.93528">
        <ele>296</ele>
        <time>2024-08-03T10:49:28Z</time>
      </trkpt>
      <trkpt lat="47.20937" lon="5.93538">
        <ele>295.8</ele>
        <time>2024-08-03T10:49:29Z</time>
      </trkpt>
      <trkpt lat="47.20938" lon="5.93548">
        <ele>295.6</ele>
        <time>2024-08-03T10:49:30Z</time>
      </trkpt>
      <trkpt lat="47.2094" lon="5.93559">
        <ele>295.6</ele>
        <time>2024-08-03T10:49:31Z</time>
      </trkpt>
      <trkpt lat="47.20942" lon="5.93568">
        <ele>295.6</ele>
        <time>2024-08-03T10:49:32Z</time>
      </trkpt>
      <trkpt lat="47.20944" lon="5.93577">
        <ele>295.4</ele>
        <time>2024-08-03T10:49:33Z</time>
      </trkpt>
      <trkpt lat="47.20947" lon="5.93586">
        <ele>295.2</ele>
        <time>2024-08-03T10:49:34Z</time>
      </trkpt>
      <trkpt lat="47.20951" lon="5.93593">
        <ele>294.8</ele>
        <time>2024-08-03T10:49:35Z</time>
      </trkpt>
      <trkpt lat="47.20953" lon="5.93597">
        <ele>294.6</ele>
        <time>2024-08-03T10:49:36Z</time>
      </trkpt>
      <trkpt lat="47.20956" lon="5.93603">
        <ele>294.6</ele>
        <time>2024-08-03T10:49:37Z</time>
      </trkpt>
      <trkpt lat="47.20957" lon="5.9361">
        <ele>294.2</ele>
        <time>2024-08-03T10:49:38Z</time>
      </trkpt>
      <trkpt lat="47.20958" lon="5.93616">
        <ele>294.2</ele>
        <time>2024-08-03T10:49:39Z</time>
      </trkpt>
      <trkpt lat="47.20959" lon="5.93622">
        <ele>294</ele>
        <time>2024-08-03T10:49:40Z</time>
      </trkpt>
      <trkpt lat="47.2096" lon="5.93628">
        <ele>293.4</ele>
        <time>2024-08-03T10:49:41Z</time>
      </trkpt>
      <trkpt lat="47.2096" lon="5.93634">
        <ele>293.2</ele>
        <time>2024-08-03T10:49:42Z</time>
      </trkpt>
      <trkpt lat="47.2096" lon="5.9364">
        <ele>293</ele>
        <time>2024-08-03T10:49:43Z</time>
      </trkpt>
      <trkpt lat="47.20959" lon="5.93646">
        <ele>292.8</ele>
        <time>2024-08-03T10:49:44Z</time>
      </trkpt>
      <trkpt lat="47.20958" lon="5.93652">
        <ele>292.8</ele>
        <time>2024-08-03T10:49:45Z</time>
      </trkpt>
      <trkpt lat="47.20957" lon="5.93658">
        <ele>292.6</ele>
        <time>2024-08-03T10:49:46Z</time>
      </trkpt>
      <trkpt lat="47.20955" lon="5.93664">
        <ele>292.4</ele>
        <time>2024-08-03T10:49:47Z</time>
      </trkpt>
      <trkpt lat="47.20954" lon="5.93671">
        <ele>292.2</ele>
        <time>2024-08-03T10:49:48Z</time>
      </trkpt>
      <trkpt lat="47.20952" lon="5.93676">
        <ele>292.2</ele>
        <time>2024-08-03T10:49:49Z</time>
      </trkpt>
      <trkpt lat="47.20951" lon="5.93682">
        <ele>292.2</ele>
        <time>2024-08-03T10:49:50Z</time>
      </trkpt>
      <trkpt lat="47.20949" lon="5.93686">
        <ele>292</ele>
        <time>2024-08-03T10:49:51Z</time>
      </trkpt>
      <trkpt lat="47.20948" lon="5.93691">
        <ele>291.8</ele>
        <time>2024-08-03T10:49:52Z</time>
      </trkpt>
      <trkpt lat="47.20946" lon="5.93696">
        <ele>291.8</ele>
        <time>2024-08-03T10:49:53Z</time>
      </trkpt>
      <trkpt lat="47.20945" lon="5.937">
        <ele>291.8</ele>
        <time>2024-08-03T10:49:54Z</time>
      </trkpt>
      <trkpt lat="47.20943" lon="5.93705">
        <ele>291.8</ele>
        <time>2024-08-03T10:49:55Z</time>
      </trkpt>
      <trkpt lat="47.20941" lon="5.9371">
        <ele>291.8</ele>
        <time>2024-08-03T10:49:56Z</time>
      </trkpt>
      <trkpt lat="47.20939" lon="5.93717">
        <ele>292</ele>
        <time>2024-08-03T10:49:57Z</time>
      </trkpt>
      <trkpt lat="47.20937" lon="5.93722">
        <ele>291.8</ele>
        <time>2024-08-03T10:49:58Z</time>
      </trkpt>
      <trkpt lat="47.20934" lon="5.93728">
        <ele>291.8</ele>
        <time>2024-08-03T10:49:59Z</time>
      </trkpt>
      <trkpt lat="47.20932" lon="5.93734">
        <ele>292</ele>
        <time>2024-08-03T10:50:00Z</time>
      </trkpt>
      <trkpt lat="47.20929" lon="5.93741">
        <ele>292</ele>
        <time>2024-08-03T10:50:01Z</time>
      </trkpt>
      <trkpt lat="47.20927" lon="5.93748">
        <ele>292</ele>
        <time>2024-08-03T10:50:02Z</time>
      </trkpt>
      <trkpt lat="47.20925" lon="5.93755">
        <ele>292</ele>
        <time>2024-08-03T10:50:03Z</time>
      </trkpt>
      <trkpt lat="47.20925" lon="5.93763">
        <ele>292</ele>
        <time>2024-08-03T10:50:04Z</time>
      </trkpt>
      <trkpt lat="47.20923" lon="5.9377">
        <ele>292.2</ele>
        <time>2024-08-03T10:50:05Z</time>
      </trkpt>
      <trkpt lat="47.20921" lon="5.93777">
        <ele>292</ele>
        <time>2024-08-03T10:50:06Z</time>
      </trkpt>
      <trkpt lat="47.20919" lon="5.93785">
        <ele>292</ele>
        <time>2024-08-03T10:50:07Z</time>
      </trkpt>
      <trkpt lat="47.20918" lon="5.93792">
        <ele>292.2</ele>
        <time>2024-08-03T10:50:08Z</time>
      </trkpt>
      <trkpt lat="47.20915" lon="5.938">
        <ele>292.2</ele>
        <time>2024-08-03T10:50:09Z</time>
      </trkpt>
      <trkpt lat="47.20912" lon="5.93807">
        <ele>292</ele>
        <time>2024-08-03T10:50:10Z</time>
      </trkpt>
      <trkpt lat="47.20908" lon="5.93815">
        <ele>292</ele>
        <time>2024-08-03T10:50:11Z</time>
      </trkpt>
      <trkpt lat="47.20905" lon="5.93822">
        <ele>292</ele>
        <time>2024-08-03T10:50:12Z</time>
      </trkpt>
      <trkpt lat="47.20901" lon="5.9383">
        <ele>291.8</ele>
        <time>2024-08-03T10:50:13Z</time>
      </trkpt>
      <trkpt lat="47.20898" lon="5.93838">
        <ele>291.8</ele>
        <time>2024-08-03T10:50:14Z</time>
      </trkpt>
      <trkpt lat="47.20896" lon="5.93846">
        <ele>291.4</ele>
        <time>2024-08-03T10:50:15Z</time>
      </trkpt>
      <trkpt lat="47.20894" lon="5.93853">
        <ele>291.2</ele>
        <time>2024-08-03T10:50:16Z</time>
      </trkpt>
      <trkpt lat="47.20892" lon="5.93861">
        <ele>291</ele>
        <time>2024-08-03T10:50:17Z</time>
      </trkpt>
      <trkpt lat="47.2089" lon="5.93868">
        <ele>290.8</ele>
        <time>2024-08-03T10:50:18Z</time>
      </trkpt>
      <trkpt lat="47.20888" lon="5.93876">
        <ele>290.6</ele>
        <time>2024-08-03T10:50:19Z</time>
      </trkpt>
      <trkpt lat="47.20886" lon="5.93881">
        <ele>290.6</ele>
        <time>2024-08-03T10:50:20Z</time>
      </trkpt>
      <trkpt lat="47.20884" lon="5.93886">
        <ele>290.6</ele>
        <time>2024-08-03T10:50:21Z</time>
      </trkpt>
      <trkpt lat="47.20882" lon="5.93891">
        <ele>290.6</ele>
        <time>2024-08-03T10:50:22Z</time>
      </trkpt>
      <trkpt lat="47.20881" lon="5.93896">
        <ele>290.6</ele>
        <time>2024-08-03T10:50:23Z</time>
      </trkpt>
      <trkpt lat="47.2088" lon="5.939">
        <ele>290.4</ele>
        <time>2024-08-03T10:50:24Z</time>
      </trkpt>
      <trkpt lat="47.20879" lon="5.93905">
        <ele>290.4</ele>
        <time>2024-08-03T10:50:25Z</time>
      </trkpt>
      <trkpt lat="47.20877" lon="5.9391">
        <ele>290.4</ele>
        <time>2024-08-03T10:50:26Z</time>
      </trkpt>
      <trkpt lat="47.20875" lon="5.93915">
        <ele>290.4</ele>
        <time>2024-08-03T10:50:27Z</time>
      </trkpt>
      <trkpt lat="47.20873" lon="5.93919">
        <ele>290.4</ele>
        <time>2024-08-03T10:50:28Z</time>
      </trkpt>
      <trkpt lat="47.20871" lon="5.93924">
        <ele>290.4</ele>
        <time>2024-08-03T10:50:29Z</time>
      </trkpt>
      <trkpt lat="47.20869" lon="5.93929">
        <ele>290.6</ele>
        <time>2024-08-03T10:50:30Z</time>
      </trkpt>
      <trkpt lat="47.20867" lon="5.93933">
        <ele>290.6</ele>
        <time>2024-08-03T10:50:31Z</time>
      </trkpt>
      <trkpt lat="47.20865" lon="5.93938">
        <ele>290.4</ele>
        <time>2024-08-03T10:50:32Z</time>
      </trkpt>
      <trkpt lat="47.20863" lon="5.93943">
        <ele>290.4</ele>
        <time>2024-08-03T10:50:33Z</time>
      </trkpt>
      <trkpt lat="47.20862" lon="5.93947">
        <ele>290.4</ele>
        <time>2024-08-03T10:50:34Z</time>
      </trkpt>
      <trkpt lat="47.2086" lon="5.93953">
        <ele>290.2</ele>
        <time>2024-08-03T10:50:35Z</time>
      </trkpt>
      <trkpt lat="47.20859" lon="5.93958">
        <ele>290.4</ele>
        <time>2024-08-03T10:50:36Z</time>
      </trkpt>
      <trkpt lat="47.20857" lon="5.93963">
        <ele>290.4</ele>
        <time>2024-08-03T10:50:37Z</time>
      </trkpt>
      <trkpt lat="47.20855" lon="5.93969">
        <ele>290.4</ele>
        <time>2024-08-03T10:50:38Z</time>
      </trkpt>
      <trkpt lat="47.20853" lon="5.93975">
        <ele>290.4</ele>
        <time>2024-08-03T10:50:39Z</time>
      </trkpt>
      <trkpt lat="47.20852" lon="5.93981">
        <ele>290.4</ele>
        <time>2024-08-03T10:50:40Z</time>
      </trkpt>
      <trkpt lat="47.2085" lon="5.93987">
        <ele>290.4</ele>
        <time>2024-08-03T10:50:41Z</time>
      </trkpt>
      <trkpt lat="47.20848" lon="5.93992">
        <ele>290.2</ele>
        <time>2024-08-03T10:50:42Z</time>
      </trkpt>
      <trkpt lat="47.20846" lon="5.93999">
        <ele>290.2</ele>
        <time>2024-08-03T10:50:43Z</time>
      </trkpt>
      <trkpt lat="47.20844" lon="5.94006">
        <ele>290.4</ele>
        <time>2024-08-03T10:50:44Z</time>
      </trkpt>
      <trkpt lat="47.20842" lon="5.94013">
        <ele>290</ele>
        <time>2024-08-03T10:50:45Z</time>
      </trkpt>
      <trkpt lat="47.2084" lon="5.94018">
        <ele>290</ele>
        <time>2024-08-03T10:50:46Z</time>
      </trkpt>
      <trkpt lat="47.20838" lon="5.94023">
        <ele>289.6</ele>
        <time>2024-08-03T10:50:47Z</time>
      </trkpt>
      <trkpt lat="47.20836" lon="5.94028">
        <ele>289.8</ele>
        <time>2024-08-03T10:50:48Z</time>
      </trkpt>
      <trkpt lat="47.20833" lon="5.94032">
        <ele>289.4</ele>
        <time>2024-08-03T10:50:49Z</time>
      </trkpt>
      <trkpt lat="47.20831" lon="5.94036">
        <ele>289.2</ele>
        <time>2024-08-03T10:50:50Z</time>
      </trkpt>
      <trkpt lat="47.20828" lon="5.94041">
        <ele>289.2</ele>
        <time>2024-08-03T10:50:51Z</time>
      </trkpt>
      <trkpt lat="47.20825" lon="5.94046">
        <ele>289</ele>
        <time>2024-08-03T10:50:52Z</time>
      </trkpt>
      <trkpt lat="47.20822" lon="5.94051">
        <ele>288.8</ele>
        <time>2024-08-03T10:50:53Z</time>
      </trkpt>
      <trkpt lat="47.2082" lon="5.94055">
        <ele>289</ele>
        <time>2024-08-03T10:50:54Z</time>
      </trkpt>
      <trkpt lat="47.20816" lon="5.9406">
        <ele>288.8</ele>
        <time>2024-08-03T10:50:55Z</time>
      </trkpt>
      <trkpt lat="47.20813" lon="5.94065">
        <ele>288.6</ele>
        <time>2024-08-03T10:50:56Z</time>
      </trkpt>
      <trkpt lat="47.20809" lon="5.94071">
        <ele>288.6</ele>
        <time>2024-08-03T10:50:57Z</time>
      </trkpt>
      <trkpt lat="47.20805" lon="5.94078">
        <ele>288.6</ele>
        <time>2024-08-03T10:50:58Z</time>
      </trkpt>
      <trkpt lat="47.20801" lon="5.94085">
        <ele>288.6</ele>
        <time>2024-08-03T10:50:59Z</time>
      </trkpt>
      <trkpt lat="47.20798" lon="5.94089">
        <ele>288.4</ele>
        <time>2024-08-03T10:51:00Z</time>
      </trkpt>
      <trkpt lat="47.20795" lon="5.94094">
        <ele>288.6</ele>
        <time>2024-08-03T10:51:01Z</time>
      </trkpt>
      <trkpt lat="47.20792" lon="5.94098">
        <ele>288.4</ele>
        <time>2024-08-03T10:51:02Z</time>
      </trkpt>
      <trkpt lat="47.20789" lon="5.94102">
        <ele>288.4</ele>
        <time>2024-08-03T10:51:03Z</time>
      </trkpt>
      <trkpt lat="47.20786" lon="5.94105">
        <ele>288.2</ele>
        <time>2024-08-03T10:51:04Z</time>
      </trkpt>
      <trkpt lat="47.20783" lon="5.94109">
        <ele>288.2</ele>
        <time>2024-08-03T10:51:05Z</time>
      </trkpt>
      <trkpt lat="47.20781" lon="5.94112">
        <ele>288.2</ele>
        <time>2024-08-03T10:51:06Z</time>
      </trkpt>
      <trkpt lat="47.20779" lon="5.94117">
        <ele>288.2</ele>
        <time>2024-08-03T10:51:07Z</time>
      </trkpt>
      <trkpt lat="47.20776" lon="5.94122">
        <ele>288.2</ele>
        <time>2024-08-03T10:51:08Z</time>
      </trkpt>
      <trkpt lat="47.20774" lon="5.94127">
        <ele>288.2</ele>
        <time>2024-08-03T10:51:09Z</time>
      </trkpt>
      <trkpt lat="47.20772" lon="5.94131">
        <ele>288.2</ele>
        <time>2024-08-03T10:51:10Z</time>
      </trkpt>
      <trkpt lat="47.2077" lon="5.94134">
        <ele>288.2</ele>
        <time>2024-08-03T10:51:11Z</time>
      </trkpt>
      <trkpt lat="47.20768" lon="5.94136">
        <ele>288.2</ele>
        <time>2024-08-03T10:51:12Z</time>
      </trkpt>
      <trkpt lat="47.20765" lon="5.94138">
        <ele>288.2</ele>
        <time>2024-08-03T10:51:13Z</time>
      </trkpt>
      <trkpt lat="47.20761" lon="5.9414">
        <ele>288.2</ele>
        <time>2024-08-03T10:51:14Z</time>
      </trkpt>
      <trkpt lat="47.20758" lon="5.9414">
        <ele>288.2</ele>
        <time>2024-08-03T10:51:15Z</time>
      </trkpt>
      <trkpt lat="47.20755" lon="5.94141">
        <ele>288.2</ele>
        <time>2024-08-03T10:51:16Z</time>
      </trkpt>
      <trkpt lat="47.20752" lon="5.94144">
        <ele>288.4</ele>
        <time>2024-08-03T10:51:17Z</time>
      </trkpt>
      <trkpt lat="47.20749" lon="5.94146">
        <ele>288.6</ele>
        <time>2024-08-03T10:51:18Z</time>
      </trkpt>
      <trkpt lat="47.20746" lon="5.94148">
        <ele>288.4</ele>
        <time>2024-08-03T10:51:19Z</time>
      </trkpt>
      <trkpt lat="47.20742" lon="5.9415">
        <ele>288.6</ele>
        <time>2024-08-03T10:51:20Z</time>
      </trkpt>
      <trkpt lat="47.20738" lon="5.94154">
        <ele>288.8</ele>
        <time>2024-08-03T10:51:21Z</time>
      </trkpt>
      <trkpt lat="47.20734" lon="5.94158">
        <ele>289</ele>
        <time>2024-08-03T10:51:22Z</time>
      </trkpt>
      <trkpt lat="47.2073" lon="5.94161">
        <ele>289</ele>
        <time>2024-08-03T10:51:23Z</time>
      </trkpt>
      <trkpt lat="47.20727" lon="5.94164">
        <ele>289</ele>
        <time>2024-08-03T10:51:24Z</time>
      </trkpt>
      <trkpt lat="47.20723" lon="5.94167">
        <ele>289</ele>
        <time>2024-08-03T10:51:25Z</time>
      </trkpt>
      <trkpt lat="47.20719" lon="5.94168">
        <ele>289</ele>
        <time>2024-08-03T10:51:26Z</time>
      </trkpt>
      <trkpt lat="47.20717" lon="5.94169">
        <ele>289</ele>
        <time>2024-08-03T10:51:27Z</time>
      </trkpt>
      <trkpt lat="47.20714" lon="5.94171">
        <ele>289.2</ele>
        <time>2024-08-03T10:51:28Z</time>
      </trkpt>
      <trkpt lat="47.20712" lon="5.94173">
        <ele>289.2</ele>
        <time>2024-08-03T10:51:29Z</time>
      </trkpt>
      <trkpt lat="47.2071" lon="5.94175">
        <ele>289.2</ele>
        <time>2024-08-03T10:51:30Z</time>
      </trkpt>
      <trkpt lat="47.20708" lon="5.94178">
        <ele>289.4</ele>
        <time>2024-08-03T10:51:31Z</time>
      </trkpt>
      <trkpt lat="47.20707" lon="5.94179">
        <ele>290</ele>
        <time>2024-08-03T10:51:32Z</time>
      </trkpt>
      <trkpt lat="47.20705" lon="5.94181">
        <ele>290.4</ele>
        <time>2024-08-03T10:51:33Z</time>
      </trkpt>
      <trkpt lat="47.20702" lon="5.94182">
        <ele>290.8</ele>
        <time>2024-08-03T10:51:34Z</time>
      </trkpt>
      <trkpt lat="47.207" lon="5.94184">
        <ele>291</ele>
        <time>2024-08-03T10:51:35Z</time>
      </trkpt>
      <trkpt lat="47.20698" lon="5.94185">
        <ele>291</ele>
        <time>2024-08-03T10:51:36Z</time>
      </trkpt>
      <trkpt lat="47.20696" lon="5.94186">
        <ele>291.4</ele>
        <time>2024-08-03T10:51:37Z</time>
      </trkpt>
      <trkpt lat="47.20693" lon="5.94188">
        <ele>291.8</ele>
        <time>2024-08-03T10:51:38Z</time>
      </trkpt>
      <trkpt lat="47.20691" lon="5.94191">
        <ele>292.2</ele>
        <time>2024-08-03T10:51:39Z</time>
      </trkpt>
      <trkpt lat="47.20689" lon="5.94195">
        <ele>292.4</ele>
        <time>2024-08-03T10:51:40Z</time>
      </trkpt>
      <trkpt lat="47.20687" lon="5.94199">
        <ele>292.4</ele>
        <time>2024-08-03T10:51:41Z</time>
      </trkpt>
      <trkpt lat="47.20685" lon="5.94202">
        <ele>292.4</ele>
        <time>2024-08-03T10:51:42Z</time>
      </trkpt>
      <trkpt lat="47.20683" lon="5.94205">
        <ele>292.4</ele>
        <time>2024-08-03T10:51:43Z</time>
      </trkpt>
      <trkpt lat="47.20682" lon="5.94207">
        <ele>292.6</ele>
        <time>2024-08-03T10:51:44Z</time>
      </trkpt>
      <trkpt lat="47.2068" lon="5.94211">
        <ele>292.8</ele>
        <time>2024-08-03T10:51:45Z</time>
      </trkpt>
      <trkpt lat="47.20679" lon="5.94214">
        <ele>293</ele>
        <time>2024-08-03T10:51:46Z</time>
      </trkpt>
      <trkpt lat="47.20678" lon="5.94217">
        <ele>293</ele>
        <time>2024-08-03T10:51:47Z</time>
      </trkpt>
      <trkpt lat="47.20677" lon="5.9422">
        <ele>293</ele>
        <time>2024-08-03T10:51:48Z</time>
      </trkpt>
      <trkpt lat="47.20676" lon="5.94225">
        <ele>293</ele>
        <time>2024-08-03T10:51:49Z</time>
      </trkpt>
      <trkpt lat="47.20675" lon="5.9423">
        <ele>293</ele>
        <time>2024-08-03T10:51:50Z</time>
      </trkpt>
      <trkpt lat="47.20673" lon="5.94234">
        <ele>293.2</ele>
        <time>2024-08-03T10:51:51Z</time>
      </trkpt>
      <trkpt lat="47.20672" lon="5.94241">
        <ele>293</ele>
        <time>2024-08-03T10:51:52Z</time>
      </trkpt>
      <trkpt lat="47.20671" lon="5.94247">
        <ele>293</ele>
        <time>2024-08-03T10:51:53Z</time>
      </trkpt>
      <trkpt lat="47.20669" lon="5.94254">
        <ele>293.2</ele>
        <time>2024-08-03T10:51:54Z</time>
      </trkpt>
      <trkpt lat="47.20668" lon="5.94261">
        <ele>293.2</ele>
        <time>2024-08-03T10:51:55Z</time>
      </trkpt>
      <trkpt lat="47.20667" lon="5.94267">
        <ele>293</ele>
        <time>2024-08-03T10:51:56Z</time>
      </trkpt>
      <trkpt lat="47.20666" lon="5.94273">
        <ele>292.8</ele>
        <time>2024-08-03T10:51:57Z</time>
      </trkpt>
      <trkpt lat="47.20665" lon="5.94278">
        <ele>292.8</ele>
        <time>2024-08-03T10:51:58Z</time>
      </trkpt>
      <trkpt lat="47.20664" lon="5.94283">
        <ele>292.8</ele>
        <time>2024-08-03T10:51:59Z</time>
      </trkpt>
      <trkpt lat="47.20664" lon="5.9429">
        <ele>292.6</ele>
        <time>2024-08-03T10:52:00Z</time>
      </trkpt>
      <trkpt lat="47.20663" lon="5.94296">
        <ele>292.6</ele>
        <time>2024-08-03T10:52:01Z</time>
      </trkpt>
      <trkpt lat="47.20663" lon="5.943">
        <ele>292.6</ele>
        <time>2024-08-03T10:52:02Z</time>
      </trkpt>
      <trkpt lat="47.20662" lon="5.94306">
        <ele>292.6</ele>
        <time>2024-08-03T10:52:03Z</time>
      </trkpt>
      <trkpt lat="47.20662" lon="5.94311">
        <ele>292.6</ele>
        <time>2024-08-03T10:52:04Z</time>
      </trkpt>
      <trkpt lat="47.20662" lon="5.94316">
        <ele>292.6</ele>
        <time>2024-08-03T10:52:05Z</time>
      </trkpt>
      <trkpt lat="47.20662" lon="5.94322">
        <ele>292.8</ele>
        <time>2024-08-03T10:52:06Z</time>
      </trkpt>
      <trkpt lat="47.20663" lon="5.94326">
        <ele>292.6</ele>
        <time>2024-08-03T10:52:07Z</time>
      </trkpt>
      <trkpt lat="47.20664" lon="5.9433">
        <ele>292.6</ele>
        <time>2024-08-03T10:52:08Z</time>
      </trkpt>
      <trkpt lat="47.20665" lon="5.94335">
        <ele>292.8</ele>
        <time>2024-08-03T10:52:09Z</time>
      </trkpt>
      <trkpt lat="47.20667" lon="5.94339">
        <ele>292.8</ele>
        <time>2024-08-03T10:52:10Z</time>
      </trkpt>
      <trkpt lat="47.20667" lon="5.94343">
        <ele>292.8</ele>
        <time>2024-08-03T10:52:11Z</time>
      </trkpt>
      <trkpt lat="47.20667" lon="5.94347">
        <ele>293</ele>
        <time>2024-08-03T10:52:12Z</time>
      </trkpt>
      <trkpt lat="47.20667" lon="5.94351">
        <ele>293.2</ele>
        <time>2024-08-03T10:52:13Z</time>
      </trkpt>
      <trkpt lat="47.20666" lon="5.94355">
        <ele>293.4</ele>
        <time>2024-08-03T10:52:14Z</time>
      </trkpt>
      <trkpt lat="47.20666" lon="5.94358">
        <ele>293.6</ele>
        <time>2024-08-03T10:52:15Z</time>
      </trkpt>
      <trkpt lat="47.20666" lon="5.94362">
        <ele>293.8</ele>
        <time>2024-08-03T10:52:16Z</time>
      </trkpt>
      <trkpt lat="47.20665" lon="5.94366">
        <ele>293.8</ele>
        <time>2024-08-03T10:52:17Z</time>
      </trkpt>
      <trkpt lat="47.20665" lon="5.94371">
        <ele>294.2</ele>
        <time>2024-08-03T10:52:18Z</time>
      </trkpt>
      <trkpt lat="47.20663" lon="5.94375">
        <ele>294.4</ele>
        <time>2024-08-03T10:52:19Z</time>
      </trkpt>
      <trkpt lat="47.20663" lon="5.94379">
        <ele>294.6</ele>
        <time>2024-08-03T10:52:20Z</time>
      </trkpt>
      <trkpt lat="47.20662" lon="5.94382">
        <ele>294.8</ele>
        <time>2024-08-03T10:52:21Z</time>
      </trkpt>
      <trkpt lat="47.20662" lon="5.94385">
        <ele>295</ele>
        <time>2024-08-03T10:52:22Z</time>
      </trkpt>
      <trkpt lat="47.20661" lon="5.94389">
        <ele>295.2</ele>
        <time>2024-08-03T10:52:23Z</time>
      </trkpt>
      <trkpt lat="47.2066" lon="5.94395">
        <ele>295.6</ele>
        <time>2024-08-03T10:52:24Z</time>
      </trkpt>
      <trkpt lat="47.20659" lon="5.944">
        <ele>295.8</ele>
        <time>2024-08-03T10:52:25Z</time>
      </trkpt>
      <trkpt lat="47.20657" lon="5.94404">
        <ele>296.2</ele>
        <time>2024-08-03T10:52:26Z</time>
      </trkpt>
      <trkpt lat="47.20656" lon="5.94406">
        <ele>296.4</ele>
        <time>2024-08-03T10:52:27Z</time>
      </trkpt>
      <trkpt lat="47.20655" lon="5.94408">
        <ele>296.6</ele>
        <time>2024-08-03T10:52:28Z</time>
      </trkpt>
      <trkpt lat="47.20653" lon="5.94411">
        <ele>297</ele>
        <time>2024-08-03T10:52:29Z</time>
      </trkpt>
      <trkpt lat="47.20653" lon="5.94413">
        <ele>297.2</ele>
        <time>2024-08-03T10:52:30Z</time>
      </trkpt>
      <trkpt lat="47.20652" lon="5.94414">
        <ele>297.6</ele>
        <time>2024-08-03T10:52:31Z</time>
      </trkpt>
      <trkpt lat="47.20651" lon="5.94416">
        <ele>297.6</ele>
        <time>2024-08-03T10:52:32Z</time>
      </trkpt>
      <trkpt lat="47.20649" lon="5.94418">
        <ele>297.6</ele>
        <time>2024-08-03T10:52:33Z</time>
      </trkpt>
      <trkpt lat="47.20648" lon="5.9442">
        <ele>297.8</ele>
        <time>2024-08-03T10:52:34Z</time>
      </trkpt>
      <trkpt lat="47.20647" lon="5.94421">
        <ele>298</ele>
        <time>2024-08-03T10:52:35Z</time>
      </trkpt>
      <trkpt lat="47.20646" lon="5.94422">
        <ele>298.4</ele>
        <time>2024-08-03T10:52:36Z</time>
      </trkpt>
      <trkpt lat="47.20646" lon="5.94423">
        <ele>298.4</ele>
        <time>2024-08-03T10:52:37Z</time>
      </trkpt>
      <trkpt lat="47.20645" lon="5.94424">
        <ele>298.6</ele>
        <time>2024-08-03T10:52:38Z</time>
      </trkpt>
      <trkpt lat="47.20644" lon="5.94425">
        <ele>298.8</ele>
        <time>2024-08-03T10:52:39Z</time>
      </trkpt>
      <trkpt lat="47.20643" lon="5.94428">
        <ele>299</ele>
        <time>2024-08-03T10:52:40Z</time>
      </trkpt>
      <trkpt lat="47.20642" lon="5.9443">
        <ele>299.2</ele>
        <time>2024-08-03T10:52:41Z</time>
      </trkpt>
      <trkpt lat="47.20641" lon="5.94432">
        <ele>299.4</ele>
        <time>2024-08-03T10:52:42Z</time>
      </trkpt>
      <trkpt lat="47.20639" lon="5.94434">
        <ele>299.6</ele>
        <time>2024-08-03T10:52:43Z</time>
      </trkpt>
      <trkpt lat="47.20638" lon="5.94436">
        <ele>299.8</ele>
        <time>2024-08-03T10:52:44Z</time>
      </trkpt>
      <trkpt lat="47.20637" lon="5.94436">
        <ele>300</ele>
        <time>2024-08-03T10:52:45Z</time>
      </trkpt>
      <trkpt lat="47.20636" lon="5.94437">
        <ele>300</ele>
        <time>2024-08-03T10:52:46Z</time>
      </trkpt>
      <trkpt lat="47.20635" lon="5.94436">
        <ele>300.2</ele>
        <time>2024-08-03T10:52:47Z</time>
      </trkpt>
      <trkpt lat="47.20636" lon="5.94436">
        <ele>300.2</ele>
        <time>2024-08-03T10:52:48Z</time>
      </trkpt>
      <trkpt lat="47.20636" lon="5.94435">
        <ele>300.2</ele>
        <time>2024-08-03T10:52:49Z</time>
      </trkpt>
      <trkpt lat="47.20637" lon="5.94435">
        <ele>300.2</ele>
        <time>2024-08-03T10:52:50Z</time>
      </trkpt>
      <trkpt lat="47.20638" lon="5.94436">
        <ele>300.4</ele>
        <time>2024-08-03T10:52:51Z</time>
      </trkpt>
      <trkpt lat="47.20641" lon="5.94438">
        <ele>300.6</ele>
        <time>2024-08-03T10:52:52Z</time>
      </trkpt>
      <trkpt lat="47.20642" lon="5.94439">
        <ele>300.4</ele>
        <time>2024-08-03T10:52:53Z</time>
      </trkpt>
      <trkpt lat="47.20643" lon="5.94441">
        <ele>300.4</ele>
        <time>2024-08-03T10:52:54Z</time>
      </trkpt>
      <trkpt lat="47.20644" lon="5.94442">
        <ele>300.4</ele>
        <time>2024-08-03T10:52:55Z</time>
      </trkpt>
      <trkpt lat="47.20644" lon="5.94443">
        <ele>300.4</ele>
        <time>2024-08-03T10:52:56Z</time>
      </trkpt>
      <trkpt lat="47.20645" lon="5.94445">
        <ele>300.6</ele>
        <time>2024-08-03T10:52:57Z</time>
      </trkpt>
      <trkpt lat="47.20645" lon="5.94447">
        <ele>300.6</ele>
        <time>2024-08-03T10:52:58Z</time>
      </trkpt>
      <trkpt lat="47.20645" lon="5.94449">
        <ele>300.4</ele>
        <time>2024-08-03T10:52:59Z</time>
      </trkpt>
      <trkpt lat="47.20645" lon="5.94451">
        <ele>300.6</ele>
        <time>2024-08-03T10:53:00Z</time>
      </trkpt>
      <trkpt lat="47.20644" lon="5.94452">
        <ele>300.6</ele>
        <time>2024-08-03T10:53:01Z</time>
      </trkpt>
      <trkpt lat="47.20644" lon="5.94453">
        <ele>300.6</ele>
        <time>2024-08-03T10:53:02Z</time>
      </trkpt>
      <trkpt lat="47.20643" lon="5.94454">
        <ele>300.6</ele>
        <time>2024-08-03T10:53:03Z</time>
      </trkpt>
      <trkpt lat="47.20643" lon="5.94455">
        <ele>300.6</ele>
        <time>2024-08-03T10:53:04Z</time>
      </trkpt>
      <trkpt lat="47.20643" lon="5.94457">
        <ele>300.6</ele>
        <time>2024-08-03T10:53:05Z</time>
      </trkpt>
      <trkpt lat="47.20643" lon="5.94459">
        <ele>300.6</ele>
        <time>2024-08-03T10:53:06Z</time>
      </trkpt>
      <trkpt lat="47.20642" lon="5.94461">
        <ele>300.8</ele>
        <time>2024-08-03T10:53:07Z</time>
      </trkpt>
      <trkpt lat="47.20642" lon="5.94463">
        <ele>300.8</ele>
        <time>2024-08-03T10:53:08Z</time>
      </trkpt>
      <trkpt lat="47.20641" lon="5.94465">
        <ele>300.8</ele>
        <time>2024-08-03T10:53:09Z</time>
      </trkpt>
      <trkpt lat="47.20641" lon="5.94469">
        <ele>301</ele>
        <time>2024-08-03T10:53:10Z</time>
      </trkpt>
      <trkpt lat="47.20641" lon="5.94474">
        <ele>301.2</ele>
        <time>2024-08-03T10:53:11Z</time>
      </trkpt>
      <trkpt lat="47.20641" lon="5.94478">
        <ele>301.2</ele>
        <time>2024-08-03T10:53:12Z</time>
      </trkpt>
      <trkpt lat="47.2064" lon="5.94482">
        <ele>301.4</ele>
        <time>2024-08-03T10:53:13Z</time>
      </trkpt>
      <trkpt lat="47.2064" lon="5.94486">
        <ele>301.6</ele>
        <time>2024-08-03T10:53:14Z</time>
      </trkpt>
      <trkpt lat="47.20639" lon="5.94488">
        <ele>301.8</ele>
        <time>2024-08-03T10:53:15Z</time>
      </trkpt>
      <trkpt lat="47.20639" lon="5.94492">
        <ele>301.8</ele>
        <time>2024-08-03T10:53:16Z</time>
      </trkpt>
      <trkpt lat="47.20638" lon="5.94494">
        <ele>302.2</ele>
        <time>2024-08-03T10:53:17Z</time>
      </trkpt>
      <trkpt lat="47.20637" lon="5.94496">
        <ele>302.4</ele>
        <time>2024-08-03T10:53:18Z</time>
      </trkpt>
      <trkpt lat="47.20636" lon="5.94498">
        <ele>302.6</ele>
        <time>2024-08-03T10:53:19Z</time>
      </trkpt>
      <trkpt lat="47.20635" lon="5.945">
        <ele>303</ele>
        <time>2024-08-03T10:53:20Z</time>
      </trkpt>
      <trkpt lat="47.20634" lon="5.94502">
        <ele>303</ele>
        <time>2024-08-03T10:53:21Z</time>
      </trkpt>
      <trkpt lat="47.20633" lon="5.94504">
        <ele>303.4</ele>
        <time>2024-08-03T10:53:22Z</time>
      </trkpt>
      <trkpt lat="47.20633" lon="5.94507">
        <ele>303.6</ele>
        <time>2024-08-03T10:53:23Z</time>
      </trkpt>
      <trkpt lat="47.20632" lon="5.9451">
        <ele>303.8</ele>
        <time>2024-08-03T10:53:24Z</time>
      </trkpt>
      <trkpt lat="47.20631" lon="5.94512">
        <ele>304</ele>
        <time>2024-08-03T10:53:25Z</time>
      </trkpt>
      <trkpt lat="47.2063" lon="5.94514">
        <ele>304.2</ele>
        <time>2024-08-03T10:53:26Z</time>
      </trkpt>
      <trkpt lat="47.20629" lon="5.94515">
        <ele>304.8</ele>
        <time>2024-08-03T10:53:27Z</time>
      </trkpt>
      <trkpt lat="47.20628" lon="5.94517">
        <ele>305</ele>
        <time>2024-08-03T10:53:28Z</time>
      </trkpt>
      <trkpt lat="47.20626" lon="5.94518">
        <ele>305.2</ele>
        <time>2024-08-03T10:53:29Z</time>
      </trkpt>
      <trkpt lat="47.20625" lon="5.9452">
        <ele>305.6</ele>
        <time>2024-08-03T10:53:30Z</time>
      </trkpt>
      <trkpt lat="47.20624" lon="5.94522">
        <ele>305.8</ele>
        <time>2024-08-03T10:53:31Z</time>
      </trkpt>
      <trkpt lat="47.20623" lon="5.94524">
        <ele>306</ele>
        <time>2024-08-03T10:53:32Z</time>
      </trkpt>
      <trkpt lat="47.20622" lon="5.94525">
        <ele>306.2</ele>
        <time>2024-08-03T10:53:33Z</time>
      </trkpt>
      <trkpt lat="47.20621" lon="5.94527">
        <ele>306.4</ele>
        <time>2024-08-03T10:53:34Z</time>
      </trkpt>
      <trkpt lat="47.2062" lon="5.94528">
        <ele>306.6</ele>
        <time>2024-08-03T10:53:35Z</time>
      </trkpt>
      <trkpt lat="47.20619" lon="5.9453">
        <ele>306.8</ele>
        <time>2024-08-03T10:53:36Z</time>
      </trkpt>
      <trkpt lat="47.20618" lon="5.94532">
        <ele>307</ele>
        <time>2024-08-03T10:53:37Z</time>
      </trkpt>
      <trkpt lat="47.20617" lon="5.94533">
        <ele>307</ele>
        <time>2024-08-03T10:53:38Z</time>
      </trkpt>
      <trkpt lat="47.20616" lon="5.94535">
        <ele>307</ele>
        <time>2024-08-03T10:53:39Z</time>
      </trkpt>
      <trkpt lat="47.20614" lon="5.94538">
        <ele>307.2</ele>
        <time>2024-08-03T10:53:40Z</time>
      </trkpt>
      <trkpt lat="47.20613" lon="5.94541">
        <ele>307.6</ele>
        <time>2024-08-03T10:53:41Z</time>
      </trkpt>
      <trkpt lat="47.20613" lon="5.94544">
        <ele>307.6</ele>
        <time>2024-08-03T10:53:42Z</time>
      </trkpt>
      <trkpt lat="47.20612" lon="5.94546">
        <ele>308</ele>
        <time>2024-08-03T10:53:43Z</time>
      </trkpt>
      <trkpt lat="47.20612" lon="5.94548">
        <ele>308</ele>
        <time>2024-08-03T10:53:44Z</time>
      </trkpt>
      <trkpt lat="47.20611" lon="5.9455">
        <ele>308.2</ele>
        <time>2024-08-03T10:53:45Z</time>
      </trkpt>
      <trkpt lat="47.20611" lon="5.94552">
        <ele>308.6</ele>
        <time>2024-08-03T10:53:46Z</time>
      </trkpt>
      <trkpt lat="47.2061" lon="5.94556">
        <ele>308.6</ele>
        <time>2024-08-03T10:53:47Z</time>
      </trkpt>
      <trkpt lat="47.2061" lon="5.94559">
        <ele>308.8</ele>
        <time>2024-08-03T10:53:48Z</time>
      </trkpt>
      <trkpt lat="47.20609" lon="5.94562">
        <ele>309</ele>
        <time>2024-08-03T10:53:49Z</time>
      </trkpt>
      <trkpt lat="47.20608" lon="5.94566">
        <ele>309.2</ele>
        <time>2024-08-03T10:53:50Z</time>
      </trkpt>
      <trkpt lat="47.20607" lon="5.9457">
        <ele>309.4</ele>
        <time>2024-08-03T10:53:51Z</time>
      </trkpt>
      <trkpt lat="47.20606" lon="5.94573">
        <ele>309.6</ele>
        <time>2024-08-03T10:53:52Z</time>
      </trkpt>
      <trkpt lat="47.20606" lon="5.94577">
        <ele>310</ele>
        <time>2024-08-03T10:53:53Z</time>
      </trkpt>
      <trkpt lat="47.20605" lon="5.9458">
        <ele>310</ele>
        <time>2024-08-03T10:53:54Z</time>
      </trkpt>
      <trkpt lat="47.20604" lon="5.94583">
        <ele>310</ele>
        <time>2024-08-03T10:53:55Z</time>
      </trkpt>
      <trkpt lat="47.20604" lon="5.94585">
        <ele>310.4</ele>
        <time>2024-08-03T10:53:56Z</time>
      </trkpt>
      <trkpt lat="47.20604" lon="5.94588">
        <ele>310.6</ele>
        <time>2024-08-03T10:53:57Z</time>
      </trkpt>
      <trkpt lat="47.20603" lon="5.94591">
        <ele>310.8</ele>
        <time>2024-08-03T10:53:58Z</time>
      </trkpt>
      <trkpt lat="47.20602" lon="5.94593">
        <ele>311.2</ele>
        <time>2024-08-03T10:53:59Z</time>
      </trkpt>
      <trkpt lat="47.20602" lon="5.94596">
        <ele>311.2</ele>
        <time>2024-08-03T10:54:00Z</time>
      </trkpt>
      <trkpt lat="47.20601" lon="5.94599">
        <ele>311.2</ele>
        <time>2024-08-03T10:54:01Z</time>
      </trkpt>
      <trkpt lat="47.206" lon="5.94601">
        <ele>311.6</ele>
        <time>2024-08-03T10:54:02Z</time>
      </trkpt>
      <trkpt lat="47.20599" lon="5.94603">
        <ele>311.8</ele>
        <time>2024-08-03T10:54:03Z</time>
      </trkpt>
      <trkpt lat="47.20598" lon="5.94606">
        <ele>312</ele>
        <time>2024-08-03T10:54:04Z</time>
      </trkpt>
      <trkpt lat="47.20596" lon="5.94608">
        <ele>311.8</ele>
        <time>2024-08-03T10:54:05Z</time>
      </trkpt>
      <trkpt lat="47.20594" lon="5.94609">
        <ele>312.2</ele>
        <time>2024-08-03T10:54:06Z</time>
      </trkpt>
      <trkpt lat="47.20591" lon="5.94611">
        <ele>312.4</ele>
        <time>2024-08-03T10:54:07Z</time>
      </trkpt>
      <trkpt lat="47.20589" lon="5.94612">
        <ele>312.6</ele>
        <time>2024-08-03T10:54:08Z</time>
      </trkpt>
      <trkpt lat="47.20587" lon="5.94614">
        <ele>312.8</ele>
        <time>2024-08-03T10:54:09Z</time>
      </trkpt>
      <trkpt lat="47.20584" lon="5.94615">
        <ele>312.8</ele>
        <time>2024-08-03T10:54:10Z</time>
      </trkpt>
      <trkpt lat="47.20583" lon="5.94617">
        <ele>313</ele>
        <time>2024-08-03T10:54:11Z</time>
      </trkpt>
      <trkpt lat="47.20581" lon="5.94619">
        <ele>313</ele>
        <time>2024-08-03T10:54:12Z</time>
      </trkpt>
      <trkpt lat="47.2058" lon="5.9462">
        <ele>313</ele>
        <time>2024-08-03T10:54:13Z</time>
      </trkpt>
      <trkpt lat="47.20578" lon="5.94621">
        <ele>313.2</ele>
        <time>2024-08-03T10:54:14Z</time>
      </trkpt>
      <trkpt lat="47.20577" lon="5.94622">
        <ele>313.4</ele>
        <time>2024-08-03T10:54:15Z</time>
      </trkpt>
      <trkpt lat="47.20576" lon="5.94624">
        <ele>313.6</ele>
        <time>2024-08-03T10:54:16Z</time>
      </trkpt>
      <trkpt lat="47.20574" lon="5.94624">
        <ele>313.6</ele>
        <time>2024-08-03T10:54:17Z</time>
      </trkpt>
      <trkpt lat="47.20573" lon="5.94625">
        <ele>313.8</ele>
        <time>2024-08-03T10:54:18Z</time>
      </trkpt>
      <trkpt lat="47.20572" lon="5.94626">
        <ele>313.8</ele>
        <time>2024-08-03T10:54:19Z</time>
      </trkpt>
      <trkpt lat="47.20572" lon="5.94628">
        <ele>313.8</ele>
        <time>2024-08-03T10:54:20Z</time>
      </trkpt>
      <trkpt lat="47.2057" lon="5.94629">
        <ele>313.8</ele>
        <time>2024-08-03T10:54:21Z</time>
      </trkpt>
      <trkpt lat="47.20569" lon="5.9463">
        <ele>314</ele>
        <time>2024-08-03T10:54:22Z</time>
      </trkpt>
      <trkpt lat="47.20568" lon="5.94633">
        <ele>314.2</ele>
        <time>2024-08-03T10:54:23Z</time>
      </trkpt>
      <trkpt lat="47.20567" lon="5.94634">
        <ele>314.2</ele>
        <time>2024-08-03T10:54:24Z</time>
      </trkpt>
      <trkpt lat="47.20566" lon="5.94635">
        <ele>314.4</ele>
        <time>2024-08-03T10:54:25Z</time>
      </trkpt>
      <trkpt lat="47.20567" lon="5.94638">
        <ele>314.6</ele>
        <time>2024-08-03T10:54:26Z</time>
      </trkpt>
      <trkpt lat="47.20566" lon="5.9464">
        <ele>314.8</ele>
        <time>2024-08-03T10:54:27Z</time>
      </trkpt>
      <trkpt lat="47.20565" lon="5.94641">
        <ele>314.8</ele>
        <time>2024-08-03T10:54:28Z</time>
      </trkpt>
      <trkpt lat="47.20565" lon="5.94643">
        <ele>314.8</ele>
        <time>2024-08-03T10:54:29Z</time>
      </trkpt>
      <trkpt lat="47.20564" lon="5.94645">
        <ele>315</ele>
        <time>2024-08-03T10:54:30Z</time>
      </trkpt>
      <trkpt lat="47.20563" lon="5.94646">
        <ele>315.2</ele>
        <time>2024-08-03T10:54:31Z</time>
      </trkpt>
      <trkpt lat="47.20562" lon="5.94647">
        <ele>315.2</ele>
        <time>2024-08-03T10:54:32Z</time>
      </trkpt>
      <trkpt lat="47.20561" lon="5.94648">
        <ele>315.2</ele>
        <time>2024-08-03T10:54:33Z</time>
      </trkpt>
      <trkpt lat="47.20558" lon="5.94649">
        <ele>315.2</ele>
        <time>2024-08-03T10:54:34Z</time>
      </trkpt>
      <trkpt lat="47.20556" lon="5.94651">
        <ele>315.4</ele>
        <time>2024-08-03T10:54:35Z</time>
      </trkpt>
      <trkpt lat="47.20554" lon="5.94653">
        <ele>315.4</ele>
        <time>2024-08-03T10:54:36Z</time>
      </trkpt>
      <trkpt lat="47.20551" lon="5.94653">
        <ele>315.8</ele>
        <time>2024-08-03T10:54:37Z</time>
      </trkpt>
      <trkpt lat="47.20549" lon="5.94655">
        <ele>316</ele>
        <time>2024-08-03T10:54:38Z</time>
      </trkpt>
      <trkpt lat="47.20547" lon="5.94659">
        <ele>316</ele>
        <time>2024-08-03T10:54:39Z</time>
      </trkpt>
      <trkpt lat="47.20545" lon="5.94665">
        <ele>316.2</ele>
        <time>2024-08-03T10:54:40Z</time>
      </trkpt>
      <trkpt lat="47.20544" lon="5.9467">
        <ele>316.4</ele>
        <time>2024-08-03T10:54:41Z</time>
      </trkpt>
      <trkpt lat="47.20542" lon="5.94675">
        <ele>316.4</ele>
        <time>2024-08-03T10:54:42Z</time>
      </trkpt>
      <trkpt lat="47.2054" lon="5.94676">
        <ele>316.4</ele>
        <time>2024-08-03T10:54:43Z</time>
      </trkpt>
      <trkpt lat="47.20539" lon="5.9468">
        <ele>316.4</ele>
        <time>2024-08-03T10:54:44Z</time>
      </trkpt>
      <trkpt lat="47.20538" lon="5.94683">
        <ele>316.4</ele>
        <time>2024-08-03T10:54:45Z</time>
      </trkpt>
      <trkpt lat="47.20537" lon="5.94685">
        <ele>316.6</ele>
        <time>2024-08-03T10:54:46Z</time>
      </trkpt>
      <trkpt lat="47.20537" lon="5.94686">
        <ele>316.8</ele>
        <time>2024-08-03T10:54:47Z</time>
      </trkpt>
      <trkpt lat="47.20536" lon="5.94687">
        <ele>316.6</ele>
        <time>2024-08-03T10:54:48Z</time>
      </trkpt>
      <trkpt lat="47.20535" lon="5.9469">
        <ele>316.8</ele>
        <time>2024-08-03T10:54:49Z</time>
      </trkpt>
      <trkpt lat="47.20533" lon="5.94692">
        <ele>317</ele>
        <time>2024-08-03T10:54:50Z</time>
      </trkpt>
      <trkpt lat="47.20532" lon="5.94693">
        <ele>316.8</ele>
        <time>2024-08-03T10:54:51Z</time>
      </trkpt>
      <trkpt lat="47.20531" lon="5.94694">
        <ele>317</ele>
        <time>2024-08-03T10:54:52Z</time>
      </trkpt>
      <trkpt lat="47.2053" lon="5.94695">
        <ele>317</ele>
        <time>2024-08-03T10:54:53Z</time>
      </trkpt>
      <trkpt lat="47.2053" lon="5.94697">
        <ele>317.2</ele>
        <time>2024-08-03T10:54:54Z</time>
      </trkpt>
      <trkpt lat="47.20528" lon="5.94698">
        <ele>317.4</ele>
        <time>2024-08-03T10:54:55Z</time>
      </trkpt>
      <trkpt lat="47.20527" lon="5.94699">
        <ele>317.2</ele>
        <time>2024-08-03T10:54:56Z</time>
      </trkpt>
      <trkpt lat="47.20526" lon="5.94699">
        <ele>317.4</ele>
        <time>2024-08-03T10:54:57Z</time>
      </trkpt>
      <trkpt lat="47.20526" lon="5.947">
        <ele>317.4</ele>
        <time>2024-08-03T10:54:58Z</time>
      </trkpt>
      <trkpt lat="47.20525" lon="5.94702">
        <ele>317.6</ele>
        <time>2024-08-03T10:54:59Z</time>
      </trkpt>
      <trkpt lat="47.20525" lon="5.94703">
        <ele>317.6</ele>
        <time>2024-08-03T10:55:00Z</time>
      </trkpt>
      <trkpt lat="47.20524" lon="5.94706">
        <ele>317.4</ele>
        <time>2024-08-03T10:55:01Z</time>
      </trkpt>
      <trkpt lat="47.20524" lon="5.94708">
        <ele>317.4</ele>
        <time>2024-08-03T10:55:02Z</time>
      </trkpt>
      <trkpt lat="47.20523" lon="5.94709">
        <ele>317.6</ele>
        <time>2024-08-03T10:55:03Z</time>
      </trkpt>
      <trkpt lat="47.20523" lon="5.9471">
        <ele>317.6</ele>
        <time>2024-08-03T10:55:04Z</time>
      </trkpt>
      <trkpt lat="47.20523" lon="5.94711">
        <ele>317.6</ele>
        <time>2024-08-03T10:55:05Z</time>
      </trkpt>
      <trkpt lat="47.20522" lon="5.94712">
        <ele>317.8</ele>
        <time>2024-08-03T10:55:06Z</time>
      </trkpt>
      <trkpt lat="47.20521" lon="5.94713">
        <ele>317.6</ele>
        <time>2024-08-03T10:55:07Z</time>
      </trkpt>
      <trkpt lat="47.2052" lon="5.94714">
        <ele>317.8</ele>
        <time>2024-08-03T10:55:08Z</time>
      </trkpt>
      <trkpt lat="47.20519" lon="5.94716">
        <ele>317.8</ele>
        <time>2024-08-03T10:55:09Z</time>
      </trkpt>
      <trkpt lat="47.20517" lon="5.94717">
        <ele>317.8</ele>
        <time>2024-08-03T10:55:10Z</time>
      </trkpt>
      <trkpt lat="47.20516" lon="5.94719">
        <ele>317.8</ele>
        <time>2024-08-03T10:55:11Z</time>
      </trkpt>
      <trkpt lat="47.20515" lon="5.94721">
        <ele>317.8</ele>
        <time>2024-08-03T10:55:12Z</time>
      </trkpt>
      <trkpt lat="47.20514" lon="5.94722">
        <ele>317.8</ele>
        <time>2024-08-03T10:55:13Z</time>
      </trkpt>
      <trkpt lat="47.20513" lon="5.94723">
        <ele>317.8</ele>
        <time>2024-08-03T10:55:14Z</time>
      </trkpt>
      <trkpt lat="47.20512" lon="5.94724">
        <ele>318</ele>
        <time>2024-08-03T10:55:15Z</time>
      </trkpt>
      <trkpt lat="47.20511" lon="5.94726">
        <ele>318</ele>
        <time>2024-08-03T10:55:16Z</time>
      </trkpt>
      <trkpt lat="47.2051" lon="5.94728">
        <ele>318.2</ele>
        <time>2024-08-03T10:55:17Z</time>
      </trkpt>
      <trkpt lat="47.20509" lon="5.94731">
        <ele>318</ele>
        <time>2024-08-03T10:55:18Z</time>
      </trkpt>
      <trkpt lat="47.20508" lon="5.94735">
        <ele>318.2</ele>
        <time>2024-08-03T10:55:19Z</time>
      </trkpt>
      <trkpt lat="47.20508" lon="5.94737">
        <ele>318.4</ele>
        <time>2024-08-03T10:55:20Z</time>
      </trkpt>
      <trkpt lat="47.20507" lon="5.9474">
        <ele>318.2</ele>
        <time>2024-08-03T10:55:21Z</time>
      </trkpt>
      <trkpt lat="47.20506" lon="5.94741">
        <ele>318.4</ele>
        <time>2024-08-03T10:55:22Z</time>
      </trkpt>
      <trkpt lat="47.20505" lon="5.94742">
        <ele>318.6</ele>
        <time>2024-08-03T10:55:23Z</time>
      </trkpt>
      <trkpt lat="47.20504" lon="5.94744">
        <ele>318.6</ele>
        <time>2024-08-03T10:55:24Z</time>
      </trkpt>
      <trkpt lat="47.20503" lon="5.94746">
        <ele>318.6</ele>
        <time>2024-08-03T10:55:25Z</time>
      </trkpt>
      <trkpt lat="47.20502" lon="5.94747">
        <ele>318.8</ele>
        <time>2024-08-03T10:55:26Z</time>
      </trkpt>
      <trkpt lat="47.205" lon="5.94748">
        <ele>318.8</ele>
        <time>2024-08-03T10:55:27Z</time>
      </trkpt>
      <trkpt lat="47.20499" lon="5.94748">
        <ele>318.8</ele>
        <time>2024-08-03T10:55:28Z</time>
      </trkpt>
      <trkpt lat="47.20497" lon="5.94749">
        <ele>318.8</ele>
        <time>2024-08-03T10:55:29Z</time>
      </trkpt>
      <trkpt lat="47.20495" lon="5.94751">
        <ele>318.8</ele>
        <time>2024-08-03T10:55:30Z</time>
      </trkpt>
      <trkpt lat="47.20493" lon="5.94752">
        <ele>319</ele>
        <time>2024-08-03T10:55:31Z</time>
      </trkpt>
      <trkpt lat="47.20491" lon="5.94753">
        <ele>319</ele>
        <time>2024-08-03T10:55:32Z</time>
      </trkpt>
      <trkpt lat="47.2049" lon="5.94752">
        <ele>319</ele>
        <time>2024-08-03T10:55:33Z</time>
      </trkpt>
      <trkpt lat="47.20488" lon="5.94752">
        <ele>319.2</ele>
        <time>2024-08-03T10:55:34Z</time>
      </trkpt>
      <trkpt lat="47.20486" lon="5.94751">
        <ele>319</ele>
        <time>2024-08-03T10:55:35Z</time>
      </trkpt>
      <trkpt lat="47.20484" lon="5.94751">
        <ele>319</ele>
        <time>2024-08-03T10:55:36Z</time>
      </trkpt>
      <trkpt lat="47.20482" lon="5.9475">
        <ele>319.2</ele>
        <time>2024-08-03T10:55:37Z</time>
      </trkpt>
      <trkpt lat="47.20481" lon="5.9475">
        <ele>319</ele>
        <time>2024-08-03T10:55:38Z</time>
      </trkpt>
      <trkpt lat="47.20479" lon="5.94751">
        <ele>319</ele>
        <time>2024-08-03T10:55:39Z</time>
      </trkpt>
      <trkpt lat="47.20477" lon="5.94752">
        <ele>319</ele>
        <time>2024-08-03T10:55:40Z</time>
      </trkpt>
      <trkpt lat="47.20475" lon="5.94754">
        <ele>319</ele>
        <time>2024-08-03T10:55:41Z</time>
      </trkpt>
      <trkpt lat="47.20473" lon="5.94757">
        <ele>319.2</ele>
        <time>2024-08-03T10:55:42Z</time>
      </trkpt>
      <trkpt lat="47.20471" lon="5.9476">
        <ele>319</ele>
        <time>2024-08-03T10:55:43Z</time>
      </trkpt>
      <trkpt lat="47.20469" lon="5.94762">
        <ele>319.2</ele>
        <time>2024-08-03T10:55:44Z</time>
      </trkpt>
      <trkpt lat="47.20468" lon="5.94764">
        <ele>319.2</ele>
        <time>2024-08-03T10:55:45Z</time>
      </trkpt>
      <trkpt lat="47.20467" lon="5.94767">
        <ele>319.2</ele>
        <time>2024-08-03T10:55:46Z</time>
      </trkpt>
      <trkpt lat="47.20466" lon="5.94771">
        <ele>319.2</ele>
        <time>2024-08-03T10:55:47Z</time>
      </trkpt>
      <trkpt lat="47.20463" lon="5.94773">
        <ele>319.2</ele>
        <time>2024-08-03T10:55:48Z</time>
      </trkpt>
      <trkpt lat="47.20461" lon="5.94776">
        <ele>319.2</ele>
        <time>2024-08-03T10:55:49Z</time>
      </trkpt>
      <trkpt lat="47.20459" lon="5.94779">
        <ele>319</ele>
        <time>2024-08-03T10:55:50Z</time>
      </trkpt>
      <trkpt lat="47.20457" lon="5.94783">
        <ele>319.2</ele>
        <time>2024-08-03T10:55:51Z</time>
      </trkpt>
      <trkpt lat="47.20454" lon="5.94786">
        <ele>319.2</ele>
        <time>2024-08-03T10:55:52Z</time>
      </trkpt>
      <trkpt lat="47.20451" lon="5.9479">
        <ele>319.2</ele>
        <time>2024-08-03T10:55:53Z</time>
      </trkpt>
      <trkpt lat="47.20449" lon="5.94793">
        <ele>319.2</ele>
        <time>2024-08-03T10:55:54Z</time>
      </trkpt>
      <trkpt lat="47.20446" lon="5.94796">
        <ele>319.2</ele>
        <time>2024-08-03T10:55:55Z</time>
      </trkpt>
      <trkpt lat="47.20443" lon="5.94799">
        <ele>319.2</ele>
        <time>2024-08-03T10:55:56Z</time>
      </trkpt>
      <trkpt lat="47.20439" lon="5.94802">
        <ele>319.2</ele>
        <time>2024-08-03T10:55:57Z</time>
      </trkpt>
      <trkpt lat="47.20436" lon="5.94804">
        <ele>319</ele>
        <time>2024-08-03T10:55:58Z</time>
      </trkpt>
      <trkpt lat="47.20433" lon="5.94807">
        <ele>319.2</ele>
        <time>2024-08-03T10:55:59Z</time>
      </trkpt>
      <trkpt lat="47.2043" lon="5.94809">
        <ele>319.2</ele>
        <time>2024-08-03T10:56:00Z</time>
      </trkpt>
      <trkpt lat="47.20426" lon="5.9481">
        <ele>319.2</ele>
        <time>2024-08-03T10:56:01Z</time>
      </trkpt>
      <trkpt lat="47.20423" lon="5.94811">
        <ele>319.2</ele>
        <time>2024-08-03T10:56:02Z</time>
      </trkpt>
      <trkpt lat="47.20419" lon="5.94812">
        <ele>319.2</ele>
        <time>2024-08-03T10:56:03Z</time>
      </trkpt>
      <trkpt lat="47.20416" lon="5.94812">
        <ele>319</ele>
        <time>2024-08-03T10:56:04Z</time>
      </trkpt>
      <trkpt lat="47.20413" lon="5.94813">
        <ele>319.2</ele>
        <time>2024-08-03T10:56:05Z</time>
      </trkpt>
      <trkpt lat="47.20409" lon="5.94813">
        <ele>319</ele>
        <time>2024-08-03T10:56:06Z</time>
      </trkpt>
      <trkpt lat="47.20405" lon="5.94814">
        <ele>319</ele>
        <time>2024-08-03T10:56:07Z</time>
      </trkpt>
      <trkpt lat="47.20401" lon="5.94814">
        <ele>319</ele>
        <time>2024-08-03T10:56:08Z</time>
      </trkpt>
      <trkpt lat="47.20396" lon="5.94816">
        <ele>319</ele>
        <time>2024-08-03T10:56:09Z</time>
      </trkpt>
      <trkpt lat="47.20392" lon="5.94818">
        <ele>319</ele>
        <time>2024-08-03T10:56:10Z</time>
      </trkpt>
      <trkpt lat="47.20388" lon="5.94819">
        <ele>319</ele>
        <time>2024-08-03T10:56:11Z</time>
      </trkpt>
      <trkpt lat="47.20383" lon="5.9482">
        <ele>319</ele>
        <time>2024-08-03T10:56:12Z</time>
      </trkpt>
      <trkpt lat="47.20378" lon="5.94821">
        <ele>318.8</ele>
        <time>2024-08-03T10:56:13Z</time>
      </trkpt>
      <trkpt lat="47.20373" lon="5.94824">
        <ele>318.8</ele>
        <time>2024-08-03T10:56:14Z</time>
      </trkpt>
      <trkpt lat="47.20369" lon="5.94826">
        <ele>318.4</ele>
        <time>2024-08-03T10:56:15Z</time>
      </trkpt>
      <trkpt lat="47.20364" lon="5.94829">
        <ele>318.2</ele>
        <time>2024-08-03T10:56:16Z</time>
      </trkpt>
      <trkpt lat="47.20359" lon="5.94832">
        <ele>318</ele>
        <time>2024-08-03T10:56:17Z</time>
      </trkpt>
      <trkpt lat="47.20353" lon="5.94837">
        <ele>318</ele>
        <time>2024-08-03T10:56:18Z</time>
      </trkpt>
      <trkpt lat="47.20348" lon="5.94841">
        <ele>317.8</ele>
        <time>2024-08-03T10:56:19Z</time>
      </trkpt>
      <trkpt lat="47.20341" lon="5.94844">
        <ele>317.6</ele>
        <time>2024-08-03T10:56:20Z</time>
      </trkpt>
      <trkpt lat="47.20336" lon="5.94846">
        <ele>317.4</ele>
        <time>2024-08-03T10:56:21Z</time>
      </trkpt>
      <trkpt lat="47.2033" lon="5.94848">
        <ele>317</ele>
        <time>2024-08-03T10:56:22Z</time>
      </trkpt>
      <trkpt lat="47.20324" lon="5.94849">
        <ele>316.8</ele>
        <time>2024-08-03T10:56:23Z</time>
      </trkpt>
      <trkpt lat="47.20318" lon="5.94849">
        <ele>316.4</ele>
        <time>2024-08-03T10:56:24Z</time>
      </trkpt>
      <trkpt lat="47.20313" lon="5.94851">
        <ele>316</ele>
        <time>2024-08-03T10:56:25Z</time>
      </trkpt>
      <trkpt lat="47.20308" lon="5.94852">
        <ele>315.4</ele>
        <time>2024-08-03T10:56:26Z</time>
      </trkpt>
      <trkpt lat="47.20303" lon="5.94855">
        <ele>314.8</ele>
        <time>2024-08-03T10:56:27Z</time>
      </trkpt>
      <trkpt lat="47.203" lon="5.94859">
        <ele>314</ele>
        <time>2024-08-03T10:56:28Z</time>
      </trkpt>
      <trkpt lat="47.20298" lon="5.94864">
        <ele>313.2</ele>
        <time>2024-08-03T10:56:29Z</time>
      </trkpt>
      <trkpt lat="47.20296" lon="5.94868">
        <ele>312.4</ele>
        <time>2024-08-03T10:56:30Z</time>
      </trkpt>
      <trkpt lat="47.20295" lon="5.94875">
        <ele>311.2</ele>
        <time>2024-08-03T10:56:31Z</time>
      </trkpt>
      <trkpt lat="47.20295" lon="5.94882">
        <ele>310.4</ele>
        <time>2024-08-03T10:56:32Z</time>
      </trkpt>
      <trkpt lat="47.20295" lon="5.94889">
        <ele>310.4</ele>
        <time>2024-08-03T10:56:33Z</time>
      </trkpt>
      <trkpt lat="47.20295" lon="5.94897">
        <ele>309.2</ele>
        <time>2024-08-03T10:56:34Z</time>
      </trkpt>
      <trkpt lat="47.20295" lon="5.94903">
        <ele>308.4</ele>
        <time>2024-08-03T10:56:35Z</time>
      </trkpt>
      <trkpt lat="47.20295" lon="5.94909">
        <ele>307.6</ele>
        <time>2024-08-03T10:56:36Z</time>
      </trkpt>
      <trkpt lat="47.20296" lon="5.94916">
        <ele>306.8</ele>
        <time>2024-08-03T10:56:37Z</time>
      </trkpt>
      <trkpt lat="47.20297" lon="5.94923">
        <ele>306.6</ele>
        <time>2024-08-03T10:56:38Z</time>
      </trkpt>
      <trkpt lat="47.20298" lon="5.94931">
        <ele>306.2</ele>
        <time>2024-08-03T10:56:39Z</time>
      </trkpt>
      <trkpt lat="47.20299" lon="5.94941">
        <ele>306.2</ele>
        <time>2024-08-03T10:56:40Z</time>
      </trkpt>
      <trkpt lat="47.20299" lon="5.94952">
        <ele>306</ele>
        <time>2024-08-03T10:56:41Z</time>
      </trkpt>
      <trkpt lat="47.20298" lon="5.94963">
        <ele>305.8</ele>
        <time>2024-08-03T10:56:42Z</time>
      </trkpt>
      <trkpt lat="47.20298" lon="5.94974">
        <ele>305.8</ele>
        <time>2024-08-03T10:56:43Z</time>
      </trkpt>
      <trkpt lat="47.20298" lon="5.94987">
        <ele>305.6</ele>
        <time>2024-08-03T10:56:44Z</time>
      </trkpt>
      <trkpt lat="47.20298" lon="5.95002">
        <ele>305.6</ele>
        <time>2024-08-03T10:56:45Z</time>
      </trkpt>
      <trkpt lat="47.20298" lon="5.9502">
        <ele>305.4</ele>
        <time>2024-08-03T10:56:46Z</time>
      </trkpt>
      <trkpt lat="47.20299" lon="5.95039">
        <ele>305</ele>
        <time>2024-08-03T10:56:47Z</time>
      </trkpt>
      <trkpt lat="47.20301" lon="5.95056">
        <ele>304.6</ele>
        <time>2024-08-03T10:56:48Z</time>
      </trkpt>
      <trkpt lat="47.20303" lon="5.95075">
        <ele>304.2</ele>
        <time>2024-08-03T10:56:49Z</time>
      </trkpt>
      <trkpt lat="47.20306" lon="5.95095">
        <ele>303.6</ele>
        <time>2024-08-03T10:56:50Z</time>
      </trkpt>
      <trkpt lat="47.2031" lon="5.95117">
        <ele>302.6</ele>
        <time>2024-08-03T10:56:51Z</time>
      </trkpt>
      <trkpt lat="47.20313" lon="5.95139">
        <ele>301.8</ele>
        <time>2024-08-03T10:56:52Z</time>
      </trkpt>
      <trkpt lat="47.20317" lon="5.95161">
        <ele>300.6</ele>
        <time>2024-08-03T10:56:53Z</time>
      </trkpt>
      <trkpt lat="47.2032" lon="5.95182">
        <ele>299.4</ele>
        <time>2024-08-03T10:56:54Z</time>
      </trkpt>
      <trkpt lat="47.20323" lon="5.95202">
        <ele>299.4</ele>
        <time>2024-08-03T10:56:55Z</time>
      </trkpt>
      <trkpt lat="47.20328" lon="5.95222">
        <ele>298.2</ele>
        <time>2024-08-03T10:56:56Z</time>
      </trkpt>
      <trkpt lat="47.20332" lon="5.9524">
        <ele>296.6</ele>
        <time>2024-08-03T10:56:57Z</time>
      </trkpt>
      <trkpt lat="47.20335" lon="5.95257">
        <ele>294.8</ele>
        <time>2024-08-03T10:56:58Z</time>
      </trkpt>
      <trkpt lat="47.20336" lon="5.95272">
        <ele>292.8</ele>
        <time>2024-08-03T10:56:59Z</time>
      </trkpt>
      <trkpt lat="47.20337" lon="5.95287">
        <ele>290.6</ele>
        <time>2024-08-03T10:57:00Z</time>
      </trkpt>
      <trkpt lat="47.20337" lon="5.95302">
        <ele>288.4</ele>
        <time>2024-08-03T10:57:01Z</time>
      </trkpt>
      <trkpt lat="47.20336" lon="5.95316">
        <ele>285.8</ele>
        <time>2024-08-03T10:57:02Z</time>
      </trkpt>
      <trkpt lat="47.20332" lon="5.95329">
        <ele>283.2</ele>
        <time>2024-08-03T10:57:03Z</time>
      </trkpt>
      <trkpt lat="47.20328" lon="5.95342">
        <ele>280.8</ele>
        <time>2024-08-03T10:57:04Z</time>
      </trkpt>
      <trkpt lat="47.20322" lon="5.95354">
        <ele>278.8</ele>
        <time>2024-08-03T10:57:05Z</time>
      </trkpt>
      <trkpt lat="47.20315" lon="5.95366">
        <ele>276.6</ele>
        <time>2024-08-03T10:57:06Z</time>
      </trkpt>
      <trkpt lat="47.20307" lon="5.95378">
        <ele>274.8</ele>
        <time>2024-08-03T10:57:07Z</time>
      </trkpt>
      <trkpt lat="47.20301" lon="5.9539">
        <ele>273.4</ele>
        <time>2024-08-03T10:57:08Z</time>
      </trkpt>
      <trkpt lat="47.20294" lon="5.95402">
        <ele>271.8</ele>
        <time>2024-08-03T10:57:09Z</time>
      </trkpt>
      <trkpt lat="47.20288" lon="5.95415">
        <ele>270.4</ele>
        <time>2024-08-03T10:57:10Z</time>
      </trkpt>
      <trkpt lat="47.20282" lon="5.95427">
        <ele>269</ele>
        <time>2024-08-03T10:57:11Z</time>
      </trkpt>
      <trkpt lat="47.20276" lon="5.95439">
        <ele>268.2</ele>
        <time>2024-08-03T10:57:12Z</time>
      </trkpt>
      <trkpt lat="47.2027" lon="5.9545">
        <ele>266.8</ele>
        <time>2024-08-03T10:57:13Z</time>
      </trkpt>
      <trkpt lat="47.20264" lon="5.95461">
        <ele>265.8</ele>
        <time>2024-08-03T10:57:14Z</time>
      </trkpt>
      <trkpt lat="47.20257" lon="5.95471">
        <ele>264.8</ele>
        <time>2024-08-03T10:57:15Z</time>
      </trkpt>
      <trkpt lat="47.20251" lon="5.95481">
        <ele>264.8</ele>
        <time>2024-08-03T10:57:16Z</time>
      </trkpt>
      <trkpt lat="47.20245" lon="5.95491">
        <ele>263.8</ele>
        <time>2024-08-03T10:57:17Z</time>
      </trkpt>
      <trkpt lat="47.20239" lon="5.955">
        <ele>263.2</ele>
        <time>2024-08-03T10:57:18Z</time>
      </trkpt>
      <trkpt lat="47.20233" lon="5.9551">
        <ele>262.4</ele>
        <time>2024-08-03T10:57:19Z</time>
      </trkpt>
      <trkpt lat="47.20227" lon="5.95519">
        <ele>261.8</ele>
        <time>2024-08-03T10:57:20Z</time>
      </trkpt>
      <trkpt lat="47.20221" lon="5.95527">
        <ele>261.4</ele>
        <time>2024-08-03T10:57:21Z</time>
      </trkpt>
      <trkpt lat="47.20215" lon="5.95536">
        <ele>261</ele>
        <time>2024-08-03T10:57:22Z</time>
      </trkpt>
      <trkpt lat="47.2021" lon="5.95544">
        <ele>260.2</ele>
        <time>2024-08-03T10:57:23Z</time>
      </trkpt>
      <trkpt lat="47.20204" lon="5.95551">
        <ele>259.8</ele>
        <time>2024-08-03T10:57:24Z</time>
      </trkpt>
      <trkpt lat="47.20199" lon="5.95559">
        <ele>259.6</ele>
        <time>2024-08-03T10:57:25Z</time>
      </trkpt>
      <trkpt lat="47.20194" lon="5.95568">
        <ele>259.2</ele>
        <time>2024-08-03T10:57:26Z</time>
      </trkpt>
      <trkpt lat="47.2019" lon="5.95577">
        <ele>259.2</ele>
        <time>2024-08-03T10:57:27Z</time>
      </trkpt>
      <trkpt lat="47.20186" lon="5.95585">
        <ele>259</ele>
        <time>2024-08-03T10:57:28Z</time>
      </trkpt>
      <trkpt lat="47.20183" lon="5.95593">
        <ele>258.6</ele>
        <time>2024-08-03T10:57:29Z</time>
      </trkpt>
      <trkpt lat="47.2018" lon="5.95602">
        <ele>258.6</ele>
        <time>2024-08-03T10:57:30Z</time>
      </trkpt>
      <trkpt lat="47.20177" lon="5.95611">
        <ele>258.4</ele>
        <time>2024-08-03T10:57:31Z</time>
      </trkpt>
      <trkpt lat="47.20175" lon="5.9562">
        <ele>258.4</ele>
        <time>2024-08-03T10:57:32Z</time>
      </trkpt>
      <trkpt lat="47.20173" lon="5.95627">
        <ele>258.2</ele>
        <time>2024-08-03T10:57:33Z</time>
      </trkpt>
      <trkpt lat="47.2017" lon="5.95635">
        <ele>258.2</ele>
        <time>2024-08-03T10:57:34Z</time>
      </trkpt>
      <trkpt lat="47.20168" lon="5.95643">
        <ele>258</ele>
        <time>2024-08-03T10:57:35Z</time>
      </trkpt>
      <trkpt lat="47.20167" lon="5.9565">
        <ele>257.8</ele>
        <time>2024-08-03T10:57:36Z</time>
      </trkpt>
      <trkpt lat="47.20166" lon="5.95658">
        <ele>258</ele>
        <time>2024-08-03T10:57:37Z</time>
      </trkpt>
      <trkpt lat="47.20166" lon="5.95667">
        <ele>257.8</ele>
        <time>2024-08-03T10:57:38Z</time>
      </trkpt>
      <trkpt lat="47.20166" lon="5.95675">
        <ele>257.8</ele>
        <time>2024-08-03T10:57:39Z</time>
      </trkpt>
      <trkpt lat="47.20168" lon="5.95683">
        <ele>257.8</ele>
        <time>2024-08-03T10:57:40Z</time>
      </trkpt>
      <trkpt lat="47.20169" lon="5.95691">
        <ele>257.8</ele>
        <time>2024-08-03T10:57:41Z</time>
      </trkpt>
      <trkpt lat="47.2017" lon="5.95699">
        <ele>257.8</ele>
        <time>2024-08-03T10:57:42Z</time>
      </trkpt>
      <trkpt lat="47.20172" lon="5.95706">
        <ele>257.8</ele>
        <time>2024-08-03T10:57:43Z</time>
      </trkpt>
      <trkpt lat="47.20173" lon="5.95713">
        <ele>257.8</ele>
        <time>2024-08-03T10:57:44Z</time>
      </trkpt>
      <trkpt lat="47.20175" lon="5.9572">
        <ele>257.8</ele>
        <time>2024-08-03T10:57:45Z</time>
      </trkpt>
      <trkpt lat="47.20176" lon="5.95726">
        <ele>257.8</ele>
        <time>2024-08-03T10:57:46Z</time>
      </trkpt>
      <trkpt lat="47.20176" lon="5.95732">
        <ele>257.6</ele>
        <time>2024-08-03T10:57:47Z</time>
      </trkpt>
      <trkpt lat="47.20177" lon="5.95738">
        <ele>257.8</ele>
        <time>2024-08-03T10:57:48Z</time>
      </trkpt>
      <trkpt lat="47.20177" lon="5.95744">
        <ele>257.6</ele>
        <time>2024-08-03T10:57:49Z</time>
      </trkpt>
      <trkpt lat="47.20177" lon="5.9575">
        <ele>257.6</ele>
        <time>2024-08-03T10:57:50Z</time>
      </trkpt>
      <trkpt lat="47.20178" lon="5.95757">
        <ele>257.6</ele>
        <time>2024-08-03T10:57:51Z</time>
      </trkpt>
      <trkpt lat="47.20179" lon="5.95765">
        <ele>257.6</ele>
        <time>2024-08-03T10:57:52Z</time>
      </trkpt>
      <trkpt lat="47.2018" lon="5.95772">
        <ele>257.6</ele>
        <time>2024-08-03T10:57:53Z</time>
      </trkpt>
      <trkpt lat="47.20182" lon="5.95779">
        <ele>257.6</ele>
        <time>2024-08-03T10:57:54Z</time>
      </trkpt>
      <trkpt lat="47.20183" lon="5.95787">
        <ele>257.6</ele>
        <time>2024-08-03T10:57:55Z</time>
      </trkpt>
      <trkpt lat="47.20184" lon="5.95794">
        <ele>257.6</ele>
        <time>2024-08-03T10:57:56Z</time>
      </trkpt>
      <trkpt lat="47.20185" lon="5.95802">
        <ele>257.6</ele>
        <time>2024-08-03T10:57:57Z</time>
      </trkpt>
      <trkpt lat="47.20186" lon="5.9581">
        <ele>257.6</ele>
        <time>2024-08-03T10:57:58Z</time>
      </trkpt>
      <trkpt lat="47.20187" lon="5.95818">
        <ele>257.6</ele>
        <time>2024-08-03T10:57:59Z</time>
      </trkpt>
      <trkpt lat="47.20188" lon="5.95826">
        <ele>257.6</ele>
        <time>2024-08-03T10:58:00Z</time>
      </trkpt>
      <trkpt lat="47.20188" lon="5.95834">
        <ele>257.8</ele>
        <time>2024-08-03T10:58:01Z</time>
      </trkpt>
      <trkpt lat="47.20188" lon="5.95842">
        <ele>257.8</ele>
        <time>2024-08-03T10:58:02Z</time>
      </trkpt>
      <trkpt lat="47.20188" lon="5.95849">
        <ele>257.6</ele>
        <time>2024-08-03T10:58:03Z</time>
      </trkpt>
      <trkpt lat="47.20188" lon="5.95856">
        <ele>257.8</ele>
        <time>2024-08-03T10:58:04Z</time>
      </trkpt>
      <trkpt lat="47.20188" lon="5.95864">
        <ele>257.8</ele>
        <time>2024-08-03T10:58:05Z</time>
      </trkpt>
      <trkpt lat="47.20188" lon="5.95872">
        <ele>257.8</ele>
        <time>2024-08-03T10:58:06Z</time>
      </trkpt>
      <trkpt lat="47.20188" lon="5.9588">
        <ele>257.8</ele>
        <time>2024-08-03T10:58:07Z</time>
      </trkpt>
      <trkpt lat="47.20187" lon="5.95888">
        <ele>257.8</ele>
        <time>2024-08-03T10:58:08Z</time>
      </trkpt>
      <trkpt lat="47.20187" lon="5.95896">
        <ele>257.8</ele>
        <time>2024-08-03T10:58:09Z</time>
      </trkpt>
      <trkpt lat="47.20187" lon="5.95904">
        <ele>257.8</ele>
        <time>2024-08-03T10:58:10Z</time>
      </trkpt>
      <trkpt lat="47.20187" lon="5.95912">
        <ele>258</ele>
        <time>2024-08-03T10:58:11Z</time>
      </trkpt>
      <trkpt lat="47.20186" lon="5.9592">
        <ele>257.8</ele>
        <time>2024-08-03T10:58:12Z</time>
      </trkpt>
      <trkpt lat="47.20185" lon="5.95927">
        <ele>257.8</ele>
        <time>2024-08-03T10:58:13Z</time>
      </trkpt>
      <trkpt lat="47.20185" lon="5.95935">
        <ele>257.8</ele>
        <time>2024-08-03T10:58:14Z</time>
      </trkpt>
      <trkpt lat="47.20185" lon="5.95944">
        <ele>257.8</ele>
        <time>2024-08-03T10:58:15Z</time>
      </trkpt>
      <trkpt lat="47.20185" lon="5.95952">
        <ele>257.6</ele>
        <time>2024-08-03T10:58:16Z</time>
      </trkpt>
      <trkpt lat="47.20185" lon="5.9596">
        <ele>257.8</ele>
        <time>2024-08-03T10:58:17Z</time>
      </trkpt>
      <trkpt lat="47.20184" lon="5.95968">
        <ele>257.6</ele>
        <time>2024-08-03T10:58:18Z</time>
      </trkpt>
      <trkpt lat="47.20184" lon="5.95976">
        <ele>257.8</ele>
        <time>2024-08-03T10:58:19Z</time>
      </trkpt>
      <trkpt lat="47.20184" lon="5.95984">
        <ele>257.8</ele>
        <time>2024-08-03T10:58:20Z</time>
      </trkpt>
      <trkpt lat="47.20184" lon="5.95992">
        <ele>257.8</ele>
        <time>2024-08-03T10:58:21Z</time>
      </trkpt>
      <trkpt lat="47.20183" lon="5.96">
        <ele>257.8</ele>
        <time>2024-08-03T10:58:22Z</time>
      </trkpt>
      <trkpt lat="47.20183" lon="5.96008">
        <ele>257.6</ele>
        <time>2024-08-03T10:58:23Z</time>
      </trkpt>
      <trkpt lat="47.20183" lon="5.96016">
        <ele>257.8</ele>
        <time>2024-08-03T10:58:24Z</time>
      </trkpt>
      <trkpt lat="47.20182" lon="5.96023">
        <ele>257.6</ele>
        <time>2024-08-03T10:58:25Z</time>
      </trkpt>
      <trkpt lat="47.20182" lon="5.96031">
        <ele>257.8</ele>
        <time>2024-08-03T10:58:26Z</time>
      </trkpt>
      <trkpt lat="47.20182" lon="5.96039">
        <ele>257.8</ele>
        <time>2024-08-03T10:58:27Z</time>
      </trkpt>
      <trkpt lat="47.20182" lon="5.96046">
        <ele>257.8</ele>
        <time>2024-08-03T10:58:28Z</time>
      </trkpt>
      <trkpt lat="47.20182" lon="5.96054">
        <ele>257.8</ele>
        <time>2024-08-03T10:58:29Z</time>
      </trkpt>
      <trkpt lat="47.20182" lon="5.96061">
        <ele>257.8</ele>
        <time>2024-08-03T10:58:30Z</time>
      </trkpt>
      <trkpt lat="47.20182" lon="5.96066">
        <ele>257.8</ele>
        <time>2024-08-03T10:58:31Z</time>
      </trkpt>
      <trkpt lat="47.20181" lon="5.96069">
        <ele>257.8</ele>
        <time>2024-08-03T10:58:32Z</time>
      </trkpt>
      <trkpt lat="47.2018" lon="5.96071">
        <ele>257.8</ele>
        <time>2024-08-03T10:58:33Z</time>
      </trkpt>
      <trkpt lat="47.20179" lon="5.96073">
        <ele>257.6</ele>
        <time>2024-08-03T10:58:34Z</time>
      </trkpt>
      <trkpt lat="47.20178" lon="5.96075">
        <ele>257.8</ele>
        <time>2024-08-03T10:58:35Z</time>
      </trkpt>
      <trkpt lat="47.20178" lon="5.96079">
        <ele>257.6</ele>
        <time>2024-08-03T10:58:36Z</time>
      </trkpt>
      <trkpt lat="47.20178" lon="5.96084">
        <ele>257.8</ele>
        <time>2024-08-03T10:58:37Z</time>
      </trkpt>
      <trkpt lat="47.20179" lon="5.96089">
        <ele>257.6</ele>
        <time>2024-08-03T10:58:38Z</time>
      </trkpt>
      <trkpt lat="47.20179" lon="5.96094">
        <ele>257.4</ele>
        <time>2024-08-03T10:58:39Z</time>
      </trkpt>
      <trkpt lat="47.20179" lon="5.96099">
        <ele>257.2</ele>
        <time>2024-08-03T10:58:40Z</time>
      </trkpt>
      <trkpt lat="47.20178" lon="5.96105">
        <ele>257.2</ele>
        <time>2024-08-03T10:58:41Z</time>
      </trkpt>
      <trkpt lat="47.20178" lon="5.96111">
        <ele>257.2</ele>
        <time>2024-08-03T10:58:42Z</time>
      </trkpt>
      <trkpt lat="47.20178" lon="5.96117">
        <ele>257.2</ele>
        <time>2024-08-03T10:58:43Z</time>
      </trkpt>
      <trkpt lat="47.20178" lon="5.96123">
        <ele>257.2</ele>
        <time>2024-08-03T10:58:44Z</time>
      </trkpt>
      <trkpt lat="47.20179" lon="5.96128">
        <ele>257.2</ele>
        <time>2024-08-03T10:58:45Z</time>
      </trkpt>
      <trkpt lat="47.20179" lon="5.96133">
        <ele>257</ele>
        <time>2024-08-03T10:58:46Z</time>
      </trkpt>
      <trkpt lat="47.2018" lon="5.96137">
        <ele>257.2</ele>
        <time>2024-08-03T10:58:47Z</time>
      </trkpt>
      <trkpt lat="47.2018" lon="5.9614">
        <ele>257.2</ele>
        <time>2024-08-03T10:58:48Z</time>
      </trkpt>
      <trkpt lat="47.2018" lon="5.96144">
        <ele>257.2</ele>
        <time>2024-08-03T10:58:49Z</time>
      </trkpt>
      <trkpt lat="47.2018" lon="5.96149">
        <ele>257</ele>
        <time>2024-08-03T10:58:50Z</time>
      </trkpt>
      <trkpt lat="47.2018" lon="5.96154">
        <ele>257.2</ele>
        <time>2024-08-03T10:58:51Z</time>
      </trkpt>
      <trkpt lat="47.2018" lon="5.96159">
        <ele>257.2</ele>
        <time>2024-08-03T10:58:52Z</time>
      </trkpt>
      <trkpt lat="47.2018" lon="5.96165">
        <ele>257</ele>
        <time>2024-08-03T10:58:53Z</time>
      </trkpt>
      <trkpt lat="47.2018" lon="5.9617">
        <ele>257.2</ele>
        <time>2024-08-03T10:58:54Z</time>
      </trkpt>
      <trkpt lat="47.20179" lon="5.96176">
        <ele>257.2</ele>
        <time>2024-08-03T10:58:55Z</time>
      </trkpt>
      <trkpt lat="47.20179" lon="5.96182">
        <ele>257.2</ele>
        <time>2024-08-03T10:58:56Z</time>
      </trkpt>
      <trkpt lat="47.20178" lon="5.96189">
        <ele>257</ele>
        <time>2024-08-03T10:58:57Z</time>
      </trkpt>
      <trkpt lat="47.20178" lon="5.96195">
        <ele>257.2</ele>
        <time>2024-08-03T10:58:58Z</time>
      </trkpt>
      <trkpt lat="47.20177" lon="5.96201">
        <ele>257</ele>
        <time>2024-08-03T10:58:59Z</time>
      </trkpt>
      <trkpt lat="47.20176" lon="5.96208">
        <ele>257</ele>
        <time>2024-08-03T10:59:00Z</time>
      </trkpt>
      <trkpt lat="47.20175" lon="5.96214">
        <ele>257.2</ele>
        <time>2024-08-03T10:59:01Z</time>
      </trkpt>
      <trkpt lat="47.20174" lon="5.96219">
        <ele>257.2</ele>
        <time>2024-08-03T10:59:02Z</time>
      </trkpt>
      <trkpt lat="47.20172" lon="5.96225">
        <ele>257.2</ele>
        <time>2024-08-03T10:59:03Z</time>
      </trkpt>
      <trkpt lat="47.2017" lon="5.96229">
        <ele>257.2</ele>
        <time>2024-08-03T10:59:04Z</time>
      </trkpt>
      <trkpt lat="47.20168" lon="5.96233">
        <ele>257.2</ele>
        <time>2024-08-03T10:59:05Z</time>
      </trkpt>
      <trkpt lat="47.20165" lon="5.96234">
        <ele>257.2</ele>
        <time>2024-08-03T10:59:06Z</time>
      </trkpt>
      <trkpt lat="47.20161" lon="5.96234">
        <ele>257.2</ele>
        <time>2024-08-03T10:59:07Z</time>
      </trkpt>
      <trkpt lat="47.20158" lon="5.96233">
        <ele>257.4</ele>
        <time>2024-08-03T10:59:08Z</time>
      </trkpt>
      <trkpt lat="47.20155" lon="5.96232">
        <ele>257.2</ele>
        <time>2024-08-03T10:59:09Z</time>
      </trkpt>
      <trkpt lat="47.20152" lon="5.96231">
        <ele>257.2</ele>
        <time>2024-08-03T10:59:10Z</time>
      </trkpt>
      <trkpt lat="47.20148" lon="5.96231">
        <ele>257.6</ele>
        <time>2024-08-03T10:59:11Z</time>
      </trkpt>
      <trkpt lat="47.20144" lon="5.96231">
        <ele>257.4</ele>
        <time>2024-08-03T10:59:12Z</time>
      </trkpt>
      <trkpt lat="47.20141" lon="5.96232">
        <ele>257.6</ele>
        <time>2024-08-03T10:59:13Z</time>
      </trkpt>
      <trkpt lat="47.20137" lon="5.96233">
        <ele>257.6</ele>
        <time>2024-08-03T10:59:14Z</time>
      </trkpt>
      <trkpt lat="47.20133" lon="5.96233">
        <ele>257.8</ele>
        <time>2024-08-03T10:59:15Z</time>
      </trkpt>
      <trkpt lat="47.20129" lon="5.96232">
        <ele>257.6</ele>
        <time>2024-08-03T10:59:16Z</time>
      </trkpt>
      <trkpt lat="47.20126" lon="5.96231">
        <ele>257.8</ele>
        <time>2024-08-03T10:59:17Z</time>
      </trkpt>
      <trkpt lat="47.20122" lon="5.9623">
        <ele>257.8</ele>
        <time>2024-08-03T10:59:18Z</time>
      </trkpt>
      <trkpt lat="47.20118" lon="5.9623">
        <ele>258</ele>
        <time>2024-08-03T10:59:19Z</time>
      </trkpt>
      <trkpt lat="47.20114" lon="5.9623">
        <ele>258</ele>
        <time>2024-08-03T10:59:20Z</time>
      </trkpt>
      <trkpt lat="47.2011" lon="5.9623">
        <ele>258</ele>
        <time>2024-08-03T10:59:21Z</time>
      </trkpt>
      <trkpt lat="47.20106" lon="5.96229">
        <ele>258.2</ele>
        <time>2024-08-03T10:59:22Z</time>
      </trkpt>
      <trkpt lat="47.20101" lon="5.96229">
        <ele>258.2</ele>
        <time>2024-08-03T10:59:23Z</time>
      </trkpt>
      <trkpt lat="47.20096" lon="5.96228">
        <ele>258.4</ele>
        <time>2024-08-03T10:59:24Z</time>
      </trkpt>
      <trkpt lat="47.20092" lon="5.96227">
        <ele>258.4</ele>
        <time>2024-08-03T10:59:25Z</time>
      </trkpt>
      <trkpt lat="47.20087" lon="5.96226">
        <ele>258.4</ele>
        <time>2024-08-03T10:59:26Z</time>
      </trkpt>
      <trkpt lat="47.20082" lon="5.96226">
        <ele>258.6</ele>
        <time>2024-08-03T10:59:27Z</time>
      </trkpt>
      <trkpt lat="47.20077" lon="5.96226">
        <ele>258.6</ele>
        <time>2024-08-03T10:59:28Z</time>
      </trkpt>
      <trkpt lat="47.20072" lon="5.96226">
        <ele>258.8</ele>
        <time>2024-08-03T10:59:29Z</time>
      </trkpt>
      <trkpt lat="47.20067" lon="5.96225">
        <ele>258.8</ele>
        <time>2024-08-03T10:59:30Z</time>
      </trkpt>
      <trkpt lat="47.20062" lon="5.96225">
        <ele>258.8</ele>
        <time>2024-08-03T10:59:31Z</time>
      </trkpt>
      <trkpt lat="47.20058" lon="5.96225">
        <ele>258.8</ele>
        <time>2024-08-03T10:59:32Z</time>
      </trkpt>
      <trkpt lat="47.20054" lon="5.96227">
        <ele>259</ele>
        <time>2024-08-03T10:59:33Z</time>
      </trkpt>
      <trkpt lat="47.2005" lon="5.96229">
        <ele>259</ele>
        <time>2024-08-03T10:59:34Z</time>
      </trkpt>
      <trkpt lat="47.20046" lon="5.96231">
        <ele>259</ele>
        <time>2024-08-03T10:59:35Z</time>
      </trkpt>
      <trkpt lat="47.20042" lon="5.96232">
        <ele>259.2</ele>
        <time>2024-08-03T10:59:36Z</time>
      </trkpt>
      <trkpt lat="47.20038" lon="5.96233">
        <ele>259</ele>
        <time>2024-08-03T10:59:37Z</time>
      </trkpt>
      <trkpt lat="47.20034" lon="5.96233">
        <ele>259.2</ele>
        <time>2024-08-03T10:59:38Z</time>
      </trkpt>
      <trkpt lat="47.2003" lon="5.96233">
        <ele>259.2</ele>
        <time>2024-08-03T10:59:39Z</time>
      </trkpt>
      <trkpt lat="47.20026" lon="5.96233">
        <ele>259.2</ele>
        <time>2024-08-03T10:59:40Z</time>
      </trkpt>
      <trkpt lat="47.20021" lon="5.96233">
        <ele>259.4</ele>
        <time>2024-08-03T10:59:41Z</time>
      </trkpt>
      <trkpt lat="47.20017" lon="5.96233">
        <ele>259.4</ele>
        <time>2024-08-03T10:59:42Z</time>
      </trkpt>
      <trkpt lat="47.20012" lon="5.96233">
        <ele>259.2</ele>
        <time>2024-08-03T10:59:43Z</time>
      </trkpt>
      <trkpt lat="47.20007" lon="5.96233">
        <ele>259.4</ele>
        <time>2024-08-03T10:59:44Z</time>
      </trkpt>
      <trkpt lat="47.20003" lon="5.96233">
        <ele>259.6</ele>
        <time>2024-08-03T10:59:45Z</time>
      </trkpt>
      <trkpt lat="47.19998" lon="5.96233">
        <ele>259.6</ele>
        <time>2024-08-03T10:59:46Z</time>
      </trkpt>
      <trkpt lat="47.19994" lon="5.96233">
        <ele>259.8</ele>
        <time>2024-08-03T10:59:47Z</time>
      </trkpt>
      <trkpt lat="47.19989" lon="5.96232">
        <ele>259.8</ele>
        <time>2024-08-03T10:59:48Z</time>
      </trkpt>
      <trkpt lat="47.19985" lon="5.96232">
        <ele>259.8</ele>
        <time>2024-08-03T10:59:49Z</time>
      </trkpt>
      <trkpt lat="47.19981" lon="5.96233">
        <ele>259.8</ele>
        <time>2024-08-03T10:59:50Z</time>
      </trkpt>
      <trkpt lat="47.19976" lon="5.96233">
        <ele>260</ele>
        <time>2024-08-03T10:59:51Z</time>
      </trkpt>
      <trkpt lat="47.19971" lon="5.96233">
        <ele>260</ele>
        <time>2024-08-03T10:59:52Z</time>
      </trkpt>
      <trkpt lat="47.19965" lon="5.96232">
        <ele>259.8</ele>
        <time>2024-08-03T10:59:53Z</time>
      </trkpt>
      <trkpt lat="47.19961" lon="5.96233">
        <ele>259.8</ele>
        <time>2024-08-03T10:59:54Z</time>
      </trkpt>
      <trkpt lat="47.19956" lon="5.96233">
        <ele>259.8</ele>
        <time>2024-08-03T10:59:55Z</time>
      </trkpt>
      <trkpt lat="47.19952" lon="5.96233">
        <ele>259.8</ele>
        <time>2024-08-03T10:59:56Z</time>
      </trkpt>
      <trkpt lat="47.19947" lon="5.96233">
        <ele>260</ele>
        <time>2024-08-03T10:59:57Z</time>
      </trkpt>
      <trkpt lat="47.19943" lon="5.96233">
        <ele>259.8</ele>
        <time>2024-08-03T10:59:58Z</time>
      </trkpt>
      <trkpt lat="47.19939" lon="5.96233">
        <ele>260</ele>
        <time>2024-08-03T10:59:59Z</time>
      </trkpt>
      <trkpt lat="47.19935" lon="5.96233">
        <ele>260</ele>
        <time>2024-08-03T11:00:00Z</time>
      </trkpt>
      <trkpt lat="47.1993" lon="5.96232">
        <ele>259.8</ele>
        <time>2024-08-03T11:00:01Z</time>
      </trkpt>
      <trkpt lat="47.19927" lon="5.96232">
        <ele>259.8</ele>
        <time>2024-08-03T11:00:02Z</time>
      </trkpt>
      <trkpt lat="47.19923" lon="5.96232">
        <ele>260</ele>
        <time>2024-08-03T11:00:03Z</time>
      </trkpt>
      <trkpt lat="47.1992" lon="5.96232">
        <ele>260</ele>
        <time>2024-08-03T11:00:04Z</time>
      </trkpt>
      <trkpt lat="47.19916" lon="5.96233">
        <ele>260</ele>
        <time>2024-08-03T11:00:05Z</time>
      </trkpt>
      <trkpt lat="47.19913" lon="5.96237">
        <ele>260</ele>
        <time>2024-08-03T11:00:06Z</time>
      </trkpt>
      <trkpt lat="47.1991" lon="5.96242">
        <ele>260</ele>
        <time>2024-08-03T11:00:07Z</time>
      </trkpt>
      <trkpt lat="47.19907" lon="5.96249">
        <ele>259.8</ele>
        <time>2024-08-03T11:00:08Z</time>
      </trkpt>
      <trkpt lat="47.19906" lon="5.96257">
        <ele>260</ele>
        <time>2024-08-03T11:00:09Z</time>
      </trkpt>
      <trkpt lat="47.19905" lon="5.96266">
        <ele>260</ele>
        <time>2024-08-03T11:00:10Z</time>
      </trkpt>
      <trkpt lat="47.19905" lon="5.96275">
        <ele>259.8</ele>
        <time>2024-08-03T11:00:11Z</time>
      </trkpt>
      <trkpt lat="47.19905" lon="5.96283">
        <ele>259.8</ele>
        <time>2024-08-03T11:00:12Z</time>
      </trkpt>
      <trkpt lat="47.19905" lon="5.96292">
        <ele>260</ele>
        <time>2024-08-03T11:00:13Z</time>
      </trkpt>
      <trkpt lat="47.19905" lon="5.96301">
        <ele>259.8</ele>
        <time>2024-08-03T11:00:14Z</time>
      </trkpt>
      <trkpt lat="47.19905" lon="5.96309">
        <ele>259.8</ele>
        <time>2024-08-03T11:00:15Z</time>
      </trkpt>
      <trkpt lat="47.19905" lon="5.96317">
        <ele>259.8</ele>
        <time>2024-08-03T11:00:16Z</time>
      </trkpt>
      <trkpt lat="47.19904" lon="5.96325">
        <ele>259.8</ele>
        <time>2024-08-03T11:00:17Z</time>
      </trkpt>
      <trkpt lat="47.19904" lon="5.96334">
        <ele>259.8</ele>
        <time>2024-08-03T11:00:18Z</time>
      </trkpt>
      <trkpt lat="47.19904" lon="5.96343">
        <ele>259.8</ele>
        <time>2024-08-03T11:00:19Z</time>
      </trkpt>
      <trkpt lat="47.19904" lon="5.96351">
        <ele>259.8</ele>
        <time>2024-08-03T11:00:20Z</time>
      </trkpt>
      <trkpt lat="47.19903" lon="5.9636">
        <ele>259.6</ele>
        <time>2024-08-03T11:00:21Z</time>
      </trkpt>
      <trkpt lat="47.19902" lon="5.96368">
        <ele>259.6</ele>
        <time>2024-08-03T11:00:22Z</time>
      </trkpt>
      <trkpt lat="47.19902" lon="5.96377">
        <ele>259.6</ele>
        <time>2024-08-03T11:00:23Z</time>
      </trkpt>
      <trkpt lat="47.19902" lon="5.96385">
        <ele>259.6</ele>
        <time>2024-08-03T11:00:24Z</time>
      </trkpt>
      <trkpt lat="47.19901" lon="5.96393">
        <ele>259.6</ele>
        <time>2024-08-03T11:00:25Z</time>
      </trkpt>
      <trkpt lat="47.19901" lon="5.96401">
        <ele>259.6</ele>
        <time>2024-08-03T11:00:26Z</time>
      </trkpt>
      <trkpt lat="47.19901" lon="5.96408">
        <ele>259.4</ele>
        <time>2024-08-03T11:00:27Z</time>
      </trkpt>
      <trkpt lat="47.19901" lon="5.96416">
        <ele>259.6</ele>
        <time>2024-08-03T11:00:28Z</time>
      </trkpt>
      <trkpt lat="47.19901" lon="5.96424">
        <ele>259.4</ele>
        <time>2024-08-03T11:00:29Z</time>
      </trkpt>
      <trkpt lat="47.19901" lon="5.96432">
        <ele>259.4</ele>
        <time>2024-08-03T11:00:30Z</time>
      </trkpt>
      <trkpt lat="47.19901" lon="5.9644">
        <ele>259.4</ele>
        <time>2024-08-03T11:00:31Z</time>
      </trkpt>
      <trkpt lat="47.19902" lon="5.96448">
        <ele>259.6</ele>
        <time>2024-08-03T11:00:32Z</time>
      </trkpt>
      <trkpt lat="47.19904" lon="5.96456">
        <ele>259.4</ele>
        <time>2024-08-03T11:00:33Z</time>
      </trkpt>
      <trkpt lat="47.19905" lon="5.96464">
        <ele>259.4</ele>
        <time>2024-08-03T11:00:34Z</time>
      </trkpt>
      <trkpt lat="47.19906" lon="5.96473">
        <ele>259.4</ele>
        <time>2024-08-03T11:00:35Z</time>
      </trkpt>
      <trkpt lat="47.19907" lon="5.96481">
        <ele>259.4</ele>
        <time>2024-08-03T11:00:36Z</time>
      </trkpt>
      <trkpt lat="47.19908" lon="5.9649">
        <ele>259.4</ele>
        <time>2024-08-03T11:00:37Z</time>
      </trkpt>
      <trkpt lat="47.19909" lon="5.96499">
        <ele>259.6</ele>
        <time>2024-08-03T11:00:38Z</time>
      </trkpt>
      <trkpt lat="47.19909" lon="5.96508">
        <ele>259.6</ele>
        <time>2024-08-03T11:00:39Z</time>
      </trkpt>
      <trkpt lat="47.1991" lon="5.96517">
        <ele>259.6</ele>
        <time>2024-08-03T11:00:40Z</time>
      </trkpt>
      <trkpt lat="47.19911" lon="5.96526">
        <ele>259.6</ele>
        <time>2024-08-03T11:00:41Z</time>
      </trkpt>
      <trkpt lat="47.19911" lon="5.96536">
        <ele>259.6</ele>
        <time>2024-08-03T11:00:42Z</time>
      </trkpt>
      <trkpt lat="47.19911" lon="5.96545">
        <ele>259.6</ele>
        <time>2024-08-03T11:00:43Z</time>
      </trkpt>
      <trkpt lat="47.19912" lon="5.96554">
        <ele>259.6</ele>
        <time>2024-08-03T11:00:44Z</time>
      </trkpt>
      <trkpt lat="47.19912" lon="5.96563">
        <ele>259.6</ele>
        <time>2024-08-03T11:00:45Z</time>
      </trkpt>
      <trkpt lat="47.19911" lon="5.96572">
        <ele>259.8</ele>
        <time>2024-08-03T11:00:46Z</time>
      </trkpt>
      <trkpt lat="47.19911" lon="5.96582">
        <ele>259.8</ele>
        <time>2024-08-03T11:00:47Z</time>
      </trkpt>
      <trkpt lat="47.19911" lon="5.96591">
        <ele>259.8</ele>
        <time>2024-08-03T11:00:48Z</time>
      </trkpt>
      <trkpt lat="47.1991" lon="5.96601">
        <ele>259.8</ele>
        <time>2024-08-03T11:00:49Z</time>
      </trkpt>
      <trkpt lat="47.19909" lon="5.9661">
        <ele>259.8</ele>
        <time>2024-08-03T11:00:50Z</time>
      </trkpt>
      <trkpt lat="47.19908" lon="5.9662">
        <ele>260</ele>
        <time>2024-08-03T11:00:51Z</time>
      </trkpt>
      <trkpt lat="47.19907" lon="5.96629">
        <ele>260</ele>
        <time>2024-08-03T11:00:52Z</time>
      </trkpt>
      <trkpt lat="47.19906" lon="5.96639">
        <ele>260</ele>
        <time>2024-08-03T11:00:53Z</time>
      </trkpt>
      <trkpt lat="47.19905" lon="5.96649">
        <ele>260</ele>
        <time>2024-08-03T11:00:54Z</time>
      </trkpt>
      <trkpt lat="47.19904" lon="5.96658">
        <ele>260</ele>
        <time>2024-08-03T11:00:55Z</time>
      </trkpt>
      <trkpt lat="47.19904" lon="5.96668">
        <ele>260</ele>
        <time>2024-08-03T11:00:56Z</time>
      </trkpt>
      <trkpt lat="47.19903" lon="5.96678">
        <ele>260</ele>
        <time>2024-08-03T11:00:57Z</time>
      </trkpt>
      <trkpt lat="47.19903" lon="5.96688">
        <ele>260</ele>
        <time>2024-08-03T11:00:58Z</time>
      </trkpt>
      <trkpt lat="47.19903" lon="5.96698">
        <ele>260</ele>
        <time>2024-08-03T11:00:59Z</time>
      </trkpt>
      <trkpt lat="47.19903" lon="5.96708">
        <ele>260</ele>
        <time>2024-08-03T11:01:00Z</time>
      </trkpt>
      <trkpt lat="47.19903" lon="5.96717">
        <ele>260</ele>
        <time>2024-08-03T11:01:01Z</time>
      </trkpt>
      <trkpt lat="47.19902" lon="5.96726">
        <ele>260</ele>
        <time>2024-08-03T11:01:02Z</time>
      </trkpt>
      <trkpt lat="47.19903" lon="5.96734">
        <ele>260</ele>
        <time>2024-08-03T11:01:03Z</time>
      </trkpt>
      <trkpt lat="47.19904" lon="5.96743">
        <ele>259.8</ele>
        <time>2024-08-03T11:01:04Z</time>
      </trkpt>
      <trkpt lat="47.19904" lon="5.96752">
        <ele>259.8</ele>
        <time>2024-08-03T11:01:05Z</time>
      </trkpt>
      <trkpt lat="47.19905" lon="5.96761">
        <ele>259.8</ele>
        <time>2024-08-03T11:01:06Z</time>
      </trkpt>
      <trkpt lat="47.19906" lon="5.9677">
        <ele>259.6</ele>
        <time>2024-08-03T11:01:07Z</time>
      </trkpt>
      <trkpt lat="47.19908" lon="5.96779">
        <ele>259.4</ele>
        <time>2024-08-03T11:01:08Z</time>
      </trkpt>
      <trkpt lat="47.19909" lon="5.96787">
        <ele>259.6</ele>
        <time>2024-08-03T11:01:09Z</time>
      </trkpt>
      <trkpt lat="47.19911" lon="5.96795">
        <ele>259.6</ele>
        <time>2024-08-03T11:01:10Z</time>
      </trkpt>
      <trkpt lat="47.19913" lon="5.96803">
        <ele>259.6</ele>
        <time>2024-08-03T11:01:11Z</time>
      </trkpt>
      <trkpt lat="47.19915" lon="5.96811">
        <ele>259.4</ele>
        <time>2024-08-03T11:01:12Z</time>
      </trkpt>
      <trkpt lat="47.19917" lon="5.96819">
        <ele>259.4</ele>
        <time>2024-08-03T11:01:13Z</time>
      </trkpt>
      <trkpt lat="47.19919" lon="5.96826">
        <ele>259.4</ele>
        <time>2024-08-03T11:01:14Z</time>
      </trkpt>
      <trkpt lat="47.1992" lon="5.96834">
        <ele>259.4</ele>
        <time>2024-08-03T11:01:15Z</time>
      </trkpt>
      <trkpt lat="47.19922" lon="5.96843">
        <ele>259.2</ele>
        <time>2024-08-03T11:01:16Z</time>
      </trkpt>
      <trkpt lat="47.19924" lon="5.96852">
        <ele>259.4</ele>
        <time>2024-08-03T11:01:17Z</time>
      </trkpt>
      <trkpt lat="47.19925" lon="5.9686">
        <ele>259.4</ele>
        <time>2024-08-03T11:01:18Z</time>
      </trkpt>
      <trkpt lat="47.19927" lon="5.96869">
        <ele>259.2</ele>
        <time>2024-08-03T11:01:19Z</time>
      </trkpt>
      <trkpt lat="47.19928" lon="5.96878">
        <ele>259.2</ele>
        <time>2024-08-03T11:01:20Z</time>
      </trkpt>
      <trkpt lat="47.19929" lon="5.96887">
        <ele>259.2</ele>
        <time>2024-08-03T11:01:21Z</time>
      </trkpt>
      <trkpt lat="47.1993" lon="5.96896">
        <ele>259.2</ele>
        <time>2024-08-03T11:01:22Z</time>
      </trkpt>
      <trkpt lat="47.19931" lon="5.96906">
        <ele>259.2</ele>
        <time>2024-08-03T11:01:23Z</time>
      </trkpt>
      <trkpt lat="47.19931" lon="5.96915">
        <ele>259</ele>
        <time>2024-08-03T11:01:24Z</time>
      </trkpt>
      <trkpt lat="47.19931" lon="5.96925">
        <ele>259</ele>
        <time>2024-08-03T11:01:25Z</time>
      </trkpt>
      <trkpt lat="47.19931" lon="5.96934">
        <ele>259.2</ele>
        <time>2024-08-03T11:01:26Z</time>
      </trkpt>
      <trkpt lat="47.19931" lon="5.96944">
        <ele>259.2</ele>
        <time>2024-08-03T11:01:27Z</time>
      </trkpt>
      <trkpt lat="47.19932" lon="5.96954">
        <ele>259</ele>
        <time>2024-08-03T11:01:28Z</time>
      </trkpt>
      <trkpt lat="47.19931" lon="5.96963">
        <ele>259</ele>
        <time>2024-08-03T11:01:29Z</time>
      </trkpt>
      <trkpt lat="47.19931" lon="5.96973">
        <ele>258.8</ele>
        <time>2024-08-03T11:01:30Z</time>
      </trkpt>
      <trkpt lat="47.19931" lon="5.96982">
        <ele>258.8</ele>
        <time>2024-08-03T11:01:31Z</time>
      </trkpt>
      <trkpt lat="47.19931" lon="5.96992">
        <ele>258.8</ele>
        <time>2024-08-03T11:01:32Z</time>
      </trkpt>
      <trkpt lat="47.19931" lon="5.97001">
        <ele>258.6</ele>
        <time>2024-08-03T11:01:33Z</time>
      </trkpt>
      <trkpt lat="47.19931" lon="5.97011">
        <ele>258.8</ele>
        <time>2024-08-03T11:01:34Z</time>
      </trkpt>
      <trkpt lat="47.1993" lon="5.9702">
        <ele>258.8</ele>
        <time>2024-08-03T11:01:35Z</time>
      </trkpt>
      <trkpt lat="47.1993" lon="5.9703">
        <ele>258.6</ele>
        <time>2024-08-03T11:01:36Z</time>
      </trkpt>
      <trkpt lat="47.1993" lon="5.9704">
        <ele>258.6</ele>
        <time>2024-08-03T11:01:37Z</time>
      </trkpt>
      <trkpt lat="47.1993" lon="5.97049">
        <ele>258.8</ele>
        <time>2024-08-03T11:01:38Z</time>
      </trkpt>
      <trkpt lat="47.1993" lon="5.97058">
        <ele>258.8</ele>
        <time>2024-08-03T11:01:39Z</time>
      </trkpt>
      <trkpt lat="47.1993" lon="5.97068">
        <ele>258.8</ele>
        <time>2024-08-03T11:01:40Z</time>
      </trkpt>
      <trkpt lat="47.1993" lon="5.97077">
        <ele>258.8</ele>
        <time>2024-08-03T11:01:41Z</time>
      </trkpt>
      <trkpt lat="47.19929" lon="5.97087">
        <ele>258.8</ele>
        <time>2024-08-03T11:01:42Z</time>
      </trkpt>
      <trkpt lat="47.19929" lon="5.97097">
        <ele>258.8</ele>
        <time>2024-08-03T11:01:43Z</time>
      </trkpt>
      <trkpt lat="47.19929" lon="5.97107">
        <ele>259</ele>
        <time>2024-08-03T11:01:44Z</time>
      </trkpt>
      <trkpt lat="47.1993" lon="5.97117">
        <ele>259</ele>
        <time>2024-08-03T11:01:45Z</time>
      </trkpt>
      <trkpt lat="47.19929" lon="5.97126">
        <ele>258.8</ele>
        <time>2024-08-03T11:01:46Z</time>
      </trkpt>
      <trkpt lat="47.19929" lon="5.97137">
        <ele>258.8</ele>
        <time>2024-08-03T11:01:47Z</time>
      </trkpt>
      <trkpt lat="47.19929" lon="5.97147">
        <ele>258.8</ele>
        <time>2024-08-03T11:01:48Z</time>
      </trkpt>
      <trkpt lat="47.19928" lon="5.97156">
        <ele>259</ele>
        <time>2024-08-03T11:01:49Z</time>
      </trkpt>
      <trkpt lat="47.19927" lon="5.97166">
        <ele>258.8</ele>
        <time>2024-08-03T11:01:50Z</time>
      </trkpt>
      <trkpt lat="47.19926" lon="5.97176">
        <ele>259</ele>
        <time>2024-08-03T11:01:51Z</time>
      </trkpt>
      <trkpt lat="47.19926" lon="5.97185">
        <ele>258.8</ele>
        <time>2024-08-03T11:01:52Z</time>
      </trkpt>
      <trkpt lat="47.19925" lon="5.97195">
        <ele>258.8</ele>
        <time>2024-08-03T11:01:53Z</time>
      </trkpt>
      <trkpt lat="47.19924" lon="5.97204">
        <ele>259</ele>
        <time>2024-08-03T11:01:54Z</time>
      </trkpt>
      <trkpt lat="47.19924" lon="5.97214">
        <ele>259</ele>
        <time>2024-08-03T11:01:55Z</time>
      </trkpt>
      <trkpt lat="47.19924" lon="5.97223">
        <ele>258.8</ele>
        <time>2024-08-03T11:01:56Z</time>
      </trkpt>
      <trkpt lat="47.19924" lon="5.97233">
        <ele>258.8</ele>
        <time>2024-08-03T11:01:57Z</time>
      </trkpt>
      <trkpt lat="47.19923" lon="5.97243">
        <ele>258.8</ele>
        <time>2024-08-03T11:01:58Z</time>
      </trkpt>
      <trkpt lat="47.19922" lon="5.97253">
        <ele>258.8</ele>
        <time>2024-08-03T11:01:59Z</time>
      </trkpt>
      <trkpt lat="47.19922" lon="5.97262">
        <ele>258.8</ele>
        <time>2024-08-03T11:02:00Z</time>
      </trkpt>
      <trkpt lat="47.19921" lon="5.97272">
        <ele>258.8</ele>
        <time>2024-08-03T11:02:01Z</time>
      </trkpt>
      <trkpt lat="47.19921" lon="5.97281">
        <ele>258.8</ele>
        <time>2024-08-03T11:02:02Z</time>
      </trkpt>
      <trkpt lat="47.19921" lon="5.9729">
        <ele>258.8</ele>
        <time>2024-08-03T11:02:03Z</time>
      </trkpt>
      <trkpt lat="47.1992" lon="5.973">
        <ele>258.8</ele>
        <time>2024-08-03T11:02:04Z</time>
      </trkpt>
      <trkpt lat="47.1992" lon="5.97309">
        <ele>258.8</ele>
        <time>2024-08-03T11:02:05Z</time>
      </trkpt>
      <trkpt lat="47.19919" lon="5.97318">
        <ele>258.8</ele>
        <time>2024-08-03T11:02:06Z</time>
      </trkpt>
      <trkpt lat="47.19919" lon="5.97327">
        <ele>258.6</ele>
        <time>2024-08-03T11:02:07Z</time>
      </trkpt>
      <trkpt lat="47.19918" lon="5.97336">
        <ele>258.8</ele>
        <time>2024-08-03T11:02:08Z</time>
      </trkpt>
      <trkpt lat="47.19917" lon="5.97346">
        <ele>258.8</ele>
        <time>2024-08-03T11:02:09Z</time>
      </trkpt>
      <trkpt lat="47.19917" lon="5.97355">
        <ele>258.8</ele>
        <time>2024-08-03T11:02:10Z</time>
      </trkpt>
      <trkpt lat="47.19917" lon="5.97364">
        <ele>258.8</ele>
        <time>2024-08-03T11:02:11Z</time>
      </trkpt>
      <trkpt lat="47.19916" lon="5.97373">
        <ele>258.8</ele>
        <time>2024-08-03T11:02:12Z</time>
      </trkpt>
      <trkpt lat="47.19916" lon="5.97382">
        <ele>258.6</ele>
        <time>2024-08-03T11:02:13Z</time>
      </trkpt>
      <trkpt lat="47.19915" lon="5.97391">
        <ele>258.8</ele>
        <time>2024-08-03T11:02:14Z</time>
      </trkpt>
      <trkpt lat="47.19915" lon="5.97401">
        <ele>258.8</ele>
        <time>2024-08-03T11:02:15Z</time>
      </trkpt>
      <trkpt lat="47.19914" lon="5.9741">
        <ele>258.8</ele>
        <time>2024-08-03T11:02:16Z</time>
      </trkpt>
      <trkpt lat="47.19914" lon="5.97419">
        <ele>258.8</ele>
        <time>2024-08-03T11:02:17Z</time>
      </trkpt>
      <trkpt lat="47.19914" lon="5.97429">
        <ele>258.8</ele>
        <time>2024-08-03T11:02:18Z</time>
      </trkpt>
      <trkpt lat="47.19914" lon="5.97438">
        <ele>258.6</ele>
        <time>2024-08-03T11:02:19Z</time>
      </trkpt>
      <trkpt lat="47.19913" lon="5.97447">
        <ele>258.6</ele>
        <time>2024-08-03T11:02:20Z</time>
      </trkpt>
      <trkpt lat="47.19913" lon="5.97455">
        <ele>258.6</ele>
        <time>2024-08-03T11:02:21Z</time>
      </trkpt>
      <trkpt lat="47.19913" lon="5.97464">
        <ele>258.8</ele>
        <time>2024-08-03T11:02:22Z</time>
      </trkpt>
      <trkpt lat="47.19913" lon="5.97474">
        <ele>258.8</ele>
        <time>2024-08-03T11:02:23Z</time>
      </trkpt>
      <trkpt lat="47.19912" lon="5.97482">
        <ele>258.8</ele>
        <time>2024-08-03T11:02:24Z</time>
      </trkpt>
      <trkpt lat="47.19912" lon="5.97491">
        <ele>258.6</ele>
        <time>2024-08-03T11:02:25Z</time>
      </trkpt>
      <trkpt lat="47.19912" lon="5.975">
        <ele>258.6</ele>
        <time>2024-08-03T11:02:26Z</time>
      </trkpt>
      <trkpt lat="47.19912" lon="5.97508">
        <ele>258.6</ele>
        <time>2024-08-03T11:02:27Z</time>
      </trkpt>
      <trkpt lat="47.19911" lon="5.97517">
        <ele>258.4</ele>
        <time>2024-08-03T11:02:28Z</time>
      </trkpt>
      <trkpt lat="47.19911" lon="5.97526">
        <ele>258.6</ele>
        <time>2024-08-03T11:02:29Z</time>
      </trkpt>
      <trkpt lat="47.1991" lon="5.97535">
        <ele>258.4</ele>
        <time>2024-08-03T11:02:30Z</time>
      </trkpt>
      <trkpt lat="47.1991" lon="5.97544">
        <ele>258.6</ele>
        <time>2024-08-03T11:02:31Z</time>
      </trkpt>
      <trkpt lat="47.19909" lon="5.97553">
        <ele>258.4</ele>
        <time>2024-08-03T11:02:32Z</time>
      </trkpt>
      <trkpt lat="47.19909" lon="5.97562">
        <ele>258.4</ele>
        <time>2024-08-03T11:02:33Z</time>
      </trkpt>
      <trkpt lat="47.19908" lon="5.9757">
        <ele>258.6</ele>
        <time>2024-08-03T11:02:34Z</time>
      </trkpt>
      <trkpt lat="47.19908" lon="5.97579">
        <ele>258.4</ele>
        <time>2024-08-03T11:02:35Z</time>
      </trkpt>
      <trkpt lat="47.19908" lon="5.97588">
        <ele>258.4</ele>
        <time>2024-08-03T11:02:36Z</time>
      </trkpt>
      <trkpt lat="47.19907" lon="5.97597">
        <ele>258.4</ele>
        <time>2024-08-03T11:02:37Z</time>
      </trkpt>
      <trkpt lat="47.19907" lon="5.97606">
        <ele>258.6</ele>
        <time>2024-08-03T11:02:38Z</time>
      </trkpt>
      <trkpt lat="47.19906" lon="5.97614">
        <ele>258.6</ele>
        <time>2024-08-03T11:02:39Z</time>
      </trkpt>
      <trkpt lat="47.19906" lon="5.97623">
        <ele>258.6</ele>
        <time>2024-08-03T11:02:40Z</time>
      </trkpt>
      <trkpt lat="47.19906" lon="5.97631">
        <ele>258.8</ele>
        <time>2024-08-03T11:02:41Z</time>
      </trkpt>
      <trkpt lat="47.19905" lon="5.9764">
        <ele>258.6</ele>
        <time>2024-08-03T11:02:42Z</time>
      </trkpt>
      <trkpt lat="47.19905" lon="5.97648">
        <ele>258.6</ele>
        <time>2024-08-03T11:02:43Z</time>
      </trkpt>
      <trkpt lat="47.19904" lon="5.97657">
        <ele>258.6</ele>
        <time>2024-08-03T11:02:44Z</time>
      </trkpt>
      <trkpt lat="47.19903" lon="5.97666">
        <ele>258.6</ele>
        <time>2024-08-03T11:02:45Z</time>
      </trkpt>
      <trkpt lat="47.19903" lon="5.97675">
        <ele>258.6</ele>
        <time>2024-08-03T11:02:46Z</time>
      </trkpt>
      <trkpt lat="47.19902" lon="5.97684">
        <ele>258.8</ele>
        <time>2024-08-03T11:02:47Z</time>
      </trkpt>
      <trkpt lat="47.19902" lon="5.97693">
        <ele>258.6</ele>
        <time>2024-08-03T11:02:48Z</time>
      </trkpt>
      <trkpt lat="47.19902" lon="5.97702">
        <ele>258.6</ele>
        <time>2024-08-03T11:02:49Z</time>
      </trkpt>
      <trkpt lat="47.19901" lon="5.9771">
        <ele>258.8</ele>
        <time>2024-08-03T11:02:50Z</time>
      </trkpt>
      <trkpt lat="47.199" lon="5.97719">
        <ele>258.8</ele>
        <time>2024-08-03T11:02:51Z</time>
      </trkpt>
      <trkpt lat="47.199" lon="5.97728">
        <ele>258.8</ele>
        <time>2024-08-03T11:02:52Z</time>
      </trkpt>
      <trkpt lat="47.19901" lon="5.97738">
        <ele>258.8</ele>
        <time>2024-08-03T11:02:53Z</time>
      </trkpt>
      <trkpt lat="47.19901" lon="5.97747">
        <ele>258.8</ele>
        <time>2024-08-03T11:02:54Z</time>
      </trkpt>
      <trkpt lat="47.19901" lon="5.97756">
        <ele>258.8</ele>
        <time>2024-08-03T11:02:55Z</time>
      </trkpt>
      <trkpt lat="47.19901" lon="5.97765">
        <ele>258.8</ele>
        <time>2024-08-03T11:02:56Z</time>
      </trkpt>
      <trkpt lat="47.19901" lon="5.97774">
        <ele>258.8</ele>
        <time>2024-08-03T11:02:57Z</time>
      </trkpt>
      <trkpt lat="47.199" lon="5.97783">
        <ele>258.8</ele>
        <time>2024-08-03T11:02:58Z</time>
      </trkpt>
      <trkpt lat="47.199" lon="5.97792">
        <ele>258.8</ele>
        <time>2024-08-03T11:02:59Z</time>
      </trkpt>
      <trkpt lat="47.19899" lon="5.97802">
        <ele>258.8</ele>
        <time>2024-08-03T11:03:00Z</time>
      </trkpt>
      <trkpt lat="47.19899" lon="5.97811">
        <ele>258.8</ele>
        <time>2024-08-03T11:03:01Z</time>
      </trkpt>
      <trkpt lat="47.19898" lon="5.97821">
        <ele>259</ele>
        <time>2024-08-03T11:03:02Z</time>
      </trkpt>
      <trkpt lat="47.19898" lon="5.9783">
        <ele>259.2</ele>
        <time>2024-08-03T11:03:03Z</time>
      </trkpt>
      <trkpt lat="47.19897" lon="5.9784">
        <ele>259.2</ele>
        <time>2024-08-03T11:03:04Z</time>
      </trkpt>
      <trkpt lat="47.19896" lon="5.97849">
        <ele>259.2</ele>
        <time>2024-08-03T11:03:05Z</time>
      </trkpt>
      <trkpt lat="47.19895" lon="5.97859">
        <ele>259.2</ele>
        <time>2024-08-03T11:03:06Z</time>
      </trkpt>
      <trkpt lat="47.19894" lon="5.97869">
        <ele>259.2</ele>
        <time>2024-08-03T11:03:07Z</time>
      </trkpt>
      <trkpt lat="47.19893" lon="5.97878">
        <ele>259.2</ele>
        <time>2024-08-03T11:03:08Z</time>
      </trkpt>
      <trkpt lat="47.19892" lon="5.97888">
        <ele>259.4</ele>
        <time>2024-08-03T11:03:09Z</time>
      </trkpt>
      <trkpt lat="47.19891" lon="5.97898">
        <ele>259.4</ele>
        <time>2024-08-03T11:03:10Z</time>
      </trkpt>
      <trkpt lat="47.1989" lon="5.97908">
        <ele>259.2</ele>
        <time>2024-08-03T11:03:11Z</time>
      </trkpt>
      <trkpt lat="47.19889" lon="5.97918">
        <ele>259.2</ele>
        <time>2024-08-03T11:03:12Z</time>
      </trkpt>
      <trkpt lat="47.19889" lon="5.97928">
        <ele>259.2</ele>
        <time>2024-08-03T11:03:13Z</time>
      </trkpt>
      <trkpt lat="47.19888" lon="5.97938">
        <ele>259.2</ele>
        <time>2024-08-03T11:03:14Z</time>
      </trkpt>
      <trkpt lat="47.19889" lon="5.97948">
        <ele>259.4</ele>
        <time>2024-08-03T11:03:15Z</time>
      </trkpt>
      <trkpt lat="47.19889" lon="5.97958">
        <ele>259.2</ele>
        <time>2024-08-03T11:03:16Z</time>
      </trkpt>
      <trkpt lat="47.19888" lon="5.97968">
        <ele>259.4</ele>
        <time>2024-08-03T11:03:17Z</time>
      </trkpt>
      <trkpt lat="47.19888" lon="5.97979">
        <ele>259.2</ele>
        <time>2024-08-03T11:03:18Z</time>
      </trkpt>
      <trkpt lat="47.19888" lon="5.97989">
        <ele>259.4</ele>
        <time>2024-08-03T11:03:19Z</time>
      </trkpt>
      <trkpt lat="47.19887" lon="5.97999">
        <ele>259.4</ele>
        <time>2024-08-03T11:03:20Z</time>
      </trkpt>
      <trkpt lat="47.19885" lon="5.98009">
        <ele>259.2</ele>
        <time>2024-08-03T11:03:21Z</time>
      </trkpt>
      <trkpt lat="47.19884" lon="5.98019">
        <ele>259.4</ele>
        <time>2024-08-03T11:03:22Z</time>
      </trkpt>
      <trkpt lat="47.19883" lon="5.98029">
        <ele>259.4</ele>
        <time>2024-08-03T11:03:23Z</time>
      </trkpt>
      <trkpt lat="47.19881" lon="5.98039">
        <ele>259.4</ele>
        <time>2024-08-03T11:03:24Z</time>
      </trkpt>
      <trkpt lat="47.19879" lon="5.98048">
        <ele>259.2</ele>
        <time>2024-08-03T11:03:25Z</time>
      </trkpt>
      <trkpt lat="47.19878" lon="5.98058">
        <ele>259.2</ele>
        <time>2024-08-03T11:03:26Z</time>
      </trkpt>
      <trkpt lat="47.19876" lon="5.98068">
        <ele>259.2</ele>
        <time>2024-08-03T11:03:27Z</time>
      </trkpt>
      <trkpt lat="47.19874" lon="5.98078">
        <ele>259.4</ele>
        <time>2024-08-03T11:03:28Z</time>
      </trkpt>
      <trkpt lat="47.19872" lon="5.98087">
        <ele>259.4</ele>
        <time>2024-08-03T11:03:29Z</time>
      </trkpt>
      <trkpt lat="47.1987" lon="5.98097">
        <ele>259.4</ele>
        <time>2024-08-03T11:03:30Z</time>
      </trkpt>
      <trkpt lat="47.19868" lon="5.98107">
        <ele>259.2</ele>
        <time>2024-08-03T11:03:31Z</time>
      </trkpt>
      <trkpt lat="47.19866" lon="5.98116">
        <ele>259.2</ele>
        <time>2024-08-03T11:03:32Z</time>
      </trkpt>
      <trkpt lat="47.19865" lon="5.98126">
        <ele>259.4</ele>
        <time>2024-08-03T11:03:33Z</time>
      </trkpt>
      <trkpt lat="47.19864" lon="5.98136">
        <ele>259.6</ele>
        <time>2024-08-03T11:03:34Z</time>
      </trkpt>
      <trkpt lat="47.19864" lon="5.98146">
        <ele>259.4</ele>
        <time>2024-08-03T11:03:35Z</time>
      </trkpt>
      <trkpt lat="47.19864" lon="5.98156">
        <ele>259.4</ele>
        <time>2024-08-03T11:03:36Z</time>
      </trkpt>
      <trkpt lat="47.19863" lon="5.98166">
        <ele>259.4</ele>
        <time>2024-08-03T11:03:37Z</time>
      </trkpt>
      <trkpt lat="47.19863" lon="5.98176">
        <ele>259.4</ele>
        <time>2024-08-03T11:03:38Z</time>
      </trkpt>
      <trkpt lat="47.19861" lon="5.98186">
        <ele>259.4</ele>
        <time>2024-08-03T11:03:39Z</time>
      </trkpt>
      <trkpt lat="47.19859" lon="5.98196">
        <ele>259.4</ele>
        <time>2024-08-03T11:03:40Z</time>
      </trkpt>
      <trkpt lat="47.19856" lon="5.98205">
        <ele>259.4</ele>
        <time>2024-08-03T11:03:41Z</time>
      </trkpt>
      <trkpt lat="47.19853" lon="5.98213">
        <ele>259.6</ele>
        <time>2024-08-03T11:03:42Z</time>
      </trkpt>
      <trkpt lat="47.19849" lon="5.98222">
        <ele>259.6</ele>
        <time>2024-08-03T11:03:43Z</time>
      </trkpt>
      <trkpt lat="47.19846" lon="5.9823">
        <ele>259.6</ele>
        <time>2024-08-03T11:03:44Z</time>
      </trkpt>
      <trkpt lat="47.19841" lon="5.98238">
        <ele>259.6</ele>
        <time>2024-08-03T11:03:45Z</time>
      </trkpt>
      <trkpt lat="47.19837" lon="5.98245">
        <ele>259.6</ele>
        <time>2024-08-03T11:03:46Z</time>
      </trkpt>
      <trkpt lat="47.19833" lon="5.98252">
        <ele>259.8</ele>
        <time>2024-08-03T11:03:47Z</time>
      </trkpt>
      <trkpt lat="47.19829" lon="5.98259">
        <ele>259.8</ele>
        <time>2024-08-03T11:03:48Z</time>
      </trkpt>
      <trkpt lat="47.19825" lon="5.98267">
        <ele>259.8</ele>
        <time>2024-08-03T11:03:49Z</time>
      </trkpt>
      <trkpt lat="47.19822" lon="5.98273">
        <ele>259.8</ele>
        <time>2024-08-03T11:03:50Z</time>
      </trkpt>
      <trkpt lat="47.19818" lon="5.9828">
        <ele>259.8</ele>
        <time>2024-08-03T11:03:51Z</time>
      </trkpt>
      <trkpt lat="47.19815" lon="5.98287">
        <ele>260</ele>
        <time>2024-08-03T11:03:52Z</time>
      </trkpt>
      <trkpt lat="47.19813" lon="5.98295">
        <ele>260</ele>
        <time>2024-08-03T11:03:53Z</time>
      </trkpt>
      <trkpt lat="47.1981" lon="5.98304">
        <ele>260.2</ele>
        <time>2024-08-03T11:03:54Z</time>
      </trkpt>
      <trkpt lat="47.19808" lon="5.98313">
        <ele>260.4</ele>
        <time>2024-08-03T11:03:55Z</time>
      </trkpt>
      <trkpt lat="47.19807" lon="5.98322">
        <ele>260.4</ele>
        <time>2024-08-03T11:03:56Z</time>
      </trkpt>
      <trkpt lat="47.19805" lon="5.98332">
        <ele>260.4</ele>
        <time>2024-08-03T11:03:57Z</time>
      </trkpt>
      <trkpt lat="47.19804" lon="5.98341">
        <ele>260.6</ele>
        <time>2024-08-03T11:03:58Z</time>
      </trkpt>
      <trkpt lat="47.19802" lon="5.98351">
        <ele>260.6</ele>
        <time>2024-08-03T11:03:59Z</time>
      </trkpt>
      <trkpt lat="47.19801" lon="5.98361">
        <ele>260.6</ele>
        <time>2024-08-03T11:04:00Z</time>
      </trkpt>
      <trkpt lat="47.198" lon="5.98371">
        <ele>260.6</ele>
        <time>2024-08-03T11:04:01Z</time>
      </trkpt>
      <trkpt lat="47.198" lon="5.98381">
        <ele>260.6</ele>
        <time>2024-08-03T11:04:02Z</time>
      </trkpt>
      <trkpt lat="47.198" lon="5.98392">
        <ele>260.6</ele>
        <time>2024-08-03T11:04:03Z</time>
      </trkpt>
      <trkpt lat="47.198" lon="5.98402">
        <ele>260.4</ele>
        <time>2024-08-03T11:04:04Z</time>
      </trkpt>
      <trkpt lat="47.198" lon="5.98412">
        <ele>260.4</ele>
        <time>2024-08-03T11:04:05Z</time>
      </trkpt>
      <trkpt lat="47.198" lon="5.98422">
        <ele>260.4</ele>
        <time>2024-08-03T11:04:06Z</time>
      </trkpt>
      <trkpt lat="47.19802" lon="5.98433">
        <ele>260.4</ele>
        <time>2024-08-03T11:04:07Z</time>
      </trkpt>
      <trkpt lat="47.19803" lon="5.98444">
        <ele>260.2</ele>
        <time>2024-08-03T11:04:08Z</time>
      </trkpt>
      <trkpt lat="47.19805" lon="5.98454">
        <ele>260.4</ele>
        <time>2024-08-03T11:04:09Z</time>
      </trkpt>
      <trkpt lat="47.19806" lon="5.98465">
        <ele>260.2</ele>
        <time>2024-08-03T11:04:10Z</time>
      </trkpt>
      <trkpt lat="47.19808" lon="5.98475">
        <ele>260.2</ele>
        <time>2024-08-03T11:04:11Z</time>
      </trkpt>
      <trkpt lat="47.19811" lon="5.98485">
        <ele>260.2</ele>
        <time>2024-08-03T11:04:12Z</time>
      </trkpt>
      <trkpt lat="47.19814" lon="5.98495">
        <ele>260.2</ele>
        <time>2024-08-03T11:04:13Z</time>
      </trkpt>
      <trkpt lat="47.19816" lon="5.98504">
        <ele>260.2</ele>
        <time>2024-08-03T11:04:14Z</time>
      </trkpt>
      <trkpt lat="47.19818" lon="5.98514">
        <ele>260.2</ele>
        <time>2024-08-03T11:04:15Z</time>
      </trkpt>
      <trkpt lat="47.19821" lon="5.98523">
        <ele>260</ele>
        <time>2024-08-03T11:04:16Z</time>
      </trkpt>
      <trkpt lat="47.19824" lon="5.98532">
        <ele>260.2</ele>
        <time>2024-08-03T11:04:17Z</time>
      </trkpt>
      <trkpt lat="47.19827" lon="5.98541">
        <ele>260</ele>
        <time>2024-08-03T11:04:18Z</time>
      </trkpt>
      <trkpt lat="47.19831" lon="5.9855">
        <ele>260</ele>
        <time>2024-08-03T11:04:19Z</time>
      </trkpt>
      <trkpt lat="47.19834" lon="5.98559">
        <ele>260.2</ele>
        <time>2024-08-03T11:04:20Z</time>
      </trkpt>
      <trkpt lat="47.19837" lon="5.98568">
        <ele>260.2</ele>
        <time>2024-08-03T11:04:21Z</time>
      </trkpt>
      <trkpt lat="47.1984" lon="5.98577">
        <ele>260.2</ele>
        <time>2024-08-03T11:04:22Z</time>
      </trkpt>
      <trkpt lat="47.19844" lon="5.98586">
        <ele>260.2</ele>
        <time>2024-08-03T11:04:23Z</time>
      </trkpt>
      <trkpt lat="47.19848" lon="5.98596">
        <ele>260</ele>
        <time>2024-08-03T11:04:24Z</time>
      </trkpt>
      <trkpt lat="47.19852" lon="5.98605">
        <ele>260</ele>
        <time>2024-08-03T11:04:25Z</time>
      </trkpt>
      <trkpt lat="47.19855" lon="5.98613">
        <ele>260</ele>
        <time>2024-08-03T11:04:26Z</time>
      </trkpt>
      <trkpt lat="47.19858" lon="5.98622">
        <ele>260.2</ele>
        <time>2024-08-03T11:04:27Z</time>
      </trkpt>
      <trkpt lat="47.19861" lon="5.98631">
        <ele>260</ele>
        <time>2024-08-03T11:04:28Z</time>
      </trkpt>
      <trkpt lat="47.19863" lon="5.98639">
        <ele>260</ele>
        <time>2024-08-03T11:04:29Z</time>
      </trkpt>
      <trkpt lat="47.19866" lon="5.98647">
        <ele>260</ele>
        <time>2024-08-03T11:04:30Z</time>
      </trkpt>
      <trkpt lat="47.19869" lon="5.98656">
        <ele>260</ele>
        <time>2024-08-03T11:04:31Z</time>
      </trkpt>
      <trkpt lat="47.19872" lon="5.98664">
        <ele>260</ele>
        <time>2024-08-03T11:04:32Z</time>
      </trkpt>
      <trkpt lat="47.19875" lon="5.98673">
        <ele>260</ele>
        <time>2024-08-03T11:04:33Z</time>
      </trkpt>
      <trkpt lat="47.19879" lon="5.98681">
        <ele>259.8</ele>
        <time>2024-08-03T11:04:34Z</time>
      </trkpt>
      <trkpt lat="47.19881" lon="5.98689">
        <ele>259.8</ele>
        <time>2024-08-03T11:04:35Z</time>
      </trkpt>
      <trkpt lat="47.19884" lon="5.98698">
        <ele>260</ele>
        <time>2024-08-03T11:04:36Z</time>
      </trkpt>
      <trkpt lat="47.19887" lon="5.98706">
        <ele>260</ele>
        <time>2024-08-03T11:04:37Z</time>
      </trkpt>
      <trkpt lat="47.1989" lon="5.98714">
        <ele>260</ele>
        <time>2024-08-03T11:04:38Z</time>
      </trkpt>
      <trkpt lat="47.19893" lon="5.98723">
        <ele>259.8</ele>
        <time>2024-08-03T11:04:39Z</time>
      </trkpt>
      <trkpt lat="47.19897" lon="5.98731">
        <ele>259.8</ele>
        <time>2024-08-03T11:04:40Z</time>
      </trkpt>
      <trkpt lat="47.199" lon="5.98739">
        <ele>259.8</ele>
        <time>2024-08-03T11:04:41Z</time>
      </trkpt>
      <trkpt lat="47.19903" lon="5.98748">
        <ele>259.8</ele>
        <time>2024-08-03T11:04:42Z</time>
      </trkpt>
      <trkpt lat="47.19907" lon="5.98756">
        <ele>259.8</ele>
        <time>2024-08-03T11:04:43Z</time>
      </trkpt>
      <trkpt lat="47.1991" lon="5.98765">
        <ele>259.6</ele>
        <time>2024-08-03T11:04:44Z</time>
      </trkpt>
      <trkpt lat="47.19914" lon="5.98773">
        <ele>259.8</ele>
        <time>2024-08-03T11:04:45Z</time>
      </trkpt>
      <trkpt lat="47.19918" lon="5.98782">
        <ele>259.8</ele>
        <time>2024-08-03T11:04:46Z</time>
      </trkpt>
      <trkpt lat="47.19921" lon="5.9879">
        <ele>259.8</ele>
        <time>2024-08-03T11:04:47Z</time>
      </trkpt>
      <trkpt lat="47.19924" lon="5.98799">
        <ele>259.8</ele>
        <time>2024-08-03T11:04:48Z</time>
      </trkpt>
      <trkpt lat="47.19927" lon="5.98808">
        <ele>259.8</ele>
        <time>2024-08-03T11:04:49Z</time>
      </trkpt>
      <trkpt lat="47.1993" lon="5.98816">
        <ele>259.8</ele>
        <time>2024-08-03T11:04:50Z</time>
      </trkpt>
      <trkpt lat="47.19934" lon="5.98825">
        <ele>259.6</ele>
        <time>2024-08-03T11:04:51Z</time>
      </trkpt>
      <trkpt lat="47.19937" lon="5.98833">
        <ele>259.8</ele>
        <time>2024-08-03T11:04:52Z</time>
      </trkpt>
      <trkpt lat="47.19943" lon="5.98843">
        <ele>259.8</ele>
        <time>2024-08-03T11:04:53Z</time>
      </trkpt>
      <trkpt lat="47.19948" lon="5.98853">
        <ele>259.8</ele>
        <time>2024-08-03T11:04:54Z</time>
      </trkpt>
      <trkpt lat="47.19951" lon="5.98863">
        <ele>259.8</ele>
        <time>2024-08-03T11:04:55Z</time>
      </trkpt>
      <trkpt lat="47.19954" lon="5.98871">
        <ele>259.8</ele>
        <time>2024-08-03T11:04:56Z</time>
      </trkpt>
      <trkpt lat="47.19957" lon="5.9888">
        <ele>259.8</ele>
        <time>2024-08-03T11:04:57Z</time>
      </trkpt>
      <trkpt lat="47.1996" lon="5.9889">
        <ele>259.8</ele>
        <time>2024-08-03T11:04:58Z</time>
      </trkpt>
      <trkpt lat="47.19962" lon="5.98899">
        <ele>259.6</ele>
        <time>2024-08-03T11:04:59Z</time>
      </trkpt>
      <trkpt lat="47.19965" lon="5.98908">
        <ele>259.8</ele>
        <time>2024-08-03T11:05:00Z</time>
      </trkpt>
      <trkpt lat="47.19968" lon="5.98917">
        <ele>259.8</ele>
        <time>2024-08-03T11:05:01Z</time>
      </trkpt>
      <trkpt lat="47.1997" lon="5.98926">
        <ele>259.6</ele>
        <time>2024-08-03T11:05:02Z</time>
      </trkpt>
      <trkpt lat="47.19973" lon="5.98934">
        <ele>259.6</ele>
        <time>2024-08-03T11:05:03Z</time>
      </trkpt>
      <trkpt lat="47.19977" lon="5.98944">
        <ele>259.8</ele>
        <time>2024-08-03T11:05:04Z</time>
      </trkpt>
      <trkpt lat="47.19981" lon="5.98952">
        <ele>259.6</ele>
        <time>2024-08-03T11:05:05Z</time>
      </trkpt>
      <trkpt lat="47.19985" lon="5.98961">
        <ele>259.6</ele>
        <time>2024-08-03T11:05:06Z</time>
      </trkpt>
      <trkpt lat="47.19988" lon="5.98969">
        <ele>259.6</ele>
        <time>2024-08-03T11:05:07Z</time>
      </trkpt>
      <trkpt lat="47.19992" lon="5.98977">
        <ele>259.6</ele>
        <time>2024-08-03T11:05:08Z</time>
      </trkpt>
      <trkpt lat="47.19994" lon="5.98986">
        <ele>259.4</ele>
        <time>2024-08-03T11:05:09Z</time>
      </trkpt>
      <trkpt lat="47.19998" lon="5.98994">
        <ele>259.6</ele>
        <time>2024-08-03T11:05:10Z</time>
      </trkpt>
      <trkpt lat="47.20001" lon="5.99002">
        <ele>259.6</ele>
        <time>2024-08-03T11:05:11Z</time>
      </trkpt>
      <trkpt lat="47.20005" lon="5.99009">
        <ele>259.6</ele>
        <time>2024-08-03T11:05:12Z</time>
      </trkpt>
      <trkpt lat="47.20008" lon="5.99017">
        <ele>259.6</ele>
        <time>2024-08-03T11:05:13Z</time>
      </trkpt>
      <trkpt lat="47.20012" lon="5.99024">
        <ele>259.6</ele>
        <time>2024-08-03T11:05:14Z</time>
      </trkpt>
      <trkpt lat="47.20015" lon="5.99032">
        <ele>259.6</ele>
        <time>2024-08-03T11:05:15Z</time>
      </trkpt>
      <trkpt lat="47.20019" lon="5.9904">
        <ele>259.4</ele>
        <time>2024-08-03T11:05:16Z</time>
      </trkpt>
      <trkpt lat="47.20022" lon="5.99048">
        <ele>259.6</ele>
        <time>2024-08-03T11:05:17Z</time>
      </trkpt>
      <trkpt lat="47.20024" lon="5.99056">
        <ele>259.6</ele>
        <time>2024-08-03T11:05:18Z</time>
      </trkpt>
      <trkpt lat="47.20026" lon="5.99065">
        <ele>259.6</ele>
        <time>2024-08-03T11:05:19Z</time>
      </trkpt>
      <trkpt lat="47.20027" lon="5.99074">
        <ele>259.6</ele>
        <time>2024-08-03T11:05:20Z</time>
      </trkpt>
      <trkpt lat="47.20027" lon="5.99083">
        <ele>259.8</ele>
        <time>2024-08-03T11:05:21Z</time>
      </trkpt>
      <trkpt lat="47.20027" lon="5.99092">
        <ele>259.8</ele>
        <time>2024-08-03T11:05:22Z</time>
      </trkpt>
      <trkpt lat="47.20028" lon="5.99102">
        <ele>260</ele>
        <time>2024-08-03T11:05:23Z</time>
      </trkpt>
      <trkpt lat="47.20028" lon="5.99111">
        <ele>260</ele>
        <time>2024-08-03T11:05:24Z</time>
      </trkpt>
      <trkpt lat="47.20029" lon="5.99119">
        <ele>260</ele>
        <time>2024-08-03T11:05:25Z</time>
      </trkpt>
      <trkpt lat="47.20031" lon="5.99127">
        <ele>260.2</ele>
        <time>2024-08-03T11:05:26Z</time>
      </trkpt>
      <trkpt lat="47.20033" lon="5.99134">
        <ele>260.2</ele>
        <time>2024-08-03T11:05:27Z</time>
      </trkpt>
      <trkpt lat="47.20035" lon="5.9914">
        <ele>260.2</ele>
        <time>2024-08-03T11:05:28Z</time>
      </trkpt>
      <trkpt lat="47.20038" lon="5.99146">
        <ele>260.4</ele>
        <time>2024-08-03T11:05:29Z</time>
      </trkpt>
      <trkpt lat="47.20041" lon="5.99153">
        <ele>260.4</ele>
        <time>2024-08-03T11:05:30Z</time>
      </trkpt>
      <trkpt lat="47.20045" lon="5.9916">
        <ele>260.4</ele>
        <time>2024-08-03T11:05:31Z</time>
      </trkpt>
      <trkpt lat="47.20048" lon="5.99166">
        <ele>260.4</ele>
        <time>2024-08-03T11:05:32Z</time>
      </trkpt>
      <trkpt lat="47.20051" lon="5.99173">
        <ele>260.8</ele>
        <time>2024-08-03T11:05:33Z</time>
      </trkpt>
      <trkpt lat="47.20054" lon="5.9918">
        <ele>260.8</ele>
        <time>2024-08-03T11:05:34Z</time>
      </trkpt>
      <trkpt lat="47.20058" lon="5.99187">
        <ele>261</ele>
        <time>2024-08-03T11:05:35Z</time>
      </trkpt>
      <trkpt lat="47.20062" lon="5.99194">
        <ele>261</ele>
        <time>2024-08-03T11:05:36Z</time>
      </trkpt>
      <trkpt lat="47.20066" lon="5.99202">
        <ele>261.2</ele>
        <time>2024-08-03T11:05:37Z</time>
      </trkpt>
      <trkpt lat="47.2007" lon="5.99209">
        <ele>261.2</ele>
        <time>2024-08-03T11:05:38Z</time>
      </trkpt>
      <trkpt lat="47.20073" lon="5.99216">
        <ele>261.4</ele>
        <time>2024-08-03T11:05:39Z</time>
      </trkpt>
      <trkpt lat="47.20077" lon="5.99222">
        <ele>261.4</ele>
        <time>2024-08-03T11:05:40Z</time>
      </trkpt>
      <trkpt lat="47.20082" lon="5.99229">
        <ele>261.4</ele>
        <time>2024-08-03T11:05:41Z</time>
      </trkpt>
      <trkpt lat="47.20085" lon="5.99235">
        <ele>261.6</ele>
        <time>2024-08-03T11:05:42Z</time>
      </trkpt>
      <trkpt lat="47.2009" lon="5.99242">
        <ele>261.4</ele>
        <time>2024-08-03T11:05:43Z</time>
      </trkpt>
      <trkpt lat="47.20094" lon="5.99248">
        <ele>261.6</ele>
        <time>2024-08-03T11:05:44Z</time>
      </trkpt>
      <trkpt lat="47.20099" lon="5.99254">
        <ele>261.6</ele>
        <time>2024-08-03T11:05:45Z</time>
      </trkpt>
      <trkpt lat="47.20104" lon="5.9926">
        <ele>261.4</ele>
        <time>2024-08-03T11:05:46Z</time>
      </trkpt>
      <trkpt lat="47.20108" lon="5.99266">
        <ele>261.4</ele>
        <time>2024-08-03T11:05:47Z</time>
      </trkpt>
      <trkpt lat="47.20113" lon="5.99273">
        <ele>261.6</ele>
        <time>2024-08-03T11:05:48Z</time>
      </trkpt>
      <trkpt lat="47.20117" lon="5.9928">
        <ele>261.6</ele>
        <time>2024-08-03T11:05:49Z</time>
      </trkpt>
      <trkpt lat="47.20122" lon="5.99286">
        <ele>261.4</ele>
        <time>2024-08-03T11:05:50Z</time>
      </trkpt>
      <trkpt lat="47.20127" lon="5.99293">
        <ele>261.4</ele>
        <time>2024-08-03T11:05:51Z</time>
      </trkpt>
      <trkpt lat="47.20133" lon="5.99299">
        <ele>261.4</ele>
        <time>2024-08-03T11:05:52Z</time>
      </trkpt>
      <trkpt lat="47.20139" lon="5.99305">
        <ele>261.6</ele>
        <time>2024-08-03T11:05:53Z</time>
      </trkpt>
      <trkpt lat="47.20144" lon="5.99311">
        <ele>261.4</ele>
        <time>2024-08-03T11:05:54Z</time>
      </trkpt>
      <trkpt lat="47.2015" lon="5.99316">
        <ele>261.4</ele>
        <time>2024-08-03T11:05:55Z</time>
      </trkpt>
      <trkpt lat="47.20155" lon="5.99321">
        <ele>261.4</ele>
        <time>2024-08-03T11:05:56Z</time>
      </trkpt>
      <trkpt lat="47.20161" lon="5.99327">
        <ele>261.2</ele>
        <time>2024-08-03T11:05:57Z</time>
      </trkpt>
      <trkpt lat="47.20167" lon="5.99333">
        <ele>261.2</ele>
        <time>2024-08-03T11:05:58Z</time>
      </trkpt>
      <trkpt lat="47.20172" lon="5.99338">
        <ele>261</ele>
        <time>2024-08-03T11:05:59Z</time>
      </trkpt>
      <trkpt lat="47.20178" lon="5.99344">
        <ele>261.2</ele>
        <time>2024-08-03T11:06:00Z</time>
      </trkpt>
      <trkpt lat="47.20184" lon="5.99349">
        <ele>261.2</ele>
        <time>2024-08-03T11:06:01Z</time>
      </trkpt>
      <trkpt lat="47.2019" lon="5.99354">
        <ele>261.2</ele>
        <time>2024-08-03T11:06:02Z</time>
      </trkpt>
      <trkpt lat="47.20196" lon="5.99358">
        <ele>261</ele>
        <time>2024-08-03T11:06:03Z</time>
      </trkpt>
      <trkpt lat="47.20202" lon="5.99363">
        <ele>260.8</ele>
        <time>2024-08-03T11:06:04Z</time>
      </trkpt>
      <trkpt lat="47.20208" lon="5.99369">
        <ele>260.8</ele>
        <time>2024-08-03T11:06:05Z</time>
      </trkpt>
      <trkpt lat="47.20213" lon="5.99373">
        <ele>260.8</ele>
        <time>2024-08-03T11:06:06Z</time>
      </trkpt>
      <trkpt lat="47.20219" lon="5.99378">
        <ele>260.8</ele>
        <time>2024-08-03T11:06:07Z</time>
      </trkpt>
      <trkpt lat="47.20224" lon="5.99382">
        <ele>260.6</ele>
        <time>2024-08-03T11:06:08Z</time>
      </trkpt>
      <trkpt lat="47.20229" lon="5.99387">
        <ele>260.6</ele>
        <time>2024-08-03T11:06:09Z</time>
      </trkpt>
      <trkpt lat="47.20235" lon="5.99391">
        <ele>260.4</ele>
        <time>2024-08-03T11:06:10Z</time>
      </trkpt>
      <trkpt lat="47.20241" lon="5.99395">
        <ele>260.4</ele>
        <time>2024-08-03T11:06:11Z</time>
      </trkpt>
      <trkpt lat="47.20247" lon="5.99399">
        <ele>260.6</ele>
        <time>2024-08-03T11:06:12Z</time>
      </trkpt>
      <trkpt lat="47.20252" lon="5.99403">
        <ele>260.6</ele>
        <time>2024-08-03T11:06:13Z</time>
      </trkpt>
      <trkpt lat="47.20258" lon="5.99407">
        <ele>260.4</ele>
        <time>2024-08-03T11:06:14Z</time>
      </trkpt>
      <trkpt lat="47.20264" lon="5.99411">
        <ele>260.4</ele>
        <time>2024-08-03T11:06:15Z</time>
      </trkpt>
      <trkpt lat="47.20271" lon="5.99415">
        <ele>260.4</ele>
        <time>2024-08-03T11:06:16Z</time>
      </trkpt>
      <trkpt lat="47.20277" lon="5.99418">
        <ele>260.4</ele>
        <time>2024-08-03T11:06:17Z</time>
      </trkpt>
      <trkpt lat="47.20283" lon="5.99421">
        <ele>260.4</ele>
        <time>2024-08-03T11:06:18Z</time>
      </trkpt>
      <trkpt lat="47.2029" lon="5.99425">
        <ele>260.4</ele>
        <time>2024-08-03T11:06:19Z</time>
      </trkpt>
      <trkpt lat="47.20296" lon="5.99428">
        <ele>260.4</ele>
        <time>2024-08-03T11:06:20Z</time>
      </trkpt>
      <trkpt lat="47.20302" lon="5.99431">
        <ele>260.2</ele>
        <time>2024-08-03T11:06:21Z</time>
      </trkpt>
      <trkpt lat="47.20308" lon="5.99434">
        <ele>260.2</ele>
        <time>2024-08-03T11:06:22Z</time>
      </trkpt>
      <trkpt lat="47.20315" lon="5.99437">
        <ele>260</ele>
        <time>2024-08-03T11:06:23Z</time>
      </trkpt>
      <trkpt lat="47.20321" lon="5.99439">
        <ele>260</ele>
        <time>2024-08-03T11:06:24Z</time>
      </trkpt>
      <trkpt lat="47.20327" lon="5.99442">
        <ele>260</ele>
        <time>2024-08-03T11:06:25Z</time>
      </trkpt>
      <trkpt lat="47.20333" lon="5.99444">
        <ele>260</ele>
        <time>2024-08-03T11:06:26Z</time>
      </trkpt>
      <trkpt lat="47.20339" lon="5.99447">
        <ele>260</ele>
        <time>2024-08-03T11:06:27Z</time>
      </trkpt>
      <trkpt lat="47.20344" lon="5.99449">
        <ele>260.2</ele>
        <time>2024-08-03T11:06:28Z</time>
      </trkpt>
      <trkpt lat="47.2035" lon="5.99451">
        <ele>260</ele>
        <time>2024-08-03T11:06:29Z</time>
      </trkpt>
      <trkpt lat="47.20356" lon="5.99453">
        <ele>259.8</ele>
        <time>2024-08-03T11:06:30Z</time>
      </trkpt>
      <trkpt lat="47.20361" lon="5.99456">
        <ele>260</ele>
        <time>2024-08-03T11:06:31Z</time>
      </trkpt>
      <trkpt lat="47.20367" lon="5.99457">
        <ele>259.8</ele>
        <time>2024-08-03T11:06:32Z</time>
      </trkpt>
      <trkpt lat="47.20372" lon="5.99459">
        <ele>260</ele>
        <time>2024-08-03T11:06:33Z</time>
      </trkpt>
      <trkpt lat="47.20378" lon="5.99461">
        <ele>260</ele>
        <time>2024-08-03T11:06:34Z</time>
      </trkpt>
      <trkpt lat="47.20384" lon="5.99464">
        <ele>260</ele>
        <time>2024-08-03T11:06:35Z</time>
      </trkpt>
      <trkpt lat="47.2039" lon="5.99466">
        <ele>260</ele>
        <time>2024-08-03T11:06:36Z</time>
      </trkpt>
      <trkpt lat="47.20397" lon="5.99468">
        <ele>259.8</ele>
        <time>2024-08-03T11:06:37Z</time>
      </trkpt>
      <trkpt lat="47.20403" lon="5.9947">
        <ele>259.8</ele>
        <time>2024-08-03T11:06:38Z</time>
      </trkpt>
      <trkpt lat="47.20409" lon="5.99472">
        <ele>260</ele>
        <time>2024-08-03T11:06:39Z</time>
      </trkpt>
      <trkpt lat="47.20414" lon="5.99474">
        <ele>259.8</ele>
        <time>2024-08-03T11:06:40Z</time>
      </trkpt>
      <trkpt lat="47.2042" lon="5.99476">
        <ele>259.8</ele>
        <time>2024-08-03T11:06:41Z</time>
      </trkpt>
      <trkpt lat="47.20425" lon="5.99477">
        <ele>259.8</ele>
        <time>2024-08-03T11:06:42Z</time>
      </trkpt>
      <trkpt lat="47.2043" lon="5.99479">
        <ele>260</ele>
        <time>2024-08-03T11:06:43Z</time>
      </trkpt>
      <trkpt lat="47.20434" lon="5.99481">
        <ele>259.8</ele>
        <time>2024-08-03T11:06:44Z</time>
      </trkpt>
      <trkpt lat="47.20438" lon="5.99482">
        <ele>259.8</ele>
        <time>2024-08-03T11:06:45Z</time>
      </trkpt>
      <trkpt lat="47.20442" lon="5.99484">
        <ele>259.8</ele>
        <time>2024-08-03T11:06:46Z</time>
      </trkpt>
      <trkpt lat="47.20445" lon="5.99486">
        <ele>259.8</ele>
        <time>2024-08-03T11:06:47Z</time>
      </trkpt>
      <trkpt lat="47.20449" lon="5.99487">
        <ele>259.8</ele>
        <time>2024-08-03T11:06:48Z</time>
      </trkpt>
      <trkpt lat="47.20452" lon="5.99488">
        <ele>259.8</ele>
        <time>2024-08-03T11:06:49Z</time>
      </trkpt>
      <trkpt lat="47.20455" lon="5.9949">
        <ele>260</ele>
        <time>2024-08-03T11:06:50Z</time>
      </trkpt>
      <trkpt lat="47.20458" lon="5.99493">
        <ele>260</ele>
        <time>2024-08-03T11:06:51Z</time>
      </trkpt>
      <trkpt lat="47.20462" lon="5.99496">
        <ele>259.8</ele>
        <time>2024-08-03T11:06:52Z</time>
      </trkpt>
      <trkpt lat="47.20466" lon="5.99498">
        <ele>259.8</ele>
        <time>2024-08-03T11:06:53Z</time>
      </trkpt>
      <trkpt lat="47.20471" lon="5.99501">
        <ele>259.8</ele>
        <time>2024-08-03T11:06:54Z</time>
      </trkpt>
      <trkpt lat="47.20476" lon="5.99504">
        <ele>259.8</ele>
        <time>2024-08-03T11:06:55Z</time>
      </trkpt>
      <trkpt lat="47.2048" lon="5.99507">
        <ele>260</ele>
        <time>2024-08-03T11:06:56Z</time>
      </trkpt>
      <trkpt lat="47.20485" lon="5.99509">
        <ele>259.8</ele>
        <time>2024-08-03T11:06:57Z</time>
      </trkpt>
      <trkpt lat="47.2049" lon="5.99512">
        <ele>259.8</ele>
        <time>2024-08-03T11:06:58Z</time>
      </trkpt>
      <trkpt lat="47.20495" lon="5.99514">
        <ele>259.8</ele>
        <time>2024-08-03T11:06:59Z</time>
      </trkpt>
      <trkpt lat="47.205" lon="5.99515">
        <ele>259.8</ele>
        <time>2024-08-03T11:07:00Z</time>
      </trkpt>
      <trkpt lat="47.20505" lon="5.99517">
        <ele>259.8</ele>
        <time>2024-08-03T11:07:01Z</time>
      </trkpt>
      <trkpt lat="47.2051" lon="5.99519">
        <ele>260</ele>
        <time>2024-08-03T11:07:02Z</time>
      </trkpt>
      <trkpt lat="47.20515" lon="5.99522">
        <ele>259.8</ele>
        <time>2024-08-03T11:07:03Z</time>
      </trkpt>
      <trkpt lat="47.2052" lon="5.99524">
        <ele>259.8</ele>
        <time>2024-08-03T11:07:04Z</time>
      </trkpt>
      <trkpt lat="47.20526" lon="5.99528">
        <ele>259.8</ele>
        <time>2024-08-03T11:07:05Z</time>
      </trkpt>
      <trkpt lat="47.20531" lon="5.9953">
        <ele>259.8</ele>
        <time>2024-08-03T11:07:06Z</time>
      </trkpt>
      <trkpt lat="47.20537" lon="5.99532">
        <ele>260</ele>
        <time>2024-08-03T11:07:07Z</time>
      </trkpt>
      <trkpt lat="47.20542" lon="5.99535">
        <ele>260</ele>
        <time>2024-08-03T11:07:08Z</time>
      </trkpt>
      <trkpt lat="47.20547" lon="5.99537">
        <ele>259.8</ele>
        <time>2024-08-03T11:07:09Z</time>
      </trkpt>
      <trkpt lat="47.20552" lon="5.99538">
        <ele>259.8</ele>
        <time>2024-08-03T11:07:10Z</time>
      </trkpt>
      <trkpt lat="47.20558" lon="5.9954">
        <ele>259.8</ele>
        <time>2024-08-03T11:07:11Z</time>
      </trkpt>
      <trkpt lat="47.20563" lon="5.99541">
        <ele>259.8</ele>
        <time>2024-08-03T11:07:12Z</time>
      </trkpt>
      <trkpt lat="47.20568" lon="5.99543">
        <ele>260</ele>
        <time>2024-08-03T11:07:13Z</time>
      </trkpt>
      <trkpt lat="47.20573" lon="5.99545">
        <ele>259.8</ele>
        <time>2024-08-03T11:07:14Z</time>
      </trkpt>
      <trkpt lat="47.20579" lon="5.99548">
        <ele>260</ele>
        <time>2024-08-03T11:07:15Z</time>
      </trkpt>
      <trkpt lat="47.20584" lon="5.9955">
        <ele>259.8</ele>
        <time>2024-08-03T11:07:16Z</time>
      </trkpt>
      <trkpt lat="47.20589" lon="5.99553">
        <ele>259.8</ele>
        <time>2024-08-03T11:07:17Z</time>
      </trkpt>
      <trkpt lat="47.20595" lon="5.99556">
        <ele>259.8</ele>
        <time>2024-08-03T11:07:18Z</time>
      </trkpt>
      <trkpt lat="47.206" lon="5.99558">
        <ele>259.8</ele>
        <time>2024-08-03T11:07:19Z</time>
      </trkpt>
      <trkpt lat="47.20605" lon="5.9956">
        <ele>259.8</ele>
        <time>2024-08-03T11:07:20Z</time>
      </trkpt>
      <trkpt lat="47.20611" lon="5.99563">
        <ele>259.8</ele>
        <time>2024-08-03T11:07:21Z</time>
      </trkpt>
      <trkpt lat="47.20616" lon="5.99566">
        <ele>259.8</ele>
        <time>2024-08-03T11:07:22Z</time>
      </trkpt>
      <trkpt lat="47.20621" lon="5.99569">
        <ele>259.8</ele>
        <time>2024-08-03T11:07:23Z</time>
      </trkpt>
      <trkpt lat="47.20627" lon="5.99572">
        <ele>259.8</ele>
        <time>2024-08-03T11:07:24Z</time>
      </trkpt>
      <trkpt lat="47.20631" lon="5.99575">
        <ele>259.6</ele>
        <time>2024-08-03T11:07:25Z</time>
      </trkpt>
      <trkpt lat="47.20636" lon="5.99578">
        <ele>259.8</ele>
        <time>2024-08-03T11:07:26Z</time>
      </trkpt>
      <trkpt lat="47.2064" lon="5.99582">
        <ele>259.8</ele>
        <time>2024-08-03T11:07:27Z</time>
      </trkpt>
      <trkpt lat="47.20645" lon="5.99585">
        <ele>259.6</ele>
        <time>2024-08-03T11:07:28Z</time>
      </trkpt>
      <trkpt lat="47.20649" lon="5.99588">
        <ele>259.8</ele>
        <time>2024-08-03T11:07:29Z</time>
      </trkpt>
      <trkpt lat="47.20653" lon="5.99589">
        <ele>259.8</ele>
        <time>2024-08-03T11:07:30Z</time>
      </trkpt>
      <trkpt lat="47.20657" lon="5.99588">
        <ele>259.8</ele>
        <time>2024-08-03T11:07:31Z</time>
      </trkpt>
      <trkpt lat="47.20659" lon="5.99585">
        <ele>259.6</ele>
        <time>2024-08-03T11:07:32Z</time>
      </trkpt>
      <trkpt lat="47.2066" lon="5.99581">
        <ele>259.6</ele>
        <time>2024-08-03T11:07:33Z</time>
      </trkpt>
      <trkpt lat="47.20662" lon="5.99576">
        <ele>259.4</ele>
        <time>2024-08-03T11:07:34Z</time>
      </trkpt>
      <trkpt lat="47.20663" lon="5.99571">
        <ele>259.6</ele>
        <time>2024-08-03T11:07:35Z</time>
      </trkpt>
      <trkpt lat="47.20664" lon="5.99565">
        <ele>259.4</ele>
        <time>2024-08-03T11:07:36Z</time>
      </trkpt>
      <trkpt lat="47.20666" lon="5.99559">
        <ele>259.6</ele>
        <time>2024-08-03T11:07:37Z</time>
      </trkpt>
      <trkpt lat="47.20667" lon="5.99552">
        <ele>259.4</ele>
        <time>2024-08-03T11:07:38Z</time>
      </trkpt>
      <trkpt lat="47.20668" lon="5.99545">
        <ele>259.4</ele>
        <time>2024-08-03T11:07:39Z</time>
      </trkpt>
      <trkpt lat="47.20669" lon="5.99539">
        <ele>259.2</ele>
        <time>2024-08-03T11:07:40Z</time>
      </trkpt>
      <trkpt lat="47.2067" lon="5.99533">
        <ele>259.2</ele>
        <time>2024-08-03T11:07:41Z</time>
      </trkpt>
      <trkpt lat="47.20672" lon="5.99527">
        <ele>259.2</ele>
        <time>2024-08-03T11:07:42Z</time>
      </trkpt>
      <trkpt lat="47.20674" lon="5.99522">
        <ele>259.2</ele>
        <time>2024-08-03T11:07:43Z</time>
      </trkpt>
      <trkpt lat="47.20677" lon="5.99518">
        <ele>259.2</ele>
        <time>2024-08-03T11:07:44Z</time>
      </trkpt>
      <trkpt lat="47.20681" lon="5.99517">
        <ele>259.2</ele>
        <time>2024-08-03T11:07:45Z</time>
      </trkpt>
      <trkpt lat="47.20685" lon="5.99517">
        <ele>259</ele>
        <time>2024-08-03T11:07:46Z</time>
      </trkpt>
      <trkpt lat="47.20689" lon="5.99518">
        <ele>259</ele>
        <time>2024-08-03T11:07:47Z</time>
      </trkpt>
      <trkpt lat="47.20694" lon="5.9952">
        <ele>259</ele>
        <time>2024-08-03T11:07:48Z</time>
      </trkpt>
      <trkpt lat="47.20698" lon="5.99521">
        <ele>259</ele>
        <time>2024-08-03T11:07:49Z</time>
      </trkpt>
      <trkpt lat="47.20703" lon="5.99523">
        <ele>259</ele>
        <time>2024-08-03T11:07:50Z</time>
      </trkpt>
      <trkpt lat="47.20707" lon="5.99524">
        <ele>259</ele>
        <time>2024-08-03T11:07:51Z</time>
      </trkpt>
      <trkpt lat="47.20712" lon="5.99526">
        <ele>259</ele>
        <time>2024-08-03T11:07:52Z</time>
      </trkpt>
      <trkpt lat="47.20716" lon="5.99527">
        <ele>259</ele>
        <time>2024-08-03T11:07:53Z</time>
      </trkpt>
      <trkpt lat="47.20721" lon="5.99529">
        <ele>258.8</ele>
        <time>2024-08-03T11:07:54Z</time>
      </trkpt>
      <trkpt lat="47.20725" lon="5.9953">
        <ele>259</ele>
        <time>2024-08-03T11:07:55Z</time>
      </trkpt>
      <trkpt lat="47.2073" lon="5.99532">
        <ele>258.8</ele>
        <time>2024-08-03T11:07:56Z</time>
      </trkpt>
      <trkpt lat="47.20735" lon="5.99534">
        <ele>259</ele>
        <time>2024-08-03T11:07:57Z</time>
      </trkpt>
      <trkpt lat="47.2074" lon="5.99536">
        <ele>259</ele>
        <time>2024-08-03T11:07:58Z</time>
      </trkpt>
      <trkpt lat="47.20745" lon="5.99537">
        <ele>258.8</ele>
        <time>2024-08-03T11:07:59Z</time>
      </trkpt>
      <trkpt lat="47.2075" lon="5.99539">
        <ele>258.8</ele>
        <time>2024-08-03T11:08:00Z</time>
      </trkpt>
      <trkpt lat="47.20755" lon="5.99541">
        <ele>259</ele>
        <time>2024-08-03T11:08:01Z</time>
      </trkpt>
      <trkpt lat="47.2076" lon="5.99543">
        <ele>258.8</ele>
        <time>2024-08-03T11:08:02Z</time>
      </trkpt>
      <trkpt lat="47.20765" lon="5.99545">
        <ele>258.8</ele>
        <time>2024-08-03T11:08:03Z</time>
      </trkpt>
      <trkpt lat="47.20769" lon="5.99548">
        <ele>258.8</ele>
        <time>2024-08-03T11:08:04Z</time>
      </trkpt>
      <trkpt lat="47.20774" lon="5.9955">
        <ele>259</ele>
        <time>2024-08-03T11:08:05Z</time>
      </trkpt>
      <trkpt lat="47.20778" lon="5.99553">
        <ele>259</ele>
        <time>2024-08-03T11:08:06Z</time>
      </trkpt>
      <trkpt lat="47.20782" lon="5.99555">
        <ele>259</ele>
        <time>2024-08-03T11:08:07Z</time>
      </trkpt>
      <trkpt lat="47.20787" lon="5.99558">
        <ele>259</ele>
        <time>2024-08-03T11:08:08Z</time>
      </trkpt>
      <trkpt lat="47.20792" lon="5.99561">
        <ele>259.2</ele>
        <time>2024-08-03T11:08:09Z</time>
      </trkpt>
      <trkpt lat="47.20797" lon="5.99564">
        <ele>259</ele>
        <time>2024-08-03T11:08:10Z</time>
      </trkpt>
      <trkpt lat="47.20802" lon="5.99567">
        <ele>259</ele>
        <time>2024-08-03T11:08:11Z</time>
      </trkpt>
      <trkpt lat="47.20807" lon="5.9957">
        <ele>259.2</ele>
        <time>2024-08-03T11:08:12Z</time>
      </trkpt>
      <trkpt lat="47.20812" lon="5.99574">
        <ele>259.2</ele>
        <time>2024-08-03T11:08:13Z</time>
      </trkpt>
      <trkpt lat="47.20816" lon="5.99577">
        <ele>259.2</ele>
        <time>2024-08-03T11:08:14Z</time>
      </trkpt>
      <trkpt lat="47.20822" lon="5.99579">
        <ele>259.2</ele>
        <time>2024-08-03T11:08:15Z</time>
      </trkpt>
      <trkpt lat="47.20827" lon="5.99581">
        <ele>259.2</ele>
        <time>2024-08-03T11:08:16Z</time>
      </trkpt>
      <trkpt lat="47.20832" lon="5.99584">
        <ele>259.4</ele>
        <time>2024-08-03T11:08:17Z</time>
      </trkpt>
      <trkpt lat="47.20838" lon="5.99586">
        <ele>259.2</ele>
        <time>2024-08-03T11:08:18Z</time>
      </trkpt>
      <trkpt lat="47.20843" lon="5.99588">
        <ele>259.2</ele>
        <time>2024-08-03T11:08:19Z</time>
      </trkpt>
      <trkpt lat="47.20848" lon="5.9959">
        <ele>259.4</ele>
        <time>2024-08-03T11:08:20Z</time>
      </trkpt>
      <trkpt lat="47.20853" lon="5.99593">
        <ele>259.4</ele>
        <time>2024-08-03T11:08:21Z</time>
      </trkpt>
      <trkpt lat="47.20858" lon="5.99596">
        <ele>259.2</ele>
        <time>2024-08-03T11:08:22Z</time>
      </trkpt>
      <trkpt lat="47.20863" lon="5.99598">
        <ele>259.4</ele>
        <time>2024-08-03T11:08:23Z</time>
      </trkpt>
      <trkpt lat="47.20868" lon="5.996">
        <ele>259.4</ele>
        <time>2024-08-03T11:08:24Z</time>
      </trkpt>
      <trkpt lat="47.20873" lon="5.99602">
        <ele>259.6</ele>
        <time>2024-08-03T11:08:25Z</time>
      </trkpt>
      <trkpt lat="47.20878" lon="5.99604">
        <ele>259.6</ele>
        <time>2024-08-03T11:08:26Z</time>
      </trkpt>
      <trkpt lat="47.20883" lon="5.99606">
        <ele>259.6</ele>
        <time>2024-08-03T11:08:27Z</time>
      </trkpt>
      <trkpt lat="47.20889" lon="5.99609">
        <ele>259.6</ele>
        <time>2024-08-03T11:08:28Z</time>
      </trkpt>
      <trkpt lat="47.20895" lon="5.99612">
        <ele>259.6</ele>
        <time>2024-08-03T11:08:29Z</time>
      </trkpt>
      <trkpt lat="47.209" lon="5.99616">
        <ele>259.6</ele>
        <time>2024-08-03T11:08:30Z</time>
      </trkpt>
      <trkpt lat="47.20905" lon="5.99621">
        <ele>259.6</ele>
        <time>2024-08-03T11:08:31Z</time>
      </trkpt>
      <trkpt lat="47.2091" lon="5.99625">
        <ele>259.8</ele>
        <time>2024-08-03T11:08:32Z</time>
      </trkpt>
      <trkpt lat="47.20915" lon="5.99629">
        <ele>259.6</ele>
        <time>2024-08-03T11:08:33Z</time>
      </trkpt>
      <trkpt lat="47.2092" lon="5.99634">
        <ele>259.8</ele>
        <time>2024-08-03T11:08:34Z</time>
      </trkpt>
      <trkpt lat="47.20925" lon="5.99638">
        <ele>259.8</ele>
        <time>2024-08-03T11:08:35Z</time>
      </trkpt>
      <trkpt lat="47.20929" lon="5.99642">
        <ele>259.8</ele>
        <time>2024-08-03T11:08:36Z</time>
      </trkpt>
      <trkpt lat="47.20934" lon="5.99646">
        <ele>259.8</ele>
        <time>2024-08-03T11:08:37Z</time>
      </trkpt>
      <trkpt lat="47.20938" lon="5.99651">
        <ele>259.6</ele>
        <time>2024-08-03T11:08:38Z</time>
      </trkpt>
      <trkpt lat="47.20943" lon="5.99656">
        <ele>259.6</ele>
        <time>2024-08-03T11:08:39Z</time>
      </trkpt>
      <trkpt lat="47.20947" lon="5.99661">
        <ele>259.6</ele>
        <time>2024-08-03T11:08:40Z</time>
      </trkpt>
      <trkpt lat="47.20952" lon="5.99665">
        <ele>259.8</ele>
        <time>2024-08-03T11:08:41Z</time>
      </trkpt>
      <trkpt lat="47.20956" lon="5.9967">
        <ele>259.8</ele>
        <time>2024-08-03T11:08:42Z</time>
      </trkpt>
      <trkpt lat="47.20961" lon="5.99675">
        <ele>259.8</ele>
        <time>2024-08-03T11:08:43Z</time>
      </trkpt>
      <trkpt lat="47.20965" lon="5.9968">
        <ele>259.6</ele>
        <time>2024-08-03T11:08:44Z</time>
      </trkpt>
      <trkpt lat="47.2097" lon="5.99686">
        <ele>259.8</ele>
        <time>2024-08-03T11:08:45Z</time>
      </trkpt>
      <trkpt lat="47.20975" lon="5.99691">
        <ele>259.8</ele>
        <time>2024-08-03T11:08:46Z</time>
      </trkpt>
      <trkpt lat="47.2098" lon="5.99697">
        <ele>259.8</ele>
        <time>2024-08-03T11:08:47Z</time>
      </trkpt>
      <trkpt lat="47.20985" lon="5.99702">
        <ele>259.8</ele>
        <time>2024-08-03T11:08:48Z</time>
      </trkpt>
      <trkpt lat="47.20989" lon="5.99708">
        <ele>259.8</ele>
        <time>2024-08-03T11:08:49Z</time>
      </trkpt>
      <trkpt lat="47.20994" lon="5.99713">
        <ele>259.8</ele>
        <time>2024-08-03T11:08:50Z</time>
      </trkpt>
      <trkpt lat="47.20999" lon="5.99718">
        <ele>259.6</ele>
        <time>2024-08-03T11:08:51Z</time>
      </trkpt>
      <trkpt lat="47.21004" lon="5.99724">
        <ele>259.8</ele>
        <time>2024-08-03T11:08:52Z</time>
      </trkpt>
      <trkpt lat="47.21009" lon="5.9973">
        <ele>259.8</ele>
        <time>2024-08-03T11:08:53Z</time>
      </trkpt>
      <trkpt lat="47.21014" lon="5.99736">
        <ele>259.8</ele>
        <time>2024-08-03T11:08:54Z</time>
      </trkpt>
      <trkpt lat="47.21019" lon="5.99741">
        <ele>259.8</ele>
        <time>2024-08-03T11:08:55Z</time>
      </trkpt>
      <trkpt lat="47.21023" lon="5.99747">
        <ele>259.8</ele>
        <time>2024-08-03T11:08:56Z</time>
      </trkpt>
      <trkpt lat="47.21028" lon="5.99752">
        <ele>259.8</ele>
        <time>2024-08-03T11:08:57Z</time>
      </trkpt>
      <trkpt lat="47.21033" lon="5.99756">
        <ele>259.8</ele>
        <time>2024-08-03T11:08:58Z</time>
      </trkpt>
      <trkpt lat="47.21038" lon="5.99761">
        <ele>260</ele>
        <time>2024-08-03T11:08:59Z</time>
      </trkpt>
      <trkpt lat="47.21043" lon="5.99766">
        <ele>260</ele>
        <time>2024-08-03T11:09:00Z</time>
      </trkpt>
      <trkpt lat="47.21048" lon="5.99772">
        <ele>260</ele>
        <time>2024-08-03T11:09:01Z</time>
      </trkpt>
      <trkpt lat="47.21053" lon="5.99777">
        <ele>260</ele>
        <time>2024-08-03T11:09:02Z</time>
      </trkpt>
      <trkpt lat="47.21058" lon="5.99781">
        <ele>260</ele>
        <time>2024-08-03T11:09:03Z</time>
      </trkpt>
      <trkpt lat="47.21063" lon="5.99785">
        <ele>260.2</ele>
        <time>2024-08-03T11:09:04Z</time>
      </trkpt>
      <trkpt lat="47.21068" lon="5.99789">
        <ele>260.2</ele>
        <time>2024-08-03T11:09:05Z</time>
      </trkpt>
      <trkpt lat="47.21073" lon="5.99794">
        <ele>260</ele>
        <time>2024-08-03T11:09:06Z</time>
      </trkpt>
      <trkpt lat="47.21078" lon="5.998">
        <ele>260.2</ele>
        <time>2024-08-03T11:09:07Z</time>
      </trkpt>
      <trkpt lat="47.21082" lon="5.99805">
        <ele>260.2</ele>
        <time>2024-08-03T11:09:08Z</time>
      </trkpt>
      <trkpt lat="47.21087" lon="5.9981">
        <ele>260.2</ele>
        <time>2024-08-03T11:09:09Z</time>
      </trkpt>
      <trkpt lat="47.21092" lon="5.99814">
        <ele>260.2</ele>
        <time>2024-08-03T11:09:10Z</time>
      </trkpt>
      <trkpt lat="47.21098" lon="5.99819">
        <ele>260.4</ele>
        <time>2024-08-03T11:09:11Z</time>
      </trkpt>
      <trkpt lat="47.21103" lon="5.99824">
        <ele>260.2</ele>
        <time>2024-08-03T11:09:12Z</time>
      </trkpt>
      <trkpt lat="47.21108" lon="5.99829">
        <ele>260.4</ele>
        <time>2024-08-03T11:09:13Z</time>
      </trkpt>
      <trkpt lat="47.21113" lon="5.99834">
        <ele>260.4</ele>
        <time>2024-08-03T11:09:14Z</time>
      </trkpt>
      <trkpt lat="47.21119" lon="5.99839">
        <ele>260.4</ele>
        <time>2024-08-03T11:09:15Z</time>
      </trkpt>
      <trkpt lat="47.21124" lon="5.99844">
        <ele>260.4</ele>
        <time>2024-08-03T11:09:16Z</time>
      </trkpt>
      <trkpt lat="47.2113" lon="5.99848">
        <ele>260.4</ele>
        <time>2024-08-03T11:09:17Z</time>
      </trkpt>
      <trkpt lat="47.21135" lon="5.99853">
        <ele>260.4</ele>
        <time>2024-08-03T11:09:18Z</time>
      </trkpt>
      <trkpt lat="47.2114" lon="5.99858">
        <ele>260.4</ele>
        <time>2024-08-03T11:09:19Z</time>
      </trkpt>
      <trkpt lat="47.21146" lon="5.99863">
        <ele>260.4</ele>
        <time>2024-08-03T11:09:20Z</time>
      </trkpt>
      <trkpt lat="47.21151" lon="5.99867">
        <ele>260.4</ele>
        <time>2024-08-03T11:09:21Z</time>
      </trkpt>
      <trkpt lat="47.21157" lon="5.99872">
        <ele>260.4</ele>
        <time>2024-08-03T11:09:22Z</time>
      </trkpt>
      <trkpt lat="47.21162" lon="5.99877">
        <ele>260.4</ele>
        <time>2024-08-03T11:09:23Z</time>
      </trkpt>
      <trkpt lat="47.21167" lon="5.99882">
        <ele>260.6</ele>
        <time>2024-08-03T11:09:24Z</time>
      </trkpt>
      <trkpt lat="47.21172" lon="5.99887">
        <ele>260.4</ele>
        <time>2024-08-03T11:09:25Z</time>
      </trkpt>
      <trkpt lat="47.21178" lon="5.99892">
        <ele>260.4</ele>
        <time>2024-08-03T11:09:26Z</time>
      </trkpt>
      <trkpt lat="47.21183" lon="5.99897">
        <ele>260.4</ele>
        <time>2024-08-03T11:09:27Z</time>
      </trkpt>
      <trkpt lat="47.21188" lon="5.99903">
        <ele>260.4</ele>
        <time>2024-08-03T11:09:28Z</time>
      </trkpt>
      <trkpt lat="47.21192" lon="5.99908">
        <ele>260.2</ele>
        <time>2024-08-03T11:09:29Z</time>
      </trkpt>
      <trkpt lat="47.21197" lon="5.99914">
        <ele>260.4</ele>
        <time>2024-08-03T11:09:30Z</time>
      </trkpt>
      <trkpt lat="47.21202" lon="5.9992">
        <ele>260.4</ele>
        <time>2024-08-03T11:09:31Z</time>
      </trkpt>
      <trkpt lat="47.21207" lon="5.99925">
        <ele>260.4</ele>
        <time>2024-08-03T11:09:32Z</time>
      </trkpt>
      <trkpt lat="47.21212" lon="5.99931">
        <ele>260.6</ele>
        <time>2024-08-03T11:09:33Z</time>
      </trkpt>
      <trkpt lat="47.21217" lon="5.99936">
        <ele>260.6</ele>
        <time>2024-08-03T11:09:34Z</time>
      </trkpt>
      <trkpt lat="47.21223" lon="5.99942">
        <ele>260.6</ele>
        <time>2024-08-03T11:09:35Z</time>
      </trkpt>
      <trkpt lat="47.21228" lon="5.99947">
        <ele>260.6</ele>
        <time>2024-08-03T11:09:36Z</time>
      </trkpt>
      <trkpt lat="47.21234" lon="5.99953">
        <ele>260.6</ele>
        <time>2024-08-03T11:09:37Z</time>
      </trkpt>
      <trkpt lat="47.21239" lon="5.99959">
        <ele>260.6</ele>
        <time>2024-08-03T11:09:38Z</time>
      </trkpt>
      <trkpt lat="47.21245" lon="5.99965">
        <ele>260.6</ele>
        <time>2024-08-03T11:09:39Z</time>
      </trkpt>
      <trkpt lat="47.2125" lon="5.9997">
        <ele>260.4</ele>
        <time>2024-08-03T11:09:40Z</time>
      </trkpt>
      <trkpt lat="47.21256" lon="5.99975">
        <ele>260.4</ele>
        <time>2024-08-03T11:09:41Z</time>
      </trkpt>
      <trkpt lat="47.21261" lon="5.99981">
        <ele>260.6</ele>
        <time>2024-08-03T11:09:42Z</time>
      </trkpt>
      <trkpt lat="47.21267" lon="5.99986">
        <ele>260.6</ele>
        <time>2024-08-03T11:09:43Z</time>
      </trkpt>
      <trkpt lat="47.21273" lon="5.99992">
        <ele>260.6</ele>
        <time>2024-08-03T11:09:44Z</time>
      </trkpt>
      <trkpt lat="47.21279" lon="5.99997">
        <ele>260.6</ele>
        <time>2024-08-03T11:09:45Z</time>
      </trkpt>
      <trkpt lat="47.21285" lon="6.00003">
        <ele>260.4</ele>
        <time>2024-08-03T11:09:46Z</time>
      </trkpt>
      <trkpt lat="47.2129" lon="6.00009">
        <ele>260.6</ele>
        <time>2024-08-03T11:09:47Z</time>
      </trkpt>
      <trkpt lat="47.21295" lon="6.00014">
        <ele>260.4</ele>
        <time>2024-08-03T11:09:48Z</time>
      </trkpt>
      <trkpt lat="47.21301" lon="6.0002">
        <ele>260.4</ele>
        <time>2024-08-03T11:09:49Z</time>
      </trkpt>
      <trkpt lat="47.21307" lon="6.00025">
        <ele>260.4</ele>
        <time>2024-08-03T11:09:50Z</time>
      </trkpt>
      <trkpt lat="47.21312" lon="6.00029">
        <ele>260.2</ele>
        <time>2024-08-03T11:09:51Z</time>
      </trkpt>
      <trkpt lat="47.21318" lon="6.00034">
        <ele>260.2</ele>
        <time>2024-08-03T11:09:52Z</time>
      </trkpt>
      <trkpt lat="47.21323" lon="6.00039">
        <ele>260.4</ele>
        <time>2024-08-03T11:09:53Z</time>
      </trkpt>
      <trkpt lat="47.21329" lon="6.00044">
        <ele>260.4</ele>
        <time>2024-08-03T11:09:54Z</time>
      </trkpt>
      <trkpt lat="47.21334" lon="6.00049">
        <ele>260.4</ele>
        <time>2024-08-03T11:09:55Z</time>
      </trkpt>
      <trkpt lat="47.21339" lon="6.00055">
        <ele>260.4</ele>
        <time>2024-08-03T11:09:56Z</time>
      </trkpt>
      <trkpt lat="47.21343" lon="6.0006">
        <ele>260.4</ele>
        <time>2024-08-03T11:09:57Z</time>
      </trkpt>
      <trkpt lat="47.21348" lon="6.00065">
        <ele>260.4</ele>
        <time>2024-08-03T11:09:58Z</time>
      </trkpt>
      <trkpt lat="47.21353" lon="6.0007">
        <ele>260.4</ele>
        <time>2024-08-03T11:09:59Z</time>
      </trkpt>
      <trkpt lat="47.21357" lon="6.00076">
        <ele>260.4</ele>
        <time>2024-08-03T11:10:00Z</time>
      </trkpt>
      <trkpt lat="47.21362" lon="6.00081">
        <ele>260.4</ele>
        <time>2024-08-03T11:10:01Z</time>
      </trkpt>
      <trkpt lat="47.21366" lon="6.00086">
        <ele>260.6</ele>
        <time>2024-08-03T11:10:02Z</time>
      </trkpt>
      <trkpt lat="47.21371" lon="6.00092">
        <ele>260.6</ele>
        <time>2024-08-03T11:10:03Z</time>
      </trkpt>
      <trkpt lat="47.21375" lon="6.00097">
        <ele>260.6</ele>
        <time>2024-08-03T11:10:04Z</time>
      </trkpt>
      <trkpt lat="47.2138" lon="6.00102">
        <ele>260.6</ele>
        <time>2024-08-03T11:10:05Z</time>
      </trkpt>
      <trkpt lat="47.21384" lon="6.00106">
        <ele>260.8</ele>
        <time>2024-08-03T11:10:06Z</time>
      </trkpt>
      <trkpt lat="47.21388" lon="6.00111">
        <ele>260.8</ele>
        <time>2024-08-03T11:10:07Z</time>
      </trkpt>
      <trkpt lat="47.21393" lon="6.00115">
        <ele>260.8</ele>
        <time>2024-08-03T11:10:08Z</time>
      </trkpt>
      <trkpt lat="47.21397" lon="6.0012">
        <ele>261.2</ele>
        <time>2024-08-03T11:10:09Z</time>
      </trkpt>
      <trkpt lat="47.21401" lon="6.00124">
        <ele>261.2</ele>
        <time>2024-08-03T11:10:10Z</time>
      </trkpt>
      <trkpt lat="47.21405" lon="6.00129">
        <ele>261.2</ele>
        <time>2024-08-03T11:10:11Z</time>
      </trkpt>
      <trkpt lat="47.2141" lon="6.00134">
        <ele>261.2</ele>
        <time>2024-08-03T11:10:12Z</time>
      </trkpt>
      <trkpt lat="47.21414" lon="6.00138">
        <ele>261.4</ele>
        <time>2024-08-03T11:10:13Z</time>
      </trkpt>
      <trkpt lat="47.21419" lon="6.00143">
        <ele>261.4</ele>
        <time>2024-08-03T11:10:14Z</time>
      </trkpt>
      <trkpt lat="47.21423" lon="6.00149">
        <ele>261.4</ele>
        <time>2024-08-03T11:10:15Z</time>
      </trkpt>
      <trkpt lat="47.21427" lon="6.00154">
        <ele>261.4</ele>
        <time>2024-08-03T11:10:16Z</time>
      </trkpt>
      <trkpt lat="47.21432" lon="6.00159">
        <ele>261.4</ele>
        <time>2024-08-03T11:10:17Z</time>
      </trkpt>
      <trkpt lat="47.21436" lon="6.00165">
        <ele>261.2</ele>
        <time>2024-08-03T11:10:18Z</time>
      </trkpt>
      <trkpt lat="47.21441" lon="6.0017">
        <ele>261.4</ele>
        <time>2024-08-03T11:10:19Z</time>
      </trkpt>
      <trkpt lat="47.21445" lon="6.00176">
        <ele>261.4</ele>
        <time>2024-08-03T11:10:20Z</time>
      </trkpt>
      <trkpt lat="47.2145" lon="6.00182">
        <ele>261.4</ele>
        <time>2024-08-03T11:10:21Z</time>
      </trkpt>
      <trkpt lat="47.21454" lon="6.00188">
        <ele>261.4</ele>
        <time>2024-08-03T11:10:22Z</time>
      </trkpt>
      <trkpt lat="47.21458" lon="6.00194">
        <ele>261.4</ele>
        <time>2024-08-03T11:10:23Z</time>
      </trkpt>
      <trkpt lat="47.21463" lon="6.002">
        <ele>261.4</ele>
        <time>2024-08-03T11:10:24Z</time>
      </trkpt>
      <trkpt lat="47.21468" lon="6.00206">
        <ele>261.4</ele>
        <time>2024-08-03T11:10:25Z</time>
      </trkpt>
      <trkpt lat="47.21472" lon="6.00213">
        <ele>261.4</ele>
        <time>2024-08-03T11:10:26Z</time>
      </trkpt>
      <trkpt lat="47.21477" lon="6.00219">
        <ele>261.4</ele>
        <time>2024-08-03T11:10:27Z</time>
      </trkpt>
      <trkpt lat="47.21481" lon="6.00225">
        <ele>261.4</ele>
        <time>2024-08-03T11:10:28Z</time>
      </trkpt>
      <trkpt lat="47.21485" lon="6.00231">
        <ele>261.4</ele>
        <time>2024-08-03T11:10:29Z</time>
      </trkpt>
      <trkpt lat="47.2149" lon="6.00237">
        <ele>261.2</ele>
        <time>2024-08-03T11:10:30Z</time>
      </trkpt>
      <trkpt lat="47.21494" lon="6.00243">
        <ele>261.4</ele>
        <time>2024-08-03T11:10:31Z</time>
      </trkpt>
      <trkpt lat="47.21498" lon="6.00249">
        <ele>261.4</ele>
        <time>2024-08-03T11:10:32Z</time>
      </trkpt>
      <trkpt lat="47.21502" lon="6.00255">
        <ele>261.4</ele>
        <time>2024-08-03T11:10:33Z</time>
      </trkpt>
      <trkpt lat="47.21507" lon="6.00261">
        <ele>261.4</ele>
        <time>2024-08-03T11:10:34Z</time>
      </trkpt>
      <trkpt lat="47.21511" lon="6.00267">
        <ele>261.4</ele>
        <time>2024-08-03T11:10:35Z</time>
      </trkpt>
      <trkpt lat="47.21516" lon="6.00273">
        <ele>261.4</ele>
        <time>2024-08-03T11:10:36Z</time>
      </trkpt>
      <trkpt lat="47.2152" lon="6.00278">
        <ele>261.4</ele>
        <time>2024-08-03T11:10:37Z</time>
      </trkpt>
      <trkpt lat="47.21524" lon="6.00284">
        <ele>261.4</ele>
        <time>2024-08-03T11:10:38Z</time>
      </trkpt>
      <trkpt lat="47.21528" lon="6.0029">
        <ele>261.6</ele>
        <time>2024-08-03T11:10:39Z</time>
      </trkpt>
      <trkpt lat="47.21532" lon="6.00295">
        <ele>261.4</ele>
        <time>2024-08-03T11:10:40Z</time>
      </trkpt>
      <trkpt lat="47.21536" lon="6.00302">
        <ele>261.4</ele>
        <time>2024-08-03T11:10:41Z</time>
      </trkpt>
      <trkpt lat="47.2154" lon="6.00308">
        <ele>261.6</ele>
        <time>2024-08-03T11:10:42Z</time>
      </trkpt>
      <trkpt lat="47.21544" lon="6.00314">
        <ele>261.8</ele>
        <time>2024-08-03T11:10:43Z</time>
      </trkpt>
      <trkpt lat="47.21548" lon="6.00321">
        <ele>261.8</ele>
        <time>2024-08-03T11:10:44Z</time>
      </trkpt>
      <trkpt lat="47.21553" lon="6.00328">
        <ele>262</ele>
        <time>2024-08-03T11:10:45Z</time>
      </trkpt>
      <trkpt lat="47.21557" lon="6.00334">
        <ele>262</ele>
        <time>2024-08-03T11:10:46Z</time>
      </trkpt>
      <trkpt lat="47.21561" lon="6.00341">
        <ele>262</ele>
        <time>2024-08-03T11:10:47Z</time>
      </trkpt>
      <trkpt lat="47.21565" lon="6.00348">
        <ele>262</ele>
        <time>2024-08-03T11:10:48Z</time>
      </trkpt>
      <trkpt lat="47.21569" lon="6.00355">
        <ele>262.2</ele>
        <time>2024-08-03T11:10:49Z</time>
      </trkpt>
      <trkpt lat="47.21573" lon="6.00362">
        <ele>262</ele>
        <time>2024-08-03T11:10:50Z</time>
      </trkpt>
      <trkpt lat="47.21577" lon="6.0037">
        <ele>262</ele>
        <time>2024-08-03T11:10:51Z</time>
      </trkpt>
      <trkpt lat="47.21581" lon="6.00378">
        <ele>262.2</ele>
        <time>2024-08-03T11:10:52Z</time>
      </trkpt>
      <trkpt lat="47.21585" lon="6.00386">
        <ele>262.2</ele>
        <time>2024-08-03T11:10:53Z</time>
      </trkpt>
      <trkpt lat="47.21588" lon="6.00395">
        <ele>262.2</ele>
        <time>2024-08-03T11:10:54Z</time>
      </trkpt>
      <trkpt lat="47.21591" lon="6.00403">
        <ele>262</ele>
        <time>2024-08-03T11:10:55Z</time>
      </trkpt>
      <trkpt lat="47.21594" lon="6.00413">
        <ele>262.2</ele>
        <time>2024-08-03T11:10:56Z</time>
      </trkpt>
      <trkpt lat="47.21596" lon="6.00422">
        <ele>262</ele>
        <time>2024-08-03T11:10:57Z</time>
      </trkpt>
      <trkpt lat="47.21598" lon="6.00431">
        <ele>262</ele>
        <time>2024-08-03T11:10:58Z</time>
      </trkpt>
      <trkpt lat="47.216" lon="6.0044">
        <ele>262</ele>
        <time>2024-08-03T11:10:59Z</time>
      </trkpt>
      <trkpt lat="47.21602" lon="6.00449">
        <ele>262</ele>
        <time>2024-08-03T11:11:00Z</time>
      </trkpt>
      <trkpt lat="47.21603" lon="6.00459">
        <ele>262</ele>
        <time>2024-08-03T11:11:01Z</time>
      </trkpt>
      <trkpt lat="47.21605" lon="6.00468">
        <ele>262</ele>
        <time>2024-08-03T11:11:02Z</time>
      </trkpt>
      <trkpt lat="47.21607" lon="6.00477">
        <ele>261.8</ele>
        <time>2024-08-03T11:11:03Z</time>
      </trkpt>
      <trkpt lat="47.21609" lon="6.00486">
        <ele>261.8</ele>
        <time>2024-08-03T11:11:04Z</time>
      </trkpt>
      <trkpt lat="47.21611" lon="6.00495">
        <ele>261.8</ele>
        <time>2024-08-03T11:11:05Z</time>
      </trkpt>
      <trkpt lat="47.21612" lon="6.00504">
        <ele>261.8</ele>
        <time>2024-08-03T11:11:06Z</time>
      </trkpt>
      <trkpt lat="47.21614" lon="6.00513">
        <ele>261.8</ele>
        <time>2024-08-03T11:11:07Z</time>
      </trkpt>
      <trkpt lat="47.21616" lon="6.00522">
        <ele>261.8</ele>
        <time>2024-08-03T11:11:08Z</time>
      </trkpt>
      <trkpt lat="47.21617" lon="6.00532">
        <ele>261.8</ele>
        <time>2024-08-03T11:11:09Z</time>
      </trkpt>
      <trkpt lat="47.21619" lon="6.00541">
        <ele>261.8</ele>
        <time>2024-08-03T11:11:10Z</time>
      </trkpt>
      <trkpt lat="47.2162" lon="6.0055">
        <ele>261.8</ele>
        <time>2024-08-03T11:11:11Z</time>
      </trkpt>
      <trkpt lat="47.21622" lon="6.00559">
        <ele>261.6</ele>
        <time>2024-08-03T11:11:12Z</time>
      </trkpt>
      <trkpt lat="47.21623" lon="6.00568">
        <ele>261.8</ele>
        <time>2024-08-03T11:11:13Z</time>
      </trkpt>
      <trkpt lat="47.21625" lon="6.00578">
        <ele>261.6</ele>
        <time>2024-08-03T11:11:14Z</time>
      </trkpt>
      <trkpt lat="47.21626" lon="6.00587">
        <ele>261.8</ele>
        <time>2024-08-03T11:11:15Z</time>
      </trkpt>
      <trkpt lat="47.21627" lon="6.00596">
        <ele>261.6</ele>
        <time>2024-08-03T11:11:16Z</time>
      </trkpt>
      <trkpt lat="47.21629" lon="6.00606">
        <ele>261.8</ele>
        <time>2024-08-03T11:11:17Z</time>
      </trkpt>
      <trkpt lat="47.2163" lon="6.00615">
        <ele>261.6</ele>
        <time>2024-08-03T11:11:18Z</time>
      </trkpt>
      <trkpt lat="47.21631" lon="6.00625">
        <ele>261.6</ele>
        <time>2024-08-03T11:11:19Z</time>
      </trkpt>
      <trkpt lat="47.21633" lon="6.00634">
        <ele>261.8</ele>
        <time>2024-08-03T11:11:20Z</time>
      </trkpt>
      <trkpt lat="47.21634" lon="6.00644">
        <ele>261.6</ele>
        <time>2024-08-03T11:11:21Z</time>
      </trkpt>
      <trkpt lat="47.21635" lon="6.00653">
        <ele>261.6</ele>
        <time>2024-08-03T11:11:22Z</time>
      </trkpt>
      <trkpt lat="47.21636" lon="6.00664">
        <ele>261.6</ele>
        <time>2024-08-03T11:11:23Z</time>
      </trkpt>
      <trkpt lat="47.21638" lon="6.00673">
        <ele>261.6</ele>
        <time>2024-08-03T11:11:24Z</time>
      </trkpt>
      <trkpt lat="47.21639" lon="6.00683">
        <ele>261.6</ele>
        <time>2024-08-03T11:11:25Z</time>
      </trkpt>
      <trkpt lat="47.2164" lon="6.00692">
        <ele>261.8</ele>
        <time>2024-08-03T11:11:26Z</time>
      </trkpt>
      <trkpt lat="47.21641" lon="6.00702">
        <ele>261.8</ele>
        <time>2024-08-03T11:11:27Z</time>
      </trkpt>
      <trkpt lat="47.21642" lon="6.00712">
        <ele>261.6</ele>
        <time>2024-08-03T11:11:28Z</time>
      </trkpt>
      <trkpt lat="47.21642" lon="6.00721">
        <ele>261.6</ele>
        <time>2024-08-03T11:11:29Z</time>
      </trkpt>
      <trkpt lat="47.21643" lon="6.00731">
        <ele>261.6</ele>
        <time>2024-08-03T11:11:30Z</time>
      </trkpt>
      <trkpt lat="47.21644" lon="6.0074">
        <ele>261.8</ele>
        <time>2024-08-03T11:11:31Z</time>
      </trkpt>
      <trkpt lat="47.21645" lon="6.00749">
        <ele>261.8</ele>
        <time>2024-08-03T11:11:32Z</time>
      </trkpt>
      <trkpt lat="47.21645" lon="6.00759">
        <ele>261.6</ele>
        <time>2024-08-03T11:11:33Z</time>
      </trkpt>
      <trkpt lat="47.21645" lon="6.00769">
        <ele>261.8</ele>
        <time>2024-08-03T11:11:34Z</time>
      </trkpt>
      <trkpt lat="47.21646" lon="6.00779">
        <ele>261.8</ele>
        <time>2024-08-03T11:11:35Z</time>
      </trkpt>
      <trkpt lat="47.21646" lon="6.00789">
        <ele>261.8</ele>
        <time>2024-08-03T11:11:36Z</time>
      </trkpt>
      <trkpt lat="47.21647" lon="6.00799">
        <ele>261.6</ele>
        <time>2024-08-03T11:11:37Z</time>
      </trkpt>
      <trkpt lat="47.21647" lon="6.00809">
        <ele>261.8</ele>
        <time>2024-08-03T11:11:38Z</time>
      </trkpt>
      <trkpt lat="47.21647" lon="6.00819">
        <ele>261.8</ele>
        <time>2024-08-03T11:11:39Z</time>
      </trkpt>
      <trkpt lat="47.21648" lon="6.00828">
        <ele>261.8</ele>
        <time>2024-08-03T11:11:40Z</time>
      </trkpt>
      <trkpt lat="47.21649" lon="6.00838">
        <ele>261.8</ele>
        <time>2024-08-03T11:11:41Z</time>
      </trkpt>
      <trkpt lat="47.2165" lon="6.00847">
        <ele>261.8</ele>
        <time>2024-08-03T11:11:42Z</time>
      </trkpt>
      <trkpt lat="47.2165" lon="6.00855">
        <ele>261.8</ele>
        <time>2024-08-03T11:11:43Z</time>
      </trkpt>
      <trkpt lat="47.2165" lon="6.00864">
        <ele>261.8</ele>
        <time>2024-08-03T11:11:44Z</time>
      </trkpt>
      <trkpt lat="47.21651" lon="6.00872">
        <ele>261.8</ele>
        <time>2024-08-03T11:11:45Z</time>
      </trkpt>
      <trkpt lat="47.21651" lon="6.00879">
        <ele>261.6</ele>
        <time>2024-08-03T11:11:46Z</time>
      </trkpt>
      <trkpt lat="47.21651" lon="6.00886">
        <ele>261.8</ele>
        <time>2024-08-03T11:11:47Z</time>
      </trkpt>
      <trkpt lat="47.21652" lon="6.00894">
        <ele>261.8</ele>
        <time>2024-08-03T11:11:48Z</time>
      </trkpt>
      <trkpt lat="47.21652" lon="6.00901">
        <ele>261.8</ele>
        <time>2024-08-03T11:11:49Z</time>
      </trkpt>
      <trkpt lat="47.21653" lon="6.00909">
        <ele>261.8</ele>
        <time>2024-08-03T11:11:50Z</time>
      </trkpt>
      <trkpt lat="47.21653" lon="6.00917">
        <ele>262</ele>
        <time>2024-08-03T11:11:51Z</time>
      </trkpt>
      <trkpt lat="47.21653" lon="6.00925">
        <ele>262</ele>
        <time>2024-08-03T11:11:52Z</time>
      </trkpt>
      <trkpt lat="47.21653" lon="6.00935">
        <ele>261.8</ele>
        <time>2024-08-03T11:11:53Z</time>
      </trkpt>
      <trkpt lat="47.21654" lon="6.00944">
        <ele>261.8</ele>
        <time>2024-08-03T11:11:54Z</time>
      </trkpt>
      <trkpt lat="47.21654" lon="6.00953">
        <ele>261.8</ele>
        <time>2024-08-03T11:11:55Z</time>
      </trkpt>
      <trkpt lat="47.21654" lon="6.00963">
        <ele>261.8</ele>
        <time>2024-08-03T11:11:56Z</time>
      </trkpt>
      <trkpt lat="47.21655" lon="6.00973">
        <ele>261.8</ele>
        <time>2024-08-03T11:11:57Z</time>
      </trkpt>
      <trkpt lat="47.21655" lon="6.00982">
        <ele>261.8</ele>
        <time>2024-08-03T11:11:58Z</time>
      </trkpt>
      <trkpt lat="47.21656" lon="6.00991">
        <ele>261.8</ele>
        <time>2024-08-03T11:11:59Z</time>
      </trkpt>
      <trkpt lat="47.21656" lon="6.01">
        <ele>261.8</ele>
        <time>2024-08-03T11:12:00Z</time>
      </trkpt>
      <trkpt lat="47.21656" lon="6.01009">
        <ele>261.8</ele>
        <time>2024-08-03T11:12:01Z</time>
      </trkpt>
      <trkpt lat="47.21657" lon="6.01018">
        <ele>261.8</ele>
        <time>2024-08-03T11:12:02Z</time>
      </trkpt>
      <trkpt lat="47.21657" lon="6.01027">
        <ele>261.8</ele>
        <time>2024-08-03T11:12:03Z</time>
      </trkpt>
      <trkpt lat="47.21657" lon="6.01037">
        <ele>261.8</ele>
        <time>2024-08-03T11:12:04Z</time>
      </trkpt>
      <trkpt lat="47.21658" lon="6.01047">
        <ele>261.8</ele>
        <time>2024-08-03T11:12:05Z</time>
      </trkpt>
      <trkpt lat="47.21658" lon="6.01057">
        <ele>261.8</ele>
        <time>2024-08-03T11:12:06Z</time>
      </trkpt>
      <trkpt lat="47.21659" lon="6.01067">
        <ele>262</ele>
        <time>2024-08-03T11:12:07Z</time>
      </trkpt>
      <trkpt lat="47.21659" lon="6.01077">
        <ele>261.8</ele>
        <time>2024-08-03T11:12:08Z</time>
      </trkpt>
      <trkpt lat="47.2166" lon="6.01087">
        <ele>261.8</ele>
        <time>2024-08-03T11:12:09Z</time>
      </trkpt>
      <trkpt lat="47.21661" lon="6.01097">
        <ele>261.8</ele>
        <time>2024-08-03T11:12:10Z</time>
      </trkpt>
      <trkpt lat="47.21661" lon="6.01107">
        <ele>261.6</ele>
        <time>2024-08-03T11:12:11Z</time>
      </trkpt>
      <trkpt lat="47.21662" lon="6.01117">
        <ele>261.8</ele>
        <time>2024-08-03T11:12:12Z</time>
      </trkpt>
      <trkpt lat="47.21663" lon="6.01127">
        <ele>261.8</ele>
        <time>2024-08-03T11:12:13Z</time>
      </trkpt>
      <trkpt lat="47.21663" lon="6.01137">
        <ele>261.8</ele>
        <time>2024-08-03T11:12:14Z</time>
      </trkpt>
      <trkpt lat="47.21664" lon="6.01146">
        <ele>261.6</ele>
        <time>2024-08-03T11:12:15Z</time>
      </trkpt>
      <trkpt lat="47.21664" lon="6.01156">
        <ele>261.6</ele>
        <time>2024-08-03T11:12:16Z</time>
      </trkpt>
      <trkpt lat="47.21665" lon="6.01166">
        <ele>261.6</ele>
        <time>2024-08-03T11:12:17Z</time>
      </trkpt>
      <trkpt lat="47.21665" lon="6.01175">
        <ele>261.6</ele>
        <time>2024-08-03T11:12:18Z</time>
      </trkpt>
      <trkpt lat="47.21666" lon="6.01185">
        <ele>261.6</ele>
        <time>2024-08-03T11:12:19Z</time>
      </trkpt>
      <trkpt lat="47.21666" lon="6.01194">
        <ele>261.6</ele>
        <time>2024-08-03T11:12:20Z</time>
      </trkpt>
      <trkpt lat="47.21666" lon="6.01204">
        <ele>261.8</ele>
        <time>2024-08-03T11:12:21Z</time>
      </trkpt>
      <trkpt lat="47.21667" lon="6.01214">
        <ele>262</ele>
        <time>2024-08-03T11:12:22Z</time>
      </trkpt>
      <trkpt lat="47.21667" lon="6.01223">
        <ele>262</ele>
        <time>2024-08-03T11:12:23Z</time>
      </trkpt>
      <trkpt lat="47.21667" lon="6.01233">
        <ele>262.2</ele>
        <time>2024-08-03T11:12:24Z</time>
      </trkpt>
      <trkpt lat="47.21668" lon="6.01243">
        <ele>262.4</ele>
        <time>2024-08-03T11:12:25Z</time>
      </trkpt>
      <trkpt lat="47.21668" lon="6.01253">
        <ele>262.4</ele>
        <time>2024-08-03T11:12:26Z</time>
      </trkpt>
      <trkpt lat="47.21669" lon="6.01263">
        <ele>262.6</ele>
        <time>2024-08-03T11:12:27Z</time>
      </trkpt>
      <trkpt lat="47.2167" lon="6.01273">
        <ele>262.4</ele>
        <time>2024-08-03T11:12:28Z</time>
      </trkpt>
      <trkpt lat="47.21672" lon="6.01284">
        <ele>262.4</ele>
        <time>2024-08-03T11:12:29Z</time>
      </trkpt>
      <trkpt lat="47.21673" lon="6.01295">
        <ele>262.6</ele>
        <time>2024-08-03T11:12:30Z</time>
      </trkpt>
      <trkpt lat="47.21674" lon="6.01306">
        <ele>262.6</ele>
        <time>2024-08-03T11:12:31Z</time>
      </trkpt>
      <trkpt lat="47.21675" lon="6.01317">
        <ele>262.4</ele>
        <time>2024-08-03T11:12:32Z</time>
      </trkpt>
      <trkpt lat="47.21677" lon="6.01328">
        <ele>262.4</ele>
        <time>2024-08-03T11:12:33Z</time>
      </trkpt>
      <trkpt lat="47.21678" lon="6.01338">
        <ele>262.4</ele>
        <time>2024-08-03T11:12:34Z</time>
      </trkpt>
      <trkpt lat="47.21679" lon="6.01349">
        <ele>262.6</ele>
        <time>2024-08-03T11:12:35Z</time>
      </trkpt>
      <trkpt lat="47.2168" lon="6.01359">
        <ele>262.6</ele>
        <time>2024-08-03T11:12:36Z</time>
      </trkpt>
      <trkpt lat="47.21681" lon="6.01369">
        <ele>262.4</ele>
        <time>2024-08-03T11:12:37Z</time>
      </trkpt>
      <trkpt lat="47.21682" lon="6.01378">
        <ele>262.2</ele>
        <time>2024-08-03T11:12:38Z</time>
      </trkpt>
      <trkpt lat="47.21683" lon="6.01388">
        <ele>262.2</ele>
        <time>2024-08-03T11:12:39Z</time>
      </trkpt>
      <trkpt lat="47.21684" lon="6.01398">
        <ele>262.2</ele>
        <time>2024-08-03T11:12:40Z</time>
      </trkpt>
      <trkpt lat="47.21685" lon="6.01408">
        <ele>262</ele>
        <time>2024-08-03T11:12:41Z</time>
      </trkpt>
      <trkpt lat="47.21686" lon="6.01418">
        <ele>262</ele>
        <time>2024-08-03T11:12:42Z</time>
      </trkpt>
      <trkpt lat="47.21687" lon="6.01428">
        <ele>262</ele>
        <time>2024-08-03T11:12:43Z</time>
      </trkpt>
      <trkpt lat="47.21688" lon="6.01438">
        <ele>262</ele>
        <time>2024-08-03T11:12:44Z</time>
      </trkpt>
      <trkpt lat="47.21689" lon="6.01448">
        <ele>261.8</ele>
        <time>2024-08-03T11:12:45Z</time>
      </trkpt>
      <trkpt lat="47.2169" lon="6.01458">
        <ele>262</ele>
        <time>2024-08-03T11:12:46Z</time>
      </trkpt>
      <trkpt lat="47.2169" lon="6.01467">
        <ele>262</ele>
        <time>2024-08-03T11:12:47Z</time>
      </trkpt>
      <trkpt lat="47.21691" lon="6.01477">
        <ele>261.8</ele>
        <time>2024-08-03T11:12:48Z</time>
      </trkpt>
      <trkpt lat="47.21691" lon="6.01488">
        <ele>261.8</ele>
        <time>2024-08-03T11:12:49Z</time>
      </trkpt>
      <trkpt lat="47.21691" lon="6.01498">
        <ele>261.8</ele>
        <time>2024-08-03T11:12:50Z</time>
      </trkpt>
      <trkpt lat="47.21692" lon="6.01508">
        <ele>261.8</ele>
        <time>2024-08-03T11:12:51Z</time>
      </trkpt>
      <trkpt lat="47.21692" lon="6.01518">
        <ele>261.8</ele>
        <time>2024-08-03T11:12:52Z</time>
      </trkpt>
      <trkpt lat="47.21692" lon="6.01527">
        <ele>262</ele>
        <time>2024-08-03T11:12:53Z</time>
      </trkpt>
      <trkpt lat="47.21692" lon="6.01537">
        <ele>261.8</ele>
        <time>2024-08-03T11:12:54Z</time>
      </trkpt>
      <trkpt lat="47.21693" lon="6.01547">
        <ele>261.8</ele>
        <time>2024-08-03T11:12:55Z</time>
      </trkpt>
      <trkpt lat="47.21694" lon="6.01557">
        <ele>261.8</ele>
        <time>2024-08-03T11:12:56Z</time>
      </trkpt>
      <trkpt lat="47.21694" lon="6.01566">
        <ele>261.8</ele>
        <time>2024-08-03T11:12:57Z</time>
      </trkpt>
      <trkpt lat="47.21695" lon="6.01576">
        <ele>261.8</ele>
        <time>2024-08-03T11:12:58Z</time>
      </trkpt>
      <trkpt lat="47.21695" lon="6.01586">
        <ele>261.8</ele>
        <time>2024-08-03T11:12:59Z</time>
      </trkpt>
      <trkpt lat="47.21696" lon="6.01595">
        <ele>261.8</ele>
        <time>2024-08-03T11:13:00Z</time>
      </trkpt>
      <trkpt lat="47.21696" lon="6.01604">
        <ele>261.8</ele>
        <time>2024-08-03T11:13:01Z</time>
      </trkpt>
      <trkpt lat="47.21697" lon="6.01612">
        <ele>261.6</ele>
        <time>2024-08-03T11:13:02Z</time>
      </trkpt>
      <trkpt lat="47.21698" lon="6.01621">
        <ele>261.6</ele>
        <time>2024-08-03T11:13:03Z</time>
      </trkpt>
      <trkpt lat="47.21698" lon="6.01629">
        <ele>261.8</ele>
        <time>2024-08-03T11:13:04Z</time>
      </trkpt>
      <trkpt lat="47.21699" lon="6.01637">
        <ele>261.8</ele>
        <time>2024-08-03T11:13:05Z</time>
      </trkpt>
      <trkpt lat="47.217" lon="6.01645">
        <ele>261.6</ele>
        <time>2024-08-03T11:13:06Z</time>
      </trkpt>
      <trkpt lat="47.217" lon="6.01653">
        <ele>261.6</ele>
        <time>2024-08-03T11:13:07Z</time>
      </trkpt>
      <trkpt lat="47.21701" lon="6.01662">
        <ele>261.6</ele>
        <time>2024-08-03T11:13:08Z</time>
      </trkpt>
      <trkpt lat="47.21701" lon="6.0167">
        <ele>261.6</ele>
        <time>2024-08-03T11:13:09Z</time>
      </trkpt>
      <trkpt lat="47.21702" lon="6.01679">
        <ele>261.6</ele>
        <time>2024-08-03T11:13:10Z</time>
      </trkpt>
      <trkpt lat="47.21703" lon="6.01688">
        <ele>261.6</ele>
        <time>2024-08-03T11:13:11Z</time>
      </trkpt>
      <trkpt lat="47.21704" lon="6.01697">
        <ele>261.6</ele>
        <time>2024-08-03T11:13:12Z</time>
      </trkpt>
      <trkpt lat="47.21704" lon="6.01706">
        <ele>261.4</ele>
        <time>2024-08-03T11:13:13Z</time>
      </trkpt>
      <trkpt lat="47.21705" lon="6.01715">
        <ele>261.6</ele>
        <time>2024-08-03T11:13:14Z</time>
      </trkpt>
      <trkpt lat="47.21706" lon="6.01723">
        <ele>261.6</ele>
        <time>2024-08-03T11:13:15Z</time>
      </trkpt>
      <trkpt lat="47.21706" lon="6.01731">
        <ele>261.6</ele>
        <time>2024-08-03T11:13:16Z</time>
      </trkpt>
      <trkpt lat="47.21707" lon="6.0174">
        <ele>261.6</ele>
        <time>2024-08-03T11:13:17Z</time>
      </trkpt>
      <trkpt lat="47.21708" lon="6.01749">
        <ele>261.6</ele>
        <time>2024-08-03T11:13:18Z</time>
      </trkpt>
      <trkpt lat="47.2171" lon="6.01758">
        <ele>261.6</ele>
        <time>2024-08-03T11:13:19Z</time>
      </trkpt>
      <trkpt lat="47.21711" lon="6.01766">
        <ele>261.6</ele>
        <time>2024-08-03T11:13:20Z</time>
      </trkpt>
      <trkpt lat="47.21712" lon="6.01774">
        <ele>261.8</ele>
        <time>2024-08-03T11:13:21Z</time>
      </trkpt>
      <trkpt lat="47.21714" lon="6.01782">
        <ele>261.8</ele>
        <time>2024-08-03T11:13:22Z</time>
      </trkpt>
      <trkpt lat="47.21715" lon="6.0179">
        <ele>261.6</ele>
        <time>2024-08-03T11:13:23Z</time>
      </trkpt>
      <trkpt lat="47.21717" lon="6.01797">
        <ele>261.6</ele>
        <time>2024-08-03T11:13:24Z</time>
      </trkpt>
      <trkpt lat="47.21719" lon="6.01805">
        <ele>262</ele>
        <time>2024-08-03T11:13:25Z</time>
      </trkpt>
      <trkpt lat="47.21722" lon="6.01812">
        <ele>261.8</ele>
        <time>2024-08-03T11:13:26Z</time>
      </trkpt>
      <trkpt lat="47.21725" lon="6.0182">
        <ele>262</ele>
        <time>2024-08-03T11:13:27Z</time>
      </trkpt>
      <trkpt lat="47.21728" lon="6.01828">
        <ele>262</ele>
        <time>2024-08-03T11:13:28Z</time>
      </trkpt>
      <trkpt lat="47.21731" lon="6.01836">
        <ele>262</ele>
        <time>2024-08-03T11:13:29Z</time>
      </trkpt>
      <trkpt lat="47.21736" lon="6.01846">
        <ele>262</ele>
        <time>2024-08-03T11:13:30Z</time>
      </trkpt>
      <trkpt lat="47.21738" lon="6.01856">
        <ele>262.2</ele>
        <time>2024-08-03T11:13:31Z</time>
      </trkpt>
      <trkpt lat="47.2174" lon="6.01865">
        <ele>262.2</ele>
        <time>2024-08-03T11:13:32Z</time>
      </trkpt>
      <trkpt lat="47.21742" lon="6.01874">
        <ele>262</ele>
        <time>2024-08-03T11:13:33Z</time>
      </trkpt>
      <trkpt lat="47.21743" lon="6.01881">
        <ele>262.2</ele>
        <time>2024-08-03T11:13:34Z</time>
      </trkpt>
      <trkpt lat="47.21745" lon="6.01888">
        <ele>262.2</ele>
        <time>2024-08-03T11:13:35Z</time>
      </trkpt>
      <trkpt lat="47.21746" lon="6.01893">
        <ele>262</ele>
        <time>2024-08-03T11:13:36Z</time>
      </trkpt>
      <trkpt lat="47.21749" lon="6.01899">
        <ele>262.2</ele>
        <time>2024-08-03T11:13:37Z</time>
      </trkpt>
      <trkpt lat="47.21751" lon="6.01905">
        <ele>262.4</ele>
        <time>2024-08-03T11:13:38Z</time>
      </trkpt>
      <trkpt lat="47.21753" lon="6.01911">
        <ele>262.2</ele>
        <time>2024-08-03T11:13:39Z</time>
      </trkpt>
      <trkpt lat="47.21755" lon="6.01918">
        <ele>262.4</ele>
        <time>2024-08-03T11:13:40Z</time>
      </trkpt>
      <trkpt lat="47.21757" lon="6.01926">
        <ele>262.4</ele>
        <time>2024-08-03T11:13:41Z</time>
      </trkpt>
      <trkpt lat="47.21759" lon="6.01933">
        <ele>262.2</ele>
        <time>2024-08-03T11:13:42Z</time>
      </trkpt>
      <trkpt lat="47.21762" lon="6.0194">
        <ele>262.2</ele>
        <time>2024-08-03T11:13:43Z</time>
      </trkpt>
      <trkpt lat="47.21765" lon="6.01948">
        <ele>262</ele>
        <time>2024-08-03T11:13:44Z</time>
      </trkpt>
      <trkpt lat="47.21768" lon="6.01955">
        <ele>262.2</ele>
        <time>2024-08-03T11:13:45Z</time>
      </trkpt>
      <trkpt lat="47.21771" lon="6.01963">
        <ele>262</ele>
        <time>2024-08-03T11:13:46Z</time>
      </trkpt>
      <trkpt lat="47.21775" lon="6.01971">
        <ele>262.2</ele>
        <time>2024-08-03T11:13:47Z</time>
      </trkpt>
      <trkpt lat="47.21778" lon="6.01978">
        <ele>262.2</ele>
        <time>2024-08-03T11:13:48Z</time>
      </trkpt>
      <trkpt lat="47.21781" lon="6.01986">
        <ele>262</ele>
        <time>2024-08-03T11:13:49Z</time>
      </trkpt>
      <trkpt lat="47.21784" lon="6.01993">
        <ele>262.2</ele>
        <time>2024-08-03T11:13:50Z</time>
      </trkpt>
      <trkpt lat="47.21787" lon="6.01999">
        <ele>262</ele>
        <time>2024-08-03T11:13:51Z</time>
      </trkpt>
      <trkpt lat="47.2179" lon="6.02006">
        <ele>262.2</ele>
        <time>2024-08-03T11:13:52Z</time>
      </trkpt>
      <trkpt lat="47.21793" lon="6.02014">
        <ele>262</ele>
        <time>2024-08-03T11:13:53Z</time>
      </trkpt>
      <trkpt lat="47.21796" lon="6.02021">
        <ele>262.2</ele>
        <time>2024-08-03T11:13:54Z</time>
      </trkpt>
      <trkpt lat="47.21799" lon="6.02028">
        <ele>262</ele>
        <time>2024-08-03T11:13:55Z</time>
      </trkpt>
      <trkpt lat="47.21802" lon="6.02036">
        <ele>262.2</ele>
        <time>2024-08-03T11:13:56Z</time>
      </trkpt>
      <trkpt lat="47.21805" lon="6.02043">
        <ele>262</ele>
        <time>2024-08-03T11:13:57Z</time>
      </trkpt>
      <trkpt lat="47.21808" lon="6.02051">
        <ele>262.2</ele>
        <time>2024-08-03T11:13:58Z</time>
      </trkpt>
      <trkpt lat="47.21811" lon="6.02058">
        <ele>262</ele>
        <time>2024-08-03T11:13:59Z</time>
      </trkpt>
      <trkpt lat="47.21814" lon="6.02065">
        <ele>262.2</ele>
        <time>2024-08-03T11:14:00Z</time>
      </trkpt>
      <trkpt lat="47.21817" lon="6.02072">
        <ele>262</ele>
        <time>2024-08-03T11:14:01Z</time>
      </trkpt>
      <trkpt lat="47.2182" lon="6.0208">
        <ele>262.2</ele>
        <time>2024-08-03T11:14:02Z</time>
      </trkpt>
      <trkpt lat="47.21824" lon="6.02087">
        <ele>262.2</ele>
        <time>2024-08-03T11:14:03Z</time>
      </trkpt>
      <trkpt lat="47.21828" lon="6.02095">
        <ele>262.2</ele>
        <time>2024-08-03T11:14:04Z</time>
      </trkpt>
      <trkpt lat="47.21832" lon="6.02103">
        <ele>262</ele>
        <time>2024-08-03T11:14:05Z</time>
      </trkpt>
      <trkpt lat="47.21836" lon="6.02111">
        <ele>262</ele>
        <time>2024-08-03T11:14:06Z</time>
      </trkpt>
      <trkpt lat="47.21839" lon="6.02119">
        <ele>262.2</ele>
        <time>2024-08-03T11:14:07Z</time>
      </trkpt>
      <trkpt lat="47.21842" lon="6.02127">
        <ele>262.2</ele>
        <time>2024-08-03T11:14:08Z</time>
      </trkpt>
      <trkpt lat="47.21846" lon="6.02135">
        <ele>262.2</ele>
        <time>2024-08-03T11:14:09Z</time>
      </trkpt>
      <trkpt lat="47.2185" lon="6.02143">
        <ele>262.2</ele>
        <time>2024-08-03T11:14:10Z</time>
      </trkpt>
      <trkpt lat="47.21853" lon="6.0215">
        <ele>262</ele>
        <time>2024-08-03T11:14:11Z</time>
      </trkpt>
      <trkpt lat="47.21856" lon="6.02158">
        <ele>262</ele>
        <time>2024-08-03T11:14:12Z</time>
      </trkpt>
      <trkpt lat="47.21859" lon="6.02165">
        <ele>262.2</ele>
        <time>2024-08-03T11:14:13Z</time>
      </trkpt>
      <trkpt lat="47.21863" lon="6.02173">
        <ele>262.2</ele>
        <time>2024-08-03T11:14:14Z</time>
      </trkpt>
      <trkpt lat="47.21866" lon="6.0218">
        <ele>262.2</ele>
        <time>2024-08-03T11:14:15Z</time>
      </trkpt>
      <trkpt lat="47.21869" lon="6.02188">
        <ele>262.2</ele>
        <time>2024-08-03T11:14:16Z</time>
      </trkpt>
      <trkpt lat="47.21872" lon="6.02196">
        <ele>262.2</ele>
        <time>2024-08-03T11:14:17Z</time>
      </trkpt>
      <trkpt lat="47.21875" lon="6.02204">
        <ele>262.2</ele>
        <time>2024-08-03T11:14:18Z</time>
      </trkpt>
      <trkpt lat="47.21877" lon="6.02212">
        <ele>262.2</ele>
        <time>2024-08-03T11:14:19Z</time>
      </trkpt>
      <trkpt lat="47.2188" lon="6.02219">
        <ele>262.2</ele>
        <time>2024-08-03T11:14:20Z</time>
      </trkpt>
      <trkpt lat="47.21883" lon="6.02227">
        <ele>262.4</ele>
        <time>2024-08-03T11:14:21Z</time>
      </trkpt>
      <trkpt lat="47.21886" lon="6.02234">
        <ele>262.4</ele>
        <time>2024-08-03T11:14:22Z</time>
      </trkpt>
      <trkpt lat="47.2189" lon="6.02242">
        <ele>262.4</ele>
        <time>2024-08-03T11:14:23Z</time>
      </trkpt>
      <trkpt lat="47.21893" lon="6.0225">
        <ele>262.4</ele>
        <time>2024-08-03T11:14:24Z</time>
      </trkpt>
      <trkpt lat="47.21897" lon="6.02258">
        <ele>262.4</ele>
        <time>2024-08-03T11:14:25Z</time>
      </trkpt>
      <trkpt lat="47.219" lon="6.02266">
        <ele>262.4</ele>
        <time>2024-08-03T11:14:26Z</time>
      </trkpt>
      <trkpt lat="47.21904" lon="6.02274">
        <ele>262.2</ele>
        <time>2024-08-03T11:14:27Z</time>
      </trkpt>
      <trkpt lat="47.21907" lon="6.02282">
        <ele>262.4</ele>
        <time>2024-08-03T11:14:28Z</time>
      </trkpt>
      <trkpt lat="47.21911" lon="6.0229">
        <ele>262.2</ele>
        <time>2024-08-03T11:14:29Z</time>
      </trkpt>
      <trkpt lat="47.21914" lon="6.02298">
        <ele>262.4</ele>
        <time>2024-08-03T11:14:30Z</time>
      </trkpt>
      <trkpt lat="47.21918" lon="6.02306">
        <ele>262.4</ele>
        <time>2024-08-03T11:14:31Z</time>
      </trkpt>
      <trkpt lat="47.21921" lon="6.02314">
        <ele>262.4</ele>
        <time>2024-08-03T11:14:32Z</time>
      </trkpt>
      <trkpt lat="47.21924" lon="6.02321">
        <ele>262.4</ele>
        <time>2024-08-03T11:14:33Z</time>
      </trkpt>
      <trkpt lat="47.21928" lon="6.02327">
        <ele>262.4</ele>
        <time>2024-08-03T11:14:34Z</time>
      </trkpt>
      <trkpt lat="47.21931" lon="6.02334">
        <ele>262.4</ele>
        <time>2024-08-03T11:14:35Z</time>
      </trkpt>
      <trkpt lat="47.21935" lon="6.02341">
        <ele>262.4</ele>
        <time>2024-08-03T11:14:36Z</time>
      </trkpt>
      <trkpt lat="47.21938" lon="6.02349">
        <ele>262.4</ele>
        <time>2024-08-03T11:14:37Z</time>
      </trkpt>
      <trkpt lat="47.21942" lon="6.02357">
        <ele>262.2</ele>
        <time>2024-08-03T11:14:38Z</time>
      </trkpt>
      <trkpt lat="47.21945" lon="6.02365">
        <ele>262.4</ele>
        <time>2024-08-03T11:14:39Z</time>
      </trkpt>
      <trkpt lat="47.21948" lon="6.02374">
        <ele>262.4</ele>
        <time>2024-08-03T11:14:40Z</time>
      </trkpt>
      <trkpt lat="47.21951" lon="6.02383">
        <ele>262.6</ele>
        <time>2024-08-03T11:14:41Z</time>
      </trkpt>
      <trkpt lat="47.21954" lon="6.02391">
        <ele>262.8</ele>
        <time>2024-08-03T11:14:42Z</time>
      </trkpt>
      <trkpt lat="47.21956" lon="6.02401">
        <ele>262.8</ele>
        <time>2024-08-03T11:14:43Z</time>
      </trkpt>
      <trkpt lat="47.21959" lon="6.0241">
        <ele>263</ele>
        <time>2024-08-03T11:14:44Z</time>
      </trkpt>
      <trkpt lat="47.21962" lon="6.02418">
        <ele>263</ele>
        <time>2024-08-03T11:14:45Z</time>
      </trkpt>
      <trkpt lat="47.21965" lon="6.02427">
        <ele>262.8</ele>
        <time>2024-08-03T11:14:46Z</time>
      </trkpt>
      <trkpt lat="47.21967" lon="6.02436">
        <ele>262.8</ele>
        <time>2024-08-03T11:14:47Z</time>
      </trkpt>
      <trkpt lat="47.21969" lon="6.02445">
        <ele>263</ele>
        <time>2024-08-03T11:14:48Z</time>
      </trkpt>
      <trkpt lat="47.21971" lon="6.02455">
        <ele>263</ele>
        <time>2024-08-03T11:14:49Z</time>
      </trkpt>
      <trkpt lat="47.21972" lon="6.02464">
        <ele>263.2</ele>
        <time>2024-08-03T11:14:50Z</time>
      </trkpt>
      <trkpt lat="47.21974" lon="6.02473">
        <ele>263</ele>
        <time>2024-08-03T11:14:51Z</time>
      </trkpt>
      <trkpt lat="47.21974" lon="6.02482">
        <ele>263</ele>
        <time>2024-08-03T11:14:52Z</time>
      </trkpt>
      <trkpt lat="47.21975" lon="6.02491">
        <ele>263.2</ele>
        <time>2024-08-03T11:14:53Z</time>
      </trkpt>
      <trkpt lat="47.21975" lon="6.025">
        <ele>263</ele>
        <time>2024-08-03T11:14:54Z</time>
      </trkpt>
      <trkpt lat="47.21976" lon="6.02509">
        <ele>263.2</ele>
        <time>2024-08-03T11:14:55Z</time>
      </trkpt>
      <trkpt lat="47.21977" lon="6.02518">
        <ele>263.2</ele>
        <time>2024-08-03T11:14:56Z</time>
      </trkpt>
      <trkpt lat="47.21978" lon="6.02527">
        <ele>263</ele>
        <time>2024-08-03T11:14:57Z</time>
      </trkpt>
      <trkpt lat="47.21979" lon="6.02536">
        <ele>263.2</ele>
        <time>2024-08-03T11:14:58Z</time>
      </trkpt>
      <trkpt lat="47.2198" lon="6.02545">
        <ele>263.2</ele>
        <time>2024-08-03T11:14:59Z</time>
      </trkpt>
      <trkpt lat="47.21981" lon="6.02553">
        <ele>263.2</ele>
        <time>2024-08-03T11:15:00Z</time>
      </trkpt>
      <trkpt lat="47.21982" lon="6.02562">
        <ele>263.2</ele>
        <time>2024-08-03T11:15:01Z</time>
      </trkpt>
      <trkpt lat="47.21983" lon="6.02571">
        <ele>263.2</ele>
        <time>2024-08-03T11:15:02Z</time>
      </trkpt>
      <trkpt lat="47.21984" lon="6.0258">
        <ele>263.2</ele>
        <time>2024-08-03T11:15:03Z</time>
      </trkpt>
      <trkpt lat="47.21985" lon="6.02588">
        <ele>263.2</ele>
        <time>2024-08-03T11:15:04Z</time>
      </trkpt>
      <trkpt lat="47.21986" lon="6.02597">
        <ele>263.2</ele>
        <time>2024-08-03T11:15:05Z</time>
      </trkpt>
      <trkpt lat="47.21986" lon="6.02606">
        <ele>263</ele>
        <time>2024-08-03T11:15:06Z</time>
      </trkpt>
      <trkpt lat="47.21987" lon="6.02614">
        <ele>263</ele>
        <time>2024-08-03T11:15:07Z</time>
      </trkpt>
      <trkpt lat="47.21988" lon="6.02621">
        <ele>263.2</ele>
        <time>2024-08-03T11:15:08Z</time>
      </trkpt>
      <trkpt lat="47.21989" lon="6.02629">
        <ele>263.2</ele>
        <time>2024-08-03T11:15:09Z</time>
      </trkpt>
      <trkpt lat="47.21991" lon="6.02636">
        <ele>263</ele>
        <time>2024-08-03T11:15:10Z</time>
      </trkpt>
      <trkpt lat="47.21992" lon="6.02643">
        <ele>263</ele>
        <time>2024-08-03T11:15:11Z</time>
      </trkpt>
      <trkpt lat="47.21993" lon="6.02651">
        <ele>263</ele>
        <time>2024-08-03T11:15:12Z</time>
      </trkpt>
      <trkpt lat="47.21994" lon="6.02658">
        <ele>263</ele>
        <time>2024-08-03T11:15:13Z</time>
      </trkpt>
      <trkpt lat="47.21995" lon="6.02666">
        <ele>263.2</ele>
        <time>2024-08-03T11:15:14Z</time>
      </trkpt>
      <trkpt lat="47.21996" lon="6.02674">
        <ele>263</ele>
        <time>2024-08-03T11:15:15Z</time>
      </trkpt>
      <trkpt lat="47.21997" lon="6.02682">
        <ele>263.2</ele>
        <time>2024-08-03T11:15:16Z</time>
      </trkpt>
      <trkpt lat="47.21998" lon="6.0269">
        <ele>263</ele>
        <time>2024-08-03T11:15:17Z</time>
      </trkpt>
      <trkpt lat="47.21998" lon="6.02697">
        <ele>263</ele>
        <time>2024-08-03T11:15:18Z</time>
      </trkpt>
      <trkpt lat="47.21999" lon="6.02705">
        <ele>263</ele>
        <time>2024-08-03T11:15:19Z</time>
      </trkpt>
      <trkpt lat="47.22001" lon="6.02713">
        <ele>263.2</ele>
        <time>2024-08-03T11:15:20Z</time>
      </trkpt>
      <trkpt lat="47.22002" lon="6.0272">
        <ele>263</ele>
        <time>2024-08-03T11:15:21Z</time>
      </trkpt>
      <trkpt lat="47.22003" lon="6.02727">
        <ele>263</ele>
        <time>2024-08-03T11:15:22Z</time>
      </trkpt>
      <trkpt lat="47.22005" lon="6.02735">
        <ele>263.2</ele>
        <time>2024-08-03T11:15:23Z</time>
      </trkpt>
      <trkpt lat="47.22006" lon="6.02742">
        <ele>263</ele>
        <time>2024-08-03T11:15:24Z</time>
      </trkpt>
      <trkpt lat="47.22007" lon="6.0275">
        <ele>263</ele>
        <time>2024-08-03T11:15:25Z</time>
      </trkpt>
      <trkpt lat="47.22009" lon="6.02759">
        <ele>263.2</ele>
        <time>2024-08-03T11:15:26Z</time>
      </trkpt>
      <trkpt lat="47.22011" lon="6.02767">
        <ele>263.2</ele>
        <time>2024-08-03T11:15:27Z</time>
      </trkpt>
      <trkpt lat="47.22013" lon="6.02776">
        <ele>263.4</ele>
        <time>2024-08-03T11:15:28Z</time>
      </trkpt>
      <trkpt lat="47.22015" lon="6.02784">
        <ele>263.6</ele>
        <time>2024-08-03T11:15:29Z</time>
      </trkpt>
      <trkpt lat="47.22017" lon="6.02792">
        <ele>263.6</ele>
        <time>2024-08-03T11:15:30Z</time>
      </trkpt>
      <trkpt lat="47.2202" lon="6.02801">
        <ele>263.6</ele>
        <time>2024-08-03T11:15:31Z</time>
      </trkpt>
      <trkpt lat="47.22022" lon="6.02809">
        <ele>263.6</ele>
        <time>2024-08-03T11:15:32Z</time>
      </trkpt>
      <trkpt lat="47.22025" lon="6.02817">
        <ele>263.8</ele>
        <time>2024-08-03T11:15:33Z</time>
      </trkpt>
      <trkpt lat="47.22029" lon="6.02825">
        <ele>263.8</ele>
        <time>2024-08-03T11:15:34Z</time>
      </trkpt>
      <trkpt lat="47.22032" lon="6.02832">
        <ele>263.8</ele>
        <time>2024-08-03T11:15:35Z</time>
      </trkpt>
      <trkpt lat="47.22035" lon="6.0284">
        <ele>264</ele>
        <time>2024-08-03T11:15:36Z</time>
      </trkpt>
      <trkpt lat="47.22039" lon="6.02847">
        <ele>264</ele>
        <time>2024-08-03T11:15:37Z</time>
      </trkpt>
      <trkpt lat="47.22043" lon="6.02854">
        <ele>263.8</ele>
        <time>2024-08-03T11:15:38Z</time>
      </trkpt>
      <trkpt lat="47.22047" lon="6.02861">
        <ele>264</ele>
        <time>2024-08-03T11:15:39Z</time>
      </trkpt>
      <trkpt lat="47.22051" lon="6.02868">
        <ele>264</ele>
        <time>2024-08-03T11:15:40Z</time>
      </trkpt>
      <trkpt lat="47.22055" lon="6.02874">
        <ele>264</ele>
        <time>2024-08-03T11:15:41Z</time>
      </trkpt>
      <trkpt lat="47.22059" lon="6.0288">
        <ele>264.2</ele>
        <time>2024-08-03T11:15:42Z</time>
      </trkpt>
      <trkpt lat="47.22062" lon="6.02887">
        <ele>264</ele>
        <time>2024-08-03T11:15:43Z</time>
      </trkpt>
      <trkpt lat="47.22066" lon="6.02894">
        <ele>264</ele>
        <time>2024-08-03T11:15:44Z</time>
      </trkpt>
      <trkpt lat="47.2207" lon="6.02901">
        <ele>264.2</ele>
        <time>2024-08-03T11:15:45Z</time>
      </trkpt>
      <trkpt lat="47.22074" lon="6.02907">
        <ele>264.2</ele>
        <time>2024-08-03T11:15:46Z</time>
      </trkpt>
      <trkpt lat="47.22079" lon="6.02914">
        <ele>264.2</ele>
        <time>2024-08-03T11:15:47Z</time>
      </trkpt>
      <trkpt lat="47.22083" lon="6.0292">
        <ele>264.2</ele>
        <time>2024-08-03T11:15:48Z</time>
      </trkpt>
      <trkpt lat="47.22087" lon="6.02926">
        <ele>264.2</ele>
        <time>2024-08-03T11:15:49Z</time>
      </trkpt>
      <trkpt lat="47.22092" lon="6.02932">
        <ele>264.2</ele>
        <time>2024-08-03T11:15:50Z</time>
      </trkpt>
      <trkpt lat="47.22096" lon="6.02938">
        <ele>264.2</ele>
        <time>2024-08-03T11:15:51Z</time>
      </trkpt>
      <trkpt lat="47.22101" lon="6.02944">
        <ele>264.2</ele>
        <time>2024-08-03T11:15:52Z</time>
      </trkpt>
      <trkpt lat="47.22106" lon="6.0295">
        <ele>264.4</ele>
        <time>2024-08-03T11:15:53Z</time>
      </trkpt>
      <trkpt lat="47.22111" lon="6.02956">
        <ele>264.2</ele>
        <time>2024-08-03T11:15:54Z</time>
      </trkpt>
      <trkpt lat="47.22116" lon="6.02962">
        <ele>264.2</ele>
        <time>2024-08-03T11:15:55Z</time>
      </trkpt>
      <trkpt lat="47.22121" lon="6.02968">
        <ele>264.2</ele>
        <time>2024-08-03T11:15:56Z</time>
      </trkpt>
      <trkpt lat="47.22126" lon="6.02973">
        <ele>264.4</ele>
        <time>2024-08-03T11:15:57Z</time>
      </trkpt>
      <trkpt lat="47.22131" lon="6.02979">
        <ele>264.2</ele>
        <time>2024-08-03T11:15:58Z</time>
      </trkpt>
      <trkpt lat="47.22136" lon="6.02983">
        <ele>264.2</ele>
        <time>2024-08-03T11:15:59Z</time>
      </trkpt>
      <trkpt lat="47.22142" lon="6.02988">
        <ele>264.4</ele>
        <time>2024-08-03T11:16:00Z</time>
      </trkpt>
      <trkpt lat="47.22147" lon="6.02993">
        <ele>264.2</ele>
        <time>2024-08-03T11:16:01Z</time>
      </trkpt>
      <trkpt lat="47.22152" lon="6.02997">
        <ele>264.2</ele>
        <time>2024-08-03T11:16:02Z</time>
      </trkpt>
      <trkpt lat="47.22157" lon="6.03002">
        <ele>264.4</ele>
        <time>2024-08-03T11:16:03Z</time>
      </trkpt>
      <trkpt lat="47.22162" lon="6.03006">
        <ele>264.4</ele>
        <time>2024-08-03T11:16:04Z</time>
      </trkpt>
      <trkpt lat="47.22168" lon="6.0301">
        <ele>264.4</ele>
        <time>2024-08-03T11:16:05Z</time>
      </trkpt>
      <trkpt lat="47.22173" lon="6.03013">
        <ele>264.4</ele>
        <time>2024-08-03T11:16:06Z</time>
      </trkpt>
      <trkpt lat="47.22178" lon="6.03016">
        <ele>264.4</ele>
        <time>2024-08-03T11:16:07Z</time>
      </trkpt>
      <trkpt lat="47.22183" lon="6.03019">
        <ele>264.4</ele>
        <time>2024-08-03T11:16:08Z</time>
      </trkpt>
      <trkpt lat="47.22188" lon="6.03022">
        <ele>264.2</ele>
        <time>2024-08-03T11:16:09Z</time>
      </trkpt>
      <trkpt lat="47.22192" lon="6.03025">
        <ele>264.4</ele>
        <time>2024-08-03T11:16:10Z</time>
      </trkpt>
      <trkpt lat="47.22197" lon="6.03029">
        <ele>264.4</ele>
        <time>2024-08-03T11:16:11Z</time>
      </trkpt>
      <trkpt lat="47.22201" lon="6.03031">
        <ele>264.4</ele>
        <time>2024-08-03T11:16:12Z</time>
      </trkpt>
      <trkpt lat="47.22206" lon="6.03034">
        <ele>264.2</ele>
        <time>2024-08-03T11:16:13Z</time>
      </trkpt>
      <trkpt lat="47.22212" lon="6.03037">
        <ele>264.2</ele>
        <time>2024-08-03T11:16:14Z</time>
      </trkpt>
      <trkpt lat="47.22218" lon="6.0304">
        <ele>264.4</ele>
        <time>2024-08-03T11:16:15Z</time>
      </trkpt>
      <trkpt lat="47.22224" lon="6.03044">
        <ele>264.6</ele>
        <time>2024-08-03T11:16:16Z</time>
      </trkpt>
      <trkpt lat="47.2223" lon="6.03048">
        <ele>264.6</ele>
        <time>2024-08-03T11:16:17Z</time>
      </trkpt>
      <trkpt lat="47.22236" lon="6.03051">
        <ele>264.4</ele>
        <time>2024-08-03T11:16:18Z</time>
      </trkpt>
      <trkpt lat="47.22242" lon="6.03054">
        <ele>264.4</ele>
        <time>2024-08-03T11:16:19Z</time>
      </trkpt>
      <trkpt lat="47.22248" lon="6.03057">
        <ele>264.4</ele>
        <time>2024-08-03T11:16:20Z</time>
      </trkpt>
      <trkpt lat="47.22253" lon="6.03061">
        <ele>264.4</ele>
        <time>2024-08-03T11:16:21Z</time>
      </trkpt>
      <trkpt lat="47.22259" lon="6.03065">
        <ele>264.6</ele>
        <time>2024-08-03T11:16:22Z</time>
      </trkpt>
      <trkpt lat="47.22265" lon="6.03069">
        <ele>264.4</ele>
        <time>2024-08-03T11:16:23Z</time>
      </trkpt>
      <trkpt lat="47.22271" lon="6.03073">
        <ele>264.4</ele>
        <time>2024-08-03T11:16:24Z</time>
      </trkpt>
      <trkpt lat="47.22277" lon="6.03077">
        <ele>264.4</ele>
        <time>2024-08-03T11:16:25Z</time>
      </trkpt>
      <trkpt lat="47.22283" lon="6.0308">
        <ele>264.4</ele>
        <time>2024-08-03T11:16:26Z</time>
      </trkpt>
      <trkpt lat="47.22288" lon="6.03083">
        <ele>264.4</ele>
        <time>2024-08-03T11:16:27Z</time>
      </trkpt>
      <trkpt lat="47.22295" lon="6.03086">
        <ele>264.4</ele>
        <time>2024-08-03T11:16:28Z</time>
      </trkpt>
      <trkpt lat="47.22301" lon="6.0309">
        <ele>264.4</ele>
        <time>2024-08-03T11:16:29Z</time>
      </trkpt>
      <trkpt lat="47.22306" lon="6.03093">
        <ele>264.4</ele>
        <time>2024-08-03T11:16:30Z</time>
      </trkpt>
      <trkpt lat="47.22312" lon="6.03096">
        <ele>264.4</ele>
        <time>2024-08-03T11:16:31Z</time>
      </trkpt>
      <trkpt lat="47.22318" lon="6.03099">
        <ele>264.4</ele>
        <time>2024-08-03T11:16:32Z</time>
      </trkpt>
      <trkpt lat="47.22323" lon="6.03102">
        <ele>264.4</ele>
        <time>2024-08-03T11:16:33Z</time>
      </trkpt>
      <trkpt lat="47.22328" lon="6.03105">
        <ele>264.4</ele>
        <time>2024-08-03T11:16:34Z</time>
      </trkpt>
      <trkpt lat="47.22333" lon="6.03107">
        <ele>264.4</ele>
        <time>2024-08-03T11:16:35Z</time>
      </trkpt>
      <trkpt lat="47.22339" lon="6.0311">
        <ele>264.4</ele>
        <time>2024-08-03T11:16:36Z</time>
      </trkpt>
      <trkpt lat="47.22345" lon="6.03113">
        <ele>264.2</ele>
        <time>2024-08-03T11:16:37Z</time>
      </trkpt>
      <trkpt lat="47.22351" lon="6.03117">
        <ele>264.2</ele>
        <time>2024-08-03T11:16:38Z</time>
      </trkpt>
      <trkpt lat="47.22358" lon="6.03121">
        <ele>264.4</ele>
        <time>2024-08-03T11:16:39Z</time>
      </trkpt>
      <trkpt lat="47.22364" lon="6.03125">
        <ele>264.2</ele>
        <time>2024-08-03T11:16:40Z</time>
      </trkpt>
      <trkpt lat="47.2237" lon="6.03128">
        <ele>264.4</ele>
        <time>2024-08-03T11:16:41Z</time>
      </trkpt>
      <trkpt lat="47.22376" lon="6.03132">
        <ele>264.4</ele>
        <time>2024-08-03T11:16:42Z</time>
      </trkpt>
      <trkpt lat="47.22382" lon="6.03136">
        <ele>264.4</ele>
        <time>2024-08-03T11:16:43Z</time>
      </trkpt>
      <trkpt lat="47.22388" lon="6.03139">
        <ele>264.2</ele>
        <time>2024-08-03T11:16:44Z</time>
      </trkpt>
      <trkpt lat="47.22394" lon="6.03142">
        <ele>264.4</ele>
        <time>2024-08-03T11:16:45Z</time>
      </trkpt>
      <trkpt lat="47.224" lon="6.03144">
        <ele>264.4</ele>
        <time>2024-08-03T11:16:46Z</time>
      </trkpt>
      <trkpt lat="47.22405" lon="6.03147">
        <ele>264.4</ele>
        <time>2024-08-03T11:16:47Z</time>
      </trkpt>
      <trkpt lat="47.22412" lon="6.0315">
        <ele>264.2</ele>
        <time>2024-08-03T11:16:48Z</time>
      </trkpt>
      <trkpt lat="47.22418" lon="6.03154">
        <ele>264.4</ele>
        <time>2024-08-03T11:16:49Z</time>
      </trkpt>
      <trkpt lat="47.22424" lon="6.03157">
        <ele>264.4</ele>
        <time>2024-08-03T11:16:50Z</time>
      </trkpt>
      <trkpt lat="47.2243" lon="6.03161">
        <ele>264.4</ele>
        <time>2024-08-03T11:16:51Z</time>
      </trkpt>
      <trkpt lat="47.22436" lon="6.03164">
        <ele>264.4</ele>
        <time>2024-08-03T11:16:52Z</time>
      </trkpt>
      <trkpt lat="47.22441" lon="6.03167">
        <ele>264.2</ele>
        <time>2024-08-03T11:16:53Z</time>
      </trkpt>
      <trkpt lat="47.22447" lon="6.03171">
        <ele>264.4</ele>
        <time>2024-08-03T11:16:54Z</time>
      </trkpt>
      <trkpt lat="47.22452" lon="6.03173">
        <ele>264.4</ele>
        <time>2024-08-03T11:16:55Z</time>
      </trkpt>
      <trkpt lat="47.22458" lon="6.03176">
        <ele>264.2</ele>
        <time>2024-08-03T11:16:56Z</time>
      </trkpt>
      <trkpt lat="47.22464" lon="6.03178">
        <ele>264.4</ele>
        <time>2024-08-03T11:16:57Z</time>
      </trkpt>
      <trkpt lat="47.2247" lon="6.0318">
        <ele>264.4</ele>
        <time>2024-08-03T11:16:58Z</time>
      </trkpt>
      <trkpt lat="47.22476" lon="6.03182">
        <ele>264.2</ele>
        <time>2024-08-03T11:16:59Z</time>
      </trkpt>
      <trkpt lat="47.22482" lon="6.03184">
        <ele>264.4</ele>
        <time>2024-08-03T11:17:00Z</time>
      </trkpt>
      <trkpt lat="47.22489" lon="6.03186">
        <ele>264.6</ele>
        <time>2024-08-03T11:17:01Z</time>
      </trkpt>
      <trkpt lat="47.22495" lon="6.03188">
        <ele>264.4</ele>
        <time>2024-08-03T11:17:02Z</time>
      </trkpt>
      <trkpt lat="47.22502" lon="6.0319">
        <ele>264.4</ele>
        <time>2024-08-03T11:17:03Z</time>
      </trkpt>
      <trkpt lat="47.22508" lon="6.03193">
        <ele>264.4</ele>
        <time>2024-08-03T11:17:04Z</time>
      </trkpt>
      <trkpt lat="47.22514" lon="6.03195">
        <ele>264.4</ele>
        <time>2024-08-03T11:17:05Z</time>
      </trkpt>
      <trkpt lat="47.22521" lon="6.03198">
        <ele>264.4</ele>
        <time>2024-08-03T11:17:06Z</time>
      </trkpt>
      <trkpt lat="47.22527" lon="6.03202">
        <ele>264.4</ele>
        <time>2024-08-03T11:17:07Z</time>
      </trkpt>
      <trkpt lat="47.22532" lon="6.03207">
        <ele>264.4</ele>
        <time>2024-08-03T11:17:08Z</time>
      </trkpt>
      <trkpt lat="47.22537" lon="6.03212">
        <ele>264.4</ele>
        <time>2024-08-03T11:17:09Z</time>
      </trkpt>
      <trkpt lat="47.22542" lon="6.03218">
        <ele>264.6</ele>
        <time>2024-08-03T11:17:10Z</time>
      </trkpt>
      <trkpt lat="47.22547" lon="6.03223">
        <ele>264.6</ele>
        <time>2024-08-03T11:17:11Z</time>
      </trkpt>
      <trkpt lat="47.22552" lon="6.03229">
        <ele>264.4</ele>
        <time>2024-08-03T11:17:12Z</time>
      </trkpt>
      <trkpt lat="47.22557" lon="6.03235">
        <ele>264.6</ele>
        <time>2024-08-03T11:17:13Z</time>
      </trkpt>
      <trkpt lat="47.22562" lon="6.03241">
        <ele>264.4</ele>
        <time>2024-08-03T11:17:14Z</time>
      </trkpt>
      <trkpt lat="47.22567" lon="6.03246">
        <ele>264.4</ele>
        <time>2024-08-03T11:17:15Z</time>
      </trkpt>
      <trkpt lat="47.22572" lon="6.03251">
        <ele>264.4</ele>
        <time>2024-08-03T11:17:16Z</time>
      </trkpt>
      <trkpt lat="47.22577" lon="6.03256">
        <ele>264.4</ele>
        <time>2024-08-03T11:17:17Z</time>
      </trkpt>
      <trkpt lat="47.22583" lon="6.0326">
        <ele>264.4</ele>
        <time>2024-08-03T11:17:18Z</time>
      </trkpt>
      <trkpt lat="47.22588" lon="6.03264">
        <ele>264.4</ele>
        <time>2024-08-03T11:17:19Z</time>
      </trkpt>
      <trkpt lat="47.22593" lon="6.03268">
        <ele>264.4</ele>
        <time>2024-08-03T11:17:20Z</time>
      </trkpt>
      <trkpt lat="47.22599" lon="6.03271">
        <ele>264.2</ele>
        <time>2024-08-03T11:17:21Z</time>
      </trkpt>
      <trkpt lat="47.22604" lon="6.03272">
        <ele>264.4</ele>
        <time>2024-08-03T11:17:22Z</time>
      </trkpt>
      <trkpt lat="47.22609" lon="6.03273">
        <ele>264.4</ele>
        <time>2024-08-03T11:17:23Z</time>
      </trkpt>
      <trkpt lat="47.22614" lon="6.03272">
        <ele>264.4</ele>
        <time>2024-08-03T11:17:24Z</time>
      </trkpt>
      <trkpt lat="47.2262" lon="6.03271">
        <ele>264.4</ele>
        <time>2024-08-03T11:17:25Z</time>
      </trkpt>
      <trkpt lat="47.22626" lon="6.0327">
        <ele>264.4</ele>
        <time>2024-08-03T11:17:26Z</time>
      </trkpt>
      <trkpt lat="47.22632" lon="6.03267">
        <ele>264.4</ele>
        <time>2024-08-03T11:17:27Z</time>
      </trkpt>
      <trkpt lat="47.22638" lon="6.03265">
        <ele>264.4</ele>
        <time>2024-08-03T11:17:28Z</time>
      </trkpt>
      <trkpt lat="47.22645" lon="6.03262">
        <ele>264.4</ele>
        <time>2024-08-03T11:17:29Z</time>
      </trkpt>
      <trkpt lat="47.22651" lon="6.0326">
        <ele>264.2</ele>
        <time>2024-08-03T11:17:30Z</time>
      </trkpt>
      <trkpt lat="47.22657" lon="6.03258">
        <ele>264.4</ele>
        <time>2024-08-03T11:17:31Z</time>
      </trkpt>
      <trkpt lat="47.22663" lon="6.03256">
        <ele>264.4</ele>
        <time>2024-08-03T11:17:32Z</time>
      </trkpt>
      <trkpt lat="47.22669" lon="6.03256">
        <ele>264.4</ele>
        <time>2024-08-03T11:17:33Z</time>
      </trkpt>
      <trkpt lat="47.22674" lon="6.03255">
        <ele>264.4</ele>
        <time>2024-08-03T11:17:34Z</time>
      </trkpt>
      <trkpt lat="47.22679" lon="6.03254">
        <ele>264.4</ele>
        <time>2024-08-03T11:17:35Z</time>
      </trkpt>
      <trkpt lat="47.22684" lon="6.03252">
        <ele>264.4</ele>
        <time>2024-08-03T11:17:36Z</time>
      </trkpt>
      <trkpt lat="47.22689" lon="6.03249">
        <ele>264.4</ele>
        <time>2024-08-03T11:17:37Z</time>
      </trkpt>
      <trkpt lat="47.22695" lon="6.03247">
        <ele>264.4</ele>
        <time>2024-08-03T11:17:38Z</time>
      </trkpt>
      <trkpt lat="47.227" lon="6.03245">
        <ele>264.6</ele>
        <time>2024-08-03T11:17:39Z</time>
      </trkpt>
      <trkpt lat="47.22705" lon="6.03244">
        <ele>264.4</ele>
        <time>2024-08-03T11:17:40Z</time>
      </trkpt>
      <trkpt lat="47.22711" lon="6.03242">
        <ele>264.4</ele>
        <time>2024-08-03T11:17:41Z</time>
      </trkpt>
      <trkpt lat="47.22716" lon="6.0324">
        <ele>264.4</ele>
        <time>2024-08-03T11:17:42Z</time>
      </trkpt>
      <trkpt lat="47.22721" lon="6.03237">
        <ele>264.6</ele>
        <time>2024-08-03T11:17:43Z</time>
      </trkpt>
      <trkpt lat="47.22727" lon="6.03235">
        <ele>264.8</ele>
        <time>2024-08-03T11:17:44Z</time>
      </trkpt>
      <trkpt lat="47.22732" lon="6.03233">
        <ele>264.8</ele>
        <time>2024-08-03T11:17:45Z</time>
      </trkpt>
      <trkpt lat="47.22738" lon="6.03231">
        <ele>265</ele>
        <time>2024-08-03T11:17:46Z</time>
      </trkpt>
      <trkpt lat="47.22743" lon="6.03228">
        <ele>265</ele>
        <time>2024-08-03T11:17:47Z</time>
      </trkpt>
      <trkpt lat="47.22749" lon="6.03226">
        <ele>265.2</ele>
        <time>2024-08-03T11:17:48Z</time>
      </trkpt>
      <trkpt lat="47.22755" lon="6.03223">
        <ele>265.2</ele>
        <time>2024-08-03T11:17:49Z</time>
      </trkpt>
      <trkpt lat="47.22761" lon="6.03219">
        <ele>265.2</ele>
        <time>2024-08-03T11:17:50Z</time>
      </trkpt>
      <trkpt lat="47.22768" lon="6.03216">
        <ele>265.2</ele>
        <time>2024-08-03T11:17:51Z</time>
      </trkpt>
      <trkpt lat="47.22774" lon="6.03212">
        <ele>265.2</ele>
        <time>2024-08-03T11:17:52Z</time>
      </trkpt>
      <trkpt lat="47.22781" lon="6.03209">
        <ele>265.2</ele>
        <time>2024-08-03T11:17:53Z</time>
      </trkpt>
      <trkpt lat="47.22787" lon="6.03205">
        <ele>265</ele>
        <time>2024-08-03T11:17:54Z</time>
      </trkpt>
      <trkpt lat="47.22793" lon="6.03201">
        <ele>265.2</ele>
        <time>2024-08-03T11:17:55Z</time>
      </trkpt>
      <trkpt lat="47.22799" lon="6.03197">
        <ele>265</ele>
        <time>2024-08-03T11:17:56Z</time>
      </trkpt>
      <trkpt lat="47.22804" lon="6.03192">
        <ele>265</ele>
        <time>2024-08-03T11:17:57Z</time>
      </trkpt>
      <trkpt lat="47.2281" lon="6.03187">
        <ele>265.2</ele>
        <time>2024-08-03T11:17:58Z</time>
      </trkpt>
      <trkpt lat="47.22816" lon="6.03183">
        <ele>265.2</ele>
        <time>2024-08-03T11:17:59Z</time>
      </trkpt>
      <trkpt lat="47.22821" lon="6.03177">
        <ele>265</ele>
        <time>2024-08-03T11:18:00Z</time>
      </trkpt>
      <trkpt lat="47.22826" lon="6.03171">
        <ele>265.2</ele>
        <time>2024-08-03T11:18:01Z</time>
      </trkpt>
      <trkpt lat="47.22831" lon="6.03165">
        <ele>265.2</ele>
        <time>2024-08-03T11:18:02Z</time>
      </trkpt>
      <trkpt lat="47.22835" lon="6.03157">
        <ele>265</ele>
        <time>2024-08-03T11:18:03Z</time>
      </trkpt>
      <trkpt lat="47.22839" lon="6.0315">
        <ele>265</ele>
        <time>2024-08-03T11:18:04Z</time>
      </trkpt>
      <trkpt lat="47.22842" lon="6.03143">
        <ele>265</ele>
        <time>2024-08-03T11:18:05Z</time>
      </trkpt>
      <trkpt lat="47.22846" lon="6.03136">
        <ele>265.2</ele>
        <time>2024-08-03T11:18:06Z</time>
      </trkpt>
      <trkpt lat="47.2285" lon="6.03129">
        <ele>265.2</ele>
        <time>2024-08-03T11:18:07Z</time>
      </trkpt>
      <trkpt lat="47.22854" lon="6.03123">
        <ele>265</ele>
        <time>2024-08-03T11:18:08Z</time>
      </trkpt>
      <trkpt lat="47.22857" lon="6.03117">
        <ele>265</ele>
        <time>2024-08-03T11:18:09Z</time>
      </trkpt>
      <trkpt lat="47.2286" lon="6.0311">
        <ele>265</ele>
        <time>2024-08-03T11:18:10Z</time>
      </trkpt>
      <trkpt lat="47.22864" lon="6.03104">
        <ele>265</ele>
        <time>2024-08-03T11:18:11Z</time>
      </trkpt>
      <trkpt lat="47.22868" lon="6.03099">
        <ele>265</ele>
        <time>2024-08-03T11:18:12Z</time>
      </trkpt>
      <trkpt lat="47.22872" lon="6.03093">
        <ele>264.8</ele>
        <time>2024-08-03T11:18:13Z</time>
      </trkpt>
      <trkpt lat="47.22876" lon="6.03087">
        <ele>265</ele>
        <time>2024-08-03T11:18:14Z</time>
      </trkpt>
      <trkpt lat="47.2288" lon="6.03082">
        <ele>264.8</ele>
        <time>2024-08-03T11:18:15Z</time>
      </trkpt>
      <trkpt lat="47.22883" lon="6.03076">
        <ele>265</ele>
        <time>2024-08-03T11:18:16Z</time>
      </trkpt>
      <trkpt lat="47.22886" lon="6.03071">
        <ele>265</ele>
        <time>2024-08-03T11:18:17Z</time>
      </trkpt>
      <trkpt lat="47.2289" lon="6.03066">
        <ele>264.8</ele>
        <time>2024-08-03T11:18:18Z</time>
      </trkpt>
      <trkpt lat="47.22894" lon="6.03062">
        <ele>264.8</ele>
        <time>2024-08-03T11:18:19Z</time>
      </trkpt>
      <trkpt lat="47.22899" lon="6.03059">
        <ele>264.8</ele>
        <time>2024-08-03T11:18:20Z</time>
      </trkpt>
      <trkpt lat="47.22903" lon="6.03056">
        <ele>264.8</ele>
        <time>2024-08-03T11:18:21Z</time>
      </trkpt>
      <trkpt lat="47.22908" lon="6.03054">
        <ele>264.8</ele>
        <time>2024-08-03T11:18:22Z</time>
      </trkpt>
      <trkpt lat="47.22912" lon="6.03052">
        <ele>264.8</ele>
        <time>2024-08-03T11:18:23Z</time>
      </trkpt>
      <trkpt lat="47.22916" lon="6.03051">
        <ele>264.8</ele>
        <time>2024-08-03T11:18:24Z</time>
      </trkpt>
      <trkpt lat="47.22919" lon="6.0305">
        <ele>264.8</ele>
        <time>2024-08-03T11:18:25Z</time>
      </trkpt>
      <trkpt lat="47.22922" lon="6.03049">
        <ele>264.8</ele>
        <time>2024-08-03T11:18:26Z</time>
      </trkpt>
      <trkpt lat="47.22924" lon="6.03048">
        <ele>264.8</ele>
        <time>2024-08-03T11:18:27Z</time>
      </trkpt>
      <trkpt lat="47.22927" lon="6.03046">
        <ele>264.8</ele>
        <time>2024-08-03T11:18:28Z</time>
      </trkpt>
      <trkpt lat="47.22929" lon="6.03046">
        <ele>264.8</ele>
        <time>2024-08-03T11:18:29Z</time>
      </trkpt>
      <trkpt lat="47.22931" lon="6.03045">
        <ele>264.8</ele>
        <time>2024-08-03T11:18:30Z</time>
      </trkpt>
      <trkpt lat="47.22932" lon="6.03044">
        <ele>264.8</ele>
        <time>2024-08-03T11:18:31Z</time>
      </trkpt>
      <trkpt lat="47.22933" lon="6.03044">
        <ele>264.8</ele>
        <time>2024-08-03T11:18:32Z</time>
      </trkpt>
      <trkpt lat="47.22935" lon="6.03043">
        <ele>264.8</ele>
        <time>2024-08-03T11:18:33Z</time>
      </trkpt>
      <trkpt lat="47.22937" lon="6.03043">
        <ele>264.8</ele>
        <time>2024-08-03T11:18:34Z</time>
      </trkpt>
      <trkpt lat="47.22939" lon="6.03042">
        <ele>264.8</ele>
        <time>2024-08-03T11:18:35Z</time>
      </trkpt>
      <trkpt lat="47.22943" lon="6.03043">
        <ele>264.8</ele>
        <time>2024-08-03T11:18:36Z</time>
      </trkpt>
      <trkpt lat="47.22947" lon="6.03043">
        <ele>265</ele>
        <time>2024-08-03T11:18:37Z</time>
      </trkpt>
      <trkpt lat="47.22951" lon="6.03043">
        <ele>264.8</ele>
        <time>2024-08-03T11:18:38Z</time>
      </trkpt>
      <trkpt lat="47.22955" lon="6.03043">
        <ele>264.8</ele>
        <time>2024-08-03T11:18:39Z</time>
      </trkpt>
      <trkpt lat="47.22959" lon="6.03043">
        <ele>264.8</ele>
        <time>2024-08-03T11:18:40Z</time>
      </trkpt>
      <trkpt lat="47.22963" lon="6.03044">
        <ele>264.8</ele>
        <time>2024-08-03T11:18:41Z</time>
      </trkpt>
      <trkpt lat="47.22966" lon="6.03044">
        <ele>264.8</ele>
        <time>2024-08-03T11:18:42Z</time>
      </trkpt>
      <trkpt lat="47.2297" lon="6.03045">
        <ele>264.8</ele>
        <time>2024-08-03T11:18:43Z</time>
      </trkpt>
      <trkpt lat="47.22974" lon="6.03044">
        <ele>264.8</ele>
        <time>2024-08-03T11:18:44Z</time>
      </trkpt>
      <trkpt lat="47.22987" lon="6.03045">
        <ele>264.8</ele>
        <time>2024-08-03T11:18:48Z</time>
      </trkpt>
      <trkpt lat="47.22987" lon="6.03045">
        <ele>264.6</ele>
        <time>2024-08-03T11:18:49Z</time>
      </trkpt>
      <trkpt lat="47.22988" lon="6.03048">
        <ele>264.6</ele>
        <time>2024-08-03T11:18:50Z</time>
      </trkpt>
      <trkpt lat="47.22989" lon="6.03052">
        <ele>264.6</ele>
        <time>2024-08-03T11:18:51Z</time>
      </trkpt>
      <trkpt lat="47.2299" lon="6.03054">
        <ele>264.6</ele>
        <time>2024-08-03T11:18:52Z</time>
      </trkpt>
      <trkpt lat="47.22991" lon="6.03055">
        <ele>264.6</ele>
        <time>2024-08-03T11:18:53Z</time>
      </trkpt>
      <trkpt lat="47.2299" lon="6.03061">
        <ele>264.6</ele>
        <time>2024-08-03T11:18:54Z</time>
      </trkpt>
      <trkpt lat="47.23192" lon="6.03594">
        <ele>266.8</ele>
        <time>2024-08-03T11:20:11Z</time>
      </trkpt>
      <trkpt lat="47.23194" lon="6.03605">
        <ele>266.8</ele>
        <time>2024-08-03T11:20:12Z</time>
      </trkpt>
      <trkpt lat="47.23193" lon="6.03609">
        <ele>267</ele>
        <time>2024-08-03T11:20:13Z</time>
      </trkpt>
      <trkpt lat="47.23174" lon="6.03611">
        <ele>267.2</ele>
        <time>2024-08-03T11:20:14Z</time>
      </trkpt>
      <trkpt lat="47.23164" lon="6.03599">
        <ele>267.2</ele>
        <time>2024-08-03T11:20:15Z</time>
      </trkpt>
      <trkpt lat="47.2316" lon="6.03601">
        <ele>267.2</ele>
        <time>2024-08-03T11:20:16Z</time>
      </trkpt>
      <trkpt lat="47.23154" lon="6.03601">
        <ele>267.2</ele>
        <time>2024-08-03T11:20:17Z</time>
      </trkpt>
      <trkpt lat="47.2315" lon="6.03602">
        <ele>267.6</ele>
        <time>2024-08-03T11:20:18Z</time>
      </trkpt>
      <trkpt lat="47.23143" lon="6.03603">
        <ele>268</ele>
        <time>2024-08-03T11:20:19Z</time>
      </trkpt>
      <trkpt lat="47.23138" lon="6.03606">
        <ele>268</ele>
        <time>2024-08-03T11:20:20Z</time>
      </trkpt>
      <trkpt lat="47.23134" lon="6.0361">
        <ele>268.2</ele>
        <time>2024-08-03T11:20:21Z</time>
      </trkpt>
      <trkpt lat="47.2313" lon="6.03613">
        <ele>268.4</ele>
        <time>2024-08-03T11:20:22Z</time>
      </trkpt>
      <trkpt lat="47.23128" lon="6.03617">
        <ele>268.4</ele>
        <time>2024-08-03T11:20:23Z</time>
      </trkpt>
      <trkpt lat="47.23126" lon="6.03621">
        <ele>268.6</ele>
        <time>2024-08-03T11:20:24Z</time>
      </trkpt>
      <trkpt lat="47.23123" lon="6.03625">
        <ele>268.6</ele>
        <time>2024-08-03T11:20:25Z</time>
      </trkpt>
      <trkpt lat="47.23121" lon="6.03628">
        <ele>268.4</ele>
        <time>2024-08-03T11:20:26Z</time>
      </trkpt>
      <trkpt lat="47.23119" lon="6.0363">
        <ele>268.6</ele>
        <time>2024-08-03T11:20:27Z</time>
      </trkpt>
      <trkpt lat="47.23117" lon="6.0363">
        <ele>268.6</ele>
        <time>2024-08-03T11:20:28Z</time>
      </trkpt>
      <trkpt lat="47.23117" lon="6.03628">
        <ele>268.6</ele>
        <time>2024-08-03T11:20:29Z</time>
      </trkpt>
      <trkpt lat="47.23117" lon="6.03625">
        <ele>268.6</ele>
        <time>2024-08-03T11:20:30Z</time>
      </trkpt>
      <trkpt lat="47.23119" lon="6.03622">
        <ele>268.6</ele>
        <time>2024-08-03T11:20:31Z</time>
      </trkpt>
      <trkpt lat="47.23121" lon="6.0362">
        <ele>268.8</ele>
        <time>2024-08-03T11:20:32Z</time>
      </trkpt>
      <trkpt lat="47.23124" lon="6.03617">
        <ele>268.8</ele>
        <time>2024-08-03T11:20:33Z</time>
      </trkpt>
      <trkpt lat="47.23126" lon="6.03614">
        <ele>268.6</ele>
        <time>2024-08-03T11:20:34Z</time>
      </trkpt>
      <trkpt lat="47.23129" lon="6.03611">
        <ele>268.8</ele>
        <time>2024-08-03T11:20:35Z</time>
      </trkpt>
      <trkpt lat="47.2313" lon="6.03607">
        <ele>268.8</ele>
        <time>2024-08-03T11:20:36Z</time>
      </trkpt>
      <trkpt lat="47.23131" lon="6.03602">
        <ele>269</ele>
        <time>2024-08-03T11:20:37Z</time>
      </trkpt>
      <trkpt lat="47.23131" lon="6.03599">
        <ele>269</ele>
        <time>2024-08-03T11:20:38Z</time>
      </trkpt>
      <trkpt lat="47.23131" lon="6.03595">
        <ele>269.2</ele>
        <time>2024-08-03T11:20:39Z</time>
      </trkpt>
      <trkpt lat="47.23132" lon="6.03592">
        <ele>269.4</ele>
        <time>2024-08-03T11:20:40Z</time>
      </trkpt>
      <trkpt lat="47.23134" lon="6.03588">
        <ele>269.6</ele>
        <time>2024-08-03T11:20:41Z</time>
      </trkpt>
      <trkpt lat="47.23135" lon="6.03584">
        <ele>269.6</ele>
        <time>2024-08-03T11:20:42Z</time>
      </trkpt>
      <trkpt lat="47.23138" lon="6.03581">
        <ele>270</ele>
        <time>2024-08-03T11:20:43Z</time>
      </trkpt>
      <trkpt lat="47.23141" lon="6.03579">
        <ele>270.4</ele>
        <time>2024-08-03T11:20:44Z</time>
      </trkpt>
      <trkpt lat="47.23144" lon="6.03576">
        <ele>270.6</ele>
        <time>2024-08-03T11:20:45Z</time>
      </trkpt>
      <trkpt lat="47.23147" lon="6.03573">
        <ele>271.2</ele>
        <time>2024-08-03T11:20:46Z</time>
      </trkpt>
      <trkpt lat="47.23151" lon="6.03571">
        <ele>271.2</ele>
        <time>2024-08-03T11:20:47Z</time>
      </trkpt>
      <trkpt lat="47.23155" lon="6.03569">
        <ele>271.4</ele>
        <time>2024-08-03T11:20:48Z</time>
      </trkpt>
      <trkpt lat="47.23158" lon="6.03567">
        <ele>271.6</ele>
        <time>2024-08-03T11:20:49Z</time>
      </trkpt>
      <trkpt lat="47.23162" lon="6.03565">
        <ele>271.8</ele>
        <time>2024-08-03T11:20:50Z</time>
      </trkpt>
      <trkpt lat="47.23166" lon="6.03566">
        <ele>271.8</ele>
        <time>2024-08-03T11:20:51Z</time>
      </trkpt>
      <trkpt lat="47.2317" lon="6.0357">
        <ele>271.8</ele>
        <time>2024-08-03T11:20:52Z</time>
      </trkpt>
      <trkpt lat="47.23175" lon="6.03573">
        <ele>272</ele>
        <time>2024-08-03T11:20:53Z</time>
      </trkpt>
      <trkpt lat="47.23179" lon="6.03577">
        <ele>271.8</ele>
        <time>2024-08-03T11:20:54Z</time>
      </trkpt>
      <trkpt lat="47.23183" lon="6.0358">
        <ele>272</ele>
        <time>2024-08-03T11:20:55Z</time>
      </trkpt>
      <trkpt lat="47.23188" lon="6.03584">
        <ele>272</ele>
        <time>2024-08-03T11:20:56Z</time>
      </trkpt>
      <trkpt lat="47.23192" lon="6.03586">
        <ele>272</ele>
        <time>2024-08-03T11:20:57Z</time>
      </trkpt>
      <trkpt lat="47.23198" lon="6.03588">
        <ele>272</ele>
        <time>2024-08-03T11:20:58Z</time>
      </trkpt>
      <trkpt lat="47.23203" lon="6.0359">
        <ele>272</ele>
        <time>2024-08-03T11:20:59Z</time>
      </trkpt>
      <trkpt lat="47.23208" lon="6.03591">
        <ele>272</ele>
        <time>2024-08-03T11:21:00Z</time>
      </trkpt>
      <trkpt lat="47.23214" lon="6.03592">
        <ele>271.8</ele>
        <time>2024-08-03T11:21:01Z</time>
      </trkpt>
      <trkpt lat="47.23219" lon="6.03594">
        <ele>271.8</ele>
        <time>2024-08-03T11:21:02Z</time>
      </trkpt>
      <trkpt lat="47.23225" lon="6.03594">
        <ele>271.6</ele>
        <time>2024-08-03T11:21:03Z</time>
      </trkpt>
      <trkpt lat="47.2323" lon="6.03594">
        <ele>271.4</ele>
        <time>2024-08-03T11:21:04Z</time>
      </trkpt>
      <trkpt lat="47.23235" lon="6.03594">
        <ele>271.2</ele>
        <time>2024-08-03T11:21:05Z</time>
      </trkpt>
      <trkpt lat="47.2324" lon="6.03593">
        <ele>271.2</ele>
        <time>2024-08-03T11:21:06Z</time>
      </trkpt>
      <trkpt lat="47.23245" lon="6.03593">
        <ele>270.8</ele>
        <time>2024-08-03T11:21:07Z</time>
      </trkpt>
      <trkpt lat="47.23249" lon="6.03592">
        <ele>270.6</ele>
        <time>2024-08-03T11:21:08Z</time>
      </trkpt>
      <trkpt lat="47.23254" lon="6.03591">
        <ele>270.6</ele>
        <time>2024-08-03T11:21:09Z</time>
      </trkpt>
      <trkpt lat="47.23258" lon="6.0359">
        <ele>270.4</ele>
        <time>2024-08-03T11:21:10Z</time>
      </trkpt>
      <trkpt lat="47.23262" lon="6.03589">
        <ele>270.2</ele>
        <time>2024-08-03T11:21:11Z</time>
      </trkpt>
      <trkpt lat="47.23267" lon="6.03587">
        <ele>270.2</ele>
        <time>2024-08-03T11:21:12Z</time>
      </trkpt>
      <trkpt lat="47.23271" lon="6.03585">
        <ele>270</ele>
        <time>2024-08-03T11:21:13Z</time>
      </trkpt>
      <trkpt lat="47.23276" lon="6.03583">
        <ele>270</ele>
        <time>2024-08-03T11:21:14Z</time>
      </trkpt>
      <trkpt lat="47.23281" lon="6.0358">
        <ele>270</ele>
        <time>2024-08-03T11:21:15Z</time>
      </trkpt>
      <trkpt lat="47.23286" lon="6.03577">
        <ele>269.8</ele>
        <time>2024-08-03T11:21:16Z</time>
      </trkpt>
      <trkpt lat="47.23291" lon="6.03575">
        <ele>269.8</ele>
        <time>2024-08-03T11:21:17Z</time>
      </trkpt>
      <trkpt lat="47.23295" lon="6.03572">
        <ele>269.8</ele>
        <time>2024-08-03T11:21:18Z</time>
      </trkpt>
      <trkpt lat="47.233" lon="6.03569">
        <ele>269.8</ele>
        <time>2024-08-03T11:21:19Z</time>
      </trkpt>
      <trkpt lat="47.23304" lon="6.03567">
        <ele>269.8</ele>
        <time>2024-08-03T11:21:20Z</time>
      </trkpt>
      <trkpt lat="47.23309" lon="6.03564">
        <ele>269.8</ele>
        <time>2024-08-03T11:21:21Z</time>
      </trkpt>
      <trkpt lat="47.23314" lon="6.03561">
        <ele>269.8</ele>
        <time>2024-08-03T11:21:22Z</time>
      </trkpt>
      <trkpt lat="47.23318" lon="6.03559">
        <ele>269.8</ele>
        <time>2024-08-03T11:21:23Z</time>
      </trkpt>
      <trkpt lat="47.23323" lon="6.03556">
        <ele>269.6</ele>
        <time>2024-08-03T11:21:24Z</time>
      </trkpt>
      <trkpt lat="47.23328" lon="6.03554">
        <ele>269.8</ele>
        <time>2024-08-03T11:21:25Z</time>
      </trkpt>
      <trkpt lat="47.23333" lon="6.0355">
        <ele>269.8</ele>
        <time>2024-08-03T11:21:26Z</time>
      </trkpt>
      <trkpt lat="47.23338" lon="6.03548">
        <ele>269.8</ele>
        <time>2024-08-03T11:21:27Z</time>
      </trkpt>
      <trkpt lat="47.23343" lon="6.03545">
        <ele>269.8</ele>
        <time>2024-08-03T11:21:28Z</time>
      </trkpt>
      <trkpt lat="47.23348" lon="6.03543">
        <ele>269.8</ele>
        <time>2024-08-03T11:21:29Z</time>
      </trkpt>
      <trkpt lat="47.23353" lon="6.03541">
        <ele>269.8</ele>
        <time>2024-08-03T11:21:30Z</time>
      </trkpt>
      <trkpt lat="47.23357" lon="6.03539">
        <ele>269.8</ele>
        <time>2024-08-03T11:21:31Z</time>
      </trkpt>
      <trkpt lat="47.23361" lon="6.03536">
        <ele>269.6</ele>
        <time>2024-08-03T11:21:32Z</time>
      </trkpt>
      <trkpt lat="47.23366" lon="6.03533">
        <ele>269.8</ele>
        <time>2024-08-03T11:21:33Z</time>
      </trkpt>
      <trkpt lat="47.2337" lon="6.03529">
        <ele>269.8</ele>
        <time>2024-08-03T11:21:34Z</time>
      </trkpt>
      <trkpt lat="47.23374" lon="6.03527">
        <ele>269.8</ele>
        <time>2024-08-03T11:21:35Z</time>
      </trkpt>
      <trkpt lat="47.23379" lon="6.03524">
        <ele>269.8</ele>
        <time>2024-08-03T11:21:36Z</time>
      </trkpt>
      <trkpt lat="47.23383" lon="6.03521">
        <ele>269.8</ele>
        <time>2024-08-03T11:21:37Z</time>
      </trkpt>
      <trkpt lat="47.23388" lon="6.03519">
        <ele>269.6</ele>
        <time>2024-08-03T11:21:38Z</time>
      </trkpt>
      <trkpt lat="47.23393" lon="6.03516">
        <ele>269.8</ele>
        <time>2024-08-03T11:21:39Z</time>
      </trkpt>
      <trkpt lat="47.23397" lon="6.03513">
        <ele>269.8</ele>
        <time>2024-08-03T11:21:40Z</time>
      </trkpt>
      <trkpt lat="47.23402" lon="6.0351">
        <ele>269.8</ele>
        <time>2024-08-03T11:21:41Z</time>
      </trkpt>
      <trkpt lat="47.23406" lon="6.03507">
        <ele>269.6</ele>
        <time>2024-08-03T11:21:42Z</time>
      </trkpt>
      <trkpt lat="47.2341" lon="6.03504">
        <ele>269.6</ele>
        <time>2024-08-03T11:21:43Z</time>
      </trkpt>
      <trkpt lat="47.23415" lon="6.035">
        <ele>269.8</ele>
        <time>2024-08-03T11:21:44Z</time>
      </trkpt>
      <trkpt lat="47.23419" lon="6.03497">
        <ele>269.8</ele>
        <time>2024-08-03T11:21:45Z</time>
      </trkpt>
      <trkpt lat="47.23424" lon="6.03495">
        <ele>269.8</ele>
        <time>2024-08-03T11:21:46Z</time>
      </trkpt>
      <trkpt lat="47.23428" lon="6.03492">
        <ele>269.8</ele>
        <time>2024-08-03T11:21:47Z</time>
      </trkpt>
      <trkpt lat="47.23431" lon="6.03489">
        <ele>270</ele>
        <time>2024-08-03T11:21:48Z</time>
      </trkpt>
      <trkpt lat="47.23435" lon="6.03487">
        <ele>269.8</ele>
        <time>2024-08-03T11:21:49Z</time>
      </trkpt>
      <trkpt lat="47.23439" lon="6.03484">
        <ele>270</ele>
        <time>2024-08-03T11:21:50Z</time>
      </trkpt>
      <trkpt lat="47.23442" lon="6.03482">
        <ele>270</ele>
        <time>2024-08-03T11:21:51Z</time>
      </trkpt>
      <trkpt lat="47.23446" lon="6.0348">
        <ele>270</ele>
        <time>2024-08-03T11:21:52Z</time>
      </trkpt>
      <trkpt lat="47.23449" lon="6.0348">
        <ele>270</ele>
        <time>2024-08-03T11:21:53Z</time>
      </trkpt>
      <trkpt lat="47.23451" lon="6.03483">
        <ele>269.8</ele>
        <time>2024-08-03T11:21:54Z</time>
      </trkpt>
      <trkpt lat="47.23452" lon="6.03488">
        <ele>269.8</ele>
        <time>2024-08-03T11:21:55Z</time>
      </trkpt>
      <trkpt lat="47.23451" lon="6.03492">
        <ele>269.8</ele>
        <time>2024-08-03T11:21:56Z</time>
      </trkpt>
      <trkpt lat="47.2345" lon="6.03496">
        <ele>269.8</ele>
        <time>2024-08-03T11:21:57Z</time>
      </trkpt>
      <trkpt lat="47.23449" lon="6.035">
        <ele>270</ele>
        <time>2024-08-03T11:21:58Z</time>
      </trkpt>
      <trkpt lat="47.23446" lon="6.03503">
        <ele>270</ele>
        <time>2024-08-03T11:21:59Z</time>
      </trkpt>
      <trkpt lat="47.23445" lon="6.03507">
        <ele>270</ele>
        <time>2024-08-03T11:22:00Z</time>
      </trkpt>
      <trkpt lat="47.23442" lon="6.0351">
        <ele>269.8</ele>
        <time>2024-08-03T11:22:01Z</time>
      </trkpt>
      <trkpt lat="47.23439" lon="6.03513">
        <ele>270</ele>
        <time>2024-08-03T11:22:02Z</time>
      </trkpt>
      <trkpt lat="47.23437" lon="6.03518">
        <ele>270</ele>
        <time>2024-08-03T11:22:03Z</time>
      </trkpt>
      <trkpt lat="47.23434" lon="6.03523">
        <ele>270.2</ele>
        <time>2024-08-03T11:22:04Z</time>
      </trkpt>
      <trkpt lat="47.23432" lon="6.03529">
        <ele>270.2</ele>
        <time>2024-08-03T11:22:05Z</time>
      </trkpt>
      <trkpt lat="47.2343" lon="6.03535">
        <ele>270</ele>
        <time>2024-08-03T11:22:06Z</time>
      </trkpt>
      <trkpt lat="47.23428" lon="6.0354">
        <ele>270.2</ele>
        <time>2024-08-03T11:22:07Z</time>
      </trkpt>
      <trkpt lat="47.23426" lon="6.03546">
        <ele>270</ele>
        <time>2024-08-03T11:22:08Z</time>
      </trkpt>
      <trkpt lat="47.23424" lon="6.03551">
        <ele>270.2</ele>
        <time>2024-08-03T11:22:09Z</time>
      </trkpt>
      <trkpt lat="47.23422" lon="6.03556">
        <ele>270.2</ele>
        <time>2024-08-03T11:22:10Z</time>
      </trkpt>
      <trkpt lat="47.23419" lon="6.03562">
        <ele>270.4</ele>
        <time>2024-08-03T11:22:11Z</time>
      </trkpt>
      <trkpt lat="47.23417" lon="6.03567">
        <ele>270.6</ele>
        <time>2024-08-03T11:22:12Z</time>
      </trkpt>
      <trkpt lat="47.23414" lon="6.03573">
        <ele>270.6</ele>
        <time>2024-08-03T11:22:13Z</time>
      </trkpt>
      <trkpt lat="47.23412" lon="6.03578">
        <ele>270.8</ele>
        <time>2024-08-03T11:22:14Z</time>
      </trkpt>
      <trkpt lat="47.23409" lon="6.03584">
        <ele>270.6</ele>
        <time>2024-08-03T11:22:15Z</time>
      </trkpt>
      <trkpt lat="47.23406" lon="6.0359">
        <ele>270.8</ele>
        <time>2024-08-03T11:22:16Z</time>
      </trkpt>
      <trkpt lat="47.23403" lon="6.03595">
        <ele>270.8</ele>
        <time>2024-08-03T11:22:17Z</time>
      </trkpt>
      <trkpt lat="47.234" lon="6.036">
        <ele>270.8</ele>
        <time>2024-08-03T11:22:18Z</time>
      </trkpt>
      <trkpt lat="47.23397" lon="6.03603">
        <ele>270.8</ele>
        <time>2024-08-03T11:22:19Z</time>
      </trkpt>
      <trkpt lat="47.23394" lon="6.03608">
        <ele>271</ele>
        <time>2024-08-03T11:22:20Z</time>
      </trkpt>
      <trkpt lat="47.23391" lon="6.03613">
        <ele>270.8</ele>
        <time>2024-08-03T11:22:21Z</time>
      </trkpt>
      <trkpt lat="47.23388" lon="6.03618">
        <ele>271</ele>
        <time>2024-08-03T11:22:22Z</time>
      </trkpt>
      <trkpt lat="47.23386" lon="6.03624">
        <ele>271</ele>
        <time>2024-08-03T11:22:23Z</time>
      </trkpt>
      <trkpt lat="47.23384" lon="6.0363">
        <ele>271</ele>
        <time>2024-08-03T11:22:24Z</time>
      </trkpt>
      <trkpt lat="47.23381" lon="6.03636">
        <ele>271</ele>
        <time>2024-08-03T11:22:25Z</time>
      </trkpt>
      <trkpt lat="47.23379" lon="6.03641">
        <ele>270.8</ele>
        <time>2024-08-03T11:22:26Z</time>
      </trkpt>
      <trkpt lat="47.23376" lon="6.03646">
        <ele>270.8</ele>
        <time>2024-08-03T11:22:27Z</time>
      </trkpt>
      <trkpt lat="47.23373" lon="6.03651">
        <ele>271</ele>
        <time>2024-08-03T11:22:28Z</time>
      </trkpt>
      <trkpt lat="47.2337" lon="6.03655">
        <ele>270.8</ele>
        <time>2024-08-03T11:22:29Z</time>
      </trkpt>
      <trkpt lat="47.23366" lon="6.03658">
        <ele>271</ele>
        <time>2024-08-03T11:22:30Z</time>
      </trkpt>
      <trkpt lat="47.23362" lon="6.03662">
        <ele>271</ele>
        <time>2024-08-03T11:22:31Z</time>
      </trkpt>
      <trkpt lat="47.23359" lon="6.03669">
        <ele>271</ele>
        <time>2024-08-03T11:22:32Z</time>
      </trkpt>
      <trkpt lat="47.23355" lon="6.03673">
        <ele>270.8</ele>
        <time>2024-08-03T11:22:33Z</time>
      </trkpt>
      <trkpt lat="47.23351" lon="6.03678">
        <ele>270.8</ele>
        <time>2024-08-03T11:22:34Z</time>
      </trkpt>
      <trkpt lat="47.23346" lon="6.03682">
        <ele>270.8</ele>
        <time>2024-08-03T11:22:35Z</time>
      </trkpt>
      <trkpt lat="47.2334" lon="6.03687">
        <ele>270.8</ele>
        <time>2024-08-03T11:22:36Z</time>
      </trkpt>
      <trkpt lat="47.23335" lon="6.03691">
        <ele>270.8</ele>
        <time>2024-08-03T11:22:37Z</time>
      </trkpt>
      <trkpt lat="47.2333" lon="6.03694">
        <ele>270.8</ele>
        <time>2024-08-03T11:22:38Z</time>
      </trkpt>
      <trkpt lat="47.23325" lon="6.03697">
        <ele>270.8</ele>
        <time>2024-08-03T11:22:39Z</time>
      </trkpt>
      <trkpt lat="47.23319" lon="6.037">
        <ele>270.8</ele>
        <time>2024-08-03T11:22:40Z</time>
      </trkpt>
      <trkpt lat="47.23314" lon="6.03703">
        <ele>270.6</ele>
        <time>2024-08-03T11:22:41Z</time>
      </trkpt>
      <trkpt lat="47.23309" lon="6.03707">
        <ele>270.4</ele>
        <time>2024-08-03T11:22:42Z</time>
      </trkpt>
      <trkpt lat="47.23304" lon="6.03709">
        <ele>270.4</ele>
        <time>2024-08-03T11:22:43Z</time>
      </trkpt>
      <trkpt lat="47.23299" lon="6.03712">
        <ele>270.4</ele>
        <time>2024-08-03T11:22:44Z</time>
      </trkpt>
      <trkpt lat="47.23294" lon="6.03715">
        <ele>270.4</ele>
        <time>2024-08-03T11:22:45Z</time>
      </trkpt>
      <trkpt lat="47.23289" lon="6.03717">
        <ele>270.4</ele>
        <time>2024-08-03T11:22:46Z</time>
      </trkpt>
      <trkpt lat="47.23285" lon="6.03721">
        <ele>270.4</ele>
        <time>2024-08-03T11:22:47Z</time>
      </trkpt>
      <trkpt lat="47.2328" lon="6.03724">
        <ele>270.4</ele>
        <time>2024-08-03T11:22:48Z</time>
      </trkpt>
      <trkpt lat="47.23275" lon="6.03726">
        <ele>270.4</ele>
        <time>2024-08-03T11:22:49Z</time>
      </trkpt>
      <trkpt lat="47.23271" lon="6.03729">
        <ele>270.2</ele>
        <time>2024-08-03T11:22:50Z</time>
      </trkpt>
      <trkpt lat="47.23268" lon="6.0373">
        <ele>270.2</ele>
        <time>2024-08-03T11:22:51Z</time>
      </trkpt>
      <trkpt lat="47.23267" lon="6.03732">
        <ele>270.2</ele>
        <time>2024-08-03T11:22:52Z</time>
      </trkpt>
      <trkpt lat="47.23267" lon="6.03732">
        <ele>270.2</ele>
        <time>2024-08-03T11:22:53Z</time>
      </trkpt>
      <trkpt lat="47.23267" lon="6.03733">
        <ele>270.2</ele>
        <time>2024-08-03T11:22:54Z</time>
      </trkpt>
      <trkpt lat="47.23266" lon="6.03732">
        <ele>270</ele>
        <time>2024-08-03T11:22:55Z</time>
      </trkpt>
      <trkpt lat="47.23266" lon="6.03732">
        <ele>270.2</ele>
        <time>2024-08-03T11:22:56Z</time>
      </trkpt>
      <trkpt lat="47.23266" lon="6.03733">
        <ele>269.8</ele>
        <time>2024-08-03T11:22:57Z</time>
      </trkpt>
      <trkpt lat="47.23267" lon="6.03734">
        <ele>269.8</ele>
        <time>2024-08-03T11:22:58Z</time>
      </trkpt>
      <trkpt lat="47.23267" lon="6.03734">
        <ele>269.8</ele>
        <time>2024-08-03T11:22:59Z</time>
      </trkpt>
      <trkpt lat="47.23267" lon="6.03735">
        <ele>269.8</ele>
        <time>2024-08-03T11:23:00Z</time>
      </trkpt>
      <trkpt lat="47.23267" lon="6.03735">
        <ele>269.8</ele>
        <time>2024-08-03T11:23:01Z</time>
      </trkpt>
      <trkpt lat="47.23266" lon="6.03735">
        <ele>269.8</ele>
        <time>2024-08-03T11:23:02Z</time>
      </trkpt>
      <trkpt lat="47.23267" lon="6.03736">
        <ele>269.8</ele>
        <time>2024-08-03T11:23:03Z</time>
      </trkpt>
      <trkpt lat="47.23267" lon="6.03736">
        <ele>269.6</ele>
        <time>2024-08-03T11:23:04Z</time>
      </trkpt>
      <trkpt lat="47.23267" lon="6.03735">
        <ele>269.6</ele>
        <time>2024-08-03T11:23:05Z</time>
      </trkpt>
      <trkpt lat="47.23267" lon="6.03736">
        <ele>269.6</ele>
        <time>2024-08-03T11:23:06Z</time>
      </trkpt>
      <trkpt lat="47.23266" lon="6.03736">
        <ele>269.6</ele>
        <time>2024-08-03T11:23:07Z</time>
      </trkpt>
      <trkpt lat="47.23264" lon="6.03735">
        <ele>269.6</ele>
        <time>2024-08-03T11:23:08Z</time>
      </trkpt>
      <trkpt lat="47.23263" lon="6.03734">
        <ele>269.6</ele>
        <time>2024-08-03T11:23:09Z</time>
      </trkpt>
      <trkpt lat="47.23262" lon="6.03733">
        <ele>269.4</ele>
        <time>2024-08-03T11:23:10Z</time>
      </trkpt>
      <trkpt lat="47.23262" lon="6.03732">
        <ele>269.4</ele>
        <time>2024-08-03T11:23:11Z</time>
      </trkpt>
      <trkpt lat="47.23261" lon="6.03731">
        <ele>269.6</ele>
        <time>2024-08-03T11:23:12Z</time>
      </trkpt>
      <trkpt lat="47.2326" lon="6.03729">
        <ele>269.4</ele>
        <time>2024-08-03T11:23:13Z</time>
      </trkpt>
      <trkpt lat="47.2326" lon="6.03728">
        <ele>269.6</ele>
        <time>2024-08-03T11:23:14Z</time>
      </trkpt>
      <trkpt lat="47.2326" lon="6.03728">
        <ele>269.6</ele>
        <time>2024-08-03T11:23:15Z</time>
      </trkpt>
      <trkpt lat="47.23259" lon="6.03728">
        <ele>269.6</ele>
        <time>2024-08-03T11:23:16Z</time>
      </trkpt>
      <trkpt lat="47.23259" lon="6.03727">
        <ele>269.6</ele>
        <time>2024-08-03T11:23:17Z</time>
      </trkpt>
      <trkpt lat="47.23259" lon="6.03725">
        <ele>269.6</ele>
        <time>2024-08-03T11:23:18Z</time>
      </trkpt>
      <trkpt lat="47.23258" lon="6.03724">
        <ele>269.4</ele>
        <time>2024-08-03T11:23:19Z</time>
      </trkpt>
      <trkpt lat="47.23259" lon="6.03726">
        <ele>269.6</ele>
        <time>2024-08-03T11:23:20Z</time>
      </trkpt>
      <trkpt lat="47.23259" lon="6.03725">
        <ele>269.6</ele>
        <time>2024-08-03T11:23:21Z</time>
      </trkpt>
      <trkpt lat="47.23259" lon="6.03725">
        <ele>269.6</ele>
        <time>2024-08-03T11:23:22Z</time>
      </trkpt>
      <trkpt lat="47.23259" lon="6.03724">
        <ele>269.6</ele>
        <time>2024-08-03T11:23:23Z</time>
      </trkpt>
      <trkpt lat="47.23259" lon="6.03724">
        <ele>269.6</ele>
        <time>2024-08-03T11:23:24Z</time>
      </trkpt>
      <trkpt lat="47.23259" lon="6.03724">
        <ele>269.6</ele>
        <time>2024-08-03T11:23:25Z</time>
      </trkpt>
      <trkpt lat="47.23259" lon="6.03724">
        <ele>269.6</ele>
        <time>2024-08-03T11:23:26Z</time>
      </trkpt>
      <trkpt lat="47.23259" lon="6.03723">
        <ele>269.6</ele>
        <time>2024-08-03T11:23:27Z</time>
      </trkpt>
      <trkpt lat="47.23259" lon="6.03723">
        <ele>269.6</ele>
        <time>2024-08-03T11:23:28Z</time>
      </trkpt>
      <trkpt lat="47.23259" lon="6.03722">
        <ele>269.6</ele>
        <time>2024-08-03T11:23:29Z</time>
      </trkpt>
      <trkpt lat="47.23259" lon="6.03721">
        <ele>269.6</ele>
        <time>2024-08-03T11:23:30Z</time>
      </trkpt>
      <trkpt lat="47.23258" lon="6.03718">
        <ele>269.6</ele>
        <time>2024-08-03T11:23:31Z</time>
      </trkpt>
      <trkpt lat="47.23258" lon="6.03718">
        <ele>269.8</ele>
        <time>2024-08-03T11:23:32Z</time>
      </trkpt>
      <trkpt lat="47.23258" lon="6.03717">
        <ele>269.8</ele>
        <time>2024-08-03T11:23:33Z</time>
      </trkpt>
      <trkpt lat="47.23258" lon="6.03717">
        <ele>269.8</ele>
        <time>2024-08-03T11:23:34Z</time>
      </trkpt>
      <trkpt lat="47.23258" lon="6.03717">
        <ele>269.8</ele>
        <time>2024-08-03T11:23:35Z</time>
      </trkpt>
      <trkpt lat="47.23258" lon="6.03717">
        <ele>269.8</ele>
        <time>2024-08-03T11:23:36Z</time>
      </trkpt>
      <trkpt lat="47.23256" lon="6.03712">
        <ele>269.8</ele>
        <time>2024-08-03T11:23:37Z</time>
      </trkpt>
      <trkpt lat="47.23257" lon="6.03712">
        <ele>269.8</ele>
        <time>2024-08-03T11:23:38Z</time>
      </trkpt>
      <trkpt lat="47.23258" lon="6.03713">
        <ele>269.8</ele>
        <time>2024-08-03T11:23:39Z</time>
      </trkpt>
      <trkpt lat="47.23258" lon="6.03713">
        <ele>269.8</ele>
        <time>2024-08-03T11:23:40Z</time>
      </trkpt>
      <trkpt lat="47.23258" lon="6.03714">
        <ele>269.6</ele>
        <time>2024-08-03T11:23:41Z</time>
      </trkpt>
      <trkpt lat="47.23258" lon="6.03714">
        <ele>269.8</ele>
        <time>2024-08-03T11:23:42Z</time>
      </trkpt>
      <trkpt lat="47.23258" lon="6.03714">
        <ele>269.8</ele>
        <time>2024-08-03T11:23:43Z</time>
      </trkpt>
      <trkpt lat="47.23258" lon="6.03715">
        <ele>269.8</ele>
        <time>2024-08-03T11:23:44Z</time>
      </trkpt>
      <trkpt lat="47.23259" lon="6.03715">
        <ele>269.6</ele>
        <time>2024-08-03T11:23:45Z</time>
      </trkpt>
      <trkpt lat="47.23258" lon="6.03716">
        <ele>269.8</ele>
        <time>2024-08-03T11:23:46Z</time>
      </trkpt>
      <trkpt lat="47.23258" lon="6.03715">
        <ele>269.6</ele>
        <time>2024-08-03T11:23:47Z</time>
      </trkpt>
      <trkpt lat="47.23258" lon="6.03714">
        <ele>269.8</ele>
        <time>2024-08-03T11:23:48Z</time>
      </trkpt>
      <trkpt lat="47.23258" lon="6.03714">
        <ele>269.8</ele>
        <time>2024-08-03T11:23:49Z</time>
      </trkpt>
      <trkpt lat="47.23258" lon="6.03713">
        <ele>269.6</ele>
        <time>2024-08-03T11:23:50Z</time>
      </trkpt>
      <trkpt lat="47.23257" lon="6.03711">
        <ele>269.8</ele>
        <time>2024-08-03T11:23:51Z</time>
      </trkpt>
      <trkpt lat="47.23257" lon="6.03709">
        <ele>269.8</ele>
        <time>2024-08-03T11:23:52Z</time>
      </trkpt>
      <trkpt lat="47.23257" lon="6.03708">
        <ele>269.8</ele>
        <time>2024-08-03T11:23:53Z</time>
      </trkpt>
      <trkpt lat="47.23257" lon="6.03707">
        <ele>269.8</ele>
        <time>2024-08-03T11:23:54Z</time>
      </trkpt>
      <trkpt lat="47.23256" lon="6.03705">
        <ele>269.8</ele>
        <time>2024-08-03T11:23:55Z</time>
      </trkpt>
      <trkpt lat="47.23256" lon="6.03704">
        <ele>269.8</ele>
        <time>2024-08-03T11:23:56Z</time>
      </trkpt>
      <trkpt lat="47.23256" lon="6.03704">
        <ele>269.8</ele>
        <time>2024-08-03T11:23:57Z</time>
      </trkpt>
      <trkpt lat="47.23256" lon="6.03703">
        <ele>269.8</ele>
        <time>2024-08-03T11:23:58Z</time>
      </trkpt>
      <trkpt lat="47.23256" lon="6.03703">
        <ele>269.8</ele>
        <time>2024-08-03T11:23:59Z</time>
      </trkpt>
      <trkpt lat="47.23256" lon="6.03703">
        <ele>269.6</ele>
        <time>2024-08-03T11:24:00Z</time>
      </trkpt>
      <trkpt lat="47.23256" lon="6.03703">
        <ele>269.8</ele>
        <time>2024-08-03T11:24:01Z</time>
      </trkpt>
      <trkpt lat="47.23257" lon="6.03704">
        <ele>269.8</ele>
        <time>2024-08-03T11:24:02Z</time>
      </trkpt>
      <trkpt lat="47.23257" lon="6.03705">
        <ele>269.8</ele>
        <time>2024-08-03T11:24:03Z</time>
      </trkpt>
      <trkpt lat="47.23257" lon="6.03706">
        <ele>269.6</ele>
        <time>2024-08-03T11:24:04Z</time>
      </trkpt>
      <trkpt lat="47.23258" lon="6.03706">
        <ele>269.8</ele>
        <time>2024-08-03T11:24:05Z</time>
      </trkpt>
      <trkpt lat="47.23258" lon="6.03706">
        <ele>269.8</ele>
        <time>2024-08-03T11:24:06Z</time>
      </trkpt>
      <trkpt lat="47.23258" lon="6.03705">
        <ele>269.8</ele>
        <time>2024-08-03T11:24:07Z</time>
      </trkpt>
      <trkpt lat="47.23258" lon="6.03705">
        <ele>269.6</ele>
        <time>2024-08-03T11:24:08Z</time>
      </trkpt>
      <trkpt lat="47.23258" lon="6.03706">
        <ele>269.8</ele>
        <time>2024-08-03T11:24:09Z</time>
      </trkpt>
      <trkpt lat="47.23259" lon="6.03705">
        <ele>269.8</ele>
        <time>2024-08-03T11:24:10Z</time>
      </trkpt>
      <trkpt lat="47.23259" lon="6.03705">
        <ele>269.6</ele>
        <time>2024-08-03T11:24:11Z</time>
      </trkpt>
      <trkpt lat="47.2326" lon="6.03704">
        <ele>269.6</ele>
        <time>2024-08-03T11:24:12Z</time>
      </trkpt>
      <trkpt lat="47.2326" lon="6.03702">
        <ele>269.8</ele>
        <time>2024-08-03T11:24:13Z</time>
      </trkpt>
      <trkpt lat="47.2326" lon="6.03702">
        <ele>269.6</ele>
        <time>2024-08-03T11:24:14Z</time>
      </trkpt>
      <trkpt lat="47.2326" lon="6.03703">
        <ele>269.6</ele>
        <time>2024-08-03T11:24:15Z</time>
      </trkpt>
      <trkpt lat="47.2326" lon="6.03704">
        <ele>269.6</ele>
        <time>2024-08-03T11:24:16Z</time>
      </trkpt>
      <trkpt lat="47.2326" lon="6.03704">
        <ele>269.6</ele>
        <time>2024-08-03T11:24:17Z</time>
      </trkpt>
      <trkpt lat="47.2326" lon="6.03705">
        <ele>269.6</ele>
        <time>2024-08-03T11:24:18Z</time>
      </trkpt>
      <trkpt lat="47.23259" lon="6.03704">
        <ele>269.6</ele>
        <time>2024-08-03T11:24:19Z</time>
      </trkpt>
      <trkpt lat="47.23259" lon="6.03704">
        <ele>269.6</ele>
        <time>2024-08-03T11:24:20Z</time>
      </trkpt>
      <trkpt lat="47.23259" lon="6.03704">
        <ele>269.6</ele>
        <time>2024-08-03T11:24:21Z</time>
      </trkpt>
      <trkpt lat="47.23259" lon="6.03704">
        <ele>269.6</ele>
        <time>2024-08-03T11:24:22Z</time>
      </trkpt>
      <trkpt lat="47.23258" lon="6.03705">
        <ele>269.6</ele>
        <time>2024-08-03T11:24:23Z</time>
      </trkpt>
      <trkpt lat="47.23258" lon="6.03706">
        <ele>269.6</ele>
        <time>2024-08-03T11:24:24Z</time>
      </trkpt>
      <trkpt lat="47.23258" lon="6.03704">
        <ele>269.6</ele>
        <time>2024-08-03T11:24:25Z</time>
      </trkpt>
      <trkpt lat="47.23258" lon="6.03704">
        <ele>269.6</ele>
        <time>2024-08-03T11:24:26Z</time>
      </trkpt>
      <trkpt lat="47.23257" lon="6.03702">
        <ele>269.6</ele>
        <time>2024-08-03T11:24:27Z</time>
      </trkpt>
      <trkpt lat="47.23257" lon="6.03702">
        <ele>269.6</ele>
        <time>2024-08-03T11:24:28Z</time>
      </trkpt>
      <trkpt lat="47.23257" lon="6.03704">
        <ele>269.6</ele>
        <time>2024-08-03T11:24:29Z</time>
      </trkpt>
      <trkpt lat="47.23258" lon="6.03705">
        <ele>269.6</ele>
        <time>2024-08-03T11:24:30Z</time>
      </trkpt>
      <trkpt lat="47.23258" lon="6.03706">
        <ele>269.6</ele>
        <time>2024-08-03T11:24:31Z</time>
      </trkpt>
      <trkpt lat="47.23258" lon="6.03707">
        <ele>269.6</ele>
        <time>2024-08-03T11:24:32Z</time>
      </trkpt>
      <trkpt lat="47.23258" lon="6.03707">
        <ele>269.6</ele>
        <time>2024-08-03T11:24:33Z</time>
      </trkpt>
      <trkpt lat="47.23259" lon="6.03707">
        <ele>269.6</ele>
        <time>2024-08-03T11:24:34Z</time>
      </trkpt>
      <trkpt lat="47.23259" lon="6.03708">
        <ele>269.6</ele>
        <time>2024-08-03T11:24:35Z</time>
      </trkpt>
      <trkpt lat="47.23259" lon="6.03709">
        <ele>269.6</ele>
        <time>2024-08-03T11:24:36Z</time>
      </trkpt>
      <trkpt lat="47.2326" lon="6.0371">
        <ele>269.8</ele>
        <time>2024-08-03T11:24:37Z</time>
      </trkpt>
      <trkpt lat="47.2326" lon="6.0371">
        <ele>269.6</ele>
        <time>2024-08-03T11:24:38Z</time>
      </trkpt>
      <trkpt lat="47.2326" lon="6.0371">
        <ele>269.6</ele>
        <time>2024-08-03T11:24:39Z</time>
      </trkpt>
      <trkpt lat="47.2326" lon="6.03711">
        <ele>269.6</ele>
        <time>2024-08-03T11:24:40Z</time>
      </trkpt>
      <trkpt lat="47.2326" lon="6.03711">
        <ele>269.6</ele>
        <time>2024-08-03T11:24:41Z</time>
      </trkpt>
      <trkpt lat="47.2326" lon="6.03712">
        <ele>269.6</ele>
        <time>2024-08-03T11:24:42Z</time>
      </trkpt>
      <trkpt lat="47.23261" lon="6.03713">
        <ele>269.6</ele>
        <time>2024-08-03T11:24:43Z</time>
      </trkpt>
      <trkpt lat="47.23261" lon="6.03714">
        <ele>269.6</ele>
        <time>2024-08-03T11:24:44Z</time>
      </trkpt>
      <trkpt lat="47.23261" lon="6.03714">
        <ele>269.6</ele>
        <time>2024-08-03T11:24:45Z</time>
      </trkpt>
      <trkpt lat="47.23262" lon="6.03715">
        <ele>269.6</ele>
        <time>2024-08-03T11:24:46Z</time>
      </trkpt>
      <trkpt lat="47.23262" lon="6.03715">
        <ele>269.6</ele>
        <time>2024-08-03T11:24:47Z</time>
      </trkpt>
      <trkpt lat="47.23263" lon="6.03716">
        <ele>269.8</ele>
        <time>2024-08-03T11:24:48Z</time>
      </trkpt>
      <trkpt lat="47.23263" lon="6.03717">
        <ele>269.6</ele>
        <time>2024-08-03T11:24:49Z</time>
      </trkpt>
      <trkpt lat="47.23264" lon="6.03718">
        <ele>269.6</ele>
        <time>2024-08-03T11:24:50Z</time>
      </trkpt>
      <trkpt lat="47.23264" lon="6.03718">
        <ele>269.8</ele>
        <time>2024-08-03T11:24:51Z</time>
      </trkpt>
      <trkpt lat="47.23264" lon="6.03719">
        <ele>269.8</ele>
        <time>2024-08-03T11:24:52Z</time>
      </trkpt>
      <trkpt lat="47.23265" lon="6.0372">
        <ele>269.8</ele>
        <time>2024-08-03T11:24:53Z</time>
      </trkpt>
      <trkpt lat="47.23265" lon="6.03721">
        <ele>269.8</ele>
        <time>2024-08-03T11:24:54Z</time>
      </trkpt>
      <trkpt lat="47.23265" lon="6.03721">
        <ele>269.8</ele>
        <time>2024-08-03T11:24:55Z</time>
      </trkpt>
      <trkpt lat="47.23265" lon="6.0372">
        <ele>269.8</ele>
        <time>2024-08-03T11:24:56Z</time>
      </trkpt>
      <trkpt lat="47.23266" lon="6.03721">
        <ele>269.6</ele>
        <time>2024-08-03T11:24:57Z</time>
      </trkpt>
      <trkpt lat="47.23265" lon="6.03719">
        <ele>269.8</ele>
        <time>2024-08-03T11:24:58Z</time>
      </trkpt>
      <trkpt lat="47.23265" lon="6.03718">
        <ele>269.8</ele>
        <time>2024-08-03T11:24:59Z</time>
      </trkpt>
      <trkpt lat="47.23265" lon="6.03719">
        <ele>269.8</ele>
        <time>2024-08-03T11:25:00Z</time>
      </trkpt>
      <trkpt lat="47.23265" lon="6.03719">
        <ele>269.6</ele>
        <time>2024-08-03T11:25:01Z</time>
      </trkpt>
      <trkpt lat="47.23265" lon="6.03719">
        <ele>269.6</ele>
        <time>2024-08-03T11:25:02Z</time>
      </trkpt>
      <trkpt lat="47.23265" lon="6.0372">
        <ele>269.6</ele>
        <time>2024-08-03T11:25:03Z</time>
      </trkpt>
      <trkpt lat="47.23265" lon="6.0372">
        <ele>269.6</ele>
        <time>2024-08-03T11:25:04Z</time>
      </trkpt>
      <trkpt lat="47.23265" lon="6.0372">
        <ele>269.6</ele>
        <time>2024-08-03T11:25:05Z</time>
      </trkpt>
      <trkpt lat="47.23265" lon="6.0372">
        <ele>269.6</ele>
        <time>2024-08-03T11:25:06Z</time>
      </trkpt>
      <trkpt lat="47.23265" lon="6.0372">
        <ele>269.6</ele>
        <time>2024-08-03T11:25:07Z</time>
      </trkpt>
      <trkpt lat="47.23265" lon="6.0372">
        <ele>269.6</ele>
        <time>2024-08-03T11:25:08Z</time>
      </trkpt>
      <trkpt lat="47.23265" lon="6.0372">
        <ele>269.6</ele>
        <time>2024-08-03T11:25:09Z</time>
      </trkpt>
      <trkpt lat="47.23264" lon="6.0372">
        <ele>269.6</ele>
        <time>2024-08-03T11:25:10Z</time>
      </trkpt>
      <trkpt lat="47.23264" lon="6.0372">
        <ele>269.6</ele>
        <time>2024-08-03T11:25:11Z</time>
      </trkpt>
      <trkpt lat="47.23264" lon="6.0372">
        <ele>269.4</ele>
        <time>2024-08-03T11:25:12Z</time>
      </trkpt>
      <trkpt lat="47.23265" lon="6.0372">
        <ele>269.4</ele>
        <time>2024-08-03T11:25:13Z</time>
      </trkpt>
      <trkpt lat="47.23265" lon="6.03721">
        <ele>269.4</ele>
        <time>2024-08-03T11:25:14Z</time>
      </trkpt>
      <trkpt lat="47.23265" lon="6.03721">
        <ele>269.4</ele>
        <time>2024-08-03T11:25:15Z</time>
      </trkpt>
      <trkpt lat="47.23265" lon="6.03721">
        <ele>269.4</ele>
        <time>2024-08-03T11:25:16Z</time>
      </trkpt>
      <trkpt lat="47.23265" lon="6.03721">
        <ele>269.4</ele>
        <time>2024-08-03T11:25:17Z</time>
      </trkpt>
      <trkpt lat="47.23265" lon="6.03721">
        <ele>269.4</ele>
        <time>2024-08-03T11:25:18Z</time>
      </trkpt>
      <trkpt lat="47.23265" lon="6.03721">
        <ele>269.4</ele>
        <time>2024-08-03T11:25:19Z</time>
      </trkpt>
      <trkpt lat="47.23265" lon="6.03721">
        <ele>269.4</ele>
        <time>2024-08-03T11:25:20Z</time>
      </trkpt>
      <trkpt lat="47.23265" lon="6.03721">
        <ele>269.4</ele>
        <time>2024-08-03T11:25:21Z</time>
      </trkpt>
      <trkpt lat="47.23265" lon="6.03721">
        <ele>269.4</ele>
        <time>2024-08-03T11:25:22Z</time>
      </trkpt>
      <trkpt lat="47.23265" lon="6.03722">
        <ele>269.4</ele>
        <time>2024-08-03T11:25:23Z</time>
      </trkpt>
      <trkpt lat="47.23265" lon="6.03722">
        <ele>269.4</ele>
        <time>2024-08-03T11:25:24Z</time>
      </trkpt>
      <trkpt lat="47.23265" lon="6.03722">
        <ele>269.4</ele>
        <time>2024-08-03T11:25:25Z</time>
      </trkpt>
      <trkpt lat="47.23266" lon="6.03723">
        <ele>269.4</ele>
        <time>2024-08-03T11:25:26Z</time>
      </trkpt>
      <trkpt lat="47.23266" lon="6.03723">
        <ele>269.4</ele>
        <time>2024-08-03T11:25:27Z</time>
      </trkpt>
      <trkpt lat="47.23265" lon="6.03723">
        <ele>269.4</ele>
        <time>2024-08-03T11:25:28Z</time>
      </trkpt>
      <trkpt lat="47.23265" lon="6.03723">
        <ele>269.4</ele>
        <time>2024-08-03T11:25:29Z</time>
      </trkpt>
      <trkpt lat="47.23265" lon="6.03723">
        <ele>269.6</ele>
        <time>2024-08-03T11:25:30Z</time>
      </trkpt>
      <trkpt lat="47.23265" lon="6.03723">
        <ele>269.6</ele>
        <time>2024-08-03T11:25:31Z</time>
      </trkpt>
      <trkpt lat="47.23265" lon="6.03723">
        <ele>269.6</ele>
        <time>2024-08-03T11:25:32Z</time>
      </trkpt>
      <trkpt lat="47.23265" lon="6.03723">
        <ele>269.6</ele>
        <time>2024-08-03T11:25:33Z</time>
      </trkpt>
      <trkpt lat="47.23265" lon="6.03723">
        <ele>269.6</ele>
        <time>2024-08-03T11:25:34Z</time>
      </trkpt>
      <trkpt lat="47.23265" lon="6.03723">
        <ele>269.8</ele>
        <time>2024-08-03T11:25:35Z</time>
      </trkpt>
      <trkpt lat="47.23265" lon="6.03723">
        <ele>269.6</ele>
        <time>2024-08-03T11:25:36Z</time>
      </trkpt>
      <trkpt lat="47.23265" lon="6.03723">
        <ele>269.8</ele>
        <time>2024-08-03T11:25:37Z</time>
      </trkpt>
      <trkpt lat="47.23265" lon="6.03723">
        <ele>269.8</ele>
        <time>2024-08-03T11:25:38Z</time>
      </trkpt>
      <trkpt lat="47.23265" lon="6.03723">
        <ele>269.8</ele>
        <time>2024-08-03T11:25:39Z</time>
      </trkpt>
      <trkpt lat="47.23265" lon="6.03723">
        <ele>269.8</ele>
        <time>2024-08-03T11:25:40Z</time>
      </trkpt>
      <trkpt lat="47.23265" lon="6.03723">
        <ele>269.8</ele>
        <time>2024-08-03T11:25:41Z</time>
      </trkpt>
      <trkpt lat="47.23265" lon="6.03723">
        <ele>269.8</ele>
        <time>2024-08-03T11:25:42Z</time>
      </trkpt>
      <trkpt lat="47.23265" lon="6.03723">
        <ele>269.6</ele>
        <time>2024-08-03T11:25:43Z</time>
      </trkpt>
      <trkpt lat="47.23265" lon="6.03723">
        <ele>269.8</ele>
        <time>2024-08-03T11:25:44Z</time>
      </trkpt>
      <trkpt lat="47.23265" lon="6.03723">
        <ele>269.6</ele>
        <time>2024-08-03T11:25:45Z</time>
      </trkpt>
      <trkpt lat="47.23265" lon="6.03723">
        <ele>269.6</ele>
        <time>2024-08-03T11:25:46Z</time>
      </trkpt>
      <trkpt lat="47.23265" lon="6.03723">
        <ele>269.8</ele>
        <time>2024-08-03T11:25:47Z</time>
      </trkpt>
      <trkpt lat="47.23265" lon="6.03723">
        <ele>269.8</ele>
        <time>2024-08-03T11:25:48Z</time>
      </trkpt>
      <trkpt lat="47.23265" lon="6.03723">
        <ele>269.8</ele>
        <time>2024-08-03T11:25:49Z</time>
      </trkpt>
      <trkpt lat="47.23265" lon="6.03723">
        <ele>269.6</ele>
        <time>2024-08-03T11:25:50Z</time>
      </trkpt>
      <trkpt lat="47.23265" lon="6.03723">
        <ele>269.6</ele>
        <time>2024-08-03T11:25:51Z</time>
      </trkpt>
      <trkpt lat="47.23265" lon="6.03723">
        <ele>269.8</ele>
        <time>2024-08-03T11:25:52Z</time>
      </trkpt>
      <trkpt lat="47.23265" lon="6.03723">
        <ele>269.6</ele>
        <time>2024-08-03T11:25:53Z</time>
      </trkpt>
      <trkpt lat="47.23265" lon="6.03722">
        <ele>269.6</ele>
        <time>2024-08-03T11:25:54Z</time>
      </trkpt>
      <trkpt lat="47.23265" lon="6.03722">
        <ele>269.6</ele>
        <time>2024-08-03T11:25:55Z</time>
      </trkpt>
      <trkpt lat="47.23265" lon="6.03722">
        <ele>269.6</ele>
        <time>2024-08-03T11:25:56Z</time>
      </trkpt>
      <trkpt lat="47.23265" lon="6.03722">
        <ele>269.6</ele>
        <time>2024-08-03T11:25:57Z</time>
      </trkpt>
      <trkpt lat="47.23266" lon="6.03722">
        <ele>269.6</ele>
        <time>2024-08-03T11:25:58Z</time>
      </trkpt>
      <trkpt lat="47.23266" lon="6.03722">
        <ele>269.6</ele>
        <time>2024-08-03T11:25:59Z</time>
      </trkpt>
      <trkpt lat="47.23266" lon="6.03722">
        <ele>269.6</ele>
        <time>2024-08-03T11:26:00Z</time>
      </trkpt>
      <trkpt lat="47.23266" lon="6.03722">
        <ele>269.4</ele>
        <time>2024-08-03T11:26:01Z</time>
      </trkpt>
      <trkpt lat="47.23266" lon="6.03722">
        <ele>269.4</ele>
        <time>2024-08-03T11:26:02Z</time>
      </trkpt>
      <trkpt lat="47.23266" lon="6.03722">
        <ele>269.4</ele>
        <time>2024-08-03T11:26:03Z</time>
      </trkpt>
      <trkpt lat="47.23266" lon="6.03723">
        <ele>269.4</ele>
        <time>2024-08-03T11:26:04Z</time>
      </trkpt>
      <trkpt lat="47.23266" lon="6.03723">
        <ele>269.6</ele>
        <time>2024-08-03T11:26:05Z</time>
      </trkpt>
      <trkpt lat="47.23266" lon="6.03722">
        <ele>269.6</ele>
        <time>2024-08-03T11:26:06Z</time>
      </trkpt>
      <trkpt lat="47.23266" lon="6.03722">
        <ele>269.6</ele>
        <time>2024-08-03T11:26:07Z</time>
      </trkpt>
      <trkpt lat="47.23266" lon="6.03721">
        <ele>269.6</ele>
        <time>2024-08-03T11:26:08Z</time>
      </trkpt>
      <trkpt lat="47.23265" lon="6.03719">
        <ele>269.4</ele>
        <time>2024-08-03T11:26:09Z</time>
      </trkpt>
      <trkpt lat="47.23265" lon="6.03718">
        <ele>269.6</ele>
        <time>2024-08-03T11:26:10Z</time>
      </trkpt>
      <trkpt lat="47.23265" lon="6.03717">
        <ele>269.6</ele>
        <time>2024-08-03T11:26:11Z</time>
      </trkpt>
      <trkpt lat="47.23265" lon="6.03717">
        <ele>269.6</ele>
        <time>2024-08-03T11:26:12Z</time>
      </trkpt>
      <trkpt lat="47.23265" lon="6.03717">
        <ele>269.6</ele>
        <time>2024-08-03T11:26:13Z</time>
      </trkpt>
      <trkpt lat="47.23265" lon="6.03717">
        <ele>269.6</ele>
        <time>2024-08-03T11:26:14Z</time>
      </trkpt>
      <trkpt lat="47.23264" lon="6.03715">
        <ele>269.6</ele>
        <time>2024-08-03T11:26:15Z</time>
      </trkpt>
      <trkpt lat="47.23264" lon="6.03715">
        <ele>269.6</ele>
        <time>2024-08-03T11:26:16Z</time>
      </trkpt>
      <trkpt lat="47.23264" lon="6.03714">
        <ele>269.6</ele>
        <time>2024-08-03T11:26:17Z</time>
      </trkpt>
      <trkpt lat="47.23264" lon="6.03714">
        <ele>269.6</ele>
        <time>2024-08-03T11:26:18Z</time>
      </trkpt>
      <trkpt lat="47.23264" lon="6.03714">
        <ele>269.6</ele>
        <time>2024-08-03T11:26:19Z</time>
      </trkpt>
      <trkpt lat="47.23264" lon="6.03714">
        <ele>269.6</ele>
        <time>2024-08-03T11:26:20Z</time>
      </trkpt>
      <trkpt lat="47.23264" lon="6.03715">
        <ele>269.6</ele>
        <time>2024-08-03T11:26:21Z</time>
      </trkpt>
      <trkpt lat="47.23265" lon="6.03716">
        <ele>269.4</ele>
        <time>2024-08-03T11:26:22Z</time>
      </trkpt>
      <trkpt lat="47.23265" lon="6.03716">
        <ele>269.6</ele>
        <time>2024-08-03T11:26:23Z</time>
      </trkpt>
      <trkpt lat="47.23265" lon="6.03717">
        <ele>269.6</ele>
        <time>2024-08-03T11:26:24Z</time>
      </trkpt>
      <trkpt lat="47.23265" lon="6.03718">
        <ele>269.6</ele>
        <time>2024-08-03T11:26:25Z</time>
      </trkpt>
      <trkpt lat="47.23265" lon="6.03717">
        <ele>269.6</ele>
        <time>2024-08-03T11:26:26Z</time>
      </trkpt>
      <trkpt lat="47.23264" lon="6.03717">
        <ele>269.6</ele>
        <time>2024-08-03T11:26:27Z</time>
      </trkpt>
      <trkpt lat="47.23264" lon="6.03718">
        <ele>269.4</ele>
        <time>2024-08-03T11:26:28Z</time>
      </trkpt>
      <trkpt lat="47.23264" lon="6.03719">
        <ele>269.4</ele>
        <time>2024-08-03T11:26:29Z</time>
      </trkpt>
      <trkpt lat="47.23264" lon="6.03721">
        <ele>269.4</ele>
        <time>2024-08-03T11:26:30Z</time>
      </trkpt>
      <trkpt lat="47.23264" lon="6.03723">
        <ele>269.4</ele>
        <time>2024-08-03T11:26:31Z</time>
      </trkpt>
      <trkpt lat="47.23264" lon="6.03723">
        <ele>269.2</ele>
        <time>2024-08-03T11:26:32Z</time>
      </trkpt>
      <trkpt lat="47.23263" lon="6.03722">
        <ele>269.2</ele>
        <time>2024-08-03T11:26:33Z</time>
      </trkpt>
      <trkpt lat="47.23261" lon="6.03718">
        <ele>269</ele>
        <time>2024-08-03T11:26:34Z</time>
      </trkpt>
      <trkpt lat="47.23261" lon="6.03719">
        <ele>269.2</ele>
        <time>2024-08-03T11:26:35Z</time>
      </trkpt>
      <trkpt lat="47.23261" lon="6.0372">
        <ele>270.4</ele>
        <time>2024-08-03T11:26:36Z</time>
      </trkpt>
      <trkpt lat="47.23261" lon="6.03721">
        <ele>271.2</ele>
        <time>2024-08-03T11:26:37Z</time>
      </trkpt>
      <trkpt lat="47.23261" lon="6.03721">
        <ele>271.6</ele>
        <time>2024-08-03T11:26:38Z</time>
      </trkpt>
      <trkpt lat="47.2326" lon="6.0372">
        <ele>272</ele>
        <time>2024-08-03T11:26:39Z</time>
      </trkpt>
      <trkpt lat="47.2326" lon="6.0372">
        <ele>272</ele>
        <time>2024-08-03T11:26:40Z</time>
      </trkpt>
      <trkpt lat="47.2326" lon="6.0372">
        <ele>272.6</ele>
        <time>2024-08-03T11:26:41Z</time>
      </trkpt>
      <trkpt lat="47.2326" lon="6.03718">
        <ele>272.8</ele>
        <time>2024-08-03T11:26:42Z</time>
      </trkpt>
      <trkpt lat="47.23259" lon="6.03716">
        <ele>272.8</ele>
        <time>2024-08-03T11:26:43Z</time>
      </trkpt>
      <trkpt lat="47.23259" lon="6.03716">
        <ele>272.8</ele>
        <time>2024-08-03T11:26:44Z</time>
      </trkpt>
      <trkpt lat="47.2326" lon="6.03716">
        <ele>272.2</ele>
        <time>2024-08-03T11:26:45Z</time>
      </trkpt>
      <trkpt lat="47.2326" lon="6.03717">
        <ele>270.2</ele>
        <time>2024-08-03T11:26:46Z</time>
      </trkpt>
      <trkpt lat="47.2326" lon="6.03716">
        <ele>271.4</ele>
        <time>2024-08-03T11:26:47Z</time>
      </trkpt>
      <trkpt lat="47.2326" lon="6.03715">
        <ele>271.2</ele>
        <time>2024-08-03T11:26:48Z</time>
      </trkpt>
      <trkpt lat="47.23259" lon="6.03714">
        <ele>269.8</ele>
        <time>2024-08-03T11:26:49Z</time>
      </trkpt>
      <trkpt lat="47.23259" lon="6.03714">
        <ele>269.2</ele>
        <time>2024-08-03T11:26:50Z</time>
      </trkpt>
      <trkpt lat="47.23258" lon="6.03711">
        <ele>270.2</ele>
        <time>2024-08-03T11:26:51Z</time>
      </trkpt>
      <trkpt lat="47.23258" lon="6.0371">
        <ele>270.2</ele>
        <time>2024-08-03T11:26:52Z</time>
      </trkpt>
      <trkpt lat="47.23258" lon="6.03709">
        <ele>270.8</ele>
        <time>2024-08-03T11:26:53Z</time>
      </trkpt>
      <trkpt lat="47.23257" lon="6.03709">
        <ele>271</ele>
        <time>2024-08-03T11:26:54Z</time>
      </trkpt>
      <trkpt lat="47.23257" lon="6.03707">
        <ele>271.2</ele>
        <time>2024-08-03T11:26:55Z</time>
      </trkpt>
      <trkpt lat="47.23256" lon="6.03706">
        <ele>270.8</ele>
        <time>2024-08-03T11:26:56Z</time>
      </trkpt>
      <trkpt lat="47.23257" lon="6.03707">
        <ele>270.4</ele>
        <time>2024-08-03T11:26:57Z</time>
      </trkpt>
      <trkpt lat="47.23257" lon="6.03708">
        <ele>270.2</ele>
        <time>2024-08-03T11:26:58Z</time>
      </trkpt>
      <trkpt lat="47.23257" lon="6.0371">
        <ele>270</ele>
        <time>2024-08-03T11:26:59Z</time>
      </trkpt>
      <trkpt lat="47.23258" lon="6.03712">
        <ele>270</ele>
        <time>2024-08-03T11:27:00Z</time>
      </trkpt>
      <trkpt lat="47.23258" lon="6.03713">
        <ele>270</ele>
        <time>2024-08-03T11:27:01Z</time>
      </trkpt>
      <trkpt lat="47.23258" lon="6.03714">
        <ele>270</ele>
        <time>2024-08-03T11:27:02Z</time>
      </trkpt>
      <trkpt lat="47.23259" lon="6.03715">
        <ele>270</ele>
        <time>2024-08-03T11:27:03Z</time>
      </trkpt>
      <trkpt lat="47.23259" lon="6.03717">
        <ele>270</ele>
        <time>2024-08-03T11:27:04Z</time>
      </trkpt>
      <trkpt lat="47.23259" lon="6.03718">
        <ele>269.8</ele>
        <time>2024-08-03T11:27:05Z</time>
      </trkpt>
      <trkpt lat="47.23259" lon="6.03718">
        <ele>270</ele>
        <time>2024-08-03T11:27:06Z</time>
      </trkpt>
      <trkpt lat="47.23259" lon="6.03719">
        <ele>270</ele>
        <time>2024-08-03T11:27:07Z</time>
      </trkpt>
      <trkpt lat="47.23259" lon="6.0372">
        <ele>269.8</ele>
        <time>2024-08-03T11:27:08Z</time>
      </trkpt>
      <trkpt lat="47.23259" lon="6.03721">
        <ele>270</ele>
        <time>2024-08-03T11:27:09Z</time>
      </trkpt>
      <trkpt lat="47.23259" lon="6.03722">
        <ele>270</ele>
        <time>2024-08-03T11:27:10Z</time>
      </trkpt>
      <trkpt lat="47.2326" lon="6.03722">
        <ele>270</ele>
        <time>2024-08-03T11:27:11Z</time>
      </trkpt>
      <trkpt lat="47.2326" lon="6.03722">
        <ele>270</ele>
        <time>2024-08-03T11:27:12Z</time>
      </trkpt>
      <trkpt lat="47.2326" lon="6.03723">
        <ele>270</ele>
        <time>2024-08-03T11:27:13Z</time>
      </trkpt>
      <trkpt lat="47.2326" lon="6.03724">
        <ele>270</ele>
        <time>2024-08-03T11:27:14Z</time>
      </trkpt>
      <trkpt lat="47.23259" lon="6.03723">
        <ele>270</ele>
        <time>2024-08-03T11:27:15Z</time>
      </trkpt>
      <trkpt lat="47.23258" lon="6.03724">
        <ele>269.8</ele>
        <time>2024-08-03T11:27:16Z</time>
      </trkpt>
      <trkpt lat="47.23257" lon="6.03723">
        <ele>269.8</ele>
        <time>2024-08-03T11:27:17Z</time>
      </trkpt>
      <trkpt lat="47.23256" lon="6.03722">
        <ele>269.8</ele>
        <time>2024-08-03T11:27:18Z</time>
      </trkpt>
      <trkpt lat="47.23255" lon="6.03721">
        <ele>269.8</ele>
        <time>2024-08-03T11:27:19Z</time>
      </trkpt>
      <trkpt lat="47.23254" lon="6.03722">
        <ele>269.8</ele>
        <time>2024-08-03T11:27:20Z</time>
      </trkpt>
      <trkpt lat="47.23253" lon="6.03723">
        <ele>269.8</ele>
        <time>2024-08-03T11:27:21Z</time>
      </trkpt>
      <trkpt lat="47.23253" lon="6.03723">
        <ele>270</ele>
        <time>2024-08-03T11:27:22Z</time>
      </trkpt>
      <trkpt lat="47.23251" lon="6.03722">
        <ele>269.8</ele>
        <time>2024-08-03T11:27:23Z</time>
      </trkpt>
      <trkpt lat="47.23251" lon="6.03722">
        <ele>269.8</ele>
        <time>2024-08-03T11:27:24Z</time>
      </trkpt>
      <trkpt lat="47.23251" lon="6.03723">
        <ele>269.8</ele>
        <time>2024-08-03T11:27:25Z</time>
      </trkpt>
      <trkpt lat="47.2325" lon="6.03723">
        <ele>269.8</ele>
        <time>2024-08-03T11:27:26Z</time>
      </trkpt>
      <trkpt lat="47.2325" lon="6.03724">
        <ele>269.8</ele>
        <time>2024-08-03T11:27:27Z</time>
      </trkpt>
      <trkpt lat="47.2325" lon="6.03723">
        <ele>269.8</ele>
        <time>2024-08-03T11:27:28Z</time>
      </trkpt>
      <trkpt lat="47.2325" lon="6.03723">
        <ele>269.8</ele>
        <time>2024-08-03T11:27:29Z</time>
      </trkpt>
      <trkpt lat="47.2325" lon="6.03723">
        <ele>269.8</ele>
        <time>2024-08-03T11:27:30Z</time>
      </trkpt>
      <trkpt lat="47.2325" lon="6.03723">
        <ele>269.8</ele>
        <time>2024-08-03T11:27:31Z</time>
      </trkpt>
      <trkpt lat="47.2325" lon="6.03722">
        <ele>269.8</ele>
        <time>2024-08-03T11:27:32Z</time>
      </trkpt>
      <trkpt lat="47.2325" lon="6.03721">
        <ele>269.8</ele>
        <time>2024-08-03T11:27:33Z</time>
      </trkpt>
      <trkpt lat="47.23249" lon="6.03721">
        <ele>269.8</ele>
        <time>2024-08-03T11:27:34Z</time>
      </trkpt>
      <trkpt lat="47.23249" lon="6.03722">
        <ele>269.8</ele>
        <time>2024-08-03T11:27:35Z</time>
      </trkpt>
      <trkpt lat="47.23248" lon="6.03722">
        <ele>269.8</ele>
        <time>2024-08-03T11:27:36Z</time>
      </trkpt>
      <trkpt lat="47.23248" lon="6.0372">
        <ele>269.8</ele>
        <time>2024-08-03T11:27:37Z</time>
      </trkpt>
      <trkpt lat="47.23248" lon="6.0372">
        <ele>269.8</ele>
        <time>2024-08-03T11:27:38Z</time>
      </trkpt>
      <trkpt lat="47.23249" lon="6.03721">
        <ele>269.8</ele>
        <time>2024-08-03T11:27:39Z</time>
      </trkpt>
      <trkpt lat="47.23249" lon="6.03721">
        <ele>269.8</ele>
        <time>2024-08-03T11:27:40Z</time>
      </trkpt>
      <trkpt lat="47.23249" lon="6.03722">
        <ele>269.8</ele>
        <time>2024-08-03T11:27:41Z</time>
      </trkpt>
      <trkpt lat="47.2325" lon="6.03722">
        <ele>269.8</ele>
        <time>2024-08-03T11:27:42Z</time>
      </trkpt>
      <trkpt lat="47.2325" lon="6.03723">
        <ele>269.8</ele>
        <time>2024-08-03T11:27:43Z</time>
      </trkpt>
      <trkpt lat="47.23251" lon="6.03724">
        <ele>269.8</ele>
        <time>2024-08-03T11:27:44Z</time>
      </trkpt>
      <trkpt lat="47.23251" lon="6.03725">
        <ele>269.6</ele>
        <time>2024-08-03T11:27:45Z</time>
      </trkpt>
      <trkpt lat="47.23251" lon="6.03725">
        <ele>269.8</ele>
        <time>2024-08-03T11:27:46Z</time>
      </trkpt>
      <trkpt lat="47.23251" lon="6.03723">
        <ele>269.8</ele>
        <time>2024-08-03T11:27:47Z</time>
      </trkpt>
      <trkpt lat="47.23251" lon="6.03723">
        <ele>269.8</ele>
        <time>2024-08-03T11:27:48Z</time>
      </trkpt>
      <trkpt lat="47.23251" lon="6.03723">
        <ele>269.8</ele>
        <time>2024-08-03T11:27:49Z</time>
      </trkpt>
      <trkpt lat="47.23251" lon="6.03724">
        <ele>269.6</ele>
        <time>2024-08-03T11:27:50Z</time>
      </trkpt>
      <trkpt lat="47.23251" lon="6.03725">
        <ele>269.6</ele>
        <time>2024-08-03T11:27:51Z</time>
      </trkpt>
      <trkpt lat="47.23252" lon="6.03726">
        <ele>269.6</ele>
        <time>2024-08-03T11:27:52Z</time>
      </trkpt>
      <trkpt lat="47.23251" lon="6.03725">
        <ele>269.6</ele>
        <time>2024-08-03T11:27:53Z</time>
      </trkpt>
      <trkpt lat="47.23252" lon="6.03726">
        <ele>269.6</ele>
        <time>2024-08-03T11:27:54Z</time>
      </trkpt>
      <trkpt lat="47.23252" lon="6.03727">
        <ele>269.6</ele>
        <time>2024-08-03T11:27:55Z</time>
      </trkpt>
      <trkpt lat="47.23252" lon="6.03726">
        <ele>269.6</ele>
        <time>2024-08-03T11:27:56Z</time>
      </trkpt>
      <trkpt lat="47.23252" lon="6.03723">
        <ele>269.6</ele>
        <time>2024-08-03T11:27:57Z</time>
      </trkpt>
      <trkpt lat="47.23252" lon="6.03724">
        <ele>269.6</ele>
        <time>2024-08-03T11:27:58Z</time>
      </trkpt>
      <trkpt lat="47.23252" lon="6.03723">
        <ele>269.6</ele>
        <time>2024-08-03T11:27:59Z</time>
      </trkpt>
      <trkpt lat="47.23253" lon="6.03724">
        <ele>269.6</ele>
        <time>2024-08-03T11:28:00Z</time>
      </trkpt>
      <trkpt lat="47.23252" lon="6.03722">
        <ele>269.6</ele>
        <time>2024-08-03T11:28:01Z</time>
      </trkpt>
      <trkpt lat="47.23252" lon="6.03722">
        <ele>269.6</ele>
        <time>2024-08-03T11:28:02Z</time>
      </trkpt>
      <trkpt lat="47.23252" lon="6.03723">
        <ele>269.6</ele>
        <time>2024-08-03T11:28:03Z</time>
      </trkpt>
      <trkpt lat="47.23252" lon="6.03722">
        <ele>269.6</ele>
        <time>2024-08-03T11:28:04Z</time>
      </trkpt>
      <trkpt lat="47.23252" lon="6.03722">
        <ele>269.6</ele>
        <time>2024-08-03T11:28:05Z</time>
      </trkpt>
      <trkpt lat="47.23251" lon="6.03721">
        <ele>269.6</ele>
        <time>2024-08-03T11:28:06Z</time>
      </trkpt>
      <trkpt lat="47.23252" lon="6.03721">
        <ele>269.6</ele>
        <time>2024-08-03T11:28:07Z</time>
      </trkpt>
      <trkpt lat="47.23252" lon="6.03721">
        <ele>269.6</ele>
        <time>2024-08-03T11:28:08Z</time>
      </trkpt>
      <trkpt lat="47.23252" lon="6.03722">
        <ele>269.6</ele>
        <time>2024-08-03T11:28:09Z</time>
      </trkpt>
      <trkpt lat="47.23253" lon="6.03723">
        <ele>269.6</ele>
        <time>2024-08-03T11:28:10Z</time>
      </trkpt>
      <trkpt lat="47.23253" lon="6.03725">
        <ele>269.4</ele>
        <time>2024-08-03T11:28:11Z</time>
      </trkpt>
      <trkpt lat="47.23253" lon="6.03726">
        <ele>269.6</ele>
        <time>2024-08-03T11:28:12Z</time>
      </trkpt>
      <trkpt lat="47.23253" lon="6.03727">
        <ele>269.6</ele>
        <time>2024-08-03T11:28:13Z</time>
      </trkpt>
      <trkpt lat="47.23253" lon="6.03727">
        <ele>269.6</ele>
        <time>2024-08-03T11:28:14Z</time>
      </trkpt>
      <trkpt lat="47.23253" lon="6.03725">
        <ele>269.6</ele>
        <time>2024-08-03T11:28:15Z</time>
      </trkpt>
      <trkpt lat="47.23253" lon="6.03725">
        <ele>269.6</ele>
        <time>2024-08-03T11:28:16Z</time>
      </trkpt>
      <trkpt lat="47.23253" lon="6.03725">
        <ele>269.6</ele>
        <time>2024-08-03T11:28:17Z</time>
      </trkpt>
      <trkpt lat="47.23254" lon="6.03726">
        <ele>269.6</ele>
        <time>2024-08-03T11:28:18Z</time>
      </trkpt>
      <trkpt lat="47.23254" lon="6.03726">
        <ele>269.6</ele>
        <time>2024-08-03T11:28:19Z</time>
      </trkpt>
      <trkpt lat="47.23253" lon="6.03725">
        <ele>269.6</ele>
        <time>2024-08-03T11:28:20Z</time>
      </trkpt>
      <trkpt lat="47.23253" lon="6.03725">
        <ele>269.6</ele>
        <time>2024-08-03T11:28:21Z</time>
      </trkpt>
      <trkpt lat="47.23253" lon="6.03723">
        <ele>269.6</ele>
        <time>2024-08-03T11:28:22Z</time>
      </trkpt>
      <trkpt lat="47.23252" lon="6.03722">
        <ele>269.4</ele>
        <time>2024-08-03T11:28:23Z</time>
      </trkpt>
      <trkpt lat="47.23252" lon="6.03722">
        <ele>269.6</ele>
        <time>2024-08-03T11:28:24Z</time>
      </trkpt>
      <trkpt lat="47.23251" lon="6.0372">
        <ele>269.4</ele>
        <time>2024-08-03T11:28:25Z</time>
      </trkpt>
      <trkpt lat="47.2325" lon="6.0372">
        <ele>269.4</ele>
        <time>2024-08-03T11:28:26Z</time>
      </trkpt>
      <trkpt lat="47.2325" lon="6.03719">
        <ele>269.4</ele>
        <time>2024-08-03T11:28:27Z</time>
      </trkpt>
      <trkpt lat="47.2325" lon="6.0372">
        <ele>269.4</ele>
        <time>2024-08-03T11:28:28Z</time>
      </trkpt>
      <trkpt lat="47.23249" lon="6.03721">
        <ele>269.4</ele>
        <time>2024-08-03T11:28:29Z</time>
      </trkpt>
      <trkpt lat="47.23249" lon="6.03721">
        <ele>269.6</ele>
        <time>2024-08-03T11:28:30Z</time>
      </trkpt>
      <trkpt lat="47.23249" lon="6.03722">
        <ele>269.4</ele>
        <time>2024-08-03T11:28:31Z</time>
      </trkpt>
      <trkpt lat="47.2325" lon="6.03723">
        <ele>269.4</ele>
        <time>2024-08-03T11:28:32Z</time>
      </trkpt>
      <trkpt lat="47.2325" lon="6.03723">
        <ele>269.4</ele>
        <time>2024-08-03T11:28:33Z</time>
      </trkpt>
      <trkpt lat="47.2325" lon="6.03724">
        <ele>269.4</ele>
        <time>2024-08-03T11:28:34Z</time>
      </trkpt>
      <trkpt lat="47.2325" lon="6.03725">
        <ele>269.4</ele>
        <time>2024-08-03T11:28:35Z</time>
      </trkpt>
      <trkpt lat="47.2325" lon="6.03725">
        <ele>269.4</ele>
        <time>2024-08-03T11:28:36Z</time>
      </trkpt>
      <trkpt lat="47.2325" lon="6.03726">
        <ele>269.2</ele>
        <time>2024-08-03T11:28:37Z</time>
      </trkpt>
      <trkpt lat="47.2325" lon="6.03726">
        <ele>269.2</ele>
        <time>2024-08-03T11:28:38Z</time>
      </trkpt>
      <trkpt lat="47.23249" lon="6.03726">
        <ele>269.4</ele>
        <time>2024-08-03T11:28:39Z</time>
      </trkpt>
      <trkpt lat="47.23249" lon="6.03727">
        <ele>269.4</ele>
        <time>2024-08-03T11:28:40Z</time>
      </trkpt>
      <trkpt lat="47.2325" lon="6.03728">
        <ele>269.4</ele>
        <time>2024-08-03T11:28:41Z</time>
      </trkpt>
      <trkpt lat="47.2325" lon="6.03728">
        <ele>269.4</ele>
        <time>2024-08-03T11:28:42Z</time>
      </trkpt>
      <trkpt lat="47.2325" lon="6.03728">
        <ele>269.4</ele>
        <time>2024-08-03T11:28:43Z</time>
      </trkpt>
      <trkpt lat="47.23251" lon="6.03729">
        <ele>269.4</ele>
        <time>2024-08-03T11:28:44Z</time>
      </trkpt>
      <trkpt lat="47.23251" lon="6.03729">
        <ele>269.2</ele>
        <time>2024-08-03T11:28:45Z</time>
      </trkpt>
      <trkpt lat="47.23252" lon="6.0373">
        <ele>269.2</ele>
        <time>2024-08-03T11:28:46Z</time>
      </trkpt>
      <trkpt lat="47.23252" lon="6.03731">
        <ele>269.4</ele>
        <time>2024-08-03T11:28:47Z</time>
      </trkpt>
      <trkpt lat="47.23252" lon="6.0373">
        <ele>269.2</ele>
        <time>2024-08-03T11:28:48Z</time>
      </trkpt>
      <trkpt lat="47.23252" lon="6.03729">
        <ele>269.2</ele>
        <time>2024-08-03T11:28:49Z</time>
      </trkpt>
      <trkpt lat="47.23253" lon="6.0373">
        <ele>269.2</ele>
        <time>2024-08-03T11:28:50Z</time>
      </trkpt>
      <trkpt lat="47.23253" lon="6.03729">
        <ele>269.4</ele>
        <time>2024-08-03T11:28:51Z</time>
      </trkpt>
      <trkpt lat="47.23253" lon="6.03729">
        <ele>269.4</ele>
        <time>2024-08-03T11:28:52Z</time>
      </trkpt>
      <trkpt lat="47.23253" lon="6.03729">
        <ele>269.4</ele>
        <time>2024-08-03T11:28:53Z</time>
      </trkpt>
      <trkpt lat="47.23253" lon="6.03729">
        <ele>269.2</ele>
        <time>2024-08-03T11:28:54Z</time>
      </trkpt>
      <trkpt lat="47.23253" lon="6.03729">
        <ele>269.4</ele>
        <time>2024-08-03T11:28:55Z</time>
      </trkpt>
      <trkpt lat="47.23253" lon="6.03728">
        <ele>269.4</ele>
        <time>2024-08-03T11:28:56Z</time>
      </trkpt>
      <trkpt lat="47.23253" lon="6.03726">
        <ele>269.4</ele>
        <time>2024-08-03T11:28:57Z</time>
      </trkpt>
      <trkpt lat="47.23252" lon="6.03724">
        <ele>269.4</ele>
        <time>2024-08-03T11:28:58Z</time>
      </trkpt>
      <trkpt lat="47.23251" lon="6.03723">
        <ele>269.4</ele>
        <time>2024-08-03T11:28:59Z</time>
      </trkpt>
      <trkpt lat="47.2325" lon="6.03723">
        <ele>269.4</ele>
        <time>2024-08-03T11:29:00Z</time>
      </trkpt>
      <trkpt lat="47.23249" lon="6.03723">
        <ele>269.4</ele>
        <time>2024-08-03T11:29:01Z</time>
      </trkpt>
      <trkpt lat="47.23247" lon="6.03723">
        <ele>269.6</ele>
        <time>2024-08-03T11:29:02Z</time>
      </trkpt>
      <trkpt lat="47.23244" lon="6.03724">
        <ele>269.4</ele>
        <time>2024-08-03T11:29:03Z</time>
      </trkpt>
      <trkpt lat="47.23242" lon="6.03725">
        <ele>269.4</ele>
        <time>2024-08-03T11:29:04Z</time>
      </trkpt>
      <trkpt lat="47.23241" lon="6.03727">
        <ele>269.6</ele>
        <time>2024-08-03T11:29:05Z</time>
      </trkpt>
      <trkpt lat="47.23239" lon="6.03729">
        <ele>269.6</ele>
        <time>2024-08-03T11:29:06Z</time>
      </trkpt>
      <trkpt lat="47.23237" lon="6.0373">
        <ele>269.6</ele>
        <time>2024-08-03T11:29:07Z</time>
      </trkpt>
      <trkpt lat="47.23235" lon="6.03733">
        <ele>269.6</ele>
        <time>2024-08-03T11:29:08Z</time>
      </trkpt>
      <trkpt lat="47.23233" lon="6.03735">
        <ele>269.6</ele>
        <time>2024-08-03T11:29:09Z</time>
      </trkpt>
      <trkpt lat="47.23232" lon="6.03739">
        <ele>269.6</ele>
        <time>2024-08-03T11:29:10Z</time>
      </trkpt>
      <trkpt lat="47.23232" lon="6.03744">
        <ele>269.6</ele>
        <time>2024-08-03T11:29:11Z</time>
      </trkpt>
      <trkpt lat="47.23232" lon="6.03744">
        <ele>269.6</ele>
        <time>2024-08-03T11:29:12Z</time>
      </trkpt>
      <trkpt lat="47.23231" lon="6.03745">
        <ele>269.6</ele>
        <time>2024-08-03T11:29:13Z</time>
      </trkpt>
      <trkpt lat="47.23229" lon="6.03749">
        <ele>269.8</ele>
        <time>2024-08-03T11:29:14Z</time>
      </trkpt>
      <trkpt lat="47.23227" lon="6.03752">
        <ele>269.6</ele>
        <time>2024-08-03T11:29:15Z</time>
      </trkpt>
      <trkpt lat="47.23226" lon="6.03765">
        <ele>269.6</ele>
        <time>2024-08-03T11:29:16Z</time>
      </trkpt>
      <trkpt lat="47.23223" lon="6.0377">
        <ele>269.8</ele>
        <time>2024-08-03T11:29:17Z</time>
      </trkpt>
      <trkpt lat="47.23219" lon="6.03775">
        <ele>269.8</ele>
        <time>2024-08-03T11:29:18Z</time>
      </trkpt>
      <trkpt lat="47.23216" lon="6.0378">
        <ele>269.6</ele>
        <time>2024-08-03T11:29:19Z</time>
      </trkpt>
      <trkpt lat="47.23211" lon="6.03785">
        <ele>269.6</ele>
        <time>2024-08-03T11:29:20Z</time>
      </trkpt>
      <trkpt lat="47.23211" lon="6.03785">
        <ele>269.6</ele>
        <time>2024-08-03T11:29:21Z</time>
      </trkpt>
      <trkpt lat="47.23206" lon="6.03789">
        <ele>269.8</ele>
        <time>2024-08-03T11:29:22Z</time>
      </trkpt>
      <trkpt lat="47.23202" lon="6.03794">
        <ele>269.8</ele>
        <time>2024-08-03T11:29:23Z</time>
      </trkpt>
      <trkpt lat="47.23198" lon="6.03797">
        <ele>269.6</ele>
        <time>2024-08-03T11:29:24Z</time>
      </trkpt>
      <trkpt lat="47.23195" lon="6.038">
        <ele>269.6</ele>
        <time>2024-08-03T11:29:25Z</time>
      </trkpt>
      <trkpt lat="47.2319" lon="6.03802">
        <ele>269.6</ele>
        <time>2024-08-03T11:29:26Z</time>
      </trkpt>
      <trkpt lat="47.23187" lon="6.03805">
        <ele>269.6</ele>
        <time>2024-08-03T11:29:27Z</time>
      </trkpt>
      <trkpt lat="47.23183" lon="6.03809">
        <ele>269.6</ele>
        <time>2024-08-03T11:29:28Z</time>
      </trkpt>
      <trkpt lat="47.2318" lon="6.03814">
        <ele>269.6</ele>
        <time>2024-08-03T11:29:29Z</time>
      </trkpt>
      <trkpt lat="47.23177" lon="6.03818">
        <ele>269.6</ele>
        <time>2024-08-03T11:29:30Z</time>
      </trkpt>
      <trkpt lat="47.23174" lon="6.03821">
        <ele>269.6</ele>
        <time>2024-08-03T11:29:31Z</time>
      </trkpt>
      <trkpt lat="47.2317" lon="6.03824">
        <ele>269.6</ele>
        <time>2024-08-03T11:29:32Z</time>
      </trkpt>
      <trkpt lat="47.23167" lon="6.03826">
        <ele>269.8</ele>
        <time>2024-08-03T11:29:33Z</time>
      </trkpt>
      <trkpt lat="47.23162" lon="6.03829">
        <ele>269.6</ele>
        <time>2024-08-03T11:29:34Z</time>
      </trkpt>
      <trkpt lat="47.23159" lon="6.03833">
        <ele>269.6</ele>
        <time>2024-08-03T11:29:35Z</time>
      </trkpt>
      <trkpt lat="47.23155" lon="6.03835">
        <ele>269.6</ele>
        <time>2024-08-03T11:29:36Z</time>
      </trkpt>
      <trkpt lat="47.2315" lon="6.03838">
        <ele>269.6</ele>
        <time>2024-08-03T11:29:37Z</time>
      </trkpt>
      <trkpt lat="47.23145" lon="6.03841">
        <ele>269.6</ele>
        <time>2024-08-03T11:29:38Z</time>
      </trkpt>
      <trkpt lat="47.23141" lon="6.03844">
        <ele>269.6</ele>
        <time>2024-08-03T11:29:39Z</time>
      </trkpt>
      <trkpt lat="47.23136" lon="6.03848">
        <ele>269.4</ele>
        <time>2024-08-03T11:29:40Z</time>
      </trkpt>
      <trkpt lat="47.23129" lon="6.03856">
        <ele>269.6</ele>
        <time>2024-08-03T11:29:41Z</time>
      </trkpt>
      <trkpt lat="47.23129" lon="6.03856">
        <ele>269.6</ele>
        <time>2024-08-03T11:29:42Z</time>
      </trkpt>
      <trkpt lat="47.23127" lon="6.03862">
        <ele>269.6</ele>
        <time>2024-08-03T11:29:43Z</time>
      </trkpt>
      <trkpt lat="47.23125" lon="6.03868">
        <ele>269.4</ele>
        <time>2024-08-03T11:29:44Z</time>
      </trkpt>
      <trkpt lat="47.23124" lon="6.03875">
        <ele>269.6</ele>
        <time>2024-08-03T11:29:45Z</time>
      </trkpt>
      <trkpt lat="47.23124" lon="6.03881">
        <ele>269.6</ele>
        <time>2024-08-03T11:29:46Z</time>
      </trkpt>
      <trkpt lat="47.23124" lon="6.03886">
        <ele>269.4</ele>
        <time>2024-08-03T11:29:47Z</time>
      </trkpt>
      <trkpt lat="47.23125" lon="6.03891">
        <ele>269.4</ele>
        <time>2024-08-03T11:29:48Z</time>
      </trkpt>
      <trkpt lat="47.23127" lon="6.03896">
        <ele>269.6</ele>
        <time>2024-08-03T11:29:49Z</time>
      </trkpt>
      <trkpt lat="47.23131" lon="6.03902">
        <ele>269.6</ele>
        <time>2024-08-03T11:29:50Z</time>
      </trkpt>
      <trkpt lat="47.23136" lon="6.03909">
        <ele>269.6</ele>
        <time>2024-08-03T11:29:51Z</time>
      </trkpt>
      <trkpt lat="47.23138" lon="6.03915">
        <ele>269.6</ele>
        <time>2024-08-03T11:29:52Z</time>
      </trkpt>
      <trkpt lat="47.23138" lon="6.0392">
        <ele>269.6</ele>
        <time>2024-08-03T11:29:53Z</time>
      </trkpt>
      <trkpt lat="47.23137" lon="6.03925">
        <ele>269.6</ele>
        <time>2024-08-03T11:29:54Z</time>
      </trkpt>
      <trkpt lat="47.23134" lon="6.03929">
        <ele>269.6</ele>
        <time>2024-08-03T11:29:55Z</time>
      </trkpt>
      <trkpt lat="47.23131" lon="6.03933">
        <ele>269.8</ele>
        <time>2024-08-03T11:29:56Z</time>
      </trkpt>
      <trkpt lat="47.23127" lon="6.03936">
        <ele>269.8</ele>
        <time>2024-08-03T11:29:57Z</time>
      </trkpt>
      <trkpt lat="47.23123" lon="6.03939">
        <ele>270</ele>
        <time>2024-08-03T11:29:58Z</time>
      </trkpt>
      <trkpt lat="47.23119" lon="6.03941">
        <ele>270</ele>
        <time>2024-08-03T11:29:59Z</time>
      </trkpt>
      <trkpt lat="47.23115" lon="6.03944">
        <ele>270</ele>
        <time>2024-08-03T11:30:00Z</time>
      </trkpt>
      <trkpt lat="47.23112" lon="6.03947">
        <ele>270.2</ele>
        <time>2024-08-03T11:30:01Z</time>
      </trkpt>
      <trkpt lat="47.23108" lon="6.0395">
        <ele>270.2</ele>
        <time>2024-08-03T11:30:02Z</time>
      </trkpt>
      <trkpt lat="47.23104" lon="6.03954">
        <ele>270.2</ele>
        <time>2024-08-03T11:30:03Z</time>
      </trkpt>
      <trkpt lat="47.23101" lon="6.03959">
        <ele>270.4</ele>
        <time>2024-08-03T11:30:04Z</time>
      </trkpt>
      <trkpt lat="47.23094" lon="6.03964">
        <ele>270.4</ele>
        <time>2024-08-03T11:30:05Z</time>
      </trkpt>
      <trkpt lat="47.23094" lon="6.03964">
        <ele>270.4</ele>
        <time>2024-08-03T11:30:06Z</time>
      </trkpt>
      <trkpt lat="47.23088" lon="6.03966">
        <ele>270.4</ele>
        <time>2024-08-03T11:30:07Z</time>
      </trkpt>
      <trkpt lat="47.23084" lon="6.03971">
        <ele>270.4</ele>
        <time>2024-08-03T11:30:08Z</time>
      </trkpt>
      <trkpt lat="47.23079" lon="6.03976">
        <ele>270.6</ele>
        <time>2024-08-03T11:30:09Z</time>
      </trkpt>
      <trkpt lat="47.23074" lon="6.03979">
        <ele>270.6</ele>
        <time>2024-08-03T11:30:10Z</time>
      </trkpt>
      <trkpt lat="47.23069" lon="6.03981">
        <ele>270.4</ele>
        <time>2024-08-03T11:30:11Z</time>
      </trkpt>
      <trkpt lat="47.23064" lon="6.03983">
        <ele>270.4</ele>
        <time>2024-08-03T11:30:12Z</time>
      </trkpt>
      <trkpt lat="47.23061" lon="6.03988">
        <ele>270.4</ele>
        <time>2024-08-03T11:30:13Z</time>
      </trkpt>
      <trkpt lat="47.23058" lon="6.03993">
        <ele>270.4</ele>
        <time>2024-08-03T11:30:14Z</time>
      </trkpt>
      <trkpt lat="47.23054" lon="6.03998">
        <ele>270.6</ele>
        <time>2024-08-03T11:30:15Z</time>
      </trkpt>
      <trkpt lat="47.2305" lon="6.04002">
        <ele>270.4</ele>
        <time>2024-08-03T11:30:16Z</time>
      </trkpt>
      <trkpt lat="47.23047" lon="6.04008">
        <ele>270.4</ele>
        <time>2024-08-03T11:30:17Z</time>
      </trkpt>
      <trkpt lat="47.23043" lon="6.04013">
        <ele>270.4</ele>
        <time>2024-08-03T11:30:18Z</time>
      </trkpt>
      <trkpt lat="47.23039" lon="6.04019">
        <ele>270.4</ele>
        <time>2024-08-03T11:30:19Z</time>
      </trkpt>
      <trkpt lat="47.23035" lon="6.04023">
        <ele>270.4</ele>
        <time>2024-08-03T11:30:20Z</time>
      </trkpt>
      <trkpt lat="47.23031" lon="6.04029">
        <ele>270.4</ele>
        <time>2024-08-03T11:30:21Z</time>
      </trkpt>
      <trkpt lat="47.23028" lon="6.04034">
        <ele>270.6</ele>
        <time>2024-08-03T11:30:22Z</time>
      </trkpt>
      <trkpt lat="47.23024" lon="6.04039">
        <ele>270.4</ele>
        <time>2024-08-03T11:30:23Z</time>
      </trkpt>
      <trkpt lat="47.2302" lon="6.04045">
        <ele>270.4</ele>
        <time>2024-08-03T11:30:24Z</time>
      </trkpt>
      <trkpt lat="47.23017" lon="6.04049">
        <ele>270.2</ele>
        <time>2024-08-03T11:30:25Z</time>
      </trkpt>
      <trkpt lat="47.23013" lon="6.04054">
        <ele>270.4</ele>
        <time>2024-08-03T11:30:26Z</time>
      </trkpt>
      <trkpt lat="47.23009" lon="6.04059">
        <ele>270.4</ele>
        <time>2024-08-03T11:30:27Z</time>
      </trkpt>
      <trkpt lat="47.23005" lon="6.04063">
        <ele>270.4</ele>
        <time>2024-08-03T11:30:28Z</time>
      </trkpt>
      <trkpt lat="47.23" lon="6.04068">
        <ele>270.4</ele>
        <time>2024-08-03T11:30:29Z</time>
      </trkpt>
      <trkpt lat="47.22996" lon="6.04072">
        <ele>270.2</ele>
        <time>2024-08-03T11:30:30Z</time>
      </trkpt>
      <trkpt lat="47.22991" lon="6.04076">
        <ele>270.2</ele>
        <time>2024-08-03T11:30:31Z</time>
      </trkpt>
      <trkpt lat="47.22987" lon="6.0408">
        <ele>270.2</ele>
        <time>2024-08-03T11:30:32Z</time>
      </trkpt>
      <trkpt lat="47.22983" lon="6.04085">
        <ele>270.2</ele>
        <time>2024-08-03T11:30:33Z</time>
      </trkpt>
      <trkpt lat="47.22978" lon="6.04089">
        <ele>270.2</ele>
        <time>2024-08-03T11:30:34Z</time>
      </trkpt>
      <trkpt lat="47.22972" lon="6.0409">
        <ele>270.2</ele>
        <time>2024-08-03T11:30:35Z</time>
      </trkpt>
      <trkpt lat="47.22967" lon="6.04094">
        <ele>270.2</ele>
        <time>2024-08-03T11:30:36Z</time>
      </trkpt>
      <trkpt lat="47.22964" lon="6.041">
        <ele>270</ele>
        <time>2024-08-03T11:30:37Z</time>
      </trkpt>
      <trkpt lat="47.22961" lon="6.04105">
        <ele>270.2</ele>
        <time>2024-08-03T11:30:38Z</time>
      </trkpt>
      <trkpt lat="47.22957" lon="6.04109">
        <ele>270.2</ele>
        <time>2024-08-03T11:30:39Z</time>
      </trkpt>
      <trkpt lat="47.22952" lon="6.04112">
        <ele>270.2</ele>
        <time>2024-08-03T11:30:40Z</time>
      </trkpt>
      <trkpt lat="47.22948" lon="6.04117">
        <ele>270</ele>
        <time>2024-08-03T11:30:41Z</time>
      </trkpt>
      <trkpt lat="47.22945" lon="6.04122">
        <ele>270.2</ele>
        <time>2024-08-03T11:30:42Z</time>
      </trkpt>
      <trkpt lat="47.22943" lon="6.04128">
        <ele>270</ele>
        <time>2024-08-03T11:30:43Z</time>
      </trkpt>
      <trkpt lat="47.2294" lon="6.04134">
        <ele>270.2</ele>
        <time>2024-08-03T11:30:44Z</time>
      </trkpt>
      <trkpt lat="47.22937" lon="6.04139">
        <ele>270.2</ele>
        <time>2024-08-03T11:30:45Z</time>
      </trkpt>
      <trkpt lat="47.22935" lon="6.04145">
        <ele>270.2</ele>
        <time>2024-08-03T11:30:46Z</time>
      </trkpt>
      <trkpt lat="47.22932" lon="6.04148">
        <ele>270.2</ele>
        <time>2024-08-03T11:30:47Z</time>
      </trkpt>
      <trkpt lat="47.22928" lon="6.0415">
        <ele>270.2</ele>
        <time>2024-08-03T11:30:48Z</time>
      </trkpt>
      <trkpt lat="47.22925" lon="6.04152">
        <ele>270.4</ele>
        <time>2024-08-03T11:30:49Z</time>
      </trkpt>
      <trkpt lat="47.22921" lon="6.04154">
        <ele>270.4</ele>
        <time>2024-08-03T11:30:50Z</time>
      </trkpt>
      <trkpt lat="47.22918" lon="6.04156">
        <ele>270.4</ele>
        <time>2024-08-03T11:30:51Z</time>
      </trkpt>
      <trkpt lat="47.22915" lon="6.04157">
        <ele>270.4</ele>
        <time>2024-08-03T11:30:52Z</time>
      </trkpt>
      <trkpt lat="47.22913" lon="6.04159">
        <ele>270.4</ele>
        <time>2024-08-03T11:30:53Z</time>
      </trkpt>
      <trkpt lat="47.22912" lon="6.04164">
        <ele>270.4</ele>
        <time>2024-08-03T11:30:54Z</time>
      </trkpt>
      <trkpt lat="47.22912" lon="6.0417">
        <ele>270.4</ele>
        <time>2024-08-03T11:30:55Z</time>
      </trkpt>
      <trkpt lat="47.22912" lon="6.04176">
        <ele>270.6</ele>
        <time>2024-08-03T11:30:56Z</time>
      </trkpt>
      <trkpt lat="47.22912" lon="6.04183">
        <ele>270.8</ele>
        <time>2024-08-03T11:30:57Z</time>
      </trkpt>
      <trkpt lat="47.22913" lon="6.04189">
        <ele>271</ele>
        <time>2024-08-03T11:30:58Z</time>
      </trkpt>
      <trkpt lat="47.22914" lon="6.04194">
        <ele>271.4</ele>
        <time>2024-08-03T11:30:59Z</time>
      </trkpt>
      <trkpt lat="47.22914" lon="6.04198">
        <ele>271.6</ele>
        <time>2024-08-03T11:31:00Z</time>
      </trkpt>
      <trkpt lat="47.22914" lon="6.04201">
        <ele>271.6</ele>
        <time>2024-08-03T11:31:01Z</time>
      </trkpt>
      <trkpt lat="47.22913" lon="6.04204">
        <ele>272</ele>
        <time>2024-08-03T11:31:02Z</time>
      </trkpt>
      <trkpt lat="47.22912" lon="6.04207">
        <ele>272.2</ele>
        <time>2024-08-03T11:31:03Z</time>
      </trkpt>
      <trkpt lat="47.22911" lon="6.0421">
        <ele>272.4</ele>
        <time>2024-08-03T11:31:04Z</time>
      </trkpt>
      <trkpt lat="47.2291" lon="6.04213">
        <ele>272.6</ele>
        <time>2024-08-03T11:31:05Z</time>
      </trkpt>
      <trkpt lat="47.2291" lon="6.04217">
        <ele>272.8</ele>
        <time>2024-08-03T11:31:06Z</time>
      </trkpt>
      <trkpt lat="47.22909" lon="6.0422">
        <ele>273</ele>
        <time>2024-08-03T11:31:07Z</time>
      </trkpt>
      <trkpt lat="47.22909" lon="6.04223">
        <ele>273.2</ele>
        <time>2024-08-03T11:31:08Z</time>
      </trkpt>
      <trkpt lat="47.22908" lon="6.04226">
        <ele>273.4</ele>
        <time>2024-08-03T11:31:09Z</time>
      </trkpt>
      <trkpt lat="47.22907" lon="6.0423">
        <ele>273.6</ele>
        <time>2024-08-03T11:31:10Z</time>
      </trkpt>
      <trkpt lat="47.22906" lon="6.04233">
        <ele>274</ele>
        <time>2024-08-03T11:31:11Z</time>
      </trkpt>
      <trkpt lat="47.22904" lon="6.04237">
        <ele>274.2</ele>
        <time>2024-08-03T11:31:12Z</time>
      </trkpt>
      <trkpt lat="47.22903" lon="6.0424">
        <ele>274.4</ele>
        <time>2024-08-03T11:31:13Z</time>
      </trkpt>
      <trkpt lat="47.22902" lon="6.04244">
        <ele>274.6</ele>
        <time>2024-08-03T11:31:14Z</time>
      </trkpt>
      <trkpt lat="47.22902" lon="6.04248">
        <ele>275</ele>
        <time>2024-08-03T11:31:15Z</time>
      </trkpt>
      <trkpt lat="47.22901" lon="6.04252">
        <ele>275.2</ele>
        <time>2024-08-03T11:31:16Z</time>
      </trkpt>
      <trkpt lat="47.229" lon="6.04255">
        <ele>275.2</ele>
        <time>2024-08-03T11:31:17Z</time>
      </trkpt>
      <trkpt lat="47.22898" lon="6.04258">
        <ele>275.6</ele>
        <time>2024-08-03T11:31:18Z</time>
      </trkpt>
      <trkpt lat="47.22898" lon="6.04261">
        <ele>275.6</ele>
        <time>2024-08-03T11:31:19Z</time>
      </trkpt>
      <trkpt lat="47.22897" lon="6.04265">
        <ele>275.8</ele>
        <time>2024-08-03T11:31:20Z</time>
      </trkpt>
      <trkpt lat="47.22897" lon="6.04267">
        <ele>276</ele>
        <time>2024-08-03T11:31:21Z</time>
      </trkpt>
      <trkpt lat="47.22896" lon="6.04271">
        <ele>276</ele>
        <time>2024-08-03T11:31:22Z</time>
      </trkpt>
      <trkpt lat="47.22895" lon="6.04275">
        <ele>276</ele>
        <time>2024-08-03T11:31:23Z</time>
      </trkpt>
      <trkpt lat="47.22894" lon="6.04279">
        <ele>276</ele>
        <time>2024-08-03T11:31:24Z</time>
      </trkpt>
      <trkpt lat="47.22893" lon="6.04282">
        <ele>276.2</ele>
        <time>2024-08-03T11:31:25Z</time>
      </trkpt>
      <trkpt lat="47.22892" lon="6.04286">
        <ele>276.4</ele>
        <time>2024-08-03T11:31:26Z</time>
      </trkpt>
      <trkpt lat="47.22891" lon="6.04289">
        <ele>276.6</ele>
        <time>2024-08-03T11:31:27Z</time>
      </trkpt>
      <trkpt lat="47.22891" lon="6.04292">
        <ele>276.8</ele>
        <time>2024-08-03T11:31:28Z</time>
      </trkpt>
      <trkpt lat="47.2289" lon="6.04296">
        <ele>276.8</ele>
        <time>2024-08-03T11:31:29Z</time>
      </trkpt>
      <trkpt lat="47.22889" lon="6.043">
        <ele>277</ele>
        <time>2024-08-03T11:31:30Z</time>
      </trkpt>
      <trkpt lat="47.22889" lon="6.04304">
        <ele>277.2</ele>
        <time>2024-08-03T11:31:31Z</time>
      </trkpt>
      <trkpt lat="47.22888" lon="6.04308">
        <ele>277.4</ele>
        <time>2024-08-03T11:31:32Z</time>
      </trkpt>
      <trkpt lat="47.22888" lon="6.04312">
        <ele>277.8</ele>
        <time>2024-08-03T11:31:33Z</time>
      </trkpt>
      <trkpt lat="47.22888" lon="6.04315">
        <ele>277.8</ele>
        <time>2024-08-03T11:31:34Z</time>
      </trkpt>
      <trkpt lat="47.22888" lon="6.04319">
        <ele>278</ele>
        <time>2024-08-03T11:31:35Z</time>
      </trkpt>
      <trkpt lat="47.22887" lon="6.04322">
        <ele>278.2</ele>
        <time>2024-08-03T11:31:36Z</time>
      </trkpt>
      <trkpt lat="47.22887" lon="6.04326">
        <ele>278.4</ele>
        <time>2024-08-03T11:31:37Z</time>
      </trkpt>
      <trkpt lat="47.22887" lon="6.04329">
        <ele>278.4</ele>
        <time>2024-08-03T11:31:38Z</time>
      </trkpt>
      <trkpt lat="47.22886" lon="6.04332">
        <ele>278.4</ele>
        <time>2024-08-03T11:31:39Z</time>
      </trkpt>
      <trkpt lat="47.22886" lon="6.04334">
        <ele>278.6</ele>
        <time>2024-08-03T11:31:40Z</time>
      </trkpt>
      <trkpt lat="47.22885" lon="6.04337">
        <ele>278.8</ele>
        <time>2024-08-03T11:31:41Z</time>
      </trkpt>
      <trkpt lat="47.22885" lon="6.0434">
        <ele>279</ele>
        <time>2024-08-03T11:31:42Z</time>
      </trkpt>
      <trkpt lat="47.22885" lon="6.04343">
        <ele>279.2</ele>
        <time>2024-08-03T11:31:43Z</time>
      </trkpt>
      <trkpt lat="47.22885" lon="6.04346">
        <ele>279.4</ele>
        <time>2024-08-03T11:31:44Z</time>
      </trkpt>
      <trkpt lat="47.22886" lon="6.04349">
        <ele>279.6</ele>
        <time>2024-08-03T11:31:45Z</time>
      </trkpt>
      <trkpt lat="47.22886" lon="6.04352">
        <ele>279.8</ele>
        <time>2024-08-03T11:31:46Z</time>
      </trkpt>
      <trkpt lat="47.22887" lon="6.04355">
        <ele>280.2</ele>
        <time>2024-08-03T11:31:47Z</time>
      </trkpt>
      <trkpt lat="47.22887" lon="6.04358">
        <ele>280.4</ele>
        <time>2024-08-03T11:31:48Z</time>
      </trkpt>
      <trkpt lat="47.22887" lon="6.04361">
        <ele>280.6</ele>
        <time>2024-08-03T11:31:49Z</time>
      </trkpt>
      <trkpt lat="47.22887" lon="6.04365">
        <ele>281</ele>
        <time>2024-08-03T11:31:50Z</time>
      </trkpt>
      <trkpt lat="47.22888" lon="6.04368">
        <ele>281.2</ele>
        <time>2024-08-03T11:31:51Z</time>
      </trkpt>
      <trkpt lat="47.22888" lon="6.0437">
        <ele>281.6</ele>
        <time>2024-08-03T11:31:52Z</time>
      </trkpt>
      <trkpt lat="47.22888" lon="6.04373">
        <ele>281.8</ele>
        <time>2024-08-03T11:31:53Z</time>
      </trkpt>
      <trkpt lat="47.22888" lon="6.04376">
        <ele>282</ele>
        <time>2024-08-03T11:31:54Z</time>
      </trkpt>
      <trkpt lat="47.22888" lon="6.04378">
        <ele>282.2</ele>
        <time>2024-08-03T11:31:55Z</time>
      </trkpt>
      <trkpt lat="47.22889" lon="6.04381">
        <ele>282.6</ele>
        <time>2024-08-03T11:31:56Z</time>
      </trkpt>
      <trkpt lat="47.22889" lon="6.04384">
        <ele>282.6</ele>
        <time>2024-08-03T11:31:57Z</time>
      </trkpt>
      <trkpt lat="47.22889" lon="6.04386">
        <ele>283</ele>
        <time>2024-08-03T11:31:58Z</time>
      </trkpt>
      <trkpt lat="47.22889" lon="6.04389">
        <ele>283.2</ele>
        <time>2024-08-03T11:31:59Z</time>
      </trkpt>
      <trkpt lat="47.22889" lon="6.04392">
        <ele>283.6</ele>
        <time>2024-08-03T11:32:00Z</time>
      </trkpt>
      <trkpt lat="47.2289" lon="6.04395">
        <ele>283.6</ele>
        <time>2024-08-03T11:32:01Z</time>
      </trkpt>
      <trkpt lat="47.2289" lon="6.04398">
        <ele>283.8</ele>
        <time>2024-08-03T11:32:02Z</time>
      </trkpt>
      <trkpt lat="47.22891" lon="6.04401">
        <ele>284.2</ele>
        <time>2024-08-03T11:32:03Z</time>
      </trkpt>
      <trkpt lat="47.22892" lon="6.04404">
        <ele>284.4</ele>
        <time>2024-08-03T11:32:04Z</time>
      </trkpt>
      <trkpt lat="47.22892" lon="6.04406">
        <ele>284.6</ele>
        <time>2024-08-03T11:32:05Z</time>
      </trkpt>
      <trkpt lat="47.22893" lon="6.04409">
        <ele>285</ele>
        <time>2024-08-03T11:32:06Z</time>
      </trkpt>
      <trkpt lat="47.22893" lon="6.04412">
        <ele>285.4</ele>
        <time>2024-08-03T11:32:07Z</time>
      </trkpt>
      <trkpt lat="47.22893" lon="6.04414">
        <ele>285.4</ele>
        <time>2024-08-03T11:32:08Z</time>
      </trkpt>
      <trkpt lat="47.22894" lon="6.04417">
        <ele>285.8</ele>
        <time>2024-08-03T11:32:09Z</time>
      </trkpt>
      <trkpt lat="47.22895" lon="6.0442">
        <ele>286</ele>
        <time>2024-08-03T11:32:10Z</time>
      </trkpt>
      <trkpt lat="47.22896" lon="6.04422">
        <ele>286.4</ele>
        <time>2024-08-03T11:32:11Z</time>
      </trkpt>
      <trkpt lat="47.22896" lon="6.04425">
        <ele>286.8</ele>
        <time>2024-08-03T11:32:12Z</time>
      </trkpt>
      <trkpt lat="47.22897" lon="6.04428">
        <ele>287</ele>
        <time>2024-08-03T11:32:13Z</time>
      </trkpt>
      <trkpt lat="47.22898" lon="6.0443">
        <ele>287.6</ele>
        <time>2024-08-03T11:32:14Z</time>
      </trkpt>
      <trkpt lat="47.22899" lon="6.04433">
        <ele>288</ele>
        <time>2024-08-03T11:32:15Z</time>
      </trkpt>
      <trkpt lat="47.22901" lon="6.04436">
        <ele>288.2</ele>
        <time>2024-08-03T11:32:16Z</time>
      </trkpt>
      <trkpt lat="47.22902" lon="6.04438">
        <ele>288.6</ele>
        <time>2024-08-03T11:32:17Z</time>
      </trkpt>
      <trkpt lat="47.22902" lon="6.04441">
        <ele>288.8</ele>
        <time>2024-08-03T11:32:18Z</time>
      </trkpt>
      <trkpt lat="47.22903" lon="6.04444">
        <ele>289.2</ele>
        <time>2024-08-03T11:32:19Z</time>
      </trkpt>
      <trkpt lat="47.22902" lon="6.04447">
        <ele>289.4</ele>
        <time>2024-08-03T11:32:20Z</time>
      </trkpt>
      <trkpt lat="47.22902" lon="6.04449">
        <ele>289.8</ele>
        <time>2024-08-03T11:32:21Z</time>
      </trkpt>
      <trkpt lat="47.22902" lon="6.04452">
        <ele>289.8</ele>
        <time>2024-08-03T11:32:22Z</time>
      </trkpt>
      <trkpt lat="47.22902" lon="6.04455">
        <ele>290</ele>
        <time>2024-08-03T11:32:23Z</time>
      </trkpt>
      <trkpt lat="47.22903" lon="6.04458">
        <ele>290.4</ele>
        <time>2024-08-03T11:32:24Z</time>
      </trkpt>
      <trkpt lat="47.22903" lon="6.04462">
        <ele>290.6</ele>
        <time>2024-08-03T11:32:25Z</time>
      </trkpt>
      <trkpt lat="47.22903" lon="6.04465">
        <ele>290.6</ele>
        <time>2024-08-03T11:32:26Z</time>
      </trkpt>
      <trkpt lat="47.22903" lon="6.04468">
        <ele>291</ele>
        <time>2024-08-03T11:32:27Z</time>
      </trkpt>
      <trkpt lat="47.22902" lon="6.04471">
        <ele>291.4</ele>
        <time>2024-08-03T11:32:28Z</time>
      </trkpt>
      <trkpt lat="47.22902" lon="6.04474">
        <ele>291.6</ele>
        <time>2024-08-03T11:32:29Z</time>
      </trkpt>
      <trkpt lat="47.22902" lon="6.04477">
        <ele>291.8</ele>
        <time>2024-08-03T11:32:30Z</time>
      </trkpt>
      <trkpt lat="47.22902" lon="6.04481">
        <ele>292.2</ele>
        <time>2024-08-03T11:32:31Z</time>
      </trkpt>
      <trkpt lat="47.22901" lon="6.04484">
        <ele>292.4</ele>
        <time>2024-08-03T11:32:32Z</time>
      </trkpt>
      <trkpt lat="47.22901" lon="6.04486">
        <ele>292.6</ele>
        <time>2024-08-03T11:32:33Z</time>
      </trkpt>
      <trkpt lat="47.22901" lon="6.04488">
        <ele>292.8</ele>
        <time>2024-08-03T11:32:34Z</time>
      </trkpt>
      <trkpt lat="47.229" lon="6.0449">
        <ele>293</ele>
        <time>2024-08-03T11:32:35Z</time>
      </trkpt>
      <trkpt lat="47.229" lon="6.04492">
        <ele>293</ele>
        <time>2024-08-03T11:32:36Z</time>
      </trkpt>
      <trkpt lat="47.229" lon="6.04494">
        <ele>293.2</ele>
        <time>2024-08-03T11:32:37Z</time>
      </trkpt>
      <trkpt lat="47.22899" lon="6.04495">
        <ele>293</ele>
        <time>2024-08-03T11:32:38Z</time>
      </trkpt>
      <trkpt lat="47.22899" lon="6.04496">
        <ele>293</ele>
        <time>2024-08-03T11:32:39Z</time>
      </trkpt>
      <trkpt lat="47.22899" lon="6.04497">
        <ele>293</ele>
        <time>2024-08-03T11:32:40Z</time>
      </trkpt>
      <trkpt lat="47.22899" lon="6.04497">
        <ele>293.2</ele>
        <time>2024-08-03T11:32:41Z</time>
      </trkpt>
      <trkpt lat="47.22899" lon="6.04497">
        <ele>293</ele>
        <time>2024-08-03T11:32:42Z</time>
      </trkpt>
      <trkpt lat="47.22899" lon="6.04497">
        <ele>293</ele>
        <time>2024-08-03T11:32:43Z</time>
      </trkpt>
      <trkpt lat="47.22899" lon="6.04497">
        <ele>293</ele>
        <time>2024-08-03T11:32:44Z</time>
      </trkpt>
      <trkpt lat="47.22899" lon="6.04497">
        <ele>293</ele>
        <time>2024-08-03T11:32:45Z</time>
      </trkpt>
      <trkpt lat="47.22899" lon="6.04497">
        <ele>293</ele>
        <time>2024-08-03T11:32:46Z</time>
      </trkpt>
      <trkpt lat="47.22899" lon="6.04497">
        <ele>293</ele>
        <time>2024-08-03T11:32:47Z</time>
      </trkpt>
      <trkpt lat="47.22899" lon="6.04497">
        <ele>292.8</ele>
        <time>2024-08-03T11:32:48Z</time>
      </trkpt>
      <trkpt lat="47.22899" lon="6.04497">
        <ele>292.8</ele>
        <time>2024-08-03T11:32:49Z</time>
      </trkpt>
      <trkpt lat="47.22899" lon="6.04497">
        <ele>292.6</ele>
        <time>2024-08-03T11:32:50Z</time>
      </trkpt>
      <trkpt lat="47.22899" lon="6.04497">
        <ele>292.8</ele>
        <time>2024-08-03T11:32:51Z</time>
      </trkpt>
      <trkpt lat="47.22899" lon="6.04497">
        <ele>292.8</ele>
        <time>2024-08-03T11:32:52Z</time>
      </trkpt>
      <trkpt lat="47.22899" lon="6.04497">
        <ele>292.8</ele>
        <time>2024-08-03T11:32:53Z</time>
      </trkpt>
      <trkpt lat="47.22899" lon="6.04497">
        <ele>292.6</ele>
        <time>2024-08-03T11:32:54Z</time>
      </trkpt>
      <trkpt lat="47.22899" lon="6.04497">
        <ele>292.6</ele>
        <time>2024-08-03T11:32:55Z</time>
      </trkpt>
      <trkpt lat="47.22899" lon="6.04497">
        <ele>292.8</ele>
        <time>2024-08-03T11:32:56Z</time>
      </trkpt>
      <trkpt lat="47.22899" lon="6.04497">
        <ele>292.6</ele>
        <time>2024-08-03T11:32:57Z</time>
      </trkpt>
      <trkpt lat="47.22899" lon="6.04497">
        <ele>292.6</ele>
        <time>2024-08-03T11:32:58Z</time>
      </trkpt>
      <trkpt lat="47.22899" lon="6.04497">
        <ele>292.6</ele>
        <time>2024-08-03T11:32:59Z</time>
      </trkpt>
      <trkpt lat="47.22899" lon="6.04497">
        <ele>292.6</ele>
        <time>2024-08-03T11:33:00Z</time>
      </trkpt>
      <trkpt lat="47.22899" lon="6.04497">
        <ele>292.6</ele>
        <time>2024-08-03T11:33:01Z</time>
      </trkpt>
      <trkpt lat="47.22899" lon="6.04497">
        <ele>292.6</ele>
        <time>2024-08-03T11:33:02Z</time>
      </trkpt>
      <trkpt lat="47.22899" lon="6.04497">
        <ele>292.6</ele>
        <time>2024-08-03T11:33:03Z</time>
      </trkpt>
      <trkpt lat="47.22899" lon="6.04497">
        <ele>292.6</ele>
        <time>2024-08-03T11:33:04Z</time>
      </trkpt>
      <trkpt lat="47.22899" lon="6.04497">
        <ele>292.6</ele>
        <time>2024-08-03T11:33:05Z</time>
      </trkpt>
      <trkpt lat="47.22899" lon="6.04497">
        <ele>292.6</ele>
        <time>2024-08-03T11:33:06Z</time>
      </trkpt>
      <trkpt lat="47.22899" lon="6.04497">
        <ele>292.6</ele>
        <time>2024-08-03T11:33:07Z</time>
      </trkpt>
      <trkpt lat="47.22899" lon="6.04497">
        <ele>292.6</ele>
        <time>2024-08-03T11:33:08Z</time>
      </trkpt>
      <trkpt lat="47.22899" lon="6.04497">
        <ele>292.6</ele>
        <time>2024-08-03T11:33:09Z</time>
      </trkpt>
      <trkpt lat="47.22899" lon="6.04497">
        <ele>292.4</ele>
        <time>2024-08-03T11:33:10Z</time>
      </trkpt>
      <trkpt lat="47.22899" lon="6.04497">
        <ele>292.6</ele>
        <time>2024-08-03T11:33:11Z</time>
      </trkpt>
      <trkpt lat="47.22899" lon="6.04497">
        <ele>292.4</ele>
        <time>2024-08-03T11:33:12Z</time>
      </trkpt>
      <trkpt lat="47.22899" lon="6.04497">
        <ele>292.4</ele>
        <time>2024-08-03T11:33:13Z</time>
      </trkpt>
      <trkpt lat="47.22899" lon="6.04497">
        <ele>292.4</ele>
        <time>2024-08-03T11:33:14Z</time>
      </trkpt>
      <trkpt lat="47.22899" lon="6.04498">
        <ele>292.4</ele>
        <time>2024-08-03T11:33:15Z</time>
      </trkpt>
      <trkpt lat="47.22899" lon="6.04498">
        <ele>292.2</ele>
        <time>2024-08-03T11:33:16Z</time>
      </trkpt>
      <trkpt lat="47.22899" lon="6.04499">
        <ele>292.2</ele>
        <time>2024-08-03T11:33:17Z</time>
      </trkpt>
      <trkpt lat="47.22898" lon="6.04501">
        <ele>292.2</ele>
        <time>2024-08-03T11:33:18Z</time>
      </trkpt>
      <trkpt lat="47.22897" lon="6.04503">
        <ele>292.2</ele>
        <time>2024-08-03T11:33:19Z</time>
      </trkpt>
      <trkpt lat="47.22896" lon="6.04507">
        <ele>292.2</ele>
        <time>2024-08-03T11:33:20Z</time>
      </trkpt>
      <trkpt lat="47.22895" lon="6.04511">
        <ele>292</ele>
        <time>2024-08-03T11:33:21Z</time>
      </trkpt>
      <trkpt lat="47.22895" lon="6.04516">
        <ele>292</ele>
        <time>2024-08-03T11:33:22Z</time>
      </trkpt>
      <trkpt lat="47.22895" lon="6.0452">
        <ele>292</ele>
        <time>2024-08-03T11:33:23Z</time>
      </trkpt>
      <trkpt lat="47.22895" lon="6.04524">
        <ele>292</ele>
        <time>2024-08-03T11:33:24Z</time>
      </trkpt>
      <trkpt lat="47.22896" lon="6.04529">
        <ele>292</ele>
        <time>2024-08-03T11:33:25Z</time>
      </trkpt>
      <trkpt lat="47.22896" lon="6.04533">
        <ele>291.8</ele>
        <time>2024-08-03T11:33:26Z</time>
      </trkpt>
      <trkpt lat="47.22896" lon="6.04538">
        <ele>291.8</ele>
        <time>2024-08-03T11:33:27Z</time>
      </trkpt>
      <trkpt lat="47.22896" lon="6.04542">
        <ele>291.8</ele>
        <time>2024-08-03T11:33:28Z</time>
      </trkpt>
      <trkpt lat="47.22897" lon="6.04547">
        <ele>291.8</ele>
        <time>2024-08-03T11:33:29Z</time>
      </trkpt>
      <trkpt lat="47.22897" lon="6.04551">
        <ele>291.8</ele>
        <time>2024-08-03T11:33:30Z</time>
      </trkpt>
      <trkpt lat="47.22897" lon="6.04555">
        <ele>291.8</ele>
        <time>2024-08-03T11:33:31Z</time>
      </trkpt>
      <trkpt lat="47.22898" lon="6.04559">
        <ele>291.8</ele>
        <time>2024-08-03T11:33:32Z</time>
      </trkpt>
      <trkpt lat="47.22898" lon="6.04563">
        <ele>291.8</ele>
        <time>2024-08-03T11:33:33Z</time>
      </trkpt>
      <trkpt lat="47.22898" lon="6.04567">
        <ele>291.8</ele>
        <time>2024-08-03T11:33:34Z</time>
      </trkpt>
      <trkpt lat="47.22898" lon="6.04571">
        <ele>291.8</ele>
        <time>2024-08-03T11:33:35Z</time>
      </trkpt>
      <trkpt lat="47.22898" lon="6.04576">
        <ele>292</ele>
        <time>2024-08-03T11:33:36Z</time>
      </trkpt>
      <trkpt lat="47.22899" lon="6.04581">
        <ele>292.2</ele>
        <time>2024-08-03T11:33:37Z</time>
      </trkpt>
      <trkpt lat="47.22898" lon="6.04585">
        <ele>292.6</ele>
        <time>2024-08-03T11:33:38Z</time>
      </trkpt>
      <trkpt lat="47.22899" lon="6.0459">
        <ele>292.6</ele>
        <time>2024-08-03T11:33:39Z</time>
      </trkpt>
      <trkpt lat="47.22898" lon="6.04594">
        <ele>293</ele>
        <time>2024-08-03T11:33:40Z</time>
      </trkpt>
      <trkpt lat="47.22898" lon="6.04599">
        <ele>293.4</ele>
        <time>2024-08-03T11:33:41Z</time>
      </trkpt>
      <trkpt lat="47.22899" lon="6.04604">
        <ele>293.4</ele>
        <time>2024-08-03T11:33:42Z</time>
      </trkpt>
      <trkpt lat="47.22899" lon="6.04608">
        <ele>293.6</ele>
        <time>2024-08-03T11:33:43Z</time>
      </trkpt>
      <trkpt lat="47.22899" lon="6.04613">
        <ele>294</ele>
        <time>2024-08-03T11:33:44Z</time>
      </trkpt>
      <trkpt lat="47.22899" lon="6.04617">
        <ele>294.2</ele>
        <time>2024-08-03T11:33:45Z</time>
      </trkpt>
      <trkpt lat="47.229" lon="6.04622">
        <ele>294.2</ele>
        <time>2024-08-03T11:33:46Z</time>
      </trkpt>
      <trkpt lat="47.229" lon="6.04625">
        <ele>294.4</ele>
        <time>2024-08-03T11:33:47Z</time>
      </trkpt>
      <trkpt lat="47.22901" lon="6.04629">
        <ele>294.4</ele>
        <time>2024-08-03T11:33:48Z</time>
      </trkpt>
      <trkpt lat="47.22901" lon="6.04633">
        <ele>294.6</ele>
        <time>2024-08-03T11:33:49Z</time>
      </trkpt>
      <trkpt lat="47.22902" lon="6.04636">
        <ele>294.6</ele>
        <time>2024-08-03T11:33:50Z</time>
      </trkpt>
      <trkpt lat="47.22902" lon="6.04639">
        <ele>294.8</ele>
        <time>2024-08-03T11:33:51Z</time>
      </trkpt>
      <trkpt lat="47.22903" lon="6.04642">
        <ele>295</ele>
        <time>2024-08-03T11:33:52Z</time>
      </trkpt>
      <trkpt lat="47.22904" lon="6.04645">
        <ele>295.2</ele>
        <time>2024-08-03T11:33:53Z</time>
      </trkpt>
      <trkpt lat="47.22905" lon="6.04647">
        <ele>295.4</ele>
        <time>2024-08-03T11:33:54Z</time>
      </trkpt>
      <trkpt lat="47.22906" lon="6.0465">
        <ele>295.4</ele>
        <time>2024-08-03T11:33:55Z</time>
      </trkpt>
      <trkpt lat="47.22907" lon="6.04652">
        <ele>295.6</ele>
        <time>2024-08-03T11:33:56Z</time>
      </trkpt>
      <trkpt lat="47.22908" lon="6.04655">
        <ele>295.8</ele>
        <time>2024-08-03T11:33:57Z</time>
      </trkpt>
      <trkpt lat="47.22909" lon="6.04657">
        <ele>296</ele>
        <time>2024-08-03T11:33:58Z</time>
      </trkpt>
      <trkpt lat="47.2291" lon="6.04659">
        <ele>296.2</ele>
        <time>2024-08-03T11:33:59Z</time>
      </trkpt>
      <trkpt lat="47.22912" lon="6.04662">
        <ele>296.6</ele>
        <time>2024-08-03T11:34:00Z</time>
      </trkpt>
      <trkpt lat="47.22913" lon="6.04664">
        <ele>296.8</ele>
        <time>2024-08-03T11:34:01Z</time>
      </trkpt>
      <trkpt lat="47.22914" lon="6.04666">
        <ele>297</ele>
        <time>2024-08-03T11:34:02Z</time>
      </trkpt>
      <trkpt lat="47.22915" lon="6.04669">
        <ele>297.6</ele>
        <time>2024-08-03T11:34:03Z</time>
      </trkpt>
      <trkpt lat="47.22916" lon="6.04672">
        <ele>297.8</ele>
        <time>2024-08-03T11:34:04Z</time>
      </trkpt>
      <trkpt lat="47.22917" lon="6.04674">
        <ele>298</ele>
        <time>2024-08-03T11:34:05Z</time>
      </trkpt>
      <trkpt lat="47.22918" lon="6.04676">
        <ele>298.4</ele>
        <time>2024-08-03T11:34:06Z</time>
      </trkpt>
      <trkpt lat="47.22919" lon="6.04679">
        <ele>298.6</ele>
        <time>2024-08-03T11:34:07Z</time>
      </trkpt>
      <trkpt lat="47.2292" lon="6.04681">
        <ele>299</ele>
        <time>2024-08-03T11:34:08Z</time>
      </trkpt>
      <trkpt lat="47.22921" lon="6.04683">
        <ele>299.4</ele>
        <time>2024-08-03T11:34:09Z</time>
      </trkpt>
      <trkpt lat="47.22922" lon="6.04685">
        <ele>299.8</ele>
        <time>2024-08-03T11:34:10Z</time>
      </trkpt>
      <trkpt lat="47.22923" lon="6.04686">
        <ele>300.2</ele>
        <time>2024-08-03T11:34:11Z</time>
      </trkpt>
      <trkpt lat="47.22924" lon="6.04689">
        <ele>300.2</ele>
        <time>2024-08-03T11:34:12Z</time>
      </trkpt>
      <trkpt lat="47.22924" lon="6.04691">
        <ele>300.4</ele>
        <time>2024-08-03T11:34:13Z</time>
      </trkpt>
      <trkpt lat="47.22925" lon="6.04693">
        <ele>300.8</ele>
        <time>2024-08-03T11:34:14Z</time>
      </trkpt>
      <trkpt lat="47.22925" lon="6.04695">
        <ele>301.4</ele>
        <time>2024-08-03T11:34:15Z</time>
      </trkpt>
      <trkpt lat="47.22925" lon="6.04697">
        <ele>301.6</ele>
        <time>2024-08-03T11:34:16Z</time>
      </trkpt>
      <trkpt lat="47.22925" lon="6.047">
        <ele>302</ele>
        <time>2024-08-03T11:34:17Z</time>
      </trkpt>
      <trkpt lat="47.22926" lon="6.04702">
        <ele>302.2</ele>
        <time>2024-08-03T11:34:18Z</time>
      </trkpt>
      <trkpt lat="47.22927" lon="6.04704">
        <ele>302.6</ele>
        <time>2024-08-03T11:34:19Z</time>
      </trkpt>
      <trkpt lat="47.22929" lon="6.04705">
        <ele>302.8</ele>
        <time>2024-08-03T11:34:20Z</time>
      </trkpt>
      <trkpt lat="47.2293" lon="6.04707">
        <ele>303</ele>
        <time>2024-08-03T11:34:21Z</time>
      </trkpt>
      <trkpt lat="47.2293" lon="6.04709">
        <ele>303.4</ele>
        <time>2024-08-03T11:34:22Z</time>
      </trkpt>
      <trkpt lat="47.2293" lon="6.0471">
        <ele>303.8</ele>
        <time>2024-08-03T11:34:23Z</time>
      </trkpt>
      <trkpt lat="47.2293" lon="6.04712">
        <ele>304.2</ele>
        <time>2024-08-03T11:34:24Z</time>
      </trkpt>
      <trkpt lat="47.22931" lon="6.04714">
        <ele>304.4</ele>
        <time>2024-08-03T11:34:25Z</time>
      </trkpt>
      <trkpt lat="47.22932" lon="6.04716">
        <ele>304.8</ele>
        <time>2024-08-03T11:34:26Z</time>
      </trkpt>
      <trkpt lat="47.22933" lon="6.04718">
        <ele>305.2</ele>
        <time>2024-08-03T11:34:27Z</time>
      </trkpt>
      <trkpt lat="47.22934" lon="6.04719">
        <ele>305.4</ele>
        <time>2024-08-03T11:34:28Z</time>
      </trkpt>
      <trkpt lat="47.22935" lon="6.04721">
        <ele>305.8</ele>
        <time>2024-08-03T11:34:29Z</time>
      </trkpt>
      <trkpt lat="47.22935" lon="6.04723">
        <ele>306.2</ele>
        <time>2024-08-03T11:34:30Z</time>
      </trkpt>
      <trkpt lat="47.22936" lon="6.04725">
        <ele>306.4</ele>
        <time>2024-08-03T11:34:31Z</time>
      </trkpt>
      <trkpt lat="47.22937" lon="6.04727">
        <ele>306.6</ele>
        <time>2024-08-03T11:34:32Z</time>
      </trkpt>
      <trkpt lat="47.22938" lon="6.04729">
        <ele>307</ele>
        <time>2024-08-03T11:34:33Z</time>
      </trkpt>
      <trkpt lat="47.22938" lon="6.04731">
        <ele>307</ele>
        <time>2024-08-03T11:34:34Z</time>
      </trkpt>
      <trkpt lat="47.22939" lon="6.04732">
        <ele>307.2</ele>
        <time>2024-08-03T11:34:35Z</time>
      </trkpt>
      <trkpt lat="47.2294" lon="6.04734">
        <ele>307.4</ele>
        <time>2024-08-03T11:34:36Z</time>
      </trkpt>
      <trkpt lat="47.22941" lon="6.04736">
        <ele>307.6</ele>
        <time>2024-08-03T11:34:37Z</time>
      </trkpt>
      <trkpt lat="47.22941" lon="6.04738">
        <ele>307.8</ele>
        <time>2024-08-03T11:34:38Z</time>
      </trkpt>
      <trkpt lat="47.22942" lon="6.0474">
        <ele>308.4</ele>
        <time>2024-08-03T11:34:39Z</time>
      </trkpt>
      <trkpt lat="47.22942" lon="6.04742">
        <ele>308.8</ele>
        <time>2024-08-03T11:34:40Z</time>
      </trkpt>
      <trkpt lat="47.22943" lon="6.04744">
        <ele>309.4</ele>
        <time>2024-08-03T11:34:41Z</time>
      </trkpt>
      <trkpt lat="47.22943" lon="6.04746">
        <ele>309.6</ele>
        <time>2024-08-03T11:34:42Z</time>
      </trkpt>
      <trkpt lat="47.22943" lon="6.04748">
        <ele>310</ele>
        <time>2024-08-03T11:34:43Z</time>
      </trkpt>
      <trkpt lat="47.22943" lon="6.04751">
        <ele>310.2</ele>
        <time>2024-08-03T11:34:44Z</time>
      </trkpt>
      <trkpt lat="47.22944" lon="6.04753">
        <ele>310.6</ele>
        <time>2024-08-03T11:34:45Z</time>
      </trkpt>
      <trkpt lat="47.22944" lon="6.04755">
        <ele>311</ele>
        <time>2024-08-03T11:34:46Z</time>
      </trkpt>
      <trkpt lat="47.22944" lon="6.04757">
        <ele>311.4</ele>
        <time>2024-08-03T11:34:47Z</time>
      </trkpt>
      <trkpt lat="47.22945" lon="6.04759">
        <ele>311.6</ele>
        <time>2024-08-03T11:34:48Z</time>
      </trkpt>
      <trkpt lat="47.22946" lon="6.04761">
        <ele>312.4</ele>
        <time>2024-08-03T11:34:49Z</time>
      </trkpt>
      <trkpt lat="47.22947" lon="6.04763">
        <ele>312.6</ele>
        <time>2024-08-03T11:34:50Z</time>
      </trkpt>
      <trkpt lat="47.22948" lon="6.04765">
        <ele>312.8</ele>
        <time>2024-08-03T11:34:51Z</time>
      </trkpt>
      <trkpt lat="47.22949" lon="6.04767">
        <ele>313.2</ele>
        <time>2024-08-03T11:34:52Z</time>
      </trkpt>
      <trkpt lat="47.22949" lon="6.0477">
        <ele>313.6</ele>
        <time>2024-08-03T11:34:53Z</time>
      </trkpt>
      <trkpt lat="47.2295" lon="6.04772">
        <ele>313.8</ele>
        <time>2024-08-03T11:34:54Z</time>
      </trkpt>
      <trkpt lat="47.22951" lon="6.04773">
        <ele>314</ele>
        <time>2024-08-03T11:34:55Z</time>
      </trkpt>
      <trkpt lat="47.22951" lon="6.04776">
        <ele>314</ele>
        <time>2024-08-03T11:34:56Z</time>
      </trkpt>
      <trkpt lat="47.22951" lon="6.04778">
        <ele>314.4</ele>
        <time>2024-08-03T11:34:57Z</time>
      </trkpt>
      <trkpt lat="47.22951" lon="6.0478">
        <ele>314.6</ele>
        <time>2024-08-03T11:34:58Z</time>
      </trkpt>
      <trkpt lat="47.22951" lon="6.04782">
        <ele>314.8</ele>
        <time>2024-08-03T11:34:59Z</time>
      </trkpt>
      <trkpt lat="47.22951" lon="6.04784">
        <ele>315</ele>
        <time>2024-08-03T11:35:00Z</time>
      </trkpt>
      <trkpt lat="47.22951" lon="6.04786">
        <ele>315.2</ele>
        <time>2024-08-03T11:35:01Z</time>
      </trkpt>
      <trkpt lat="47.22952" lon="6.04788">
        <ele>315.6</ele>
        <time>2024-08-03T11:35:02Z</time>
      </trkpt>
      <trkpt lat="47.22953" lon="6.0479">
        <ele>315.6</ele>
        <time>2024-08-03T11:35:03Z</time>
      </trkpt>
      <trkpt lat="47.22954" lon="6.04791">
        <ele>315.8</ele>
        <time>2024-08-03T11:35:04Z</time>
      </trkpt>
      <trkpt lat="47.22954" lon="6.04792">
        <ele>315.8</ele>
        <time>2024-08-03T11:35:05Z</time>
      </trkpt>
      <trkpt lat="47.22955" lon="6.04792">
        <ele>316</ele>
        <time>2024-08-03T11:35:06Z</time>
      </trkpt>
      <trkpt lat="47.22955" lon="6.04791">
        <ele>316</ele>
        <time>2024-08-03T11:35:07Z</time>
      </trkpt>
      <trkpt lat="47.22955" lon="6.04791">
        <ele>316</ele>
        <time>2024-08-03T11:35:08Z</time>
      </trkpt>
      <trkpt lat="47.22956" lon="6.04791">
        <ele>316.4</ele>
        <time>2024-08-03T11:35:09Z</time>
      </trkpt>
      <trkpt lat="47.22956" lon="6.04791">
        <ele>316.2</ele>
        <time>2024-08-03T11:35:10Z</time>
      </trkpt>
      <trkpt lat="47.22956" lon="6.04791">
        <ele>316.6</ele>
        <time>2024-08-03T11:35:11Z</time>
      </trkpt>
      <trkpt lat="47.22956" lon="6.04791">
        <ele>316.8</ele>
        <time>2024-08-03T11:35:12Z</time>
      </trkpt>
      <trkpt lat="47.22956" lon="6.0479">
        <ele>317.2</ele>
        <time>2024-08-03T11:35:13Z</time>
      </trkpt>
      <trkpt lat="47.22957" lon="6.0479">
        <ele>317.2</ele>
        <time>2024-08-03T11:35:14Z</time>
      </trkpt>
      <trkpt lat="47.22957" lon="6.0479">
        <ele>317.2</ele>
        <time>2024-08-03T11:35:15Z</time>
      </trkpt>
      <trkpt lat="47.22958" lon="6.04791">
        <ele>317.2</ele>
        <time>2024-08-03T11:35:16Z</time>
      </trkpt>
      <trkpt lat="47.22959" lon="6.04792">
        <ele>317.2</ele>
        <time>2024-08-03T11:35:17Z</time>
      </trkpt>
      <trkpt lat="47.22959" lon="6.04792">
        <ele>317.2</ele>
        <time>2024-08-03T11:35:18Z</time>
      </trkpt>
      <trkpt lat="47.22959" lon="6.04794">
        <ele>317.4</ele>
        <time>2024-08-03T11:35:19Z</time>
      </trkpt>
      <trkpt lat="47.22959" lon="6.04794">
        <ele>317.4</ele>
        <time>2024-08-03T11:35:20Z</time>
      </trkpt>
      <trkpt lat="47.22959" lon="6.04793">
        <ele>317.2</ele>
        <time>2024-08-03T11:35:21Z</time>
      </trkpt>
      <trkpt lat="47.2296" lon="6.04793">
        <ele>317.4</ele>
        <time>2024-08-03T11:35:22Z</time>
      </trkpt>
      <trkpt lat="47.2296" lon="6.04794">
        <ele>317.4</ele>
        <time>2024-08-03T11:35:23Z</time>
      </trkpt>
      <trkpt lat="47.22961" lon="6.04794">
        <ele>317.2</ele>
        <time>2024-08-03T11:35:24Z</time>
      </trkpt>
      <trkpt lat="47.22961" lon="6.04795">
        <ele>317.4</ele>
        <time>2024-08-03T11:35:25Z</time>
      </trkpt>
      <trkpt lat="47.22962" lon="6.04795">
        <ele>317.4</ele>
        <time>2024-08-03T11:35:26Z</time>
      </trkpt>
      <trkpt lat="47.22962" lon="6.04795">
        <ele>317.4</ele>
        <time>2024-08-03T11:35:27Z</time>
      </trkpt>
      <trkpt lat="47.22962" lon="6.04795">
        <ele>317.4</ele>
        <time>2024-08-03T11:35:28Z</time>
      </trkpt>
      <trkpt lat="47.22962" lon="6.04794">
        <ele>317.4</ele>
        <time>2024-08-03T11:35:29Z</time>
      </trkpt>
      <trkpt lat="47.22962" lon="6.04794">
        <ele>317.4</ele>
        <time>2024-08-03T11:35:30Z</time>
      </trkpt>
      <trkpt lat="47.22962" lon="6.04795">
        <ele>317.4</ele>
        <time>2024-08-03T11:35:31Z</time>
      </trkpt>
      <trkpt lat="47.22962" lon="6.04794">
        <ele>317.4</ele>
        <time>2024-08-03T11:35:32Z</time>
      </trkpt>
      <trkpt lat="47.22962" lon="6.04794">
        <ele>317.4</ele>
        <time>2024-08-03T11:35:33Z</time>
      </trkpt>
      <trkpt lat="47.22962" lon="6.04794">
        <ele>317.6</ele>
        <time>2024-08-03T11:35:34Z</time>
      </trkpt>
      <trkpt lat="47.22962" lon="6.04793">
        <ele>317.6</ele>
        <time>2024-08-03T11:35:35Z</time>
      </trkpt>
      <trkpt lat="47.22962" lon="6.04793">
        <ele>317.4</ele>
        <time>2024-08-03T11:35:36Z</time>
      </trkpt>
      <trkpt lat="47.22962" lon="6.04794">
        <ele>317.4</ele>
        <time>2024-08-03T11:35:37Z</time>
      </trkpt>
      <trkpt lat="47.22962" lon="6.04795">
        <ele>317.4</ele>
        <time>2024-08-03T11:35:38Z</time>
      </trkpt>
      <trkpt lat="47.22962" lon="6.04794">
        <ele>317.4</ele>
        <time>2024-08-03T11:35:39Z</time>
      </trkpt>
      <trkpt lat="47.22962" lon="6.04794">
        <ele>317.4</ele>
        <time>2024-08-03T11:35:40Z</time>
      </trkpt>
      <trkpt lat="47.22961" lon="6.04793">
        <ele>317.4</ele>
        <time>2024-08-03T11:35:41Z</time>
      </trkpt>
      <trkpt lat="47.22961" lon="6.04792">
        <ele>317.4</ele>
        <time>2024-08-03T11:35:42Z</time>
      </trkpt>
      <trkpt lat="47.2296" lon="6.0479">
        <ele>317.4</ele>
        <time>2024-08-03T11:35:43Z</time>
      </trkpt>
      <trkpt lat="47.22958" lon="6.04788">
        <ele>317.4</ele>
        <time>2024-08-03T11:35:44Z</time>
      </trkpt>
      <trkpt lat="47.22958" lon="6.04787">
        <ele>317.2</ele>
        <time>2024-08-03T11:35:45Z</time>
      </trkpt>
      <trkpt lat="47.22958" lon="6.04787">
        <ele>317.2</ele>
        <time>2024-08-03T11:35:46Z</time>
      </trkpt>
      <trkpt lat="47.22957" lon="6.04787">
        <ele>317.2</ele>
        <time>2024-08-03T11:35:47Z</time>
      </trkpt>
      <trkpt lat="47.22957" lon="6.04787">
        <ele>317.4</ele>
        <time>2024-08-03T11:35:48Z</time>
      </trkpt>
      <trkpt lat="47.22957" lon="6.04787">
        <ele>317.4</ele>
        <time>2024-08-03T11:35:49Z</time>
      </trkpt>
      <trkpt lat="47.22956" lon="6.04786">
        <ele>317.4</ele>
        <time>2024-08-03T11:35:50Z</time>
      </trkpt>
      <trkpt lat="47.22956" lon="6.04786">
        <ele>317.4</ele>
        <time>2024-08-03T11:35:51Z</time>
      </trkpt>
      <trkpt lat="47.22955" lon="6.04786">
        <ele>317.4</ele>
        <time>2024-08-03T11:35:52Z</time>
      </trkpt>
      <trkpt lat="47.22955" lon="6.04786">
        <ele>317.4</ele>
        <time>2024-08-03T11:35:53Z</time>
      </trkpt>
      <trkpt lat="47.22954" lon="6.04785">
        <ele>317.4</ele>
        <time>2024-08-03T11:35:54Z</time>
      </trkpt>
      <trkpt lat="47.22954" lon="6.04785">
        <ele>317.4</ele>
        <time>2024-08-03T11:35:55Z</time>
      </trkpt>
      <trkpt lat="47.22953" lon="6.04785">
        <ele>317.4</ele>
        <time>2024-08-03T11:35:56Z</time>
      </trkpt>
      <trkpt lat="47.22953" lon="6.04785">
        <ele>317.4</ele>
        <time>2024-08-03T11:35:57Z</time>
      </trkpt>
      <trkpt lat="47.22952" lon="6.04785">
        <ele>317.4</ele>
        <time>2024-08-03T11:35:58Z</time>
      </trkpt>
      <trkpt lat="47.22952" lon="6.04785">
        <ele>317.2</ele>
        <time>2024-08-03T11:35:59Z</time>
      </trkpt>
      <trkpt lat="47.22953" lon="6.04786">
        <ele>317.2</ele>
        <time>2024-08-03T11:36:00Z</time>
      </trkpt>
      <trkpt lat="47.22952" lon="6.04786">
        <ele>317.2</ele>
        <time>2024-08-03T11:36:01Z</time>
      </trkpt>
      <trkpt lat="47.22952" lon="6.04786">
        <ele>317.2</ele>
        <time>2024-08-03T11:36:02Z</time>
      </trkpt>
      <trkpt lat="47.22952" lon="6.04786">
        <ele>317.4</ele>
        <time>2024-08-03T11:36:03Z</time>
      </trkpt>
      <trkpt lat="47.22952" lon="6.04784">
        <ele>317.2</ele>
        <time>2024-08-03T11:36:04Z</time>
      </trkpt>
      <trkpt lat="47.22952" lon="6.04783">
        <ele>317.2</ele>
        <time>2024-08-03T11:36:05Z</time>
      </trkpt>
      <trkpt lat="47.22952" lon="6.04783">
        <ele>317.2</ele>
        <time>2024-08-03T11:36:06Z</time>
      </trkpt>
      <trkpt lat="47.22952" lon="6.04782">
        <ele>317.2</ele>
        <time>2024-08-03T11:36:07Z</time>
      </trkpt>
      <trkpt lat="47.22953" lon="6.0478">
        <ele>317.2</ele>
        <time>2024-08-03T11:36:08Z</time>
      </trkpt>
      <trkpt lat="47.22949" lon="6.04771">
        <ele>317.6</ele>
        <time>2024-08-03T11:36:28Z</time>
      </trkpt>
      <trkpt lat="47.22949" lon="6.04771">
        <ele>317.6</ele>
        <time>2024-08-03T11:36:29Z</time>
      </trkpt>
      <trkpt lat="47.22949" lon="6.0477">
        <ele>317.6</ele>
        <time>2024-08-03T11:36:30Z</time>
      </trkpt>
      <trkpt lat="47.22949" lon="6.04768">
        <ele>317.6</ele>
        <time>2024-08-03T11:36:31Z</time>
      </trkpt>
      <trkpt lat="47.22949" lon="6.04766">
        <ele>317.6</ele>
        <time>2024-08-03T11:36:32Z</time>
      </trkpt>
      <trkpt lat="47.22949" lon="6.04765">
        <ele>317.6</ele>
        <time>2024-08-03T11:36:33Z</time>
      </trkpt>
      <trkpt lat="47.22949" lon="6.04764">
        <ele>317.8</ele>
        <time>2024-08-03T11:36:34Z</time>
      </trkpt>
    </trkseg>
  </trk>
</gpx>